<?xml version='1.0' encoding='UTF-8'?><gpx version="1.1" creator="JPX - https://github.com/jenetics/jpx" xmlns="http://www.topografix.com/GPX/1/1"><trk><trkseg><trkpt lat="42.58676906381839" lon="12.602881790423249"><ele>162.0</ele><time>2026-04-11T11:40:13Z</time></trkpt><trkpt lat="42.586836751102595" lon="12.602858328494227"><ele>162.0</ele><time>2026-04-11T11:41:00Z</time></trkpt><trkpt lat="42.58690611823726" lon="12.602860227897752"><ele>162.0</ele><time>2026-04-11T11:41:13Z</time></trkpt><trkpt lat="42.58682835841673" lon="12.602846986538939"><ele>162.0</ele><time>2026-04-11T11:41:28Z</time></trkpt><trkpt lat="42.58675281445946" lon="12.602819353677472"><ele>162.0</ele><time>2026-04-11T11:41:30Z</time></trkpt><trkpt lat="42.58667842685842" lon="12.60277736664547"><ele>162.0</ele><time>2026-04-11T11:41:32Z</time></trkpt><trkpt lat="42.58655732896534" lon="12.602757880228753"><ele>162.16666666666666</ele><time>2026-04-11T11:41:54.999Z</time></trkpt><trkpt lat="42.58657952726606" lon="12.602629091043678"><ele>162.33333333333334</ele><time>2026-04-11T11:41:56.999Z</time></trkpt><trkpt lat="42.58658567164631" lon="12.602514541498664"><ele>162.5</ele><time>2026-04-11T11:41:58.999Z</time></trkpt><trkpt lat="42.58651473963291" lon="12.602459763072165"><ele>162.66666666666669</ele><time>2026-04-11T11:41:59.999Z</time></trkpt><trkpt lat="42.586448116402735" lon="12.602413757043003"><ele>162.83333333333334</ele><time>2026-04-11T11:42:00.999Z</time></trkpt><trkpt lat="42.58636391607915" lon="12.602361737694189"><ele>163.0</ele><time>2026-04-11T11:42:02.999Z</time></trkpt><trkpt lat="42.58631867767534" lon="12.60228101925265"><ele>163.0</ele><time>2026-04-11T11:42:04.999Z</time></trkpt><trkpt lat="42.5863096072468" lon="12.602194916889392"><ele>163.0</ele><time>2026-04-11T11:42:05.999Z</time></trkpt><trkpt lat="42.586297601240005" lon="12.602083738012547"><ele>163.0</ele><time>2026-04-11T11:42:06.999Z</time></trkpt><trkpt lat="42.58627694537741" lon="12.601958032335919"><ele>163.0</ele><time>2026-04-11T11:42:07.999Z</time></trkpt><trkpt lat="42.586260895841725" lon="12.601848199909425"><ele>163.0</ele><time>2026-04-11T11:42:08.999Z</time></trkpt><trkpt lat="42.586246727908204" lon="12.601732487103538"><ele>163.0</ele><time>2026-04-11T11:42:09.999Z</time></trkpt><trkpt lat="42.586245622307096" lon="12.6016093402383"><ele>162.60000000000002</ele><time>2026-04-11T11:42:10.999Z</time></trkpt><trkpt lat="42.586257523968044" lon="12.601480630326021"><ele>162.20000000000002</ele><time>2026-04-11T11:42:11.999Z</time></trkpt><trkpt lat="42.586276753981195" lon="12.601350372272293"><ele>161.8</ele><time>2026-04-11T11:42:12.999Z</time></trkpt><trkpt lat="42.586290758698105" lon="12.60122536338766"><ele>161.4</ele><time>2026-04-11T11:42:13.999Z</time></trkpt><trkpt lat="42.586307341556065" lon="12.601115849235624"><ele>161.0</ele><time>2026-04-11T11:42:14.999Z</time></trkpt><trkpt lat="42.586336139961034" lon="12.600956858570015"><ele>160.33333333333331</ele><time>2026-04-11T11:42:16.999Z</time></trkpt><trkpt lat="42.586388139908635" lon="12.600837216522647"><ele>159.66666666666666</ele><time>2026-04-11T11:42:19Z</time></trkpt><trkpt lat="42.586349519695155" lon="12.600765478616015"><ele>159.0</ele><time>2026-04-11T11:42:22Z</time></trkpt><trkpt lat="42.58628599759288" lon="12.600778829131604"><ele>158.33333333333334</ele><time>2026-04-11T11:42:23Z</time></trkpt><trkpt lat="42.586184314744024" lon="12.600886009291715"><ele>157.66666666666669</ele><time>2026-04-11T11:42:25Z</time></trkpt><trkpt lat="42.58614291141921" lon="12.600957430650642"><ele>157.0</ele><time>2026-04-11T11:42:26Z</time></trkpt><trkpt lat="42.58606026827824" lon="12.601059330576527"><ele>155.79999999999998</ele><time>2026-04-11T11:42:28Z</time></trkpt><trkpt lat="42.58598238899302" lon="12.601065385624182"><ele>154.6</ele><time>2026-04-11T11:42:30Z</time></trkpt><trkpt lat="42.58592740882247" lon="12.600958529913362"><ele>153.39999999999998</ele><time>2026-04-11T11:42:32Z</time></trkpt><trkpt lat="42.585834939762435" lon="12.600735489942887"><ele>152.2</ele><time>2026-04-11T11:42:33Z</time></trkpt><trkpt lat="42.58580018411526" lon="12.600646794888918"><ele>151.0</ele><time>2026-04-11T11:42:34Z</time></trkpt><trkpt lat="42.585741219625845" lon="12.600530189038965"><ele>151.0</ele><time>2026-04-11T11:42:36Z</time></trkpt><trkpt lat="42.585781313202496" lon="12.600427528680383"><ele>151.0</ele><time>2026-04-11T11:42:38Z</time></trkpt><trkpt lat="42.58588829681562" lon="12.600463677002598"><ele>151.0</ele><time>2026-04-11T11:42:40Z</time></trkpt><trkpt lat="42.58594554144711" lon="12.600523794452684"><ele>151.0</ele><time>2026-04-11T11:42:41Z</time></trkpt><trkpt lat="42.586001465651826" lon="12.600584269417022"><ele>151.0</ele><time>2026-04-11T11:42:42Z</time></trkpt><trkpt lat="42.58605608126384" lon="12.600655826966335"><ele>151.0</ele><time>2026-04-11T11:42:43Z</time></trkpt><trkpt lat="42.586045679082886" lon="12.600838279524691"><ele>151.0</ele><time>2026-04-11T11:42:45Z</time></trkpt><trkpt lat="42.58600596322815" lon="12.600948563895871"><ele>151.0</ele><time>2026-04-11T11:42:46Z</time></trkpt><trkpt lat="42.58596458842228" lon="12.601070293762735"><ele>151.0</ele><time>2026-04-11T11:42:47Z</time></trkpt><trkpt lat="42.58591855507453" lon="12.601187981841587"><ele>151.0</ele><time>2026-04-11T11:42:48Z</time></trkpt><trkpt lat="42.58587381372138" lon="12.601319620951758"><ele>151.0</ele><time>2026-04-11T11:42:49Z</time></trkpt><trkpt lat="42.58582203812993" lon="12.601447446809232"><ele>151.8</ele><time>2026-04-11T11:42:50Z</time></trkpt><trkpt lat="42.585763539590396" lon="12.601558041168106"><ele>152.6</ele><time>2026-04-11T11:42:51Z</time></trkpt><trkpt lat="42.58567747935035" lon="12.601625013361591"><ele>153.4</ele><time>2026-04-11T11:42:52Z</time></trkpt><trkpt lat="42.585571340583336" lon="12.601654696832432"><ele>154.2</ele><time>2026-04-11T11:42:53Z</time></trkpt><trkpt lat="42.58548321977149" lon="12.60170528648313"><ele>155.0</ele><time>2026-04-11T11:42:54Z</time></trkpt><trkpt lat="42.585418098467365" lon="12.601805403249521"><ele>155.0</ele><time>2026-04-11T11:42:55Z</time></trkpt><trkpt lat="42.58537693427524" lon="12.601944800389335"><ele>155.0</ele><time>2026-04-11T11:42:56Z</time></trkpt><trkpt lat="42.58536356141673" lon="12.602089855418157"><ele>155.0</ele><time>2026-04-11T11:42:57Z</time></trkpt><trkpt lat="42.58537487736308" lon="12.60224427314913"><ele>155.0</ele><time>2026-04-11T11:42:58Z</time></trkpt><trkpt lat="42.5853997556621" lon="12.602408269365647"><ele>155.25</ele><time>2026-04-11T11:42:59Z</time></trkpt><trkpt lat="42.58541754332772" lon="12.602577541993341"><ele>155.5</ele><time>2026-04-11T11:43:00Z</time></trkpt><trkpt lat="42.585426035943556" lon="12.602737029365233"><ele>155.75</ele><time>2026-04-11T11:43:01Z</time></trkpt><trkpt lat="42.58541458196821" lon="12.602903281242357"><ele>156.0</ele><time>2026-04-11T11:43:02Z</time></trkpt><trkpt lat="42.585377867758424" lon="12.603085979672311"><ele>154.66666666666666</ele><time>2026-04-11T11:43:03Z</time></trkpt><trkpt lat="42.58533047580199" lon="12.603278214007176"><ele>153.33333333333331</ele><time>2026-04-11T11:43:04Z</time></trkpt><trkpt lat="42.585279773913804" lon="12.603482731721503"><ele>152.0</ele><time>2026-04-11T11:43:05Z</time></trkpt><trkpt lat="42.58522897646053" lon="12.603688126598502"><ele>152.0</ele><time>2026-04-11T11:43:06Z</time></trkpt><trkpt lat="42.58519001016482" lon="12.60390646040955"><ele>152.0</ele><time>2026-04-11T11:43:07Z</time></trkpt><trkpt lat="42.58513699329011" lon="12.604129211130527"><ele>152.0</ele><time>2026-04-11T11:43:08Z</time></trkpt><trkpt lat="42.58508397537217" lon="12.604349452037559"><ele>152.33333333333331</ele><time>2026-04-11T11:43:09Z</time></trkpt><trkpt lat="42.58502723347781" lon="12.604570958083654"><ele>152.66666666666666</ele><time>2026-04-11T11:43:10Z</time></trkpt><trkpt lat="42.584969210752625" lon="12.60479457408094"><ele>153.0</ele><time>2026-04-11T11:43:11Z</time></trkpt><trkpt lat="42.584900470350846" lon="12.605007582051211"><ele>153.0</ele><time>2026-04-11T11:43:12Z</time></trkpt><trkpt lat="42.58485169751394" lon="12.605237079716794"><ele>153.0</ele><time>2026-04-11T11:43:13Z</time></trkpt><trkpt lat="42.58480099926852" lon="12.605459370784775"><ele>153.0</ele><time>2026-04-11T11:43:14Z</time></trkpt><trkpt lat="42.584746146144646" lon="12.605678853716029"><ele>153.5</ele><time>2026-04-11T11:43:15Z</time></trkpt><trkpt lat="42.58469340233699" lon="12.605890653609796"><ele>154.0</ele><time>2026-04-11T11:43:16Z</time></trkpt><trkpt lat="42.584646351904496" lon="12.606078410233906"><ele>154.5</ele><time>2026-04-11T11:43:17Z</time></trkpt><trkpt lat="42.5846044220126" lon="12.606257384262003"><ele>155.0</ele><time>2026-04-11T11:43:18Z</time></trkpt><trkpt lat="42.58456046927559" lon="12.606442323999923"><ele>155.5</ele><time>2026-04-11T11:43:19Z</time></trkpt><trkpt lat="42.58451808559991" lon="12.606618488856471"><ele>156.0</ele><time>2026-04-11T11:43:20Z</time></trkpt><trkpt lat="42.58447837287802" lon="12.60679473805012"><ele>156.5</ele><time>2026-04-11T11:43:21Z</time></trkpt><trkpt lat="42.58441935085781" lon="12.606962761712367"><ele>157.0</ele><time>2026-04-11T11:43:22Z</time></trkpt><trkpt lat="42.58439340326663" lon="12.607139469684794"><ele>156.5</ele><time>2026-04-11T11:43:23Z</time></trkpt><trkpt lat="42.584332563593506" lon="12.607303503550856"><ele>156.0</ele><time>2026-04-11T11:43:24Z</time></trkpt><trkpt lat="42.58429032522257" lon="12.60748169226431"><ele>155.5</ele><time>2026-04-11T11:43:25Z</time></trkpt><trkpt lat="42.58424766875258" lon="12.607658743136616"><ele>155.0</ele><time>2026-04-11T11:43:26Z</time></trkpt><trkpt lat="42.584206455061064" lon="12.607833753642563"><ele>155.0</ele><time>2026-04-11T11:43:27Z</time></trkpt><trkpt lat="42.584163167723574" lon="12.6080077151411"><ele>155.0</ele><time>2026-04-11T11:43:28Z</time></trkpt><trkpt lat="42.58412012318655" lon="12.608180029658762"><ele>155.0</ele><time>2026-04-11T11:43:29Z</time></trkpt><trkpt lat="42.584079658253074" lon="12.608351970052492"><ele>155.0</ele><time>2026-04-11T11:43:30Z</time></trkpt><trkpt lat="42.584042811539106" lon="12.608529158165808"><ele>156.25</ele><time>2026-04-11T11:43:31Z</time></trkpt><trkpt lat="42.584000999682644" lon="12.608692222649239"><ele>157.5</ele><time>2026-04-11T11:43:32Z</time></trkpt><trkpt lat="42.583963442784665" lon="12.608844076298231"><ele>158.75</ele><time>2026-04-11T11:43:33Z</time></trkpt><trkpt lat="42.583925949612414" lon="12.608994410940792"><ele>160.0</ele><time>2026-04-11T11:43:34Z</time></trkpt><trkpt lat="42.5838865015545" lon="12.609142332227238"><ele>160.0</ele><time>2026-04-11T11:43:35Z</time></trkpt><trkpt lat="42.58384919997169" lon="12.609289798699526"><ele>160.0</ele><time>2026-04-11T11:43:36Z</time></trkpt><trkpt lat="42.583812629349595" lon="12.609439090877514"><ele>160.0</ele><time>2026-04-11T11:43:37Z</time></trkpt><trkpt lat="42.58377286391935" lon="12.609589231366185"><ele>160.0</ele><time>2026-04-11T11:43:38Z</time></trkpt><trkpt lat="42.5837342647632" lon="12.609741904000112"><ele>160.25</ele><time>2026-04-11T11:43:39Z</time></trkpt><trkpt lat="42.5836947052031" lon="12.609894504115275"><ele>160.5</ele><time>2026-04-11T11:43:40Z</time></trkpt><trkpt lat="42.58365455300166" lon="12.610044721550063"><ele>160.75</ele><time>2026-04-11T11:43:41Z</time></trkpt><trkpt lat="42.58361461604356" lon="12.61020183852959"><ele>161.0</ele><time>2026-04-11T11:43:42Z</time></trkpt><trkpt lat="42.583574574538" lon="12.610360046690484"><ele>160.25</ele><time>2026-04-11T11:43:43Z</time></trkpt><trkpt lat="42.58353383963612" lon="12.610518353711923"><ele>159.5</ele><time>2026-04-11T11:43:44Z</time></trkpt><trkpt lat="42.58349610370257" lon="12.610681800013957"><ele>158.75</ele><time>2026-04-11T11:43:45Z</time></trkpt><trkpt lat="42.583458001744184" lon="12.610846343569895"><ele>158.0</ele><time>2026-04-11T11:43:46Z</time></trkpt><trkpt lat="42.5834180246828" lon="12.61101149910332"><ele>158.25</ele><time>2026-04-11T11:43:47Z</time></trkpt><trkpt lat="42.58337176401568" lon="12.6111791515045"><ele>158.5</ele><time>2026-04-11T11:43:48Z</time></trkpt><trkpt lat="42.583331542406306" lon="12.61134189964322"><ele>158.75</ele><time>2026-04-11T11:43:49Z</time></trkpt><trkpt lat="42.58328711189165" lon="12.61150114862617"><ele>159.0</ele><time>2026-04-11T11:43:50Z</time></trkpt><trkpt lat="42.58324515513587" lon="12.611648999735628"><ele>159.0</ele><time>2026-04-11T11:43:51Z</time></trkpt><trkpt lat="42.58320480390941" lon="12.611786849715518"><ele>159.0</ele><time>2026-04-11T11:43:52Z</time></trkpt><trkpt lat="42.58317275042944" lon="12.611922881653841"><ele>159.0</ele><time>2026-04-11T11:43:53Z</time></trkpt><trkpt lat="42.583139329996946" lon="12.61206098438796"><ele>159.0</ele><time>2026-04-11T11:43:54Z</time></trkpt><trkpt lat="42.58310083428464" lon="12.61220241141404"><ele>159.0</ele><time>2026-04-11T11:43:55Z</time></trkpt><trkpt lat="42.58305530635458" lon="12.612352165793661"><ele>158.75</ele><time>2026-04-11T11:43:56Z</time></trkpt><trkpt lat="42.5830125462727" lon="12.612518171460232"><ele>158.5</ele><time>2026-04-11T11:43:57Z</time></trkpt><trkpt lat="42.58296728434262" lon="12.612704240120609"><ele>158.25</ele><time>2026-04-11T11:43:58Z</time></trkpt><trkpt lat="42.58292060525236" lon="12.612893147377948"><ele>158.0</ele><time>2026-04-11T11:43:59Z</time></trkpt><trkpt lat="42.5828707573769" lon="12.613095969564037"><ele>156.66666666666666</ele><time>2026-04-11T11:44:00Z</time></trkpt><trkpt lat="42.5828145570191" lon="12.613304864840353"><ele>155.33333333333334</ele><time>2026-04-11T11:44:01Z</time></trkpt><trkpt lat="42.582759221731365" lon="12.613507276543357"><ele>154.0</ele><time>2026-04-11T11:44:02Z</time></trkpt><trkpt lat="42.582710946748584" lon="12.613695373857746"><ele>153.75</ele><time>2026-04-11T11:44:03Z</time></trkpt><trkpt lat="42.58266842056581" lon="12.613866063182652"><ele>153.5</ele><time>2026-04-11T11:44:04Z</time></trkpt><trkpt lat="42.58262610155359" lon="12.614034870197479"><ele>153.25</ele><time>2026-04-11T11:44:05Z</time></trkpt><trkpt lat="42.58258048491578" lon="12.61421266269889"><ele>153.0</ele><time>2026-04-11T11:44:06Z</time></trkpt><trkpt lat="42.58253687893009" lon="12.614379991699327"><ele>153.25</ele><time>2026-04-11T11:44:07Z</time></trkpt><trkpt lat="42.582494792117984" lon="12.614537927137599"><ele>153.5</ele><time>2026-04-11T11:44:08Z</time></trkpt><trkpt lat="42.5824465366914" lon="12.614698169245926"><ele>153.75</ele><time>2026-04-11T11:44:09Z</time></trkpt><trkpt lat="42.58239454124749" lon="12.614861048522323"><ele>154.0</ele><time>2026-04-11T11:44:10Z</time></trkpt><trkpt lat="42.58234483865393" lon="12.615027936962761"><ele>154.0</ele><time>2026-04-11T11:44:11Z</time></trkpt><trkpt lat="42.582282943678166" lon="12.615202071671314"><ele>154.0</ele><time>2026-04-11T11:44:12Z</time></trkpt><trkpt lat="42.582214839138246" lon="12.615376175552262"><ele>154.0</ele><time>2026-04-11T11:44:13Z</time></trkpt><trkpt lat="42.582139356615656" lon="12.615550135397166"><ele>154.0</ele><time>2026-04-11T11:44:14Z</time></trkpt><trkpt lat="42.58206022163673" lon="12.615729569675686"><ele>153.75</ele><time>2026-04-11T11:44:15Z</time></trkpt><trkpt lat="42.58198360226843" lon="12.615920514612187"><ele>153.5</ele><time>2026-04-11T11:44:16Z</time></trkpt><trkpt lat="42.5818945584544" lon="12.616087575907649"><ele>153.25</ele><time>2026-04-11T11:44:17Z</time></trkpt><trkpt lat="42.581841975786276" lon="12.616256412895888"><ele>153.0</ele><time>2026-04-11T11:44:18Z</time></trkpt><trkpt lat="42.581776741629305" lon="12.616407800577502"><ele>153.0</ele><time>2026-04-11T11:44:19Z</time></trkpt><trkpt lat="42.58170965921794" lon="12.616558745910325"><ele>153.0</ele><time>2026-04-11T11:44:20Z</time></trkpt><trkpt lat="42.581645800988376" lon="12.616711032566032"><ele>153.0</ele><time>2026-04-11T11:44:21Z</time></trkpt><trkpt lat="42.581579566570724" lon="12.616864745140694"><ele>153.0</ele><time>2026-04-11T11:44:22Z</time></trkpt><trkpt lat="42.58151374240434" lon="12.61701402752645"><ele>153.25</ele><time>2026-04-11T11:44:23Z</time></trkpt><trkpt lat="42.58144680550473" lon="12.617165385562533"><ele>153.5</ele><time>2026-04-11T11:44:24Z</time></trkpt><trkpt lat="42.5813817656833" lon="12.617320473049986"><ele>153.75</ele><time>2026-04-11T11:44:25Z</time></trkpt><trkpt lat="42.58131225762483" lon="12.61747786654311"><ele>154.0</ele><time>2026-04-11T11:44:26Z</time></trkpt><trkpt lat="42.58124332671438" lon="12.617634751563562"><ele>153.25</ele><time>2026-04-11T11:44:27Z</time></trkpt><trkpt lat="42.58117469992997" lon="12.617794448829939"><ele>152.5</ele><time>2026-04-11T11:44:28Z</time></trkpt><trkpt lat="42.581112137850134" lon="12.617954582646602"><ele>151.75</ele><time>2026-04-11T11:44:29Z</time></trkpt><trkpt lat="42.58104338549259" lon="12.618116759885577"><ele>151.0</ele><time>2026-04-11T11:44:30Z</time></trkpt><trkpt lat="42.58097766221726" lon="12.618282901702889"><ele>150.75</ele><time>2026-04-11T11:44:31Z</time></trkpt><trkpt lat="42.58091066494814" lon="12.618445956157181"><ele>150.5</ele><time>2026-04-11T11:44:32Z</time></trkpt><trkpt lat="42.5808431257682" lon="12.618609577486621"><ele>150.25</ele><time>2026-04-11T11:44:33Z</time></trkpt><trkpt lat="42.58077367192891" lon="12.618769652105032"><ele>150.0</ele><time>2026-04-11T11:44:34Z</time></trkpt><trkpt lat="42.58070343475648" lon="12.618927071078343"><ele>150.0</ele><time>2026-04-11T11:44:35Z</time></trkpt><trkpt lat="42.58063531672868" lon="12.619087852117676"><ele>150.0</ele><time>2026-04-11T11:44:36Z</time></trkpt><trkpt lat="42.58056972283777" lon="12.619250662873439"><ele>150.0</ele><time>2026-04-11T11:44:37Z</time></trkpt><trkpt lat="42.58050304542476" lon="12.61940727041792"><ele>150.0</ele><time>2026-04-11T11:44:38Z</time></trkpt><trkpt lat="42.58043439260331" lon="12.619562829429611"><ele>150.0</ele><time>2026-04-11T11:44:39Z</time></trkpt><trkpt lat="42.58036607884789" lon="12.619715807483518"><ele>150.0</ele><time>2026-04-11T11:44:39.999Z</time></trkpt><trkpt lat="42.58029471866054" lon="12.61986786824144"><ele>150.0</ele><time>2026-04-11T11:44:40.999Z</time></trkpt><trkpt lat="42.58022647365175" lon="12.620018604546575"><ele>150.0</ele><time>2026-04-11T11:44:41.999Z</time></trkpt><trkpt lat="42.580151739602535" lon="12.620166019551704"><ele>149.0</ele><time>2026-04-11T11:44:42.999Z</time></trkpt><trkpt lat="42.5800768812052" lon="12.620318570803898"><ele>148.0</ele><time>2026-04-11T11:44:43.999Z</time></trkpt><trkpt lat="42.579998733747736" lon="12.620472611074547"><ele>147.0</ele><time>2026-04-11T11:44:44.999Z</time></trkpt><trkpt lat="42.57991795529758" lon="12.620628511504536"><ele>146.0</ele><time>2026-04-11T11:44:45.999Z</time></trkpt><trkpt lat="42.57983482867505" lon="12.620782172629044"><ele>146.0</ele><time>2026-04-11T11:44:46.999Z</time></trkpt><trkpt lat="42.57974550895267" lon="12.620930358761035"><ele>146.0</ele><time>2026-04-11T11:44:47.999Z</time></trkpt><trkpt lat="42.57965914528316" lon="12.621076906518068"><ele>146.0</ele><time>2026-04-11T11:44:48.999Z</time></trkpt><trkpt lat="42.57957607209423" lon="12.621215842895825"><ele>146.0</ele><time>2026-04-11T11:44:49.999Z</time></trkpt><trkpt lat="42.57949661760352" lon="12.621356848057635"><ele>144.75</ele><time>2026-04-11T11:44:50.999Z</time></trkpt><trkpt lat="42.57941737101766" lon="12.621498828050491"><ele>143.5</ele><time>2026-04-11T11:44:51.999Z</time></trkpt><trkpt lat="42.57933983471904" lon="12.621642896399038"><ele>142.25</ele><time>2026-04-11T11:44:52.999Z</time></trkpt><trkpt lat="42.57926093781647" lon="12.621791763117233"><ele>141.0</ele><time>2026-04-11T11:44:53.999Z</time></trkpt><trkpt lat="42.57917987087433" lon="12.621942975858733"><ele>140.25</ele><time>2026-04-11T11:44:54.999Z</time></trkpt><trkpt lat="42.57909651014014" lon="12.622090255607619"><ele>139.5</ele><time>2026-04-11T11:44:55.999Z</time></trkpt><trkpt lat="42.57901509744622" lon="12.62222651670579"><ele>138.75</ele><time>2026-04-11T11:44:56.999Z</time></trkpt><trkpt lat="42.57893550952424" lon="12.622355546034315"><ele>138.0</ele><time>2026-04-11T11:44:57.999Z</time></trkpt><trkpt lat="42.57885413128708" lon="12.62248571537694"><ele>138.0</ele><time>2026-04-11T11:44:58.999Z</time></trkpt><trkpt lat="42.578756351220115" lon="12.62258721742017"><ele>138.0</ele><time>2026-04-11T11:44:59.999Z</time></trkpt><trkpt lat="42.57867274579259" lon="12.622692144221173"><ele>138.0</ele><time>2026-04-11T11:45:00.999Z</time></trkpt><trkpt lat="42.57859037773686" lon="12.62279517324985"><ele>138.0</ele><time>2026-04-11T11:45:01.999Z</time></trkpt><trkpt lat="42.57850339806969" lon="12.622882384182661"><ele>137.4</ele><time>2026-04-11T11:45:02.999Z</time></trkpt><trkpt lat="42.57840688383394" lon="12.622934043694753"><ele>136.8</ele><time>2026-04-11T11:45:03.999Z</time></trkpt><trkpt lat="42.57833624119072" lon="12.622995216801764"><ele>136.2</ele><time>2026-04-11T11:45:04.999Z</time></trkpt><trkpt lat="42.57829277210554" lon="12.623097056627103"><ele>135.6</ele><time>2026-04-11T11:45:05.999Z</time></trkpt><trkpt lat="42.57823742675872" lon="12.623231835885791"><ele>135.0</ele><time>2026-04-11T11:45:06.999Z</time></trkpt><trkpt lat="42.57816441289121" lon="12.62334564219916"><ele>135.0</ele><time>2026-04-11T11:45:07.999Z</time></trkpt><trkpt lat="42.57808668132646" lon="12.623436881862059"><ele>135.0</ele><time>2026-04-11T11:45:08.999Z</time></trkpt><trkpt lat="42.57802296047006" lon="12.623524407482918"><ele>135.0</ele><time>2026-04-11T11:45:09.999Z</time></trkpt><trkpt lat="42.577956961170486" lon="12.623614337069007"><ele>135.0</ele><time>2026-04-11T11:45:10.999Z</time></trkpt><trkpt lat="42.57788537911209" lon="12.623702674229381"><ele>135.0</ele><time>2026-04-11T11:45:11.999Z</time></trkpt><trkpt lat="42.57781305205956" lon="12.623791570066828"><ele>135.4</ele><time>2026-04-11T11:45:12.999Z</time></trkpt><trkpt lat="42.5777394132064" lon="12.62388286528041"><ele>135.8</ele><time>2026-04-11T11:45:13.999Z</time></trkpt><trkpt lat="42.57766718210525" lon="12.623976698278812"><ele>136.2</ele><time>2026-04-11T11:45:14.999Z</time></trkpt><trkpt lat="42.57759475941037" lon="12.62407023135968"><ele>136.6</ele><time>2026-04-11T11:45:15.999Z</time></trkpt><trkpt lat="42.57751772898257" lon="12.624162588113567"><ele>137.0</ele><time>2026-04-11T11:45:16.999Z</time></trkpt><trkpt lat="42.57742701775846" lon="12.624243288100898"><ele>137.0</ele><time>2026-04-11T11:45:17.999Z</time></trkpt><trkpt lat="42.57734789769914" lon="12.624342037158796"><ele>137.0</ele><time>2026-04-11T11:45:18.999Z</time></trkpt><trkpt lat="42.57726839410466" lon="12.624440431908356"><ele>137.0</ele><time>2026-04-11T11:45:19.999Z</time></trkpt><trkpt lat="42.57718753691439" lon="12.624541130205595"><ele>137.0</ele><time>2026-04-11T11:45:20.999Z</time></trkpt><trkpt lat="42.57710787970098" lon="12.624640625280362"><ele>137.0</ele><time>2026-04-11T11:45:21.999Z</time></trkpt><trkpt lat="42.577029812226094" lon="12.624740347676598"><ele>136.2</ele><time>2026-04-11T11:45:22.999Z</time></trkpt><trkpt lat="42.57695105882089" lon="12.62484194861847"><ele>135.39999999999998</ele><time>2026-04-11T11:45:23.999Z</time></trkpt><trkpt lat="42.576871918204255" lon="12.624942211212504"><ele>134.60000000000002</ele><time>2026-04-11T11:45:24.999Z</time></trkpt><trkpt lat="42.57679378084443" lon="12.625040344753122"><ele>133.8</ele><time>2026-04-11T11:45:25.999Z</time></trkpt><trkpt lat="42.57672301414231" lon="12.625147384527814"><ele>133.0</ele><time>2026-04-11T11:45:26.999Z</time></trkpt><trkpt lat="42.57663753203532" lon="12.62523161883343"><ele>133.0</ele><time>2026-04-11T11:45:27.999Z</time></trkpt><trkpt lat="42.57654638891291" lon="12.625308903477693"><ele>133.0</ele><time>2026-04-11T11:45:28.999Z</time></trkpt><trkpt lat="42.57645280143327" lon="12.625379579989353"><ele>133.0</ele><time>2026-04-11T11:45:29.999Z</time></trkpt><trkpt lat="42.57635756465189" lon="12.625448639699545"><ele>133.0</ele><time>2026-04-11T11:45:30.999Z</time></trkpt><trkpt lat="42.57626874432946" lon="12.6255153228672"><ele>133.0</ele><time>2026-04-11T11:45:31.999Z</time></trkpt><trkpt lat="42.576180834866086" lon="12.6255853962125"><ele>132.8</ele><time>2026-04-11T11:45:32.999Z</time></trkpt><trkpt lat="42.57609200005205" lon="12.62564895325991"><ele>132.60000000000002</ele><time>2026-04-11T11:45:33.999Z</time></trkpt><trkpt lat="42.57599977259368" lon="12.625687225801112"><ele>132.39999999999998</ele><time>2026-04-11T11:45:34.999Z</time></trkpt><trkpt lat="42.57591575638418" lon="12.625745221442491"><ele>132.2</ele><time>2026-04-11T11:45:35.999Z</time></trkpt><trkpt lat="42.575832441407364" lon="12.625775863822081"><ele>132.0</ele><time>2026-04-11T11:45:36.999Z</time></trkpt><trkpt lat="42.57571325109598" lon="12.625694750006668"><ele>132.0</ele><time>2026-04-11T11:45:37.999Z</time></trkpt><trkpt lat="42.57565041704694" lon="12.625610139416544"><ele>132.0</ele><time>2026-04-11T11:45:38.999Z</time></trkpt><trkpt lat="42.57558201542278" lon="12.625521282608469"><ele>132.0</ele><time>2026-04-11T11:45:39.999Z</time></trkpt><trkpt lat="42.57551622391155" lon="12.625422884264854"><ele>132.0</ele><time>2026-04-11T11:45:40.999Z</time></trkpt><trkpt lat="42.57544629568815" lon="12.625329058248635"><ele>132.0</ele><time>2026-04-11T11:45:41.999Z</time></trkpt><trkpt lat="42.57538234815062" lon="12.625243985306318"><ele>131.79999999999998</ele><time>2026-04-11T11:45:42.999Z</time></trkpt><trkpt lat="42.575329575831454" lon="12.625159168192605"><ele>131.6</ele><time>2026-04-11T11:45:43.999Z</time></trkpt><trkpt lat="42.57528958044821" lon="12.625091470804595"><ele>131.39999999999998</ele><time>2026-04-11T11:45:44.999Z</time></trkpt><trkpt lat="42.57524956139431" lon="12.625023526313083"><ele>131.2</ele><time>2026-04-11T11:45:47.999Z</time></trkpt><trkpt lat="42.57512854467655" lon="12.625269172601191"><ele>131.0</ele><time>2026-04-11T11:45:49.999Z</time></trkpt><trkpt lat="42.57512364651667" lon="12.625370193049287"><ele>131.5</ele><time>2026-04-11T11:45:50.999Z</time></trkpt><trkpt lat="42.575113467334766" lon="12.625471790457933"><ele>132.0</ele><time>2026-04-11T11:45:51.999Z</time></trkpt><trkpt lat="42.575106997353465" lon="12.625620680209614"><ele>132.5</ele><time>2026-04-11T11:45:53.999Z</time></trkpt><trkpt lat="42.5751348234432" lon="12.625724442169744"><ele>133.0</ele><time>2026-04-11T11:45:55.999Z</time></trkpt><trkpt lat="42.57522803543462" lon="12.625737858842829"><ele>133.5</ele><time>2026-04-11T11:45:57.999Z</time></trkpt><trkpt lat="42.57530550077905" lon="12.625761285843813"><ele>134.0</ele><time>2026-04-11T11:45:59.999Z</time></trkpt><trkpt lat="42.57532727340955" lon="12.6256427505588"><ele>134.0</ele><time>2026-04-11T11:46:26.999Z</time></trkpt><trkpt lat="42.57526077935307" lon="12.625665813163305"><ele>134.0</ele><time>2026-04-11T11:46:39.999Z</time></trkpt><trkpt lat="42.575375262692134" lon="12.625647884587227"><ele>134.0</ele><time>2026-04-11T11:46:42.999Z</time></trkpt><trkpt lat="42.57545919375512" lon="12.625707544827929"><ele>134.0</ele><time>2026-04-11T11:46:43.999Z</time></trkpt><trkpt lat="42.57525515331815" lon="12.625689239110136"><ele>134.0</ele><time>2026-04-11T11:46:44.999Z</time></trkpt><trkpt lat="42.5752792367484" lon="12.625781445802193"><ele>134.0</ele><time>2026-04-11T11:46:51.999Z</time></trkpt><trkpt lat="42.57530178698596" lon="12.625862388407947"><ele>134.0</ele><time>2026-04-11T11:46:55.999Z</time></trkpt><trkpt lat="42.57532847659462" lon="12.625960376094135"><ele>134.0</ele><time>2026-04-11T11:47:01.141Z</time></trkpt><trkpt lat="42.5753996844049" lon="12.625909244564683"><ele>134.0</ele><time>2026-04-11T11:47:21.58Z</time></trkpt><trkpt lat="42.57533820876691" lon="12.625836155629237"><ele>134.0</ele><time>2026-04-11T11:47:40.069Z</time></trkpt><trkpt lat="42.57541810653771" lon="12.625781578345203"><ele>134.0</ele><time>2026-04-11T11:49:46.999Z</time></trkpt><trkpt lat="42.57545191047681" lon="12.625691398112586"><ele>134.0</ele><time>2026-04-11T11:50:00.142Z</time></trkpt><trkpt lat="42.57542718737645" lon="12.625911581957046"><ele>134.0</ele><time>2026-04-11T11:50:19.999Z</time></trkpt><trkpt lat="42.5754473498703" lon="12.625789280505384"><ele>134.0</ele><time>2026-04-11T11:50:47.999Z</time></trkpt><trkpt lat="42.575377624204364" lon="12.62578842566332"><ele>134.0</ele><time>2026-04-11T11:51:16.999Z</time></trkpt><trkpt lat="42.57530239136756" lon="12.625794860001768"><ele>134.0</ele><time>2026-04-11T11:51:27.999Z</time></trkpt><trkpt lat="42.575321421466725" lon="12.625710738922223"><ele>134.0</ele><time>2026-04-11T11:51:33.999Z</time></trkpt><trkpt lat="42.57529255694998" lon="12.625610562293746"><ele>134.0</ele><time>2026-04-11T11:53:28.999Z</time></trkpt><trkpt lat="42.57534346771942" lon="12.625525758397902"><ele>134.0</ele><time>2026-04-11T11:53:31.998Z</time></trkpt><trkpt lat="42.575327842662816" lon="12.625425535041916"><ele>134.0</ele><time>2026-04-11T11:53:32.998Z</time></trkpt><trkpt lat="42.57527900403291" lon="12.625313199511819"><ele>134.0</ele><time>2026-04-11T11:53:33.998Z</time></trkpt><trkpt lat="42.575222141750196" lon="12.62523847600954"><ele>133.4</ele><time>2026-04-11T11:53:34.998Z</time></trkpt><trkpt lat="42.57529195083456" lon="12.625082641897613"><ele>132.8</ele><time>2026-04-11T11:53:35.998Z</time></trkpt><trkpt lat="42.5752495036468" lon="12.624995859733248"><ele>132.2</ele><time>2026-04-11T11:53:37.998Z</time></trkpt><trkpt lat="42.57529290974542" lon="12.625101481165942"><ele>131.6</ele><time>2026-04-11T11:53:41.998Z</time></trkpt><trkpt lat="42.57532733555001" lon="12.625201214433561"><ele>131.0</ele><time>2026-04-11T11:53:42.998Z</time></trkpt><trkpt lat="42.57536486092463" lon="12.625290995388252"><ele>131.2</ele><time>2026-04-11T11:53:43.998Z</time></trkpt><trkpt lat="42.575424403820044" lon="12.625374378047415"><ele>131.39999999999998</ele><time>2026-04-11T11:53:44.998Z</time></trkpt><trkpt lat="42.57549248312227" lon="12.62546336788951"><ele>131.6</ele><time>2026-04-11T11:53:45.998Z</time></trkpt><trkpt lat="42.57555414328021" lon="12.625551762404985"><ele>131.79999999999998</ele><time>2026-04-11T11:53:46.998Z</time></trkpt><trkpt lat="42.57561597898503" lon="12.625658274832402"><ele>132.0</ele><time>2026-04-11T11:53:47.998Z</time></trkpt><trkpt lat="42.57566141808433" lon="12.625757337096946"><ele>132.0</ele><time>2026-04-11T11:53:48.998Z</time></trkpt><trkpt lat="42.575684189276785" lon="12.625856381655103"><ele>132.0</ele><time>2026-04-11T11:53:49.998Z</time></trkpt><trkpt lat="42.5756865109887" lon="12.62598674998902"><ele>132.0</ele><time>2026-04-11T11:53:50.998Z</time></trkpt><trkpt lat="42.57569265420425" lon="12.626133302075136"><ele>132.0</ele><time>2026-04-11T11:53:51.998Z</time></trkpt><trkpt lat="42.57570455786994" lon="12.626272635025119"><ele>132.0</ele><time>2026-04-11T11:53:52.998Z</time></trkpt><trkpt lat="42.575738419446985" lon="12.626385018710426"><ele>133.0</ele><time>2026-04-11T11:53:53.998Z</time></trkpt><trkpt lat="42.57577902415775" lon="12.62647284245958"><ele>134.0</ele><time>2026-04-11T11:53:54.998Z</time></trkpt><trkpt lat="42.5758310935582" lon="12.626537210684234"><ele>135.0</ele><time>2026-04-11T11:53:55.998Z</time></trkpt><trkpt lat="42.57590148765871" lon="12.626606037054579"><ele>136.0</ele><time>2026-04-11T11:53:56.998Z</time></trkpt><trkpt lat="42.576002712494336" lon="12.626650878505233"><ele>137.0</ele><time>2026-04-11T11:53:57.998Z</time></trkpt><trkpt lat="42.57610831039175" lon="12.626696227304137"><ele>137.0</ele><time>2026-04-11T11:53:58.998Z</time></trkpt><trkpt lat="42.57621415028937" lon="12.626744719881597"><ele>137.0</ele><time>2026-04-11T11:53:59.998Z</time></trkpt><trkpt lat="42.57631663776692" lon="12.626818683160675"><ele>137.0</ele><time>2026-04-11T11:54:00.998Z</time></trkpt><trkpt lat="42.57640119135701" lon="12.626941475971401"><ele>137.0</ele><time>2026-04-11T11:54:01.998Z</time></trkpt><trkpt lat="42.576466136748785" lon="12.6270811203369"><ele>137.75</ele><time>2026-04-11T11:54:02.998Z</time></trkpt><trkpt lat="42.57652496877221" lon="12.627237332278485"><ele>138.5</ele><time>2026-04-11T11:54:03.998Z</time></trkpt><trkpt lat="42.576570181156924" lon="12.62740523901089"><ele>139.25</ele><time>2026-04-11T11:54:04.998Z</time></trkpt><trkpt lat="42.57662874657476" lon="12.627552162893348"><ele>140.0</ele><time>2026-04-11T11:54:05.998Z</time></trkpt><trkpt lat="42.57669296303448" lon="12.627710485851196"><ele>140.75</ele><time>2026-04-11T11:54:06.998Z</time></trkpt><trkpt lat="42.576753439991734" lon="12.627852350136537"><ele>141.5</ele><time>2026-04-11T11:54:07.998Z</time></trkpt><trkpt lat="42.576822580649186" lon="12.628007811864919"><ele>142.25</ele><time>2026-04-11T11:54:08.998Z</time></trkpt><trkpt lat="42.57688421455394" lon="12.628164964496275"><ele>143.0</ele><time>2026-04-11T11:54:09.998Z</time></trkpt><trkpt lat="42.57694896353438" lon="12.62832038865651"><ele>143.0</ele><time>2026-04-11T11:54:10.998Z</time></trkpt><trkpt lat="42.57701434967661" lon="12.628471707034826"><ele>143.0</ele><time>2026-04-11T11:54:11.998Z</time></trkpt><trkpt lat="42.577064627718435" lon="12.628646653025626"><ele>143.0</ele><time>2026-04-11T11:54:12.998Z</time></trkpt><trkpt lat="42.57712219137963" lon="12.62881187846815"><ele>143.0</ele><time>2026-04-11T11:54:13.998Z</time></trkpt><trkpt lat="42.5771802150479" lon="12.628976425350261"><ele>143.5</ele><time>2026-04-11T11:54:14.998Z</time></trkpt><trkpt lat="42.57725419844845" lon="12.629145752254397"><ele>144.0</ele><time>2026-04-11T11:54:15.998Z</time></trkpt><trkpt lat="42.57731437803661" lon="12.6293274014118"><ele>144.5</ele><time>2026-04-11T11:54:16.998Z</time></trkpt><trkpt lat="42.57738062187107" lon="12.629475773351867"><ele>145.0</ele><time>2026-04-11T11:54:17.998Z</time></trkpt><trkpt lat="42.577447799273706" lon="12.629608132035102"><ele>145.4</ele><time>2026-04-11T11:54:18.998Z</time></trkpt><trkpt lat="42.577504308992815" lon="12.629736005088532"><ele>145.8</ele><time>2026-04-11T11:54:19.998Z</time></trkpt><trkpt lat="42.57751855168814" lon="12.629870044231717"><ele>146.2</ele><time>2026-04-11T11:54:20.998Z</time></trkpt><trkpt lat="42.577536015691145" lon="12.629998913314845"><ele>146.6</ele><time>2026-04-11T11:54:21.998Z</time></trkpt><trkpt lat="42.57754810586088" lon="12.63012329544762"><ele>147.0</ele><time>2026-04-11T11:54:22.998Z</time></trkpt><trkpt lat="42.57756304813692" lon="12.630247774209257"><ele>147.4</ele><time>2026-04-11T11:54:23.998Z</time></trkpt><trkpt lat="42.57758331625509" lon="12.630373213892916"><ele>147.79999999999998</ele><time>2026-04-11T11:54:24.998Z</time></trkpt><trkpt lat="42.57761755336221" lon="12.630498796235305"><ele>148.2</ele><time>2026-04-11T11:54:25.998Z</time></trkpt><trkpt lat="42.577683544907764" lon="12.630612411876108"><ele>148.6</ele><time>2026-04-11T11:54:26.998Z</time></trkpt><trkpt lat="42.57773871718111" lon="12.630714471670794"><ele>149.0</ele><time>2026-04-11T11:54:27.998Z</time></trkpt><trkpt lat="42.577802568448114" lon="12.630806999412135"><ele>149.16666666666666</ele><time>2026-04-11T11:54:28.998Z</time></trkpt><trkpt lat="42.57786801680688" lon="12.630884255170033"><ele>149.33333333333331</ele><time>2026-04-11T11:54:29.998Z</time></trkpt><trkpt lat="42.577941894332106" lon="12.630932480254854"><ele>149.5</ele><time>2026-04-11T11:54:30.998Z</time></trkpt><trkpt lat="42.57802614911115" lon="12.630968605444721"><ele>149.66666666666666</ele><time>2026-04-11T11:54:31.998Z</time></trkpt><trkpt lat="42.57809899362324" lon="12.630993715670622"><ele>149.83333333333334</ele><time>2026-04-11T11:54:32.998Z</time></trkpt><trkpt lat="42.57817721418025" lon="12.631040565522753"><ele>150.0</ele><time>2026-04-11T11:54:33.998Z</time></trkpt><trkpt lat="42.57827070863664" lon="12.631093985329082"><ele>150.16666666666666</ele><time>2026-04-11T11:54:34.998Z</time></trkpt><trkpt lat="42.57838734012932" lon="12.631144809237353"><ele>150.33333333333334</ele><time>2026-04-11T11:54:35.998Z</time></trkpt><trkpt lat="42.57846001771566" lon="12.631193514905362"><ele>150.5</ele><time>2026-04-11T11:54:36.998Z</time></trkpt><trkpt lat="42.57851862224066" lon="12.631236097705886"><ele>150.66666666666669</ele><time>2026-04-11T11:54:37.998Z</time></trkpt><trkpt lat="42.57857874829066" lon="12.631275706957403"><ele>150.83333333333334</ele><time>2026-04-11T11:54:38.998Z</time></trkpt><trkpt lat="42.578656439270816" lon="12.631323112868978"><ele>151.0</ele><time>2026-04-11T11:54:39.998Z</time></trkpt><trkpt lat="42.57873748836692" lon="12.631369344341548"><ele>151.8</ele><time>2026-04-11T11:54:40.998Z</time></trkpt><trkpt lat="42.578825924914746" lon="12.63141186439053"><ele>152.6</ele><time>2026-04-11T11:54:41.998Z</time></trkpt><trkpt lat="42.5789255240085" lon="12.631472710074675"><ele>153.4</ele><time>2026-04-11T11:54:42.998Z</time></trkpt><trkpt lat="42.5790176939591" lon="12.631559192476837"><ele>154.2</ele><time>2026-04-11T11:54:43.998Z</time></trkpt><trkpt lat="42.579122115222674" lon="12.631633556493664"><ele>155.0</ele><time>2026-04-11T11:54:44.998Z</time></trkpt><trkpt lat="42.579214089982294" lon="12.631741590926445"><ele>155.0</ele><time>2026-04-11T11:54:45.998Z</time></trkpt><trkpt lat="42.57927080876431" lon="12.63188074881458"><ele>155.0</ele><time>2026-04-11T11:54:46.998Z</time></trkpt><trkpt lat="42.57932817726689" lon="12.632026864585933"><ele>155.0</ele><time>2026-04-11T11:54:47.998Z</time></trkpt><trkpt lat="42.57937402763411" lon="12.632177048678484"><ele>155.0</ele><time>2026-04-11T11:54:48.998Z</time></trkpt><trkpt lat="42.579438337201026" lon="12.6323233156914"><ele>155.75</ele><time>2026-04-11T11:54:49.998Z</time></trkpt><trkpt lat="42.57951335222236" lon="12.632460773629637"><ele>156.5</ele><time>2026-04-11T11:54:50.998Z</time></trkpt><trkpt lat="42.579589809685714" lon="12.632587109972645"><ele>157.25</ele><time>2026-04-11T11:54:51.998Z</time></trkpt><trkpt lat="42.579662417945535" lon="12.632690730701711"><ele>158.0</ele><time>2026-04-11T11:54:52.998Z</time></trkpt><trkpt lat="42.579740013398535" lon="12.63278106786611"><ele>159.0</ele><time>2026-04-11T11:54:53.998Z</time></trkpt><trkpt lat="42.579825320690084" lon="12.632862997732555"><ele>160.0</ele><time>2026-04-11T11:54:54.998Z</time></trkpt><trkpt lat="42.5799004958578" lon="12.632927525773132"><ele>161.0</ele><time>2026-04-11T11:54:55.998Z</time></trkpt><trkpt lat="42.57996143451004" lon="12.632977753734801"><ele>162.0</ele><time>2026-04-11T11:54:56.998Z</time></trkpt><trkpt lat="42.58003778412441" lon="12.633070677957026"><ele>163.0</ele><time>2026-04-11T11:54:58.998Z</time></trkpt><trkpt lat="42.58002678442838" lon="12.633260213508505"><ele>163.0</ele><time>2026-04-11T11:55:00.998Z</time></trkpt><trkpt lat="42.57993477495244" lon="12.63328587042124"><ele>163.0</ele><time>2026-04-11T11:55:01.998Z</time></trkpt><trkpt lat="42.5798778320511" lon="12.633325611312157"><ele>163.0</ele><time>2026-04-11T11:55:02.998Z</time></trkpt><trkpt lat="42.5798017988997" lon="12.633358131247238"><ele>163.0</ele><time>2026-04-11T11:55:03.998Z</time></trkpt><trkpt lat="42.57970235402051" lon="12.633384018480623"><ele>163.0</ele><time>2026-04-11T11:55:04.998Z</time></trkpt><trkpt lat="42.57960879150307" lon="12.633402073410435"><ele>163.0</ele><time>2026-04-11T11:55:05.998Z</time></trkpt><trkpt lat="42.579508589651695" lon="12.633425841189966"><ele>163.5</ele><time>2026-04-11T11:55:06.998Z</time></trkpt><trkpt lat="42.57940313499504" lon="12.633442568304346"><ele>164.0</ele><time>2026-04-11T11:55:07.998Z</time></trkpt><trkpt lat="42.57928330153976" lon="12.633463596287045"><ele>164.5</ele><time>2026-04-11T11:55:08.998Z</time></trkpt><trkpt lat="42.57917360207358" lon="12.633511963334923"><ele>165.0</ele><time>2026-04-11T11:55:09.998Z</time></trkpt><trkpt lat="42.579078350480465" lon="12.633587540212934"><ele>165.0</ele><time>2026-04-11T11:55:10.998Z</time></trkpt><trkpt lat="42.57897598573738" lon="12.633606778713153"><ele>165.0</ele><time>2026-04-11T11:55:11.998Z</time></trkpt><trkpt lat="42.57886954816736" lon="12.63361504917322"><ele>165.0</ele><time>2026-04-11T11:55:12.998Z</time></trkpt><trkpt lat="42.578756290672146" lon="12.63360906640448"><ele>165.0</ele><time>2026-04-11T11:55:13.998Z</time></trkpt><trkpt lat="42.57864054342305" lon="12.633634424910616"><ele>165.0</ele><time>2026-04-11T11:55:14.998Z</time></trkpt><trkpt lat="42.5785192294048" lon="12.633690868175941"><ele>165.75</ele><time>2026-04-11T11:55:15.998Z</time></trkpt><trkpt lat="42.57840971689708" lon="12.633751065354163"><ele>166.5</ele><time>2026-04-11T11:55:16.998Z</time></trkpt><trkpt lat="42.57830079547008" lon="12.633816615415382"><ele>167.25</ele><time>2026-04-11T11:55:17.998Z</time></trkpt><trkpt lat="42.578214522608036" lon="12.633918184691366"><ele>168.0</ele><time>2026-04-11T11:55:18.998Z</time></trkpt><trkpt lat="42.578130406004234" lon="12.634019662584462"><ele>168.0</ele><time>2026-04-11T11:55:19.998Z</time></trkpt><trkpt lat="42.57805619690242" lon="12.634130354352639"><ele>168.0</ele><time>2026-04-11T11:55:20.998Z</time></trkpt><trkpt lat="42.57796230173968" lon="12.634219303129692"><ele>168.0</ele><time>2026-04-11T11:55:21.998Z</time></trkpt><trkpt lat="42.57787983799501" lon="12.634326368531106"><ele>168.0</ele><time>2026-04-11T11:55:22.998Z</time></trkpt><trkpt lat="42.57779577637105" lon="12.634433360225309"><ele>167.5</ele><time>2026-04-11T11:55:23.998Z</time></trkpt><trkpt lat="42.57770640369356" lon="12.634540523820212"><ele>167.0</ele><time>2026-04-11T11:55:24.998Z</time></trkpt><trkpt lat="42.57761930330959" lon="12.634657021762761"><ele>166.5</ele><time>2026-04-11T11:55:25.998Z</time></trkpt><trkpt lat="42.57749675888872" lon="12.63470641396103"><ele>166.0</ele><time>2026-04-11T11:55:26.998Z</time></trkpt><trkpt lat="42.577373966178534" lon="12.634780352762583"><ele>166.0</ele><time>2026-04-11T11:55:27.998Z</time></trkpt><trkpt lat="42.57724267952957" lon="12.63485704589647"><ele>166.0</ele><time>2026-04-11T11:55:28.998Z</time></trkpt><trkpt lat="42.57711950430932" lon="12.634924736502104"><ele>166.0</ele><time>2026-04-11T11:55:29.998Z</time></trkpt><trkpt lat="42.57700271881764" lon="12.634997785331501"><ele>166.0</ele><time>2026-04-11T11:55:30.998Z</time></trkpt><trkpt lat="42.57688740959105" lon="12.635060719831372"><ele>165.5</ele><time>2026-04-11T11:55:31.998Z</time></trkpt><trkpt lat="42.57677276162547" lon="12.635124607168917"><ele>165.0</ele><time>2026-04-11T11:55:32.998Z</time></trkpt><trkpt lat="42.57665321559117" lon="12.635190036527007"><ele>164.5</ele><time>2026-04-11T11:55:33.998Z</time></trkpt><trkpt lat="42.576539485803885" lon="12.63525008521886"><ele>164.0</ele><time>2026-04-11T11:55:34.998Z</time></trkpt><trkpt lat="42.576442245890874" lon="12.635305598729493"><ele>165.16666666666666</ele><time>2026-04-11T11:55:35.998Z</time></trkpt><trkpt lat="42.57635975900621" lon="12.6353522361306"><ele>166.33333333333331</ele><time>2026-04-11T11:55:36.998Z</time></trkpt><trkpt lat="42.576276016053704" lon="12.635385191353745"><ele>167.5</ele><time>2026-04-11T11:55:37.998Z</time></trkpt><trkpt lat="42.576204836708904" lon="12.63542203567899"><ele>168.66666666666666</ele><time>2026-04-11T11:55:38.998Z</time></trkpt><trkpt lat="42.57613077516623" lon="12.635457422924269"><ele>169.83333333333334</ele><time>2026-04-11T11:55:39.998Z</time></trkpt><trkpt lat="42.576035328439424" lon="12.635477379961017"><ele>171.0</ele><time>2026-04-11T11:55:41.998Z</time></trkpt><trkpt lat="42.575944385769645" lon="12.635491770720456"><ele>171.16666666666666</ele><time>2026-04-11T11:55:43.998Z</time></trkpt><trkpt lat="42.57581241967556" lon="12.6355259302894"><ele>171.33333333333334</ele><time>2026-04-11T11:55:45.998Z</time></trkpt><trkpt lat="42.57573767842353" lon="12.635551866733879"><ele>171.5</ele><time>2026-04-11T11:55:46.998Z</time></trkpt><trkpt lat="42.57567531498504" lon="12.635576794905719"><ele>171.66666666666669</ele><time>2026-04-11T11:55:47.998Z</time></trkpt><trkpt lat="42.575614120971025" lon="12.635607208593166"><ele>171.83333333333334</ele><time>2026-04-11T11:55:48.998Z</time></trkpt><trkpt lat="42.5755506515787" lon="12.635630512715823"><ele>172.0</ele><time>2026-04-11T11:55:49.998Z</time></trkpt><trkpt lat="42.57541888768267" lon="12.635619203311897"><ele>170.66666666666669</ele><time>2026-04-11T11:55:51.998Z</time></trkpt><trkpt lat="42.57535318295414" lon="12.63565810407856"><ele>169.33333333333334</ele><time>2026-04-11T11:55:52.998Z</time></trkpt><trkpt lat="42.57525084497864" lon="12.635685017467837"><ele>168.0</ele><time>2026-04-11T11:55:54.998Z</time></trkpt><trkpt lat="42.57517199897221" lon="12.635739178536774"><ele>166.66666666666666</ele><time>2026-04-11T11:55:56.998Z</time></trkpt><trkpt lat="42.575116898037656" lon="12.635787847421522"><ele>165.33333333333331</ele><time>2026-04-11T11:55:58.998Z</time></trkpt><trkpt lat="42.57512064707925" lon="12.635918360883258"><ele>164.0</ele><time>2026-04-11T11:56:00.998Z</time></trkpt><trkpt lat="42.57509853265451" lon="12.635999401692594"><ele>164.0</ele><time>2026-04-11T11:56:03.998Z</time></trkpt><trkpt lat="42.575010443212186" lon="12.635995112110516"><ele>164.0</ele><time>2026-04-11T11:56:06.998Z</time></trkpt><trkpt lat="42.575002489377106" lon="12.635899064030129"><ele>164.0</ele><time>2026-04-11T11:56:07.998Z</time></trkpt><trkpt lat="42.574914719103525" lon="12.635803249412897"><ele>164.0</ele><time>2026-04-11T11:56:09.998Z</time></trkpt><trkpt lat="42.57483825951539" lon="12.635749465919542"><ele>164.0</ele><time>2026-04-11T11:56:11.998Z</time></trkpt><trkpt lat="42.57476192878449" lon="12.635749366874379"><ele>164.0</ele><time>2026-04-11T11:56:13.998Z</time></trkpt><trkpt lat="42.574677137704974" lon="12.635746720935389"><ele>164.0</ele><time>2026-04-11T11:56:15.998Z</time></trkpt><trkpt lat="42.574576568931406" lon="12.635794324613935"><ele>164.0</ele><time>2026-04-11T11:56:17.998Z</time></trkpt><trkpt lat="42.574504290877876" lon="12.635898374753097"><ele>164.0</ele><time>2026-04-11T11:56:19.998Z</time></trkpt><trkpt lat="42.574478209125495" lon="12.635985835594019"><ele>164.0</ele><time>2026-04-11T11:56:20.998Z</time></trkpt><trkpt lat="42.57445225108773" lon="12.636069929720174"><ele>164.0</ele><time>2026-04-11T11:56:21.998Z</time></trkpt><trkpt lat="42.57440560386724" lon="12.63621902329797"><ele>161.0</ele><time>2026-04-11T11:56:23.998Z</time></trkpt><trkpt lat="42.57435483016325" lon="12.636358723304213"><ele>158.0</ele><time>2026-04-11T11:56:25.998Z</time></trkpt><trkpt lat="42.57429855693351" lon="12.636484916224733"><ele>155.0</ele><time>2026-04-11T11:56:27.998Z</time></trkpt><trkpt lat="42.5742458512495" lon="12.636584137488837"><ele>152.0</ele><time>2026-04-11T11:56:29.998Z</time></trkpt><trkpt lat="42.574148569265304" lon="12.636636275200514"><ele>149.0</ele><time>2026-04-11T11:56:31.998Z</time></trkpt><trkpt lat="42.57401343745787" lon="12.63666504854247"><ele>149.0</ele><time>2026-04-11T11:56:33.998Z</time></trkpt><trkpt lat="42.573923153867234" lon="12.636694747321027"><ele>149.0</ele><time>2026-04-11T11:56:34.998Z</time></trkpt><trkpt lat="42.57383641670245" lon="12.636733738482564"><ele>149.0</ele><time>2026-04-11T11:56:35.998Z</time></trkpt><trkpt lat="42.573761116946116" lon="12.636773923071207"><ele>149.0</ele><time>2026-04-11T11:56:36.998Z</time></trkpt><trkpt lat="42.573700710715755" lon="12.636811249856931"><ele>149.0</ele><time>2026-04-11T11:56:37.998Z</time></trkpt><trkpt lat="42.57363802857226" lon="12.636863195025173"><ele>149.0</ele><time>2026-04-11T11:56:38.998Z</time></trkpt><trkpt lat="42.573574006549435" lon="12.63691433815167"><ele>146.33333333333331</ele><time>2026-04-11T11:56:39.998Z</time></trkpt><trkpt lat="42.57349991888742" lon="12.636967306371401"><ele>143.66666666666666</ele><time>2026-04-11T11:56:40.998Z</time></trkpt><trkpt lat="42.57344665660841" lon="12.637033345631776"><ele>141.0</ele><time>2026-04-11T11:56:41.998Z</time></trkpt><trkpt lat="42.57339660162231" lon="12.637091360604485"><ele>138.33333333333334</ele><time>2026-04-11T11:56:42.998Z</time></trkpt><trkpt lat="42.573343573957146" lon="12.637150234761528"><ele>135.66666666666669</ele><time>2026-04-11T11:56:43.998Z</time></trkpt><trkpt lat="42.57325225485121" lon="12.637207152759867"><ele>133.0</ele><time>2026-04-11T11:56:45.998Z</time></trkpt><trkpt lat="42.57318165645754" lon="12.637232523950802"><ele>133.0</ele><time>2026-04-11T11:56:49.998Z</time></trkpt><trkpt lat="42.57309546110933" lon="12.637254541545184"><ele>133.0</ele><time>2026-04-11T11:56:53.998Z</time></trkpt><trkpt lat="42.57298422647482" lon="12.637233556880407"><ele>133.0</ele><time>2026-04-11T11:56:55.998Z</time></trkpt><trkpt lat="42.572935369603876" lon="12.63714868583695"><ele>133.0</ele><time>2026-04-11T11:56:56.998Z</time></trkpt><trkpt lat="42.57292015439156" lon="12.637058561626786"><ele>133.0</ele><time>2026-04-11T11:56:57.998Z</time></trkpt><trkpt lat="42.57292728098051" lon="12.636957684046076"><ele>133.0</ele><time>2026-04-11T11:56:58.998Z</time></trkpt><trkpt lat="42.57291174931567" lon="12.636828530922452"><ele>133.0</ele><time>2026-04-11T11:56:59.998Z</time></trkpt><trkpt lat="42.572899176736094" lon="12.636724903229878"><ele>133.0</ele><time>2026-04-11T11:57:00.998Z</time></trkpt><trkpt lat="42.572895138249265" lon="12.636632378210972"><ele>133.0</ele><time>2026-04-11T11:57:01.998Z</time></trkpt><trkpt lat="42.57289075889638" lon="12.636536962750165"><ele>133.0</ele><time>2026-04-11T11:57:02.998Z</time></trkpt><trkpt lat="42.57288499131542" lon="12.636446507933657"><ele>133.0</ele><time>2026-04-11T11:57:03.998Z</time></trkpt><trkpt lat="42.5728797347846" lon="12.636349062361937"><ele>133.0</ele><time>2026-04-11T11:57:04.998Z</time></trkpt><trkpt lat="42.572878227117805" lon="12.6362334902991"><ele>133.0</ele><time>2026-04-11T11:57:05.998Z</time></trkpt><trkpt lat="42.57287211998174" lon="12.636138248350205"><ele>131.83333333333334</ele><time>2026-04-11T11:57:06.998Z</time></trkpt><trkpt lat="42.572851959208705" lon="12.636023473886407"><ele>130.66666666666669</ele><time>2026-04-11T11:57:08.998Z</time></trkpt><trkpt lat="42.57281731717429" lon="12.635947465622944"><ele>129.5</ele><time>2026-04-11T11:57:10.998Z</time></trkpt><trkpt lat="42.57276084409126" lon="12.635884689463355"><ele>128.33333333333334</ele><time>2026-04-11T11:57:14.998Z</time></trkpt><trkpt lat="42.57269261784027" lon="12.635825099405121"><ele>127.16666666666667</ele><time>2026-04-11T11:57:21.998Z</time></trkpt><trkpt lat="42.57266478308323" lon="12.635733400606696"><ele>126.0</ele><time>2026-04-11T11:57:22.998Z</time></trkpt><trkpt lat="42.572572801064595" lon="12.635668866312878"><ele>126.0</ele><time>2026-04-11T11:57:24.998Z</time></trkpt><trkpt lat="42.572488729660186" lon="12.63574952612582"><ele>126.0</ele><time>2026-04-11T11:57:25.998Z</time></trkpt><trkpt lat="42.572464403263744" lon="12.635848824909061"><ele>126.0</ele><time>2026-04-11T11:57:26.998Z</time></trkpt><trkpt lat="42.57247059865997" lon="12.635946627593674"><ele>126.0</ele><time>2026-04-11T11:57:27.998Z</time></trkpt><trkpt lat="42.5725033102446" lon="12.636060511233921"><ele>126.0</ele><time>2026-04-11T11:57:28.998Z</time></trkpt><trkpt lat="42.57258063461322" lon="12.636178224857682"><ele>125.75</ele><time>2026-04-11T11:57:29.998Z</time></trkpt><trkpt lat="42.57261668170663" lon="12.636319122927777"><ele>125.5</ele><time>2026-04-11T11:57:30.998Z</time></trkpt><trkpt lat="42.57263688883851" lon="12.636487411738047"><ele>125.25</ele><time>2026-04-11T11:57:31.998Z</time></trkpt><trkpt lat="42.572658070706524" lon="12.636668071701838"><ele>125.0</ele><time>2026-04-11T11:57:32.998Z</time></trkpt><trkpt lat="42.57267466570133" lon="12.636841043417267"><ele>124.75</ele><time>2026-04-11T11:57:33.998Z</time></trkpt><trkpt lat="42.5727025905976" lon="12.636997077083862"><ele>124.5</ele><time>2026-04-11T11:57:34.998Z</time></trkpt><trkpt lat="42.572735360757804" lon="12.637141332736379"><ele>124.25</ele><time>2026-04-11T11:57:35.998Z</time></trkpt><trkpt lat="42.572765888691414" lon="12.637293207325046"><ele>124.0</ele><time>2026-04-11T11:57:36.998Z</time></trkpt><trkpt lat="42.572789051395674" lon="12.637459229032217"><ele>124.0</ele><time>2026-04-11T11:57:37.998Z</time></trkpt><trkpt lat="42.5728126806378" lon="12.637628329124542"><ele>124.0</ele><time>2026-04-11T11:57:38.998Z</time></trkpt><trkpt lat="42.57284165565107" lon="12.637813105154764"><ele>124.0</ele><time>2026-04-11T11:57:39.998Z</time></trkpt><trkpt lat="42.57287195531695" lon="12.637999941494435"><ele>124.0</ele><time>2026-04-11T11:57:40.998Z</time></trkpt><trkpt lat="42.572902406116036" lon="12.638169893038304"><ele>124.5</ele><time>2026-04-11T11:57:41.998Z</time></trkpt><trkpt lat="42.57293287384939" lon="12.63832592778311"><ele>125.0</ele><time>2026-04-11T11:57:42.998Z</time></trkpt><trkpt lat="42.57297081247337" lon="12.638481772327365"><ele>125.5</ele><time>2026-04-11T11:57:43.998Z</time></trkpt><trkpt lat="42.57300602597724" lon="12.638651091385466"><ele>126.0</ele><time>2026-04-11T11:57:44.998Z</time></trkpt><trkpt lat="42.5730427041878" lon="12.638819426681467"><ele>126.25</ele><time>2026-04-11T11:57:45.998Z</time></trkpt><trkpt lat="42.57306980013839" lon="12.638992398882074"><ele>126.5</ele><time>2026-04-11T11:57:46.998Z</time></trkpt><trkpt lat="42.57311122702177" lon="12.639139909537342"><ele>126.75</ele><time>2026-04-11T11:57:47.998Z</time></trkpt><trkpt lat="42.573060321771166" lon="12.639330990574287"><ele>127.0</ele><time>2026-04-11T11:57:48.998Z</time></trkpt><trkpt lat="42.57308929212842" lon="12.639498977662715"><ele>127.0</ele><time>2026-04-11T11:57:49.998Z</time></trkpt><trkpt lat="42.573160701149696" lon="12.639646391006691"><ele>127.0</ele><time>2026-04-11T11:57:50.998Z</time></trkpt><trkpt lat="42.57326104123835" lon="12.639751618673662"><ele>127.0</ele><time>2026-04-11T11:57:51.998Z</time></trkpt><trkpt lat="42.573380257210765" lon="12.639825075216784"><ele>127.0</ele><time>2026-04-11T11:57:52.998Z</time></trkpt><trkpt lat="42.57350025586993" lon="12.63990042104757"><ele>127.0</ele><time>2026-04-11T11:57:53.998Z</time></trkpt><trkpt lat="42.573612707290735" lon="12.640007657664613"><ele>127.0</ele><time>2026-04-11T11:57:54.998Z</time></trkpt><trkpt lat="42.573711119794886" lon="12.64013747397935"><ele>127.0</ele><time>2026-04-11T11:57:55.998Z</time></trkpt><trkpt lat="42.573804205332294" lon="12.640277274096173"><ele>127.0</ele><time>2026-04-11T11:57:56.998Z</time></trkpt><trkpt lat="42.57388529333272" lon="12.640425839099194"><ele>128.0</ele><time>2026-04-11T11:57:57.998Z</time></trkpt><trkpt lat="42.57389420405503" lon="12.640657708916947"><ele>129.0</ele><time>2026-04-11T11:57:58.998Z</time></trkpt><trkpt lat="42.57395415823408" lon="12.640834906556986"><ele>130.0</ele><time>2026-04-11T11:57:59.998Z</time></trkpt><trkpt lat="42.57401449664511" lon="12.641011164452692"><ele>129.25</ele><time>2026-04-11T11:58:00.998Z</time></trkpt><trkpt lat="42.574073962972555" lon="12.641191889063842"><ele>128.5</ele><time>2026-04-11T11:58:01.998Z</time></trkpt><trkpt lat="42.57413238437487" lon="12.641372807354992"><ele>127.75</ele><time>2026-04-11T11:58:02.998Z</time></trkpt><trkpt lat="42.574190897340685" lon="12.64154315374795"><ele>127.0</ele><time>2026-04-11T11:58:03.998Z</time></trkpt><trkpt lat="42.574244133233044" lon="12.64171272773498"><ele>127.0</ele><time>2026-04-11T11:58:04.998Z</time></trkpt><trkpt lat="42.57428530147491" lon="12.641894682925694"><ele>127.0</ele><time>2026-04-11T11:58:05.998Z</time></trkpt><trkpt lat="42.57431135338568" lon="12.642083366967377"><ele>127.0</ele><time>2026-04-11T11:58:06.998Z</time></trkpt><trkpt lat="42.57432494843629" lon="12.642270909597391"><ele>127.0</ele><time>2026-04-11T11:58:07.998Z</time></trkpt><trkpt lat="42.574320690351406" lon="12.642462314528219"><ele>127.0</ele><time>2026-04-11T11:58:08.998Z</time></trkpt><trkpt lat="42.57431270366228" lon="12.642657959556836"><ele>127.0</ele><time>2026-04-11T11:58:09.998Z</time></trkpt><trkpt lat="42.57430019445577" lon="12.64285252477536"><ele>127.0</ele><time>2026-04-11T11:58:10.998Z</time></trkpt><trkpt lat="42.57428681886999" lon="12.643051427017822"><ele>127.0</ele><time>2026-04-11T11:58:11.998Z</time></trkpt><trkpt lat="42.574275627598205" lon="12.643255244620331"><ele>127.0</ele><time>2026-04-11T11:58:12.998Z</time></trkpt><trkpt lat="42.574267538874096" lon="12.643460098154133"><ele>127.0</ele><time>2026-04-11T11:58:13.998Z</time></trkpt><trkpt lat="42.57425211247456" lon="12.643663342930763"><ele>127.0</ele><time>2026-04-11T11:58:14.998Z</time></trkpt><trkpt lat="42.57424297982466" lon="12.64386499941146"><ele>127.25</ele><time>2026-04-11T11:58:15.998Z</time></trkpt><trkpt lat="42.57423453389293" lon="12.644070760814664"><ele>127.5</ele><time>2026-04-11T11:58:16.998Z</time></trkpt><trkpt lat="42.57422644880701" lon="12.644272584624405"><ele>127.75</ele><time>2026-04-11T11:58:17.998Z</time></trkpt><trkpt lat="42.57420944585543" lon="12.644470806795036"><ele>128.0</ele><time>2026-04-11T11:58:18.998Z</time></trkpt><trkpt lat="42.57419866626631" lon="12.644676996206409"><ele>128.25</ele><time>2026-04-11T11:58:19.998Z</time></trkpt><trkpt lat="42.574189974964234" lon="12.644880001406055"><ele>128.5</ele><time>2026-04-11T11:58:20.998Z</time></trkpt><trkpt lat="42.57418160115145" lon="12.645081205428818"><ele>128.75</ele><time>2026-04-11T11:58:21.998Z</time></trkpt><trkpt lat="42.57417400318736" lon="12.645284183124282"><ele>129.0</ele><time>2026-04-11T11:58:22.998Z</time></trkpt><trkpt lat="42.57416150258998" lon="12.64549180839406"><ele>129.0</ele><time>2026-04-11T11:58:23.998Z</time></trkpt><trkpt lat="42.574142092715974" lon="12.645699370290464"><ele>129.0</ele><time>2026-04-11T11:58:24.998Z</time></trkpt><trkpt lat="42.574117630892005" lon="12.645902535634267"><ele>129.0</ele><time>2026-04-11T11:58:25.998Z</time></trkpt><trkpt lat="42.5740806398697" lon="12.64609730409409"><ele>130.0</ele><time>2026-04-11T11:58:26.998Z</time></trkpt><trkpt lat="42.57403505401268" lon="12.64629240338688"><ele>131.0</ele><time>2026-04-11T11:58:27.998Z</time></trkpt><trkpt lat="42.57398513875347" lon="12.646491126225433"><ele>132.0</ele><time>2026-04-11T11:58:28.998Z</time></trkpt><trkpt lat="42.57393123631193" lon="12.646691603157594"><ele>132.0</ele><time>2026-04-11T11:58:29.998Z</time></trkpt><trkpt lat="42.57387327798238" lon="12.646896795504453"><ele>132.0</ele><time>2026-04-11T11:58:30.998Z</time></trkpt><trkpt lat="42.57381209287801" lon="12.64710378512368"><ele>132.0</ele><time>2026-04-11T11:58:31.998Z</time></trkpt><trkpt lat="42.5737511119852" lon="12.647309835662432"><ele>132.0</ele><time>2026-04-11T11:58:32.998Z</time></trkpt><trkpt lat="42.573690761969665" lon="12.647517041500587"><ele>132.0</ele><time>2026-04-11T11:58:33.998Z</time></trkpt><trkpt lat="42.573631420852706" lon="12.647722825249732"><ele>132.0</ele><time>2026-04-11T11:58:34.998Z</time></trkpt><trkpt lat="42.573573551956734" lon="12.647926576896097"><ele>131.0</ele><time>2026-04-11T11:58:35.998Z</time></trkpt><trkpt lat="42.573517190585385" lon="12.648127137257626"><ele>130.0</ele><time>2026-04-11T11:58:36.998Z</time></trkpt><trkpt lat="42.57345360990099" lon="12.64833083293687"><ele>129.0</ele><time>2026-04-11T11:58:37.998Z</time></trkpt><trkpt lat="42.573395500905" lon="12.648534823012874"><ele>128.66666666666666</ele><time>2026-04-11T11:58:38.998Z</time></trkpt><trkpt lat="42.57333641322123" lon="12.64873918721839"><ele>128.33333333333331</ele><time>2026-04-11T11:58:39.998Z</time></trkpt><trkpt lat="42.573280063256256" lon="12.648942118963182"><ele>128.0</ele><time>2026-04-11T11:58:40.998Z</time></trkpt><trkpt lat="42.57322220551845" lon="12.649144267141134"><ele>128.0</ele><time>2026-04-11T11:58:41.998Z</time></trkpt><trkpt lat="42.573164909265316" lon="12.649347917403922"><ele>128.0</ele><time>2026-04-11T11:58:42.998Z</time></trkpt><trkpt lat="42.573105969397446" lon="12.649553372826064"><ele>128.0</ele><time>2026-04-11T11:58:43.998Z</time></trkpt><trkpt lat="42.573044276718214" lon="12.649759429320383"><ele>127.66666666666666</ele><time>2026-04-11T11:58:44.998Z</time></trkpt><trkpt lat="42.57298207960803" lon="12.64996767521579"><ele>127.33333333333334</ele><time>2026-04-11T11:58:45.998Z</time></trkpt><trkpt lat="42.572918869804845" lon="12.650176218866491"><ele>127.0</ele><time>2026-04-11T11:58:46.998Z</time></trkpt><trkpt lat="42.57285512531026" lon="12.650387418111862"><ele>127.0</ele><time>2026-04-11T11:58:47.998Z</time></trkpt><trkpt lat="42.57279530002511" lon="12.650598212294932"><ele>127.0</ele><time>2026-04-11T11:58:48.998Z</time></trkpt><trkpt lat="42.57273677447419" lon="12.650808152750828"><ele>127.0</ele><time>2026-04-11T11:58:49.998Z</time></trkpt><trkpt lat="42.57267700664137" lon="12.651016497839592"><ele>127.33333333333334</ele><time>2026-04-11T11:58:50.998Z</time></trkpt><trkpt lat="42.57261800822271" lon="12.651221262829269"><ele>127.66666666666666</ele><time>2026-04-11T11:58:51.998Z</time></trkpt><trkpt lat="42.572562787962624" lon="12.6514226707356"><ele>128.0</ele><time>2026-04-11T11:58:52.998Z</time></trkpt><trkpt lat="42.572513794515245" lon="12.651628444695028"><ele>128.0</ele><time>2026-04-11T11:58:53.998Z</time></trkpt><trkpt lat="42.57247878879237" lon="12.651834878674803"><ele>128.0</ele><time>2026-04-11T11:58:54.998Z</time></trkpt><trkpt lat="42.57245903207973" lon="12.652046958076198"><ele>128.0</ele><time>2026-04-11T11:58:55.998Z</time></trkpt><trkpt lat="42.57244959071358" lon="12.652257810781887"><ele>128.0</ele><time>2026-04-11T11:58:56.998Z</time></trkpt><trkpt lat="42.57244825817999" lon="12.652461408436974"><ele>128.0</ele><time>2026-04-11T11:58:57.998Z</time></trkpt><trkpt lat="42.57244425846358" lon="12.65266767235934"><ele>128.0</ele><time>2026-04-11T11:58:58.998Z</time></trkpt><trkpt lat="42.57244044216271" lon="12.652876135108965"><ele>129.66666666666666</ele><time>2026-04-11T11:58:59.998Z</time></trkpt><trkpt lat="42.57243652124427" lon="12.653079448894648"><ele>131.33333333333334</ele><time>2026-04-11T11:59:00.998Z</time></trkpt><trkpt lat="42.572429262072305" lon="12.65328722431031"><ele>133.0</ele><time>2026-04-11T11:59:01.998Z</time></trkpt><trkpt lat="42.57242295888273" lon="12.653496163075905"><ele>133.33333333333334</ele><time>2026-04-11T11:59:02.998Z</time></trkpt><trkpt lat="42.57241756682896" lon="12.653708591185609"><ele>133.66666666666666</ele><time>2026-04-11T11:59:03.998Z</time></trkpt><trkpt lat="42.572415788830895" lon="12.653918073640371"><ele>134.0</ele><time>2026-04-11T11:59:04.998Z</time></trkpt><trkpt lat="42.57241624207497" lon="12.654108630100533"><ele>134.0</ele><time>2026-04-11T11:59:05.998Z</time></trkpt><trkpt lat="42.57240947247319" lon="12.654296205940291"><ele>134.0</ele><time>2026-04-11T11:59:06.998Z</time></trkpt><trkpt lat="42.57240053291377" lon="12.654484125307564"><ele>134.0</ele><time>2026-04-11T11:59:07.998Z</time></trkpt><trkpt lat="42.572391019341545" lon="12.654667654101969"><ele>134.0</ele><time>2026-04-11T11:59:08.998Z</time></trkpt><trkpt lat="42.572380765333975" lon="12.654855305879625"><ele>134.0</ele><time>2026-04-11T11:59:09.998Z</time></trkpt><trkpt lat="42.572368380793534" lon="12.655037325195293"><ele>134.0</ele><time>2026-04-11T11:59:10.998Z</time></trkpt><trkpt lat="42.57235759553084" lon="12.655215448141833"><ele>134.0</ele><time>2026-04-11T11:59:11.998Z</time></trkpt><trkpt lat="42.572344605328574" lon="12.65539823218323"><ele>134.0</ele><time>2026-04-11T11:59:12.998Z</time></trkpt><trkpt lat="42.572333364811406" lon="12.655573881015354"><ele>134.0</ele><time>2026-04-11T11:59:13.998Z</time></trkpt><trkpt lat="42.572323400483185" lon="12.655750161633225"><ele>134.0</ele><time>2026-04-11T11:59:14.998Z</time></trkpt><trkpt lat="42.57231764090298" lon="12.655912699221426"><ele>134.0</ele><time>2026-04-11T11:59:15.998Z</time></trkpt><trkpt lat="42.572307192885056" lon="12.656048539428193"><ele>134.0</ele><time>2026-04-11T11:59:16.998Z</time></trkpt><trkpt lat="42.572300799334435" lon="12.656157396640854"><ele>134.0</ele><time>2026-04-11T11:59:17.998Z</time></trkpt><trkpt lat="42.572292803754706" lon="12.656271014980387"><ele>134.0</ele><time>2026-04-11T11:59:19.998Z</time></trkpt><trkpt lat="42.57232259456283" lon="12.656350888622649"><ele>134.0</ele><time>2026-04-11T11:59:22.998Z</time></trkpt><trkpt lat="42.57243681775901" lon="12.656378967839768"><ele>134.0</ele><time>2026-04-11T11:59:24.998Z</time></trkpt><trkpt lat="42.572502962496394" lon="12.65643058423977"><ele>134.0</ele><time>2026-04-11T11:59:25.998Z</time></trkpt><trkpt lat="42.57256867700759" lon="12.656482399181838"><ele>134.0</ele><time>2026-04-11T11:59:26.998Z</time></trkpt><trkpt lat="42.57266852992381" lon="12.656543911212282"><ele>134.0</ele><time>2026-04-11T11:59:27.998Z</time></trkpt><trkpt lat="42.572742544548724" lon="12.656584341837597"><ele>134.0</ele><time>2026-04-11T11:59:28.998Z</time></trkpt><trkpt lat="42.572790045047164" lon="12.656704421670405"><ele>134.0</ele><time>2026-04-11T11:59:29.998Z</time></trkpt><trkpt lat="42.572826194192665" lon="12.656824688842589"><ele>134.0</ele><time>2026-04-11T11:59:30.998Z</time></trkpt><trkpt lat="42.57288092138069" lon="12.656930316976402"><ele>134.0</ele><time>2026-04-11T11:59:31.998Z</time></trkpt><trkpt lat="42.57292619867681" lon="12.657022379796155"><ele>134.0</ele><time>2026-04-11T11:59:32.998Z</time></trkpt><trkpt lat="42.572996986348734" lon="12.65708457550428"><ele>135.4</ele><time>2026-04-11T11:59:33.998Z</time></trkpt><trkpt lat="42.57307014351588" lon="12.657166616104119"><ele>136.8</ele><time>2026-04-11T11:59:34.998Z</time></trkpt><trkpt lat="42.573151962845316" lon="12.657224967033754"><ele>138.2</ele><time>2026-04-11T11:59:35.998Z</time></trkpt><trkpt lat="42.57323624763712" lon="12.657280441851569"><ele>139.6</ele><time>2026-04-11T11:59:36.998Z</time></trkpt><trkpt lat="42.57331153243787" lon="12.657339622813986"><ele>141.0</ele><time>2026-04-11T11:59:37.998Z</time></trkpt><trkpt lat="42.57339420220429" lon="12.657393434811732"><ele>141.0</ele><time>2026-04-11T11:59:38.998Z</time></trkpt><trkpt lat="42.57348105313976" lon="12.65745701693763"><ele>141.0</ele><time>2026-04-11T11:59:39.998Z</time></trkpt><trkpt lat="42.57356412355523" lon="12.65752313288322"><ele>141.0</ele><time>2026-04-11T11:59:40.998Z</time></trkpt><trkpt lat="42.573657697692326" lon="12.657585903414628"><ele>141.0</ele><time>2026-04-11T11:59:41.998Z</time></trkpt><trkpt lat="42.573755148357044" lon="12.65765138678344"><ele>141.0</ele><time>2026-04-11T11:59:42.998Z</time></trkpt><trkpt lat="42.57384251856165" lon="12.657724020933424"><ele>143.8</ele><time>2026-04-11T11:59:43.998Z</time></trkpt><trkpt lat="42.573917059478184" lon="12.65781558070744"><ele>146.6</ele><time>2026-04-11T11:59:44.998Z</time></trkpt><trkpt lat="42.57397058171549" lon="12.657923898932765"><ele>149.4</ele><time>2026-04-11T11:59:45.998Z</time></trkpt><trkpt lat="42.57401284835974" lon="12.658059368656936"><ele>152.2</ele><time>2026-04-11T11:59:46.998Z</time></trkpt><trkpt lat="42.574062796763315" lon="12.658196968563223"><ele>155.0</ele><time>2026-04-11T11:59:47.998Z</time></trkpt><trkpt lat="42.574123209090736" lon="12.658331698494292"><ele>155.0</ele><time>2026-04-11T11:59:48.998Z</time></trkpt><trkpt lat="42.574176686286876" lon="12.658466424232643"><ele>155.0</ele><time>2026-04-11T11:59:49.998Z</time></trkpt><trkpt lat="42.57424074016717" lon="12.6585894351214"><ele>155.0</ele><time>2026-04-11T11:59:50.998Z</time></trkpt><trkpt lat="42.574311055110975" lon="12.658712332409895"><ele>155.0</ele><time>2026-04-11T11:59:51.998Z</time></trkpt><trkpt lat="42.57438231835037" lon="12.658832864804308"><ele>156.5</ele><time>2026-04-11T11:59:52.998Z</time></trkpt><trkpt lat="42.57444690053832" lon="12.658956568795606"><ele>158.0</ele><time>2026-04-11T11:59:53.998Z</time></trkpt><trkpt lat="42.57452012623111" lon="12.65907734790827"><ele>159.5</ele><time>2026-04-11T11:59:54.998Z</time></trkpt><trkpt lat="42.574595849695186" lon="12.65919548836956"><ele>161.0</ele><time>2026-04-11T11:59:55.998Z</time></trkpt><trkpt lat="42.57467664727857" lon="12.659299436540975"><ele>164.0</ele><time>2026-04-11T11:59:56.998Z</time></trkpt><trkpt lat="42.57474865805073" lon="12.659388311693958"><ele>167.0</ele><time>2026-04-11T11:59:57.998Z</time></trkpt><trkpt lat="42.574816671417906" lon="12.659456199831286"><ele>170.0</ele><time>2026-04-11T11:59:58.998Z</time></trkpt><trkpt lat="42.574879535175754" lon="12.659515752307136"><ele>173.0</ele><time>2026-04-11T11:59:59.998Z</time></trkpt><trkpt lat="42.574940774746736" lon="12.659555743340896"><ele>176.0</ele><time>2026-04-11T12:00:00.998Z</time></trkpt><trkpt lat="42.574987017453545" lon="12.659714566245825"><ele>176.66666666666666</ele><time>2026-04-11T12:00:02.998Z</time></trkpt><trkpt lat="42.57497651892778" lon="12.659828221296271"><ele>177.33333333333331</ele><time>2026-04-11T12:00:03.998Z</time></trkpt><trkpt lat="42.5749806475245" lon="12.659945592647865"><ele>178.0</ele><time>2026-04-11T12:00:04.998Z</time></trkpt><trkpt lat="42.57497923986818" lon="12.660078545099648"><ele>178.66666666666666</ele><time>2026-04-11T12:00:05.998Z</time></trkpt><trkpt lat="42.57499678021978" lon="12.660204315528171"><ele>179.33333333333334</ele><time>2026-04-11T12:00:06.998Z</time></trkpt><trkpt lat="42.57501750079804" lon="12.660306261282017"><ele>180.0</ele><time>2026-04-11T12:00:07.998Z</time></trkpt><trkpt lat="42.57499944137352" lon="12.660437382402915"><ele>180.0</ele><time>2026-04-11T12:00:09.998Z</time></trkpt><trkpt lat="42.57493442909305" lon="12.660504251454942"><ele>180.0</ele><time>2026-04-11T12:00:10.998Z</time></trkpt><trkpt lat="42.574851911123" lon="12.660597635055801"><ele>180.0</ele><time>2026-04-11T12:00:11.998Z</time></trkpt><trkpt lat="42.57477132051495" lon="12.66071243969468"><ele>180.0</ele><time>2026-04-11T12:00:12.998Z</time></trkpt><trkpt lat="42.574675219022666" lon="12.660850200223114"><ele>180.0</ele><time>2026-04-11T12:00:13.998Z</time></trkpt><trkpt lat="42.574588499376745" lon="12.661010753266199"><ele>177.0</ele><time>2026-04-11T12:00:14.998Z</time></trkpt><trkpt lat="42.57449455427932" lon="12.661164212987195"><ele>174.0</ele><time>2026-04-11T12:00:15.998Z</time></trkpt><trkpt lat="42.5743988055865" lon="12.661313447177093"><ele>171.0</ele><time>2026-04-11T12:00:16.998Z</time></trkpt><trkpt lat="42.57428967899938" lon="12.661444968582929"><ele>168.0</ele><time>2026-04-11T12:00:17.998Z</time></trkpt><trkpt lat="42.574191003206096" lon="12.661588518678519"><ele>168.0</ele><time>2026-04-11T12:00:18.998Z</time></trkpt><trkpt lat="42.57408992071991" lon="12.661734208919357"><ele>168.0</ele><time>2026-04-11T12:00:19.998Z</time></trkpt><trkpt lat="42.57399088112051" lon="12.661876669398307"><ele>168.0</ele><time>2026-04-11T12:00:20.998Z</time></trkpt><trkpt lat="42.57389472623466" lon="12.662014980719647"><ele>168.0</ele><time>2026-04-11T12:00:21.998Z</time></trkpt><trkpt lat="42.573802818184575" lon="12.662162164139172"><ele>167.0</ele><time>2026-04-11T12:00:22.998Z</time></trkpt><trkpt lat="42.57371948602642" lon="12.662317196250221"><ele>166.0</ele><time>2026-04-11T12:00:23.998Z</time></trkpt><trkpt lat="42.57364101039838" lon="12.66247123724973"><ele>165.0</ele><time>2026-04-11T12:00:24.998Z</time></trkpt><trkpt lat="42.57356908654011" lon="12.662624089974623"><ele>164.0</ele><time>2026-04-11T12:00:25.998Z</time></trkpt><trkpt lat="42.573495900497335" lon="12.662777625005777"><ele>166.75</ele><time>2026-04-11T12:00:26.998Z</time></trkpt><trkpt lat="42.573465513652415" lon="12.662954975081718"><ele>169.5</ele><time>2026-04-11T12:00:27.998Z</time></trkpt><trkpt lat="42.57348777698794" lon="12.663142656330255"><ele>172.25</ele><time>2026-04-11T12:00:28.998Z</time></trkpt><trkpt lat="42.573545049386205" lon="12.663306242164792"><ele>175.0</ele><time>2026-04-11T12:00:29.998Z</time></trkpt><trkpt lat="42.57360838641838" lon="12.663460710374903"><ele>175.0</ele><time>2026-04-11T12:00:30.998Z</time></trkpt><trkpt lat="42.57366675798728" lon="12.663600454307192"><ele>175.0</ele><time>2026-04-11T12:00:31.998Z</time></trkpt><trkpt lat="42.57371476948977" lon="12.663721966677409"><ele>175.0</ele><time>2026-04-11T12:00:32.998Z</time></trkpt><trkpt lat="42.5737639232449" lon="12.663823006975573"><ele>175.0</ele><time>2026-04-11T12:00:33.998Z</time></trkpt><trkpt lat="42.573817024025956" lon="12.663918913925835"><ele>175.0</ele><time>2026-04-11T12:00:34.998Z</time></trkpt><trkpt lat="42.57387020036482" lon="12.66400705807309"><ele>174.33333333333334</ele><time>2026-04-11T12:00:35.998Z</time></trkpt><trkpt lat="42.57392624665522" lon="12.664099229373678"><ele>173.66666666666669</ele><time>2026-04-11T12:00:36.998Z</time></trkpt><trkpt lat="42.5739813417019" lon="12.664187391310652"><ele>173.0</ele><time>2026-04-11T12:00:37.998Z</time></trkpt><trkpt lat="42.5740418069539" lon="12.664272214673211"><ele>172.33333333333334</ele><time>2026-04-11T12:00:38.998Z</time></trkpt><trkpt lat="42.574104334083046" lon="12.664354635845767"><ele>171.66666666666666</ele><time>2026-04-11T12:00:39.998Z</time></trkpt><trkpt lat="42.57415895073732" lon="12.664428069176298"><ele>171.0</ele><time>2026-04-11T12:00:40.998Z</time></trkpt><trkpt lat="42.57420948441276" lon="12.664490208986624"><ele>169.20000000000002</ele><time>2026-04-11T12:00:41.998Z</time></trkpt><trkpt lat="42.57429462839858" lon="12.664599249475087"><ele>167.4</ele><time>2026-04-11T12:00:43.998Z</time></trkpt><trkpt lat="42.57438953494045" lon="12.664731217176175"><ele>165.6</ele><time>2026-04-11T12:00:45.998Z</time></trkpt><trkpt lat="42.57444600722346" lon="12.664830720511674"><ele>163.8</ele><time>2026-04-11T12:00:46.998Z</time></trkpt><trkpt lat="42.57448554569884" lon="12.66494690702553"><ele>162.0</ele><time>2026-04-11T12:00:47.998Z</time></trkpt><trkpt lat="42.57449698634428" lon="12.665059282273074"><ele>162.0</ele><time>2026-04-11T12:00:48.998Z</time></trkpt><trkpt lat="42.5744942422363" lon="12.66514480027065"><ele>162.0</ele><time>2026-04-11T12:00:49.998Z</time></trkpt><trkpt lat="42.574499736642" lon="12.665237608308896"><ele>162.0</ele><time>2026-04-11T12:00:51.998Z</time></trkpt><trkpt lat="42.57451093550097" lon="12.66514251055508"><ele>162.0</ele><time>2026-04-11T12:00:58.998Z</time></trkpt><trkpt lat="42.57450150457778" lon="12.66505485226836"><ele>162.0</ele><time>2026-04-11T12:00:59.998Z</time></trkpt><trkpt lat="42.57449248062833" lon="12.664945679894833"><ele>162.0</ele><time>2026-04-11T12:01:00.998Z</time></trkpt><trkpt lat="42.57447674841298" lon="12.664853387779994"><ele>162.0</ele><time>2026-04-11T12:01:01.998Z</time></trkpt><trkpt lat="42.5746826386158" lon="12.664715957244143"><ele>162.2</ele><time>2026-04-11T12:01:04.998Z</time></trkpt><trkpt lat="42.574738636365424" lon="12.664777289102949"><ele>162.39999999999998</ele><time>2026-04-11T12:01:05.998Z</time></trkpt><trkpt lat="42.574829100594954" lon="12.664828167063318"><ele>162.60000000000002</ele><time>2026-04-11T12:01:06.998Z</time></trkpt><trkpt lat="42.574933737076336" lon="12.664871270800484"><ele>162.8</ele><time>2026-04-11T12:01:07.998Z</time></trkpt><trkpt lat="42.57503409102342" lon="12.664933073988088"><ele>163.0</ele><time>2026-04-11T12:01:08.998Z</time></trkpt><trkpt lat="42.57512083531623" lon="12.665013121811436"><ele>163.0</ele><time>2026-04-11T12:01:09.998Z</time></trkpt><trkpt lat="42.575192837653866" lon="12.66510326188363"><ele>163.0</ele><time>2026-04-11T12:01:10.998Z</time></trkpt><trkpt lat="42.575242547461826" lon="12.665201248604319"><ele>163.0</ele><time>2026-04-11T12:01:11.998Z</time></trkpt><trkpt lat="42.575259511098125" lon="12.66532924038525"><ele>163.0</ele><time>2026-04-11T12:01:12.998Z</time></trkpt><trkpt lat="42.57528340323672" lon="12.665459115142454"><ele>163.0</ele><time>2026-04-11T12:01:13.998Z</time></trkpt><trkpt lat="42.575292846743196" lon="12.665561894342874"><ele>161.5</ele><time>2026-04-11T12:01:14.998Z</time></trkpt><trkpt lat="42.57528776517724" lon="12.66564830498166"><ele>160.0</ele><time>2026-04-11T12:01:15.998Z</time></trkpt><trkpt lat="42.5752845401614" lon="12.665736087375342"><ele>158.5</ele><time>2026-04-11T12:01:16.998Z</time></trkpt><trkpt lat="42.575288754523186" lon="12.665876903571458"><ele>157.0</ele><time>2026-04-11T12:01:18.998Z</time></trkpt><trkpt lat="42.57528522657457" lon="12.665994092617716"><ele>155.5</ele><time>2026-04-11T12:01:20.998Z</time></trkpt><trkpt lat="42.575273738190944" lon="12.666121948036727"><ele>154.0</ele><time>2026-04-11T12:01:22.998Z</time></trkpt><trkpt lat="42.575262738619514" lon="12.666219033279738"><ele>154.0</ele><time>2026-04-11T12:01:26.998Z</time></trkpt><trkpt lat="42.57527062622651" lon="12.666101324215632"><ele>154.0</ele><time>2026-04-11T12:01:40.998Z</time></trkpt><trkpt lat="42.57527248970839" lon="12.665884138323346"><ele>154.0</ele><time>2026-04-11T12:01:42.998Z</time></trkpt><trkpt lat="42.575284766347174" lon="12.665798174227533"><ele>154.0</ele><time>2026-04-11T12:01:43.998Z</time></trkpt><trkpt lat="42.5752911658906" lon="12.665701373707552"><ele>154.0</ele><time>2026-04-11T12:01:44.998Z</time></trkpt><trkpt lat="42.575287735156856" lon="12.665607906890198"><ele>154.0</ele><time>2026-04-11T12:01:45.998Z</time></trkpt><trkpt lat="42.57527847297449" lon="12.665439590121219"><ele>154.0</ele><time>2026-04-11T12:01:47.998Z</time></trkpt><trkpt lat="42.57526826997099" lon="12.66534423676287"><ele>154.0</ele><time>2026-04-11T12:01:48.998Z</time></trkpt><trkpt lat="42.57524386724099" lon="12.665238036054983"><ele>154.0</ele><time>2026-04-11T12:01:49.998Z</time></trkpt><trkpt lat="42.57520713783354" lon="12.665121132237124"><ele>154.0</ele><time>2026-04-11T12:01:50.998Z</time></trkpt><trkpt lat="42.57513924087251" lon="12.665015248595328"><ele>155.8</ele><time>2026-04-11T12:01:51.998Z</time></trkpt><trkpt lat="42.57505309657112" lon="12.66493336699611"><ele>157.60000000000002</ele><time>2026-04-11T12:01:52.998Z</time></trkpt><trkpt lat="42.57495142141668" lon="12.664856262302981"><ele>159.4</ele><time>2026-04-11T12:01:53.998Z</time></trkpt><trkpt lat="42.57486380845699" lon="12.664801891399774"><ele>161.20000000000002</ele><time>2026-04-11T12:01:54.998Z</time></trkpt><trkpt lat="42.574774511431684" lon="12.664759405367347"><ele>163.0</ele><time>2026-04-11T12:01:55.998Z</time></trkpt><trkpt lat="42.57469789199392" lon="12.664720028475461"><ele>163.0</ele><time>2026-04-11T12:01:56.998Z</time></trkpt><trkpt lat="42.57464330873419" lon="12.664655071458977"><ele>163.0</ele><time>2026-04-11T12:01:58.998Z</time></trkpt><trkpt lat="42.574551385794216" lon="12.66464608384365"><ele>163.0</ele><time>2026-04-11T12:02:00.998Z</time></trkpt><trkpt lat="42.574489552434855" lon="12.66478231183316"><ele>163.0</ele><time>2026-04-11T12:02:02.998Z</time></trkpt><trkpt lat="42.574496866100354" lon="12.664911145267757"><ele>163.0</ele><time>2026-04-11T12:02:03.998Z</time></trkpt><trkpt lat="42.5744999034085" lon="12.665044383558572"><ele>162.8</ele><time>2026-04-11T12:02:04.998Z</time></trkpt><trkpt lat="42.57451522733049" lon="12.66518068495185"><ele>162.60000000000002</ele><time>2026-04-11T12:02:05.998Z</time></trkpt><trkpt lat="42.574526983306285" lon="12.665292404151813"><ele>162.39999999999998</ele><time>2026-04-11T12:02:06.998Z</time></trkpt><trkpt lat="42.57453576802686" lon="12.665384428704321"><ele>162.2</ele><time>2026-04-11T12:02:07.998Z</time></trkpt><trkpt lat="42.574517130037265" lon="12.665530501186863"><ele>162.0</ele><time>2026-04-11T12:02:09.998Z</time></trkpt><trkpt lat="42.57444857216254" lon="12.665630825953285"><ele>160.5</ele><time>2026-04-11T12:02:10.998Z</time></trkpt><trkpt lat="42.57437471995305" lon="12.665751746407944"><ele>159.0</ele><time>2026-04-11T12:02:11.998Z</time></trkpt><trkpt lat="42.57428955337642" lon="12.665888329430514"><ele>157.5</ele><time>2026-04-11T12:02:12.998Z</time></trkpt><trkpt lat="42.57421070677444" lon="12.666002847328057"><ele>156.0</ele><time>2026-04-11T12:02:13.998Z</time></trkpt><trkpt lat="42.57413927947629" lon="12.666114944629236"><ele>155.0</ele><time>2026-04-11T12:02:14.998Z</time></trkpt><trkpt lat="42.57407711245316" lon="12.666231062199634"><ele>154.0</ele><time>2026-04-11T12:02:15.998Z</time></trkpt><trkpt lat="42.57401339967741" lon="12.666348523998316"><ele>153.0</ele><time>2026-04-11T12:02:16.998Z</time></trkpt><trkpt lat="42.57395279086571" lon="12.666450467806296"><ele>152.0</ele><time>2026-04-11T12:02:17.998Z</time></trkpt><trkpt lat="42.573887533175665" lon="12.666543098559615"><ele>151.0</ele><time>2026-04-11T12:02:18.998Z</time></trkpt><trkpt lat="42.573839144546675" lon="12.666643314162604"><ele>151.0</ele><time>2026-04-11T12:02:19.998Z</time></trkpt><trkpt lat="42.573785215398104" lon="12.66674295591178"><ele>151.0</ele><time>2026-04-11T12:02:20.998Z</time></trkpt><trkpt lat="42.573732658988895" lon="12.666820483459482"><ele>151.0</ele><time>2026-04-11T12:02:21.998Z</time></trkpt><trkpt lat="42.573676808698735" lon="12.666887324418092"><ele>151.0</ele><time>2026-04-11T12:02:22.998Z</time></trkpt><trkpt lat="42.57362420231618" lon="12.666946940551783"><ele>151.0</ele><time>2026-04-11T12:02:23.998Z</time></trkpt><trkpt lat="42.573575859251235" lon="12.667017606484851"><ele>151.0</ele><time>2026-04-11T12:02:24.998Z</time></trkpt><trkpt lat="42.57350743800722" lon="12.667128717466557"><ele>150.0</ele><time>2026-04-11T12:02:26.998Z</time></trkpt><trkpt lat="42.57358584959067" lon="12.667316330354758"><ele>149.0</ele><time>2026-04-11T12:02:27.998Z</time></trkpt><trkpt lat="42.57362899125336" lon="12.667425014757102"><ele>148.0</ele><time>2026-04-11T12:02:28.998Z</time></trkpt><trkpt lat="42.573659731917594" lon="12.667508558292687"><ele>147.0</ele><time>2026-04-11T12:02:29.998Z</time></trkpt><trkpt lat="42.57367702765237" lon="12.667626110411629"><ele>146.0</ele><time>2026-04-11T12:02:31.991Z</time></trkpt><trkpt lat="42.573825359733526" lon="12.667610179336517"><ele>146.0</ele><time>2026-04-11T12:02:35.991Z</time></trkpt><trkpt lat="42.57389486391609" lon="12.667531532305157"><ele>146.0</ele><time>2026-04-11T12:02:36.991Z</time></trkpt><trkpt lat="42.57399500802359" lon="12.667476220367595"><ele>146.0</ele><time>2026-04-11T12:02:37.991Z</time></trkpt><trkpt lat="42.57410482454279" lon="12.66747847438635"><ele>146.0</ele><time>2026-04-11T12:02:38.991Z</time></trkpt><trkpt lat="42.57423558612343" lon="12.667465822083871"><ele>146.0</ele><time>2026-04-11T12:02:39.991Z</time></trkpt><trkpt lat="42.5743725156834" lon="12.667452572979085"><ele>146.0</ele><time>2026-04-11T12:02:40.991Z</time></trkpt><trkpt lat="42.57451322663733" lon="12.667415164931102"><ele>146.0</ele><time>2026-04-11T12:02:41.991Z</time></trkpt><trkpt lat="42.574672714230545" lon="12.667391760385692"><ele>146.0</ele><time>2026-04-11T12:02:42.991Z</time></trkpt><trkpt lat="42.57483850321304" lon="12.667350662985005"><ele>147.0</ele><time>2026-04-11T12:02:43.991Z</time></trkpt><trkpt lat="42.57499867547695" lon="12.667325694006633"><ele>148.0</ele><time>2026-04-11T12:02:44.991Z</time></trkpt><trkpt lat="42.5751568045399" lon="12.66730769568165"><ele>149.0</ele><time>2026-04-11T12:02:45.991Z</time></trkpt><trkpt lat="42.57531952124942" lon="12.66732475889995"><ele>149.66666666666666</ele><time>2026-04-11T12:02:46.991Z</time></trkpt><trkpt lat="42.57549361814913" lon="12.667343009273798"><ele>150.33333333333334</ele><time>2026-04-11T12:02:47.991Z</time></trkpt><trkpt lat="42.57565660178744" lon="12.667352565110003"><ele>151.0</ele><time>2026-04-11T12:02:48.991Z</time></trkpt><trkpt lat="42.57581629785205" lon="12.667359714515339"><ele>151.0</ele><time>2026-04-11T12:02:49.991Z</time></trkpt><trkpt lat="42.57596753516228" lon="12.667365422073118"><ele>151.0</ele><time>2026-04-11T12:02:50.991Z</time></trkpt><trkpt lat="42.57610948754379" lon="12.667367195445598"><ele>151.0</ele><time>2026-04-11T12:02:51.991Z</time></trkpt><trkpt lat="42.576233649463" lon="12.667358805521738"><ele>151.0</ele><time>2026-04-11T12:02:52.991Z</time></trkpt><trkpt lat="42.57634242905505" lon="12.667348475267566"><ele>151.8</ele><time>2026-04-11T12:02:53.991Z</time></trkpt><trkpt lat="42.576441839317866" lon="12.667339034740607"><ele>152.6</ele><time>2026-04-11T12:02:54.991Z</time></trkpt><trkpt lat="42.57653816154113" lon="12.667332779685497"><ele>153.4</ele><time>2026-04-11T12:02:55.991Z</time></trkpt><trkpt lat="42.57660368029326" lon="12.667333425731666"><ele>154.2</ele><time>2026-04-11T12:02:56.991Z</time></trkpt><trkpt lat="42.576701989799204" lon="12.667326025002366"><ele>155.0</ele><time>2026-04-11T12:02:58.991Z</time></trkpt><trkpt lat="42.57671223544746" lon="12.667448465290482"><ele>155.0</ele><time>2026-04-11T12:02:59.991Z</time></trkpt><trkpt lat="42.57672428967744" lon="12.667570397564827"><ele>155.0</ele><time>2026-04-11T12:03:00.991Z</time></trkpt><trkpt lat="42.57672403971485" lon="12.667716959939039"><ele>155.0</ele><time>2026-04-11T12:03:01.991Z</time></trkpt><trkpt lat="42.57673912729747" lon="12.667868366913199"><ele>155.0</ele><time>2026-04-11T12:03:02.991Z</time></trkpt><trkpt lat="42.57675360297499" lon="12.668040397339874"><ele>155.0</ele><time>2026-04-11T12:03:03.991Z</time></trkpt><trkpt lat="42.57676295802548" lon="12.668210080098111"><ele>155.75</ele><time>2026-04-11T12:03:04.991Z</time></trkpt><trkpt lat="42.576770204496725" lon="12.668388480567138"><ele>156.5</ele><time>2026-04-11T12:03:05.991Z</time></trkpt><trkpt lat="42.5767832458009" lon="12.66856991422612"><ele>157.25</ele><time>2026-04-11T12:03:06.991Z</time></trkpt><trkpt lat="42.576794207155025" lon="12.6687280012842"><ele>158.0</ele><time>2026-04-11T12:03:07.991Z</time></trkpt><trkpt lat="42.57679985614558" lon="12.668848149498771"><ele>159.8</ele><time>2026-04-11T12:03:08.991Z</time></trkpt><trkpt lat="42.57680764686239" lon="12.668939441806957"><ele>161.60000000000002</ele><time>2026-04-11T12:03:09.991Z</time></trkpt><trkpt lat="42.576797416729605" lon="12.669040303169824"><ele>163.39999999999998</ele><time>2026-04-11T12:03:12.991Z</time></trkpt><trkpt lat="42.57695350710541" lon="12.669071870637197"><ele>165.2</ele><time>2026-04-11T12:03:14.991Z</time></trkpt><trkpt lat="42.57703012509776" lon="12.669078940386111"><ele>167.0</ele><time>2026-04-11T12:03:15.991Z</time></trkpt><trkpt lat="42.577123465431335" lon="12.669099008300256"><ele>167.25</ele><time>2026-04-11T12:03:16.991Z</time></trkpt><trkpt lat="42.57722071204015" lon="12.669133722890678"><ele>167.5</ele><time>2026-04-11T12:03:17.991Z</time></trkpt><trkpt lat="42.57732152069565" lon="12.66919496453555"><ele>167.75</ele><time>2026-04-11T12:03:18.991Z</time></trkpt><trkpt lat="42.577432336121205" lon="12.669253296798198"><ele>168.0</ele><time>2026-04-11T12:03:19.991Z</time></trkpt><trkpt lat="42.57755380745572" lon="12.669282642653267"><ele>168.0</ele><time>2026-04-11T12:03:20.991Z</time></trkpt><trkpt lat="42.57765657018515" lon="12.669318069079798"><ele>168.0</ele><time>2026-04-11T12:03:21.991Z</time></trkpt><trkpt lat="42.57776499282474" lon="12.669354129982676"><ele>168.0</ele><time>2026-04-11T12:03:22.991Z</time></trkpt><trkpt lat="42.57787319158247" lon="12.669418153666804"><ele>168.0</ele><time>2026-04-11T12:03:23.991Z</time></trkpt><trkpt lat="42.57796412054274" lon="12.669478212274488"><ele>168.0</ele><time>2026-04-11T12:03:24.991Z</time></trkpt><trkpt lat="42.57807145503421" lon="12.669549106679726"><ele>170.0</ele><time>2026-04-11T12:03:25.991Z</time></trkpt><trkpt lat="42.578181029348876" lon="12.66961721167505"><ele>172.0</ele><time>2026-04-11T12:03:26.991Z</time></trkpt><trkpt lat="42.578271479874154" lon="12.669667783206046"><ele>174.0</ele><time>2026-04-11T12:03:27.991Z</time></trkpt><trkpt lat="42.57837752637253" lon="12.669720312137898"><ele>176.0</ele><time>2026-04-11T12:03:28.991Z</time></trkpt><trkpt lat="42.57846325724468" lon="12.669813600022692"><ele>178.0</ele><time>2026-04-11T12:03:29.991Z</time></trkpt><trkpt lat="42.57854920380524" lon="12.669917083587594"><ele>178.0</ele><time>2026-04-11T12:03:30.991Z</time></trkpt><trkpt lat="42.57864656936852" lon="12.669990744404585"><ele>178.0</ele><time>2026-04-11T12:03:31.991Z</time></trkpt><trkpt lat="42.578751496901155" lon="12.670059745040037"><ele>178.0</ele><time>2026-04-11T12:03:32.991Z</time></trkpt><trkpt lat="42.57885806924422" lon="12.670126452326047"><ele>178.0</ele><time>2026-04-11T12:03:33.991Z</time></trkpt><trkpt lat="42.57896379175244" lon="12.670189916664418"><ele>178.5</ele><time>2026-04-11T12:03:34.991Z</time></trkpt><trkpt lat="42.579073917886724" lon="12.670248979151319"><ele>179.0</ele><time>2026-04-11T12:03:35.991Z</time></trkpt><trkpt lat="42.57919056540097" lon="12.670321163044678"><ele>179.5</ele><time>2026-04-11T12:03:36.991Z</time></trkpt><trkpt lat="42.57931144818156" lon="12.670363341911214"><ele>180.0</ele><time>2026-04-11T12:03:37.991Z</time></trkpt><trkpt lat="42.57943486270124" lon="12.670398513847262"><ele>180.5</ele><time>2026-04-11T12:03:38.991Z</time></trkpt><trkpt lat="42.57955569292506" lon="12.670425094675059"><ele>181.0</ele><time>2026-04-11T12:03:39.991Z</time></trkpt><trkpt lat="42.57968450766681" lon="12.670463917759042"><ele>181.5</ele><time>2026-04-11T12:03:40.991Z</time></trkpt><trkpt lat="42.579812883183074" lon="12.670507344026722"><ele>182.0</ele><time>2026-04-11T12:03:41.991Z</time></trkpt><trkpt lat="42.579946234034146" lon="12.670529600943926"><ele>182.0</ele><time>2026-04-11T12:03:42.991Z</time></trkpt><trkpt lat="42.58009279545518" lon="12.670549582630679"><ele>182.0</ele><time>2026-04-11T12:03:43.991Z</time></trkpt><trkpt lat="42.580224096762535" lon="12.670591616007242"><ele>182.0</ele><time>2026-04-11T12:03:44.991Z</time></trkpt><trkpt lat="42.580358195714425" lon="12.670636228371967"><ele>182.0</ele><time>2026-04-11T12:03:45.991Z</time></trkpt><trkpt lat="42.580487100437395" lon="12.670639161287701"><ele>183.25</ele><time>2026-04-11T12:03:46.991Z</time></trkpt><trkpt lat="42.5806168307167" lon="12.670658027209083"><ele>184.5</ele><time>2026-04-11T12:03:47.991Z</time></trkpt><trkpt lat="42.58075151515426" lon="12.670696452649068"><ele>185.75</ele><time>2026-04-11T12:03:48.991Z</time></trkpt><trkpt lat="42.58086792739864" lon="12.670760346069303"><ele>187.0</ele><time>2026-04-11T12:03:49.991Z</time></trkpt><trkpt lat="42.581001700353184" lon="12.670838238727754"><ele>187.0</ele><time>2026-04-11T12:03:50.991Z</time></trkpt><trkpt lat="42.581111118066225" lon="12.67088787179313"><ele>187.0</ele><time>2026-04-11T12:03:51.991Z</time></trkpt><trkpt lat="42.581217932338454" lon="12.6709125298706"><ele>187.0</ele><time>2026-04-11T12:03:52.991Z</time></trkpt><trkpt lat="42.58133503053485" lon="12.67093724174974"><ele>187.0</ele><time>2026-04-11T12:03:53.991Z</time></trkpt><trkpt lat="42.58145090264676" lon="12.670944855357915"><ele>188.75</ele><time>2026-04-11T12:03:54.991Z</time></trkpt><trkpt lat="42.581571311229105" lon="12.670933920443169"><ele>190.5</ele><time>2026-04-11T12:03:55.991Z</time></trkpt><trkpt lat="42.58167629404738" lon="12.670929735032015"><ele>192.25</ele><time>2026-04-11T12:03:56.991Z</time></trkpt><trkpt lat="42.58180081935836" lon="12.670950406187286"><ele>194.0</ele><time>2026-04-11T12:03:57.991Z</time></trkpt><trkpt lat="42.5819165465908" lon="12.671023240478732"><ele>195.25</ele><time>2026-04-11T12:03:58.991Z</time></trkpt><trkpt lat="42.58202268955388" lon="12.671082784518182"><ele>196.5</ele><time>2026-04-11T12:03:59.991Z</time></trkpt><trkpt lat="42.582128979654236" lon="12.671150244034376"><ele>197.75</ele><time>2026-04-11T12:04:00.991Z</time></trkpt><trkpt lat="42.58223797565782" lon="12.671182571111716"><ele>199.0</ele><time>2026-04-11T12:04:01.991Z</time></trkpt><trkpt lat="42.582350637918125" lon="12.671164496206476"><ele>199.0</ele><time>2026-04-11T12:04:02.991Z</time></trkpt><trkpt lat="42.582468282886175" lon="12.671116018306808"><ele>199.0</ele><time>2026-04-11T12:04:03.991Z</time></trkpt><trkpt lat="42.5825891827082" lon="12.671065623726417"><ele>199.0</ele><time>2026-04-11T12:04:04.991Z</time></trkpt><trkpt lat="42.58271334585299" lon="12.671017460130635"><ele>199.0</ele><time>2026-04-11T12:04:05.991Z</time></trkpt><trkpt lat="42.58283485237381" lon="12.67098047188745"><ele>201.0</ele><time>2026-04-11T12:04:06.99Z</time></trkpt><trkpt lat="42.58295755758532" lon="12.670939530654925"><ele>203.0</ele><time>2026-04-11T12:04:07.99Z</time></trkpt><trkpt lat="42.5830810623684" lon="12.670902195316817"><ele>205.0</ele><time>2026-04-11T12:04:08.99Z</time></trkpt><trkpt lat="42.58320602957345" lon="12.670871834136312"><ele>207.0</ele><time>2026-04-11T12:04:09.99Z</time></trkpt><trkpt lat="42.583327951656194" lon="12.670849520548003"><ele>207.0</ele><time>2026-04-11T12:04:10.989Z</time></trkpt><trkpt lat="42.583443135636756" lon="12.670819512974544"><ele>207.0</ele><time>2026-04-11T12:04:11.989Z</time></trkpt><trkpt lat="42.58355395734997" lon="12.670760285416153"><ele>207.0</ele><time>2026-04-11T12:04:12.99Z</time></trkpt><trkpt lat="42.583659744904054" lon="12.670688777111682"><ele>207.0</ele><time>2026-04-11T12:04:13.989Z</time></trkpt><trkpt lat="42.5837587577166" lon="12.670622235509114"><ele>207.66666666666666</ele><time>2026-04-11T12:04:14.989Z</time></trkpt><trkpt lat="42.58384740541794" lon="12.670565513328752"><ele>208.33333333333331</ele><time>2026-04-11T12:04:15.989Z</time></trkpt><trkpt lat="42.58393198619912" lon="12.670519676210668"><ele>209.0</ele><time>2026-04-11T12:04:16.99Z</time></trkpt><trkpt lat="42.58401555245449" lon="12.670502505435927"><ele>209.66666666666666</ele><time>2026-04-11T12:04:17.99Z</time></trkpt><trkpt lat="42.58408761562526" lon="12.670497756450356"><ele>210.33333333333331</ele><time>2026-04-11T12:04:18.989Z</time></trkpt><trkpt lat="42.58418201596269" lon="12.6704971431633"><ele>211.0</ele><time>2026-04-11T12:04:20.99Z</time></trkpt><trkpt lat="42.58419666050703" lon="12.67062774680822"><ele>210.99999999999997</ele><time>2026-04-11T12:04:22.99Z</time></trkpt><trkpt lat="42.58421246148534" lon="12.670728569885544"><ele>211.0</ele><time>2026-04-11T12:04:23.99Z</time></trkpt><trkpt lat="42.58424981543888" lon="12.670839980851648"><ele>211.0</ele><time>2026-04-11T12:04:24.99Z</time></trkpt><trkpt lat="42.5842677943386" lon="12.670963987425845"><ele>211.0</ele><time>2026-04-11T12:04:25.99Z</time></trkpt><trkpt lat="42.58429035120261" lon="12.671087740016361"><ele>210.99999999999997</ele><time>2026-04-11T12:04:26.99Z</time></trkpt><trkpt lat="42.58430561549075" lon="12.671206894260303"><ele>211.0</ele><time>2026-04-11T12:04:27.99Z</time></trkpt><trkpt lat="42.58431050620905" lon="12.671323788733067"><ele>210.71428571428572</ele><time>2026-04-11T12:04:28.99Z</time></trkpt><trkpt lat="42.5843139410139" lon="12.671435916776971"><ele>210.42857142857144</ele><time>2026-04-11T12:04:29.99Z</time></trkpt><trkpt lat="42.5843116006028" lon="12.671535604706902"><ele>210.14285714285714</ele><time>2026-04-11T12:04:30.99Z</time></trkpt><trkpt lat="42.58430867418234" lon="12.671632578870796"><ele>209.85714285714286</ele><time>2026-04-11T12:04:31.99Z</time></trkpt><trkpt lat="42.58431633553314" lon="12.671721925586155"><ele>209.57142857142856</ele><time>2026-04-11T12:04:32.99Z</time></trkpt><trkpt lat="42.58431945732684" lon="12.671820588773372"><ele>209.28571428571428</ele><time>2026-04-11T12:04:33.99Z</time></trkpt><trkpt lat="42.58430331110117" lon="12.671919662466843"><ele>209.0</ele><time>2026-04-11T12:04:34.99Z</time></trkpt><trkpt lat="42.58428837538575" lon="12.672011722591028"><ele>208.33333333333334</ele><time>2026-04-11T12:04:35.99Z</time></trkpt><trkpt lat="42.58426209406945" lon="12.67216244792068"><ele>207.66666666666669</ele><time>2026-04-11T12:04:37.99Z</time></trkpt><trkpt lat="42.58426840359941" lon="12.672301476300099"><ele>207.0</ele><time>2026-04-11T12:04:39.99Z</time></trkpt><trkpt lat="42.58430563245371" lon="12.672371268769433"><ele>206.33333333333331</ele><time>2026-04-11T12:04:40.99Z</time></trkpt><trkpt lat="42.58432075216691" lon="12.672456323852549"><ele>205.66666666666666</ele><time>2026-04-11T12:04:41.99Z</time></trkpt><trkpt lat="42.584339701213636" lon="12.6725446666909"><ele>205.0</ele><time>2026-04-11T12:04:42.99Z</time></trkpt><trkpt lat="42.584387349874596" lon="12.67269555099474"><ele>203.4</ele><time>2026-04-11T12:04:44.99Z</time></trkpt><trkpt lat="42.58444505866875" lon="12.672798904270552"><ele>201.8</ele><time>2026-04-11T12:04:46.99Z</time></trkpt><trkpt lat="42.584512725565716" lon="12.672881976891544"><ele>200.2</ele><time>2026-04-11T12:04:48.99Z</time></trkpt><trkpt lat="42.584584254941745" lon="12.672918506853497"><ele>198.6</ele><time>2026-04-11T12:04:50.99Z</time></trkpt><trkpt lat="42.58470116236101" lon="12.672907069733661"><ele>197.0</ele><time>2026-04-11T12:04:52.99Z</time></trkpt><trkpt lat="42.58481506998607" lon="12.672888377218774"><ele>195.0</ele><time>2026-04-11T12:04:54.99Z</time></trkpt><trkpt lat="42.58489643045962" lon="12.672877093781942"><ele>193.0</ele><time>2026-04-11T12:04:56.99Z</time></trkpt><trkpt lat="42.58498865717681" lon="12.672883867450343"><ele>191.0</ele><time>2026-04-11T12:04:58.99Z</time></trkpt><trkpt lat="42.58506452828384" lon="12.672910513379922"><ele>189.0</ele><time>2026-04-11T12:05:00.99Z</time></trkpt><trkpt lat="42.585160066043834" lon="12.672999883377345"><ele>187.0</ele><time>2026-04-11T12:05:02.99Z</time></trkpt><trkpt lat="42.585135827616824" lon="12.673118973640936"><ele>187.0</ele><time>2026-04-11T12:05:03.99Z</time></trkpt><trkpt lat="42.58509688562834" lon="12.673207612020416"><ele>187.0</ele><time>2026-04-11T12:05:04.99Z</time></trkpt><trkpt lat="42.58509734143126" lon="12.673365156903222"><ele>187.0</ele><time>2026-04-11T12:05:06.99Z</time></trkpt><trkpt lat="42.58511861325202" lon="12.673452895123878"><ele>187.0</ele><time>2026-04-11T12:05:07.99Z</time></trkpt><trkpt lat="42.58512309569685" lon="12.673544180506868"><ele>187.0</ele><time>2026-04-11T12:05:08.99Z</time></trkpt><trkpt lat="42.585117328974995" lon="12.67363892821926"><ele>187.0</ele><time>2026-04-11T12:05:09.99Z</time></trkpt><trkpt lat="42.58507201323385" lon="12.673728464273564"><ele>185.8</ele><time>2026-04-11T12:05:10.99Z</time></trkpt><trkpt lat="42.585048516160406" lon="12.673813484400188"><ele>184.6</ele><time>2026-04-11T12:05:11.99Z</time></trkpt><trkpt lat="42.584998931630565" lon="12.673917283892553"><ele>183.4</ele><time>2026-04-11T12:05:13.99Z</time></trkpt><trkpt lat="42.585004273663706" lon="12.674055711262367"><ele>182.20000000000002</ele><time>2026-04-11T12:05:15.99Z</time></trkpt><trkpt lat="42.58510207655214" lon="12.674180469955814"><ele>181.0</ele><time>2026-04-11T12:05:17.99Z</time></trkpt><trkpt lat="42.58516943881114" lon="12.674289507243921"><ele>181.0</ele><time>2026-04-11T12:05:19.99Z</time></trkpt><trkpt lat="42.58524731409748" lon="12.67433731884877"><ele>181.0</ele><time>2026-04-11T12:05:21.99Z</time></trkpt><trkpt lat="42.58530988861924" lon="12.67438006373251"><ele>181.0</ele><time>2026-04-11T12:05:23.99Z</time></trkpt><trkpt lat="42.585399060483994" lon="12.674428959854716"><ele>181.0</ele><time>2026-04-11T12:05:26.99Z</time></trkpt><trkpt lat="42.585433120639024" lon="12.674553044784522"><ele>181.0</ele><time>2026-04-11T12:05:29.99Z</time></trkpt><trkpt lat="42.585441117001224" lon="12.674690806282051"><ele>180.0</ele><time>2026-04-11T12:05:31.99Z</time></trkpt><trkpt lat="42.5854578178822" lon="12.674784104580985"><ele>179.0</ele><time>2026-04-11T12:05:33.99Z</time></trkpt><trkpt lat="42.58551680867986" lon="12.674818908934435"><ele>178.0</ele><time>2026-04-11T12:05:34.99Z</time></trkpt><trkpt lat="42.585567204456346" lon="12.674884884013434"><ele>177.0</ele><time>2026-04-11T12:05:35.99Z</time></trkpt><trkpt lat="42.58563626584627" lon="12.67491316274926"><ele>176.0</ele><time>2026-04-11T12:05:36.99Z</time></trkpt><trkpt lat="42.58573932497878" lon="12.674993840062863"><ele>175.0</ele><time>2026-04-11T12:05:38.99Z</time></trkpt><trkpt lat="42.58585093842446" lon="12.675043398122016"><ele>175.0</ele><time>2026-04-11T12:05:40.99Z</time></trkpt><trkpt lat="42.585918034708335" lon="12.675044900178696"><ele>175.0</ele><time>2026-04-11T12:05:41.99Z</time></trkpt><trkpt lat="42.585984763281886" lon="12.675058796949886"><ele>175.0</ele><time>2026-04-11T12:05:42.99Z</time></trkpt><trkpt lat="42.58605285963638" lon="12.675089086629407"><ele>175.0</ele><time>2026-04-11T12:05:43.99Z</time></trkpt><trkpt lat="42.5861153581966" lon="12.675134672158316"><ele>175.0</ele><time>2026-04-11T12:05:44.99Z</time></trkpt><trkpt lat="42.58617267334305" lon="12.67519254310815"><ele>175.0</ele><time>2026-04-11T12:05:45.99Z</time></trkpt><trkpt lat="42.586230468120576" lon="12.675248230381907"><ele>175.0</ele><time>2026-04-11T12:05:46.99Z</time></trkpt><trkpt lat="42.58629539833196" lon="12.675300074864241"><ele>172.66666666666669</ele><time>2026-04-11T12:05:48.99Z</time></trkpt><trkpt lat="42.586327621869664" lon="12.675384255942088"><ele>170.33333333333334</ele><time>2026-04-11T12:05:52.99Z</time></trkpt><trkpt lat="42.58637831998124" lon="12.675457103206929"><ele>168.0</ele><time>2026-04-11T12:05:55.99Z</time></trkpt><trkpt lat="42.58616910004861" lon="12.676246709868948"><ele>167.66666666666666</ele><time>2026-04-11T12:06:06.99Z</time></trkpt><trkpt lat="42.58605450665236" lon="12.676271333683875"><ele>167.33333333333334</ele><time>2026-04-11T12:06:08.99Z</time></trkpt><trkpt lat="42.58598607027812" lon="12.676291720268601"><ele>167.0</ele><time>2026-04-11T12:06:09.99Z</time></trkpt><trkpt lat="42.58591112098438" lon="12.676309555368528"><ele>166.66666666666669</ele><time>2026-04-11T12:06:10.99Z</time></trkpt><trkpt lat="42.58582648103537" lon="12.676322455233821"><ele>166.33333333333334</ele><time>2026-04-11T12:06:11.99Z</time></trkpt><trkpt lat="42.58573883961527" lon="12.676332811878762"><ele>166.0</ele><time>2026-04-11T12:06:12.987Z</time></trkpt><trkpt lat="42.58564910630252" lon="12.676340999785777"><ele>166.0</ele><time>2026-04-11T12:06:13.988Z</time></trkpt><trkpt lat="42.58555422994118" lon="12.676345507262365"><ele>166.0</ele><time>2026-04-11T12:06:14.988Z</time></trkpt><trkpt lat="42.58545637736767" lon="12.676352208855699"><ele>166.0</ele><time>2026-04-11T12:06:15.988Z</time></trkpt><trkpt lat="42.58537270686919" lon="12.67633217205645"><ele>166.0</ele><time>2026-04-11T12:06:16.987Z</time></trkpt><trkpt lat="42.58528894177724" lon="12.676337361430175"><ele>166.0</ele><time>2026-04-11T12:06:17.987Z</time></trkpt><trkpt lat="42.5851885707861" lon="12.67635712475343"><ele>165.5</ele><time>2026-04-11T12:06:18.987Z</time></trkpt><trkpt lat="42.58508379503435" lon="12.676389671053425"><ele>165.0</ele><time>2026-04-11T12:06:19.987Z</time></trkpt><trkpt lat="42.584962275130465" lon="12.676368844948145"><ele>164.5</ele><time>2026-04-11T12:06:20.987Z</time></trkpt><trkpt lat="42.58484296504485" lon="12.67639320080873"><ele>164.0</ele><time>2026-04-11T12:06:21.987Z</time></trkpt><trkpt lat="42.58472148904926" lon="12.676418819797334"><ele>164.0</ele><time>2026-04-11T12:06:22.987Z</time></trkpt><trkpt lat="42.58459578406678" lon="12.67644586307464"><ele>164.0</ele><time>2026-04-11T12:06:23.987Z</time></trkpt><trkpt lat="42.58447212435467" lon="12.676472929795576"><ele>164.0</ele><time>2026-04-11T12:06:24.988Z</time></trkpt><trkpt lat="42.58434350954213" lon="12.676500412217267"><ele>164.0</ele><time>2026-04-11T12:06:25.987Z</time></trkpt><trkpt lat="42.58421850885951" lon="12.676526635497966"><ele>164.0</ele><time>2026-04-11T12:06:26.987Z</time></trkpt><trkpt lat="42.584097706630146" lon="12.676550609184686"><ele>164.0</ele><time>2026-04-11T12:06:27.987Z</time></trkpt><trkpt lat="42.583982981983795" lon="12.676573376655666"><ele>164.0</ele><time>2026-04-11T12:06:28.987Z</time></trkpt><trkpt lat="42.583865768807726" lon="12.67659930663438"><ele>164.0</ele><time>2026-04-11T12:06:29.987Z</time></trkpt><trkpt lat="42.583751791191524" lon="12.676627778797151"><ele>164.2</ele><time>2026-04-11T12:06:30.987Z</time></trkpt><trkpt lat="42.58364709938721" lon="12.676654810920242"><ele>164.39999999999998</ele><time>2026-04-11T12:06:31.987Z</time></trkpt><trkpt lat="42.583548724214076" lon="12.676678900107845"><ele>164.6</ele><time>2026-04-11T12:06:32.987Z</time></trkpt><trkpt lat="42.5834499761509" lon="12.67670061451126"><ele>164.8</ele><time>2026-04-11T12:06:33.987Z</time></trkpt><trkpt lat="42.58335521726651" lon="12.67671984572796"><ele>165.0</ele><time>2026-04-11T12:06:34.987Z</time></trkpt><trkpt lat="42.58326451579629" lon="12.676736354112897"><ele>165.0</ele><time>2026-04-11T12:06:35.987Z</time></trkpt><trkpt lat="42.58317474480066" lon="12.676752843580006"><ele>165.0</ele><time>2026-04-11T12:06:36.987Z</time></trkpt><trkpt lat="42.583091017048915" lon="12.676766907153654"><ele>165.0</ele><time>2026-04-11T12:06:37.987Z</time></trkpt><trkpt lat="42.583023293599176" lon="12.67679053508742"><ele>165.0</ele><time>2026-04-11T12:06:38.987Z</time></trkpt><trkpt lat="42.58291018837065" lon="12.676765929449715"><ele>165.0</ele><time>2026-04-11T12:06:40.987Z</time></trkpt><trkpt lat="42.58283727960796" lon="12.676769409666182"><ele>165.0</ele><time>2026-04-11T12:06:43.987Z</time></trkpt><trkpt lat="42.58278743922617" lon="12.676999415278557"><ele>164.5</ele><time>2026-04-11T12:06:44.987Z</time></trkpt><trkpt lat="42.58275471702246" lon="12.677113797320455"><ele>164.0</ele><time>2026-04-11T12:06:45.987Z</time></trkpt><trkpt lat="42.58272490649859" lon="12.677213957840648"><ele>163.5</ele><time>2026-04-11T12:06:46.987Z</time></trkpt><trkpt lat="42.58269707130039" lon="12.677326097949296"><ele>163.0</ele><time>2026-04-11T12:06:47.987Z</time></trkpt><trkpt lat="42.58265943476091" lon="12.677431111584912"><ele>162.5</ele><time>2026-04-11T12:06:48.987Z</time></trkpt><trkpt lat="42.58262270031461" lon="12.677542553503281"><ele>162.0</ele><time>2026-04-11T12:06:49.987Z</time></trkpt><trkpt lat="42.582562756785464" lon="12.677639219042875"><ele>162.0</ele><time>2026-04-11T12:06:50.987Z</time></trkpt><trkpt lat="42.58250764253092" lon="12.677735413498041"><ele>162.0</ele><time>2026-04-11T12:06:51.987Z</time></trkpt><trkpt lat="42.58245210830211" lon="12.677831745565827"><ele>162.0</ele><time>2026-04-11T12:06:52.987Z</time></trkpt><trkpt lat="42.58238447630773" lon="12.677909710871052"><ele>162.0</ele><time>2026-04-11T12:06:53.987Z</time></trkpt><trkpt lat="42.58231842133723" lon="12.677972382641572"><ele>162.0</ele><time>2026-04-11T12:06:54.987Z</time></trkpt><trkpt lat="42.58225748862054" lon="12.678028933977803"><ele>162.0</ele><time>2026-04-11T12:06:55.987Z</time></trkpt><trkpt lat="42.58220685395266" lon="12.678091561269717"><ele>163.39999999999998</ele><time>2026-04-11T12:06:56.987Z</time></trkpt><trkpt lat="42.58217321515747" lon="12.67818241235294"><ele>164.79999999999998</ele><time>2026-04-11T12:06:58.987Z</time></trkpt><trkpt lat="42.58226564638818" lon="12.678296802608706"><ele>166.2</ele><time>2026-04-11T12:07:01.987Z</time></trkpt><trkpt lat="42.58234655512547" lon="12.678298874889258"><ele>167.6</ele><time>2026-04-11T12:07:02.987Z</time></trkpt><trkpt lat="42.58243146961651" lon="12.678317756653326"><ele>169.0</ele><time>2026-04-11T12:07:03.987Z</time></trkpt><trkpt lat="42.58251652692294" lon="12.67834003109825"><ele>169.0</ele><time>2026-04-11T12:07:04.987Z</time></trkpt><trkpt lat="42.58259142265614" lon="12.678362218638954"><ele>169.0</ele><time>2026-04-11T12:07:05.987Z</time></trkpt><trkpt lat="42.58267193826046" lon="12.678377210323479"><ele>169.0</ele><time>2026-04-11T12:07:06.987Z</time></trkpt><trkpt lat="42.58276220629532" lon="12.678401533450023"><ele>169.0</ele><time>2026-04-11T12:07:07.987Z</time></trkpt><trkpt lat="42.58285441340563" lon="12.678426262838515"><ele>169.0</ele><time>2026-04-11T12:07:08.987Z</time></trkpt><trkpt lat="42.58293145403438" lon="12.678445814353337"><ele>169.0</ele><time>2026-04-11T12:07:09.987Z</time></trkpt><trkpt lat="42.582997097693614" lon="12.678458915494769"><ele>169.6</ele><time>2026-04-11T12:07:10.987Z</time></trkpt><trkpt lat="42.583066648169144" lon="12.678518811664873"><ele>170.2</ele><time>2026-04-11T12:07:12.987Z</time></trkpt><trkpt lat="42.58303016617231" lon="12.678747510379566"><ele>170.79999999999998</ele><time>2026-04-11T12:07:14.987Z</time></trkpt><trkpt lat="42.58301728303823" lon="12.678872701253363"><ele>171.39999999999998</ele><time>2026-04-11T12:07:15.987Z</time></trkpt><trkpt lat="42.58301416607535" lon="12.679006790106742"><ele>172.0</ele><time>2026-04-11T12:07:16.987Z</time></trkpt><trkpt lat="42.58302121811921" lon="12.679142648677473"><ele>173.0</ele><time>2026-04-11T12:07:17.987Z</time></trkpt><trkpt lat="42.58302298544163" lon="12.679296726942498"><ele>174.0</ele><time>2026-04-11T12:07:18.987Z</time></trkpt><trkpt lat="42.58300830495852" lon="12.67944432411489"><ele>175.0</ele><time>2026-04-11T12:07:19.987Z</time></trkpt><trkpt lat="42.58296846417928" lon="12.679585397026"><ele>176.0</ele><time>2026-04-11T12:07:20.987Z</time></trkpt><trkpt lat="42.58290916618402" lon="12.679718784071163"><ele>177.0</ele><time>2026-04-11T12:07:21.987Z</time></trkpt><trkpt lat="42.58283498590692" lon="12.679852422899954"><ele>177.5</ele><time>2026-04-11T12:07:22.987Z</time></trkpt><trkpt lat="42.58275437860898" lon="12.679982611561398"><ele>178.0</ele><time>2026-04-11T12:07:23.987Z</time></trkpt><trkpt lat="42.58267157747515" lon="12.680109380465948"><ele>178.5</ele><time>2026-04-11T12:07:24.987Z</time></trkpt><trkpt lat="42.58259213077719" lon="12.68022771653264"><ele>179.0</ele><time>2026-04-11T12:07:25.987Z</time></trkpt><trkpt lat="42.58251260185315" lon="12.680344549337706"><ele>179.2</ele><time>2026-04-11T12:07:26.987Z</time></trkpt><trkpt lat="42.58244044284973" lon="12.680454275146433"><ele>179.39999999999998</ele><time>2026-04-11T12:07:27.987Z</time></trkpt><trkpt lat="42.582368277815696" lon="12.680551346549082"><ele>179.6</ele><time>2026-04-11T12:07:28.987Z</time></trkpt><trkpt lat="42.58230381536372" lon="12.680654747339508"><ele>179.8</ele><time>2026-04-11T12:07:29.987Z</time></trkpt><trkpt lat="42.582248245261695" lon="12.680759454386116"><ele>180.0</ele><time>2026-04-11T12:07:30.987Z</time></trkpt><trkpt lat="42.58218766136015" lon="12.680858688089597"><ele>180.0</ele><time>2026-04-11T12:07:31.987Z</time></trkpt><trkpt lat="42.58212300597179" lon="12.680955888643146"><ele>180.0</ele><time>2026-04-11T12:07:32.987Z</time></trkpt><trkpt lat="42.582057107239194" lon="12.681046148139357"><ele>180.0</ele><time>2026-04-11T12:07:33.987Z</time></trkpt><trkpt lat="42.58200264219966" lon="12.681132419239772"><ele>180.0</ele><time>2026-04-11T12:07:34.987Z</time></trkpt><trkpt lat="42.58196546022135" lon="12.681226966406369"><ele>180.0</ele><time>2026-04-11T12:07:35.987Z</time></trkpt><trkpt lat="42.58194939829526" lon="12.68133490397128"><ele>180.0</ele><time>2026-04-11T12:07:36.987Z</time></trkpt><trkpt lat="42.58194026272924" lon="12.681456919339759"><ele>180.0</ele><time>2026-04-11T12:07:37.987Z</time></trkpt><trkpt lat="42.58196801758067" lon="12.681585098637592"><ele>180.0</ele><time>2026-04-11T12:07:38.987Z</time></trkpt><trkpt lat="42.582028698353255" lon="12.68170922033531"><ele>180.0</ele><time>2026-04-11T12:07:39.987Z</time></trkpt><trkpt lat="42.58212653813064" lon="12.681781413823945"><ele>180.0</ele><time>2026-04-11T12:07:40.987Z</time></trkpt><trkpt lat="42.58220494895834" lon="12.681891007923719"><ele>180.0</ele><time>2026-04-11T12:07:41.987Z</time></trkpt><trkpt lat="42.58227152735628" lon="12.68198874888765"><ele>181.66666666666666</ele><time>2026-04-11T12:07:42.987Z</time></trkpt><trkpt lat="42.582316533438245" lon="12.682080403725767"><ele>183.33333333333334</ele><time>2026-04-11T12:07:43.987Z</time></trkpt><trkpt lat="42.582310548186506" lon="12.682195741856221"><ele>185.0</ele><time>2026-04-11T12:07:44.987Z</time></trkpt><trkpt lat="42.58231363586241" lon="12.682347601194957"><ele>186.66666666666669</ele><time>2026-04-11T12:07:46.987Z</time></trkpt><trkpt lat="42.58229569527663" lon="12.682439329323904"><ele>188.33333333333334</ele><time>2026-04-11T12:07:47.987Z</time></trkpt><trkpt lat="42.58228168936369" lon="12.682566111179268"><ele>190.0</ele><time>2026-04-11T12:07:48.987Z</time></trkpt><trkpt lat="42.58228350636194" lon="12.682695533452954"><ele>191.2</ele><time>2026-04-11T12:07:49.987Z</time></trkpt><trkpt lat="42.582309528301664" lon="12.682827899835923"><ele>192.4</ele><time>2026-04-11T12:07:50.987Z</time></trkpt><trkpt lat="42.58233380285319" lon="12.682957299545595"><ele>193.60000000000002</ele><time>2026-04-11T12:07:51.987Z</time></trkpt><trkpt lat="42.582361879182045" lon="12.683088671279796"><ele>194.8</ele><time>2026-04-11T12:07:52.987Z</time></trkpt><trkpt lat="42.582370631949956" lon="12.683214395836268"><ele>196.0</ele><time>2026-04-11T12:07:53.987Z</time></trkpt><trkpt lat="42.5823954061168" lon="12.683320686684702"><ele>196.0</ele><time>2026-04-11T12:07:54.987Z</time></trkpt><trkpt lat="42.58242807929868" lon="12.683402510666333"><ele>196.0</ele><time>2026-04-11T12:07:55.987Z</time></trkpt><trkpt lat="42.582489099295806" lon="12.683542311594048"><ele>196.0</ele><time>2026-04-11T12:07:57.987Z</time></trkpt><trkpt lat="42.58245743109055" lon="12.68372384189639"><ele>196.0</ele><time>2026-04-11T12:07:59.987Z</time></trkpt><trkpt lat="42.58243764367135" lon="12.683815653768225"><ele>196.0</ele><time>2026-04-11T12:08:00.987Z</time></trkpt><trkpt lat="42.5824223722376" lon="12.683902791220843"><ele>198.60000000000002</ele><time>2026-04-11T12:08:01.987Z</time></trkpt><trkpt lat="42.58244253686739" lon="12.68407612860111"><ele>201.2</ele><time>2026-04-11T12:08:03.987Z</time></trkpt><trkpt lat="42.582472879879354" lon="12.684186812888871"><ele>203.8</ele><time>2026-04-11T12:08:04.987Z</time></trkpt><trkpt lat="42.582508648656166" lon="12.684315875967405"><ele>206.39999999999998</ele><time>2026-04-11T12:08:05.987Z</time></trkpt><trkpt lat="42.582540955811496" lon="12.684441664379843"><ele>209.0</ele><time>2026-04-11T12:08:06.987Z</time></trkpt><trkpt lat="42.58258067893363" lon="12.684543808584301"><ele>210.83333333333334</ele><time>2026-04-11T12:08:07.987Z</time></trkpt><trkpt lat="42.58262632161197" lon="12.684647365780913"><ele>212.66666666666669</ele><time>2026-04-11T12:08:08.987Z</time></trkpt><trkpt lat="42.58269593256992" lon="12.6847222983371"><ele>214.5</ele><time>2026-04-11T12:08:09.987Z</time></trkpt><trkpt lat="42.582782340996054" lon="12.684746612589452"><ele>216.33333333333331</ele><time>2026-04-11T12:08:10.987Z</time></trkpt><trkpt lat="42.58286601702788" lon="12.684777967646452"><ele>218.16666666666666</ele><time>2026-04-11T12:08:11.987Z</time></trkpt><trkpt lat="42.582954714303746" lon="12.684807826234742"><ele>220.0</ele><time>2026-04-11T12:08:12.987Z</time></trkpt><trkpt lat="42.58303941207624" lon="12.68484088712506"><ele>221.83333333333331</ele><time>2026-04-11T12:08:13.987Z</time></trkpt><trkpt lat="42.58311106736371" lon="12.684878706928936"><ele>223.66666666666666</ele><time>2026-04-11T12:08:14.987Z</time></trkpt><trkpt lat="42.58315954073508" lon="12.684936248372624"><ele>225.5</ele><time>2026-04-11T12:08:15.987Z</time></trkpt><trkpt lat="42.58320887370064" lon="12.685012410399935"><ele>227.33333333333331</ele><time>2026-04-11T12:08:16.987Z</time></trkpt><trkpt lat="42.58325146321361" lon="12.685110047381132"><ele>229.16666666666666</ele><time>2026-04-11T12:08:17.987Z</time></trkpt><trkpt lat="42.58330456319486" lon="12.685226042011053"><ele>231.0</ele><time>2026-04-11T12:08:18.985Z</time></trkpt><trkpt lat="42.58336403070385" lon="12.685320089566053"><ele>233.5</ele><time>2026-04-11T12:08:19.985Z</time></trkpt><trkpt lat="42.5834125879358" lon="12.685401027072054"><ele>236.0</ele><time>2026-04-11T12:08:20.985Z</time></trkpt><trkpt lat="42.5834668264644" lon="12.685482567608853"><ele>238.5</ele><time>2026-04-11T12:08:21.985Z</time></trkpt><trkpt lat="42.583533232343115" lon="12.685550169419068"><ele>241.0</ele><time>2026-04-11T12:08:22.985Z</time></trkpt><trkpt lat="42.583599103324815" lon="12.685611558724021"><ele>243.5</ele><time>2026-04-11T12:08:23.985Z</time></trkpt><trkpt lat="42.583634275428416" lon="12.68570853071521"><ele>246.0</ele><time>2026-04-11T12:08:24.985Z</time></trkpt><trkpt lat="42.58369053787669" lon="12.685794514477385"><ele>248.20000000000002</ele><time>2026-04-11T12:08:25.985Z</time></trkpt><trkpt lat="42.583724105800556" lon="12.685889041943065"><ele>250.40000000000003</ele><time>2026-04-11T12:08:26.985Z</time></trkpt><trkpt lat="42.58373159084695" lon="12.685998596202145"><ele>252.6</ele><time>2026-04-11T12:08:28.985Z</time></trkpt><trkpt lat="42.58378326013319" lon="12.686114753815952"><ele>254.8</ele><time>2026-04-11T12:08:31.985Z</time></trkpt><trkpt lat="42.58387788890374" lon="12.68620266531581"><ele>257.0</ele><time>2026-04-11T12:08:33.985Z</time></trkpt><trkpt lat="42.58399886728341" lon="12.686284074022623"><ele>257.2</ele><time>2026-04-11T12:08:35.985Z</time></trkpt><trkpt lat="42.584050771580635" lon="12.686336879453751"><ele>257.4</ele><time>2026-04-11T12:08:36.985Z</time></trkpt><trkpt lat="42.58418197878329" lon="12.686335423412496"><ele>257.6</ele><time>2026-04-11T12:08:38.985Z</time></trkpt><trkpt lat="42.584257326881136" lon="12.68632049425849"><ele>257.8</ele><time>2026-04-11T12:08:39.985Z</time></trkpt><trkpt lat="42.58432782799137" lon="12.686302753985256"><ele>258.0</ele><time>2026-04-11T12:08:40.985Z</time></trkpt><trkpt lat="42.584457215554856" lon="12.686298445301528"><ele>260.2</ele><time>2026-04-11T12:08:42.985Z</time></trkpt><trkpt lat="42.584532020851704" lon="12.686338803483778"><ele>262.4</ele><time>2026-04-11T12:08:43.985Z</time></trkpt><trkpt lat="42.58459950121998" lon="12.686389405880206"><ele>264.59999999999997</ele><time>2026-04-11T12:08:44.985Z</time></trkpt><trkpt lat="42.58468179102634" lon="12.686469094606258"><ele>266.8</ele><time>2026-04-11T12:08:45.985Z</time></trkpt><trkpt lat="42.584767180782656" lon="12.68655056955582"><ele>269.0</ele><time>2026-04-11T12:08:46.985Z</time></trkpt><trkpt lat="42.584850656164676" lon="12.686639435888987"><ele>269.0</ele><time>2026-04-11T12:08:47.985Z</time></trkpt><trkpt lat="42.58492922475986" lon="12.686731989818604"><ele>269.0</ele><time>2026-04-11T12:08:48.985Z</time></trkpt><trkpt lat="42.58500346907648" lon="12.686833226357138"><ele>269.0</ele><time>2026-04-11T12:08:49.985Z</time></trkpt><trkpt lat="42.58507265203494" lon="12.686945534755008"><ele>269.0</ele><time>2026-04-11T12:08:50.985Z</time></trkpt><trkpt lat="42.585129216106985" lon="12.687065216730979"><ele>269.0</ele><time>2026-04-11T12:08:51.985Z</time></trkpt><trkpt lat="42.5851825712023" lon="12.687191892731395"><ele>268.4</ele><time>2026-04-11T12:08:52.985Z</time></trkpt><trkpt lat="42.585226147016805" lon="12.687322148745311"><ele>267.79999999999995</ele><time>2026-04-11T12:08:53.985Z</time></trkpt><trkpt lat="42.58526720719372" lon="12.68746152650897"><ele>267.20000000000005</ele><time>2026-04-11T12:08:54.985Z</time></trkpt><trkpt lat="42.58531189167259" lon="12.68759508333061"><ele>266.6</ele><time>2026-04-11T12:08:55.985Z</time></trkpt><trkpt lat="42.5853713097714" lon="12.687721546681159"><ele>266.0</ele><time>2026-04-11T12:08:56.985Z</time></trkpt><trkpt lat="42.585442854243915" lon="12.687833049246207"><ele>269.6</ele><time>2026-04-11T12:08:57.985Z</time></trkpt><trkpt lat="42.585519759598704" lon="12.68793532764499"><ele>273.20000000000005</ele><time>2026-04-11T12:08:58.985Z</time></trkpt><trkpt lat="42.58559369252552" lon="12.688031989463925"><ele>276.79999999999995</ele><time>2026-04-11T12:08:59.985Z</time></trkpt><trkpt lat="42.5856653004744" lon="12.68813611486862"><ele>280.4</ele><time>2026-04-11T12:09:00.985Z</time></trkpt><trkpt lat="42.58573562766858" lon="12.688235962918846"><ele>284.0</ele><time>2026-04-11T12:09:01.985Z</time></trkpt><trkpt lat="42.585808925671486" lon="12.688340842659587"><ele>284.0</ele><time>2026-04-11T12:09:02.985Z</time></trkpt><trkpt lat="42.58588031236276" lon="12.68844958002758"><ele>284.0</ele><time>2026-04-11T12:09:03.985Z</time></trkpt><trkpt lat="42.58595850288223" lon="12.688550806251524"><ele>284.0</ele><time>2026-04-11T12:09:04.985Z</time></trkpt><trkpt lat="42.586052168645935" lon="12.68862355047888"><ele>284.0</ele><time>2026-04-11T12:09:05.985Z</time></trkpt><trkpt lat="42.58615071054053" lon="12.688685739057219"><ele>284.0</ele><time>2026-04-11T12:09:06.985Z</time></trkpt><trkpt lat="42.586254565768535" lon="12.688736932607911"><ele>286.59999999999997</ele><time>2026-04-11T12:09:07.985Z</time></trkpt><trkpt lat="42.586362464483436" lon="12.688774182382653"><ele>289.2</ele><time>2026-04-11T12:09:08.985Z</time></trkpt><trkpt lat="42.58646859456107" lon="12.688820520883583"><ele>291.79999999999995</ele><time>2026-04-11T12:09:09.985Z</time></trkpt><trkpt lat="42.58658009272578" lon="12.68887348723489"><ele>294.4</ele><time>2026-04-11T12:09:10.985Z</time></trkpt><trkpt lat="42.586681601037185" lon="12.688917657434294"><ele>297.0</ele><time>2026-04-11T12:09:11.985Z</time></trkpt><trkpt lat="42.58675682586361" lon="12.688982141843905"><ele>297.0</ele><time>2026-04-11T12:09:12.985Z</time></trkpt><trkpt lat="42.58683047781699" lon="12.689039652725963"><ele>297.0</ele><time>2026-04-11T12:09:13.985Z</time></trkpt><trkpt lat="42.58690188564197" lon="12.689100367511276"><ele>297.0</ele><time>2026-04-11T12:09:14.985Z</time></trkpt><trkpt lat="42.58696761195861" lon="12.689177314990156"><ele>297.0</ele><time>2026-04-11T12:09:15.985Z</time></trkpt><trkpt lat="42.58704985093275" lon="12.689275798814062"><ele>297.0</ele><time>2026-04-11T12:09:16.985Z</time></trkpt><trkpt lat="42.58712188659203" lon="12.689348050873825"><ele>297.8</ele><time>2026-04-11T12:09:17.985Z</time></trkpt><trkpt lat="42.58719719833707" lon="12.689413230625917"><ele>298.6</ele><time>2026-04-11T12:09:18.985Z</time></trkpt><trkpt lat="42.587280561933774" lon="12.689496201200834"><ele>299.40000000000003</ele><time>2026-04-11T12:09:19.985Z</time></trkpt><trkpt lat="42.58740596321883" lon="12.68955304410707"><ele>300.2</ele><time>2026-04-11T12:09:20.985Z</time></trkpt><trkpt lat="42.58751189429783" lon="12.689605497639464"><ele>301.0</ele><time>2026-04-11T12:09:21.985Z</time></trkpt><trkpt lat="42.587609366821404" lon="12.689653720665762"><ele>301.0</ele><time>2026-04-11T12:09:22.985Z</time></trkpt><trkpt lat="42.58769708696099" lon="12.68969369609172"><ele>301.0</ele><time>2026-04-11T12:09:23.985Z</time></trkpt><trkpt lat="42.58777068676338" lon="12.689733414968048"><ele>301.0</ele><time>2026-04-11T12:09:24.985Z</time></trkpt><trkpt lat="42.587884581485746" lon="12.68980547931595"><ele>301.0</ele><time>2026-04-11T12:09:26.985Z</time></trkpt><trkpt lat="42.58794255166219" lon="12.689956942803276"><ele>301.0</ele><time>2026-04-11T12:09:28.985Z</time></trkpt><trkpt lat="42.587895568569685" lon="12.690034368267268"><ele>301.0</ele><time>2026-04-11T12:09:29.985Z</time></trkpt><trkpt lat="42.58782564193867" lon="12.690099186509643"><ele>301.0</ele><time>2026-04-11T12:09:30.985Z</time></trkpt><trkpt lat="42.58775381922218" lon="12.690169674113003"><ele>301.0</ele><time>2026-04-11T12:09:31.985Z</time></trkpt><trkpt lat="42.587717933746035" lon="12.690259840224618"><ele>301.0</ele><time>2026-04-11T12:09:32.985Z</time></trkpt><trkpt lat="42.58771410914271" lon="12.690345918592707"><ele>301.0</ele><time>2026-04-11T12:09:33.985Z</time></trkpt><trkpt lat="42.58776511701126" lon="12.690463473648348"><ele>301.0</ele><time>2026-04-11T12:09:35.985Z</time></trkpt><trkpt lat="42.58788303247613" lon="12.690578153003152"><ele>305.6</ele><time>2026-04-11T12:09:37.985Z</time></trkpt><trkpt lat="42.58796170989348" lon="12.690634220851353"><ele>310.20000000000005</ele><time>2026-04-11T12:09:38.985Z</time></trkpt><trkpt lat="42.58803476147869" lon="12.69071249012852"><ele>314.79999999999995</ele><time>2026-04-11T12:09:39.985Z</time></trkpt><trkpt lat="42.588118896364335" lon="12.690768598641695"><ele>319.4</ele><time>2026-04-11T12:09:40.985Z</time></trkpt><trkpt lat="42.588206344985956" lon="12.69082495314803"><ele>324.0</ele><time>2026-04-11T12:09:41.985Z</time></trkpt><trkpt lat="42.58827804850272" lon="12.690893178989189"><ele>324.0</ele><time>2026-04-11T12:09:42.985Z</time></trkpt><trkpt lat="42.588349354993596" lon="12.690978915700112"><ele>324.0</ele><time>2026-04-11T12:09:43.985Z</time></trkpt><trkpt lat="42.5884132360685" lon="12.691063064417575"><ele>324.0</ele><time>2026-04-11T12:09:44.985Z</time></trkpt><trkpt lat="42.588471681172074" lon="12.691150480405708"><ele>324.0</ele><time>2026-04-11T12:09:45.985Z</time></trkpt><trkpt lat="42.58854288262689" lon="12.691243639756923"><ele>324.0</ele><time>2026-04-11T12:09:46.985Z</time></trkpt><trkpt lat="42.58861814359335" lon="12.691335249858657"><ele>325.6</ele><time>2026-04-11T12:09:47.985Z</time></trkpt><trkpt lat="42.58869595950103" lon="12.691420362853721"><ele>327.2</ele><time>2026-04-11T12:09:48.985Z</time></trkpt><trkpt lat="42.58877378368568" lon="12.69149141608167"><ele>328.8</ele><time>2026-04-11T12:09:49.985Z</time></trkpt><trkpt lat="42.588853403060185" lon="12.69156093760855"><ele>330.40000000000003</ele><time>2026-04-11T12:09:50.985Z</time></trkpt><trkpt lat="42.58893518678726" lon="12.691622794671137"><ele>332.0</ele><time>2026-04-11T12:09:51.985Z</time></trkpt><trkpt lat="42.58900995252093" lon="12.691693619482018"><ele>332.0</ele><time>2026-04-11T12:09:52.985Z</time></trkpt><trkpt lat="42.589093802694414" lon="12.691749057502351"><ele>332.0</ele><time>2026-04-11T12:09:53.985Z</time></trkpt><trkpt lat="42.58918799263941" lon="12.69180046296786"><ele>332.0</ele><time>2026-04-11T12:09:54.985Z</time></trkpt><trkpt lat="42.58927903529502" lon="12.691843244856896"><ele>332.0</ele><time>2026-04-11T12:09:55.985Z</time></trkpt><trkpt lat="42.58937318265864" lon="12.691888356098541"><ele>332.0</ele><time>2026-04-11T12:09:56.985Z</time></trkpt><trkpt lat="42.5894644212262" lon="12.691935463427507"><ele>333.6</ele><time>2026-04-11T12:09:57.985Z</time></trkpt><trkpt lat="42.5895537141275" lon="12.691991552077567"><ele>335.20000000000005</ele><time>2026-04-11T12:09:58.985Z</time></trkpt><trkpt lat="42.58963661695418" lon="12.692043259590276"><ele>336.8</ele><time>2026-04-11T12:09:59.985Z</time></trkpt><trkpt lat="42.58972455770919" lon="12.692093559080055"><ele>338.4</ele><time>2026-04-11T12:10:00.985Z</time></trkpt><trkpt lat="42.58980390918807" lon="12.69215118169232"><ele>340.0</ele><time>2026-04-11T12:10:01.985Z</time></trkpt><trkpt lat="42.589867319816506" lon="12.692227212876276"><ele>340.0</ele><time>2026-04-11T12:10:02.985Z</time></trkpt><trkpt lat="42.58992064782609" lon="12.69232030986321"><ele>340.0</ele><time>2026-04-11T12:10:03.985Z</time></trkpt><trkpt lat="42.58997395795499" lon="12.69241552452707"><ele>340.0</ele><time>2026-04-11T12:10:04.985Z</time></trkpt><trkpt lat="42.59003107906426" lon="12.692491845945339"><ele>340.0</ele><time>2026-04-11T12:10:05.985Z</time></trkpt><trkpt lat="42.59009674108867" lon="12.692560620760096"><ele>340.0</ele><time>2026-04-11T12:10:06.985Z</time></trkpt><trkpt lat="42.590166633524944" lon="12.692617015413383"><ele>340.0</ele><time>2026-04-11T12:10:07.985Z</time></trkpt><trkpt lat="42.59023923303539" lon="12.692656758052564"><ele>340.0</ele><time>2026-04-11T12:10:08.985Z</time></trkpt><trkpt lat="42.59030722807673" lon="12.692684719248756"><ele>340.0</ele><time>2026-04-11T12:10:09.985Z</time></trkpt><trkpt lat="42.590386068307886" lon="12.69270346300403"><ele>340.0</ele><time>2026-04-11T12:10:10.985Z</time></trkpt><trkpt lat="42.590461450809464" lon="12.692716291044299"><ele>340.0</ele><time>2026-04-11T12:10:11.985Z</time></trkpt><trkpt lat="42.59053335269307" lon="12.692715334339551"><ele>340.0</ele><time>2026-04-11T12:10:12.985Z</time></trkpt><trkpt lat="42.590641627283034" lon="12.692697248436039"><ele>340.0</ele><time>2026-04-11T12:10:14.985Z</time></trkpt><trkpt lat="42.59069500358535" lon="12.692647371381641"><ele>343.16666666666663</ele><time>2026-04-11T12:10:15.985Z</time></trkpt><trkpt lat="42.59077052883829" lon="12.69259676645366"><ele>346.3333333333333</ele><time>2026-04-11T12:10:16.985Z</time></trkpt><trkpt lat="42.59084071328022" lon="12.692566118506752"><ele>349.5</ele><time>2026-04-11T12:10:17.985Z</time></trkpt><trkpt lat="42.59091597211901" lon="12.692548515950508"><ele>352.6666666666667</ele><time>2026-04-11T12:10:18.985Z</time></trkpt><trkpt lat="42.590993221768834" lon="12.692519715982403"><ele>355.83333333333337</ele><time>2026-04-11T12:10:19.985Z</time></trkpt><trkpt lat="42.59105615163713" lon="12.692490413347917"><ele>359.0</ele><time>2026-04-11T12:10:20.985Z</time></trkpt><trkpt lat="42.59113093934672" lon="12.69245684150715"><ele>359.0</ele><time>2026-04-11T12:10:21.985Z</time></trkpt><trkpt lat="42.59119337754891" lon="12.692418681378962"><ele>359.0</ele><time>2026-04-11T12:10:22.985Z</time></trkpt><trkpt lat="42.591250522261035" lon="12.692358682881025"><ele>359.0</ele><time>2026-04-11T12:10:24.983Z</time></trkpt><trkpt lat="42.59126458849702" lon="12.692271026098553"><ele>359.0</ele><time>2026-04-11T12:10:27.983Z</time></trkpt><trkpt lat="42.591253897980586" lon="12.692135772213206"><ele>359.0</ele><time>2026-04-11T12:10:29.983Z</time></trkpt><trkpt lat="42.59108036824132" lon="12.692104058300194"><ele>359.0</ele><time>2026-04-11T12:10:31.983Z</time></trkpt><trkpt lat="42.59101446983795" lon="12.692107751090258"><ele>359.0</ele><time>2026-04-11T12:10:32.983Z</time></trkpt><trkpt lat="42.59092898502077" lon="12.692068473078285"><ele>359.0</ele><time>2026-04-11T12:10:33.983Z</time></trkpt><trkpt lat="42.59085805188183" lon="12.692008991720687"><ele>359.0</ele><time>2026-04-11T12:10:34.983Z</time></trkpt><trkpt lat="42.59076554439141" lon="12.691913591084939"><ele>359.0</ele><time>2026-04-11T12:10:36.983Z</time></trkpt><trkpt lat="42.59070712322997" lon="12.69185334520291"><ele>359.0</ele><time>2026-04-11T12:10:37.983Z</time></trkpt><trkpt lat="42.590649484783434" lon="12.69179390648403"><ele>363.33333333333337</ele><time>2026-04-11T12:10:38.983Z</time></trkpt><trkpt lat="42.5905936103293" lon="12.691736286853319"><ele>367.6666666666667</ele><time>2026-04-11T12:10:39.983Z</time></trkpt><trkpt lat="42.59073562777542" lon="12.691320117847411"><ele>372.0</ele><time>2026-04-11T12:10:40.983Z</time></trkpt><trkpt lat="42.59067995600951" lon="12.691237435949112"><ele>372.0</ele><time>2026-04-11T12:10:41.983Z</time></trkpt><trkpt lat="42.59063006718323" lon="12.69116370391426"><ele>372.0</ele><time>2026-04-11T12:10:42.983Z</time></trkpt><trkpt lat="42.59058368818769" lon="12.691099564990157"><ele>372.0</ele><time>2026-04-11T12:10:43.983Z</time></trkpt><trkpt lat="42.59052346373333" lon="12.691045182570935"><ele>372.0</ele><time>2026-04-11T12:10:44.983Z</time></trkpt><trkpt lat="42.59042649440012" lon="12.690943542792464"><ele>372.0</ele><time>2026-04-11T12:10:46.983Z</time></trkpt><trkpt lat="42.59034076918956" lon="12.690807383031775"><ele>372.6</ele><time>2026-04-11T12:10:48.983Z</time></trkpt><trkpt lat="42.59031183228909" lon="12.690706653812143"><ele>373.20000000000005</ele><time>2026-04-11T12:10:49.983Z</time></trkpt><trkpt lat="42.590291786238666" lon="12.690556142238428"><ele>373.8</ele><time>2026-04-11T12:10:51.983Z</time></trkpt><trkpt lat="42.590350104859304" lon="12.69043351721083"><ele>374.4</ele><time>2026-04-11T12:10:53.983Z</time></trkpt><trkpt lat="42.590419920345454" lon="12.690402885785588"><ele>375.0</ele><time>2026-04-11T12:10:55.983Z</time></trkpt><trkpt lat="42.590508630527474" lon="12.690481036288439"><ele>379.1666666666667</ele><time>2026-04-11T12:10:57.983Z</time></trkpt><trkpt lat="42.590571400625684" lon="12.690586077271995"><ele>383.33333333333337</ele><time>2026-04-11T12:10:59.983Z</time></trkpt><trkpt lat="42.590632212052846" lon="12.690659600404278"><ele>387.5</ele><time>2026-04-11T12:11:01.983Z</time></trkpt><trkpt lat="42.590709663090294" lon="12.69064512766239"><ele>391.6666666666667</ele><time>2026-04-11T12:11:04.983Z</time></trkpt><trkpt lat="42.590736371664406" lon="12.690552186625162"><ele>395.83333333333337</ele><time>2026-04-11T12:11:06.983Z</time></trkpt><trkpt lat="42.59074529883727" lon="12.69043322252991"><ele>400.0</ele><time>2026-04-11T12:11:08.983Z</time></trkpt><trkpt lat="42.59079113268132" lon="12.69032936642624"><ele>400.00000000000006</ele><time>2026-04-11T12:11:11.983Z</time></trkpt><trkpt lat="42.590814326267605" lon="12.690244054315759"><ele>400.0</ele><time>2026-04-11T12:11:13.983Z</time></trkpt><trkpt lat="42.59083983727407" lon="12.690146985039544"><ele>400.0</ele><time>2026-04-11T12:11:16.983Z</time></trkpt><trkpt lat="42.59085895768572" lon="12.690230650957659"><ele>400.0</ele><time>2026-04-11T12:11:35.983Z</time></trkpt><trkpt lat="42.590907278308315" lon="12.690313162108808"><ele>400.00000000000006</ele><time>2026-04-11T12:11:36.983Z</time></trkpt><trkpt lat="42.590972675441435" lon="12.690461665325152"><ele>400.0</ele><time>2026-04-11T12:11:38.983Z</time></trkpt><trkpt lat="42.59104208314531" lon="12.69055250612821"><ele>400.00000000000006</ele><time>2026-04-11T12:11:40.983Z</time></trkpt><trkpt lat="42.591148406457506" lon="12.690620881615901"><ele>400.0</ele><time>2026-04-11T12:11:42.983Z</time></trkpt><trkpt lat="42.591211199524984" lon="12.690673548046504"><ele>400.0</ele><time>2026-04-11T12:11:43.983Z</time></trkpt><trkpt lat="42.59128073968911" lon="12.69074323795118"><ele>400.0</ele><time>2026-04-11T12:11:45.983Z</time></trkpt><trkpt lat="42.591341857319556" lon="12.69071430208837"><ele>400.00000000000006</ele><time>2026-04-11T12:11:48.983Z</time></trkpt><trkpt lat="42.59138543354138" lon="12.69064641576636"><ele>400.0</ele><time>2026-04-11T12:11:55.983Z</time></trkpt><trkpt lat="42.59136214717272" lon="12.690545909073235"><ele>404.00000000000006</ele><time>2026-04-11T12:11:57.983Z</time></trkpt><trkpt lat="42.5913654898493" lon="12.690445960548729"><ele>408.0</ele><time>2026-04-11T12:11:59.983Z</time></trkpt><trkpt lat="42.59139801784175" lon="12.690334880820531"><ele>412.0</ele><time>2026-04-11T12:12:02.983Z</time></trkpt><trkpt lat="42.59143114979724" lon="12.690239173829063"><ele>416.0</ele><time>2026-04-11T12:12:04.983Z</time></trkpt><trkpt lat="42.59147794186571" lon="12.690152480280782"><ele>420.00000000000006</ele><time>2026-04-11T12:12:06.983Z</time></trkpt><trkpt lat="42.59154185708162" lon="12.6900718799366"><ele>424.0</ele><time>2026-04-11T12:12:08.983Z</time></trkpt><trkpt lat="42.591620080603114" lon="12.690011642233642"><ele>425.33333333333337</ele><time>2026-04-11T12:12:10.983Z</time></trkpt><trkpt lat="42.59171484290763" lon="12.68999188493251"><ele>426.6666666666667</ele><time>2026-04-11T12:12:12.983Z</time></trkpt><trkpt lat="42.59180067075167" lon="12.690001504703911"><ele>428.0</ele><time>2026-04-11T12:12:14.983Z</time></trkpt><trkpt lat="42.59187794262531" lon="12.690000322474159"><ele>429.33333333333337</ele><time>2026-04-11T12:12:17.983Z</time></trkpt><trkpt lat="42.59195111592286" lon="12.689985419684525"><ele>430.6666666666667</ele><time>2026-04-11T12:12:20.983Z</time></trkpt><trkpt lat="42.59202855689421" lon="12.689982787173165"><ele>432.0</ele><time>2026-04-11T12:12:22.983Z</time></trkpt><trkpt lat="42.59211464214842" lon="12.690005323063005"><ele>434.8333333333333</ele><time>2026-04-11T12:12:24.983Z</time></trkpt><trkpt lat="42.59220272241496" lon="12.690013820481692"><ele>437.66666666666663</ele><time>2026-04-11T12:12:26.983Z</time></trkpt><trkpt lat="42.59230639841198" lon="12.690037477821646"><ele>440.5</ele><time>2026-04-11T12:12:28.983Z</time></trkpt><trkpt lat="42.59237691106554" lon="12.690034006496484"><ele>443.3333333333333</ele><time>2026-04-11T12:12:29.983Z</time></trkpt><trkpt lat="42.592448543870276" lon="12.690047103259984"><ele>446.16666666666663</ele><time>2026-04-11T12:12:30.981Z</time></trkpt><trkpt lat="42.592528081565426" lon="12.690050174114589"><ele>449.0</ele><time>2026-04-11T12:12:31.981Z</time></trkpt><trkpt lat="42.592602036628776" lon="12.69007140935343"><ele>448.99999999999994</ele><time>2026-04-11T12:12:32.981Z</time></trkpt><trkpt lat="42.592677888822344" lon="12.690098175019747"><ele>449.0</ele><time>2026-04-11T12:12:33.98Z</time></trkpt><trkpt lat="42.592760120845945" lon="12.690127940403801"><ele>449.0</ele><time>2026-04-11T12:12:34.98Z</time></trkpt><trkpt lat="42.592851903889816" lon="12.690149375839523"><ele>449.0</ele><time>2026-04-11T12:12:35.98Z</time></trkpt><trkpt lat="42.59293338328605" lon="12.690187498621805"><ele>448.99999999999994</ele><time>2026-04-11T12:12:36.981Z</time></trkpt><trkpt lat="42.59301374868739" lon="12.690218628548374"><ele>449.0</ele><time>2026-04-11T12:12:37.981Z</time></trkpt><trkpt lat="42.59308009380445" lon="12.690248572641536"><ele>449.0</ele><time>2026-04-11T12:12:38.981Z</time></trkpt><trkpt lat="42.59315455792058" lon="12.690276956543615"><ele>448.99999999999994</ele><time>2026-04-11T12:12:39.981Z</time></trkpt><trkpt lat="42.59323059364674" lon="12.690302341031622"><ele>449.0</ele><time>2026-04-11T12:12:40.981Z</time></trkpt><trkpt lat="42.59329821243217" lon="12.690318261165913"><ele>449.0</ele><time>2026-04-11T12:12:41.981Z</time></trkpt><trkpt lat="42.59336912518494" lon="12.690342449920017"><ele>448.99999999999994</ele><time>2026-04-11T12:12:42.981Z</time></trkpt><trkpt lat="42.59343835806489" lon="12.690359089020996"><ele>449.0</ele><time>2026-04-11T12:12:43.981Z</time></trkpt><trkpt lat="42.593518515803964" lon="12.690377170979199"><ele>449.0</ele><time>2026-04-11T12:12:44.981Z</time></trkpt><trkpt lat="42.593602178169526" lon="12.690409100647432"><ele>453.4</ele><time>2026-04-11T12:12:45.981Z</time></trkpt><trkpt lat="42.59368598916021" lon="12.690431259522231"><ele>457.79999999999995</ele><time>2026-04-11T12:12:46.981Z</time></trkpt><trkpt lat="42.59378823668402" lon="12.690464225722438"><ele>462.20000000000005</ele><time>2026-04-11T12:12:47.981Z</time></trkpt><trkpt lat="42.593897766803806" lon="12.690479006301553"><ele>466.6</ele><time>2026-04-11T12:12:48.981Z</time></trkpt><trkpt lat="42.59398651172934" lon="12.690491045834637"><ele>471.0</ele><time>2026-04-11T12:12:49.981Z</time></trkpt><trkpt lat="42.59407513451024" lon="12.690496076165694"><ele>471.0</ele><time>2026-04-11T12:12:50.981Z</time></trkpt><trkpt lat="42.594161525629275" lon="12.690495280160208"><ele>471.0</ele><time>2026-04-11T12:12:51.981Z</time></trkpt><trkpt lat="42.59424517683743" lon="12.690525759212699"><ele>471.0</ele><time>2026-04-11T12:12:52.981Z</time></trkpt><trkpt lat="42.594313580420966" lon="12.690558622673459"><ele>471.0</ele><time>2026-04-11T12:12:53.981Z</time></trkpt><trkpt lat="42.59437198604569" lon="12.690597879401576"><ele>471.0</ele><time>2026-04-11T12:12:54.981Z</time></trkpt><trkpt lat="42.594450397064826" lon="12.690638492344185"><ele>471.0</ele><time>2026-04-11T12:12:55.981Z</time></trkpt><trkpt lat="42.594530229911584" lon="12.690669355301978"><ele>474.0</ele><time>2026-04-11T12:12:56.981Z</time></trkpt><trkpt lat="42.59461386992769" lon="12.690699619071008"><ele>477.0</ele><time>2026-04-11T12:12:57.981Z</time></trkpt><trkpt lat="42.59468325285398" lon="12.690729112767482"><ele>480.0</ele><time>2026-04-11T12:12:58.981Z</time></trkpt><trkpt lat="42.59479789316976" lon="12.690802779040293"><ele>483.0</ele><time>2026-04-11T12:13:00.981Z</time></trkpt><trkpt lat="42.59485989469658" lon="12.690847008415222"><ele>486.0</ele><time>2026-04-11T12:13:01.981Z</time></trkpt><trkpt lat="42.59491536133148" lon="12.690890356879962"><ele>489.0</ele><time>2026-04-11T12:13:02.981Z</time></trkpt><trkpt lat="42.594993003585955" lon="12.690896469063645"><ele>489.0</ele><time>2026-04-11T12:13:03.981Z</time></trkpt><trkpt lat="42.595092039688346" lon="12.690899163562335"><ele>489.0</ele><time>2026-04-11T12:13:04.981Z</time></trkpt><trkpt lat="42.59519726041464" lon="12.690915318811873"><ele>489.0</ele><time>2026-04-11T12:13:05.981Z</time></trkpt><trkpt lat="42.5953008842344" lon="12.690967440906475"><ele>489.0</ele><time>2026-04-11T12:13:06.981Z</time></trkpt><trkpt lat="42.5953952740016" lon="12.6910124095448"><ele>489.0</ele><time>2026-04-11T12:13:07.98Z</time></trkpt><trkpt lat="42.59548306817886" lon="12.691057136474019"><ele>489.5</ele><time>2026-04-11T12:13:08.98Z</time></trkpt><trkpt lat="42.59555102381685" lon="12.691125638773732"><ele>490.0</ele><time>2026-04-11T12:13:09.98Z</time></trkpt><trkpt lat="42.5956088784216" lon="12.6912065607667"><ele>490.5</ele><time>2026-04-11T12:13:10.98Z</time></trkpt><trkpt lat="42.59566645454564" lon="12.691278396012132"><ele>491.0</ele><time>2026-04-11T12:13:11.98Z</time></trkpt><trkpt lat="42.595711195385846" lon="12.69137259819038"><ele>491.5</ele><time>2026-04-11T12:13:12.98Z</time></trkpt><trkpt lat="42.595775024085555" lon="12.691436331759618"><ele>492.0</ele><time>2026-04-11T12:13:13.98Z</time></trkpt><trkpt lat="42.5958411175549" lon="12.69149584082352"><ele>492.0</ele><time>2026-04-11T12:13:14.98Z</time></trkpt><trkpt lat="42.59592283824174" lon="12.69155497215728"><ele>492.00000000000006</ele><time>2026-04-11T12:13:15.98Z</time></trkpt><trkpt lat="42.59601183777582" lon="12.691602821472342"><ele>492.00000000000006</ele><time>2026-04-11T12:13:16.98Z</time></trkpt><trkpt lat="42.59611756529835" lon="12.69165035517034"><ele>492.0</ele><time>2026-04-11T12:13:17.98Z</time></trkpt><trkpt lat="42.596236761806054" lon="12.691673078840093"><ele>492.0</ele><time>2026-04-11T12:13:18.98Z</time></trkpt><trkpt lat="42.59632774660551" lon="12.691688850804905"><ele>492.8333333333333</ele><time>2026-04-11T12:13:19.98Z</time></trkpt><trkpt lat="42.59641008907675" lon="12.691700113127414"><ele>493.66666666666663</ele><time>2026-04-11T12:13:20.98Z</time></trkpt><trkpt lat="42.59648526455411" lon="12.691731618749603"><ele>494.5</ele><time>2026-04-11T12:13:21.98Z</time></trkpt><trkpt lat="42.596547563448624" lon="12.691768406078145"><ele>495.3333333333333</ele><time>2026-04-11T12:13:22.98Z</time></trkpt><trkpt lat="42.59662771537607" lon="12.691868502027006"><ele>496.16666666666663</ele><time>2026-04-11T12:13:24.98Z</time></trkpt><trkpt lat="42.596693871349146" lon="12.691922969036364"><ele>497.0</ele><time>2026-04-11T12:13:27.98Z</time></trkpt><trkpt lat="42.596769256531125" lon="12.691996849607255"><ele>496.99999999999994</ele><time>2026-04-11T12:13:29.98Z</time></trkpt><trkpt lat="42.596833174532485" lon="12.6921149872264"><ele>497.0</ele><time>2026-04-11T12:13:31.98Z</time></trkpt><trkpt lat="42.596873431939365" lon="12.692240690437867"><ele>497.0</ele><time>2026-04-11T12:13:33.98Z</time></trkpt><trkpt lat="42.59691562558197" lon="12.692318654705426"><ele>497.0</ele><time>2026-04-11T12:13:34.98Z</time></trkpt><trkpt lat="42.59696285686335" lon="12.69241023244959"><ele>496.99999999999994</ele><time>2026-04-11T12:13:35.98Z</time></trkpt><trkpt lat="42.5969974261956" lon="12.692511240236485"><ele>497.0</ele><time>2026-04-11T12:13:36.98Z</time></trkpt><trkpt lat="42.597038884006025" lon="12.69259580364282"><ele>497.99999999999994</ele><time>2026-04-11T12:13:37.98Z</time></trkpt><trkpt lat="42.59708358989063" lon="12.692673231076945"><ele>499.0</ele><time>2026-04-11T12:13:38.98Z</time></trkpt><trkpt lat="42.59713275335011" lon="12.692760507546213"><ele>500.0</ele><time>2026-04-11T12:13:39.98Z</time></trkpt><trkpt lat="42.59717325469289" lon="12.692852655200324"><ele>501.0</ele><time>2026-04-11T12:13:40.98Z</time></trkpt><trkpt lat="42.59719541164099" lon="12.69295275981328"><ele>501.99999999999994</ele><time>2026-04-11T12:13:41.98Z</time></trkpt><trkpt lat="42.59721440224093" lon="12.693035034248629"><ele>503.0</ele><time>2026-04-11T12:13:42.98Z</time></trkpt><trkpt lat="42.59727413980079" lon="12.693175608046719"><ele>502.99999999999994</ele><time>2026-04-11T12:13:44.98Z</time></trkpt><trkpt lat="42.59727837244164" lon="12.693280342015925"><ele>503.0</ele><time>2026-04-11T12:13:45.98Z</time></trkpt><trkpt lat="42.59726986812873" lon="12.693398318392394"><ele>503.0</ele><time>2026-04-11T12:13:46.98Z</time></trkpt><trkpt lat="42.59727347799851" lon="12.693527990419053"><ele>503.0</ele><time>2026-04-11T12:13:47.98Z</time></trkpt><trkpt lat="42.59728496552465" lon="12.693668922861587"><ele>502.99999999999994</ele><time>2026-04-11T12:13:48.98Z</time></trkpt><trkpt lat="42.597308143848196" lon="12.693757674508714"><ele>503.0</ele><time>2026-04-11T12:13:49.98Z</time></trkpt><trkpt lat="42.597293192540015" lon="12.693855054484612"><ele>505.4</ele><time>2026-04-11T12:13:51.98Z</time></trkpt><trkpt lat="42.59729364887757" lon="12.693980919145814"><ele>507.79999999999995</ele><time>2026-04-11T12:13:54.98Z</time></trkpt><trkpt lat="42.5973053577257" lon="12.694138305690833"><ele>510.2</ele><time>2026-04-11T12:13:56.98Z</time></trkpt><trkpt lat="42.597346815999565" lon="12.694287164689172"><ele>512.6</ele><time>2026-04-11T12:13:58.98Z</time></trkpt><trkpt lat="42.597371005223" lon="12.694368525738945"><ele>515.0</ele><time>2026-04-11T12:13:59.98Z</time></trkpt><trkpt lat="42.59739585089044" lon="12.69452222155635"><ele>517.8</ele><time>2026-04-11T12:14:01.98Z</time></trkpt><trkpt lat="42.59741116820667" lon="12.69467585198871"><ele>520.6</ele><time>2026-04-11T12:14:03.98Z</time></trkpt><trkpt lat="42.59742460047222" lon="12.694768740268744"><ele>523.4</ele><time>2026-04-11T12:14:04.98Z</time></trkpt><trkpt lat="42.59745750867245" lon="12.694916940561372"><ele>526.2</ele><time>2026-04-11T12:14:06.98Z</time></trkpt><trkpt lat="42.597465465227494" lon="12.695036044311557"><ele>529.0</ele><time>2026-04-11T12:14:08.98Z</time></trkpt><trkpt lat="42.597456779161575" lon="12.695173053111525"><ele>532.2</ele><time>2026-04-11T12:14:10.98Z</time></trkpt><trkpt lat="42.59745989940155" lon="12.695306560445394"><ele>535.4</ele><time>2026-04-11T12:14:12.98Z</time></trkpt><trkpt lat="42.597470878903984" lon="12.69546511421142"><ele>538.6</ele><time>2026-04-11T12:14:14.98Z</time></trkpt><trkpt lat="42.59747931709355" lon="12.695557796005806"><ele>541.8</ele><time>2026-04-11T12:14:15.98Z</time></trkpt><trkpt lat="42.59746663983822" lon="12.695685697164823"><ele>545.0</ele><time>2026-04-11T12:14:17.98Z</time></trkpt><trkpt lat="42.59747426965535" lon="12.695793190867512"><ele>545.0</ele><time>2026-04-11T12:14:19.98Z</time></trkpt><trkpt lat="42.59746895697548" lon="12.695899463214866"><ele>545.0</ele><time>2026-04-11T12:14:21.98Z</time></trkpt><trkpt lat="42.59743547854256" lon="12.69599551918337"><ele>545.0</ele><time>2026-04-11T12:14:23.98Z</time></trkpt><trkpt lat="42.59735540898201" lon="12.696077093455708"><ele>545.0</ele><time>2026-04-11T12:14:25.98Z</time></trkpt><trkpt lat="42.59728417909269" lon="12.696100045070839"><ele>545.0</ele><time>2026-04-11T12:14:27.98Z</time></trkpt><trkpt lat="42.59721501603112" lon="12.696116126181375"><ele>545.0</ele><time>2026-04-11T12:14:29.98Z</time></trkpt><trkpt lat="42.59712782477788" lon="12.69613625497885"><ele>547.3333333333333</ele><time>2026-04-11T12:14:31.98Z</time></trkpt><trkpt lat="42.59703808552048" lon="12.696158640770449"><ele>549.6666666666666</ele><time>2026-04-11T12:14:33.98Z</time></trkpt><trkpt lat="42.59694819520754" lon="12.696186434676925"><ele>552.0</ele><time>2026-04-11T12:14:35.98Z</time></trkpt><trkpt lat="42.59690489627729" lon="12.69627436291479"><ele>554.3333333333334</ele><time>2026-04-11T12:14:37.979Z</time></trkpt><trkpt lat="42.596838941680204" lon="12.69635341013281"><ele>556.6666666666667</ele><time>2026-04-11T12:14:39.979Z</time></trkpt><trkpt lat="42.5967830531088" lon="12.696435952960211"><ele>559.0</ele><time>2026-04-11T12:14:41.979Z</time></trkpt><trkpt lat="42.59674887837247" lon="12.696514722096186"><ele>559.0</ele><time>2026-04-11T12:14:44.979Z</time></trkpt><trkpt lat="42.59674405582884" lon="12.696611085165808"><ele>559.0</ele><time>2026-04-11T12:14:46.978Z</time></trkpt><trkpt lat="42.59673974912573" lon="12.696727208726417"><ele>559.0</ele><time>2026-04-11T12:14:48.979Z</time></trkpt><trkpt lat="42.596743225087906" lon="12.696846618546918"><ele>559.0</ele><time>2026-04-11T12:14:50.979Z</time></trkpt><trkpt lat="42.596756816980026" lon="12.69695476317347"><ele>559.0</ele><time>2026-04-11T12:14:52.979Z</time></trkpt><trkpt lat="42.59678032773985" lon="12.697054714830818"><ele>559.0</ele><time>2026-04-11T12:14:54.979Z</time></trkpt><trkpt lat="42.596849708049085" lon="12.697066694483162"><ele>560.8333333333334</ele><time>2026-04-11T12:14:56.979Z</time></trkpt><trkpt lat="42.596928175831806" lon="12.697085803245377"><ele>562.6666666666667</ele><time>2026-04-11T12:14:58.979Z</time></trkpt><trkpt lat="42.59701108905082" lon="12.69713906454297"><ele>564.5</ele><time>2026-04-11T12:15:01.979Z</time></trkpt><trkpt lat="42.597088650832546" lon="12.69718880784581"><ele>566.3333333333334</ele><time>2026-04-11T12:15:04.979Z</time></trkpt><trkpt lat="42.5971512243422" lon="12.697262241987527"><ele>568.1666666666666</ele><time>2026-04-11T12:15:06.979Z</time></trkpt><trkpt lat="42.59720241051086" lon="12.697316527605548"><ele>570.0</ele><time>2026-04-11T12:15:08.979Z</time></trkpt><trkpt lat="42.59726578179307" lon="12.697347207181263"><ele>573.0</ele><time>2026-04-11T12:15:10.979Z</time></trkpt><trkpt lat="42.59734539817755" lon="12.697433903420631"><ele>576.0</ele><time>2026-04-11T12:15:13.979Z</time></trkpt><trkpt lat="42.59740745916367" lon="12.697495422476967"><ele>579.0</ele><time>2026-04-11T12:15:15.979Z</time></trkpt><trkpt lat="42.59747696522225" lon="12.697538283381974"><ele>582.0</ele><time>2026-04-11T12:15:17.979Z</time></trkpt><trkpt lat="42.59755890150125" lon="12.69761517212135"><ele>585.0</ele><time>2026-04-11T12:15:19.979Z</time></trkpt><trkpt lat="42.59765596043744" lon="12.697655334539798"><ele>585.0</ele><time>2026-04-11T12:15:21.979Z</time></trkpt><trkpt lat="42.59772058612299" lon="12.697681704106172"><ele>585.0</ele><time>2026-04-11T12:15:22.979Z</time></trkpt><trkpt lat="42.59782960210106" lon="12.697718114299729"><ele>585.0</ele><time>2026-04-11T12:15:24.979Z</time></trkpt><trkpt lat="42.597924270644654" lon="12.697756093388337"><ele>585.0</ele><time>2026-04-11T12:15:25.979Z</time></trkpt><trkpt lat="42.59798618680599" lon="12.697772838248818"><ele>585.0</ele><time>2026-04-11T12:15:26.979Z</time></trkpt><trkpt lat="42.59804617938269" lon="12.697807204027674"><ele>585.0</ele><time>2026-04-11T12:15:27.979Z</time></trkpt><trkpt lat="42.59814797027018" lon="12.6978774924341"><ele>587.6666666666666</ele><time>2026-04-11T12:15:29.979Z</time></trkpt><trkpt lat="42.59822746657117" lon="12.697921738649017"><ele>590.3333333333334</ele><time>2026-04-11T12:15:31.979Z</time></trkpt><trkpt lat="42.59831884132133" lon="12.697987519888876"><ele>593.0</ele><time>2026-04-11T12:15:33.979Z</time></trkpt><trkpt lat="42.598382687781125" lon="12.698012714140988"><ele>595.6666666666667</ele><time>2026-04-11T12:15:34.979Z</time></trkpt><trkpt lat="42.59847751842544" lon="12.698028842621836"><ele>598.3333333333334</ele><time>2026-04-11T12:15:36.979Z</time></trkpt><trkpt lat="42.598540633458434" lon="12.698028230154089"><ele>601.0</ele><time>2026-04-11T12:15:37.979Z</time></trkpt><trkpt lat="42.59865383238454" lon="12.698012504458626"><ele>603.0</ele><time>2026-04-11T12:15:39.979Z</time></trkpt><trkpt lat="42.59875616118321" lon="12.698035903196622"><ele>605.0</ele><time>2026-04-11T12:15:41.979Z</time></trkpt><trkpt lat="42.59884629667193" lon="12.698041326581382"><ele>607.0</ele><time>2026-04-11T12:15:43.979Z</time></trkpt><trkpt lat="42.59894412001973" lon="12.698068117419492"><ele>609.0</ele><time>2026-04-11T12:15:45.979Z</time></trkpt><trkpt lat="42.599035201400795" lon="12.69810674054677"><ele>611.0</ele><time>2026-04-11T12:15:47.979Z</time></trkpt><trkpt lat="42.599145488779314" lon="12.698123642669998"><ele>611.0</ele><time>2026-04-11T12:15:49.979Z</time></trkpt><trkpt lat="42.599221170270354" lon="12.698130244039293"><ele>611.0</ele><time>2026-04-11T12:15:51.979Z</time></trkpt><trkpt lat="42.59932677875125" lon="12.698132911990884"><ele>611.0</ele><time>2026-04-11T12:15:53.979Z</time></trkpt><trkpt lat="42.59943486179872" lon="12.698164414897452"><ele>611.0</ele><time>2026-04-11T12:15:55.979Z</time></trkpt><trkpt lat="42.599501101093196" lon="12.698174100183595"><ele>611.0</ele><time>2026-04-11T12:15:57.979Z</time></trkpt><trkpt lat="42.59959550645953" lon="12.698269824676256"><ele>611.2</ele><time>2026-04-11T12:15:59.979Z</time></trkpt><trkpt lat="42.599682461458166" lon="12.698353154691194"><ele>611.4000000000001</ele><time>2026-04-11T12:16:01.979Z</time></trkpt><trkpt lat="42.59975824029679" lon="12.698449092655546"><ele>611.6</ele><time>2026-04-11T12:16:03.979Z</time></trkpt><trkpt lat="42.59982756226293" lon="12.698550394404538"><ele>611.8000000000001</ele><time>2026-04-11T12:16:05.979Z</time></trkpt><trkpt lat="42.59987514829137" lon="12.698609717181201"><ele>612.0</ele><time>2026-04-11T12:16:06.979Z</time></trkpt><trkpt lat="42.59991774106087" lon="12.698702850385493"><ele>612.0</ele><time>2026-04-11T12:16:07.979Z</time></trkpt><trkpt lat="42.59996919914139" lon="12.698799479653466"><ele>612.0</ele><time>2026-04-11T12:16:08.979Z</time></trkpt><trkpt lat="42.60001906197728" lon="12.698888260204642"><ele>612.0</ele><time>2026-04-11T12:16:09.979Z</time></trkpt><trkpt lat="42.6000729331187" lon="12.698961966416668"><ele>612.0</ele><time>2026-04-11T12:16:10.979Z</time></trkpt><trkpt lat="42.60013118168514" lon="12.699028829163906"><ele>612.0</ele><time>2026-04-11T12:16:11.979Z</time></trkpt><trkpt lat="42.60019278448224" lon="12.699105745133252"><ele>612.0</ele><time>2026-04-11T12:16:12.979Z</time></trkpt><trkpt lat="42.60026462340815" lon="12.699178707434541"><ele>612.0</ele><time>2026-04-11T12:16:13.979Z</time></trkpt><trkpt lat="42.60031967664594" lon="12.69924942460361"><ele>612.0</ele><time>2026-04-11T12:16:14.979Z</time></trkpt><trkpt lat="42.600384754361144" lon="12.699316478136668"><ele>612.0</ele><time>2026-04-11T12:16:15.979Z</time></trkpt><trkpt lat="42.60043536818016" lon="12.699374445169415"><ele>612.0</ele><time>2026-04-11T12:16:16.979Z</time></trkpt><trkpt lat="42.600547194929746" lon="12.699472656023174"><ele>612.0</ele><time>2026-04-11T12:16:18.979Z</time></trkpt><trkpt lat="42.60065356723912" lon="12.699603627346157"><ele>614.2</ele><time>2026-04-11T12:16:20.979Z</time></trkpt><trkpt lat="42.600712317273825" lon="12.699664917944723"><ele>616.4000000000001</ele><time>2026-04-11T12:16:21.979Z</time></trkpt><trkpt lat="42.600788350444304" lon="12.6997560546835"><ele>618.5999999999999</ele><time>2026-04-11T12:16:23.979Z</time></trkpt><trkpt lat="42.60085742755456" lon="12.699834296548694"><ele>620.8</ele><time>2026-04-11T12:16:25.979Z</time></trkpt><trkpt lat="42.60097035721077" lon="12.699947291178118"><ele>623.0</ele><time>2026-04-11T12:16:27.979Z</time></trkpt><trkpt lat="42.60103064793184" lon="12.699983046986134"><ele>623.0</ele><time>2026-04-11T12:16:28.979Z</time></trkpt><trkpt lat="42.60110374216262" lon="12.700029649750734"><ele>623.0</ele><time>2026-04-11T12:16:30.979Z</time></trkpt><trkpt lat="42.60118918495807" lon="12.700109613068781"><ele>623.0</ele><time>2026-04-11T12:16:32.979Z</time></trkpt><trkpt lat="42.60129986060148" lon="12.700118822256325"><ele>623.0</ele><time>2026-04-11T12:16:34.979Z</time></trkpt><trkpt lat="42.60136650636572" lon="12.700135211360813"><ele>623.0</ele><time>2026-04-11T12:16:35.979Z</time></trkpt><trkpt lat="42.60146722040266" lon="12.700159771095386"><ele>624.8333333333333</ele><time>2026-04-11T12:16:37.979Z</time></trkpt><trkpt lat="42.60153521054598" lon="12.700179109295426"><ele>626.6666666666666</ele><time>2026-04-11T12:16:42.977Z</time></trkpt><trkpt lat="42.60163618533172" lon="12.700205663449678"><ele>628.5</ele><time>2026-04-11T12:17:00.976Z</time></trkpt><trkpt lat="42.60173347165554" lon="12.700160062852047"><ele>630.3333333333334</ele><time>2026-04-11T12:17:11.976Z</time></trkpt><trkpt lat="42.601812754333004" lon="12.700129596374776"><ele>632.1666666666667</ele><time>2026-04-11T12:17:15.976Z</time></trkpt><trkpt lat="42.60187125088786" lon="12.700177276213935"><ele>634.0</ele><time>2026-04-11T12:17:17.976Z</time></trkpt><trkpt lat="42.60193310765989" lon="12.700239935281196"><ele>633.6666666666667</ele><time>2026-04-11T12:17:19.976Z</time></trkpt><trkpt lat="42.60199240976458" lon="12.700306441357709"><ele>633.3333333333334</ele><time>2026-04-11T12:17:21.976Z</time></trkpt><trkpt lat="42.60208574989026" lon="12.700370386286652"><ele>633.0</ele><time>2026-04-11T12:17:24.976Z</time></trkpt><trkpt lat="42.60216124164554" lon="12.700456016844807"><ele>632.6666666666666</ele><time>2026-04-11T12:17:26.976Z</time></trkpt><trkpt lat="42.60223590091887" lon="12.700490534581474"><ele>632.3333333333333</ele><time>2026-04-11T12:17:28.976Z</time></trkpt><trkpt lat="42.602301030551814" lon="12.700517812103962"><ele>632.0</ele><time>2026-04-11T12:17:30.976Z</time></trkpt><trkpt lat="42.60236461830342" lon="12.70056375254382"><ele>632.0</ele><time>2026-04-11T12:17:32.976Z</time></trkpt><trkpt lat="42.60242814768872" lon="12.700588747200532"><ele>632.0</ele><time>2026-04-11T12:17:34.976Z</time></trkpt><trkpt lat="42.60252913611392" lon="12.700603881825169"><ele>632.0</ele><time>2026-04-11T12:17:36.976Z</time></trkpt><trkpt lat="42.60261262115155" lon="12.700630258687712"><ele>632.0</ele><time>2026-04-11T12:17:38.976Z</time></trkpt><trkpt lat="42.60273300920971" lon="12.700606230913802"><ele>632.0</ele><time>2026-04-11T12:17:40.976Z</time></trkpt><trkpt lat="42.60283324331423" lon="12.700672621984904"><ele>632.5</ele><time>2026-04-11T12:17:42.976Z</time></trkpt><trkpt lat="42.602891027759085" lon="12.700729248527438"><ele>633.0</ele><time>2026-04-11T12:17:43.976Z</time></trkpt><trkpt lat="42.602964447593514" lon="12.70080112005718"><ele>633.5</ele><time>2026-04-11T12:17:45.976Z</time></trkpt><trkpt lat="42.60302547851646" lon="12.700866260154656"><ele>634.0</ele><time>2026-04-11T12:17:46.976Z</time></trkpt><trkpt lat="42.60309253336331" lon="12.700968979692632"><ele>634.5</ele><time>2026-04-11T12:17:47.976Z</time></trkpt><trkpt lat="42.6031444286914" lon="12.701046972562832"><ele>635.0</ele><time>2026-04-11T12:17:48.976Z</time></trkpt><trkpt lat="42.603214963071665" lon="12.701107792609184"><ele>636.0</ele><time>2026-04-11T12:17:49.976Z</time></trkpt><trkpt lat="42.603280706519946" lon="12.701145003873945"><ele>637.0</ele><time>2026-04-11T12:17:50.976Z</time></trkpt><trkpt lat="42.60335083136126" lon="12.701179809449311"><ele>638.0</ele><time>2026-04-11T12:17:51.976Z</time></trkpt><trkpt lat="42.603441455619226" lon="12.70131378673746"><ele>639.0</ele><time>2026-04-11T12:17:53.976Z</time></trkpt><trkpt lat="42.60348592787607" lon="12.701396001627737"><ele>640.0</ele><time>2026-04-11T12:17:54.976Z</time></trkpt><trkpt lat="42.60352871406075" lon="12.70146764595043"><ele>641.0</ele><time>2026-04-11T12:17:55.976Z</time></trkpt><trkpt lat="42.6035745774152" lon="12.701530878511162"><ele>641.0</ele><time>2026-04-11T12:17:56.976Z</time></trkpt><trkpt lat="42.60362920075166" lon="12.70158015727654"><ele>641.0</ele><time>2026-04-11T12:17:57.976Z</time></trkpt><trkpt lat="42.603704342536815" lon="12.7016380746221"><ele>641.0</ele><time>2026-04-11T12:17:59.976Z</time></trkpt><trkpt lat="42.60376224969446" lon="12.701591001316428"><ele>641.0</ele><time>2026-04-11T12:18:02.976Z</time></trkpt><trkpt lat="42.603814010096286" lon="12.701513988721382"><ele>641.0</ele><time>2026-04-11T12:18:04.976Z</time></trkpt><trkpt lat="42.60389330213979" lon="12.701449377194585"><ele>641.0</ele><time>2026-04-11T12:18:06.976Z</time></trkpt><trkpt lat="42.603956316283906" lon="12.701460069948393"><ele>643.6666666666666</ele><time>2026-04-11T12:18:08.976Z</time></trkpt><trkpt lat="42.60401814917757" lon="12.701555502079854"><ele>646.3333333333333</ele><time>2026-04-11T12:18:10.976Z</time></trkpt><trkpt lat="42.60407921062686" lon="12.701625865743116"><ele>649.0</ele><time>2026-04-11T12:18:12.976Z</time></trkpt><trkpt lat="42.60413149233493" lon="12.70169518464006"><ele>651.6666666666666</ele><time>2026-04-11T12:18:14.976Z</time></trkpt><trkpt lat="42.604162485774175" lon="12.701782855351416"><ele>654.3333333333334</ele><time>2026-04-11T12:18:16.976Z</time></trkpt><trkpt lat="42.60420888972358" lon="12.701864386038215"><ele>657.0</ele><time>2026-04-11T12:18:18.976Z</time></trkpt><trkpt lat="42.604200530831484" lon="12.701980332645675"><ele>658.2</ele><time>2026-04-11T12:18:21.976Z</time></trkpt><trkpt lat="42.60418543927316" lon="12.70209862148194"><ele>659.4000000000001</ele><time>2026-04-11T12:18:25.976Z</time></trkpt><trkpt lat="42.60417765283293" lon="12.702237162611457"><ele>660.5999999999999</ele><time>2026-04-11T12:18:28.976Z</time></trkpt><trkpt lat="42.604210541353204" lon="12.702337801123273"><ele>661.8</ele><time>2026-04-11T12:18:30.976Z</time></trkpt><trkpt lat="42.60428108754662" lon="12.702412219940932"><ele>663.0</ele><time>2026-04-11T12:18:32.976Z</time></trkpt><trkpt lat="42.60436536122128" lon="12.702497578205644"><ele>663.0</ele><time>2026-04-11T12:18:35.976Z</time></trkpt><trkpt lat="42.6044545309637" lon="12.70254945595393"><ele>663.0</ele><time>2026-04-11T12:18:38.976Z</time></trkpt><trkpt lat="42.60452454661413" lon="12.702616592495575"><ele>663.0</ele><time>2026-04-11T12:18:40.976Z</time></trkpt><trkpt lat="42.60460547074556" lon="12.70261827816877"><ele>663.0</ele><time>2026-04-11T12:18:43.976Z</time></trkpt><trkpt lat="42.60469088291391" lon="12.702608802766436"><ele>663.0</ele><time>2026-04-11T12:18:45.976Z</time></trkpt><trkpt lat="42.60476832382216" lon="12.70262430620186"><ele>663.0</ele><time>2026-04-11T12:18:47.976Z</time></trkpt><trkpt lat="42.604828248627705" lon="12.702680499921565"><ele>666.1666666666666</ele><time>2026-04-11T12:18:49.975Z</time></trkpt><trkpt lat="42.604872955122545" lon="12.702762336648997"><ele>669.3333333333334</ele><time>2026-04-11T12:18:51.975Z</time></trkpt><trkpt lat="42.60489024843482" lon="12.702850208693237"><ele>672.5</ele><time>2026-04-11T12:18:53.975Z</time></trkpt><trkpt lat="42.60495553411699" lon="12.702921497387706"><ele>675.6666666666667</ele><time>2026-04-11T12:18:56.975Z</time></trkpt><trkpt lat="42.605024299721315" lon="12.702958743539345"><ele>678.8333333333334</ele><time>2026-04-11T12:18:59.975Z</time></trkpt><trkpt lat="42.605097672910055" lon="12.703046745372568"><ele>682.0</ele><time>2026-04-11T12:19:01.975Z</time></trkpt><trkpt lat="42.60515314704755" lon="12.703126007256843"><ele>682.0</ele><time>2026-04-11T12:19:03.975Z</time></trkpt><trkpt lat="42.60520873578458" lon="12.703204701070472"><ele>682.0</ele><time>2026-04-11T12:19:05.975Z</time></trkpt><trkpt lat="42.60526523638303" lon="12.703274963885095"><ele>682.0</ele><time>2026-04-11T12:19:08.975Z</time></trkpt><trkpt lat="42.60530885238912" lon="12.703345506057412"><ele>682.0</ele><time>2026-04-11T12:19:11.975Z</time></trkpt><trkpt lat="42.60540658719321" lon="12.703404405284845"><ele>682.0</ele><time>2026-04-11T12:19:31.975Z</time></trkpt><trkpt lat="42.60538283205204" lon="12.703502110639725"><ele>682.0</ele><time>2026-04-11T12:19:40.975Z</time></trkpt><trkpt lat="42.605328301576606" lon="12.703589053934813"><ele>685.3333333333334</ele><time>2026-04-11T12:19:43.975Z</time></trkpt><trkpt lat="42.60534903930786" lon="12.70366991502703"><ele>688.6666666666667</ele><time>2026-04-11T12:19:45.975Z</time></trkpt><trkpt lat="42.60536554303585" lon="12.703785930912147"><ele>692.0</ele><time>2026-04-11T12:19:47.975Z</time></trkpt><trkpt lat="42.60536064681767" lon="12.703890208005477"><ele>695.3333333333334</ele><time>2026-04-11T12:19:50.975Z</time></trkpt><trkpt lat="42.60539261906215" lon="12.703980962826606"><ele>698.6666666666666</ele><time>2026-04-11T12:19:52.975Z</time></trkpt><trkpt lat="42.6054479930423" lon="12.704139312278249"><ele>702.0</ele><time>2026-04-11T12:19:54.975Z</time></trkpt><trkpt lat="42.605479003331645" lon="12.704225411211556"><ele>702.0</ele><time>2026-04-11T12:19:56.975Z</time></trkpt><trkpt lat="42.60548805045559" lon="12.704314633963154"><ele>702.0</ele><time>2026-04-11T12:20:00.975Z</time></trkpt><trkpt lat="42.60550267457086" lon="12.704403399261748"><ele>702.0</ele><time>2026-04-11T12:20:08.975Z</time></trkpt><trkpt lat="42.60550847283203" lon="12.70453203884997"><ele>702.0</ele><time>2026-04-11T12:20:31.975Z</time></trkpt><trkpt lat="42.605527697336306" lon="12.704626246021004"><ele>702.0</ele><time>2026-04-11T12:20:34.975Z</time></trkpt><trkpt lat="42.60556206296958" lon="12.704740188835103"><ele>702.0</ele><time>2026-04-11T12:20:36.975Z</time></trkpt><trkpt lat="42.60553297477956" lon="12.70483227152202"><ele>703.1666666666666</ele><time>2026-04-11T12:20:38.975Z</time></trkpt><trkpt lat="42.6055147207591" lon="12.70494707394667"><ele>704.3333333333334</ele><time>2026-04-11T12:20:41.975Z</time></trkpt><trkpt lat="42.605458806354086" lon="12.70502082744165"><ele>705.5</ele><time>2026-04-11T12:20:43.975Z</time></trkpt><trkpt lat="42.6054712283565" lon="12.705126837670827"><ele>706.6666666666667</ele><time>2026-04-11T12:20:46.975Z</time></trkpt><trkpt lat="42.60549159824045" lon="12.705210814765621"><ele>707.8333333333334</ele><time>2026-04-11T12:20:48.975Z</time></trkpt><trkpt lat="42.60546978577589" lon="12.705319474436138"><ele>709.0</ele><time>2026-04-11T12:20:51.975Z</time></trkpt><trkpt lat="42.60549810855156" lon="12.705402365439063"><ele>710.3333333333334</ele><time>2026-04-11T12:20:53.975Z</time></trkpt><trkpt lat="42.605536719200856" lon="12.70555216780031"><ele>711.6666666666667</ele><time>2026-04-11T12:20:55.974Z</time></trkpt><trkpt lat="42.60557275309407" lon="12.705646040925563"><ele>713.0</ele><time>2026-04-11T12:20:57.973Z</time></trkpt><trkpt lat="42.60561547328329" lon="12.705759027673889"><ele>714.3333333333334</ele><time>2026-04-11T12:20:59.973Z</time></trkpt><trkpt lat="42.60566989328202" lon="12.705820616376382"><ele>715.6666666666666</ele><time>2026-04-11T12:21:01.973Z</time></trkpt><trkpt lat="42.60572961180558" lon="12.705892616524588"><ele>717.0</ele><time>2026-04-11T12:21:03.973Z</time></trkpt><trkpt lat="42.6057904908299" lon="12.705986405960067"><ele>717.0</ele><time>2026-04-11T12:21:05.973Z</time></trkpt><trkpt lat="42.60587098918628" lon="12.706056725545734"><ele>717.0</ele><time>2026-04-11T12:21:08.973Z</time></trkpt><trkpt lat="42.60592234038728" lon="12.706110013964556"><ele>717.0</ele><time>2026-04-11T12:21:10.973Z</time></trkpt><trkpt lat="42.605951498569375" lon="12.70620505523677"><ele>717.0</ele><time>2026-04-11T12:21:12.973Z</time></trkpt><trkpt lat="42.60604358730635" lon="12.706253248286789"><ele>717.0</ele><time>2026-04-11T12:21:14.973Z</time></trkpt><trkpt lat="42.60614203712971" lon="12.706286604377777"><ele>717.0</ele><time>2026-04-11T12:21:16.973Z</time></trkpt><trkpt lat="42.60620900945369" lon="12.706346793453042"><ele>719.4000000000001</ele><time>2026-04-11T12:21:18.973Z</time></trkpt><trkpt lat="42.6062947352184" lon="12.706446665896355"><ele>721.8000000000001</ele><time>2026-04-11T12:21:20.973Z</time></trkpt><trkpt lat="42.60634002124078" lon="12.706512999635718"><ele>724.2</ele><time>2026-04-11T12:21:21.973Z</time></trkpt><trkpt lat="42.60644811238744" lon="12.706585096263767"><ele>726.6</ele><time>2026-04-11T12:21:23.973Z</time></trkpt><trkpt lat="42.606517820763756" lon="12.706667968811086"><ele>729.0</ele><time>2026-04-11T12:21:24.973Z</time></trkpt><trkpt lat="42.606561238623016" lon="12.706778534348508"><ele>729.0</ele><time>2026-04-11T12:21:25.973Z</time></trkpt><trkpt lat="42.60659381804949" lon="12.706873707787398"><ele>729.0</ele><time>2026-04-11T12:21:26.973Z</time></trkpt><trkpt lat="42.606639690235504" lon="12.70698617368353"><ele>729.0</ele><time>2026-04-11T12:21:28.973Z</time></trkpt><trkpt lat="42.60669531570579" lon="12.707033614554998"><ele>729.0</ele><time>2026-04-11T12:21:30.973Z</time></trkpt><trkpt lat="42.606791423682665" lon="12.70715083746024"><ele>729.0</ele><time>2026-04-11T12:21:32.973Z</time></trkpt><trkpt lat="42.60685086387965" lon="12.70722441782503"><ele>729.0</ele><time>2026-04-11T12:21:33.973Z</time></trkpt><trkpt lat="42.60692244400775" lon="12.707289380321555"><ele>729.6666666666666</ele><time>2026-04-11T12:21:34.973Z</time></trkpt><trkpt lat="42.60696849098225" lon="12.70737918531307"><ele>730.3333333333334</ele><time>2026-04-11T12:21:35.973Z</time></trkpt><trkpt lat="42.60702513114097" lon="12.707441391907741"><ele>731.0</ele><time>2026-04-11T12:21:36.973Z</time></trkpt><trkpt lat="42.60710149616439" lon="12.707477031115461"><ele>731.6666666666667</ele><time>2026-04-11T12:21:37.973Z</time></trkpt><trkpt lat="42.60718054221238" lon="12.70751791037879"><ele>732.3333333333334</ele><time>2026-04-11T12:21:38.973Z</time></trkpt><trkpt lat="42.60728168064535" lon="12.70754912370967"><ele>733.0</ele><time>2026-04-11T12:21:40.973Z</time></trkpt><trkpt lat="42.607385362660686" lon="12.707562169656343"><ele>733.0</ele><time>2026-04-11T12:21:42.973Z</time></trkpt><trkpt lat="42.60745468537602" lon="12.707593870904876"><ele>733.0</ele><time>2026-04-11T12:21:44.973Z</time></trkpt><trkpt lat="42.6074673354156" lon="12.707725798075613"><ele>733.0</ele><time>2026-04-11T12:21:46.973Z</time></trkpt><trkpt lat="42.60746910186559" lon="12.707839556260224"><ele>733.0</ele><time>2026-04-11T12:21:48.973Z</time></trkpt><trkpt lat="42.60747741189522" lon="12.70803290564535"><ele>733.0</ele><time>2026-04-11T12:21:50.973Z</time></trkpt><trkpt lat="42.60749800607042" lon="12.708128013907634"><ele>733.0</ele><time>2026-04-11T12:21:51.973Z</time></trkpt><trkpt lat="42.60752359491135" lon="12.708216505251906"><ele>733.0</ele><time>2026-04-11T12:21:52.973Z</time></trkpt><trkpt lat="42.60754021890777" lon="12.708387434025278"><ele>733.0</ele><time>2026-04-11T12:21:54.973Z</time></trkpt><trkpt lat="42.60757112625761" lon="12.70851928484719"><ele>733.0</ele><time>2026-04-11T12:21:56.973Z</time></trkpt><trkpt lat="42.60766499846008" lon="12.708634285491177"><ele>733.0</ele><time>2026-04-11T12:21:58.973Z</time></trkpt><trkpt lat="42.6077649144225" lon="12.708722188585385"><ele>728.8</ele><time>2026-04-11T12:22:00.973Z</time></trkpt><trkpt lat="42.60785016741869" lon="12.70873746360135"><ele>724.5999999999999</ele><time>2026-04-11T12:22:02.973Z</time></trkpt><trkpt lat="42.60793060888825" lon="12.708768383624628"><ele>720.4000000000001</ele><time>2026-04-11T12:22:04.973Z</time></trkpt><trkpt lat="42.607955435622834" lon="12.70892392936412"><ele>716.2</ele><time>2026-04-11T12:22:06.973Z</time></trkpt><trkpt lat="42.60793352858119" lon="12.709023395700424"><ele>712.0</ele><time>2026-04-11T12:22:07.973Z</time></trkpt><trkpt lat="42.6078852053813" lon="12.709148522266164"><ele>712.0</ele><time>2026-04-11T12:22:09.973Z</time></trkpt><trkpt lat="42.607881955857955" lon="12.709271396177359"><ele>712.0</ele><time>2026-04-11T12:22:11.973Z</time></trkpt><trkpt lat="42.607835765054816" lon="12.709355091900845"><ele>712.0</ele><time>2026-04-11T12:22:13.973Z</time></trkpt><trkpt lat="42.60777938551596" lon="12.709461504081585"><ele>712.0</ele><time>2026-04-11T12:22:15.973Z</time></trkpt><trkpt lat="42.60772105139977" lon="12.70950536737622"><ele>712.0</ele><time>2026-04-11T12:22:16.973Z</time></trkpt><trkpt lat="42.60766168009492" lon="12.709542775715898"><ele>712.0</ele><time>2026-04-11T12:22:17.973Z</time></trkpt><trkpt lat="42.60757889350367" lon="12.70960632601769"><ele>712.1666666666667</ele><time>2026-04-11T12:22:19.973Z</time></trkpt><trkpt lat="42.60750207045639" lon="12.709656154145476"><ele>712.3333333333334</ele><time>2026-04-11T12:22:21.973Z</time></trkpt><trkpt lat="42.60742899302269" lon="12.709722902107567"><ele>712.5</ele><time>2026-04-11T12:22:23.973Z</time></trkpt><trkpt lat="42.607361771344294" lon="12.709776096971867"><ele>712.6666666666666</ele><time>2026-04-11T12:22:25.973Z</time></trkpt><trkpt lat="42.607299940575786" lon="12.709862564539211"><ele>712.8333333333333</ele><time>2026-04-11T12:22:27.973Z</time></trkpt><trkpt lat="42.60723095645433" lon="12.709936010211564"><ele>713.0</ele><time>2026-04-11T12:22:29.973Z</time></trkpt><trkpt lat="42.607184341359606" lon="12.710032700103719"><ele>713.0</ele><time>2026-04-11T12:22:31.973Z</time></trkpt><trkpt lat="42.60711496912445" lon="12.710165933107051"><ele>713.0</ele><time>2026-04-11T12:22:33.973Z</time></trkpt><trkpt lat="42.60707511050892" lon="12.710322042512578"><ele>713.0</ele><time>2026-04-11T12:22:35.973Z</time></trkpt><trkpt lat="42.60706141395717" lon="12.710410103821301"><ele>713.0</ele><time>2026-04-11T12:22:36.973Z</time></trkpt><trkpt lat="42.60701992337649" lon="12.71051553460517"><ele>713.0</ele><time>2026-04-11T12:22:37.973Z</time></trkpt><trkpt lat="42.60696337181461" lon="12.710648552676112"><ele>711.2857142857142</ele><time>2026-04-11T12:22:39.973Z</time></trkpt><trkpt lat="42.60693813713181" lon="12.710732162538916"><ele>709.5714285714287</ele><time>2026-04-11T12:22:40.973Z</time></trkpt><trkpt lat="42.60691139934709" lon="12.710816454499744"><ele>707.8571428571429</ele><time>2026-04-11T12:22:41.973Z</time></trkpt><trkpt lat="42.60687880074474" lon="12.71089465138472"><ele>706.1428571428571</ele><time>2026-04-11T12:22:42.973Z</time></trkpt><trkpt lat="42.60684862638398" lon="12.710979033839159"><ele>704.4285714285713</ele><time>2026-04-11T12:22:43.973Z</time></trkpt><trkpt lat="42.60681127857874" lon="12.711062751203164"><ele>702.7142857142858</ele><time>2026-04-11T12:22:44.973Z</time></trkpt><trkpt lat="42.60677745366849" lon="12.711150103638092"><ele>701.0</ele><time>2026-04-11T12:22:45.973Z</time></trkpt><trkpt lat="42.606747449220464" lon="12.711263114646783"><ele>698.3333333333333</ele><time>2026-04-11T12:22:47.973Z</time></trkpt><trkpt lat="42.606708052846116" lon="12.711360670044746"><ele>695.6666666666666</ele><time>2026-04-11T12:22:49.973Z</time></trkpt><trkpt lat="42.60668952413326" lon="12.711455781471264"><ele>693.0</ele><time>2026-04-11T12:22:51.973Z</time></trkpt><trkpt lat="42.60668361462032" lon="12.711563519957538"><ele>690.3333333333334</ele><time>2026-04-11T12:22:56.973Z</time></trkpt><trkpt lat="42.60672135110208" lon="12.711699800023798"><ele>687.6666666666667</ele><time>2026-04-11T12:22:58.973Z</time></trkpt><trkpt lat="42.60674178336679" lon="12.711816106937938"><ele>685.0</ele><time>2026-04-11T12:23:00.972Z</time></trkpt><trkpt lat="42.60674983524363" lon="12.711908211632942"><ele>682.8333333333334</ele><time>2026-04-11T12:23:03.972Z</time></trkpt><trkpt lat="42.606686354762076" lon="12.712009700181579"><ele>680.6666666666667</ele><time>2026-04-11T12:23:05.971Z</time></trkpt><trkpt lat="42.60665092352155" lon="12.712117966943365"><ele>678.5</ele><time>2026-04-11T12:23:07.972Z</time></trkpt><trkpt lat="42.6066219477775" lon="12.71219481206445"><ele>676.3333333333334</ele><time>2026-04-11T12:23:08.972Z</time></trkpt><trkpt lat="42.60658730530868" lon="12.712319060909431"><ele>674.1666666666666</ele><time>2026-04-11T12:23:10.971Z</time></trkpt><trkpt lat="42.606563329284484" lon="12.712433014761558"><ele>672.0</ele><time>2026-04-11T12:23:12.971Z</time></trkpt><trkpt lat="42.6065622308492" lon="12.712556862404274"><ele>672.0</ele><time>2026-04-11T12:23:14.971Z</time></trkpt><trkpt lat="42.6065944818026" lon="12.712662366023629"><ele>672.0</ele><time>2026-04-11T12:23:16.971Z</time></trkpt><trkpt lat="42.606647854074325" lon="12.712769409074367"><ele>672.0</ele><time>2026-04-11T12:23:18.971Z</time></trkpt><trkpt lat="42.60670895097358" lon="12.712860509857418"><ele>672.0</ele><time>2026-04-11T12:23:20.971Z</time></trkpt><trkpt lat="42.606771793961336" lon="12.712906473385189"><ele>672.0</ele><time>2026-04-11T12:23:22.971Z</time></trkpt><trkpt lat="42.606836157102755" lon="12.71298499380409"><ele>672.0</ele><time>2026-04-11T12:23:24.971Z</time></trkpt><trkpt lat="42.606940616901745" lon="12.713040887946626"><ele>666.8333333333334</ele><time>2026-04-11T12:23:26.971Z</time></trkpt><trkpt lat="42.60700888362855" lon="12.71305869005004"><ele>661.6666666666666</ele><time>2026-04-11T12:23:27.971Z</time></trkpt><trkpt lat="42.60711334048776" lon="12.713076027338348"><ele>656.5</ele><time>2026-04-11T12:23:29.971Z</time></trkpt><trkpt lat="42.607225620263776" lon="12.713099937964929"><ele>651.3333333333333</ele><time>2026-04-11T12:23:31.971Z</time></trkpt><trkpt lat="42.60728863442133" lon="12.713102453675402"><ele>646.1666666666666</ele><time>2026-04-11T12:23:32.971Z</time></trkpt><trkpt lat="42.607355384175726" lon="12.713107590410058"><ele>641.0</ele><time>2026-04-11T12:23:33.971Z</time></trkpt><trkpt lat="42.60744591325398" lon="12.713099872159445"><ele>641.0</ele><time>2026-04-11T12:23:34.971Z</time></trkpt><trkpt lat="42.60751704796005" lon="12.713092962026122"><ele>641.0</ele><time>2026-04-11T12:23:35.971Z</time></trkpt><trkpt lat="42.607633750293395" lon="12.713071785806498"><ele>641.0</ele><time>2026-04-11T12:23:37.971Z</time></trkpt><trkpt lat="42.60769799552912" lon="12.71304822609524"><ele>641.0</ele><time>2026-04-11T12:23:38.971Z</time></trkpt><trkpt lat="42.60778054700433" lon="12.713016518399098"><ele>641.0</ele><time>2026-04-11T12:23:39.971Z</time></trkpt><trkpt lat="42.60785428194823" lon="12.712961665272267"><ele>641.0</ele><time>2026-04-11T12:23:40.971Z</time></trkpt><trkpt lat="42.60792481488919" lon="12.712910901780546"><ele>641.6666666666666</ele><time>2026-04-11T12:23:41.971Z</time></trkpt><trkpt lat="42.60798304253754" lon="12.712877732296157"><ele>642.3333333333333</ele><time>2026-04-11T12:23:42.971Z</time></trkpt><trkpt lat="42.608091428069635" lon="12.712813321977078"><ele>643.0</ele><time>2026-04-11T12:23:44.971Z</time></trkpt><trkpt lat="42.60815336058659" lon="12.712778079947931"><ele>643.6666666666666</ele><time>2026-04-11T12:23:45.971Z</time></trkpt><trkpt lat="42.608213919589474" lon="12.712737886083172"><ele>644.3333333333334</ele><time>2026-04-11T12:23:46.971Z</time></trkpt><trkpt lat="42.60828181634178" lon="12.712631277999412"><ele>645.0</ele><time>2026-04-11T12:23:48.971Z</time></trkpt><trkpt lat="42.60836023200692" lon="12.712527718508273"><ele>645.0</ele><time>2026-04-11T12:23:50.971Z</time></trkpt><trkpt lat="42.60846101865072" lon="12.712456448744216"><ele>645.0</ele><time>2026-04-11T12:23:52.971Z</time></trkpt><trkpt lat="42.60852192691519" lon="12.71242389520537"><ele>645.0</ele><time>2026-04-11T12:23:53.971Z</time></trkpt><trkpt lat="42.608588793575365" lon="12.712415519004697"><ele>645.0</ele><time>2026-04-11T12:23:54.971Z</time></trkpt><trkpt lat="42.60864952392256" lon="12.712386816473527"><ele>645.0</ele><time>2026-04-11T12:23:55.971Z</time></trkpt><trkpt lat="42.60871295341634" lon="12.712336669859427"><ele>645.0</ele><time>2026-04-11T12:23:56.971Z</time></trkpt><trkpt lat="42.60877849160573" lon="12.712290440300094"><ele>638.4</ele><time>2026-04-11T12:23:57.971Z</time></trkpt><trkpt lat="42.608847216770684" lon="12.712229737050963"><ele>631.8</ele><time>2026-04-11T12:23:58.971Z</time></trkpt><trkpt lat="42.608911459653854" lon="12.71219522740557"><ele>625.2</ele><time>2026-04-11T12:23:59.971Z</time></trkpt><trkpt lat="42.60903907469355" lon="12.712123680642112"><ele>618.6</ele><time>2026-04-11T12:24:01.971Z</time></trkpt><trkpt lat="42.609117050506825" lon="12.712068270815935"><ele>612.0</ele><time>2026-04-11T12:24:02.971Z</time></trkpt><trkpt lat="42.60919201242742" lon="12.711983270944927"><ele>611.1666666666666</ele><time>2026-04-11T12:24:03.971Z</time></trkpt><trkpt lat="42.609267540963856" lon="12.711888842596572"><ele>610.3333333333334</ele><time>2026-04-11T12:24:04.971Z</time></trkpt><trkpt lat="42.609318687686944" lon="12.711802349341227"><ele>609.5</ele><time>2026-04-11T12:24:05.971Z</time></trkpt><trkpt lat="42.60939587869896" lon="12.711733263603588"><ele>608.6666666666667</ele><time>2026-04-11T12:24:06.971Z</time></trkpt><trkpt lat="42.60946350385909" lon="12.711681060039218"><ele>607.8333333333334</ele><time>2026-04-11T12:24:07.971Z</time></trkpt><trkpt lat="42.60952552441193" lon="12.711613763040056"><ele>607.0</ele><time>2026-04-11T12:24:08.971Z</time></trkpt><trkpt lat="42.60956506175149" lon="12.711543174420278"><ele>607.0</ele><time>2026-04-11T12:24:09.971Z</time></trkpt><trkpt lat="42.60964630412953" lon="12.711395606723153"><ele>607.0</ele><time>2026-04-11T12:24:11.971Z</time></trkpt><trkpt lat="42.60972796324524" lon="12.711320346122708"><ele>607.0</ele><time>2026-04-11T12:24:13.971Z</time></trkpt><trkpt lat="42.60979656027678" lon="12.711263323740537"><ele>607.0</ele><time>2026-04-11T12:24:15.971Z</time></trkpt><trkpt lat="42.60987496020002" lon="12.711256452126063"><ele>607.0</ele><time>2026-04-11T12:24:17.971Z</time></trkpt><trkpt lat="42.60998402810628" lon="12.711241546231076"><ele>607.0</ele><time>2026-04-11T12:24:19.971Z</time></trkpt><trkpt lat="42.61004558647247" lon="12.711220080876872"><ele>607.0</ele><time>2026-04-11T12:24:20.971Z</time></trkpt><trkpt lat="42.610130322664695" lon="12.71118916342009"><ele>607.0</ele><time>2026-04-11T12:24:21.971Z</time></trkpt><trkpt lat="42.61022190292928" lon="12.711199851116074"><ele>607.0</ele><time>2026-04-11T12:24:22.971Z</time></trkpt><trkpt lat="42.61031230288468" lon="12.711245684927961"><ele>607.0</ele><time>2026-04-11T12:24:23.971Z</time></trkpt><trkpt lat="42.610406860527675" lon="12.71129586875031"><ele>607.0</ele><time>2026-04-11T12:24:24.971Z</time></trkpt><trkpt lat="42.61049326093559" lon="12.711373385648374"><ele>606.2</ele><time>2026-04-11T12:24:25.971Z</time></trkpt><trkpt lat="42.61057108380718" lon="12.711449076217576"><ele>605.4000000000001</ele><time>2026-04-11T12:24:26.971Z</time></trkpt><trkpt lat="42.61063929909561" lon="12.711520730142219"><ele>604.5999999999999</ele><time>2026-04-11T12:24:27.971Z</time></trkpt><trkpt lat="42.610711259377936" lon="12.711615771421657"><ele>603.8</ele><time>2026-04-11T12:24:28.971Z</time></trkpt><trkpt lat="42.61078003590369" lon="12.711741602707802"><ele>603.0</ele><time>2026-04-11T12:24:29.971Z</time></trkpt><trkpt lat="42.610863249943506" lon="12.711864266938464"><ele>603.0</ele><time>2026-04-11T12:24:30.971Z</time></trkpt><trkpt lat="42.610925291303275" lon="12.711976746260126"><ele>603.0</ele><time>2026-04-11T12:24:31.971Z</time></trkpt><trkpt lat="42.61097629688528" lon="12.71208830545903"><ele>603.0</ele><time>2026-04-11T12:24:32.971Z</time></trkpt><trkpt lat="42.61101686464814" lon="12.712193690455154"><ele>603.0</ele><time>2026-04-11T12:24:33.971Z</time></trkpt><trkpt lat="42.61106555885692" lon="12.712289680496935"><ele>603.0</ele><time>2026-04-11T12:24:34.971Z</time></trkpt><trkpt lat="42.61109805456304" lon="12.712374311832164"><ele>603.0</ele><time>2026-04-11T12:24:35.971Z</time></trkpt><trkpt lat="42.61112210568424" lon="12.712467415531933"><ele>603.0</ele><time>2026-04-11T12:24:36.971Z</time></trkpt><trkpt lat="42.61113688081745" lon="12.712561375657097"><ele>603.0</ele><time>2026-04-11T12:24:37.971Z</time></trkpt><trkpt lat="42.611178007035896" lon="12.712684593716059"><ele>603.0</ele><time>2026-04-11T12:24:39.971Z</time></trkpt><trkpt lat="42.61123204856452" lon="12.712818073900234"><ele>603.0</ele><time>2026-04-11T12:24:41.971Z</time></trkpt><trkpt lat="42.611245406889616" lon="12.712943350541737"><ele>603.0</ele><time>2026-04-11T12:24:43.971Z</time></trkpt><trkpt lat="42.611282604515935" lon="12.713047545223043"><ele>602.1999999999999</ele><time>2026-04-11T12:24:46.971Z</time></trkpt><trkpt lat="42.61136635843779" lon="12.713097821382707"><ele>601.4</ele><time>2026-04-11T12:24:49.971Z</time></trkpt><trkpt lat="42.61144786641034" lon="12.71317012898551"><ele>600.5999999999999</ele><time>2026-04-11T12:24:51.971Z</time></trkpt><trkpt lat="42.61152552817437" lon="12.713243791628766"><ele>599.8</ele><time>2026-04-11T12:24:53.971Z</time></trkpt><trkpt lat="42.611519474205906" lon="12.713453923923236"><ele>599.0</ele><time>2026-04-11T12:24:55.971Z</time></trkpt><trkpt lat="42.61170082316504" lon="12.713419952657436"><ele>599.0</ele><time>2026-04-11T12:24:58.971Z</time></trkpt><trkpt lat="42.611774599023114" lon="12.713388768575827"><ele>599.0</ele><time>2026-04-11T12:25:00.971Z</time></trkpt><trkpt lat="42.61186159510696" lon="12.713353655792186"><ele>599.0</ele><time>2026-04-11T12:25:02.971Z</time></trkpt><trkpt lat="42.6119533867787" lon="12.713340022707314"><ele>599.0</ele><time>2026-04-11T12:25:04.971Z</time></trkpt><trkpt lat="42.612009835870566" lon="12.71329261655147"><ele>599.0</ele><time>2026-04-11T12:25:05.971Z</time></trkpt><trkpt lat="42.61207296109007" lon="12.713224329056532"><ele>599.0</ele><time>2026-04-11T12:25:06.97Z</time></trkpt><trkpt lat="42.61212949464014" lon="12.713162854407654"><ele>597.8333333333333</ele><time>2026-04-11T12:25:07.97Z</time></trkpt><trkpt lat="42.612177186536556" lon="12.713101716500358"><ele>596.6666666666666</ele><time>2026-04-11T12:25:08.97Z</time></trkpt><trkpt lat="42.612277266362256" lon="12.712999075131835"><ele>595.5</ele><time>2026-04-11T12:25:10.969Z</time></trkpt><trkpt lat="42.61232932897155" lon="12.712920498458116"><ele>594.3333333333334</ele><time>2026-04-11T12:25:11.969Z</time></trkpt><trkpt lat="42.61237056357071" lon="12.712821474413557"><ele>593.1666666666667</ele><time>2026-04-11T12:25:12.97Z</time></trkpt><trkpt lat="42.61242995794323" lon="12.712730607883502"><ele>592.0</ele><time>2026-04-11T12:25:13.969Z</time></trkpt><trkpt lat="42.61247250842925" lon="12.712648853549775"><ele>591.1666666666667</ele><time>2026-04-11T12:25:14.969Z</time></trkpt><trkpt lat="42.61252474372956" lon="12.712576916215973"><ele>590.3333333333334</ele><time>2026-04-11T12:25:15.969Z</time></trkpt><trkpt lat="42.61256930369758" lon="12.712497766700597"><ele>589.5</ele><time>2026-04-11T12:25:16.969Z</time></trkpt><trkpt lat="42.61261645152884" lon="12.712415961704789"><ele>588.6666666666666</ele><time>2026-04-11T12:25:17.969Z</time></trkpt><trkpt lat="42.61265901788303" lon="12.712348958789452"><ele>587.8333333333333</ele><time>2026-04-11T12:25:18.969Z</time></trkpt><trkpt lat="42.61273258207702" lon="12.712267437740733"><ele>587.0</ele><time>2026-04-11T12:25:20.969Z</time></trkpt><trkpt lat="42.612824656771615" lon="12.712297616874984"><ele>586.6</ele><time>2026-04-11T12:25:22.969Z</time></trkpt><trkpt lat="42.61293801357621" lon="12.712389780445045"><ele>586.2</ele><time>2026-04-11T12:25:24.969Z</time></trkpt><trkpt lat="42.61301958356312" lon="12.712436739341499"><ele>585.8</ele><time>2026-04-11T12:25:26.969Z</time></trkpt><trkpt lat="42.613088846926786" lon="12.712458603789042"><ele>585.4</ele><time>2026-04-11T12:25:28.969Z</time></trkpt><trkpt lat="42.61319186656804" lon="12.712480610447576"><ele>585.0</ele><time>2026-04-11T12:25:33.969Z</time></trkpt><trkpt lat="42.61323231805888" lon="12.712546568786621"><ele>585.0</ele><time>2026-04-11T12:25:35.969Z</time></trkpt><trkpt lat="42.6132923821795" lon="12.7126445066146"><ele>585.0</ele><time>2026-04-11T12:25:37.969Z</time></trkpt><trkpt lat="42.61328841409732" lon="12.712768740939604"><ele>585.0</ele><time>2026-04-11T12:25:38.969Z</time></trkpt><trkpt lat="42.61333783884137" lon="12.712852712017101"><ele>585.0</ele><time>2026-04-11T12:25:39.969Z</time></trkpt><trkpt lat="42.613381956579566" lon="12.712942129177607"><ele>585.0</ele><time>2026-04-11T12:25:40.969Z</time></trkpt><trkpt lat="42.61342508742505" lon="12.71303297055768"><ele>585.0</ele><time>2026-04-11T12:25:41.969Z</time></trkpt><trkpt lat="42.61345350733876" lon="12.713121726350328"><ele>585.1666666666666</ele><time>2026-04-11T12:25:42.969Z</time></trkpt><trkpt lat="42.613489804994074" lon="12.713196639352692"><ele>585.3333333333334</ele><time>2026-04-11T12:25:43.969Z</time></trkpt><trkpt lat="42.61351845979994" lon="12.713301538332077"><ele>585.5</ele><time>2026-04-11T12:25:45.969Z</time></trkpt><trkpt lat="42.61357806808603" lon="12.713400668576423"><ele>585.6666666666667</ele><time>2026-04-11T12:25:48.969Z</time></trkpt><trkpt lat="42.61363317754936" lon="12.713563177275208"><ele>585.8333333333334</ele><time>2026-04-11T12:25:50.969Z</time></trkpt><trkpt lat="42.613659240062596" lon="12.71364619705772"><ele>586.0</ele><time>2026-04-11T12:25:52.969Z</time></trkpt><trkpt lat="42.61374054098477" lon="12.713749279239783"><ele>586.6666666666667</ele><time>2026-04-11T12:25:55.969Z</time></trkpt><trkpt lat="42.61386704561656" lon="12.71379338148656"><ele>587.3333333333334</ele><time>2026-04-11T12:26:00.969Z</time></trkpt><trkpt lat="42.61394130586827" lon="12.713832355838143"><ele>588.0</ele><time>2026-04-11T12:26:03.969Z</time></trkpt><trkpt lat="42.61402038309971" lon="12.713873858306108"><ele>588.6666666666666</ele><time>2026-04-11T12:26:07.969Z</time></trkpt><trkpt lat="42.614084279248964" lon="12.713941006473087"><ele>589.3333333333333</ele><time>2026-04-11T12:26:10.969Z</time></trkpt><trkpt lat="42.61412615268868" lon="12.714020117103688"><ele>590.0</ele><time>2026-04-11T12:26:13.969Z</time></trkpt><trkpt lat="42.614256971164714" lon="12.714090856523628"><ele>588.0</ele><time>2026-04-11T12:26:14.969Z</time></trkpt><trkpt lat="42.6141117464972" lon="12.714629553591177"><ele>586.0</ele><time>2026-04-11T12:26:35.969Z</time></trkpt><trkpt lat="42.614169824158886" lon="12.714723070187087"><ele>586.0</ele><time>2026-04-11T12:26:44.969Z</time></trkpt><trkpt lat="42.614233945787184" lon="12.714800266256892"><ele>586.0</ele><time>2026-04-11T12:26:46.969Z</time></trkpt><trkpt lat="42.61432306490527" lon="12.714857537880745"><ele>586.0</ele><time>2026-04-11T12:26:48.969Z</time></trkpt><trkpt lat="42.61438663027914" lon="12.714874468645922"><ele>586.0</ele><time>2026-04-11T12:26:49.969Z</time></trkpt><trkpt lat="42.614461759684595" lon="12.714902147645763"><ele>586.0</ele><time>2026-04-11T12:26:51.969Z</time></trkpt><trkpt lat="42.614563964822935" lon="12.715009011527346"><ele>587.4</ele><time>2026-04-11T12:26:53.969Z</time></trkpt><trkpt lat="42.61464198559749" lon="12.715125856992014"><ele>588.8</ele><time>2026-04-11T12:26:55.969Z</time></trkpt><trkpt lat="42.61473744832322" lon="12.715252658790748"><ele>590.1999999999999</ele><time>2026-04-11T12:26:57.969Z</time></trkpt><trkpt lat="42.6148028595888" lon="12.715330060035381"><ele>591.6</ele><time>2026-04-11T12:26:58.969Z</time></trkpt><trkpt lat="42.61485697553408" lon="12.715409514982781"><ele>593.0</ele><time>2026-04-11T12:26:59.969Z</time></trkpt><trkpt lat="42.61493575750645" lon="12.715462103238947"><ele>593.0</ele><time>2026-04-11T12:27:01.969Z</time></trkpt><trkpt lat="42.61499024777461" lon="12.715507263091801"><ele>593.0</ele><time>2026-04-11T12:27:09.969Z</time></trkpt><trkpt lat="42.61508265156769" lon="12.715579952448516"><ele>593.0</ele><time>2026-04-11T12:30:45.966Z</time></trkpt><trkpt lat="42.615122373970785" lon="12.715657632893409"><ele>593.0</ele><time>2026-04-11T12:31:02.966Z</time></trkpt><trkpt lat="42.61522455587521" lon="12.71567435754523"><ele>593.0</ele><time>2026-04-11T12:31:04.966Z</time></trkpt><trkpt lat="42.615289022520734" lon="12.715729634081246"><ele>593.0</ele><time>2026-04-11T12:31:07.966Z</time></trkpt><trkpt lat="42.61529086532307" lon="12.715815776522996"><ele>595.3333333333333</ele><time>2026-04-11T12:31:09.966Z</time></trkpt><trkpt lat="42.61532405042541" lon="12.715895117392279"><ele>597.6666666666666</ele><time>2026-04-11T12:31:11.966Z</time></trkpt><trkpt lat="42.615384665499505" lon="12.715942985327253"><ele>600.0</ele><time>2026-04-11T12:31:13.966Z</time></trkpt><trkpt lat="42.61545710979264" lon="12.715964538020584"><ele>602.3333333333334</ele><time>2026-04-11T12:31:15.966Z</time></trkpt><trkpt lat="42.61555627175656" lon="12.715961183497356"><ele>604.6666666666667</ele><time>2026-04-11T12:31:17.966Z</time></trkpt><trkpt lat="42.6156436623216" lon="12.715995242024452"><ele>607.0</ele><time>2026-04-11T12:31:20.966Z</time></trkpt><trkpt lat="42.61571945592817" lon="12.715978426008217"><ele>607.0</ele><time>2026-04-11T12:31:31.965Z</time></trkpt><trkpt lat="42.61576260296797" lon="12.715903571765054"><ele>607.0</ele><time>2026-04-11T12:31:33.965Z</time></trkpt><trkpt lat="42.6158354357796" lon="12.715849077403258"><ele>607.0</ele><time>2026-04-11T12:31:36.965Z</time></trkpt><trkpt lat="42.61575425675613" lon="12.71594739196047"><ele>607.0</ele><time>2026-04-11T12:31:49.965Z</time></trkpt><trkpt lat="42.61569367072805" lon="12.715991002188685"><ele>607.0</ele><time>2026-04-11T12:31:51.965Z</time></trkpt><trkpt lat="42.615601304324386" lon="12.715946098893202"><ele>607.0</ele><time>2026-04-11T12:31:54.965Z</time></trkpt><trkpt lat="42.615497770907275" lon="12.715944981756913"><ele>607.0</ele><time>2026-04-11T12:31:56.965Z</time></trkpt><trkpt lat="42.6154147181667" lon="12.715936957531438"><ele>607.0</ele><time>2026-04-11T12:31:58.965Z</time></trkpt><trkpt lat="42.615355478598346" lon="12.715886207289254"><ele>607.0</ele><time>2026-04-11T12:32:00.965Z</time></trkpt><trkpt lat="42.615319087228286" lon="12.71580848732056"><ele>607.0</ele><time>2026-04-11T12:32:02.965Z</time></trkpt><trkpt lat="42.61528793895996" lon="12.71569161239562"><ele>607.0</ele><time>2026-04-11T12:32:05.965Z</time></trkpt><trkpt lat="42.61520869846451" lon="12.715641968234163"><ele>607.0</ele><time>2026-04-11T12:32:08.965Z</time></trkpt><trkpt lat="42.61513259211227" lon="12.715640172845754"><ele>604.6666666666667</ele><time>2026-04-11T12:32:11.965Z</time></trkpt><trkpt lat="42.61506619412759" lon="12.715566329330356"><ele>602.3333333333334</ele><time>2026-04-11T12:32:14.965Z</time></trkpt><trkpt lat="42.61501714468227" lon="12.715638871799204"><ele>600.0</ele><time>2026-04-11T12:32:20.965Z</time></trkpt><trkpt lat="42.61500884665724" lon="12.715740572146995"><ele>597.6666666666666</ele><time>2026-04-11T12:32:23.965Z</time></trkpt><trkpt lat="42.61498942986648" lon="12.715843019664742"><ele>595.3333333333333</ele><time>2026-04-11T12:32:26.965Z</time></trkpt><trkpt lat="42.61497924110237" lon="12.715958991093496"><ele>593.0</ele><time>2026-04-11T12:32:29.965Z</time></trkpt><trkpt lat="42.6149566567152" lon="12.716042931516391"><ele>591.9999999999999</ele><time>2026-04-11T12:32:33.965Z</time></trkpt><trkpt lat="42.61494254723533" lon="12.716141927697157"><ele>591.0</ele><time>2026-04-11T12:32:37.965Z</time></trkpt><trkpt lat="42.61491621067257" lon="12.71622476167649"><ele>590.0</ele><time>2026-04-11T12:32:40.965Z</time></trkpt><trkpt lat="42.614919593610104" lon="12.716313576041637"><ele>589.0</ele><time>2026-04-11T12:32:43.965Z</time></trkpt><trkpt lat="42.61493927304656" lon="12.716407447909907"><ele>588.0</ele><time>2026-04-11T12:32:46.965Z</time></trkpt><trkpt lat="42.614934225323026" lon="12.716511063675496"><ele>586.9999999999999</ele><time>2026-04-11T12:32:49.965Z</time></trkpt><trkpt lat="42.61494709311312" lon="12.716620259905945"><ele>586.0</ele><time>2026-04-11T12:32:53.965Z</time></trkpt><trkpt lat="42.61495200605891" lon="12.71671024257009"><ele>586.0</ele><time>2026-04-11T12:32:57.965Z</time></trkpt><trkpt lat="42.61498509635171" lon="12.716837992274012"><ele>586.0</ele><time>2026-04-11T12:33:00.965Z</time></trkpt><trkpt lat="42.615035231138" lon="12.716896776025784"><ele>586.0</ele><time>2026-04-11T12:33:03.965Z</time></trkpt><trkpt lat="42.615091920686226" lon="12.71695390135328"><ele>586.0</ele><time>2026-04-11T12:33:08.965Z</time></trkpt><trkpt lat="42.6151471627604" lon="12.717031963662688"><ele>586.0</ele><time>2026-04-11T12:33:11.965Z</time></trkpt><trkpt lat="42.615205170272446" lon="12.7170839029521"><ele>586.0</ele><time>2026-04-11T12:33:19.965Z</time></trkpt><trkpt lat="42.61525863477674" lon="12.71713459574097"><ele>585.9999999999999</ele><time>2026-04-11T12:33:30.963Z</time></trkpt><trkpt lat="42.61519587572623" lon="12.717122988112266"><ele>586.0</ele><time>2026-04-11T12:40:49.957Z</time></trkpt><trkpt lat="42.61514373921521" lon="12.71704212888879"><ele>586.0</ele><time>2026-04-11T12:40:54.957Z</time></trkpt><trkpt lat="42.61506560736251" lon="12.716988000339809"><ele>586.0</ele><time>2026-04-11T12:40:57.957Z</time></trkpt><trkpt lat="42.615009069889744" lon="12.716938896878801"><ele>586.0</ele><time>2026-04-11T12:40:59.957Z</time></trkpt><trkpt lat="42.61497811774474" lon="12.716847798412596"><ele>585.9999999999999</ele><time>2026-04-11T12:41:01.957Z</time></trkpt><trkpt lat="42.61493622140439" lon="12.71676067987725"><ele>586.0</ele><time>2026-04-11T12:41:03.957Z</time></trkpt><trkpt lat="42.6149084625869" lon="12.716661423735014"><ele>586.0</ele><time>2026-04-11T12:41:07.957Z</time></trkpt><trkpt lat="42.61492238513426" lon="12.716560400188714"><ele>586.0</ele><time>2026-04-11T12:41:15.957Z</time></trkpt><trkpt lat="42.61490682742185" lon="12.716468324500301"><ele>586.0</ele><time>2026-04-11T12:41:19.957Z</time></trkpt><trkpt lat="42.61491833375309" lon="12.716347432170299"><ele>586.0</ele><time>2026-04-11T12:41:22.957Z</time></trkpt><trkpt lat="42.61493772675241" lon="12.716250767001856"><ele>586.0</ele><time>2026-04-11T12:41:25.957Z</time></trkpt><trkpt lat="42.61495074777934" lon="12.716133052385745"><ele>586.0</ele><time>2026-04-11T12:41:28.957Z</time></trkpt><trkpt lat="42.61494138016741" lon="12.716017404324965"><ele>587.1666666666667</ele><time>2026-04-11T12:41:31.957Z</time></trkpt><trkpt lat="42.61495318055919" lon="12.715932517904616"><ele>588.3333333333334</ele><time>2026-04-11T12:41:33.957Z</time></trkpt><trkpt lat="42.6149640515129" lon="12.71584454923249"><ele>589.5</ele><time>2026-04-11T12:41:35.957Z</time></trkpt><trkpt lat="42.61497500504023" lon="12.715753409694797"><ele>590.6666666666666</ele><time>2026-04-11T12:41:37.957Z</time></trkpt><trkpt lat="42.61497655947545" lon="12.715590638863505"><ele>591.8333333333333</ele><time>2026-04-11T12:41:39.957Z</time></trkpt><trkpt lat="42.61495597521577" lon="12.715481320845699"><ele>593.0</ele><time>2026-04-11T12:41:40.957Z</time></trkpt><trkpt lat="42.61491447123898" lon="12.7153877274893"><ele>592.9999999999999</ele><time>2026-04-11T12:41:42.957Z</time></trkpt><trkpt lat="42.61489532100634" lon="12.715300689052807"><ele>593.0</ele><time>2026-04-11T12:41:45.957Z</time></trkpt><trkpt lat="42.61488527722658" lon="12.715209781160242"><ele>593.0</ele><time>2026-04-11T12:41:57.968Z</time></trkpt><trkpt lat="42.614842813693336" lon="12.71513318029217"><ele>593.0</ele><time>2026-04-11T12:42:00.975Z</time></trkpt><trkpt lat="42.61477945777958" lon="12.715120125229578"><ele>593.0</ele><time>2026-04-11T12:42:03.979Z</time></trkpt><trkpt lat="42.61470414603788" lon="12.715106657138419"><ele>592.9999999999999</ele><time>2026-04-11T12:42:06.983Z</time></trkpt><trkpt lat="42.61464367869365" lon="12.715019467317227"><ele>593.0</ele><time>2026-04-11T12:42:08.986Z</time></trkpt><trkpt lat="42.61457387085243" lon="12.71496202212717"><ele>591.6</ele><time>2026-04-11T12:42:10.988Z</time></trkpt><trkpt lat="42.61444463870596" lon="12.714937616229548"><ele>590.1999999999999</ele><time>2026-04-11T12:42:12.989Z</time></trkpt><trkpt lat="42.61434037571195" lon="12.714903501400054"><ele>588.8</ele><time>2026-04-11T12:42:14.991Z</time></trkpt><trkpt lat="42.6142407512766" lon="12.71481715889074"><ele>587.4</ele><time>2026-04-11T12:42:16.992Z</time></trkpt><trkpt lat="42.61419747291181" lon="12.714743881593943"><ele>586.0</ele><time>2026-04-11T12:42:17.993Z</time></trkpt><trkpt lat="42.61414227774723" lon="12.714653375699392"><ele>586.0</ele><time>2026-04-11T12:42:18.993Z</time></trkpt><trkpt lat="42.61409518885442" lon="12.714565537580608"><ele>586.0</ele><time>2026-04-11T12:42:19.994Z</time></trkpt><trkpt lat="42.614046824897486" lon="12.71448404875961"><ele>586.0</ele><time>2026-04-11T12:42:20.994Z</time></trkpt><trkpt lat="42.61399169716457" lon="12.714403896528301"><ele>586.0</ele><time>2026-04-11T12:42:21.995Z</time></trkpt><trkpt lat="42.61395600141124" lon="12.71433165405959"><ele>586.0</ele><time>2026-04-11T12:42:22.995Z</time></trkpt><trkpt lat="42.613884106863566" lon="12.714205426555328"><ele>586.0</ele><time>2026-04-11T12:42:24.996Z</time></trkpt><trkpt lat="42.61381498541402" lon="12.71407995401825"><ele>586.0</ele><time>2026-04-11T12:42:26.997Z</time></trkpt><trkpt lat="42.6137520109809" lon="12.713986366300608"><ele>586.0</ele><time>2026-04-11T12:42:28.997Z</time></trkpt><trkpt lat="42.61370285839218" lon="12.713897863169995"><ele>586.0</ele><time>2026-04-11T12:42:30.998Z</time></trkpt><trkpt lat="42.61360214215326" lon="12.7137338343439"><ele>586.0</ele><time>2026-04-11T12:42:32.999Z</time></trkpt><trkpt lat="42.613574643404924" lon="12.713617908304748"><ele>586.0</ele><time>2026-04-11T12:42:34.999Z</time></trkpt><trkpt lat="42.61355088629637" lon="12.713534706616906"><ele>586.0</ele><time>2026-04-11T12:42:35.999Z</time></trkpt><trkpt lat="42.61352046482826" lon="12.713435189939595"><ele>586.0</ele><time>2026-04-11T12:42:36.999Z</time></trkpt><trkpt lat="42.61349322017005" lon="12.713329530473239"><ele>586.0</ele><time>2026-04-11T12:42:38Z</time></trkpt><trkpt lat="42.61352827057116" lon="12.713194209962577"><ele>586.0</ele><time>2026-04-11T12:42:39Z</time></trkpt><trkpt lat="42.6134943583061" lon="12.713113288609236"><ele>586.0</ele><time>2026-04-11T12:42:40Z</time></trkpt><trkpt lat="42.6134386413267" lon="12.713022312520645"><ele>586.0</ele><time>2026-04-11T12:42:41Z</time></trkpt><trkpt lat="42.613389970607294" lon="12.712917668029572"><ele>586.0</ele><time>2026-04-11T12:42:42Z</time></trkpt><trkpt lat="42.613341010317626" lon="12.712821851208002"><ele>586.0</ele><time>2026-04-11T12:42:43Z</time></trkpt><trkpt lat="42.613278490217056" lon="12.712694562028762"><ele>586.0</ele><time>2026-04-11T12:42:45Z</time></trkpt><trkpt lat="42.61324451198386" lon="12.712576679236728"><ele>586.0</ele><time>2026-04-11T12:42:47Z</time></trkpt><trkpt lat="42.6132533305582" lon="12.712480999793735"><ele>586.0</ele><time>2026-04-11T12:42:51Z</time></trkpt><trkpt lat="42.61315776757833" lon="12.712423455504782"><ele>585.8</ele><time>2026-04-11T12:43:03.001Z</time></trkpt><trkpt lat="42.6130722353058" lon="12.712394921837285"><ele>585.6</ele><time>2026-04-11T12:43:05.001Z</time></trkpt><trkpt lat="42.61296589159027" lon="12.712344517388592"><ele>585.4</ele><time>2026-04-11T12:43:07.001Z</time></trkpt><trkpt lat="42.612884577965524" lon="12.712287833843854"><ele>585.2</ele><time>2026-04-11T12:43:09.001Z</time></trkpt><trkpt lat="42.61281995830185" lon="12.712237116663388"><ele>585.0</ele><time>2026-04-11T12:43:11.001Z</time></trkpt><trkpt lat="42.61264313617881" lon="12.712309001516552"><ele>585.4</ele><time>2026-04-11T12:43:14.001Z</time></trkpt><trkpt lat="42.612580139267145" lon="12.712405585782438"><ele>585.8</ele><time>2026-04-11T12:43:15.001Z</time></trkpt><trkpt lat="42.612509183713385" lon="12.712529607876723"><ele>586.2</ele><time>2026-04-11T12:43:16.001Z</time></trkpt><trkpt lat="42.61244832126753" lon="12.712640824109215"><ele>586.6</ele><time>2026-04-11T12:43:17.001Z</time></trkpt><trkpt lat="42.61239618421726" lon="12.712736096097483"><ele>587.0</ele><time>2026-04-11T12:43:18.001Z</time></trkpt><trkpt lat="42.61234634406251" lon="12.712823233896174"><ele>587.8333333333333</ele><time>2026-04-11T12:43:19.001Z</time></trkpt><trkpt lat="42.612301019943" lon="12.712895913404019"><ele>588.6666666666666</ele><time>2026-04-11T12:43:20.001Z</time></trkpt><trkpt lat="42.61225016499663" lon="12.712987355327867"><ele>589.5</ele><time>2026-04-11T12:43:21.001Z</time></trkpt><trkpt lat="42.61219532958883" lon="12.713066777128326"><ele>590.3333333333334</ele><time>2026-04-11T12:43:22.001Z</time></trkpt><trkpt lat="42.612141527022146" lon="12.71313355408475"><ele>591.1666666666667</ele><time>2026-04-11T12:43:23.001Z</time></trkpt><trkpt lat="42.61207072559389" lon="12.713200070223426"><ele>592.0</ele><time>2026-04-11T12:43:24.001Z</time></trkpt><trkpt lat="42.6120025368236" lon="12.713245345606817"><ele>593.1666666666667</ele><time>2026-04-11T12:43:25.001Z</time></trkpt><trkpt lat="42.61195121396412" lon="12.713299738295515"><ele>594.3333333333334</ele><time>2026-04-11T12:43:26.001Z</time></trkpt><trkpt lat="42.611814932446634" lon="12.713339334641168"><ele>595.5</ele><time>2026-04-11T12:43:28.002Z</time></trkpt><trkpt lat="42.611749786909115" lon="12.713332289975847"><ele>596.6666666666666</ele><time>2026-04-11T12:43:29.002Z</time></trkpt><trkpt lat="42.61167710988516" lon="12.713357828943506"><ele>597.8333333333333</ele><time>2026-04-11T12:43:31.002Z</time></trkpt><trkpt lat="42.61163092775592" lon="12.713418628616074"><ele>599.0</ele><time>2026-04-11T12:43:39.002Z</time></trkpt><trkpt lat="42.61151706703968" lon="12.713486331559888"><ele>599.0</ele><time>2026-04-11T12:43:41.002Z</time></trkpt><trkpt lat="42.611404745298735" lon="12.713550118126832"><ele>599.0</ele><time>2026-04-11T12:43:43.002Z</time></trkpt><trkpt lat="42.611307555588255" lon="12.713610211043653"><ele>599.0</ele><time>2026-04-11T12:43:45.002Z</time></trkpt><trkpt lat="42.611206960873325" lon="12.713637938721446"><ele>599.0</ele><time>2026-04-11T12:43:47.002Z</time></trkpt><trkpt lat="42.61112808248198" lon="12.71366162126668"><ele>599.0</ele><time>2026-04-11T12:43:48.002Z</time></trkpt><trkpt lat="42.61106942198068" lon="12.713711555791761"><ele>596.0</ele><time>2026-04-11T12:43:49.002Z</time></trkpt><trkpt lat="42.610999464054764" lon="12.713730227440312"><ele>593.0</ele><time>2026-04-11T12:43:50.002Z</time></trkpt><trkpt lat="42.61088345326179" lon="12.713726116961714"><ele>590.0</ele><time>2026-04-11T12:43:52.002Z</time></trkpt><trkpt lat="42.61079651093887" lon="12.713792298914962"><ele>587.0</ele><time>2026-04-11T12:43:54.002Z</time></trkpt><trkpt lat="42.61076211696978" lon="12.713878692387391"><ele>584.0</ele><time>2026-04-11T12:43:55.002Z</time></trkpt><trkpt lat="42.61071622842668" lon="12.713997791612988"><ele>584.0</ele><time>2026-04-11T12:43:56.002Z</time></trkpt><trkpt lat="42.610677858852604" lon="12.714103701861879"><ele>584.0</ele><time>2026-04-11T12:43:57.002Z</time></trkpt><trkpt lat="42.6106413447867" lon="12.714203084121896"><ele>584.0</ele><time>2026-04-11T12:43:58.002Z</time></trkpt><trkpt lat="42.610606945164704" lon="12.714296326314422"><ele>584.0</ele><time>2026-04-11T12:43:59.001Z</time></trkpt><trkpt lat="42.610577737025054" lon="12.714382305544083"><ele>584.0</ele><time>2026-04-11T12:44:00.001Z</time></trkpt><trkpt lat="42.610528923034224" lon="12.71445878929145"><ele>584.0</ele><time>2026-04-11T12:44:02.001Z</time></trkpt><trkpt lat="42.61048686920703" lon="12.714547352559727"><ele>583.3333333333333</ele><time>2026-04-11T12:44:05.001Z</time></trkpt><trkpt lat="42.610399969833686" lon="12.71467403277966"><ele>582.6666666666666</ele><time>2026-04-11T12:44:44.001Z</time></trkpt><trkpt lat="42.610353216210505" lon="12.71461540297061"><ele>582.0</ele><time>2026-04-11T12:44:46.001Z</time></trkpt><trkpt lat="42.61029001292501" lon="12.714487257589923"><ele>581.3333333333334</ele><time>2026-04-11T12:44:48.001Z</time></trkpt><trkpt lat="42.610238444316046" lon="12.7144270581524"><ele>580.6666666666667</ele><time>2026-04-11T12:44:49.001Z</time></trkpt><trkpt lat="42.61018198247067" lon="12.71436114651736"><ele>580.0</ele><time>2026-04-11T12:44:50.001Z</time></trkpt><trkpt lat="42.61010490807514" lon="12.71427067762696"><ele>580.0</ele><time>2026-04-11T12:44:51.001Z</time></trkpt><trkpt lat="42.61002368569814" lon="12.71417094485384"><ele>580.0</ele><time>2026-04-11T12:44:52.001Z</time></trkpt><trkpt lat="42.60994066645901" lon="12.714069327360658"><ele>580.0</ele><time>2026-04-11T12:44:53.001Z</time></trkpt><trkpt lat="42.60986036462015" lon="12.713970164984593"><ele>580.0</ele><time>2026-04-11T12:44:54.001Z</time></trkpt><trkpt lat="42.60978864853071" lon="12.713881717340357"><ele>580.0</ele><time>2026-04-11T12:44:55.001Z</time></trkpt><trkpt lat="42.60973625827333" lon="12.713776631904818"><ele>580.0</ele><time>2026-04-11T12:44:56.001Z</time></trkpt><trkpt lat="42.609657057014545" lon="12.713665236982983"><ele>580.0</ele><time>2026-04-11T12:44:57.001Z</time></trkpt><trkpt lat="42.60960170443384" lon="12.713531936352252"><ele>580.0</ele><time>2026-04-11T12:44:58.001Z</time></trkpt><trkpt lat="42.60954715863993" lon="12.713407879711864"><ele>580.0</ele><time>2026-04-11T12:44:59.001Z</time></trkpt><trkpt lat="42.609509616471804" lon="12.71328326492986"><ele>580.0</ele><time>2026-04-11T12:45:00.001Z</time></trkpt><trkpt lat="42.60950464573471" lon="12.71314665245702"><ele>582.0</ele><time>2026-04-11T12:45:01.001Z</time></trkpt><trkpt lat="42.6095017657071" lon="12.713032893429476"><ele>584.0</ele><time>2026-04-11T12:45:02.001Z</time></trkpt><trkpt lat="42.60949518040423" lon="12.712925162178808"><ele>586.0</ele><time>2026-04-11T12:45:03.001Z</time></trkpt><trkpt lat="42.60947655335207" lon="12.712791204624585"><ele>588.0</ele><time>2026-04-11T12:45:05.001Z</time></trkpt><trkpt lat="42.60934567329656" lon="12.71275144547719"><ele>590.0</ele><time>2026-04-11T12:45:07.001Z</time></trkpt><trkpt lat="42.60925696223856" lon="12.712846212258043"><ele>590.6</ele><time>2026-04-11T12:45:08.001Z</time></trkpt><trkpt lat="42.6091905646977" lon="12.712925650166794"><ele>591.2</ele><time>2026-04-11T12:45:09.001Z</time></trkpt><trkpt lat="42.60911213235368" lon="12.713020818790236"><ele>591.8</ele><time>2026-04-11T12:45:10.001Z</time></trkpt><trkpt lat="42.6090359174399" lon="12.713106734305972"><ele>592.4</ele><time>2026-04-11T12:45:11.001Z</time></trkpt><trkpt lat="42.60896175532979" lon="12.713182382527192"><ele>593.0</ele><time>2026-04-11T12:45:12.001Z</time></trkpt><trkpt lat="42.608874300983715" lon="12.713263833995066"><ele>593.0</ele><time>2026-04-11T12:45:14.001Z</time></trkpt><trkpt lat="42.60880981482692" lon="12.71331695051618"><ele>593.0</ele><time>2026-04-11T12:45:19.001Z</time></trkpt><trkpt lat="42.608733214530545" lon="12.713384245331122"><ele>593.0</ele><time>2026-04-11T12:45:21.001Z</time></trkpt><trkpt lat="42.60866296477321" lon="12.713506108644228"><ele>593.0</ele><time>2026-04-11T12:45:23.001Z</time></trkpt><trkpt lat="42.60861121345288" lon="12.713590817859894"><ele>593.0</ele><time>2026-04-11T12:45:24.001Z</time></trkpt><trkpt lat="42.60854276754813" lon="12.713684973261518"><ele>592.9999999999999</ele><time>2026-04-11T12:45:25.001Z</time></trkpt><trkpt lat="42.608483532339754" lon="12.713773401115116"><ele>593.0</ele><time>2026-04-11T12:45:26.001Z</time></trkpt><trkpt lat="42.60843971852806" lon="12.713846273384094"><ele>593.0</ele><time>2026-04-11T12:45:27.001Z</time></trkpt><trkpt lat="42.60838766789177" lon="12.713905946324257"><ele>593.0</ele><time>2026-04-11T12:45:28.001Z</time></trkpt><trkpt lat="42.60834093761286" lon="12.713987181898021"><ele>593.0</ele><time>2026-04-11T12:45:29.001Z</time></trkpt><trkpt lat="42.60828923454397" lon="12.714044139737336"><ele>592.9999999999999</ele><time>2026-04-11T12:45:30.001Z</time></trkpt><trkpt lat="42.60822939393578" lon="12.714099973311468"><ele>593.0</ele><time>2026-04-11T12:45:31.001Z</time></trkpt><trkpt lat="42.60815693026878" lon="12.714139915232481"><ele>593.0</ele><time>2026-04-11T12:45:32.001Z</time></trkpt><trkpt lat="42.60807541923879" lon="12.714160971104436"><ele>593.0</ele><time>2026-04-11T12:45:33.001Z</time></trkpt><trkpt lat="42.607986603842676" lon="12.71419224920207"><ele>593.0</ele><time>2026-04-11T12:45:34.001Z</time></trkpt><trkpt lat="42.60790975837713" lon="12.714222723424724"><ele>593.0</ele><time>2026-04-11T12:45:35.001Z</time></trkpt><trkpt lat="42.60781365995812" lon="12.714254609211356"><ele>593.0</ele><time>2026-04-11T12:45:36.001Z</time></trkpt><trkpt lat="42.60773320434567" lon="12.714295908946259"><ele>593.0</ele><time>2026-04-11T12:45:37.001Z</time></trkpt><trkpt lat="42.60766956885734" lon="12.714346043798967"><ele>595.5</ele><time>2026-04-11T12:45:38.001Z</time></trkpt><trkpt lat="42.60760511896303" lon="12.714390437070623"><ele>598.0</ele><time>2026-04-11T12:45:39.001Z</time></trkpt><trkpt lat="42.60753288756156" lon="12.714416926955385"><ele>600.5</ele><time>2026-04-11T12:45:40.001Z</time></trkpt><trkpt lat="42.60746153259608" lon="12.714469338477647"><ele>603.0</ele><time>2026-04-11T12:45:41.001Z</time></trkpt><trkpt lat="42.60733466753007" lon="12.714473928960613"><ele>605.5</ele><time>2026-04-11T12:45:43.002Z</time></trkpt><trkpt lat="42.60724985746463" lon="12.714474441122645"><ele>608.0</ele><time>2026-04-11T12:45:44.002Z</time></trkpt><trkpt lat="42.60717419884001" lon="12.714498657181341"><ele>604.1666666666666</ele><time>2026-04-11T12:45:45.002Z</time></trkpt><trkpt lat="42.607097549704555" lon="12.714551287319125"><ele>600.3333333333333</ele><time>2026-04-11T12:45:46.002Z</time></trkpt><trkpt lat="42.606986878196736" lon="12.714641461955289"><ele>596.5</ele><time>2026-04-11T12:45:48.002Z</time></trkpt><trkpt lat="42.60692338084723" lon="12.714674514231177"><ele>592.6666666666666</ele><time>2026-04-11T12:45:49.002Z</time></trkpt><trkpt lat="42.6068588904373" lon="12.714720502797311"><ele>588.8333333333334</ele><time>2026-04-11T12:45:50.002Z</time></trkpt><trkpt lat="42.60678309618557" lon="12.714763707205186"><ele>585.0</ele><time>2026-04-11T12:45:51.002Z</time></trkpt><trkpt lat="42.60670461679718" lon="12.714803077332578"><ele>585.0</ele><time>2026-04-11T12:45:52.002Z</time></trkpt><trkpt lat="42.606623270596245" lon="12.714841929437664"><ele>585.0</ele><time>2026-04-11T12:45:53.002Z</time></trkpt><trkpt lat="42.606547701203176" lon="12.71489795903984"><ele>585.0</ele><time>2026-04-11T12:45:54.002Z</time></trkpt><trkpt lat="42.60649103004922" lon="12.714967551726607"><ele>585.0</ele><time>2026-04-11T12:45:55.002Z</time></trkpt><trkpt lat="42.60644462854347" lon="12.715046224991553"><ele>585.0</ele><time>2026-04-11T12:45:56.002Z</time></trkpt><trkpt lat="42.606387335628305" lon="12.715116911095066"><ele>585.0</ele><time>2026-04-11T12:45:57.002Z</time></trkpt><trkpt lat="42.60633431369048" lon="12.715174233699459"><ele>585.0</ele><time>2026-04-11T12:45:58.002Z</time></trkpt><trkpt lat="42.606238631139284" lon="12.715223666960869"><ele>585.0</ele><time>2026-04-11T12:46:00.002Z</time></trkpt><trkpt lat="42.606172527501954" lon="12.715194722287263"><ele>585.0</ele><time>2026-04-11T12:46:01.002Z</time></trkpt><trkpt lat="42.60610329068266" lon="12.71512990524454"><ele>585.0</ele><time>2026-04-11T12:46:02.002Z</time></trkpt><trkpt lat="42.60603004453713" lon="12.715036818076781"><ele>585.0</ele><time>2026-04-11T12:46:03.002Z</time></trkpt><trkpt lat="42.60598240365888" lon="12.714945422661193"><ele>585.0</ele><time>2026-04-11T12:46:04.002Z</time></trkpt><trkpt lat="42.60594808100264" lon="12.714867837483338"><ele>584.5</ele><time>2026-04-11T12:46:05Z</time></trkpt><trkpt lat="42.60590229080405" lon="12.714787940520358"><ele>584.0</ele><time>2026-04-11T12:46:06Z</time></trkpt><trkpt lat="42.60585117855106" lon="12.714721908777936"><ele>583.5</ele><time>2026-04-11T12:46:07Z</time></trkpt><trkpt lat="42.60580617597804" lon="12.714652273367882"><ele>583.0</ele><time>2026-04-11T12:46:08Z</time></trkpt><trkpt lat="42.60573645803609" lon="12.714562222196266"><ele>582.5</ele><time>2026-04-11T12:46:10Z</time></trkpt><trkpt lat="42.60566840829644" lon="12.714548011906992"><ele>582.0</ele><time>2026-04-11T12:46:12Z</time></trkpt><trkpt lat="42.60559153500378" lon="12.714659451939665"><ele>582.0</ele><time>2026-04-11T12:46:14Z</time></trkpt><trkpt lat="42.60554528644697" lon="12.714810838965233"><ele>582.0</ele><time>2026-04-11T12:46:16Z</time></trkpt><trkpt lat="42.60549245919155" lon="12.714880978351278"><ele>582.0</ele><time>2026-04-11T12:46:17Z</time></trkpt><trkpt lat="42.605451521304836" lon="12.714951531783653"><ele>582.0</ele><time>2026-04-11T12:46:18Z</time></trkpt><trkpt lat="42.60540115641401" lon="12.715019961420616"><ele>582.0</ele><time>2026-04-11T12:46:19Z</time></trkpt><trkpt lat="42.60534338287984" lon="12.715076938127588"><ele>582.0</ele><time>2026-04-11T12:46:20Z</time></trkpt><trkpt lat="42.60526739514831" lon="12.715134126663587"><ele>583.5</ele><time>2026-04-11T12:46:21Z</time></trkpt><trkpt lat="42.605199481218946" lon="12.715159956359022"><ele>585.0</ele><time>2026-04-11T12:46:22Z</time></trkpt><trkpt lat="42.605128744233916" lon="12.715156128064319"><ele>586.5</ele><time>2026-04-11T12:46:23Z</time></trkpt><trkpt lat="42.60504418597243" lon="12.71515373267687"><ele>588.0</ele><time>2026-04-11T12:46:24Z</time></trkpt><trkpt lat="42.604974425533676" lon="12.715136543114465"><ele>589.5</ele><time>2026-04-11T12:46:25Z</time></trkpt><trkpt lat="42.60483843747034" lon="12.715104192795161"><ele>591.0</ele><time>2026-04-11T12:46:27Z</time></trkpt><trkpt lat="42.604756675483706" lon="12.715102245607081"><ele>591.0</ele><time>2026-04-11T12:46:28Z</time></trkpt><trkpt lat="42.60468265481642" lon="12.715105583068583"><ele>591.0</ele><time>2026-04-11T12:46:29Z</time></trkpt><trkpt lat="42.60460677153365" lon="12.715114442858843"><ele>591.0</ele><time>2026-04-11T12:46:30Z</time></trkpt><trkpt lat="42.60453673102767" lon="12.715109723474177"><ele>591.0</ele><time>2026-04-11T12:46:31Z</time></trkpt><trkpt lat="42.604473189117606" lon="12.715098065072477"><ele>591.0</ele><time>2026-04-11T12:46:32Z</time></trkpt><trkpt lat="42.604393866805566" lon="12.715099416059969"><ele>591.0</ele><time>2026-04-11T12:46:33Z</time></trkpt><trkpt lat="42.60428489674895" lon="12.715087261140454"><ele>589.3333333333334</ele><time>2026-04-11T12:46:35Z</time></trkpt><trkpt lat="42.604155546846506" lon="12.715049451779503"><ele>587.6666666666666</ele><time>2026-04-11T12:46:37Z</time></trkpt><trkpt lat="42.604077531744316" lon="12.715011262206279"><ele>586.0</ele><time>2026-04-11T12:46:38Z</time></trkpt><trkpt lat="42.60400333087176" lon="12.71496652623344"><ele>584.3333333333333</ele><time>2026-04-11T12:46:39Z</time></trkpt><trkpt lat="42.60393906974617" lon="12.714921139373907"><ele>582.6666666666666</ele><time>2026-04-11T12:46:40Z</time></trkpt><trkpt lat="42.603875157273784" lon="12.7148685202654"><ele>581.0</ele><time>2026-04-11T12:46:41Z</time></trkpt><trkpt lat="42.60381592634483" lon="12.714798563083757"><ele>581.0</ele><time>2026-04-11T12:46:42Z</time></trkpt><trkpt lat="42.60373334058944" lon="12.714718818181968"><ele>581.0</ele><time>2026-04-11T12:46:43Z</time></trkpt><trkpt lat="42.603675570246075" lon="12.714629764223368"><ele>581.0</ele><time>2026-04-11T12:46:44Z</time></trkpt><trkpt lat="42.60361358572421" lon="12.714541721964357"><ele>581.0</ele><time>2026-04-11T12:46:45Z</time></trkpt><trkpt lat="42.60355971099836" lon="12.714462322074386"><ele>581.0</ele><time>2026-04-11T12:46:46.001Z</time></trkpt><trkpt lat="42.603506798854056" lon="12.71439369380813"><ele>581.0</ele><time>2026-04-11T12:46:47.001Z</time></trkpt><trkpt lat="42.60345561122201" lon="12.714321490167688"><ele>579.3333333333333</ele><time>2026-04-11T12:46:48.001Z</time></trkpt><trkpt lat="42.60339727714238" lon="12.71423824642528"><ele>577.6666666666666</ele><time>2026-04-11T12:46:49.001Z</time></trkpt><trkpt lat="42.60334286298917" lon="12.714148370046262"><ele>576.0</ele><time>2026-04-11T12:46:50.001Z</time></trkpt><trkpt lat="42.60329921548857" lon="12.714075691088949"><ele>574.3333333333334</ele><time>2026-04-11T12:46:51.001Z</time></trkpt><trkpt lat="42.60324764701865" lon="12.714004176809594"><ele>572.6666666666667</ele><time>2026-04-11T12:46:52.001Z</time></trkpt><trkpt lat="42.60320916075612" lon="12.713922748635012"><ele>571.0</ele><time>2026-04-11T12:46:53.001Z</time></trkpt><trkpt lat="42.603188161884376" lon="12.713806028055453"><ele>571.0</ele><time>2026-04-11T12:46:54.001Z</time></trkpt><trkpt lat="42.603179298365916" lon="12.713681236190748"><ele>571.0</ele><time>2026-04-11T12:46:55.001Z</time></trkpt><trkpt lat="42.603175052408645" lon="12.713542645818267"><ele>571.0</ele><time>2026-04-11T12:46:56.001Z</time></trkpt><trkpt lat="42.60317946731627" lon="12.71340269741018"><ele>571.0</ele><time>2026-04-11T12:46:57.001Z</time></trkpt><trkpt lat="42.60317124222223" lon="12.713264859867072"><ele>571.0</ele><time>2026-04-11T12:46:58.001Z</time></trkpt><trkpt lat="42.60314110846513" lon="12.71311691322008"><ele>572.8</ele><time>2026-04-11T12:46:59.001Z</time></trkpt><trkpt lat="42.60309215470647" lon="12.712992557386292"><ele>574.6</ele><time>2026-04-11T12:47:00.001Z</time></trkpt><trkpt lat="42.60304873874982" lon="12.71288271137859"><ele>576.4</ele><time>2026-04-11T12:47:01.001Z</time></trkpt><trkpt lat="42.60300507155145" lon="12.712780544476116"><ele>578.2</ele><time>2026-04-11T12:47:02.001Z</time></trkpt><trkpt lat="42.60296462441036" lon="12.71269523805465"><ele>580.0</ele><time>2026-04-11T12:47:03.001Z</time></trkpt><trkpt lat="42.60292132040449" lon="12.712578915146587"><ele>581.6666666666667</ele><time>2026-04-11T12:47:04.001Z</time></trkpt><trkpt lat="42.60289220761894" lon="12.71247050809586"><ele>583.3333333333334</ele><time>2026-04-11T12:47:05.001Z</time></trkpt><trkpt lat="42.60285151330312" lon="12.712365705475007"><ele>585.0</ele><time>2026-04-11T12:47:06.001Z</time></trkpt><trkpt lat="42.60281934453232" lon="12.712262768735355"><ele>586.6666666666666</ele><time>2026-04-11T12:47:07.001Z</time></trkpt><trkpt lat="42.602807458996836" lon="12.712143617255087"><ele>588.3333333333333</ele><time>2026-04-11T12:47:08.001Z</time></trkpt><trkpt lat="42.602770517884316" lon="12.712026888642052"><ele>590.0</ele><time>2026-04-11T12:47:09.001Z</time></trkpt><trkpt lat="42.60271433391973" lon="12.711922077572291"><ele>585.1666666666666</ele><time>2026-04-11T12:47:10.001Z</time></trkpt><trkpt lat="42.6026433235032" lon="12.71183694178915"><ele>580.3333333333333</ele><time>2026-04-11T12:47:11.001Z</time></trkpt><trkpt lat="42.60259024341808" lon="12.711766849978709"><ele>575.5</ele><time>2026-04-11T12:47:12.001Z</time></trkpt><trkpt lat="42.602521787520715" lon="12.71170204077042"><ele>570.6666666666666</ele><time>2026-04-11T12:47:13.001Z</time></trkpt><trkpt lat="42.602464046096564" lon="12.711624474264253"><ele>565.8333333333334</ele><time>2026-04-11T12:47:14.001Z</time></trkpt><trkpt lat="42.60239364987231" lon="12.711542064969635"><ele>561.0</ele><time>2026-04-11T12:47:15.001Z</time></trkpt><trkpt lat="42.60231926965433" lon="12.711463552089585"><ele>561.0</ele><time>2026-04-11T12:47:16.001Z</time></trkpt><trkpt lat="42.60226021563671" lon="12.711375176698333"><ele>561.0</ele><time>2026-04-11T12:47:17.001Z</time></trkpt><trkpt lat="42.60220459469563" lon="12.711276085339096"><ele>561.0</ele><time>2026-04-11T12:47:18.001Z</time></trkpt><trkpt lat="42.60216093534257" lon="12.711150059473832"><ele>561.0</ele><time>2026-04-11T12:47:19.001Z</time></trkpt><trkpt lat="42.60214371441005" lon="12.71098683005041"><ele>561.0</ele><time>2026-04-11T12:47:20.001Z</time></trkpt><trkpt lat="42.60210690607585" lon="12.710839768300307"><ele>563.8</ele><time>2026-04-11T12:47:21.001Z</time></trkpt><trkpt lat="42.60207755344031" lon="12.710691283868455"><ele>566.6</ele><time>2026-04-11T12:47:22.001Z</time></trkpt><trkpt lat="42.60206016538501" lon="12.71056266460453"><ele>569.4</ele><time>2026-04-11T12:47:23.001Z</time></trkpt><trkpt lat="42.60202848546095" lon="12.710422112840144"><ele>572.2</ele><time>2026-04-11T12:47:24.001Z</time></trkpt><trkpt lat="42.60200863707905" lon="12.71028470202451"><ele>575.0</ele><time>2026-04-11T12:47:25.001Z</time></trkpt><trkpt lat="42.601981350261674" lon="12.710146750103831"><ele>566.2</ele><time>2026-04-11T12:47:26.001Z</time></trkpt><trkpt lat="42.60195114790606" lon="12.71001359525458"><ele>557.4</ele><time>2026-04-11T12:47:27.001Z</time></trkpt><trkpt lat="42.601930076592154" lon="12.709886825409308"><ele>548.6</ele><time>2026-04-11T12:47:28.001Z</time></trkpt><trkpt lat="42.60190640880029" lon="12.709762432659925"><ele>539.8</ele><time>2026-04-11T12:47:29.001Z</time></trkpt><trkpt lat="42.601857696657696" lon="12.709637642311174"><ele>531.0</ele><time>2026-04-11T12:47:30.001Z</time></trkpt><trkpt lat="42.601779832822906" lon="12.709528279670584"><ele>531.0</ele><time>2026-04-11T12:47:31.001Z</time></trkpt><trkpt lat="42.60169016328" lon="12.70942939565349"><ele>531.0</ele><time>2026-04-11T12:47:32.001Z</time></trkpt><trkpt lat="42.60157807067327" lon="12.709343732065363"><ele>531.0</ele><time>2026-04-11T12:47:33.001Z</time></trkpt><trkpt lat="42.60145253434287" lon="12.709271767990886"><ele>531.0</ele><time>2026-04-11T12:47:34.001Z</time></trkpt><trkpt lat="42.60132936424958" lon="12.709190150563884"><ele>529.0</ele><time>2026-04-11T12:47:35.001Z</time></trkpt><trkpt lat="42.60121374333832" lon="12.709112052795339"><ele>527.0</ele><time>2026-04-11T12:47:36.001Z</time></trkpt><trkpt lat="42.60110584183495" lon="12.70903137133082"><ele>525.0</ele><time>2026-04-11T12:47:37.001Z</time></trkpt><trkpt lat="42.600992234583224" lon="12.708953120845532"><ele>523.0</ele><time>2026-04-11T12:47:38.001Z</time></trkpt><trkpt lat="42.600884430786785" lon="12.708873063331465"><ele>523.0</ele><time>2026-04-11T12:47:39.001Z</time></trkpt><trkpt lat="42.60077517578274" lon="12.708794713935319"><ele>523.0</ele><time>2026-04-11T12:47:40.001Z</time></trkpt><trkpt lat="42.60066946117117" lon="12.708715415649525"><ele>523.0</ele><time>2026-04-11T12:47:41.001Z</time></trkpt><trkpt lat="42.600569082710905" lon="12.708632406482929"><ele>523.0</ele><time>2026-04-11T12:47:42.001Z</time></trkpt><trkpt lat="42.60046999070698" lon="12.708558324796888"><ele>523.5</ele><time>2026-04-11T12:47:43.001Z</time></trkpt><trkpt lat="42.600372109908555" lon="12.708483884213981"><ele>524.0</ele><time>2026-04-11T12:47:44.001Z</time></trkpt><trkpt lat="42.60026816400606" lon="12.70840912330209"><ele>524.5</ele><time>2026-04-11T12:47:45.001Z</time></trkpt><trkpt lat="42.60016432223063" lon="12.708332599734321"><ele>525.0</ele><time>2026-04-11T12:47:46.001Z</time></trkpt><trkpt lat="42.600058958128045" lon="12.70825369991709"><ele>525.0</ele><time>2026-04-11T12:47:47.001Z</time></trkpt><trkpt lat="42.599957202176846" lon="12.708180898854403"><ele>525.0</ele><time>2026-04-11T12:47:48.001Z</time></trkpt><trkpt lat="42.59985185380671" lon="12.70812297496731"><ele>525.0</ele><time>2026-04-11T12:47:49.001Z</time></trkpt><trkpt lat="42.59973690991747" lon="12.708077938753782"><ele>525.0</ele><time>2026-04-11T12:47:50.001Z</time></trkpt><trkpt lat="42.59961790668685" lon="12.708042043119598"><ele>519.25</ele><time>2026-04-11T12:47:51.001Z</time></trkpt><trkpt lat="42.59949180120477" lon="12.708007420543618"><ele>513.5</ele><time>2026-04-11T12:47:52.001Z</time></trkpt><trkpt lat="42.59937268678151" lon="12.70797094599551"><ele>507.75</ele><time>2026-04-11T12:47:53.001Z</time></trkpt><trkpt lat="42.59925958338714" lon="12.70792341631926"><ele>502.0</ele><time>2026-04-11T12:47:54.001Z</time></trkpt><trkpt lat="42.59915692128371" lon="12.707867779374055"><ele>502.0</ele><time>2026-04-11T12:47:55.001Z</time></trkpt><trkpt lat="42.599054728542136" lon="12.707788921215796"><ele>502.0</ele><time>2026-04-11T12:47:56.001Z</time></trkpt><trkpt lat="42.598952484817985" lon="12.70769256762961"><ele>502.0</ele><time>2026-04-11T12:47:57.001Z</time></trkpt><trkpt lat="42.59886083438331" lon="12.707598631503531"><ele>502.0</ele><time>2026-04-11T12:47:58.001Z</time></trkpt><trkpt lat="42.59876826416958" lon="12.707502343965364"><ele>502.5</ele><time>2026-04-11T12:47:59.001Z</time></trkpt><trkpt lat="42.59866412343763" lon="12.707422312318025"><ele>503.0</ele><time>2026-04-11T12:48:00.002Z</time></trkpt><trkpt lat="42.59854876739942" lon="12.707346704877038"><ele>503.5</ele><time>2026-04-11T12:48:01.002Z</time></trkpt><trkpt lat="42.598428256352015" lon="12.707293381231151"><ele>504.0</ele><time>2026-04-11T12:48:02.002Z</time></trkpt><trkpt lat="42.59831431766108" lon="12.707227259390045"><ele>504.0</ele><time>2026-04-11T12:48:03.002Z</time></trkpt><trkpt lat="42.59819631530463" lon="12.707181708790873"><ele>504.0</ele><time>2026-04-11T12:48:04.002Z</time></trkpt><trkpt lat="42.59808213162142" lon="12.707134862689323"><ele>504.0</ele><time>2026-04-11T12:48:05.002Z</time></trkpt><trkpt lat="42.597961928923034" lon="12.70710038360346"><ele>504.0</ele><time>2026-04-11T12:48:06.002Z</time></trkpt><trkpt lat="42.5978561635606" lon="12.707017240528076"><ele>505.25</ele><time>2026-04-11T12:48:07.002Z</time></trkpt><trkpt lat="42.59775224681145" lon="12.706957751706097"><ele>506.5</ele><time>2026-04-11T12:48:08.002Z</time></trkpt><trkpt lat="42.59764899276097" lon="12.706906073812142"><ele>507.75</ele><time>2026-04-11T12:48:09.002Z</time></trkpt><trkpt lat="42.59753554639088" lon="12.706879545182172"><ele>509.0</ele><time>2026-04-11T12:48:10.002Z</time></trkpt><trkpt lat="42.59741789350273" lon="12.706829502909587"><ele>509.0</ele><time>2026-04-11T12:48:11Z</time></trkpt><trkpt lat="42.59730198934766" lon="12.706778134836743"><ele>509.0</ele><time>2026-04-11T12:48:12Z</time></trkpt><trkpt lat="42.59719363964597" lon="12.706714181958594"><ele>509.0</ele><time>2026-04-11T12:48:13.001Z</time></trkpt><trkpt lat="42.597094684943784" lon="12.70665291508351"><ele>509.0</ele><time>2026-04-11T12:48:14Z</time></trkpt><trkpt lat="42.59700333847137" lon="12.706591934737867"><ele>505.49999999999994</ele><time>2026-04-11T12:48:15Z</time></trkpt><trkpt lat="42.59691916974517" lon="12.706532862902806"><ele>502.0</ele><time>2026-04-11T12:48:16Z</time></trkpt><trkpt lat="42.59684201587218" lon="12.706475119214856"><ele>498.5</ele><time>2026-04-11T12:48:17Z</time></trkpt><trkpt lat="42.59677886329524" lon="12.706424640356987"><ele>495.0</ele><time>2026-04-11T12:48:18Z</time></trkpt><trkpt lat="42.59673066434137" lon="12.706364235860296"><ele>491.49999999999994</ele><time>2026-04-11T12:48:19.001Z</time></trkpt><trkpt lat="42.59672823057922" lon="12.706203675334613"><ele>488.0</ele><time>2026-04-11T12:48:21Z</time></trkpt><trkpt lat="42.59678164654966" lon="12.70612855430263"><ele>487.99999999999994</ele><time>2026-04-11T12:48:22Z</time></trkpt><trkpt lat="42.59686428973494" lon="12.706089133304795"><ele>488.0</ele><time>2026-04-11T12:48:23Z</time></trkpt><trkpt lat="42.59693725644629" lon="12.706043033270948"><ele>488.0</ele><time>2026-04-11T12:48:24Z</time></trkpt><trkpt lat="42.59700888765839" lon="12.705996543406037"><ele>488.0</ele><time>2026-04-11T12:48:25Z</time></trkpt><trkpt lat="42.59707307290941" lon="12.70595222864109"><ele>487.99999999999994</ele><time>2026-04-11T12:48:26.001Z</time></trkpt><trkpt lat="42.59713685591498" lon="12.705907451657337"><ele>488.0</ele><time>2026-04-11T12:48:27.001Z</time></trkpt><trkpt lat="42.59719526089597" lon="12.70586758053028"><ele>490.16666666666663</ele><time>2026-04-11T12:48:28.001Z</time></trkpt><trkpt lat="42.59725397871046" lon="12.705831683039944"><ele>492.3333333333333</ele><time>2026-04-11T12:48:29.001Z</time></trkpt><trkpt lat="42.597305416742614" lon="12.70578019538016"><ele>494.5</ele><time>2026-04-11T12:48:30.001Z</time></trkpt><trkpt lat="42.597414828605935" lon="12.705748676662946"><ele>496.66666666666663</ele><time>2026-04-11T12:48:32.001Z</time></trkpt><trkpt lat="42.597456304154484" lon="12.70563764619454"><ele>498.8333333333333</ele><time>2026-04-11T12:48:34.001Z</time></trkpt><trkpt lat="42.597382083639786" lon="12.705571532459691"><ele>501.0</ele><time>2026-04-11T12:48:36.001Z</time></trkpt><trkpt lat="42.597263079370954" lon="12.705656046442499"><ele>501.0</ele><time>2026-04-11T12:48:38.001Z</time></trkpt><trkpt lat="42.59718665920578" lon="12.705707116627204"><ele>501.0</ele><time>2026-04-11T12:48:39.001Z</time></trkpt><trkpt lat="42.597107640946156" lon="12.70574227781458"><ele>501.0</ele><time>2026-04-11T12:48:40.001Z</time></trkpt><trkpt lat="42.597038457309566" lon="12.705772659684055"><ele>501.0</ele><time>2026-04-11T12:48:41.001Z</time></trkpt><trkpt lat="42.596965199033775" lon="12.705805578383144"><ele>501.0</ele><time>2026-04-11T12:48:42.001Z</time></trkpt><trkpt lat="42.5968916046909" lon="12.705838605989088"><ele>501.0</ele><time>2026-04-11T12:48:43.001Z</time></trkpt><trkpt lat="42.596815169450124" lon="12.705871490346047"><ele>498.3333333333333</ele><time>2026-04-11T12:48:44.001Z</time></trkpt><trkpt lat="42.59673192819003" lon="12.705895836655456"><ele>495.66666666666663</ele><time>2026-04-11T12:48:45.001Z</time></trkpt><trkpt lat="42.59664622128472" lon="12.705911696521321"><ele>493.0</ele><time>2026-04-11T12:48:46.001Z</time></trkpt><trkpt lat="42.596565327452176" lon="12.705927950284737"><ele>490.3333333333333</ele><time>2026-04-11T12:48:47.001Z</time></trkpt><trkpt lat="42.59649497508115" lon="12.705946054850589"><ele>487.66666666666663</ele><time>2026-04-11T12:48:48.001Z</time></trkpt><trkpt lat="42.59641085358161" lon="12.705963491416718"><ele>485.0</ele><time>2026-04-11T12:48:49.001Z</time></trkpt><trkpt lat="42.596331012433595" lon="12.70598394518858"><ele>484.99999999999994</ele><time>2026-04-11T12:48:50.001Z</time></trkpt><trkpt lat="42.59624724487678" lon="12.705990222869325"><ele>485.0</ele><time>2026-04-11T12:48:51.001Z</time></trkpt><trkpt lat="42.59616969309472" lon="12.705989511260649"><ele>485.0</ele><time>2026-04-11T12:48:52.001Z</time></trkpt><trkpt lat="42.59608803746274" lon="12.706006527380616"><ele>485.0</ele><time>2026-04-11T12:48:53.001Z</time></trkpt><trkpt lat="42.59600578445754" lon="12.706000717466077"><ele>484.99999999999994</ele><time>2026-04-11T12:48:54.001Z</time></trkpt><trkpt lat="42.59592736073773" lon="12.705989152240154"><ele>485.0</ele><time>2026-04-11T12:48:55.001Z</time></trkpt><trkpt lat="42.59584567430852" lon="12.70597684533547"><ele>483.3333333333333</ele><time>2026-04-11T12:48:56.001Z</time></trkpt><trkpt lat="42.595765943381394" lon="12.705967563785851"><ele>481.66666666666663</ele><time>2026-04-11T12:48:57.001Z</time></trkpt><trkpt lat="42.5956838864598" lon="12.705949224516628"><ele>480.0</ele><time>2026-04-11T12:48:58.001Z</time></trkpt><trkpt lat="42.59560388873964" lon="12.70592148942797"><ele>478.33333333333337</ele><time>2026-04-11T12:48:59.001Z</time></trkpt><trkpt lat="42.59552445937165" lon="12.705886069930598"><ele>476.6666666666667</ele><time>2026-04-11T12:49:00.001Z</time></trkpt><trkpt lat="42.59545329995949" lon="12.705847134271892"><ele>475.0</ele><time>2026-04-11T12:49:01.001Z</time></trkpt><trkpt lat="42.59538135528487" lon="12.705809569608371"><ele>473.83333333333337</ele><time>2026-04-11T12:49:02.001Z</time></trkpt><trkpt lat="42.595307516463556" lon="12.705785223783913"><ele>472.6666666666667</ele><time>2026-04-11T12:49:03.001Z</time></trkpt><trkpt lat="42.595239586236765" lon="12.70577263484567"><ele>471.5</ele><time>2026-04-11T12:49:04.001Z</time></trkpt><trkpt lat="42.59513728424284" lon="12.705752201399958"><ele>470.33333333333337</ele><time>2026-04-11T12:49:06.001Z</time></trkpt><trkpt lat="42.595077935811595" lon="12.705801726845527"><ele>469.1666666666667</ele><time>2026-04-11T12:49:08.001Z</time></trkpt><trkpt lat="42.595102985721944" lon="12.705951419576163"><ele>468.0</ele><time>2026-04-11T12:49:10.001Z</time></trkpt><trkpt lat="42.595198500413524" lon="12.706020337584055"><ele>468.5</ele><time>2026-04-11T12:49:11.001Z</time></trkpt><trkpt lat="42.595278317606926" lon="12.706085354395814"><ele>469.0</ele><time>2026-04-11T12:49:12.001Z</time></trkpt><trkpt lat="42.59537874862376" lon="12.706166668794008"><ele>469.5</ele><time>2026-04-11T12:49:13.001Z</time></trkpt><trkpt lat="42.59548954865183" lon="12.706253535859227"><ele>470.0</ele><time>2026-04-11T12:49:14.001Z</time></trkpt><trkpt lat="42.59560563049165" lon="12.706331053668354"><ele>470.0</ele><time>2026-04-11T12:49:15.001Z</time></trkpt><trkpt lat="42.59570540941658" lon="12.706430588982718"><ele>470.0</ele><time>2026-04-11T12:49:16.001Z</time></trkpt><trkpt lat="42.59579783177881" lon="12.706526767308945"><ele>470.0</ele><time>2026-04-11T12:49:17.001Z</time></trkpt><trkpt lat="42.59588222505735" lon="12.706629290750808"><ele>470.0</ele><time>2026-04-11T12:49:18.001Z</time></trkpt><trkpt lat="42.595964693460786" lon="12.706716766058895"><ele>470.0</ele><time>2026-04-11T12:49:19.001Z</time></trkpt><trkpt lat="42.596052562588476" lon="12.706803041043896"><ele>470.0</ele><time>2026-04-11T12:49:20.001Z</time></trkpt><trkpt lat="42.5961295149589" lon="12.706884612982634"><ele>470.0</ele><time>2026-04-11T12:49:21.001Z</time></trkpt><trkpt lat="42.5962078579006" lon="12.70696186565189"><ele>470.0</ele><time>2026-04-11T12:49:22.001Z</time></trkpt><trkpt lat="42.59628193341066" lon="12.707027451965516"><ele>470.0</ele><time>2026-04-11T12:49:23.001Z</time></trkpt><trkpt lat="42.59635862539602" lon="12.70710333717437"><ele>467.6</ele><time>2026-04-11T12:49:24.001Z</time></trkpt><trkpt lat="42.59643914611848" lon="12.70717561052"><ele>465.2</ele><time>2026-04-11T12:49:25.001Z</time></trkpt><trkpt lat="42.59652039298488" lon="12.707254480588817"><ele>462.79999999999995</ele><time>2026-04-11T12:49:26.001Z</time></trkpt><trkpt lat="42.5966044549011" lon="12.70735106772251"><ele>460.4</ele><time>2026-04-11T12:49:27.001Z</time></trkpt><trkpt lat="42.59669930892278" lon="12.70744315401136"><ele>458.0</ele><time>2026-04-11T12:49:28.001Z</time></trkpt><trkpt lat="42.59679807192547" lon="12.707535287839786"><ele>458.0</ele><time>2026-04-11T12:49:29.001Z</time></trkpt><trkpt lat="42.596909661833145" lon="12.707612495719545"><ele>458.0</ele><time>2026-04-11T12:49:30.001Z</time></trkpt><trkpt lat="42.59701190330256" lon="12.707688790238274"><ele>458.0</ele><time>2026-04-11T12:49:31.001Z</time></trkpt><trkpt lat="42.5971104703936" lon="12.707750467031039"><ele>458.0</ele><time>2026-04-11T12:49:32.001Z</time></trkpt><trkpt lat="42.59720673589695" lon="12.707798265635269"><ele>456.0</ele><time>2026-04-11T12:49:33.001Z</time></trkpt><trkpt lat="42.59730043547699" lon="12.70785173303543"><ele>453.99999999999994</ele><time>2026-04-11T12:49:34.001Z</time></trkpt><trkpt lat="42.597385537183335" lon="12.707911024211466"><ele>451.99999999999994</ele><time>2026-04-11T12:49:35.001Z</time></trkpt><trkpt lat="42.597474681859495" lon="12.7079692939752"><ele>450.0</ele><time>2026-04-11T12:49:36.001Z</time></trkpt><trkpt lat="42.597559689926506" lon="12.70801428877876"><ele>448.0</ele><time>2026-04-11T12:49:37.001Z</time></trkpt><trkpt lat="42.597636173648375" lon="12.708053477464777"><ele>448.0</ele><time>2026-04-11T12:49:38.001Z</time></trkpt><trkpt lat="42.5977025263283" lon="12.708090826073818"><ele>448.0</ele><time>2026-04-11T12:49:39.001Z</time></trkpt><trkpt lat="42.597784015688184" lon="12.708156273834131"><ele>448.0</ele><time>2026-04-11T12:49:41.001Z</time></trkpt><trkpt lat="42.59784960667985" lon="12.708184252622369"><ele>448.0</ele><time>2026-04-11T12:49:45.001Z</time></trkpt><trkpt lat="42.59791909937631" lon="12.708238307962928"><ele>448.0</ele><time>2026-04-11T12:49:49.002Z</time></trkpt><trkpt lat="42.59797651551213" lon="12.708280099753061"><ele>448.0</ele><time>2026-04-11T12:49:52.002Z</time></trkpt><trkpt lat="42.598031035537026" lon="12.70832603795763"><ele>448.0</ele><time>2026-04-11T12:49:56.002Z</time></trkpt><trkpt lat="42.59809038502122" lon="12.708395045582767"><ele>447.00000000000006</ele><time>2026-04-11T12:50:10.002Z</time></trkpt><trkpt lat="42.598153853780225" lon="12.708499735880778"><ele>446.0</ele><time>2026-04-11T12:50:12.002Z</time></trkpt><trkpt lat="42.59819609775162" lon="12.708619760634157"><ele>445.0</ele><time>2026-04-11T12:50:14.002Z</time></trkpt><trkpt lat="42.598223697529995" lon="12.708698823302376"><ele>444.0</ele><time>2026-04-11T12:50:15.002Z</time></trkpt><trkpt lat="42.598252125572216" lon="12.708780258628245"><ele>443.00000000000006</ele><time>2026-04-11T12:50:16.002Z</time></trkpt><trkpt lat="42.5982830672939" lon="12.708868407516599"><ele>442.0</ele><time>2026-04-11T12:50:17.001Z</time></trkpt><trkpt lat="42.59831477928507" lon="12.708956362971383"><ele>442.00000000000006</ele><time>2026-04-11T12:50:18.001Z</time></trkpt><trkpt lat="42.59834891545299" lon="12.709044951650787"><ele>442.0</ele><time>2026-04-11T12:50:19.001Z</time></trkpt><trkpt lat="42.598388679011066" lon="12.709130804571155"><ele>442.0</ele><time>2026-04-11T12:50:20.001Z</time></trkpt><trkpt lat="42.598427935958796" lon="12.709201695878514"><ele>442.0</ele><time>2026-04-11T12:50:21.001Z</time></trkpt><trkpt lat="42.59847684834432" lon="12.709269500682828"><ele>442.0</ele><time>2026-04-11T12:50:22.001Z</time></trkpt><trkpt lat="42.598530038010146" lon="12.709328323370102"><ele>442.00000000000006</ele><time>2026-04-11T12:50:23.001Z</time></trkpt><trkpt lat="42.59859551844804" lon="12.709381986403194"><ele>442.0</ele><time>2026-04-11T12:50:24.001Z</time></trkpt><trkpt lat="42.59867403747233" lon="12.709418431809206"><ele>440.50000000000006</ele><time>2026-04-11T12:50:25.001Z</time></trkpt><trkpt lat="42.59876347046642" lon="12.709434580116405"><ele>439.0</ele><time>2026-04-11T12:50:26.001Z</time></trkpt><trkpt lat="42.598842210447046" lon="12.709432308025692"><ele>437.5</ele><time>2026-04-11T12:50:27.001Z</time></trkpt><trkpt lat="42.59892158049088" lon="12.709450580072765"><ele>436.0</ele><time>2026-04-11T12:50:28.001Z</time></trkpt><trkpt lat="42.59899517905364" lon="12.709495583144633"><ele>434.50000000000006</ele><time>2026-04-11T12:50:29.001Z</time></trkpt><trkpt lat="42.5990733402792" lon="12.709530142532182"><ele>433.0</ele><time>2026-04-11T12:50:30.001Z</time></trkpt><trkpt lat="42.59917344457434" lon="12.709572461955334"><ele>433.0</ele><time>2026-04-11T12:50:31.001Z</time></trkpt><trkpt lat="42.599265097788646" lon="12.709617854516287"><ele>432.99999999999994</ele><time>2026-04-11T12:50:32.001Z</time></trkpt><trkpt lat="42.5993471089954" lon="12.709700818497176"><ele>432.99999999999994</ele><time>2026-04-11T12:50:33.001Z</time></trkpt><trkpt lat="42.59943219575236" lon="12.709773187520268"><ele>433.0</ele><time>2026-04-11T12:50:34.001Z</time></trkpt><trkpt lat="42.599519712777145" lon="12.709840688109225"><ele>433.0</ele><time>2026-04-11T12:50:35.001Z</time></trkpt><trkpt lat="42.59959945948507" lon="12.709927952866186"><ele>432.6666666666667</ele><time>2026-04-11T12:50:36.001Z</time></trkpt><trkpt lat="42.59966343603177" lon="12.710015983749742"><ele>432.33333333333337</ele><time>2026-04-11T12:50:37.001Z</time></trkpt><trkpt lat="42.59971970704693" lon="12.710093116021817"><ele>432.0</ele><time>2026-04-11T12:50:38.001Z</time></trkpt><trkpt lat="42.59977030818688" lon="12.710164189004331"><ele>431.66666666666663</ele><time>2026-04-11T12:50:39.001Z</time></trkpt><trkpt lat="42.599820565941215" lon="12.710241386066238"><ele>431.3333333333333</ele><time>2026-04-11T12:50:40.001Z</time></trkpt><trkpt lat="42.599878968159665" lon="12.710317511552844"><ele>431.0</ele><time>2026-04-11T12:50:41.001Z</time></trkpt><trkpt lat="42.599938509802875" lon="12.710401339940681"><ele>430.99999999999994</ele><time>2026-04-11T12:50:42.001Z</time></trkpt><trkpt lat="42.599994616789445" lon="12.710482572544295"><ele>431.0</ele><time>2026-04-11T12:50:43.001Z</time></trkpt><trkpt lat="42.60006697161722" lon="12.710557272805799"><ele>431.0</ele><time>2026-04-11T12:50:44.001Z</time></trkpt><trkpt lat="42.60012820347823" lon="12.710630100526675"><ele>431.0</ele><time>2026-04-11T12:50:45.001Z</time></trkpt><trkpt lat="42.60019613878816" lon="12.71067879943265"><ele>430.99999999999994</ele><time>2026-04-11T12:50:46.001Z</time></trkpt><trkpt lat="42.60025332877697" lon="12.710723103781692"><ele>431.0</ele><time>2026-04-11T12:50:47.001Z</time></trkpt><trkpt lat="42.60034450127229" lon="12.710793933462922"><ele>436.3333333333333</ele><time>2026-04-11T12:50:49.001Z</time></trkpt><trkpt lat="42.60040038971496" lon="12.710882821131333"><ele>441.66666666666663</ele><time>2026-04-11T12:50:52.001Z</time></trkpt><trkpt lat="42.60038249323878" lon="12.710992831733543"><ele>447.0</ele><time>2026-04-11T12:50:53.001Z</time></trkpt><trkpt lat="42.60043027694562" lon="12.71109846865113"><ele>452.33333333333337</ele><time>2026-04-11T12:50:54.001Z</time></trkpt><trkpt lat="42.60045168019139" lon="12.711206245758456"><ele>457.6666666666667</ele><time>2026-04-11T12:50:55.001Z</time></trkpt><trkpt lat="42.600473527133545" lon="12.7113094994423"><ele>463.0</ele><time>2026-04-11T12:50:56.001Z</time></trkpt><trkpt lat="42.60047672576439" lon="12.711425687456973"><ele>463.00000000000006</ele><time>2026-04-11T12:50:57.001Z</time></trkpt><trkpt lat="42.60047168296207" lon="12.711520068378995"><ele>463.0</ele><time>2026-04-11T12:50:58.001Z</time></trkpt><trkpt lat="42.600457372939246" lon="12.711613145140037"><ele>463.0</ele><time>2026-04-11T12:50:59.001Z</time></trkpt><trkpt lat="42.6004576221099" lon="12.711738216216956"><ele>463.0</ele><time>2026-04-11T12:51:00.001Z</time></trkpt><trkpt lat="42.60044728886255" lon="12.711862648223182"><ele>463.00000000000006</ele><time>2026-04-11T12:51:01.001Z</time></trkpt><trkpt lat="42.60045008420266" lon="12.711961391741696"><ele>463.0</ele><time>2026-04-11T12:51:02.001Z</time></trkpt><trkpt lat="42.60047065573873" lon="12.712064039179426"><ele>460.4</ele><time>2026-04-11T12:51:03.001Z</time></trkpt><trkpt lat="42.60047971541554" lon="12.712207351530898"><ele>457.79999999999995</ele><time>2026-04-11T12:51:05.001Z</time></trkpt><trkpt lat="42.60050946343828" lon="12.712297743824113"><ele>455.2</ele><time>2026-04-11T12:51:07.001Z</time></trkpt><trkpt lat="42.60063816839804" lon="12.712412706917682"><ele>452.6</ele><time>2026-04-11T12:51:09.001Z</time></trkpt><trkpt lat="42.60070289439237" lon="12.712482240512134"><ele>450.0</ele><time>2026-04-11T12:51:10.001Z</time></trkpt><trkpt lat="42.600776573644204" lon="12.712543327402985"><ele>450.0</ele><time>2026-04-11T12:51:11.001Z</time></trkpt><trkpt lat="42.6008404837313" lon="12.71261560025198"><ele>450.0</ele><time>2026-04-11T12:51:12.001Z</time></trkpt><trkpt lat="42.600897247111654" lon="12.712672501657998"><ele>450.0</ele><time>2026-04-11T12:51:13.001Z</time></trkpt><trkpt lat="42.60096824270466" lon="12.712726255698808"><ele>450.0</ele><time>2026-04-11T12:51:14.001Z</time></trkpt><trkpt lat="42.60102961199324" lon="12.712815943850952"><ele>450.0</ele><time>2026-04-11T12:51:15.001Z</time></trkpt><trkpt lat="42.60108513102075" lon="12.712857138823725"><ele>450.0</ele><time>2026-04-11T12:51:16.001Z</time></trkpt><trkpt lat="42.60114081764448" lon="12.712968304161768"><ele>456.6</ele><time>2026-04-11T12:51:18.001Z</time></trkpt><trkpt lat="42.60118544334993" lon="12.713084894955482"><ele>463.2</ele><time>2026-04-11T12:51:20.001Z</time></trkpt><trkpt lat="42.60121464754845" lon="12.713250867052436"><ele>469.79999999999995</ele><time>2026-04-11T12:51:22.001Z</time></trkpt><trkpt lat="42.601220397379" lon="12.713354823718452"><ele>476.4</ele><time>2026-04-11T12:51:23.001Z</time></trkpt><trkpt lat="42.60122299936224" lon="12.713445079029167"><ele>483.0</ele><time>2026-04-11T12:51:24.001Z</time></trkpt><trkpt lat="42.60124114192861" lon="12.713559469156932"><ele>482.8333333333333</ele><time>2026-04-11T12:51:25.001Z</time></trkpt><trkpt lat="42.601250826906146" lon="12.713671932497412"><ele>482.66666666666663</ele><time>2026-04-11T12:51:26.001Z</time></trkpt><trkpt lat="42.601251578860705" lon="12.713771236610011"><ele>482.5</ele><time>2026-04-11T12:51:27.001Z</time></trkpt><trkpt lat="42.60125861980584" lon="12.713858423109361"><ele>482.3333333333333</ele><time>2026-04-11T12:51:28.001Z</time></trkpt><trkpt lat="42.601249914565386" lon="12.713989288030568"><ele>482.16666666666663</ele><time>2026-04-11T12:51:29.001Z</time></trkpt><trkpt lat="42.60124421974197" lon="12.714114469031388"><ele>482.0</ele><time>2026-04-11T12:51:30.001Z</time></trkpt><trkpt lat="42.601211462241594" lon="12.71422730655248"><ele>481.99999999999994</ele><time>2026-04-11T12:51:31.001Z</time></trkpt><trkpt lat="42.60118937668138" lon="12.714341210890309"><ele>482.0</ele><time>2026-04-11T12:51:32.001Z</time></trkpt><trkpt lat="42.60116948257612" lon="12.714443813748407"><ele>482.0</ele><time>2026-04-11T12:51:33.001Z</time></trkpt><trkpt lat="42.60115029231418" lon="12.714542786271112"><ele>482.0</ele><time>2026-04-11T12:51:34.001Z</time></trkpt><trkpt lat="42.60113370029785" lon="12.71462835835527"><ele>481.99999999999994</ele><time>2026-04-11T12:51:35.001Z</time></trkpt><trkpt lat="42.601117432685164" lon="12.714731276087273"><ele>482.0</ele><time>2026-04-11T12:51:38.001Z</time></trkpt><trkpt lat="42.60110829708083" lon="12.714851466627273"><ele>481.8333333333333</ele><time>2026-04-11T12:51:40.001Z</time></trkpt><trkpt lat="42.601115587481026" lon="12.715038917061168"><ele>481.66666666666663</ele><time>2026-04-11T12:51:42.001Z</time></trkpt><trkpt lat="42.60113729299281" lon="12.715131042597756"><ele>481.5</ele><time>2026-04-11T12:51:43.001Z</time></trkpt><trkpt lat="42.6011753059516" lon="12.715230638458879"><ele>481.33333333333337</ele><time>2026-04-11T12:51:45.001Z</time></trkpt><trkpt lat="42.60120573583884" lon="12.715305979219085"><ele>481.1666666666667</ele><time>2026-04-11T12:52:25Z</time></trkpt><trkpt lat="42.60122053666397" lon="12.715389221883836"><ele>481.0</ele><time>2026-04-11T12:52:27Z</time></trkpt><trkpt lat="42.60126990217676" lon="12.715453554868414"><ele>480.00000000000006</ele><time>2026-04-11T12:52:28Z</time></trkpt><trkpt lat="42.60130485824099" lon="12.715630267408635"><ele>479.0</ele><time>2026-04-11T12:52:30Z</time></trkpt><trkpt lat="42.60133004022259" lon="12.715714499997521"><ele>478.0</ele><time>2026-04-11T12:52:31Z</time></trkpt><trkpt lat="42.6013232423736" lon="12.715816125323947"><ele>477.0</ele><time>2026-04-11T12:52:32Z</time></trkpt><trkpt lat="42.601370898908925" lon="12.715915331132159"><ele>476.00000000000006</ele><time>2026-04-11T12:52:33Z</time></trkpt><trkpt lat="42.60141364369776" lon="12.715997480419881"><ele>475.0</ele><time>2026-04-11T12:52:34Z</time></trkpt><trkpt lat="42.6014675887932" lon="12.71610115494555"><ele>472.8</ele><time>2026-04-11T12:52:35Z</time></trkpt><trkpt lat="42.60153100518352" lon="12.716219138021344"><ele>470.6</ele><time>2026-04-11T12:52:36Z</time></trkpt><trkpt lat="42.60159700162756" lon="12.716343732898602"><ele>468.4</ele><time>2026-04-11T12:52:37Z</time></trkpt><trkpt lat="42.60164961400193" lon="12.716466586533857"><ele>466.2</ele><time>2026-04-11T12:52:38Z</time></trkpt><trkpt lat="42.6017003528835" lon="12.716590125524464"><ele>464.0</ele><time>2026-04-11T12:52:39Z</time></trkpt><trkpt lat="42.60172596211313" lon="12.716712778765812"><ele>464.0</ele><time>2026-04-11T12:52:40Z</time></trkpt><trkpt lat="42.6017493756948" lon="12.716806266619152"><ele>464.0</ele><time>2026-04-11T12:52:41Z</time></trkpt><trkpt lat="42.60176016686325" lon="12.716901561524294"><ele>464.0</ele><time>2026-04-11T12:52:42Z</time></trkpt><trkpt lat="42.60181795891135" lon="12.717053893104515"><ele>464.0</ele><time>2026-04-11T12:52:44Z</time></trkpt><trkpt lat="42.60183692306944" lon="12.717136400407815"><ele>464.0</ele><time>2026-04-11T12:52:45Z</time></trkpt><trkpt lat="42.60188453548622" lon="12.71728501604326"><ele>462.0</ele><time>2026-04-11T12:52:47Z</time></trkpt><trkpt lat="42.60197541732853" lon="12.717407623814436"><ele>460.0</ele><time>2026-04-11T12:52:49Z</time></trkpt><trkpt lat="42.602039296396555" lon="12.717508997028409"><ele>458.0</ele><time>2026-04-11T12:52:51Z</time></trkpt><trkpt lat="42.602080631114205" lon="12.71757418753466"><ele>456.0</ele><time>2026-04-11T12:52:52Z</time></trkpt><trkpt lat="42.60218194300867" lon="12.717701857423442"><ele>454.0</ele><time>2026-04-11T12:52:54.001Z</time></trkpt><trkpt lat="42.602298268267255" lon="12.717703765869237"><ele>454.1666666666667</ele><time>2026-04-11T12:52:55.001Z</time></trkpt><trkpt lat="42.60238713634264" lon="12.717759061694942"><ele>454.33333333333337</ele><time>2026-04-11T12:52:56.001Z</time></trkpt><trkpt lat="42.60245481631699" lon="12.717815771634662"><ele>454.5</ele><time>2026-04-11T12:52:57.001Z</time></trkpt><trkpt lat="42.60252114141167" lon="12.717866554723896"><ele>454.66666666666663</ele><time>2026-04-11T12:52:58.001Z</time></trkpt><trkpt lat="42.602581738665954" lon="12.717908686055084"><ele>454.8333333333333</ele><time>2026-04-11T12:52:59.001Z</time></trkpt><trkpt lat="42.602644127542874" lon="12.71795459311747"><ele>455.0</ele><time>2026-04-11T12:53:00.001Z</time></trkpt><trkpt lat="42.60274456274108" lon="12.718043470916754"><ele>457.16666666666663</ele><time>2026-04-11T12:53:02.001Z</time></trkpt><trkpt lat="42.60283144465544" lon="12.718149121148182"><ele>459.3333333333333</ele><time>2026-04-11T12:53:04.001Z</time></trkpt><trkpt lat="42.602875989409796" lon="12.718228212076863"><ele>461.5</ele><time>2026-04-11T12:53:05.001Z</time></trkpt><trkpt lat="42.602928741986446" lon="12.71830308279136"><ele>463.66666666666663</ele><time>2026-04-11T12:53:06.001Z</time></trkpt><trkpt lat="42.60296338628133" lon="12.718388732028549"><ele>465.8333333333333</ele><time>2026-04-11T12:53:07.001Z</time></trkpt><trkpt lat="42.6029879407393" lon="12.718488905849425"><ele>468.0</ele><time>2026-04-11T12:53:08.001Z</time></trkpt><trkpt lat="42.603016707417574" lon="12.718576244192288"><ele>468.0</ele><time>2026-04-11T12:53:09.001Z</time></trkpt><trkpt lat="42.60303718177968" lon="12.718704189383518"><ele>468.0</ele><time>2026-04-11T12:53:11.001Z</time></trkpt><trkpt lat="42.60304360092892" lon="12.718829961777619"><ele>468.0</ele><time>2026-04-11T12:53:13.001Z</time></trkpt><trkpt lat="42.60302285207738" lon="12.718924208221342"><ele>468.0</ele><time>2026-04-11T12:53:17.001Z</time></trkpt><trkpt lat="42.602944150891496" lon="12.718994095059367"><ele>468.0</ele><time>2026-04-11T12:53:34.001Z</time></trkpt><trkpt lat="42.60289970339632" lon="12.719075526982504"><ele>468.0</ele><time>2026-04-11T12:53:56.001Z</time></trkpt><trkpt lat="42.602828885496145" lon="12.719010891366077"><ele>465.1666666666667</ele><time>2026-04-11T12:53:59.001Z</time></trkpt><trkpt lat="42.60273956525191" lon="12.719055438364599"><ele>462.33333333333337</ele><time>2026-04-11T12:54:02.001Z</time></trkpt><trkpt lat="42.60267322588365" lon="12.7191563887969"><ele>459.5</ele><time>2026-04-11T12:54:04.001Z</time></trkpt><trkpt lat="42.60262505164955" lon="12.719213136626406"><ele>456.6666666666667</ele><time>2026-04-11T12:54:05.001Z</time></trkpt><trkpt lat="42.60255590091022" lon="12.719294065529049"><ele>453.83333333333337</ele><time>2026-04-11T12:54:07.001Z</time></trkpt><trkpt lat="42.60249876269423" lon="12.719378686288866"><ele>451.0</ele><time>2026-04-11T12:54:10.001Z</time></trkpt><trkpt lat="42.60245814771765" lon="12.719451114073626"><ele>450.1666666666667</ele><time>2026-04-11T12:54:13.002Z</time></trkpt><trkpt lat="42.60244430192711" lon="12.719578174611044"><ele>449.33333333333337</ele><time>2026-04-11T12:54:16.002Z</time></trkpt><trkpt lat="42.60244035828151" lon="12.719693910376174"><ele>448.5</ele><time>2026-04-11T12:54:19.002Z</time></trkpt><trkpt lat="42.60240170640008" lon="12.719771507931311"><ele>447.66666666666663</ele><time>2026-04-11T12:54:23.002Z</time></trkpt><trkpt lat="42.602343195857095" lon="12.719815485673852"><ele>446.8333333333333</ele><time>2026-04-11T12:54:34Z</time></trkpt><trkpt lat="42.602405727591474" lon="12.719772617338457"><ele>446.0</ele><time>2026-04-11T12:55:10.001Z</time></trkpt><trkpt lat="42.602419228218935" lon="12.719912476012677"><ele>446.0</ele><time>2026-04-11T12:55:13.001Z</time></trkpt><trkpt lat="42.60238267649137" lon="12.720012299023955"><ele>446.0</ele><time>2026-04-11T12:55:15.001Z</time></trkpt><trkpt lat="42.60238140786963" lon="12.720100173329609"><ele>446.0</ele><time>2026-04-11T12:55:17.001Z</time></trkpt><trkpt lat="42.602371353561495" lon="12.720195074102097"><ele>446.0</ele><time>2026-04-11T12:55:19.001Z</time></trkpt><trkpt lat="42.60234270821402" lon="12.720274245879263"><ele>446.0</ele><time>2026-04-11T12:55:21.001Z</time></trkpt><trkpt lat="42.60229975968809" lon="12.720350690866608"><ele>446.0</ele><time>2026-04-11T12:55:23.001Z</time></trkpt><trkpt lat="42.60221714419127" lon="12.720413573897334"><ele>446.0</ele><time>2026-04-11T12:55:25.001Z</time></trkpt><trkpt lat="42.602123924739836" lon="12.72052015696347"><ele>442.20000000000005</ele><time>2026-04-11T12:55:27.001Z</time></trkpt><trkpt lat="42.60207846261027" lon="12.720581875408394"><ele>438.40000000000003</ele><time>2026-04-11T12:55:28.001Z</time></trkpt><trkpt lat="42.60202660092226" lon="12.720633307433749"><ele>434.6</ele><time>2026-04-11T12:55:29.001Z</time></trkpt><trkpt lat="42.60197586586439" lon="12.720688043839914"><ele>430.8</ele><time>2026-04-11T12:55:30.001Z</time></trkpt><trkpt lat="42.60189096192377" lon="12.72079551844045"><ele>427.0</ele><time>2026-04-11T12:55:32.001Z</time></trkpt><trkpt lat="42.601793932743796" lon="12.720944627326842"><ele>426.00000000000006</ele><time>2026-04-11T12:55:34.001Z</time></trkpt><trkpt lat="42.6017352189288" lon="12.721017869208968"><ele>425.0</ele><time>2026-04-11T12:55:35.001Z</time></trkpt><trkpt lat="42.60167803529674" lon="12.721083516487809"><ele>424.0</ele><time>2026-04-11T12:55:36.001Z</time></trkpt><trkpt lat="42.60162201002492" lon="12.721151161114218"><ele>423.0</ele><time>2026-04-11T12:55:37.001Z</time></trkpt><trkpt lat="42.601567726927044" lon="12.721208507985983"><ele>422.00000000000006</ele><time>2026-04-11T12:55:38.001Z</time></trkpt><trkpt lat="42.601506100498135" lon="12.721264711794484"><ele>421.0</ele><time>2026-04-11T12:55:39.001Z</time></trkpt><trkpt lat="42.60144545474415" lon="12.721329672369002"><ele>418.6666666666667</ele><time>2026-04-11T12:55:40.001Z</time></trkpt><trkpt lat="42.601376201485984" lon="12.72140493416754"><ele>416.33333333333337</ele><time>2026-04-11T12:55:41.001Z</time></trkpt><trkpt lat="42.601312949707626" lon="12.72146325039242"><ele>414.0</ele><time>2026-04-11T12:55:42.001Z</time></trkpt><trkpt lat="42.60125373276766" lon="12.721510082014573"><ele>411.66666666666663</ele><time>2026-04-11T12:55:43.001Z</time></trkpt><trkpt lat="42.60115590987218" lon="12.721585378091907"><ele>409.3333333333333</ele><time>2026-04-11T12:55:45.001Z</time></trkpt><trkpt lat="42.6010724650283" lon="12.721645640875217"><ele>407.0</ele><time>2026-04-11T12:55:47.001Z</time></trkpt><trkpt lat="42.600962226179526" lon="12.72174775026679"><ele>406.8333333333333</ele><time>2026-04-11T12:55:49.001Z</time></trkpt><trkpt lat="42.600893411175456" lon="12.721776761976288"><ele>406.66666666666663</ele><time>2026-04-11T12:55:50.001Z</time></trkpt><trkpt lat="42.60081498566924" lon="12.721793177657073"><ele>406.5</ele><time>2026-04-11T12:55:51.001Z</time></trkpt><trkpt lat="42.60074744542458" lon="12.721789676753925"><ele>406.33333333333337</ele><time>2026-04-11T12:55:53.001Z</time></trkpt><trkpt lat="42.600685392006945" lon="12.721823675440255"><ele>406.1666666666667</ele><time>2026-04-11T12:55:55.001Z</time></trkpt><trkpt lat="42.60071978966781" lon="12.722023445681012"><ele>406.0</ele><time>2026-04-11T12:55:57.001Z</time></trkpt><trkpt lat="42.60082628036716" lon="12.722078696094185"><ele>404.6666666666667</ele><time>2026-04-11T12:55:58.001Z</time></trkpt><trkpt lat="42.60088921939431" lon="12.722122652740188"><ele>403.33333333333337</ele><time>2026-04-11T12:55:59.001Z</time></trkpt><trkpt lat="42.600954724993784" lon="12.72216503127321"><ele>402.0</ele><time>2026-04-11T12:56:00.001Z</time></trkpt><trkpt lat="42.60101619098283" lon="12.722200430700356"><ele>400.66666666666663</ele><time>2026-04-11T12:56:01.001Z</time></trkpt><trkpt lat="42.60107262148454" lon="12.722241447546475"><ele>399.3333333333333</ele><time>2026-04-11T12:56:02.001Z</time></trkpt><trkpt lat="42.60113007437046" lon="12.722288603770577"><ele>398.0</ele><time>2026-04-11T12:56:03.001Z</time></trkpt><trkpt lat="42.60125234624708" lon="12.72230992857122"><ele>395.66666666666663</ele><time>2026-04-11T12:56:05.001Z</time></trkpt><trkpt lat="42.60133298600488" lon="12.722317043536616"><ele>393.3333333333333</ele><time>2026-04-11T12:56:06.001Z</time></trkpt><trkpt lat="42.601409635638355" lon="12.722301451428555"><ele>391.0</ele><time>2026-04-11T12:56:07.001Z</time></trkpt><trkpt lat="42.60148480066883" lon="12.72228605494451"><ele>388.66666666666663</ele><time>2026-04-11T12:56:08.001Z</time></trkpt><trkpt lat="42.601560547553355" lon="12.722260172409653"><ele>386.3333333333333</ele><time>2026-04-11T12:56:09.001Z</time></trkpt><trkpt lat="42.60164087113986" lon="12.72227568977783"><ele>384.0</ele><time>2026-04-11T12:56:10.001Z</time></trkpt><trkpt lat="42.60172411540895" lon="12.722295270110065"><ele>384.0</ele><time>2026-04-11T12:56:11.001Z</time></trkpt><trkpt lat="42.60180884512269" lon="12.722319858698842"><ele>384.0</ele><time>2026-04-11T12:56:12.001Z</time></trkpt><trkpt lat="42.601880264230125" lon="12.722366153071786"><ele>384.0</ele><time>2026-04-11T12:56:13.001Z</time></trkpt><trkpt lat="42.60194552996004" lon="12.722402264147059"><ele>384.0</ele><time>2026-04-11T12:56:14.001Z</time></trkpt><trkpt lat="42.60200268310847" lon="12.722443525535633"><ele>384.0</ele><time>2026-04-11T12:56:15.001Z</time></trkpt><trkpt lat="42.60207661177261" lon="12.722485157862872"><ele>384.0</ele><time>2026-04-11T12:56:16.001Z</time></trkpt><trkpt lat="42.60214688189978" lon="12.722532241221566"><ele>383.4285714285714</ele><time>2026-04-11T12:56:17.001Z</time></trkpt><trkpt lat="42.60221905463837" lon="12.722581718983678"><ele>382.85714285714283</ele><time>2026-04-11T12:56:18.001Z</time></trkpt><trkpt lat="42.6022866940993" lon="12.722621011700246"><ele>382.2857142857143</ele><time>2026-04-11T12:56:19.001Z</time></trkpt><trkpt lat="42.60233983088089" lon="12.722676753256264"><ele>381.71428571428567</ele><time>2026-04-11T12:56:20.001Z</time></trkpt><trkpt lat="42.60239907213812" lon="12.722731591522237"><ele>381.14285714285717</ele><time>2026-04-11T12:56:21.002Z</time></trkpt><trkpt lat="42.60245893065118" lon="12.722788423584108"><ele>380.57142857142856</ele><time>2026-04-11T12:56:22.002Z</time></trkpt><trkpt lat="42.60252485899937" lon="12.722831307115515"><ele>380.0</ele><time>2026-04-11T12:56:23.002Z</time></trkpt><trkpt lat="42.60257029154757" lon="12.72290303984386"><ele>375.0</ele><time>2026-04-11T12:56:24.002Z</time></trkpt><trkpt lat="42.602628582322836" lon="12.722964343957033"><ele>370.0</ele><time>2026-04-11T12:56:25.002Z</time></trkpt><trkpt lat="42.60274205450863" lon="12.723058625832968"><ele>365.0</ele><time>2026-04-11T12:56:27.002Z</time></trkpt><trkpt lat="42.60280692253583" lon="12.723104406284245"><ele>360.0</ele><time>2026-04-11T12:56:28.002Z</time></trkpt><trkpt lat="42.602874902401766" lon="12.723149350753665"><ele>355.0</ele><time>2026-04-11T12:56:29.002Z</time></trkpt><trkpt lat="42.6029381534815" lon="12.72319023483131"><ele>350.0</ele><time>2026-04-11T12:56:30.002Z</time></trkpt><trkpt lat="42.60300054215589" lon="12.723228429320006"><ele>349.1666666666667</ele><time>2026-04-11T12:56:31.002Z</time></trkpt><trkpt lat="42.60310872130702" lon="12.723288061985286"><ele>348.33333333333337</ele><time>2026-04-11T12:56:33.002Z</time></trkpt><trkpt lat="42.60320125280208" lon="12.723290312684826"><ele>347.5</ele><time>2026-04-11T12:56:35Z</time></trkpt><trkpt lat="42.603275590345035" lon="12.723273470142356"><ele>346.6666666666667</ele><time>2026-04-11T12:56:37Z</time></trkpt><trkpt lat="42.603347032502306" lon="12.723270615910367"><ele>345.8333333333333</ele><time>2026-04-11T12:56:40Z</time></trkpt><trkpt lat="42.6034053061712" lon="12.723223791427209"><ele>345.0</ele><time>2026-04-11T12:56:46Z</time></trkpt><trkpt lat="42.6033145622814" lon="12.7234538594093"><ele>345.0</ele><time>2026-04-11T12:57:28.001Z</time></trkpt><trkpt lat="42.603264037405054" lon="12.723511703782686"><ele>345.0</ele><time>2026-04-11T12:57:30.001Z</time></trkpt><trkpt lat="42.603204272695976" lon="12.723546765589516"><ele>345.0</ele><time>2026-04-11T12:57:32.001Z</time></trkpt><trkpt lat="42.60312390364815" lon="12.723584140120051"><ele>345.0</ele><time>2026-04-11T12:57:35.001Z</time></trkpt><trkpt lat="42.603061972310975" lon="12.723604645631502"><ele>345.0</ele><time>2026-04-11T12:57:37.001Z</time></trkpt><trkpt lat="42.60299771134246" lon="12.723605142929294"><ele>345.0</ele><time>2026-04-11T12:57:46.001Z</time></trkpt><trkpt lat="42.602923262196434" lon="12.723628130501421"><ele>345.0</ele><time>2026-04-11T12:57:49.001Z</time></trkpt><trkpt lat="42.602856344815784" lon="12.723646500537972"><ele>340.3333333333333</ele><time>2026-04-11T12:57:50.001Z</time></trkpt><trkpt lat="42.60277910936792" lon="12.723666467025728"><ele>335.6666666666667</ele><time>2026-04-11T12:57:51.001Z</time></trkpt><trkpt lat="42.60269797394494" lon="12.723687441679141"><ele>331.0</ele><time>2026-04-11T12:57:52.001Z</time></trkpt><trkpt lat="42.60262165915988" lon="12.72370911102379"><ele>326.33333333333337</ele><time>2026-04-11T12:57:53.001Z</time></trkpt><trkpt lat="42.60255266786904" lon="12.723741306109519"><ele>321.6666666666667</ele><time>2026-04-11T12:57:54.001Z</time></trkpt><trkpt lat="42.60247848380131" lon="12.723749951011234"><ele>317.0</ele><time>2026-04-11T12:57:55.001Z</time></trkpt><trkpt lat="42.60239562998496" lon="12.723798043230467"><ele>317.0</ele><time>2026-04-11T12:57:56.001Z</time></trkpt><trkpt lat="42.60231067791361" lon="12.723871138768152"><ele>317.0</ele><time>2026-04-11T12:57:57.001Z</time></trkpt><trkpt lat="42.60222573867381" lon="12.723930770916487"><ele>317.0</ele><time>2026-04-11T12:57:58.001Z</time></trkpt><trkpt lat="42.60214357502272" lon="12.723975697743187"><ele>317.0</ele><time>2026-04-11T12:57:59.001Z</time></trkpt><trkpt lat="42.60204777496288" lon="12.723998962203728"><ele>317.0</ele><time>2026-04-11T12:58:00.001Z</time></trkpt><trkpt lat="42.601955819190465" lon="12.72404130042341"><ele>318.4</ele><time>2026-04-11T12:58:01.001Z</time></trkpt><trkpt lat="42.60188375416358" lon="12.724077990053908"><ele>319.79999999999995</ele><time>2026-04-11T12:58:02.001Z</time></trkpt><trkpt lat="42.601767217113704" lon="12.724125029103394"><ele>321.2</ele><time>2026-04-11T12:58:04.001Z</time></trkpt><trkpt lat="42.60170252313957" lon="12.724172352474536"><ele>322.59999999999997</ele><time>2026-04-11T12:58:06.001Z</time></trkpt><trkpt lat="42.60175337940035" lon="12.724274385746448"><ele>324.0</ele><time>2026-04-11T12:58:09.001Z</time></trkpt><trkpt lat="42.601859828873636" lon="12.724343537208672"><ele>324.0</ele><time>2026-04-11T12:58:11.001Z</time></trkpt><trkpt lat="42.60195588524112" lon="12.724351622708523"><ele>324.0</ele><time>2026-04-11T12:58:13.001Z</time></trkpt><trkpt lat="42.60204377031287" lon="12.724355355580864"><ele>324.0</ele><time>2026-04-11T12:58:15.002Z</time></trkpt><trkpt lat="42.6021214735001" lon="12.724371020156978"><ele>324.0</ele><time>2026-04-11T12:58:18.002Z</time></trkpt><trkpt lat="42.60220101424068" lon="12.724409931510364"><ele>324.0</ele><time>2026-04-11T12:58:20.002Z</time></trkpt><trkpt lat="42.6022621147936" lon="12.72443854135216"><ele>324.0</ele><time>2026-04-11T12:58:21.002Z</time></trkpt><trkpt lat="42.6023402153256" lon="12.724527650147348"><ele>319.0</ele><time>2026-04-11T12:58:22.002Z</time></trkpt><trkpt lat="42.60242896207124" lon="12.72452339479674"><ele>314.0</ele><time>2026-04-11T12:58:23.002Z</time></trkpt><trkpt lat="42.60253309788528" lon="12.724511606422482"><ele>309.0</ele><time>2026-04-11T12:58:24.002Z</time></trkpt><trkpt lat="42.60263840814737" lon="12.72453587796727"><ele>304.0</ele><time>2026-04-11T12:58:25.002Z</time></trkpt><trkpt lat="42.602741048245264" lon="12.724561871500995"><ele>299.0</ele><time>2026-04-11T12:58:26.002Z</time></trkpt><trkpt lat="42.602850735598956" lon="12.724589105082428"><ele>299.0</ele><time>2026-04-11T12:58:27.002Z</time></trkpt><trkpt lat="42.602960167547444" lon="12.724626169011252"><ele>299.0</ele><time>2026-04-11T12:58:28.002Z</time></trkpt><trkpt lat="42.60307026316887" lon="12.724678357959425"><ele>299.0</ele><time>2026-04-11T12:58:29.002Z</time></trkpt><trkpt lat="42.60318742307705" lon="12.724743763343298"><ele>299.0</ele><time>2026-04-11T12:58:30.002Z</time></trkpt><trkpt lat="42.6032942237635" lon="12.724825701117455"><ele>299.0</ele><time>2026-04-11T12:58:31.002Z</time></trkpt><trkpt lat="42.603399604227555" lon="12.724909089702061"><ele>299.0</ele><time>2026-04-11T12:58:32.002Z</time></trkpt><trkpt lat="42.60350490533341" lon="12.725007207804216"><ele>299.0</ele><time>2026-04-11T12:58:33.002Z</time></trkpt><trkpt lat="42.603617622896195" lon="12.725117422274598"><ele>299.0</ele><time>2026-04-11T12:58:34.002Z</time></trkpt><trkpt lat="42.60373744558233" lon="12.72524155106705"><ele>299.33333333333337</ele><time>2026-04-11T12:58:35.002Z</time></trkpt><trkpt lat="42.60386704043821" lon="12.7253755591362"><ele>299.6666666666667</ele><time>2026-04-11T12:58:36.002Z</time></trkpt><trkpt lat="42.60398482115188" lon="12.725525387788371"><ele>300.0</ele><time>2026-04-11T12:58:37.002Z</time></trkpt><trkpt lat="42.60410330445633" lon="12.725664922874337"><ele>300.0</ele><time>2026-04-11T12:58:38.002Z</time></trkpt><trkpt lat="42.6042169011653" lon="12.725810468328756"><ele>300.0</ele><time>2026-04-11T12:58:39.002Z</time></trkpt><trkpt lat="42.60433334503658" lon="12.725956219309275"><ele>300.0</ele><time>2026-04-11T12:58:40.002Z</time></trkpt><trkpt lat="42.604444931301465" lon="12.72610918349775"><ele>303.0</ele><time>2026-04-11T12:58:41Z</time></trkpt><trkpt lat="42.60455163150268" lon="12.726275795271137"><ele>306.0</ele><time>2026-04-11T12:58:42Z</time></trkpt><trkpt lat="42.604657101390465" lon="12.726464248121074"><ele>309.0</ele><time>2026-04-11T12:58:43Z</time></trkpt><trkpt lat="42.604751439477795" lon="12.72664919080724"><ele>309.0</ele><time>2026-04-11T12:58:44Z</time></trkpt><trkpt lat="42.6048427156964" lon="12.726855750941496"><ele>309.0</ele><time>2026-04-11T12:58:45Z</time></trkpt><trkpt lat="42.60493621585638" lon="12.727067376384994"><ele>309.0</ele><time>2026-04-11T12:58:46Z</time></trkpt><trkpt lat="42.605007555326225" lon="12.727288739179656"><ele>308.6666666666667</ele><time>2026-04-11T12:58:47Z</time></trkpt><trkpt lat="42.60510150252223" lon="12.727491039118611"><ele>308.33333333333337</ele><time>2026-04-11T12:58:48Z</time></trkpt><trkpt lat="42.60520489523768" lon="12.727681457293583"><ele>308.0</ele><time>2026-04-11T12:58:49Z</time></trkpt><trkpt lat="42.60532618596653" lon="12.727844755785814"><ele>312.6666666666667</ele><time>2026-04-11T12:58:50Z</time></trkpt><trkpt lat="42.60543292794831" lon="12.728017589304589"><ele>317.3333333333333</ele><time>2026-04-11T12:58:51Z</time></trkpt><trkpt lat="42.60555256905417" lon="12.728186621337704"><ele>322.0</ele><time>2026-04-11T12:58:52Z</time></trkpt><trkpt lat="42.60566606269852" lon="12.728355161519639"><ele>322.0</ele><time>2026-04-11T12:58:53Z</time></trkpt><trkpt lat="42.60577401320524" lon="12.728528290741119"><ele>322.0</ele><time>2026-04-11T12:58:54Z</time></trkpt><trkpt lat="42.6058738980755" lon="12.72870912815173"><ele>322.0</ele><time>2026-04-11T12:58:55Z</time></trkpt><trkpt lat="42.60597092253864" lon="12.728892782887934"><ele>320.0</ele><time>2026-04-11T12:58:56Z</time></trkpt><trkpt lat="42.60606321573577" lon="12.729075518514668"><ele>318.0</ele><time>2026-04-11T12:58:57Z</time></trkpt><trkpt lat="42.60615857987118" lon="12.729255674922314"><ele>316.0</ele><time>2026-04-11T12:58:58Z</time></trkpt><trkpt lat="42.6062595278884" lon="12.729434237934475"><ele>316.0</ele><time>2026-04-11T12:58:59Z</time></trkpt><trkpt lat="42.606363285660144" lon="12.729597219957709"><ele>316.0</ele><time>2026-04-11T12:59:00Z</time></trkpt><trkpt lat="42.60647494433344" lon="12.729762135688107"><ele>316.0</ele><time>2026-04-11T12:59:01Z</time></trkpt><trkpt lat="42.606589666687036" lon="12.72992138480024"><ele>316.0</ele><time>2026-04-11T12:59:02Z</time></trkpt><trkpt lat="42.606712151411244" lon="12.730083773411796"><ele>316.0</ele><time>2026-04-11T12:59:03Z</time></trkpt><trkpt lat="42.60684672161418" lon="12.73023136391648"><ele>316.0</ele><time>2026-04-11T12:59:04Z</time></trkpt><trkpt lat="42.60698632227994" lon="12.730381068979847"><ele>319.0</ele><time>2026-04-11T12:59:05Z</time></trkpt><trkpt lat="42.60712788194298" lon="12.730532288022804"><ele>322.0</ele><time>2026-04-11T12:59:06Z</time></trkpt><trkpt lat="42.60726930841199" lon="12.730687291244093"><ele>325.0</ele><time>2026-04-11T12:59:07Z</time></trkpt><trkpt lat="42.6074086021101" lon="12.730836813680266"><ele>325.0</ele><time>2026-04-11T12:59:08Z</time></trkpt><trkpt lat="42.607544352156836" lon="12.730985540549772"><ele>325.0</ele><time>2026-04-11T12:59:09Z</time></trkpt><trkpt lat="42.60768614275018" lon="12.731132917074905"><ele>325.0</ele><time>2026-04-11T12:59:10Z</time></trkpt><trkpt lat="42.60782538990775" lon="12.73127636115152"><ele>324.0</ele><time>2026-04-11T12:59:11Z</time></trkpt><trkpt lat="42.607963943071404" lon="12.731419285138823"><ele>323.0</ele><time>2026-04-11T12:59:12Z</time></trkpt><trkpt lat="42.60810487302911" lon="12.731559012095174"><ele>322.0</ele><time>2026-04-11T12:59:13Z</time></trkpt><trkpt lat="42.60824502791449" lon="12.731692317048825"><ele>322.0</ele><time>2026-04-11T12:59:14Z</time></trkpt><trkpt lat="42.60838300131276" lon="12.731839602963033"><ele>322.0</ele><time>2026-04-11T12:59:15Z</time></trkpt><trkpt lat="42.608513649006426" lon="12.731980627818947"><ele>322.0</ele><time>2026-04-11T12:59:16Z</time></trkpt><trkpt lat="42.60863184252388" lon="12.732121956721315"><ele>322.0</ele><time>2026-04-11T12:59:17Z</time></trkpt><trkpt lat="42.60874397045767" lon="12.73226765569738"><ele>322.0</ele><time>2026-04-11T12:59:18Z</time></trkpt><trkpt lat="42.60883079499829" lon="12.73242348852013"><ele>322.0</ele><time>2026-04-11T12:59:19Z</time></trkpt><trkpt lat="42.60891484564782" lon="12.732558936318775"><ele>322.0</ele><time>2026-04-11T12:59:20Z</time></trkpt><trkpt lat="42.60898411553718" lon="12.732684522816115"><ele>321.20000000000005</ele><time>2026-04-11T12:59:21Z</time></trkpt><trkpt lat="42.60903998973693" lon="12.732797343651958"><ele>320.40000000000003</ele><time>2026-04-11T12:59:22Z</time></trkpt><trkpt lat="42.60908278042324" lon="12.732887331121834"><ele>319.6</ele><time>2026-04-11T12:59:23Z</time></trkpt><trkpt lat="42.60913765653886" lon="12.733016274007106"><ele>318.8</ele><time>2026-04-11T12:59:25Z</time></trkpt><trkpt lat="42.60928279893658" lon="12.732973966629409"><ele>318.0</ele><time>2026-04-11T12:59:26Z</time></trkpt><trkpt lat="42.60935451373018" lon="12.732958790095388"><ele>318.0</ele><time>2026-04-11T12:59:27Z</time></trkpt><trkpt lat="42.6094240558786" lon="12.7328962774196"><ele>318.0</ele><time>2026-04-11T12:59:28.001Z</time></trkpt><trkpt lat="42.609485602015134" lon="12.732810482390857"><ele>318.0</ele><time>2026-04-11T12:59:29.001Z</time></trkpt><trkpt lat="42.60954315251998" lon="12.73271448035169"><ele>318.0</ele><time>2026-04-11T12:59:30.001Z</time></trkpt><trkpt lat="42.609570457220244" lon="12.732602369959"><ele>318.0</ele><time>2026-04-11T12:59:31.001Z</time></trkpt><trkpt lat="42.609565965483874" lon="12.732481711575884"><ele>318.0</ele><time>2026-04-11T12:59:32.001Z</time></trkpt><trkpt lat="42.60952487586601" lon="12.732372732409031"><ele>318.8</ele><time>2026-04-11T12:59:33.001Z</time></trkpt><trkpt lat="42.609469824482076" lon="12.732301807084632"><ele>319.6</ele><time>2026-04-11T12:59:34.001Z</time></trkpt><trkpt lat="42.60939528475879" lon="12.732237305534651"><ele>320.40000000000003</ele><time>2026-04-11T12:59:35.001Z</time></trkpt><trkpt lat="42.609281536609856" lon="12.732216164196487"><ele>321.20000000000005</ele><time>2026-04-11T12:59:36.001Z</time></trkpt><trkpt lat="42.60916956491115" lon="12.732182903457318"><ele>322.0</ele><time>2026-04-11T12:59:37.001Z</time></trkpt><trkpt lat="42.60906634344131" lon="12.732104829659225"><ele>322.0</ele><time>2026-04-11T12:59:38.001Z</time></trkpt><trkpt lat="42.608953795186544" lon="12.731995166699457"><ele>322.0</ele><time>2026-04-11T12:59:39.001Z</time></trkpt><trkpt lat="42.60884304831186" lon="12.731886342249718"><ele>322.0</ele><time>2026-04-11T12:59:40.001Z</time></trkpt><trkpt lat="42.608722009953865" lon="12.731819370121112"><ele>322.0</ele><time>2026-04-11T12:59:41.001Z</time></trkpt><trkpt lat="42.60862289032568" lon="12.731712981967119"><ele>322.0</ele><time>2026-04-11T12:59:42.001Z</time></trkpt><trkpt lat="42.608529185217" lon="12.731591402497143"><ele>322.0</ele><time>2026-04-11T12:59:43.001Z</time></trkpt><trkpt lat="42.60843998525133" lon="12.731449332143939"><ele>322.0</ele><time>2026-04-11T12:59:44.001Z</time></trkpt><trkpt lat="42.60833403391535" lon="12.73129908842419"><ele>322.0</ele><time>2026-04-11T12:59:45.001Z</time></trkpt><trkpt lat="42.60819449182093" lon="12.731178801022033"><ele>323.0</ele><time>2026-04-11T12:59:46.001Z</time></trkpt><trkpt lat="42.608048118939195" lon="12.731057299886114"><ele>324.0</ele><time>2026-04-11T12:59:47.001Z</time></trkpt><trkpt lat="42.60794933343257" lon="12.730915334950975"><ele>325.0</ele><time>2026-04-11T12:59:48.001Z</time></trkpt><trkpt lat="42.607823959140234" lon="12.73079644068056"><ele>325.0</ele><time>2026-04-11T12:59:49.001Z</time></trkpt><trkpt lat="42.6076984476924" lon="12.730671769517722"><ele>325.0</ele><time>2026-04-11T12:59:50.001Z</time></trkpt><trkpt lat="42.607593726635216" lon="12.730527195843884"><ele>325.0</ele><time>2026-04-11T12:59:51.001Z</time></trkpt><trkpt lat="42.607509370429" lon="12.730381110602222"><ele>325.0</ele><time>2026-04-11T12:59:52.001Z</time></trkpt><trkpt lat="42.60744168391851" lon="12.730247862652439"><ele>330.5</ele><time>2026-04-11T12:59:53.001Z</time></trkpt><trkpt lat="42.607360338868396" lon="12.730145289012295"><ele>336.0</ele><time>2026-04-11T12:59:54.001Z</time></trkpt><trkpt lat="42.607418476886885" lon="12.729893931543353"><ele>341.5</ele><time>2026-04-11T12:59:55.001Z</time></trkpt><trkpt lat="42.60736781794722" lon="12.729793485410147"><ele>347.0</ele><time>2026-04-11T12:59:56.001Z</time></trkpt><trkpt lat="42.607329876937115" lon="12.729677608855281"><ele>347.0</ele><time>2026-04-11T12:59:57.001Z</time></trkpt><trkpt lat="42.60731574902831" lon="12.729553971364217"><ele>347.0</ele><time>2026-04-11T12:59:58.001Z</time></trkpt><trkpt lat="42.60731110855617" lon="12.729410983760772"><ele>347.0</ele><time>2026-04-11T12:59:59.001Z</time></trkpt><trkpt lat="42.60731707252809" lon="12.72930382049372"><ele>347.0</ele><time>2026-04-11T13:00:00.001Z</time></trkpt><trkpt lat="42.6073621947319" lon="12.729184789734276"><ele>347.0</ele><time>2026-04-11T13:00:01.001Z</time></trkpt><trkpt lat="42.60741976969098" lon="12.72907849301933"><ele>349.1666666666667</ele><time>2026-04-11T13:00:02.001Z</time></trkpt><trkpt lat="42.60747276373275" lon="12.72899483706513"><ele>351.33333333333337</ele><time>2026-04-11T13:00:03.001Z</time></trkpt><trkpt lat="42.60749758184585" lon="12.728910619285465"><ele>353.5</ele><time>2026-04-11T13:00:04.001Z</time></trkpt><trkpt lat="42.60751652791639" lon="12.72882875285363"><ele>355.6666666666667</ele><time>2026-04-11T13:00:05.001Z</time></trkpt><trkpt lat="42.60747704098328" lon="12.728717794710123"><ele>357.8333333333333</ele><time>2026-04-11T13:00:06.001Z</time></trkpt><trkpt lat="42.60737046493759" lon="12.728632214143882"><ele>360.0</ele><time>2026-04-11T13:00:07.001Z</time></trkpt><trkpt lat="42.607274596372484" lon="12.728570847132485"><ele>359.25</ele><time>2026-04-11T13:00:08.001Z</time></trkpt><trkpt lat="42.60717445229551" lon="12.728489914464847"><ele>358.5</ele><time>2026-04-11T13:00:09.001Z</time></trkpt><trkpt lat="42.60706113577022" lon="12.728407033389743"><ele>357.75</ele><time>2026-04-11T13:00:10.001Z</time></trkpt><trkpt lat="42.6069552803931" lon="12.728297196311978"><ele>357.0</ele><time>2026-04-11T13:00:11.001Z</time></trkpt><trkpt lat="42.60686488195409" lon="12.728179443725606"><ele>357.0</ele><time>2026-04-11T13:00:12.001Z</time></trkpt><trkpt lat="42.60677570753551" lon="12.72803995765255"><ele>357.0</ele><time>2026-04-11T13:00:13.001Z</time></trkpt><trkpt lat="42.60668476686391" lon="12.727893304180782"><ele>357.0</ele><time>2026-04-11T13:00:14.001Z</time></trkpt><trkpt lat="42.60659272100817" lon="12.727739792528842"><ele>357.0</ele><time>2026-04-11T13:00:15.001Z</time></trkpt><trkpt lat="42.606484272854765" lon="12.727585914029433"><ele>363.5</ele><time>2026-04-11T13:00:16.001Z</time></trkpt><trkpt lat="42.606394922528914" lon="12.727424831190426"><ele>370.0</ele><time>2026-04-11T13:00:17.001Z</time></trkpt><trkpt lat="42.606325811201735" lon="12.727247574070903"><ele>376.5</ele><time>2026-04-11T13:00:18.001Z</time></trkpt><trkpt lat="42.606258246585966" lon="12.727083060755213"><ele>383.0</ele><time>2026-04-11T13:00:19.001Z</time></trkpt><trkpt lat="42.60620904041238" lon="12.726941155644466"><ele>386.0</ele><time>2026-04-11T13:00:20.001Z</time></trkpt><trkpt lat="42.60616762561536" lon="12.726799433169802"><ele>389.0</ele><time>2026-04-11T13:00:21.001Z</time></trkpt><trkpt lat="42.60613755885237" lon="12.726667903899438"><ele>392.0</ele><time>2026-04-11T13:00:22.001Z</time></trkpt><trkpt lat="42.60612840107961" lon="12.726543847632902"><ele>395.0</ele><time>2026-04-11T13:00:23.001Z</time></trkpt><trkpt lat="42.60612827112901" lon="12.726441367163075"><ele>398.0</ele><time>2026-04-11T13:00:24.001Z</time></trkpt><trkpt lat="42.60614762410202" lon="12.726339499377177"><ele>398.0</ele><time>2026-04-11T13:00:25.001Z</time></trkpt><trkpt lat="42.60619515811707" lon="12.726252969842557"><ele>398.0</ele><time>2026-04-11T13:00:26.001Z</time></trkpt><trkpt lat="42.60625707406528" lon="12.726160342384302"><ele>398.0</ele><time>2026-04-11T13:00:27.001Z</time></trkpt><trkpt lat="42.60633645163476" lon="12.726069211702294"><ele>398.0</ele><time>2026-04-11T13:00:28.001Z</time></trkpt><trkpt lat="42.606434183140045" lon="12.72598226736246"><ele>398.0</ele><time>2026-04-11T13:00:29.001Z</time></trkpt><trkpt lat="42.606515141550645" lon="12.725935107186691"><ele>398.0</ele><time>2026-04-11T13:00:30.001Z</time></trkpt><trkpt lat="42.6065790622892" lon="12.725927260831549"><ele>398.0</ele><time>2026-04-11T13:00:31.001Z</time></trkpt><trkpt lat="42.606707309326225" lon="12.725942067689342"><ele>398.0</ele><time>2026-04-11T13:00:32.001Z</time></trkpt><trkpt lat="42.60683496876968" lon="12.725963461618734"><ele>398.0</ele><time>2026-04-11T13:00:33.002Z</time></trkpt><trkpt lat="42.606960585693116" lon="12.725978012981438"><ele>398.0</ele><time>2026-04-11T13:00:34.002Z</time></trkpt><trkpt lat="42.607099498762594" lon="12.725959909524246"><ele>398.0</ele><time>2026-04-11T13:00:35.002Z</time></trkpt><trkpt lat="42.607245398533564" lon="12.725924562541786"><ele>398.0</ele><time>2026-04-11T13:00:36.002Z</time></trkpt><trkpt lat="42.607406512688875" lon="12.725875554135717"><ele>398.0</ele><time>2026-04-11T13:00:37.002Z</time></trkpt><trkpt lat="42.60758263644725" lon="12.725821348227967"><ele>398.0</ele><time>2026-04-11T13:00:38.002Z</time></trkpt><trkpt lat="42.60776933255707" lon="12.72574431693271"><ele>398.0</ele><time>2026-04-11T13:00:39.002Z</time></trkpt><trkpt lat="42.60794628015684" lon="12.72565337511251"><ele>398.0</ele><time>2026-04-11T13:00:40.002Z</time></trkpt><trkpt lat="42.608111048037856" lon="12.725561351900048"><ele>404.3333333333333</ele><time>2026-04-11T13:00:41.002Z</time></trkpt><trkpt lat="42.60827533118412" lon="12.72547832404589"><ele>410.66666666666663</ele><time>2026-04-11T13:00:42.002Z</time></trkpt><trkpt lat="42.608415529885804" lon="12.725364391324552"><ele>417.0</ele><time>2026-04-11T13:00:43.002Z</time></trkpt><trkpt lat="42.60853892039837" lon="12.725306460593162"><ele>417.0</ele><time>2026-04-11T13:00:44.002Z</time></trkpt><trkpt lat="42.60865079311145" lon="12.725237654885804"><ele>417.0</ele><time>2026-04-11T13:00:45.002Z</time></trkpt><trkpt lat="42.60876364782811" lon="12.72518880069728"><ele>417.0</ele><time>2026-04-11T13:00:46.002Z</time></trkpt><trkpt lat="42.60887449531" lon="12.725153840585099"><ele>417.0</ele><time>2026-04-11T13:00:47Z</time></trkpt><trkpt lat="42.60902528329644" lon="12.72510704410977"><ele>414.25</ele><time>2026-04-11T13:00:48Z</time></trkpt><trkpt lat="42.609173586989385" lon="12.725058046251636"><ele>411.5</ele><time>2026-04-11T13:00:49Z</time></trkpt><trkpt lat="42.609317558749964" lon="12.725004607489597"><ele>408.75</ele><time>2026-04-11T13:00:50Z</time></trkpt><trkpt lat="42.60944285667436" lon="12.724970297704779"><ele>406.0</ele><time>2026-04-11T13:00:51Z</time></trkpt><trkpt lat="42.60956366457555" lon="12.724936910197249"><ele>412.20000000000005</ele><time>2026-04-11T13:00:52Z</time></trkpt><trkpt lat="42.60966423190303" lon="12.724886845092746"><ele>418.40000000000003</ele><time>2026-04-11T13:00:53Z</time></trkpt><trkpt lat="42.609758899361815" lon="12.724849678346732"><ele>424.6</ele><time>2026-04-11T13:00:54Z</time></trkpt><trkpt lat="42.609857375369266" lon="12.724800389137327"><ele>430.8</ele><time>2026-04-11T13:00:55Z</time></trkpt><trkpt lat="42.60994654782571" lon="12.724728266719515"><ele>437.0</ele><time>2026-04-11T13:00:56Z</time></trkpt><trkpt lat="42.61002138572288" lon="12.724619062537004"><ele>437.0</ele><time>2026-04-11T13:00:57Z</time></trkpt><trkpt lat="42.61007782190158" lon="12.724485918007812"><ele>437.00000000000006</ele><time>2026-04-11T13:00:58Z</time></trkpt><trkpt lat="42.61012992360084" lon="12.724361956558882"><ele>437.00000000000006</ele><time>2026-04-11T13:00:59Z</time></trkpt><trkpt lat="42.61019665237777" lon="12.724246297999391"><ele>437.0</ele><time>2026-04-11T13:01:00Z</time></trkpt><trkpt lat="42.61030012125789" lon="12.724168701301128"><ele>437.0</ele><time>2026-04-11T13:01:01Z</time></trkpt><trkpt lat="42.61040346622208" lon="12.724063230696482"><ele>437.0</ele><time>2026-04-11T13:01:02Z</time></trkpt><trkpt lat="42.61052421919598" lon="12.723974702714084"><ele>437.0</ele><time>2026-04-11T13:01:03Z</time></trkpt><trkpt lat="42.610645178559516" lon="12.72387503210299"><ele>437.0</ele><time>2026-04-11T13:01:04Z</time></trkpt><trkpt lat="42.61077431596557" lon="12.723785741817432"><ele>437.0</ele><time>2026-04-11T13:01:05Z</time></trkpt><trkpt lat="42.610911992947095" lon="12.723700521082831"><ele>437.0</ele><time>2026-04-11T13:01:06Z</time></trkpt><trkpt lat="42.611049981420805" lon="12.723599115278526"><ele>437.0</ele><time>2026-04-11T13:01:07Z</time></trkpt><trkpt lat="42.61118392898725" lon="12.723494284089947"><ele>437.0</ele><time>2026-04-11T13:01:08Z</time></trkpt><trkpt lat="42.61129748182479" lon="12.72341317705869"><ele>437.0</ele><time>2026-04-11T13:01:09Z</time></trkpt><trkpt lat="42.61140855688327" lon="12.723341960708721"><ele>435.75</ele><time>2026-04-11T13:01:10Z</time></trkpt><trkpt lat="42.61151002172896" lon="12.723251347914772"><ele>434.5</ele><time>2026-04-11T13:01:11Z</time></trkpt><trkpt lat="42.61159276395488" lon="12.723137270201315"><ele>433.25</ele><time>2026-04-11T13:01:12Z</time></trkpt><trkpt lat="42.61168544985891" lon="12.723059020451371"><ele>432.0</ele><time>2026-04-11T13:01:13Z</time></trkpt><trkpt lat="42.611790369118566" lon="12.722983606840575"><ele>432.0</ele><time>2026-04-11T13:01:14Z</time></trkpt><trkpt lat="42.61191623885361" lon="12.722920280984871"><ele>432.0</ele><time>2026-04-11T13:01:15Z</time></trkpt><trkpt lat="42.61205044856068" lon="12.722843556065074"><ele>432.0</ele><time>2026-04-11T13:01:16Z</time></trkpt><trkpt lat="42.61217368826767" lon="12.722774395578883"><ele>432.0</ele><time>2026-04-11T13:01:17Z</time></trkpt><trkpt lat="42.612298704418684" lon="12.722707995153868"><ele>432.6</ele><time>2026-04-11T13:01:18Z</time></trkpt><trkpt lat="42.612411496285155" lon="12.72264366824863"><ele>433.20000000000005</ele><time>2026-04-11T13:01:19Z</time></trkpt><trkpt lat="42.61250889784226" lon="12.7226069881012"><ele>433.8</ele><time>2026-04-11T13:01:20Z</time></trkpt><trkpt lat="42.612612913449" lon="12.722577763275511"><ele>434.4</ele><time>2026-04-11T13:01:21Z</time></trkpt><trkpt lat="42.61272620484589" lon="12.722574538698575"><ele>435.0</ele><time>2026-04-11T13:01:22Z</time></trkpt><trkpt lat="42.61284671223711" lon="12.722564391828444"><ele>435.0</ele><time>2026-04-11T13:01:23Z</time></trkpt><trkpt lat="42.612979604645375" lon="12.722562347672767"><ele>435.0</ele><time>2026-04-11T13:01:24.001Z</time></trkpt><trkpt lat="42.61311262927093" lon="12.722535273755913"><ele>435.0</ele><time>2026-04-11T13:01:25.001Z</time></trkpt><trkpt lat="42.61325466037368" lon="12.722533249079005"><ele>435.0</ele><time>2026-04-11T13:01:26.001Z</time></trkpt><trkpt lat="42.61339954236208" lon="12.722501085809483"><ele>435.0</ele><time>2026-04-11T13:01:27.001Z</time></trkpt><trkpt lat="42.61354023653835" lon="12.722489812095155"><ele>435.0</ele><time>2026-04-11T13:01:28.001Z</time></trkpt><trkpt lat="42.613681077182434" lon="12.722525636042427"><ele>435.0</ele><time>2026-04-11T13:01:29.001Z</time></trkpt><trkpt lat="42.61384054576946" lon="12.722547619971053"><ele>435.0</ele><time>2026-04-11T13:01:30.001Z</time></trkpt><trkpt lat="42.61398304798827" lon="12.72253330708157"><ele>437.75</ele><time>2026-04-11T13:01:31.001Z</time></trkpt><trkpt lat="42.61413339181619" lon="12.722499815181617"><ele>440.5</ele><time>2026-04-11T13:01:32.001Z</time></trkpt><trkpt lat="42.61428913686103" lon="12.72248929900026"><ele>443.25</ele><time>2026-04-11T13:01:33.001Z</time></trkpt><trkpt lat="42.61441962191715" lon="12.72245445467645"><ele>446.0</ele><time>2026-04-11T13:01:34.001Z</time></trkpt><trkpt lat="42.61453257279736" lon="12.722437964724518"><ele>447.5</ele><time>2026-04-11T13:01:35.001Z</time></trkpt><trkpt lat="42.614630057981486" lon="12.722441808648425"><ele>449.0</ele><time>2026-04-11T13:01:36.001Z</time></trkpt><trkpt lat="42.614746929123434" lon="12.722468669788508"><ele>450.5</ele><time>2026-04-11T13:01:37.001Z</time></trkpt><trkpt lat="42.614859649197534" lon="12.722513454088554"><ele>452.0</ele><time>2026-04-11T13:01:38.001Z</time></trkpt><trkpt lat="42.61498835350978" lon="12.722569659146748"><ele>452.0</ele><time>2026-04-11T13:01:39.001Z</time></trkpt><trkpt lat="42.61512140173002" lon="12.722603216594075"><ele>452.0</ele><time>2026-04-11T13:01:40.001Z</time></trkpt><trkpt lat="42.61525638735361" lon="12.722621481265193"><ele>452.0</ele><time>2026-04-11T13:01:41.001Z</time></trkpt><trkpt lat="42.61538679919214" lon="12.722608548879897"><ele>452.0</ele><time>2026-04-11T13:01:42.001Z</time></trkpt><trkpt lat="42.61551898697885" lon="12.722632090293432"><ele>452.5</ele><time>2026-04-11T13:01:43.001Z</time></trkpt><trkpt lat="42.61564198674128" lon="12.722625948544335"><ele>453.0</ele><time>2026-04-11T13:01:44.001Z</time></trkpt><trkpt lat="42.615764229487986" lon="12.722626010011252"><ele>453.5</ele><time>2026-04-11T13:01:45.001Z</time></trkpt><trkpt lat="42.61589299099999" lon="12.722634981966165"><ele>454.0</ele><time>2026-04-11T13:01:46.001Z</time></trkpt><trkpt lat="42.616022562406926" lon="12.722644301473661"><ele>454.0</ele><time>2026-04-11T13:01:47.001Z</time></trkpt><trkpt lat="42.61614426952609" lon="12.722646054791534"><ele>454.0</ele><time>2026-04-11T13:01:48.001Z</time></trkpt><trkpt lat="42.61627152422283" lon="12.722651778002167"><ele>454.0</ele><time>2026-04-11T13:01:49.001Z</time></trkpt><trkpt lat="42.61639790077857" lon="12.722686745414375"><ele>454.0</ele><time>2026-04-11T13:01:50.001Z</time></trkpt><trkpt lat="42.61651841895534" lon="12.722719285727653"><ele>461.25</ele><time>2026-04-11T13:01:51.001Z</time></trkpt><trkpt lat="42.61663504830377" lon="12.722779649486814"><ele>468.5</ele><time>2026-04-11T13:01:52.001Z</time></trkpt><trkpt lat="42.616756184419266" lon="12.722825309994327"><ele>475.75</ele><time>2026-04-11T13:01:53.001Z</time></trkpt><trkpt lat="42.616880937445856" lon="12.722892924340508"><ele>483.0</ele><time>2026-04-11T13:01:54.001Z</time></trkpt><trkpt lat="42.617008463252446" lon="12.722968362850269"><ele>483.0</ele><time>2026-04-11T13:01:55.001Z</time></trkpt><trkpt lat="42.6171422816025" lon="12.723047066689636"><ele>483.0</ele><time>2026-04-11T13:01:56.001Z</time></trkpt><trkpt lat="42.617280171816184" lon="12.723129143161096"><ele>483.0</ele><time>2026-04-11T13:01:57.001Z</time></trkpt><trkpt lat="42.617429088189425" lon="12.72320935680525"><ele>483.0</ele><time>2026-04-11T13:01:58.001Z</time></trkpt><trkpt lat="42.61757892751701" lon="12.723294041102278"><ele>483.0</ele><time>2026-04-11T13:01:59.001Z</time></trkpt><trkpt lat="42.6177144480476" lon="12.723368431002097"><ele>483.0</ele><time>2026-04-11T13:02:00.001Z</time></trkpt><trkpt lat="42.61785713301397" lon="12.7234009162367"><ele>480.0</ele><time>2026-04-11T13:02:01.001Z</time></trkpt><trkpt lat="42.6179918077017" lon="12.723431212962009"><ele>477.0</ele><time>2026-04-11T13:02:02.001Z</time></trkpt><trkpt lat="42.61812747456075" lon="12.723442033852647"><ele>474.0</ele><time>2026-04-11T13:02:03.001Z</time></trkpt><trkpt lat="42.61825039228738" lon="12.723483203276846"><ele>471.0</ele><time>2026-04-11T13:02:04.001Z</time></trkpt><trkpt lat="42.618354563134275" lon="12.723503209820102"><ele>471.0</ele><time>2026-04-11T13:02:05.001Z</time></trkpt><trkpt lat="42.618439095193295" lon="12.72352341869053"><ele>471.0</ele><time>2026-04-11T13:02:06.001Z</time></trkpt><trkpt lat="42.618528377567706" lon="12.723541284606116"><ele>471.0</ele><time>2026-04-11T13:02:07.001Z</time></trkpt><trkpt lat="42.61861472982089" lon="12.72360362095536"><ele>471.0</ele><time>2026-04-11T13:02:08.001Z</time></trkpt><trkpt lat="42.61869764440633" lon="12.72368843920548"><ele>471.0</ele><time>2026-04-11T13:02:09.001Z</time></trkpt><trkpt lat="42.61877996325585" lon="12.723814419437863"><ele>472.8</ele><time>2026-04-11T13:02:10.001Z</time></trkpt><trkpt lat="42.61885919699345" lon="12.723953668763846"><ele>474.6</ele><time>2026-04-11T13:02:11.001Z</time></trkpt><trkpt lat="42.61890401317841" lon="12.724078835379272"><ele>476.4</ele><time>2026-04-11T13:02:12.001Z</time></trkpt><trkpt lat="42.6189381230284" lon="12.72417682407813"><ele>478.2</ele><time>2026-04-11T13:02:13.001Z</time></trkpt><trkpt lat="42.61894214887998" lon="12.724305351959552"><ele>480.0</ele><time>2026-04-11T13:02:14.001Z</time></trkpt><trkpt lat="42.618933530343796" lon="12.72443314249976"><ele>485.2</ele><time>2026-04-11T13:02:15.001Z</time></trkpt><trkpt lat="42.61893342338635" lon="12.724542461568836"><ele>490.4</ele><time>2026-04-11T13:02:16.001Z</time></trkpt><trkpt lat="42.618943458826855" lon="12.724630111374006"><ele>495.6</ele><time>2026-04-11T13:02:17.001Z</time></trkpt><trkpt lat="42.61901563059599" lon="12.724749115025071"><ele>500.8</ele><time>2026-04-11T13:02:19.001Z</time></trkpt><trkpt lat="42.619161647540025" lon="12.724769774885647"><ele>506.0</ele><time>2026-04-11T13:02:21.001Z</time></trkpt><trkpt lat="42.619277032768544" lon="12.724710778731444"><ele>506.0</ele><time>2026-04-11T13:02:22.001Z</time></trkpt><trkpt lat="42.6193909803114" lon="12.724660941161543"><ele>506.0</ele><time>2026-04-11T13:02:23.001Z</time></trkpt><trkpt lat="42.61951375031891" lon="12.724566601050288"><ele>506.0</ele><time>2026-04-11T13:02:24.001Z</time></trkpt><trkpt lat="42.619592616866214" lon="12.72443291991441"><ele>506.0</ele><time>2026-04-11T13:02:25.002Z</time></trkpt><trkpt lat="42.61967212394191" lon="12.72434092238387"><ele>502.66666666666663</ele><time>2026-04-11T13:02:26.002Z</time></trkpt><trkpt lat="42.61973804870388" lon="12.724284277201287"><ele>499.3333333333333</ele><time>2026-04-11T13:02:27.002Z</time></trkpt><trkpt lat="42.61980079811807" lon="12.724222239320465"><ele>496.0</ele><time>2026-04-11T13:02:28.002Z</time></trkpt><trkpt lat="42.619871241247054" lon="12.72418975573608"><ele>492.66666666666663</ele><time>2026-04-11T13:02:29.002Z</time></trkpt><trkpt lat="42.61994758182937" lon="12.72417489194695"><ele>489.3333333333333</ele><time>2026-04-11T13:02:30.002Z</time></trkpt><trkpt lat="42.62003464554811" lon="12.724152162508625"><ele>486.0</ele><time>2026-04-11T13:02:31.002Z</time></trkpt><trkpt lat="42.620121992605796" lon="12.724134477506034"><ele>486.0</ele><time>2026-04-11T13:02:32.002Z</time></trkpt><trkpt lat="42.620187386995624" lon="12.724122911225583"><ele>486.0</ele><time>2026-04-11T13:02:33.002Z</time></trkpt><trkpt lat="42.62026410470992" lon="12.724110197087628"><ele>486.0</ele><time>2026-04-11T13:02:35.002Z</time></trkpt><trkpt lat="42.62033434758249" lon="12.724100872221328"><ele>486.0</ele><time>2026-04-11T13:02:38.002Z</time></trkpt><trkpt lat="42.6204019949281" lon="12.724086279942643"><ele>486.0</ele><time>2026-04-11T13:02:41.002Z</time></trkpt><trkpt lat="42.620400017224775" lon="12.72367540582715"><ele>484.0</ele><time>2026-04-11T13:02:45.002Z</time></trkpt><trkpt lat="42.62045705816235" lon="12.72360342225274"><ele>482.0</ele><time>2026-04-11T13:02:47.002Z</time></trkpt><trkpt lat="42.620508881051016" lon="12.723468468988676"><ele>480.0</ele><time>2026-04-11T13:02:49.002Z</time></trkpt><trkpt lat="42.620567339303946" lon="12.72338652834841"><ele>478.0</ele><time>2026-04-11T13:02:51.002Z</time></trkpt><trkpt lat="42.620773504689744" lon="12.723636414205073"><ele>478.0</ele><time>2026-04-11T13:02:53Z</time></trkpt><trkpt lat="42.62083498670129" lon="12.72354019332682"><ele>477.99999999999994</ele><time>2026-04-11T13:02:55Z</time></trkpt><trkpt lat="42.62089276308369" lon="12.72344005032456"><ele>477.99999999999994</ele><time>2026-04-11T13:02:57Z</time></trkpt><trkpt lat="42.62094219325276" lon="12.72335701490366"><ele>478.0</ele><time>2026-04-11T13:02:59Z</time></trkpt><trkpt lat="42.620991633006916" lon="12.723266917956241"><ele>478.0</ele><time>2026-04-11T13:03:01Z</time></trkpt><trkpt lat="42.62092085708108" lon="12.72295624683473"><ele>478.00000000000006</ele><time>2026-04-11T13:03:02Z</time></trkpt><trkpt lat="42.6209741172814" lon="12.722800948413616"><ele>478.0</ele><time>2026-04-11T13:03:04Z</time></trkpt><trkpt lat="42.620983687771485" lon="12.722715402691424"><ele>478.0</ele><time>2026-04-11T13:03:05Z</time></trkpt><trkpt lat="42.620988960917856" lon="12.722605078055544"><ele>478.0</ele><time>2026-04-11T13:03:06Z</time></trkpt><trkpt lat="42.62099312662975" lon="12.722518068085844"><ele>478.00000000000006</ele><time>2026-04-11T13:03:07Z</time></trkpt><trkpt lat="42.6209864358856" lon="12.722385683009762"><ele>478.0</ele><time>2026-04-11T13:03:09.001Z</time></trkpt><trkpt lat="42.62096547929676" lon="12.722244670675728"><ele>474.2</ele><time>2026-04-11T13:03:11.001Z</time></trkpt><trkpt lat="42.62094760055553" lon="12.72208640484927"><ele>470.4</ele><time>2026-04-11T13:03:13.001Z</time></trkpt><trkpt lat="42.62095742896537" lon="12.72195933871433"><ele>466.59999999999997</ele><time>2026-04-11T13:03:15.001Z</time></trkpt><trkpt lat="42.62100835088163" lon="12.721835987065392"><ele>462.79999999999995</ele><time>2026-04-11T13:03:17.001Z</time></trkpt><trkpt lat="42.6210618380683" lon="12.721780192244836"><ele>459.0</ele><time>2026-04-11T13:03:18.001Z</time></trkpt><trkpt lat="42.62113462738308" lon="12.721736238108837"><ele>460.1666666666667</ele><time>2026-04-11T13:03:19.001Z</time></trkpt><trkpt lat="42.62120962653955" lon="12.721667197065221"><ele>461.33333333333337</ele><time>2026-04-11T13:03:20.001Z</time></trkpt><trkpt lat="42.62128965689421" lon="12.721622836496607"><ele>462.5</ele><time>2026-04-11T13:03:21.001Z</time></trkpt><trkpt lat="42.621354440915006" lon="12.721592552576174"><ele>463.6666666666667</ele><time>2026-04-11T13:03:22.001Z</time></trkpt><trkpt lat="42.62142899932213" lon="12.721547156111338"><ele>464.83333333333337</ele><time>2026-04-11T13:03:23.001Z</time></trkpt><trkpt lat="42.62151337352264" lon="12.721510167819535"><ele>466.0</ele><time>2026-04-11T13:03:24.001Z</time></trkpt><trkpt lat="42.62159775916698" lon="12.721472633648101"><ele>466.00000000000006</ele><time>2026-04-11T13:03:25.001Z</time></trkpt><trkpt lat="42.62166509976834" lon="12.72143856651549"><ele>466.0</ele><time>2026-04-11T13:03:26.001Z</time></trkpt><trkpt lat="42.621730696415945" lon="12.721400872532898"><ele>466.0</ele><time>2026-04-11T13:03:27.001Z</time></trkpt><trkpt lat="42.621812018508145" lon="12.721336407945746"><ele>466.0</ele><time>2026-04-11T13:03:28.001Z</time></trkpt><trkpt lat="42.621891394049925" lon="12.721280713155002"><ele>466.00000000000006</ele><time>2026-04-11T13:03:29.001Z</time></trkpt><trkpt lat="42.621947280638146" lon="12.72121166406571"><ele>466.0</ele><time>2026-04-11T13:03:30.001Z</time></trkpt><trkpt lat="42.621982958321254" lon="12.721137974067483"><ele>465.8</ele><time>2026-04-11T13:03:31.001Z</time></trkpt><trkpt lat="42.6220578287833" lon="12.721010054553414"><ele>465.6</ele><time>2026-04-11T13:03:33.001Z</time></trkpt><trkpt lat="42.62207271878416" lon="12.720848249132356"><ele>465.4</ele><time>2026-04-11T13:03:35.001Z</time></trkpt><trkpt lat="42.62211054548982" lon="12.720754612075122"><ele>465.2</ele><time>2026-04-11T13:03:37.001Z</time></trkpt><trkpt lat="42.62218683791678" lon="12.720655991066648"><ele>465.0</ele><time>2026-04-11T13:03:39.001Z</time></trkpt><trkpt lat="42.62224120071205" lon="12.720580357517735"><ele>465.0</ele><time>2026-04-11T13:03:41.001Z</time></trkpt><trkpt lat="42.622260333174346" lon="12.720477612804865"><ele>465.0</ele><time>2026-04-11T13:03:43.001Z</time></trkpt><trkpt lat="42.62225023419004" lon="12.720366801167465"><ele>465.0</ele><time>2026-04-11T13:03:44.001Z</time></trkpt><trkpt lat="42.62225762947885" lon="12.720275511647571"><ele>465.0</ele><time>2026-04-11T13:03:45.001Z</time></trkpt><trkpt lat="42.62226696918061" lon="12.72014397657044"><ele>465.0</ele><time>2026-04-11T13:03:47.001Z</time></trkpt><trkpt lat="42.62228092565385" lon="12.720042927240208"><ele>465.0</ele><time>2026-04-11T13:03:49.001Z</time></trkpt><trkpt lat="42.622267599260894" lon="12.719959185018062"><ele>463.8333333333333</ele><time>2026-04-11T13:03:53.001Z</time></trkpt><trkpt lat="42.62220950631423" lon="12.71991511798801"><ele>462.66666666666663</ele><time>2026-04-11T13:04:02.001Z</time></trkpt><trkpt lat="42.622094720905416" lon="12.71992989304644"><ele>461.5</ele><time>2026-04-11T13:04:04.001Z</time></trkpt><trkpt lat="42.62199120109862" lon="12.71994268011285"><ele>460.3333333333333</ele><time>2026-04-11T13:04:06.001Z</time></trkpt><trkpt lat="42.62192843916092" lon="12.719965299444988"><ele>459.16666666666663</ele><time>2026-04-11T13:04:08.001Z</time></trkpt><trkpt lat="42.62185810966849" lon="12.720039183566081"><ele>458.0</ele><time>2026-04-11T13:04:15.002Z</time></trkpt><trkpt lat="42.62179256993089" lon="12.720130864352681"><ele>456.59999999999997</ele><time>2026-04-11T13:04:17.002Z</time></trkpt><trkpt lat="42.62172657990968" lon="12.720159680229813"><ele>455.19999999999993</ele><time>2026-04-11T13:04:20.002Z</time></trkpt><trkpt lat="42.621629148855796" lon="12.720135152112082"><ele>453.8</ele><time>2026-04-11T13:04:23.002Z</time></trkpt><trkpt lat="42.62155323992435" lon="12.720182609406905"><ele>452.4</ele><time>2026-04-11T13:04:26.002Z</time></trkpt><trkpt lat="42.62163665977512" lon="12.720124002082907"><ele>451.0</ele><time>2026-04-11T13:04:45.002Z</time></trkpt><trkpt lat="42.62173752090518" lon="12.720157467701547"><ele>451.0</ele><time>2026-04-11T13:04:47.002Z</time></trkpt><trkpt lat="42.62182412712286" lon="12.720063563166953"><ele>451.0</ele><time>2026-04-11T13:04:49.002Z</time></trkpt><trkpt lat="42.62190039581925" lon="12.719921037025111"><ele>451.0</ele><time>2026-04-11T13:04:51.002Z</time></trkpt><trkpt lat="42.621965096559855" lon="12.719905757582225"><ele>451.0</ele><time>2026-04-11T13:04:53.002Z</time></trkpt><trkpt lat="42.62200258391769" lon="12.719829757636017"><ele>451.0</ele><time>2026-04-11T13:04:58.002Z</time></trkpt><trkpt lat="42.62199397699138" lon="12.719716503900804"><ele>451.00000000000006</ele><time>2026-04-11T13:05:00.001Z</time></trkpt><trkpt lat="42.62194804144616" lon="12.719589081558857"><ele>451.0</ele><time>2026-04-11T13:05:02.001Z</time></trkpt><trkpt lat="42.62192404532269" lon="12.719477099613478"><ele>451.0</ele><time>2026-04-11T13:05:04.001Z</time></trkpt><trkpt lat="42.62192418199397" lon="12.719366649089551"><ele>451.0</ele><time>2026-04-11T13:05:06.001Z</time></trkpt><trkpt lat="42.62189129168781" lon="12.719249133695742"><ele>451.00000000000006</ele><time>2026-04-11T13:05:09.001Z</time></trkpt><trkpt lat="42.621860522927385" lon="12.719156037302211"><ele>451.0</ele><time>2026-04-11T13:05:11.001Z</time></trkpt><trkpt lat="42.62183370850101" lon="12.71906843568795"><ele>452.0</ele><time>2026-04-11T13:05:14.001Z</time></trkpt><trkpt lat="42.621813258595004" lon="12.71897662362979"><ele>453.0</ele><time>2026-04-11T13:05:21.001Z</time></trkpt><trkpt lat="42.621764649821216" lon="12.718890046660329"><ele>454.0</ele><time>2026-04-11T13:05:24.001Z</time></trkpt><trkpt lat="42.621715374394974" lon="12.718835498606214"><ele>455.0</ele><time>2026-04-11T13:05:26.001Z</time></trkpt><trkpt lat="42.621663045595085" lon="12.718784731083037"><ele>456.0</ele><time>2026-04-11T13:05:28.001Z</time></trkpt><trkpt lat="42.62160631781694" lon="12.71871960445743"><ele>457.0</ele><time>2026-04-11T13:05:30.001Z</time></trkpt><trkpt lat="42.62153571751783" lon="12.71869053350479"><ele>458.0</ele><time>2026-04-11T13:05:33.001Z</time></trkpt><trkpt lat="42.62147766382654" lon="12.718654974254704"><ele>457.99999999999994</ele><time>2026-04-11T13:05:41.001Z</time></trkpt><trkpt lat="42.62154568815689" lon="12.718681674032144"><ele>458.0</ele><time>2026-04-11T13:07:04.001Z</time></trkpt><trkpt lat="42.62162109667065" lon="12.71870433232682"><ele>458.0</ele><time>2026-04-11T13:07:07Z</time></trkpt><trkpt lat="42.6216805628373" lon="12.718749830995481"><ele>458.0</ele><time>2026-04-11T13:07:10Z</time></trkpt><trkpt lat="42.62174157165382" lon="12.718800899478762"><ele>457.99999999999994</ele><time>2026-04-11T13:07:14Z</time></trkpt><trkpt lat="42.6218046698301" lon="12.718890311804445"><ele>458.0</ele><time>2026-04-11T13:07:18Z</time></trkpt><trkpt lat="42.62184156025351" lon="12.719002149572258"><ele>457.99999999999994</ele><time>2026-04-11T13:07:21Z</time></trkpt><trkpt lat="42.62186414285608" lon="12.71908515783979"><ele>458.0</ele><time>2026-04-11T13:07:23Z</time></trkpt><trkpt lat="42.62190101983357" lon="12.71917369637744"><ele>458.0</ele><time>2026-04-11T13:07:25Z</time></trkpt><trkpt lat="42.62193206635977" lon="12.719301385475136"><ele>458.0</ele><time>2026-04-11T13:07:28Z</time></trkpt><trkpt lat="42.62194709361532" lon="12.71942516896959"><ele>457.99999999999994</ele><time>2026-04-11T13:07:30Z</time></trkpt><trkpt lat="42.62197916544021" lon="12.719530464323187"><ele>458.0</ele><time>2026-04-11T13:07:32Z</time></trkpt><trkpt lat="42.62200190292865" lon="12.719642119302476"><ele>458.0</ele><time>2026-04-11T13:07:34Z</time></trkpt><trkpt lat="42.62205029688997" lon="12.719733276750095"><ele>457.99999999999994</ele><time>2026-04-11T13:07:37Z</time></trkpt><trkpt lat="42.622135159248664" lon="12.719744285064335"><ele>457.99999999999994</ele><time>2026-04-11T13:07:39Z</time></trkpt><trkpt lat="42.62222219667054" lon="12.719724041160624"><ele>458.0</ele><time>2026-04-11T13:07:41Z</time></trkpt><trkpt lat="42.62227785044018" lon="12.719678641090923"><ele>458.0</ele><time>2026-04-11T13:07:42Z</time></trkpt><trkpt lat="42.622370344042864" lon="12.719557283801967"><ele>458.0</ele><time>2026-04-11T13:07:44Z</time></trkpt><trkpt lat="42.62243483708843" lon="12.71950362723254"><ele>457.99999999999994</ele><time>2026-04-11T13:07:45Z</time></trkpt><trkpt lat="42.62253644700956" lon="12.719429954721301"><ele>457.99999999999994</ele><time>2026-04-11T13:07:46Z</time></trkpt><trkpt lat="42.62263249954085" lon="12.719389600293114"><ele>458.0</ele><time>2026-04-11T13:07:47Z</time></trkpt><trkpt lat="42.6227222408451" lon="12.719377549271437"><ele>458.0</ele><time>2026-04-11T13:07:48Z</time></trkpt><trkpt lat="42.622808570421384" lon="12.719383841696194"><ele>458.66666666666663</ele><time>2026-04-11T13:07:49Z</time></trkpt><trkpt lat="42.622890247282335" lon="12.719395442539604"><ele>459.3333333333333</ele><time>2026-04-11T13:07:50Z</time></trkpt><trkpt lat="42.62297022266345" lon="12.719371262436422"><ele>460.0</ele><time>2026-04-11T13:07:51Z</time></trkpt><trkpt lat="42.62303671113876" lon="12.719333023384609"><ele>460.66666666666663</ele><time>2026-04-11T13:07:52Z</time></trkpt><trkpt lat="42.623108861368635" lon="12.719254171085526"><ele>461.3333333333333</ele><time>2026-04-11T13:07:53Z</time></trkpt><trkpt lat="42.62318778903637" lon="12.719198921619736"><ele>462.0</ele><time>2026-04-11T13:07:54Z</time></trkpt><trkpt lat="42.623270783372625" lon="12.719144507132627"><ele>462.0</ele><time>2026-04-11T13:07:55Z</time></trkpt><trkpt lat="42.62335415284827" lon="12.719116081462582"><ele>462.0</ele><time>2026-04-11T13:07:56Z</time></trkpt><trkpt lat="42.623433225873235" lon="12.719115928810954"><ele>462.0</ele><time>2026-04-11T13:07:57Z</time></trkpt><trkpt lat="42.623501038678114" lon="12.719107630911639"><ele>462.0</ele><time>2026-04-11T13:07:58.001Z</time></trkpt><trkpt lat="42.623589100130076" lon="12.719066713399675"><ele>462.0</ele><time>2026-04-11T13:07:59.001Z</time></trkpt><trkpt lat="42.62367642020731" lon="12.719019336455819"><ele>462.0</ele><time>2026-04-11T13:08:00.001Z</time></trkpt><trkpt lat="42.623752523612346" lon="12.718958692914493"><ele>463.8</ele><time>2026-04-11T13:08:01.001Z</time></trkpt><trkpt lat="42.623833507423186" lon="12.718861581177396"><ele>465.6</ele><time>2026-04-11T13:08:02.001Z</time></trkpt><trkpt lat="42.62394885950312" lon="12.718776800678613"><ele>467.40000000000003</ele><time>2026-04-11T13:08:04.001Z</time></trkpt><trkpt lat="42.6240716546658" lon="12.718725365651025"><ele>469.20000000000005</ele><time>2026-04-11T13:08:06.001Z</time></trkpt><trkpt lat="42.624139296383554" lon="12.718725624482653"><ele>471.0</ele><time>2026-04-11T13:08:07.001Z</time></trkpt><trkpt lat="42.624203060712674" lon="12.718754448510422"><ele>471.0</ele><time>2026-04-11T13:08:08.001Z</time></trkpt><trkpt lat="42.62426602897939" lon="12.718782984741932"><ele>471.0</ele><time>2026-04-11T13:08:09.001Z</time></trkpt><trkpt lat="42.62433489627387" lon="12.718801599163601"><ele>471.0</ele><time>2026-04-11T13:08:10.001Z</time></trkpt><trkpt lat="42.624417205959205" lon="12.718785936700147"><ele>471.0</ele><time>2026-04-11T13:08:11.001Z</time></trkpt><trkpt lat="42.6245108540282" lon="12.718740823796258"><ele>471.0</ele><time>2026-04-11T13:08:12.001Z</time></trkpt><trkpt lat="42.62461563753489" lon="12.7186918150028"><ele>471.0</ele><time>2026-04-11T13:08:13.001Z</time></trkpt><trkpt lat="42.624725475205054" lon="12.7186314653744"><ele>472.0</ele><time>2026-04-11T13:08:14.001Z</time></trkpt><trkpt lat="42.62482042562087" lon="12.718577959357809"><ele>473.0</ele><time>2026-04-11T13:08:15.001Z</time></trkpt><trkpt lat="42.624890875490934" lon="12.718530706306838"><ele>474.0</ele><time>2026-04-11T13:08:16.001Z</time></trkpt><trkpt lat="42.62497624915076" lon="12.718472580397698"><ele>475.0</ele><time>2026-04-11T13:08:17.001Z</time></trkpt><trkpt lat="42.625040522714464" lon="12.718386193331446"><ele>476.0</ele><time>2026-04-11T13:08:18.001Z</time></trkpt><trkpt lat="42.625098749273434" lon="12.718305133087256"><ele>476.0</ele><time>2026-04-11T13:08:19.001Z</time></trkpt><trkpt lat="42.625163992102884" lon="12.71822074548537"><ele>476.0</ele><time>2026-04-11T13:08:20.001Z</time></trkpt><trkpt lat="42.62521947084083" lon="12.718123810085128"><ele>476.0</ele><time>2026-04-11T13:08:21.001Z</time></trkpt><trkpt lat="42.62529623912961" lon="12.718013113452775"><ele>476.0</ele><time>2026-04-11T13:08:23.001Z</time></trkpt><trkpt lat="42.6254384585118" lon="12.718042518023642"><ele>476.0</ele><time>2026-04-11T13:08:25.001Z</time></trkpt><trkpt lat="42.62549757138824" lon="12.718128638842893"><ele>477.16666666666663</ele><time>2026-04-11T13:08:26.001Z</time></trkpt><trkpt lat="42.625557674093905" lon="12.718199263989167"><ele>478.3333333333333</ele><time>2026-04-11T13:08:27.001Z</time></trkpt><trkpt lat="42.625618429454775" lon="12.718230180902928"><ele>479.5</ele><time>2026-04-11T13:08:28.001Z</time></trkpt><trkpt lat="42.62568307272118" lon="12.718254266674013"><ele>480.66666666666663</ele><time>2026-04-11T13:08:29.001Z</time></trkpt><trkpt lat="42.62578546682742" lon="12.718286538870068"><ele>481.8333333333333</ele><time>2026-04-11T13:08:30.001Z</time></trkpt><trkpt lat="42.62584881952259" lon="12.718346631688686"><ele>483.0</ele><time>2026-04-11T13:08:31.001Z</time></trkpt><trkpt lat="42.62592853534393" lon="12.718376701939727"><ele>483.0</ele><time>2026-04-11T13:08:32.001Z</time></trkpt><trkpt lat="42.62599814458327" lon="12.718380836806244"><ele>483.0</ele><time>2026-04-11T13:08:33.001Z</time></trkpt><trkpt lat="42.62635955327069" lon="12.718117193633478"><ele>484.0</ele><time>2026-04-11T13:08:34.001Z</time></trkpt><trkpt lat="42.62643159575333" lon="12.718076843439377"><ele>484.99999999999994</ele><time>2026-04-11T13:08:35.001Z</time></trkpt><trkpt lat="42.62650735139855" lon="12.718005275827132"><ele>485.99999999999994</ele><time>2026-04-11T13:08:36.001Z</time></trkpt><trkpt lat="42.62658441558374" lon="12.717898299373845"><ele>487.0</ele><time>2026-04-11T13:08:37.001Z</time></trkpt><trkpt lat="42.62665724927843" lon="12.717766828099679"><ele>488.0</ele><time>2026-04-11T13:08:38.001Z</time></trkpt><trkpt lat="42.62671857521579" lon="12.717653456248874"><ele>489.59999999999997</ele><time>2026-04-11T13:08:39.001Z</time></trkpt><trkpt lat="42.62678285467348" lon="12.71756785247727"><ele>491.19999999999993</ele><time>2026-04-11T13:08:40.001Z</time></trkpt><trkpt lat="42.62686481356013" lon="12.717478263764772"><ele>492.8</ele><time>2026-04-11T13:08:41.001Z</time></trkpt><trkpt lat="42.626945769126635" lon="12.717400617429991"><ele>494.4</ele><time>2026-04-11T13:08:42.001Z</time></trkpt><trkpt lat="42.6270197055636" lon="12.717328818001533"><ele>496.0</ele><time>2026-04-11T13:08:43.001Z</time></trkpt><trkpt lat="42.62708723776973" lon="12.717281414805987"><ele>496.0</ele><time>2026-04-11T13:08:44.001Z</time></trkpt><trkpt lat="42.627186881833374" lon="12.71725324208192"><ele>496.0</ele><time>2026-04-11T13:08:45.001Z</time></trkpt><trkpt lat="42.62728109518833" lon="12.717232515966339"><ele>496.0</ele><time>2026-04-11T13:08:46.001Z</time></trkpt><trkpt lat="42.62736928492857" lon="12.717220316055233"><ele>496.0</ele><time>2026-04-11T13:08:47.001Z</time></trkpt><trkpt lat="42.627485417398475" lon="12.717213836703591"><ele>496.0</ele><time>2026-04-11T13:08:48.001Z</time></trkpt><trkpt lat="42.627597643255605" lon="12.717213536995448"><ele>496.0</ele><time>2026-04-11T13:08:49.001Z</time></trkpt><trkpt lat="42.627700199226354" lon="12.717211750776862"><ele>496.0</ele><time>2026-04-11T13:08:50.001Z</time></trkpt><trkpt lat="42.627792812377" lon="12.717212863131952"><ele>496.0</ele><time>2026-04-11T13:08:51.001Z</time></trkpt><trkpt lat="42.627882837364076" lon="12.717180983468957"><ele>496.0</ele><time>2026-04-11T13:08:52.001Z</time></trkpt><trkpt lat="42.62795227261069" lon="12.717127668721053"><ele>496.0</ele><time>2026-04-11T13:08:53.001Z</time></trkpt><trkpt lat="42.62801881645709" lon="12.717030852014512"><ele>497.25</ele><time>2026-04-11T13:08:54.001Z</time></trkpt><trkpt lat="42.628079627044514" lon="12.716906260660817"><ele>498.5</ele><time>2026-04-11T13:08:55.001Z</time></trkpt><trkpt lat="42.62815867793668" lon="12.71678461179076"><ele>499.75</ele><time>2026-04-11T13:08:56.001Z</time></trkpt><trkpt lat="42.62824718840226" lon="12.716640821359004"><ele>501.0</ele><time>2026-04-11T13:08:57.001Z</time></trkpt><trkpt lat="42.62833432533381" lon="12.716552732591804"><ele>502.4</ele><time>2026-04-11T13:08:58.001Z</time></trkpt><trkpt lat="42.62841065585559" lon="12.716472901678195"><ele>503.8</ele><time>2026-04-11T13:08:59.001Z</time></trkpt><trkpt lat="42.62849344085159" lon="12.716386970233156"><ele>505.19999999999993</ele><time>2026-04-11T13:09:00.001Z</time></trkpt><trkpt lat="42.628571584180534" lon="12.716285699324551"><ele>506.59999999999997</ele><time>2026-04-11T13:09:01.001Z</time></trkpt><trkpt lat="42.628647335810854" lon="12.716212956357335"><ele>508.0</ele><time>2026-04-11T13:09:02.001Z</time></trkpt><trkpt lat="42.6287021119283" lon="12.716145872751843"><ele>509.79999999999995</ele><time>2026-04-11T13:09:03.001Z</time></trkpt><trkpt lat="42.6287488554455" lon="12.716083791466573"><ele>511.59999999999997</ele><time>2026-04-11T13:09:04.001Z</time></trkpt><trkpt lat="42.62885774133366" lon="12.71598962962292"><ele>513.4000000000001</ele><time>2026-04-11T13:09:06.001Z</time></trkpt><trkpt lat="42.62895805626518" lon="12.71596527816875"><ele>515.2</ele><time>2026-04-11T13:09:08.001Z</time></trkpt><trkpt lat="42.62903947008044" lon="12.715972644650538"><ele>517.0</ele><time>2026-04-11T13:09:10.001Z</time></trkpt><trkpt lat="42.629128375273005" lon="12.715922731721646"><ele>517.0</ele><time>2026-04-11T13:09:12Z</time></trkpt><trkpt lat="42.62919612513054" lon="12.715896852204592"><ele>517.0</ele><time>2026-04-11T13:09:13Z</time></trkpt><trkpt lat="42.629279861537135" lon="12.71585350157303"><ele>517.0</ele><time>2026-04-11T13:09:15Z</time></trkpt><trkpt lat="42.629353552078825" lon="12.715837478399946"><ele>517.0</ele><time>2026-04-11T13:09:17Z</time></trkpt><trkpt lat="42.62942621973704" lon="12.71593598221063"><ele>517.0</ele><time>2026-04-11T13:09:19Z</time></trkpt><trkpt lat="42.62944065956458" lon="12.716094444442668"><ele>517.1666666666667</ele><time>2026-04-11T13:09:21Z</time></trkpt><trkpt lat="42.62942244354782" lon="12.716196298045867"><ele>517.3333333333334</ele><time>2026-04-11T13:09:22Z</time></trkpt><trkpt lat="42.62938667794287" lon="12.716302451739395"><ele>517.5</ele><time>2026-04-11T13:09:24Z</time></trkpt><trkpt lat="42.6293576580899" lon="12.716384712155842"><ele>517.6666666666666</ele><time>2026-04-11T13:09:26Z</time></trkpt><trkpt lat="42.629318638421935" lon="12.71653258032009"><ele>517.8333333333333</ele><time>2026-04-11T13:12:44.001Z</time></trkpt><trkpt lat="42.62935367230329" lon="12.716623677885654"><ele>518.0</ele><time>2026-04-11T13:14:15Z</time></trkpt><trkpt lat="42.629327444911226" lon="12.716729640407902"><ele>518.0</ele><time>2026-04-11T13:14:17Z</time></trkpt><trkpt lat="42.62919247559538" lon="12.71679729565428"><ele>518.0</ele><time>2026-04-11T13:14:19Z</time></trkpt><trkpt lat="42.62909393026901" lon="12.71687597778112"><ele>518.0</ele><time>2026-04-11T13:14:21Z</time></trkpt><trkpt lat="42.62903314624136" lon="12.717020162941191"><ele>518.0</ele><time>2026-04-11T13:14:23.001Z</time></trkpt><trkpt lat="42.62895606684321" lon="12.71711150110352"><ele>520.1999999999999</ele><time>2026-04-11T13:14:24.001Z</time></trkpt><trkpt lat="42.628910185418725" lon="12.717225322898203"><ele>522.4</ele><time>2026-04-11T13:14:25.001Z</time></trkpt><trkpt lat="42.628857613845774" lon="12.717348497752685"><ele>524.5999999999999</ele><time>2026-04-11T13:14:26.001Z</time></trkpt><trkpt lat="42.62880924570037" lon="12.717467328107292"><ele>526.8</ele><time>2026-04-11T13:14:27.001Z</time></trkpt><trkpt lat="42.628775537913675" lon="12.7176007440019"><ele>529.0</ele><time>2026-04-11T13:14:28.001Z</time></trkpt><trkpt lat="42.628738699510144" lon="12.717710861241715"><ele>532.2</ele><time>2026-04-11T13:14:29.001Z</time></trkpt><trkpt lat="42.628689375806566" lon="12.71781892839489"><ele>535.4</ele><time>2026-04-11T13:14:30.001Z</time></trkpt><trkpt lat="42.62862904186352" lon="12.717952190146347"><ele>538.6</ele><time>2026-04-11T13:14:31.001Z</time></trkpt><trkpt lat="42.6285527715009" lon="12.718083335313858"><ele>541.8</ele><time>2026-04-11T13:14:32.001Z</time></trkpt><trkpt lat="42.62850062036013" lon="12.71820838150868"><ele>545.0</ele><time>2026-04-11T13:14:33.001Z</time></trkpt><trkpt lat="42.6284343979145" lon="12.71832584029743"><ele>542.6666666666666</ele><time>2026-04-11T13:14:34.001Z</time></trkpt><trkpt lat="42.628391699169555" lon="12.718395657092993"><ele>540.3333333333333</ele><time>2026-04-11T13:14:35.001Z</time></trkpt><trkpt lat="42.62836253542822" lon="12.7184828661104"><ele>538.0</ele><time>2026-04-11T13:14:36.001Z</time></trkpt><trkpt lat="42.62832932402562" lon="12.718564310543055"><ele>535.6666666666666</ele><time>2026-04-11T13:14:37.001Z</time></trkpt><trkpt lat="42.62825507488305" lon="12.718619940321846"><ele>533.3333333333334</ele><time>2026-04-11T13:14:38.001Z</time></trkpt><trkpt lat="42.62817080884849" lon="12.71866560723732"><ele>531.0</ele><time>2026-04-11T13:14:39.001Z</time></trkpt><trkpt lat="42.62810964483572" lon="12.718719956485007"><ele>531.0</ele><time>2026-04-11T13:14:40.001Z</time></trkpt><trkpt lat="42.62804282528493" lon="12.718845003211056"><ele>531.0</ele><time>2026-04-11T13:14:42.001Z</time></trkpt><trkpt lat="42.627999050810146" lon="12.718941120638007"><ele>531.0</ele><time>2026-04-11T13:14:43.001Z</time></trkpt><trkpt lat="42.62795639734224" lon="12.71902065424043"><ele>531.0</ele><time>2026-04-11T13:14:44.001Z</time></trkpt><trkpt lat="42.6279158654046" lon="12.71917903056568"><ele>531.0</ele><time>2026-04-11T13:14:46.001Z</time></trkpt><trkpt lat="42.627898644076225" lon="12.719286096682321"><ele>529.0</ele><time>2026-04-11T13:14:47.001Z</time></trkpt><trkpt lat="42.62786504685579" lon="12.719402732084498"><ele>527.0</ele><time>2026-04-11T13:14:48.001Z</time></trkpt><trkpt lat="42.62782813843913" lon="12.719517079283909"><ele>525.0</ele><time>2026-04-11T13:14:49.001Z</time></trkpt><trkpt lat="42.62778975380496" lon="12.719644983902606"><ele>523.0</ele><time>2026-04-11T13:14:50.001Z</time></trkpt><trkpt lat="42.627757771684756" lon="12.719747961552164"><ele>521.0</ele><time>2026-04-11T13:14:51.001Z</time></trkpt><trkpt lat="42.62774099599222" lon="12.719860956045368"><ele>521.0</ele><time>2026-04-11T13:14:52.001Z</time></trkpt><trkpt lat="42.6277408345859" lon="12.719973067553706"><ele>521.0</ele><time>2026-04-11T13:14:53.001Z</time></trkpt><trkpt lat="42.62773958833854" lon="12.720089110398238"><ele>521.0</ele><time>2026-04-11T13:14:54.001Z</time></trkpt><trkpt lat="42.627689829759625" lon="12.720188838804306"><ele>521.0</ele><time>2026-04-11T13:14:57.001Z</time></trkpt><trkpt lat="42.627615509598414" lon="12.720309522174006"><ele>521.0</ele><time>2026-04-11T13:14:59.001Z</time></trkpt><trkpt lat="42.627555490734366" lon="12.720375739874761"><ele>522.6666666666666</ele><time>2026-04-11T13:15:00.001Z</time></trkpt><trkpt lat="42.62748803556406" lon="12.720459787503435"><ele>524.3333333333333</ele><time>2026-04-11T13:15:01.001Z</time></trkpt><trkpt lat="42.627429356158565" lon="12.720532146704903"><ele>526.0</ele><time>2026-04-11T13:15:02.001Z</time></trkpt><trkpt lat="42.62737615725623" lon="12.720609665139975"><ele>527.6666666666666</ele><time>2026-04-11T13:15:03.001Z</time></trkpt><trkpt lat="42.627332604314994" lon="12.720677670293645"><ele>529.3333333333334</ele><time>2026-04-11T13:15:04.001Z</time></trkpt><trkpt lat="42.62729822503247" lon="12.720783661590707"><ele>531.0</ele><time>2026-04-11T13:15:05.001Z</time></trkpt><trkpt lat="42.62729098576047" lon="12.720903261138108"><ele>531.0</ele><time>2026-04-11T13:15:06.001Z</time></trkpt><trkpt lat="42.627279861661115" lon="12.72099713664474"><ele>531.0</ele><time>2026-04-11T13:15:07.001Z</time></trkpt><trkpt lat="42.62718977344596" lon="12.72113389693321"><ele>531.0</ele><time>2026-04-11T13:15:09.001Z</time></trkpt><trkpt lat="42.62713353108063" lon="12.721197010424923"><ele>531.0</ele><time>2026-04-11T13:15:10.001Z</time></trkpt><trkpt lat="42.62715206295383" lon="12.721323378789899"><ele>531.0</ele><time>2026-04-11T13:15:12.001Z</time></trkpt><trkpt lat="42.62720266775471" lon="12.721415947635222"><ele>532.8</ele><time>2026-04-11T13:15:13.001Z</time></trkpt><trkpt lat="42.62726219887903" lon="12.721548643211893"><ele>534.6</ele><time>2026-04-11T13:15:14.001Z</time></trkpt><trkpt lat="42.627317530746176" lon="12.721664105461555"><ele>536.4</ele><time>2026-04-11T13:15:15.001Z</time></trkpt><trkpt lat="42.627370805720844" lon="12.721785349345234"><ele>538.2</ele><time>2026-04-11T13:15:16.001Z</time></trkpt><trkpt lat="42.62742188826294" lon="12.721924622928844"><ele>540.0</ele><time>2026-04-11T13:15:17.001Z</time></trkpt><trkpt lat="42.627450804176135" lon="12.72205529828183"><ele>542.8</ele><time>2026-04-11T13:15:18.001Z</time></trkpt><trkpt lat="42.627501861090416" lon="12.72216835552737"><ele>545.6</ele><time>2026-04-11T13:15:19.001Z</time></trkpt><trkpt lat="42.62758063803278" lon="12.722246761029133"><ele>548.4</ele><time>2026-04-11T13:15:20.001Z</time></trkpt><trkpt lat="42.62765729598888" lon="12.722322742579061"><ele>551.2</ele><time>2026-04-11T13:15:21.001Z</time></trkpt><trkpt lat="42.6277530491969" lon="12.722397044682893"><ele>554.0</ele><time>2026-04-11T13:15:22.001Z</time></trkpt><trkpt lat="42.62786193604135" lon="12.722462660720268"><ele>554.0</ele><time>2026-04-11T13:15:23.001Z</time></trkpt><trkpt lat="42.62797012897521" lon="12.722519727062481"><ele>554.0</ele><time>2026-04-11T13:15:24.001Z</time></trkpt><trkpt lat="42.628082706940646" lon="12.722559394786208"><ele>554.0</ele><time>2026-04-11T13:15:25.001Z</time></trkpt><trkpt lat="42.62819229343052" lon="12.72259516195535"><ele>554.0</ele><time>2026-04-11T13:15:26.001Z</time></trkpt><trkpt lat="42.62829822919219" lon="12.722618624297343"><ele>554.0</ele><time>2026-04-11T13:15:27.001Z</time></trkpt><trkpt lat="42.62840894255819" lon="12.722627242035596"><ele>554.0</ele><time>2026-04-11T13:15:28.001Z</time></trkpt><trkpt lat="42.62852552235573" lon="12.722616943400055"><ele>554.0</ele><time>2026-04-11T13:15:29Z</time></trkpt><trkpt lat="42.628620197233495" lon="12.722637726826996"><ele>554.0</ele><time>2026-04-11T13:15:30Z</time></trkpt><trkpt lat="42.628699346359504" lon="12.722667784422029"><ele>554.0</ele><time>2026-04-11T13:15:31Z</time></trkpt><trkpt lat="42.6287951469436" lon="12.722701999911097"><ele>555.0</ele><time>2026-04-11T13:15:33Z</time></trkpt><trkpt lat="42.62886270107101" lon="12.72269325284113"><ele>556.0</ele><time>2026-04-11T13:15:35Z</time></trkpt><trkpt lat="42.62894283639515" lon="12.722704926247689"><ele>557.0</ele><time>2026-04-11T13:15:39Z</time></trkpt><trkpt lat="42.62904121235309" lon="12.722604180730226"><ele>558.0</ele><time>2026-04-11T13:15:41Z</time></trkpt><trkpt lat="42.629126035596606" lon="12.722462556927956"><ele>559.0</ele><time>2026-04-11T13:15:43Z</time></trkpt><trkpt lat="42.62918357121315" lon="12.722355960131418"><ele>559.0</ele><time>2026-04-11T13:15:44Z</time></trkpt><trkpt lat="42.629231041543235" lon="12.722243041192181"><ele>559.0</ele><time>2026-04-11T13:15:45Z</time></trkpt><trkpt lat="42.62927948606283" lon="12.722143761663155"><ele>559.0</ele><time>2026-04-11T13:15:46Z</time></trkpt><trkpt lat="42.62932343769635" lon="12.722057012405847"><ele>559.0</ele><time>2026-04-11T13:15:47Z</time></trkpt><trkpt lat="42.629350877078124" lon="12.721957310873133"><ele>559.0</ele><time>2026-04-11T13:15:48Z</time></trkpt><trkpt lat="42.629354648327535" lon="12.721846104716382"><ele>559.0</ele><time>2026-04-11T13:15:49Z</time></trkpt><trkpt lat="42.629362975658594" lon="12.7217291822186"><ele>559.75</ele><time>2026-04-11T13:15:50Z</time></trkpt><trkpt lat="42.62938503975635" lon="12.72156123041436"><ele>560.5</ele><time>2026-04-11T13:15:51Z</time></trkpt><trkpt lat="42.629412131683075" lon="12.72139807495451"><ele>561.25</ele><time>2026-04-11T13:15:52Z</time></trkpt><trkpt lat="42.629437522546986" lon="12.721254141469096"><ele>562.0</ele><time>2026-04-11T13:15:53Z</time></trkpt><trkpt lat="42.62944898214934" lon="12.721129494139923"><ele>562.8000000000001</ele><time>2026-04-11T13:15:54Z</time></trkpt><trkpt lat="42.62945718069157" lon="12.720994015339834"><ele>563.6</ele><time>2026-04-11T13:15:55Z</time></trkpt><trkpt lat="42.62946315330533" lon="12.720885003587963"><ele>564.4000000000001</ele><time>2026-04-11T13:15:56Z</time></trkpt><trkpt lat="42.62948051485559" lon="12.720745536332453"><ele>565.2</ele><time>2026-04-11T13:15:57Z</time></trkpt><trkpt lat="42.6295252213653" lon="12.720597609386623"><ele>566.0</ele><time>2026-04-11T13:15:58Z</time></trkpt><trkpt lat="42.629577936664866" lon="12.720467687157866"><ele>567.6</ele><time>2026-04-11T13:15:59Z</time></trkpt><trkpt lat="42.62962089955791" lon="12.720353441704974"><ele>569.2</ele><time>2026-04-11T13:16:00Z</time></trkpt><trkpt lat="42.6296543683103" lon="12.720206440004501"><ele>570.8</ele><time>2026-04-11T13:16:01Z</time></trkpt><trkpt lat="42.62968546231053" lon="12.72006924138461"><ele>572.4</ele><time>2026-04-11T13:16:02Z</time></trkpt><trkpt lat="42.62972667505922" lon="12.719934942878398"><ele>574.0</ele><time>2026-04-11T13:16:03Z</time></trkpt><trkpt lat="42.62977512302406" lon="12.719821510611178"><ele>574.0</ele><time>2026-04-11T13:16:04Z</time></trkpt><trkpt lat="42.629852219041254" lon="12.719719347080071"><ele>574.0</ele><time>2026-04-11T13:16:05Z</time></trkpt><trkpt lat="42.62993826517122" lon="12.719651867622225"><ele>574.0</ele><time>2026-04-11T13:16:06Z</time></trkpt><trkpt lat="42.63003945384749" lon="12.719589554135766"><ele>574.0</ele><time>2026-04-11T13:16:07Z</time></trkpt><trkpt lat="42.63015263104881" lon="12.719528817450435"><ele>574.0</ele><time>2026-04-11T13:16:08Z</time></trkpt><trkpt lat="42.63026723702442" lon="12.719475447025234"><ele>569.75</ele><time>2026-04-11T13:16:09Z</time></trkpt><trkpt lat="42.630385310373065" lon="12.719429020442785"><ele>565.5</ele><time>2026-04-11T13:16:10Z</time></trkpt><trkpt lat="42.63048812402292" lon="12.719367570150238"><ele>561.25</ele><time>2026-04-11T13:16:11Z</time></trkpt><trkpt lat="42.630580932930016" lon="12.719293307668282"><ele>557.0</ele><time>2026-04-11T13:16:12Z</time></trkpt><trkpt lat="42.630691653404725" lon="12.71922293567061"><ele>567.0</ele><time>2026-04-11T13:16:13Z</time></trkpt><trkpt lat="42.63080221071432" lon="12.719152589247193"><ele>577.0</ele><time>2026-04-11T13:16:14Z</time></trkpt><trkpt lat="42.63090557225547" lon="12.719107369720682"><ele>587.0</ele><time>2026-04-11T13:16:15Z</time></trkpt><trkpt lat="42.631013737937614" lon="12.719066323605922"><ele>597.0</ele><time>2026-04-11T13:16:16Z</time></trkpt><trkpt lat="42.6311253534585" lon="12.719025500442681"><ele>596.8000000000001</ele><time>2026-04-11T13:16:17Z</time></trkpt><trkpt lat="42.631232638562416" lon="12.718981032556437"><ele>596.6</ele><time>2026-04-11T13:16:18Z</time></trkpt><trkpt lat="42.631332790695815" lon="12.718939708565642"><ele>596.4000000000001</ele><time>2026-04-11T13:16:19Z</time></trkpt><trkpt lat="42.631430692521185" lon="12.718894202349741"><ele>596.2</ele><time>2026-04-11T13:16:20Z</time></trkpt><trkpt lat="42.63151183568994" lon="12.7188363389421"><ele>596.0</ele><time>2026-04-11T13:16:21Z</time></trkpt><trkpt lat="42.63161126101807" lon="12.7188044292153"><ele>596.0</ele><time>2026-04-11T13:16:22Z</time></trkpt><trkpt lat="42.63171495443466" lon="12.718782051157506"><ele>596.0</ele><time>2026-04-11T13:16:23Z</time></trkpt><trkpt lat="42.6318233417142" lon="12.718748209761724"><ele>596.0</ele><time>2026-04-11T13:16:24Z</time></trkpt><trkpt lat="42.631913469430636" lon="12.718723751817876"><ele>596.0</ele><time>2026-04-11T13:16:25Z</time></trkpt><trkpt lat="42.63199771227272" lon="12.718693321403038"><ele>596.0</ele><time>2026-04-11T13:16:26Z</time></trkpt><trkpt lat="42.632092675735656" lon="12.718641055757983"><ele>593.8333333333333</ele><time>2026-04-11T13:16:27Z</time></trkpt><trkpt lat="42.6321757581125" lon="12.718581249547785"><ele>591.6666666666666</ele><time>2026-04-11T13:16:28Z</time></trkpt><trkpt lat="42.63226069050497" lon="12.718511206470586"><ele>589.5</ele><time>2026-04-11T13:16:29Z</time></trkpt><trkpt lat="42.63232115216624" lon="12.718447148303152"><ele>587.3333333333334</ele><time>2026-04-11T13:16:30Z</time></trkpt><trkpt lat="42.63236341170594" lon="12.718370457136489"><ele>585.1666666666667</ele><time>2026-04-11T13:16:31Z</time></trkpt><trkpt lat="42.632425539706716" lon="12.71827416357659"><ele>583.0</ele><time>2026-04-11T13:16:32Z</time></trkpt><trkpt lat="42.63249272331832" lon="12.71817355209773"><ele>587.8</ele><time>2026-04-11T13:16:33Z</time></trkpt><trkpt lat="42.6325677678899" lon="12.718057906983457"><ele>592.5999999999999</ele><time>2026-04-11T13:16:34Z</time></trkpt><trkpt lat="42.63262410290493" lon="12.717929127999625"><ele>597.4000000000001</ele><time>2026-04-11T13:16:35Z</time></trkpt><trkpt lat="42.63269034590621" lon="12.717802071248242"><ele>602.2</ele><time>2026-04-11T13:16:36Z</time></trkpt><trkpt lat="42.63274019480652" lon="12.717684893719273"><ele>607.0</ele><time>2026-04-11T13:16:37Z</time></trkpt><trkpt lat="42.63282633537975" lon="12.717560215208275"><ele>607.0</ele><time>2026-04-11T13:16:38Z</time></trkpt><trkpt lat="42.63289187149777" lon="12.717418119352333"><ele>607.0</ele><time>2026-04-11T13:16:39Z</time></trkpt><trkpt lat="42.63297680070744" lon="12.717274656695201"><ele>607.0</ele><time>2026-04-11T13:16:40Z</time></trkpt><trkpt lat="42.633046745541904" lon="12.717161621456663"><ele>607.0</ele><time>2026-04-11T13:16:41Z</time></trkpt><trkpt lat="42.63309918650773" lon="12.717043056051647"><ele>614.0</ele><time>2026-04-11T13:16:42Z</time></trkpt><trkpt lat="42.63317992497357" lon="12.716901369213982"><ele>621.0</ele><time>2026-04-11T13:16:43Z</time></trkpt><trkpt lat="42.63322975292573" lon="12.716780157399969"><ele>628.0</ele><time>2026-04-11T13:16:44Z</time></trkpt><trkpt lat="42.633311869815074" lon="12.71663426643219"><ele>635.0</ele><time>2026-04-11T13:16:45Z</time></trkpt><trkpt lat="42.63339706008816" lon="12.716485134596107"><ele>635.0</ele><time>2026-04-11T13:16:46Z</time></trkpt><trkpt lat="42.63349558142815" lon="12.71633502840716"><ele>635.0</ele><time>2026-04-11T13:16:47Z</time></trkpt><trkpt lat="42.633579026316944" lon="12.716198578504587"><ele>635.0</ele><time>2026-04-11T13:16:48Z</time></trkpt><trkpt lat="42.63366509568021" lon="12.716056243769888"><ele>635.0</ele><time>2026-04-11T13:16:49Z</time></trkpt><trkpt lat="42.633737577667745" lon="12.71591616924656"><ele>632.25</ele><time>2026-04-11T13:16:50Z</time></trkpt><trkpt lat="42.6338093867062" lon="12.715783164091029"><ele>629.5</ele><time>2026-04-11T13:16:51Z</time></trkpt><trkpt lat="42.6339017518527" lon="12.715658293552112"><ele>626.75</ele><time>2026-04-11T13:16:52Z</time></trkpt><trkpt lat="42.63400924634352" lon="12.715530808341148"><ele>624.0</ele><time>2026-04-11T13:16:53Z</time></trkpt><trkpt lat="42.63410967574013" lon="12.715396379639921"><ele>624.0</ele><time>2026-04-11T13:16:54Z</time></trkpt><trkpt lat="42.63420094777689" lon="12.715275895749102"><ele>624.0</ele><time>2026-04-11T13:16:55Z</time></trkpt><trkpt lat="42.6342786668258" lon="12.715174367318157"><ele>624.0</ele><time>2026-04-11T13:16:56Z</time></trkpt><trkpt lat="42.634379285050905" lon="12.715077235626554"><ele>624.0</ele><time>2026-04-11T13:16:57Z</time></trkpt><trkpt lat="42.63446662280538" lon="12.71497348012315"><ele>623.75</ele><time>2026-04-11T13:16:58Z</time></trkpt><trkpt lat="42.6345650515735" lon="12.714859038482949"><ele>623.5</ele><time>2026-04-11T13:16:59Z</time></trkpt><trkpt lat="42.63466125570911" lon="12.714740658333177"><ele>623.25</ele><time>2026-04-11T13:17:00Z</time></trkpt><trkpt lat="42.634737327989875" lon="12.714629223995987"><ele>623.0</ele><time>2026-04-11T13:17:01Z</time></trkpt><trkpt lat="42.63481990468484" lon="12.714522792744027"><ele>623.0</ele><time>2026-04-11T13:17:02Z</time></trkpt><trkpt lat="42.634900870123914" lon="12.71441644680792"><ele>623.0</ele><time>2026-04-11T13:17:03Z</time></trkpt><trkpt lat="42.63497562175973" lon="12.714314102350901"><ele>623.0</ele><time>2026-04-11T13:17:04Z</time></trkpt><trkpt lat="42.63506192125971" lon="12.714247901354495"><ele>623.0</ele><time>2026-04-11T13:17:05Z</time></trkpt><trkpt lat="42.635171730869004" lon="12.714188165441632"><ele>623.0</ele><time>2026-04-11T13:17:06Z</time></trkpt><trkpt lat="42.63527206193589" lon="12.714106837007137"><ele>626.5</ele><time>2026-04-11T13:17:07Z</time></trkpt><trkpt lat="42.6353797347101" lon="12.714017392849984"><ele>630.0</ele><time>2026-04-11T13:17:08Z</time></trkpt><trkpt lat="42.63549336876045" lon="12.713929458880262"><ele>633.5</ele><time>2026-04-11T13:17:09Z</time></trkpt><trkpt lat="42.63558094348216" lon="12.713843294969461"><ele>637.0</ele><time>2026-04-11T13:17:10Z</time></trkpt><trkpt lat="42.63566283577566" lon="12.713779366438208"><ele>637.0</ele><time>2026-04-11T13:17:11Z</time></trkpt><trkpt lat="42.6357584682099" lon="12.71373926214314"><ele>637.0</ele><time>2026-04-11T13:17:12Z</time></trkpt><trkpt lat="42.63583491752653" lon="12.713686065108448"><ele>637.0</ele><time>2026-04-11T13:17:13Z</time></trkpt><trkpt lat="42.63591744626405" lon="12.713609806388243"><ele>637.0</ele><time>2026-04-11T13:17:14Z</time></trkpt><trkpt lat="42.63599009420891" lon="12.71351236407641"><ele>637.0</ele><time>2026-04-11T13:17:15Z</time></trkpt><trkpt lat="42.63606592885766" lon="12.713399697669418"><ele>637.2</ele><time>2026-04-11T13:17:16Z</time></trkpt><trkpt lat="42.636143798333926" lon="12.713297615118023"><ele>637.4000000000001</ele><time>2026-04-11T13:17:17Z</time></trkpt><trkpt lat="42.63622366275783" lon="12.713197159116147"><ele>637.5999999999999</ele><time>2026-04-11T13:17:18Z</time></trkpt><trkpt lat="42.636298519410396" lon="12.713113419683543"><ele>637.8</ele><time>2026-04-11T13:17:19Z</time></trkpt><trkpt lat="42.6363656034663" lon="12.713025930493522"><ele>638.0</ele><time>2026-04-11T13:17:20Z</time></trkpt><trkpt lat="42.636417082820714" lon="12.7129424095159"><ele>638.0</ele><time>2026-04-11T13:17:21.001Z</time></trkpt><trkpt lat="42.63646495852324" lon="12.71286691341985"><ele>638.0</ele><time>2026-04-11T13:17:22.001Z</time></trkpt><trkpt lat="42.636518089258665" lon="12.712789995869995"><ele>638.0</ele><time>2026-04-11T13:17:23.001Z</time></trkpt><trkpt lat="42.63656236898767" lon="12.712715538399541"><ele>638.0</ele><time>2026-04-11T13:17:24.001Z</time></trkpt><trkpt lat="42.636601626112174" lon="12.712628913959229"><ele>638.0</ele><time>2026-04-11T13:17:25.001Z</time></trkpt><trkpt lat="42.636631527592286" lon="12.712550588529163"><ele>638.0</ele><time>2026-04-11T13:17:26.001Z</time></trkpt><trkpt lat="42.6366487944817" lon="12.712460978856756"><ele>638.0</ele><time>2026-04-11T13:17:27.001Z</time></trkpt><trkpt lat="42.636659832310706" lon="12.712360953168142"><ele>644.8</ele><time>2026-04-11T13:17:28.001Z</time></trkpt><trkpt lat="42.63667580753677" lon="12.712245771285401"><ele>651.5999999999999</ele><time>2026-04-11T13:17:29.001Z</time></trkpt><trkpt lat="42.63669186531543" lon="12.712131405450213"><ele>658.4000000000001</ele><time>2026-04-11T13:17:30.001Z</time></trkpt><trkpt lat="42.636701358437264" lon="12.712001492260194"><ele>665.2</ele><time>2026-04-11T13:17:31.001Z</time></trkpt><trkpt lat="42.63671774542257" lon="12.711867482197293"><ele>672.0</ele><time>2026-04-11T13:17:32.001Z</time></trkpt><trkpt lat="42.63674708193473" lon="12.711730639849172"><ele>674.8333333333334</ele><time>2026-04-11T13:17:33.001Z</time></trkpt><trkpt lat="42.63678121091481" lon="12.711620704877797"><ele>677.6666666666666</ele><time>2026-04-11T13:17:34.001Z</time></trkpt><trkpt lat="42.63679997161921" lon="12.711501270234638"><ele>680.5</ele><time>2026-04-11T13:17:34.999Z</time></trkpt><trkpt lat="42.63681148207154" lon="12.711387819108754"><ele>683.3333333333333</ele><time>2026-04-11T13:17:35.999Z</time></trkpt><trkpt lat="42.63681275809019" lon="12.711290386730084"><ele>686.1666666666666</ele><time>2026-04-11T13:17:36.999Z</time></trkpt><trkpt lat="42.63683546768112" lon="12.711207085339296"><ele>689.0</ele><time>2026-04-11T13:17:38.999Z</time></trkpt><trkpt lat="42.636868936593565" lon="12.711126136242788"><ele>688.0</ele><time>2026-04-11T13:17:49.999Z</time></trkpt><trkpt lat="42.63691319699721" lon="12.711034877727647"><ele>687.0</ele><time>2026-04-11T13:17:51.999Z</time></trkpt><trkpt lat="42.63696860558485" lon="12.710941378088979"><ele>686.0</ele><time>2026-04-11T13:17:53.999Z</time></trkpt><trkpt lat="42.637031989001805" lon="12.710865494731658"><ele>685.0</ele><time>2026-04-11T13:17:57.999Z</time></trkpt><trkpt lat="42.637110620746775" lon="12.710810180504318"><ele>684.0</ele><time>2026-04-11T13:17:59.999Z</time></trkpt><trkpt lat="42.6371660243301" lon="12.710758205307414"><ele>683.0</ele><time>2026-04-11T13:18:00.999Z</time></trkpt><trkpt lat="42.637263744686805" lon="12.710714664347675"><ele>683.0</ele><time>2026-04-11T13:18:01.999Z</time></trkpt><trkpt lat="42.637354394703166" lon="12.710689941875023"><ele>683.0</ele><time>2026-04-11T13:18:02.999Z</time></trkpt><trkpt lat="42.63743703892768" lon="12.710682124101496"><ele>683.0</ele><time>2026-04-11T13:18:03.999Z</time></trkpt><trkpt lat="42.63751464031325" lon="12.710672339047074"><ele>683.0</ele><time>2026-04-11T13:18:04.999Z</time></trkpt><trkpt lat="42.63760047882748" lon="12.710593339889686"><ele>683.0</ele><time>2026-04-11T13:18:06.999Z</time></trkpt><trkpt lat="42.63765267580443" lon="12.710533387373893"><ele>683.0</ele><time>2026-04-11T13:18:07.999Z</time></trkpt><trkpt lat="42.63775250324661" lon="12.710493551932249"><ele>681.1666666666666</ele><time>2026-04-11T13:18:08.999Z</time></trkpt><trkpt lat="42.63783325362169" lon="12.71047872797125"><ele>679.3333333333333</ele><time>2026-04-11T13:18:09.999Z</time></trkpt><trkpt lat="42.63792375745374" lon="12.710478132718748"><ele>677.5</ele><time>2026-04-11T13:18:10.999Z</time></trkpt><trkpt lat="42.63801642829772" lon="12.710492545463412"><ele>675.6666666666666</ele><time>2026-04-11T13:18:11.999Z</time></trkpt><trkpt lat="42.63809781434932" lon="12.710523226577934"><ele>673.8333333333334</ele><time>2026-04-11T13:18:13Z</time></trkpt><trkpt lat="42.638173237592866" lon="12.710557367619634"><ele>672.0</ele><time>2026-04-11T13:18:14Z</time></trkpt><trkpt lat="42.63823999758611" lon="12.710564708374015"><ele>672.0</ele><time>2026-04-11T13:18:15Z</time></trkpt><trkpt lat="42.63831379966309" lon="12.710575796721997"><ele>672.0</ele><time>2026-04-11T13:18:16Z</time></trkpt><trkpt lat="42.63837772702109" lon="12.710558574852618"><ele>672.0</ele><time>2026-04-11T13:18:17Z</time></trkpt><trkpt lat="42.638451877968286" lon="12.710534621544122"><ele>672.0</ele><time>2026-04-11T13:18:18Z</time></trkpt><trkpt lat="42.6385154666918" lon="12.710489801127617"><ele>672.0</ele><time>2026-04-11T13:18:19Z</time></trkpt><trkpt lat="42.63856918384924" lon="12.71042305465755"><ele>672.0</ele><time>2026-04-11T13:18:20Z</time></trkpt><trkpt lat="42.638622433639256" lon="12.710347915556286"><ele>672.0</ele><time>2026-04-11T13:18:21Z</time></trkpt><trkpt lat="42.63871206478347" lon="12.710285199607771"><ele>672.3333333333334</ele><time>2026-04-11T13:18:23Z</time></trkpt><trkpt lat="42.63882835677201" lon="12.710272277064089"><ele>672.6666666666666</ele><time>2026-04-11T13:18:25Z</time></trkpt><trkpt lat="42.63889055892771" lon="12.710290755513503"><ele>673.0</ele><time>2026-04-11T13:18:26Z</time></trkpt><trkpt lat="42.638960956423574" lon="12.710322257936236"><ele>673.3333333333333</ele><time>2026-04-11T13:18:27Z</time></trkpt><trkpt lat="42.639021416841594" lon="12.710373798672851"><ele>673.6666666666666</ele><time>2026-04-11T13:18:28Z</time></trkpt><trkpt lat="42.63909642688559" lon="12.71040683210386"><ele>674.0</ele><time>2026-04-11T13:18:29Z</time></trkpt><trkpt lat="42.639179984912474" lon="12.710399322955036"><ele>674.0</ele><time>2026-04-11T13:18:30Z</time></trkpt><trkpt lat="42.639268653526386" lon="12.710368093627721"><ele>674.0</ele><time>2026-04-11T13:18:31Z</time></trkpt><trkpt lat="42.639361644883195" lon="12.710328783333342"><ele>674.0</ele><time>2026-04-11T13:18:32Z</time></trkpt><trkpt lat="42.63945945583716" lon="12.710266765907697"><ele>674.0</ele><time>2026-04-11T13:18:33Z</time></trkpt><trkpt lat="42.63955748464586" lon="12.710204674208539"><ele>674.0</ele><time>2026-04-11T13:18:34Z</time></trkpt><trkpt lat="42.63964671246045" lon="12.71014004342832"><ele>678.1666666666666</ele><time>2026-04-11T13:18:35Z</time></trkpt><trkpt lat="42.63972993499222" lon="12.710081872620535"><ele>682.3333333333333</ele><time>2026-04-11T13:18:36Z</time></trkpt><trkpt lat="42.63981155690227" lon="12.710025448154786"><ele>686.5</ele><time>2026-04-11T13:18:37Z</time></trkpt><trkpt lat="42.63987496064681" lon="12.709983444075029"><ele>690.6666666666666</ele><time>2026-04-11T13:18:38Z</time></trkpt><trkpt lat="42.6399336661267" lon="12.709937626635888"><ele>694.8333333333334</ele><time>2026-04-11T13:18:39Z</time></trkpt><trkpt lat="42.64000441457982" lon="12.70988263253449"><ele>699.0</ele><time>2026-04-11T13:18:40Z</time></trkpt><trkpt lat="42.64005758287496" lon="12.709820426868005"><ele>699.0</ele><time>2026-04-11T13:18:41Z</time></trkpt><trkpt lat="42.64010181937099" lon="12.709748925767663"><ele>699.0</ele><time>2026-04-11T13:18:42Z</time></trkpt><trkpt lat="42.64014086104949" lon="12.709648867492145"><ele>699.0</ele><time>2026-04-11T13:18:43Z</time></trkpt><trkpt lat="42.64017138606887" lon="12.709549180115877"><ele>699.0</ele><time>2026-04-11T13:18:44Z</time></trkpt><trkpt lat="42.64020905539058" lon="12.709430026787201"><ele>699.0</ele><time>2026-04-11T13:18:45Z</time></trkpt><trkpt lat="42.64025418920761" lon="12.709333258391943"><ele>699.0</ele><time>2026-04-11T13:18:46Z</time></trkpt><trkpt lat="42.640285843577324" lon="12.709254414905011"><ele>695.5</ele><time>2026-04-11T13:18:47Z</time></trkpt><trkpt lat="42.640331636450696" lon="12.70910947030209"><ele>692.0</ele><time>2026-04-11T13:18:49Z</time></trkpt><trkpt lat="42.640346922793775" lon="12.708983852153537"><ele>688.5</ele><time>2026-04-11T13:18:51Z</time></trkpt><trkpt lat="42.64035283803433" lon="12.708895245736011"><ele>685.0</ele><time>2026-04-11T13:18:53Z</time></trkpt><trkpt lat="42.64037839782593" lon="12.708800473123619"><ele>681.5</ele><time>2026-04-11T13:18:56Z</time></trkpt><trkpt lat="42.64036966820592" lon="12.708680270656096"><ele>678.0</ele><time>2026-04-11T13:18:58Z</time></trkpt><trkpt lat="42.64035935309222" lon="12.708585252287014"><ele>681.5</ele><time>2026-04-11T13:18:59Z</time></trkpt><trkpt lat="42.64036805326241" lon="12.708487273801596"><ele>685.0</ele><time>2026-04-11T13:19:00Z</time></trkpt><trkpt lat="42.640393455616994" lon="12.70837980825705"><ele>688.5</ele><time>2026-04-11T13:19:01Z</time></trkpt><trkpt lat="42.64043687589611" lon="12.708270480472521"><ele>692.0</ele><time>2026-04-11T13:19:02Z</time></trkpt><trkpt lat="42.640476587938196" lon="12.70818144636554"><ele>695.5</ele><time>2026-04-11T13:19:03Z</time></trkpt><trkpt lat="42.64052453908117" lon="12.708087746757888"><ele>699.0</ele><time>2026-04-11T13:19:04Z</time></trkpt><trkpt lat="42.64057995789958" lon="12.708027933048978"><ele>699.0</ele><time>2026-04-11T13:19:05Z</time></trkpt><trkpt lat="42.640644821064555" lon="12.707951094996071"><ele>699.0</ele><time>2026-04-11T13:19:06Z</time></trkpt><trkpt lat="42.640738303443605" lon="12.707885522146292"><ele>699.0</ele><time>2026-04-11T13:19:07Z</time></trkpt><trkpt lat="42.640826266467975" lon="12.707820633489446"><ele>699.0</ele><time>2026-04-11T13:19:08Z</time></trkpt><trkpt lat="42.640906251472636" lon="12.707758426640922"><ele>699.0</ele><time>2026-04-11T13:19:09Z</time></trkpt><trkpt lat="42.640979775481014" lon="12.707710280482896"><ele>703.0</ele><time>2026-04-11T13:19:10Z</time></trkpt><trkpt lat="42.64106069263608" lon="12.707669131623026"><ele>707.0</ele><time>2026-04-11T13:19:11Z</time></trkpt><trkpt lat="42.64114612953261" lon="12.707656126524993"><ele>711.0</ele><time>2026-04-11T13:19:12Z</time></trkpt><trkpt lat="42.64124606093219" lon="12.707623976822891"><ele>715.0</ele><time>2026-04-11T13:19:13Z</time></trkpt><trkpt lat="42.64135161362224" lon="12.707621952451708"><ele>719.0</ele><time>2026-04-11T13:19:14Z</time></trkpt><trkpt lat="42.64144539990461" lon="12.707637011733489"><ele>719.0</ele><time>2026-04-11T13:19:15Z</time></trkpt><trkpt lat="42.64152800312234" lon="12.70765171127016"><ele>719.0</ele><time>2026-04-11T13:19:16Z</time></trkpt><trkpt lat="42.641594374819455" lon="12.70766778986898"><ele>719.0</ele><time>2026-04-11T13:19:17Z</time></trkpt><trkpt lat="42.64168559912301" lon="12.707622788924832"><ele>719.0</ele><time>2026-04-11T13:19:19Z</time></trkpt><trkpt lat="42.64172254457877" lon="12.707505917896182"><ele>719.0</ele><time>2026-04-11T13:19:21Z</time></trkpt><trkpt lat="42.641721540156574" lon="12.707384417886797"><ele>719.0</ele><time>2026-04-11T13:19:22Z</time></trkpt><trkpt lat="42.64172956215174" lon="12.707297775166637"><ele>719.0</ele><time>2026-04-11T13:19:23Z</time></trkpt><trkpt lat="42.64175129876676" lon="12.707210319629231"><ele>719.0</ele><time>2026-04-11T13:19:24Z</time></trkpt><trkpt lat="42.64177307642344" lon="12.707117133869657"><ele>719.0</ele><time>2026-04-11T13:19:25Z</time></trkpt><trkpt lat="42.64178225613886" lon="12.707010872342812"><ele>719.0</ele><time>2026-04-11T13:19:26Z</time></trkpt><trkpt lat="42.641768798556654" lon="12.706903948467081"><ele>719.0</ele><time>2026-04-11T13:19:27Z</time></trkpt><trkpt lat="42.641752948305346" lon="12.706820345898064"><ele>719.0</ele><time>2026-04-11T13:19:28Z</time></trkpt><trkpt lat="42.641744849539464" lon="12.706665882066218"><ele>721.0</ele><time>2026-04-11T13:19:30Z</time></trkpt><trkpt lat="42.64178145780206" lon="12.706584264108885"><ele>723.0</ele><time>2026-04-11T13:19:31Z</time></trkpt><trkpt lat="42.64184202394618" lon="12.70651674809954"><ele>725.0</ele><time>2026-04-11T13:19:32Z</time></trkpt><trkpt lat="42.641926201597535" lon="12.706454676172466"><ele>727.0</ele><time>2026-04-11T13:19:33Z</time></trkpt><trkpt lat="42.642009465818084" lon="12.706417109900727"><ele>729.0</ele><time>2026-04-11T13:19:34Z</time></trkpt><trkpt lat="42.642083313289696" lon="12.706385517563511"><ele>731.0</ele><time>2026-04-11T13:19:35Z</time></trkpt><trkpt lat="42.64214670712613" lon="12.706351087173154"><ele>727.5</ele><time>2026-04-11T13:19:36Z</time></trkpt><trkpt lat="42.642203631828764" lon="12.70631231733613"><ele>724.0</ele><time>2026-04-11T13:19:37Z</time></trkpt><trkpt lat="42.64225850055968" lon="12.70617274760565"><ele>720.5</ele><time>2026-04-11T13:19:39Z</time></trkpt><trkpt lat="42.64226976816615" lon="12.706077231058964"><ele>717.0</ele><time>2026-04-11T13:19:40Z</time></trkpt><trkpt lat="42.64226570196008" lon="12.705990982267359"><ele>713.5</ele><time>2026-04-11T13:19:40.999Z</time></trkpt><trkpt lat="42.64219882818473" lon="12.705855924770953"><ele>710.0</ele><time>2026-04-11T13:19:42.999Z</time></trkpt><trkpt lat="42.642131956268734" lon="12.705808274974245"><ele>710.0</ele><time>2026-04-11T13:19:43.999Z</time></trkpt><trkpt lat="42.6420647331701" lon="12.70577048539787"><ele>710.0</ele><time>2026-04-11T13:19:44.999Z</time></trkpt><trkpt lat="42.64195445969162" lon="12.70568862945393"><ele>710.0</ele><time>2026-04-11T13:19:46.999Z</time></trkpt><trkpt lat="42.64191090627446" lon="12.705623255054347"><ele>710.0</ele><time>2026-04-11T13:19:47.999Z</time></trkpt><trkpt lat="42.641907372349024" lon="12.705459045146025"><ele>710.0</ele><time>2026-04-11T13:19:49.999Z</time></trkpt><trkpt lat="42.64194661034458" lon="12.705384519088032"><ele>710.0</ele><time>2026-04-11T13:19:50.999Z</time></trkpt><trkpt lat="42.64200090387792" lon="12.705269941093293"><ele>710.0</ele><time>2026-04-11T13:19:52.999Z</time></trkpt><trkpt lat="42.642051213515174" lon="12.70509156973383"><ele>710.0</ele><time>2026-04-11T13:19:54.999Z</time></trkpt><trkpt lat="42.64207842626002" lon="12.704978703602155"><ele>710.0</ele><time>2026-04-11T13:19:55.999Z</time></trkpt><trkpt lat="42.64212284551944" lon="12.704852359190639"><ele>710.0</ele><time>2026-04-11T13:19:56.999Z</time></trkpt><trkpt lat="42.64217328937135" lon="12.704721768864259"><ele>712.0</ele><time>2026-04-11T13:19:57.999Z</time></trkpt><trkpt lat="42.642223990830345" lon="12.704610837786099"><ele>714.0</ele><time>2026-04-11T13:19:58.999Z</time></trkpt><trkpt lat="42.64226897973931" lon="12.704516181311314"><ele>716.0</ele><time>2026-04-11T13:19:59.999Z</time></trkpt><trkpt lat="42.64230755157918" lon="12.704441962382303"><ele>718.0</ele><time>2026-04-11T13:20:01Z</time></trkpt><trkpt lat="42.64236272907997" lon="12.704313841163554"><ele>720.0</ele><time>2026-04-11T13:20:03Z</time></trkpt><trkpt lat="42.6424327960346" lon="12.704277640535748"><ele>722.0</ele><time>2026-04-11T13:20:06Z</time></trkpt><trkpt lat="42.64251483418627" lon="12.704380631067144"><ele>722.0</ele><time>2026-04-11T13:20:07Z</time></trkpt><trkpt lat="42.64255881260045" lon="12.704480620858162"><ele>722.0</ele><time>2026-04-11T13:20:08Z</time></trkpt><trkpt lat="42.64262681855704" lon="12.704516722510297"><ele>722.0</ele><time>2026-04-11T13:20:09Z</time></trkpt><trkpt lat="42.642718713877265" lon="12.704548903929453"><ele>722.0</ele><time>2026-04-11T13:20:10Z</time></trkpt><trkpt lat="42.642817136407444" lon="12.704583305008763"><ele>722.0</ele><time>2026-04-11T13:20:11Z</time></trkpt><trkpt lat="42.64291604099807" lon="12.70464566443175"><ele>725.4000000000001</ele><time>2026-04-11T13:20:12Z</time></trkpt><trkpt lat="42.643010567420205" lon="12.704705610695994"><ele>728.8000000000001</ele><time>2026-04-11T13:20:13Z</time></trkpt><trkpt lat="42.643106864005695" lon="12.704781109253362"><ele>732.2</ele><time>2026-04-11T13:20:14Z</time></trkpt><trkpt lat="42.64319831410347" lon="12.704870013889051"><ele>735.6</ele><time>2026-04-11T13:20:15Z</time></trkpt><trkpt lat="42.64328809126866" lon="12.704952607513032"><ele>739.0</ele><time>2026-04-11T13:20:16Z</time></trkpt><trkpt lat="42.64336147286904" lon="12.705048324129583"><ele>739.0</ele><time>2026-04-11T13:20:17Z</time></trkpt><trkpt lat="42.64343021786744" lon="12.705144953478765"><ele>739.0</ele><time>2026-04-11T13:20:18Z</time></trkpt><trkpt lat="42.6434910063915" lon="12.70522374990056"><ele>739.0</ele><time>2026-04-11T13:20:19Z</time></trkpt><trkpt lat="42.643549662652234" lon="12.705275324307477"><ele>739.0</ele><time>2026-04-11T13:20:20Z</time></trkpt><trkpt lat="42.643610366715286" lon="12.705304304495629"><ele>739.0</ele><time>2026-04-11T13:20:21Z</time></trkpt><trkpt lat="42.643678047251086" lon="12.705336708878539"><ele>739.0</ele><time>2026-04-11T13:20:22Z</time></trkpt><trkpt lat="42.64374039026259" lon="12.705363729155694"><ele>736.6</ele><time>2026-04-11T13:20:23Z</time></trkpt><trkpt lat="42.64388081540518" lon="12.70537414983445"><ele>734.2</ele><time>2026-04-11T13:20:25Z</time></trkpt><trkpt lat="42.643981782827915" lon="12.7053703396248"><ele>731.8000000000001</ele><time>2026-04-11T13:20:26Z</time></trkpt><trkpt lat="42.644066968397816" lon="12.705363392431517"><ele>729.4000000000001</ele><time>2026-04-11T13:20:27Z</time></trkpt><trkpt lat="42.64414440618129" lon="12.705338530652226"><ele>727.0</ele><time>2026-04-11T13:20:28Z</time></trkpt><trkpt lat="42.64421085339755" lon="12.705332040086114"><ele>727.0</ele><time>2026-04-11T13:20:29Z</time></trkpt><trkpt lat="42.64432285424382" lon="12.705290735768012"><ele>727.0</ele><time>2026-04-11T13:20:31Z</time></trkpt><trkpt lat="42.64441224944787" lon="12.705195834276362"><ele>727.0</ele><time>2026-04-11T13:20:33Z</time></trkpt><trkpt lat="42.64447915035357" lon="12.705075357773755"><ele>727.0</ele><time>2026-04-11T13:20:35Z</time></trkpt><trkpt lat="42.644507246132356" lon="12.704983172416084"><ele>727.0</ele><time>2026-04-11T13:20:36Z</time></trkpt><trkpt lat="42.64453951086358" lon="12.704833619718217"><ele>731.0</ele><time>2026-04-11T13:20:38Z</time></trkpt><trkpt lat="42.64457915960917" lon="12.70474937096334"><ele>735.0</ele><time>2026-04-11T13:20:40Z</time></trkpt><trkpt lat="42.64466105950871" lon="12.704731179691628"><ele>739.0</ele><time>2026-04-11T13:20:43Z</time></trkpt><trkpt lat="42.644796863975444" lon="12.704758720506502"><ele>743.0</ele><time>2026-04-11T13:20:45Z</time></trkpt><trkpt lat="42.64489855827398" lon="12.704803562847486"><ele>747.0</ele><time>2026-04-11T13:20:46Z</time></trkpt><trkpt lat="42.64500165708449" lon="12.704872043883723"><ele>747.0</ele><time>2026-04-11T13:20:47Z</time></trkpt><trkpt lat="42.64508427099561" lon="12.704905880973286"><ele>747.0</ele><time>2026-04-11T13:20:48Z</time></trkpt><trkpt lat="42.64514678860811" lon="12.704959554923065"><ele>747.0</ele><time>2026-04-11T13:20:49Z</time></trkpt><trkpt lat="42.64521324424865" lon="12.705037168920933"><ele>747.0</ele><time>2026-04-11T13:20:50Z</time></trkpt><trkpt lat="42.64528339086462" lon="12.705105634491542"><ele>747.0</ele><time>2026-04-11T13:20:51Z</time></trkpt><trkpt lat="42.64535340747003" lon="12.705187389858574"><ele>747.0</ele><time>2026-04-11T13:20:52Z</time></trkpt><trkpt lat="42.64541485021849" lon="12.70523771221869"><ele>747.4000000000001</ele><time>2026-04-11T13:20:53Z</time></trkpt><trkpt lat="42.64547712638122" lon="12.70526316392888"><ele>747.8000000000001</ele><time>2026-04-11T13:20:54Z</time></trkpt><trkpt lat="42.64556952545736" lon="12.705205155583265"><ele>748.2</ele><time>2026-04-11T13:20:56Z</time></trkpt><trkpt lat="42.645657967600854" lon="12.705080689196638"><ele>748.6</ele><time>2026-04-11T13:20:58Z</time></trkpt><trkpt lat="42.64570080015565" lon="12.704976476075972"><ele>749.0</ele><time>2026-04-11T13:20:59Z</time></trkpt><trkpt lat="42.64573706018801" lon="12.704841138188062"><ele>749.0</ele><time>2026-04-11T13:21:00Z</time></trkpt><trkpt lat="42.64577557782973" lon="12.704721059130948"><ele>749.0</ele><time>2026-04-11T13:21:01Z</time></trkpt><trkpt lat="42.645809745210656" lon="12.704608964170976"><ele>749.0</ele><time>2026-04-11T13:21:02Z</time></trkpt><trkpt lat="42.645862052470186" lon="12.704514937359598"><ele>749.0</ele><time>2026-04-11T13:21:03Z</time></trkpt><trkpt lat="42.64590804936475" lon="12.7044374126236"><ele>749.0</ele><time>2026-04-11T13:21:04Z</time></trkpt><trkpt lat="42.645959862905656" lon="12.704377587665926"><ele>749.0</ele><time>2026-04-11T13:21:05Z</time></trkpt><trkpt lat="42.64601249836566" lon="12.704318057727813"><ele>747.6</ele><time>2026-04-11T13:21:06Z</time></trkpt><trkpt lat="42.64613142977426" lon="12.704333643383775"><ele>746.2</ele><time>2026-04-11T13:21:08Z</time></trkpt><trkpt lat="42.64622711131889" lon="12.70441009378214"><ele>744.8000000000001</ele><time>2026-04-11T13:21:09Z</time></trkpt><trkpt lat="42.64632403394466" lon="12.704485611301786"><ele>743.4000000000001</ele><time>2026-04-11T13:21:10Z</time></trkpt><trkpt lat="42.64640899118756" lon="12.70452047056379"><ele>742.0</ele><time>2026-04-11T13:21:11Z</time></trkpt><trkpt lat="42.646480683248726" lon="12.70455663367346"><ele>742.0</ele><time>2026-04-11T13:21:12Z</time></trkpt><trkpt lat="42.64657312320129" lon="12.704579992986938"><ele>742.0</ele><time>2026-04-11T13:21:14Z</time></trkpt><trkpt lat="42.646616801200466" lon="12.704462348890095"><ele>742.0</ele><time>2026-04-11T13:21:16Z</time></trkpt><trkpt lat="42.64663190451512" lon="12.70436204063657"><ele>742.0</ele><time>2026-04-11T13:21:17Z</time></trkpt><trkpt lat="42.64665506325064" lon="12.704251666941254"><ele>742.0</ele><time>2026-04-11T13:21:18Z</time></trkpt><trkpt lat="42.64668928237751" lon="12.704136023879894"><ele>742.0</ele><time>2026-04-11T13:21:19Z</time></trkpt><trkpt lat="42.64671373300114" lon="12.70401783531938"><ele>745.2</ele><time>2026-04-11T13:21:20Z</time></trkpt><trkpt lat="42.6467531473218" lon="12.703911108549118"><ele>748.4000000000001</ele><time>2026-04-11T13:21:21Z</time></trkpt><trkpt lat="42.64682817493389" lon="12.703813391583541"><ele>751.5999999999999</ele><time>2026-04-11T13:21:23Z</time></trkpt><trkpt lat="42.646894152696824" lon="12.703834988571202"><ele>754.8</ele><time>2026-04-11T13:21:24Z</time></trkpt><trkpt lat="42.64699614461981" lon="12.703895149273132"><ele>758.0</ele><time>2026-04-11T13:21:25Z</time></trkpt><trkpt lat="42.64707986284749" lon="12.703981678281282"><ele>758.0</ele><time>2026-04-11T13:21:26Z</time></trkpt><trkpt lat="42.647137681550696" lon="12.704070934772126"><ele>758.0</ele><time>2026-04-11T13:21:27Z</time></trkpt><trkpt lat="42.647187140341195" lon="12.704124016891008"><ele>758.0</ele><time>2026-04-11T13:21:28Z</time></trkpt><trkpt lat="42.64726333814237" lon="12.704168248148699"><ele>758.0</ele><time>2026-04-11T13:21:29Z</time></trkpt><trkpt lat="42.64734972159919" lon="12.704187768641301"><ele>758.0</ele><time>2026-04-11T13:21:30Z</time></trkpt><trkpt lat="42.647454746777456" lon="12.704205796919087"><ele>758.0</ele><time>2026-04-11T13:21:31Z</time></trkpt><trkpt lat="42.647530235807444" lon="12.704203303442538"><ele>758.0</ele><time>2026-04-11T13:21:32Z</time></trkpt><trkpt lat="42.64763544184606" lon="12.70419773559478"><ele>758.0</ele><time>2026-04-11T13:21:33Z</time></trkpt><trkpt lat="42.647729116092485" lon="12.70416528694521"><ele>758.0</ele><time>2026-04-11T13:21:34Z</time></trkpt><trkpt lat="42.647813458656586" lon="12.704137972091962"><ele>758.0</ele><time>2026-04-11T13:21:35Z</time></trkpt><trkpt lat="42.647904906685504" lon="12.704109624610146"><ele>758.0</ele><time>2026-04-11T13:21:36Z</time></trkpt><trkpt lat="42.647992464261726" lon="12.704071882318097"><ele>758.5</ele><time>2026-04-11T13:21:37Z</time></trkpt><trkpt lat="42.64809406650168" lon="12.704062235185571"><ele>759.0</ele><time>2026-04-11T13:21:38Z</time></trkpt><trkpt lat="42.6481874168282" lon="12.70406304696592"><ele>759.5</ele><time>2026-04-11T13:21:39Z</time></trkpt><trkpt lat="42.648262526581284" lon="12.704045148305953"><ele>760.0</ele><time>2026-04-11T13:21:40Z</time></trkpt><trkpt lat="42.648328661454585" lon="12.704002785932603"><ele>760.5</ele><time>2026-04-11T13:21:41.001Z</time></trkpt><trkpt lat="42.64838758590041" lon="12.703948258509405"><ele>761.0</ele><time>2026-04-11T13:21:42.001Z</time></trkpt><trkpt lat="42.64843616411452" lon="12.703884514999793"><ele>761.0</ele><time>2026-04-11T13:21:43.001Z</time></trkpt><trkpt lat="42.64849228444067" lon="12.703783446610798"><ele>761.0</ele><time>2026-04-11T13:21:44.001Z</time></trkpt><trkpt lat="42.64855205767203" lon="12.70371247007774"><ele>761.0</ele><time>2026-04-11T13:21:45.001Z</time></trkpt><trkpt lat="42.64862738845453" lon="12.703609266979738"><ele>761.0</ele><time>2026-04-11T13:21:46.001Z</time></trkpt><trkpt lat="42.64869525088738" lon="12.70352973109531"><ele>761.0</ele><time>2026-04-11T13:21:47Z</time></trkpt><trkpt lat="42.648766250670455" lon="12.703452080019783"><ele>763.1666666666666</ele><time>2026-04-11T13:21:48Z</time></trkpt><trkpt lat="42.64883679992257" lon="12.703392590933467"><ele>765.3333333333333</ele><time>2026-04-11T13:21:49Z</time></trkpt><trkpt lat="42.6489053706373" lon="12.703305947584724"><ele>767.5</ele><time>2026-04-11T13:21:50Z</time></trkpt><trkpt lat="42.64896782460601" lon="12.703230403462442"><ele>769.6666666666666</ele><time>2026-04-11T13:21:51Z</time></trkpt><trkpt lat="42.64902153101854" lon="12.70312896306381"><ele>771.8333333333334</ele><time>2026-04-11T13:21:52Z</time></trkpt><trkpt lat="42.64907537711486" lon="12.703038768636985"><ele>774.0</ele><time>2026-04-11T13:21:53Z</time></trkpt><trkpt lat="42.64910265569249" lon="12.702951291201085"><ele>774.0</ele><time>2026-04-11T13:21:54Z</time></trkpt><trkpt lat="42.649149408826325" lon="12.702891827886223"><ele>774.0</ele><time>2026-04-11T13:21:55Z</time></trkpt><trkpt lat="42.64921139562318" lon="12.702868728719553"><ele>774.0</ele><time>2026-04-11T13:21:56Z</time></trkpt><trkpt lat="42.6492934478146" lon="12.702847243941674"><ele>774.0</ele><time>2026-04-11T13:21:57Z</time></trkpt><trkpt lat="42.649381177705145" lon="12.702808711410114"><ele>774.0</ele><time>2026-04-11T13:21:58Z</time></trkpt><trkpt lat="42.649466086979494" lon="12.702775831092723"><ele>774.0</ele><time>2026-04-11T13:21:59Z</time></trkpt><trkpt lat="42.64952668440253" lon="12.702748494325768"><ele>776.2</ele><time>2026-04-11T13:22:00Z</time></trkpt><trkpt lat="42.64961673495228" lon="12.702666504327757"><ele>778.4000000000001</ele><time>2026-04-11T13:22:02Z</time></trkpt><trkpt lat="42.649696131767996" lon="12.70258193815979"><ele>780.6</ele><time>2026-04-11T13:22:05Z</time></trkpt><trkpt lat="42.64978955905457" lon="12.702472472673934"><ele>782.8</ele><time>2026-04-11T13:22:07Z</time></trkpt><trkpt lat="42.64989069649736" lon="12.702412365171933"><ele>785.0</ele><time>2026-04-11T13:22:09Z</time></trkpt><trkpt lat="42.649973545963505" lon="12.702361299940737"><ele>785.0000000000001</ele><time>2026-04-11T13:22:11Z</time></trkpt><trkpt lat="42.650026493709575" lon="12.7023113215874"><ele>785.0</ele><time>2026-04-11T13:22:14Z</time></trkpt><trkpt lat="42.65009079538706" lon="12.702293754510091"><ele>785.0</ele><time>2026-04-11T13:22:50Z</time></trkpt><trkpt lat="42.650130458926306" lon="12.70222391473609"><ele>785.0</ele><time>2026-04-11T13:22:59Z</time></trkpt><trkpt lat="42.6502037189891" lon="12.702124636090028"><ele>785.0000000000001</ele><time>2026-04-11T13:23:01Z</time></trkpt><trkpt lat="42.65025140645873" lon="12.702037801110842"><ele>785.0</ele><time>2026-04-11T13:23:02Z</time></trkpt><trkpt lat="42.65029940392983" lon="12.701946048382574"><ele>783.2</ele><time>2026-04-11T13:23:03Z</time></trkpt><trkpt lat="42.65035066388745" lon="12.701858697260041"><ele>781.4</ele><time>2026-04-11T13:23:04Z</time></trkpt><trkpt lat="42.65038720762282" lon="12.70177452737362"><ele>779.5999999999999</ele><time>2026-04-11T13:23:05Z</time></trkpt><trkpt lat="42.65044321440447" lon="12.701646167554445"><ele>777.8</ele><time>2026-04-11T13:23:07Z</time></trkpt><trkpt lat="42.650501903295265" lon="12.70149514608738"><ele>776.0</ele><time>2026-04-11T13:23:09Z</time></trkpt><trkpt lat="42.650539274444874" lon="12.701389256292464"><ele>776.0000000000001</ele><time>2026-04-11T13:23:10Z</time></trkpt><trkpt lat="42.650575200123484" lon="12.701302201219718"><ele>776.0</ele><time>2026-04-11T13:23:11Z</time></trkpt><trkpt lat="42.650590058479004" lon="12.701212676060063"><ele>776.0</ele><time>2026-04-11T13:23:12Z</time></trkpt><trkpt lat="42.65062235183718" lon="12.701050529217706"><ele>776.0</ele><time>2026-04-11T13:23:14Z</time></trkpt><trkpt lat="42.650634174410065" lon="12.700906070710387"><ele>776.0000000000001</ele><time>2026-04-11T13:23:16Z</time></trkpt><trkpt lat="42.6506428198301" lon="12.70081362364244"><ele>776.0</ele><time>2026-04-11T13:23:17Z</time></trkpt><trkpt lat="42.650671216174686" lon="12.700699439518829"><ele>776.4</ele><time>2026-04-11T13:23:18Z</time></trkpt><trkpt lat="42.65073061570627" lon="12.700606147613343"><ele>776.8</ele><time>2026-04-11T13:23:19Z</time></trkpt><trkpt lat="42.65079671463759" lon="12.700534534334004"><ele>777.1999999999999</ele><time>2026-04-11T13:23:20Z</time></trkpt><trkpt lat="42.650843175940665" lon="12.700437248455916"><ele>777.5999999999999</ele><time>2026-04-11T13:23:21Z</time></trkpt><trkpt lat="42.65088785599178" lon="12.700308116905605"><ele>778.0</ele><time>2026-04-11T13:23:22Z</time></trkpt><trkpt lat="42.650929592927646" lon="12.700193599287834"><ele>778.1666666666666</ele><time>2026-04-11T13:23:23Z</time></trkpt><trkpt lat="42.65095921717161" lon="12.700071242387764"><ele>778.3333333333333</ele><time>2026-04-11T13:23:24Z</time></trkpt><trkpt lat="42.65095139853948" lon="12.699962045003064"><ele>778.5</ele><time>2026-04-11T13:23:25Z</time></trkpt><trkpt lat="42.65093173882371" lon="12.699837999064858"><ele>778.6666666666667</ele><time>2026-04-11T13:23:26Z</time></trkpt><trkpt lat="42.65092782288164" lon="12.699740369574139"><ele>778.8333333333334</ele><time>2026-04-11T13:23:27Z</time></trkpt><trkpt lat="42.65097515108245" lon="12.699625660293513"><ele>779.0</ele><time>2026-04-11T13:23:28Z</time></trkpt><trkpt lat="42.651042260962775" lon="12.699509037193906"><ele>779.3333333333334</ele><time>2026-04-11T13:23:29Z</time></trkpt><trkpt lat="42.651073505447066" lon="12.699398802248616"><ele>779.6666666666667</ele><time>2026-04-11T13:23:30Z</time></trkpt><trkpt lat="42.65108447686607" lon="12.699273213853148"><ele>780.0</ele><time>2026-04-11T13:23:31.001Z</time></trkpt><trkpt lat="42.65110002380223" lon="12.699176898029652"><ele>780.3333333333333</ele><time>2026-04-11T13:23:32.001Z</time></trkpt><trkpt lat="42.65112252486631" lon="12.699086704924788"><ele>780.6666666666666</ele><time>2026-04-11T13:23:33.001Z</time></trkpt><trkpt lat="42.65119474046563" lon="12.698960359066515"><ele>781.0</ele><time>2026-04-11T13:23:34.001Z</time></trkpt><trkpt lat="42.65125881947186" lon="12.698864730799864"><ele>781.4</ele><time>2026-04-11T13:23:35.001Z</time></trkpt><trkpt lat="42.651295089827116" lon="12.698722527081523"><ele>781.8</ele><time>2026-04-11T13:23:36.001Z</time></trkpt><trkpt lat="42.6513297138923" lon="12.698613855688409"><ele>782.1999999999999</ele><time>2026-04-11T13:23:37.001Z</time></trkpt><trkpt lat="42.651410596031354" lon="12.698466780075982"><ele>782.5999999999999</ele><time>2026-04-11T13:23:39.001Z</time></trkpt><trkpt lat="42.651474122062986" lon="12.69839212283333"><ele>783.0</ele><time>2026-04-11T13:23:40.001Z</time></trkpt><trkpt lat="42.65154900321544" lon="12.698313682411774"><ele>783.0</ele><time>2026-04-11T13:23:41.001Z</time></trkpt><trkpt lat="42.651607575744464" lon="12.69821661405883"><ele>783.0</ele><time>2026-04-11T13:23:42.001Z</time></trkpt><trkpt lat="42.651660557289674" lon="12.69811039891091"><ele>783.0</ele><time>2026-04-11T13:23:43.001Z</time></trkpt><trkpt lat="42.65168318973369" lon="12.69799740454474"><ele>783.0</ele><time>2026-04-11T13:23:44.001Z</time></trkpt><trkpt lat="42.65175409698071" lon="12.697890868322292"><ele>783.0</ele><time>2026-04-11T13:23:46.001Z</time></trkpt><trkpt lat="42.651851637571205" lon="12.697803815273044"><ele>783.6666666666666</ele><time>2026-04-11T13:23:48.001Z</time></trkpt><trkpt lat="42.651904103976996" lon="12.697746544021149"><ele>784.3333333333333</ele><time>2026-04-11T13:23:49.001Z</time></trkpt><trkpt lat="42.65193928079701" lon="12.697669636408385"><ele>785.0</ele><time>2026-04-11T13:23:52.001Z</time></trkpt><trkpt lat="42.65198420236508" lon="12.697594612803902"><ele>785.6666666666666</ele><time>2026-04-11T13:23:56Z</time></trkpt><trkpt lat="42.65205550186168" lon="12.697512113185503"><ele>786.3333333333333</ele><time>2026-04-11T13:23:59Z</time></trkpt><trkpt lat="42.65213903165924" lon="12.697448564257156"><ele>787.0</ele><time>2026-04-11T13:24:01Z</time></trkpt><trkpt lat="42.6522237320392" lon="12.69744242272254"><ele>784.9999999999999</ele><time>2026-04-11T13:24:03Z</time></trkpt><trkpt lat="42.65228561996793" lon="12.697394927778767"><ele>783.0</ele><time>2026-04-11T13:24:07Z</time></trkpt><trkpt lat="42.652344772086906" lon="12.697360042935944"><ele>781.0</ele><time>2026-04-11T13:24:09Z</time></trkpt><trkpt lat="42.65242691686327" lon="12.697322898758497"><ele>779.0</ele><time>2026-04-11T13:24:11Z</time></trkpt><trkpt lat="42.6525397753528" lon="12.69735860513043"><ele>776.9999999999999</ele><time>2026-04-11T13:24:13Z</time></trkpt><trkpt lat="42.65263390958643" lon="12.697384334772154"><ele>775.0</ele><time>2026-04-11T13:24:15Z</time></trkpt><trkpt lat="42.65276796356621" lon="12.697334635180946"><ele>776.6</ele><time>2026-04-11T13:24:17Z</time></trkpt><trkpt lat="42.65284545808974" lon="12.697243295635024"><ele>778.2</ele><time>2026-04-11T13:24:19Z</time></trkpt><trkpt lat="42.65293998452389" lon="12.697162330992331"><ele>779.8</ele><time>2026-04-11T13:24:21Z</time></trkpt><trkpt lat="42.65300757814786" lon="12.697110674449037"><ele>781.4</ele><time>2026-04-11T13:24:22Z</time></trkpt><trkpt lat="42.65306312391931" lon="12.697041725896595"><ele>783.0</ele><time>2026-04-11T13:24:23Z</time></trkpt><trkpt lat="42.65313552393134" lon="12.696943475289808"><ele>782.5</ele><time>2026-04-11T13:24:24Z</time></trkpt><trkpt lat="42.65320908789746" lon="12.696831282054568"><ele>782.0</ele><time>2026-04-11T13:24:25Z</time></trkpt><trkpt lat="42.6532818753566" lon="12.696692672930388"><ele>781.5</ele><time>2026-04-11T13:24:26Z</time></trkpt><trkpt lat="42.65335817311661" lon="12.696573533410263"><ele>781.0</ele><time>2026-04-11T13:24:27Z</time></trkpt><trkpt lat="42.65343355997177" lon="12.696455512333143"><ele>781.0</ele><time>2026-04-11T13:24:28Z</time></trkpt><trkpt lat="42.65349744347437" lon="12.696328006496078"><ele>781.0</ele><time>2026-04-11T13:24:29Z</time></trkpt><trkpt lat="42.65355668102475" lon="12.696204435092607"><ele>781.0</ele><time>2026-04-11T13:24:30Z</time></trkpt><trkpt lat="42.65360344665529" lon="12.696099911669762"><ele>781.0</ele><time>2026-04-11T13:24:31Z</time></trkpt><trkpt lat="42.653661114702444" lon="12.695983323450694"><ele>781.0</ele><time>2026-04-11T13:24:32Z</time></trkpt><trkpt lat="42.653709040664694" lon="12.695863638713574"><ele>782.3333333333333</ele><time>2026-04-11T13:24:33Z</time></trkpt><trkpt lat="42.65377064008251" lon="12.69576202346744"><ele>783.6666666666666</ele><time>2026-04-11T13:24:34Z</time></trkpt><trkpt lat="42.65384385875048" lon="12.695717941914868"><ele>785.0</ele><time>2026-04-11T13:24:35Z</time></trkpt><trkpt lat="42.653901565981336" lon="12.695654260998916"><ele>786.3333333333333</ele><time>2026-04-11T13:24:36Z</time></trkpt><trkpt lat="42.65397720216701" lon="12.695601252062673"><ele>787.6666666666666</ele><time>2026-04-11T13:24:37Z</time></trkpt><trkpt lat="42.65404503993401" lon="12.695528920921099"><ele>789.0</ele><time>2026-04-11T13:24:38Z</time></trkpt><trkpt lat="42.654111960948754" lon="12.695465116449036"><ele>789.0</ele><time>2026-04-11T13:24:39Z</time></trkpt><trkpt lat="42.65419263791547" lon="12.695398998298211"><ele>789.0</ele><time>2026-04-11T13:24:40Z</time></trkpt><trkpt lat="42.65428420605653" lon="12.69533210678421"><ele>789.0</ele><time>2026-04-11T13:24:41Z</time></trkpt><trkpt lat="42.65438286703435" lon="12.695259873415136"><ele>789.0</ele><time>2026-04-11T13:24:42Z</time></trkpt><trkpt lat="42.65447209771286" lon="12.695172755411456"><ele>789.0</ele><time>2026-04-11T13:24:43Z</time></trkpt><trkpt lat="42.654562904452284" lon="12.695126837103214"><ele>788.4000000000001</ele><time>2026-04-11T13:24:44Z</time></trkpt><trkpt lat="42.65464776043553" lon="12.695074665555284"><ele>787.8</ele><time>2026-04-11T13:24:45Z</time></trkpt><trkpt lat="42.65473804815213" lon="12.695038239587118"><ele>787.2</ele><time>2026-04-11T13:24:46Z</time></trkpt><trkpt lat="42.65483806469755" lon="12.695017187560904"><ele>786.5999999999999</ele><time>2026-04-11T13:24:47Z</time></trkpt><trkpt lat="42.65493867206249" lon="12.694970005803636"><ele>786.0</ele><time>2026-04-11T13:24:48Z</time></trkpt><trkpt lat="42.65502441984107" lon="12.694938966949572"><ele>786.0</ele><time>2026-04-11T13:24:49Z</time></trkpt><trkpt lat="42.65510834029756" lon="12.69490309875191"><ele>786.0</ele><time>2026-04-11T13:24:50Z</time></trkpt><trkpt lat="42.65519050120667" lon="12.6948603980267"><ele>786.0</ele><time>2026-04-11T13:24:51Z</time></trkpt><trkpt lat="42.65526759710012" lon="12.694829585436274"><ele>786.0</ele><time>2026-04-11T13:24:52Z</time></trkpt><trkpt lat="42.6553466103072" lon="12.694801012418273"><ele>786.0</ele><time>2026-04-11T13:24:53Z</time></trkpt><trkpt lat="42.65541955473761" lon="12.694758824644165"><ele>786.0</ele><time>2026-04-11T13:24:54Z</time></trkpt><trkpt lat="42.655486885192445" lon="12.694721933825882"><ele>786.8333333333334</ele><time>2026-04-11T13:24:55Z</time></trkpt><trkpt lat="42.65555829732505" lon="12.6946702209828"><ele>787.6666666666667</ele><time>2026-04-11T13:24:56Z</time></trkpt><trkpt lat="42.65563191147894" lon="12.694621424636916"><ele>788.5</ele><time>2026-04-11T13:24:57Z</time></trkpt><trkpt lat="42.655712996041395" lon="12.694571989230925"><ele>789.3333333333334</ele><time>2026-04-11T13:24:58Z</time></trkpt><trkpt lat="42.65578388637598" lon="12.694528068355446"><ele>790.1666666666667</ele><time>2026-04-11T13:24:59Z</time></trkpt><trkpt lat="42.655854312340146" lon="12.694498201451923"><ele>791.0</ele><time>2026-04-11T13:25:00Z</time></trkpt><trkpt lat="42.65591788323993" lon="12.694476950257583"><ele>791.0000000000001</ele><time>2026-04-11T13:25:01Z</time></trkpt><trkpt lat="42.656002344099285" lon="12.694445983733065"><ele>791.0</ele><time>2026-04-11T13:25:02Z</time></trkpt><trkpt lat="42.656075132649306" lon="12.694403935055838"><ele>791.0</ele><time>2026-04-11T13:25:03Z</time></trkpt><trkpt lat="42.6561385398913" lon="12.694346361029536"><ele>791.0</ele><time>2026-04-11T13:25:04Z</time></trkpt><trkpt lat="42.656217019007286" lon="12.69430162486038"><ele>791.0000000000001</ele><time>2026-04-11T13:25:05Z</time></trkpt><trkpt lat="42.656289222593934" lon="12.69424960912108"><ele>791.0</ele><time>2026-04-11T13:25:06Z</time></trkpt><trkpt lat="42.656348161205344" lon="12.694209993021675"><ele>789.0000000000001</ele><time>2026-04-11T13:25:07Z</time></trkpt><trkpt lat="42.65642232623797" lon="12.69415089296197"><ele>787.0</ele><time>2026-04-11T13:25:09Z</time></trkpt><trkpt lat="42.65648759970535" lon="12.694100217323864"><ele>785.0</ele><time>2026-04-11T13:25:11Z</time></trkpt><trkpt lat="42.65661500308165" lon="12.694065218633797"><ele>783.0</ele><time>2026-04-11T13:25:13Z</time></trkpt><trkpt lat="42.65668269431545" lon="12.694045291520272"><ele>781.0000000000001</ele><time>2026-04-11T13:25:14Z</time></trkpt><trkpt lat="42.65674186140822" lon="12.69401284153503"><ele>779.0</ele><time>2026-04-11T13:25:15Z</time></trkpt><trkpt lat="42.65679546715328" lon="12.693944396528387"><ele>779.0000000000001</ele><time>2026-04-11T13:25:16.001Z</time></trkpt><trkpt lat="42.65682939720952" lon="12.693872192296274"><ele>779.0</ele><time>2026-04-11T13:25:17.001Z</time></trkpt><trkpt lat="42.65685160642014" lon="12.69378611299176"><ele>779.0</ele><time>2026-04-11T13:25:18.001Z</time></trkpt><trkpt lat="42.6568634703162" lon="12.693699962643173"><ele>779.0</ele><time>2026-04-11T13:25:19.001Z</time></trkpt><trkpt lat="42.656869489228995" lon="12.69359820211152"><ele>779.0</ele><time>2026-04-11T13:25:20.001Z</time></trkpt><trkpt lat="42.65686899767444" lon="12.693483440397943"><ele>779.0000000000001</ele><time>2026-04-11T13:25:21.001Z</time></trkpt><trkpt lat="42.656861880465705" lon="12.69336118426941"><ele>779.0</ele><time>2026-04-11T13:25:22.001Z</time></trkpt><trkpt lat="42.65683606617284" lon="12.693249392610035"><ele>778.4000000000001</ele><time>2026-04-11T13:25:23.001Z</time></trkpt><trkpt lat="42.65684320324379" lon="12.693153856792971"><ele>777.8</ele><time>2026-04-11T13:25:24.001Z</time></trkpt><trkpt lat="42.65683415926464" lon="12.693068737522964"><ele>777.2</ele><time>2026-04-11T13:25:29.001Z</time></trkpt><trkpt lat="42.656828306327064" lon="12.692957406083217"><ele>776.5999999999999</ele><time>2026-04-11T13:25:38.001Z</time></trkpt><trkpt lat="42.65682837495614" lon="12.69287133289924"><ele>776.0</ele><time>2026-04-11T13:25:41.001Z</time></trkpt><trkpt lat="42.65699980665239" lon="12.69284251347222"><ele>776.0000000000001</ele><time>2026-04-11T13:25:44.001Z</time></trkpt><trkpt lat="42.65707511925866" lon="12.69281071840971"><ele>776.0</ele><time>2026-04-11T13:25:46.001Z</time></trkpt><trkpt lat="42.65701205193625" lon="12.692801279968311"><ele>776.0</ele><time>2026-04-11T13:25:50.001Z</time></trkpt><trkpt lat="42.65692649415532" lon="12.692842525471448"><ele>776.0</ele><time>2026-04-11T13:25:52.001Z</time></trkpt><trkpt lat="42.656893208680444" lon="12.692940664083997"><ele>776.0000000000001</ele><time>2026-04-11T13:25:55.001Z</time></trkpt><trkpt lat="42.65684129943838" lon="12.693018900544635"><ele>776.0</ele><time>2026-04-11T13:25:58.001Z</time></trkpt><trkpt lat="42.65679621111391" lon="12.692947290275997"><ele>777.8333333333334</ele><time>2026-04-11T13:26:01Z</time></trkpt><trkpt lat="42.65677478140315" lon="12.692813738915566"><ele>779.6666666666667</ele><time>2026-04-11T13:26:03Z</time></trkpt><trkpt lat="42.65673941383963" lon="12.69273172663549"><ele>781.5</ele><time>2026-04-11T13:26:04Z</time></trkpt><trkpt lat="42.65669506920859" lon="12.692651886830465"><ele>783.3333333333333</ele><time>2026-04-11T13:26:05Z</time></trkpt><trkpt lat="42.656644010733466" lon="12.692590543800225"><ele>785.1666666666666</ele><time>2026-04-11T13:26:06Z</time></trkpt><trkpt lat="42.65658039115509" lon="12.692521436558833"><ele>787.0</ele><time>2026-04-11T13:26:08Z</time></trkpt><trkpt lat="42.6565786467733" lon="12.692364226729985"><ele>785.8333333333333</ele><time>2026-04-11T13:26:11Z</time></trkpt><trkpt lat="42.65662324365647" lon="12.692277654000636"><ele>784.6666666666666</ele><time>2026-04-11T13:26:12Z</time></trkpt><trkpt lat="42.656680106919254" lon="12.692211404063167"><ele>783.5</ele><time>2026-04-11T13:26:13Z</time></trkpt><trkpt lat="42.65676366901975" lon="12.692176220556806"><ele>782.3333333333333</ele><time>2026-04-11T13:26:15Z</time></trkpt><trkpt lat="42.65684342628492" lon="12.692139543013257"><ele>781.1666666666666</ele><time>2026-04-11T13:26:18Z</time></trkpt><trkpt lat="42.656921278248035" lon="12.692100281416154"><ele>780.0</ele><time>2026-04-11T13:26:24Z</time></trkpt><trkpt lat="42.65699547041586" lon="12.69213760384973"><ele>780.0</ele><time>2026-04-11T13:26:26Z</time></trkpt><trkpt lat="42.65705675079186" lon="12.692174690068088"><ele>780.0</ele><time>2026-04-11T13:26:27Z</time></trkpt><trkpt lat="42.657124915911986" lon="12.692194855015984"><ele>780.0</ele><time>2026-04-11T13:26:28Z</time></trkpt><trkpt lat="42.65719135450289" lon="12.692202533591992"><ele>780.0</ele><time>2026-04-11T13:26:29Z</time></trkpt><trkpt lat="42.657269544984956" lon="12.692202944264094"><ele>780.0</ele><time>2026-04-11T13:26:30Z</time></trkpt><trkpt lat="42.65735862245137" lon="12.692226153259972"><ele>780.0</ele><time>2026-04-11T13:26:31Z</time></trkpt><trkpt lat="42.65746217590955" lon="12.69227218181996"><ele>780.0</ele><time>2026-04-11T13:26:32Z</time></trkpt><trkpt lat="42.657573348176705" lon="12.692306543955173"><ele>780.0</ele><time>2026-04-11T13:26:33Z</time></trkpt><trkpt lat="42.657673141040256" lon="12.692325396800626"><ele>780.0</ele><time>2026-04-11T13:26:34Z</time></trkpt><trkpt lat="42.65777355867172" lon="12.69232814714379"><ele>780.0</ele><time>2026-04-11T13:26:35Z</time></trkpt><trkpt lat="42.65788677151974" lon="12.692329897656386"><ele>780.0</ele><time>2026-04-11T13:26:36Z</time></trkpt><trkpt lat="42.65799510278313" lon="12.692343842742362"><ele>781.3333333333334</ele><time>2026-04-11T13:26:37Z</time></trkpt><trkpt lat="42.65807735164857" lon="12.692363345161377"><ele>782.6666666666667</ele><time>2026-04-11T13:26:38Z</time></trkpt><trkpt lat="42.65815244796263" lon="12.692396863851837"><ele>784.0</ele><time>2026-04-11T13:26:39Z</time></trkpt><trkpt lat="42.65825781686213" lon="12.692480844003226"><ele>785.3333333333334</ele><time>2026-04-11T13:26:41Z</time></trkpt><trkpt lat="42.65830183694633" lon="12.692550225942714"><ele>786.6666666666667</ele><time>2026-04-11T13:26:42Z</time></trkpt><trkpt lat="42.65836253464528" lon="12.69263416164841"><ele>788.0</ele><time>2026-04-11T13:26:43Z</time></trkpt><trkpt lat="42.65842670349638" lon="12.692732641431494"><ele>786.4</ele><time>2026-04-11T13:26:44Z</time></trkpt><trkpt lat="42.65849241983232" lon="12.692827019225941"><ele>784.8</ele><time>2026-04-11T13:26:45Z</time></trkpt><trkpt lat="42.65855774291292" lon="12.692932221958515"><ele>783.2</ele><time>2026-04-11T13:26:46Z</time></trkpt><trkpt lat="42.658622074544134" lon="12.693039752738486"><ele>781.6</ele><time>2026-04-11T13:26:47Z</time></trkpt><trkpt lat="42.65868019112689" lon="12.69314633031071"><ele>780.0</ele><time>2026-04-11T13:26:48Z</time></trkpt><trkpt lat="42.65874717872995" lon="12.693250539314203"><ele>782.2</ele><time>2026-04-11T13:26:49Z</time></trkpt><trkpt lat="42.65882377846137" lon="12.69334588154459"><ele>784.4</ele><time>2026-04-11T13:26:50Z</time></trkpt><trkpt lat="42.65888414958491" lon="12.693469013254521"><ele>786.5999999999999</ele><time>2026-04-11T13:26:51Z</time></trkpt><trkpt lat="42.65895373996215" lon="12.693576384835584"><ele>788.8</ele><time>2026-04-11T13:26:52Z</time></trkpt><trkpt lat="42.65902117532982" lon="12.693677441059965"><ele>791.0</ele><time>2026-04-11T13:26:53Z</time></trkpt><trkpt lat="42.65908886983482" lon="12.693761752795488"><ele>791.0</ele><time>2026-04-11T13:26:54Z</time></trkpt><trkpt lat="42.65915185171817" lon="12.6938087503031"><ele>791.0</ele><time>2026-04-11T13:26:55Z</time></trkpt><trkpt lat="42.65928473945173" lon="12.693788928570923"><ele>791.0</ele><time>2026-04-11T13:26:57Z</time></trkpt><trkpt lat="42.6593864549343" lon="12.69373780493759"><ele>791.0</ele><time>2026-04-11T13:26:58Z</time></trkpt><trkpt lat="42.65948183201047" lon="12.693675826849812"><ele>791.0</ele><time>2026-04-11T13:26:59Z</time></trkpt><trkpt lat="42.65957491885484" lon="12.693638384986304"><ele>792.5999999999999</ele><time>2026-04-11T13:27:00Z</time></trkpt><trkpt lat="42.65967445892478" lon="12.693604920259219"><ele>794.2</ele><time>2026-04-11T13:27:01Z</time></trkpt><trkpt lat="42.65976290397448" lon="12.69357454930718"><ele>795.8</ele><time>2026-04-11T13:27:02Z</time></trkpt><trkpt lat="42.65985477272837" lon="12.693520956699869"><ele>797.4000000000001</ele><time>2026-04-11T13:27:03Z</time></trkpt><trkpt lat="42.65993498220649" lon="12.693435155926315"><ele>799.0</ele><time>2026-04-11T13:27:04Z</time></trkpt><trkpt lat="42.660001695013094" lon="12.69333870310578"><ele>799.0</ele><time>2026-04-11T13:27:05Z</time></trkpt><trkpt lat="42.66005925604797" lon="12.69324992690438"><ele>799.0</ele><time>2026-04-11T13:27:06Z</time></trkpt><trkpt lat="42.66011596537049" lon="12.6931928306903"><ele>799.0</ele><time>2026-04-11T13:27:07Z</time></trkpt><trkpt lat="42.660215429791755" lon="12.693221173739957"><ele>799.0</ele><time>2026-04-11T13:27:09Z</time></trkpt><trkpt lat="42.660268611284" lon="12.693290253379123"><ele>799.0</ele><time>2026-04-11T13:27:10Z</time></trkpt><trkpt lat="42.66037397755663" lon="12.693370264664395"><ele>801.0</ele><time>2026-04-11T13:27:11Z</time></trkpt><trkpt lat="42.66048300500332" lon="12.693442226683333"><ele>803.0</ele><time>2026-04-11T13:27:12Z</time></trkpt><trkpt lat="42.66057899580308" lon="12.69350980089551"><ele>805.0</ele><time>2026-04-11T13:27:13Z</time></trkpt><trkpt lat="42.66066634285235" lon="12.693581869089252"><ele>807.0</ele><time>2026-04-11T13:27:14Z</time></trkpt><trkpt lat="42.660741976872906" lon="12.69366212155486"><ele>809.0</ele><time>2026-04-11T13:27:15Z</time></trkpt><trkpt lat="42.660800054033054" lon="12.69374554751555"><ele>805.5000000000001</ele><time>2026-04-11T13:27:16Z</time></trkpt><trkpt lat="42.66087065112459" lon="12.693805685962529"><ele>802.0</ele><time>2026-04-11T13:27:17Z</time></trkpt><trkpt lat="42.660943331731886" lon="12.69387033235629"><ele>798.5</ele><time>2026-04-11T13:27:18Z</time></trkpt><trkpt lat="42.66102704842824" lon="12.693914982373444"><ele>795.0</ele><time>2026-04-11T13:27:19Z</time></trkpt><trkpt lat="42.66111112581512" lon="12.693945063402918"><ele>791.5000000000001</ele><time>2026-04-11T13:27:20Z</time></trkpt><trkpt lat="42.66119953733637" lon="12.693972743643721"><ele>788.0</ele><time>2026-04-11T13:27:21Z</time></trkpt><trkpt lat="42.6612928361109" lon="12.694001193192117"><ele>788.0</ele><time>2026-04-11T13:27:22Z</time></trkpt><trkpt lat="42.661405575313296" lon="12.694020296298158"><ele>788.0</ele><time>2026-04-11T13:27:23Z</time></trkpt><trkpt lat="42.66153514603507" lon="12.6940339497533"><ele>788.0</ele><time>2026-04-11T13:27:24Z</time></trkpt><trkpt lat="42.661656827703744" lon="12.694038194819246"><ele>788.0</ele><time>2026-04-11T13:27:25Z</time></trkpt><trkpt lat="42.66176865100599" lon="12.694035025266585"><ele>788.0000000000001</ele><time>2026-04-11T13:27:26Z</time></trkpt><trkpt lat="42.6618772174726" lon="12.694043689746183"><ele>788.0</ele><time>2026-04-11T13:27:27.001Z</time></trkpt><trkpt lat="42.661972202872484" lon="12.694047969655765"><ele>788.0</ele><time>2026-04-11T13:27:28.001Z</time></trkpt><trkpt lat="42.662057509384134" lon="12.694051811463629"><ele>788.0</ele><time>2026-04-11T13:27:29.001Z</time></trkpt><trkpt lat="42.66214130581996" lon="12.694043230793948"><ele>788.0000000000001</ele><time>2026-04-11T13:27:30.001Z</time></trkpt><trkpt lat="42.66221042427538" lon="12.694013418983927"><ele>788.0</ele><time>2026-04-11T13:27:31.001Z</time></trkpt><trkpt lat="42.66229299547702" lon="12.693976032523397"><ele>787.5999999999999</ele><time>2026-04-11T13:27:32.001Z</time></trkpt><trkpt lat="42.6623687141998" lon="12.693903257087575"><ele>787.1999999999999</ele><time>2026-04-11T13:27:33.001Z</time></trkpt><trkpt lat="42.66242857997223" lon="12.693785342176184"><ele>786.8</ele><time>2026-04-11T13:27:34.001Z</time></trkpt><trkpt lat="42.66248513303962" lon="12.693673932645929"><ele>786.4</ele><time>2026-04-11T13:27:35.001Z</time></trkpt><trkpt lat="42.662524279499934" lon="12.693539445847087"><ele>786.0</ele><time>2026-04-11T13:27:36.001Z</time></trkpt><trkpt lat="42.66256033506743" lon="12.693408076498004"><ele>787.5</ele><time>2026-04-11T13:27:37.001Z</time></trkpt><trkpt lat="42.662597934356896" lon="12.693301952860356"><ele>789.0</ele><time>2026-04-11T13:27:38.001Z</time></trkpt><trkpt lat="42.66261967864917" lon="12.693213415578988"><ele>790.5</ele><time>2026-04-11T13:27:39.001Z</time></trkpt><trkpt lat="42.66263213119058" lon="12.693114340547165"><ele>792.0</ele><time>2026-04-11T13:27:40.001Z</time></trkpt><trkpt lat="42.66265174029493" lon="12.693015979163581"><ele>793.5</ele><time>2026-04-11T13:27:41.001Z</time></trkpt><trkpt lat="42.66269174022324" lon="12.692943254082685"><ele>795.0</ele><time>2026-04-11T13:27:42.001Z</time></trkpt><trkpt lat="42.662770937944664" lon="12.692973427440112"><ele>797.1666666666666</ele><time>2026-04-11T13:27:44.001Z</time></trkpt><trkpt lat="42.662800139375186" lon="12.693081261307066"><ele>799.3333333333333</ele><time>2026-04-11T13:27:46.001Z</time></trkpt><trkpt lat="42.6628606702954" lon="12.693172556233847"><ele>801.5</ele><time>2026-04-11T13:27:47.001Z</time></trkpt><trkpt lat="42.66291808543669" lon="12.693272107784287"><ele>803.6666666666666</ele><time>2026-04-11T13:27:48.001Z</time></trkpt><trkpt lat="42.662941832339854" lon="12.693357032380849"><ele>805.8333333333333</ele><time>2026-04-11T13:27:49.001Z</time></trkpt><trkpt lat="42.66291406654796" lon="12.693446356161736"><ele>808.0</ele><time>2026-04-11T13:27:50.001Z</time></trkpt><trkpt lat="42.66289995611138" lon="12.693569763172611"><ele>806.8333333333333</ele><time>2026-04-11T13:27:51.001Z</time></trkpt><trkpt lat="42.66288584111933" lon="12.693721278136469"><ele>805.6666666666666</ele><time>2026-04-11T13:27:52.001Z</time></trkpt><trkpt lat="42.66290654335908" lon="12.693848129008135"><ele>804.5</ele><time>2026-04-11T13:27:53.001Z</time></trkpt><trkpt lat="42.662943826654875" lon="12.693949927386619"><ele>803.3333333333333</ele><time>2026-04-11T13:27:54.001Z</time></trkpt><trkpt lat="42.66299046381066" lon="12.694031163040952"><ele>802.1666666666666</ele><time>2026-04-11T13:27:55.001Z</time></trkpt><trkpt lat="42.663041077757384" lon="12.694100373620163"><ele>801.0</ele><time>2026-04-11T13:27:56.001Z</time></trkpt><trkpt lat="42.66310101967237" lon="12.694168433905666"><ele>801.0</ele><time>2026-04-11T13:27:57.001Z</time></trkpt><trkpt lat="42.66316273878112" lon="12.694235307529869"><ele>801.0</ele><time>2026-04-11T13:27:58.001Z</time></trkpt><trkpt lat="42.66322855055703" lon="12.694303663699545"><ele>801.0</ele><time>2026-04-11T13:27:59.001Z</time></trkpt><trkpt lat="42.663304459684845" lon="12.694377088254706"><ele>801.0</ele><time>2026-04-11T13:28:00.001Z</time></trkpt><trkpt lat="42.66339253987908" lon="12.694436711518279"><ele>801.0</ele><time>2026-04-11T13:28:01.001Z</time></trkpt><trkpt lat="42.66347835844334" lon="12.69446674021034"><ele>801.0</ele><time>2026-04-11T13:28:02.001Z</time></trkpt><trkpt lat="42.66356262063221" lon="12.694488575577228"><ele>803.4</ele><time>2026-04-11T13:28:03.001Z</time></trkpt><trkpt lat="42.66364768447568" lon="12.694487819509085"><ele>805.8</ele><time>2026-04-11T13:28:04.001Z</time></trkpt><trkpt lat="42.663722453109415" lon="12.694482718567187"><ele>808.1999999999999</ele><time>2026-04-11T13:28:05Z</time></trkpt><trkpt lat="42.66379387318366" lon="12.694405057886344"><ele>810.5999999999999</ele><time>2026-04-11T13:28:06Z</time></trkpt><trkpt lat="42.663893214428846" lon="12.694431329892643"><ele>813.0</ele><time>2026-04-11T13:28:08Z</time></trkpt><trkpt lat="42.663964212062055" lon="12.694623316750985"><ele>814.0</ele><time>2026-04-11T13:28:10Z</time></trkpt><trkpt lat="42.66401808517335" lon="12.694732752367168"><ele>815.0</ele><time>2026-04-11T13:28:11Z</time></trkpt><trkpt lat="42.66407569714192" lon="12.694798117994205"><ele>816.0</ele><time>2026-04-11T13:28:12Z</time></trkpt><trkpt lat="42.66415977912392" lon="12.694843376179856"><ele>817.0</ele><time>2026-04-11T13:28:13Z</time></trkpt><trkpt lat="42.66423190028737" lon="12.694864310654857"><ele>818.0</ele><time>2026-04-11T13:28:14Z</time></trkpt><trkpt lat="42.66433319232625" lon="12.694952661212813"><ele>818.0000000000001</ele><time>2026-04-11T13:28:16Z</time></trkpt><trkpt lat="42.66434785019768" lon="12.695117848705548"><ele>818.0</ele><time>2026-04-11T13:28:18Z</time></trkpt><trkpt lat="42.66433744657507" lon="12.695202783163634"><ele>818.0</ele><time>2026-04-11T13:28:19Z</time></trkpt><trkpt lat="42.66430970991835" lon="12.695299254962658"><ele>818.0</ele><time>2026-04-11T13:28:21Z</time></trkpt><trkpt lat="42.66423214247888" lon="12.695331272725182"><ele>818.0000000000001</ele><time>2026-04-11T13:28:28Z</time></trkpt><trkpt lat="42.66416192839049" lon="12.695326683797267"><ele>818.0</ele><time>2026-04-11T13:28:29Z</time></trkpt><trkpt lat="42.664063893336085" lon="12.69532372853241"><ele>820.2</ele><time>2026-04-11T13:28:30Z</time></trkpt><trkpt lat="42.663959183593555" lon="12.6953211395114"><ele>822.4</ele><time>2026-04-11T13:28:31Z</time></trkpt><trkpt lat="42.66384216366486" lon="12.695320988908787"><ele>824.6</ele><time>2026-04-11T13:28:32Z</time></trkpt><trkpt lat="42.66372872858874" lon="12.69533310960796"><ele>826.8000000000001</ele><time>2026-04-11T13:28:33Z</time></trkpt><trkpt lat="42.663626901935665" lon="12.695369944373434"><ele>829.0</ele><time>2026-04-11T13:28:34Z</time></trkpt><trkpt lat="42.66353595375211" lon="12.695425975259209"><ele>828.9999999999999</ele><time>2026-04-11T13:28:35Z</time></trkpt><trkpt lat="42.66346105973831" lon="12.695494148616596"><ele>829.0</ele><time>2026-04-11T13:28:36Z</time></trkpt><trkpt lat="42.6633883395701" lon="12.695576366867341"><ele>829.0</ele><time>2026-04-11T13:28:37Z</time></trkpt><trkpt lat="42.66334040631836" lon="12.695645429124413"><ele>829.0</ele><time>2026-04-11T13:28:38Z</time></trkpt><trkpt lat="42.66327038939951" lon="12.695688513259697"><ele>828.9999999999999</ele><time>2026-04-11T13:28:40Z</time></trkpt><trkpt lat="42.66335182259901" lon="12.69564786957913"><ele>829.0</ele><time>2026-04-11T13:29:04Z</time></trkpt><trkpt lat="42.66340018223858" lon="12.695592207991641"><ele>829.0</ele><time>2026-04-11T13:29:05Z</time></trkpt><trkpt lat="42.663482773456906" lon="12.695499189026235"><ele>829.0</ele><time>2026-04-11T13:29:07Z</time></trkpt><trkpt lat="42.663596320416545" lon="12.69540617851302"><ele>829.0</ele><time>2026-04-11T13:29:09Z</time></trkpt><trkpt lat="42.66371049171129" lon="12.69533651083205"><ele>829.0</ele><time>2026-04-11T13:29:11Z</time></trkpt><trkpt lat="42.66379977906312" lon="12.695320954841158"><ele>830.2</ele><time>2026-04-11T13:29:12Z</time></trkpt><trkpt lat="42.66388387363207" lon="12.695320443316072"><ele>831.4000000000001</ele><time>2026-04-11T13:29:13Z</time></trkpt><trkpt lat="42.66397465522561" lon="12.695319255829014"><ele>832.6</ele><time>2026-04-11T13:29:14Z</time></trkpt><trkpt lat="42.66413440774265" lon="12.695325471992419"><ele>833.8</ele><time>2026-04-11T13:29:15Z</time></trkpt><trkpt lat="42.66424284098746" lon="12.695328153082022"><ele>835.0</ele><time>2026-04-11T13:29:16Z</time></trkpt><trkpt lat="42.66434919040343" lon="12.695334642179441"><ele>834.75</ele><time>2026-04-11T13:29:17Z</time></trkpt><trkpt lat="42.664458716248895" lon="12.695285053011837"><ele>834.5</ele><time>2026-04-11T13:29:18Z</time></trkpt><trkpt lat="42.66452873808984" lon="12.695191936379821"><ele>834.25</ele><time>2026-04-11T13:29:19Z</time></trkpt><trkpt lat="42.66465877308888" lon="12.69537015453859"><ele>834.0</ele><time>2026-04-11T13:29:20Z</time></trkpt><trkpt lat="42.66474880166943" lon="12.695389569090553"><ele>834.0</ele><time>2026-04-11T13:29:21Z</time></trkpt><trkpt lat="42.66485259552241" lon="12.69542699142825"><ele>834.0</ele><time>2026-04-11T13:29:22Z</time></trkpt><trkpt lat="42.66496433007079" lon="12.695471152393292"><ele>834.0</ele><time>2026-04-11T13:29:23Z</time></trkpt><trkpt lat="42.66508382111696" lon="12.695518378912395"><ele>834.0</ele><time>2026-04-11T13:29:24Z</time></trkpt><trkpt lat="42.66519857784363" lon="12.695561655100288"><ele>831.8000000000001</ele><time>2026-04-11T13:29:25Z</time></trkpt><trkpt lat="42.66530871016364" lon="12.695591971099132"><ele>829.6</ele><time>2026-04-11T13:29:26Z</time></trkpt><trkpt lat="42.665399932384666" lon="12.69558987580257"><ele>827.4</ele><time>2026-04-11T13:29:27Z</time></trkpt><trkpt lat="42.66549228384608" lon="12.695529744173736"><ele>825.2</ele><time>2026-04-11T13:29:28Z</time></trkpt><trkpt lat="42.665566175956094" lon="12.695458716536978"><ele>823.0</ele><time>2026-04-11T13:29:29Z</time></trkpt><trkpt lat="42.665649176429156" lon="12.695384922881994"><ele>823.0</ele><time>2026-04-11T13:29:30Z</time></trkpt><trkpt lat="42.66572243855134" lon="12.695277239734432"><ele>823.0</ele><time>2026-04-11T13:29:31Z</time></trkpt><trkpt lat="42.665789945969216" lon="12.695164758588227"><ele>823.0</ele><time>2026-04-11T13:29:32Z</time></trkpt><trkpt lat="42.66586495353766" lon="12.695049898249255"><ele>823.0</ele><time>2026-04-11T13:29:33Z</time></trkpt><trkpt lat="42.66594323866412" lon="12.69494677175269"><ele>823.0</ele><time>2026-04-11T13:29:34Z</time></trkpt><trkpt lat="42.66601738293784" lon="12.694867299759972"><ele>823.8333333333333</ele><time>2026-04-11T13:29:35Z</time></trkpt><trkpt lat="42.666096421207065" lon="12.694805616705965"><ele>824.6666666666666</ele><time>2026-04-11T13:29:36Z</time></trkpt><trkpt lat="42.66617104206308" lon="12.694800134154997"><ele>825.5</ele><time>2026-04-11T13:29:37Z</time></trkpt><trkpt lat="42.666254669452115" lon="12.69481092955941"><ele>826.3333333333333</ele><time>2026-04-11T13:29:38Z</time></trkpt><trkpt lat="42.66634014072155" lon="12.694819735608002"><ele>827.1666666666666</ele><time>2026-04-11T13:29:39Z</time></trkpt><trkpt lat="42.6664370300446" lon="12.694813765127677"><ele>828.0</ele><time>2026-04-11T13:29:40Z</time></trkpt><trkpt lat="42.66654090558302" lon="12.69476732700808"><ele>828.0</ele><time>2026-04-11T13:29:41Z</time></trkpt><trkpt lat="42.66664240364709" lon="12.694710505138566"><ele>828.0</ele><time>2026-04-11T13:29:42Z</time></trkpt><trkpt lat="42.66673875305927" lon="12.694656346284471"><ele>828.0</ele><time>2026-04-11T13:29:43Z</time></trkpt><trkpt lat="42.66682515769477" lon="12.694604245372245"><ele>828.0</ele><time>2026-04-11T13:29:44Z</time></trkpt><trkpt lat="42.66690702516535" lon="12.694550545027"><ele>828.0</ele><time>2026-04-11T13:29:45.001Z</time></trkpt><trkpt lat="42.666987847489736" lon="12.694480302706275"><ele>829.0</ele><time>2026-04-11T13:29:46.001Z</time></trkpt><trkpt lat="42.667064077380935" lon="12.694399829350859"><ele>830.0</ele><time>2026-04-11T13:29:47.001Z</time></trkpt><trkpt lat="42.667142609042905" lon="12.69431692721027"><ele>831.0</ele><time>2026-04-11T13:29:48.001Z</time></trkpt><trkpt lat="42.66720806316082" lon="12.694251708990851"><ele>832.0</ele><time>2026-04-11T13:29:49.001Z</time></trkpt><trkpt lat="42.66726979830104" lon="12.694189342174514"><ele>833.0</ele><time>2026-04-11T13:29:50.001Z</time></trkpt><trkpt lat="42.66732901151689" lon="12.69410094126735"><ele>834.0</ele><time>2026-04-11T13:29:51.001Z</time></trkpt><trkpt lat="42.66737126138447" lon="12.693969238227822"><ele>834.0</ele><time>2026-04-11T13:29:52.001Z</time></trkpt><trkpt lat="42.667371336180814" lon="12.69385462790205"><ele>834.0</ele><time>2026-04-11T13:29:53.001Z</time></trkpt><trkpt lat="42.66736468369368" lon="12.693736474810166"><ele>834.0</ele><time>2026-04-11T13:29:54.001Z</time></trkpt><trkpt lat="42.66734424161609" lon="12.693637620945848"><ele>834.0</ele><time>2026-04-11T13:29:55.001Z</time></trkpt><trkpt lat="42.66732030968146" lon="12.693543029504943"><ele>834.0</ele><time>2026-04-11T13:29:56.001Z</time></trkpt><trkpt lat="42.66729639143142" lon="12.693433197445385"><ele>834.0</ele><time>2026-04-11T13:29:57.001Z</time></trkpt><trkpt lat="42.66726629778036" lon="12.693317331808462"><ele>835.2</ele><time>2026-04-11T13:29:58.001Z</time></trkpt><trkpt lat="42.66728273850912" lon="12.693198323310455"><ele>836.4000000000001</ele><time>2026-04-11T13:29:59.001Z</time></trkpt><trkpt lat="42.66728904214323" lon="12.693095898548687"><ele>837.6</ele><time>2026-04-11T13:30:00.001Z</time></trkpt><trkpt lat="42.66728500719033" lon="12.69299987804334"><ele>838.8</ele><time>2026-04-11T13:30:01.001Z</time></trkpt><trkpt lat="42.667204518234016" lon="12.692871102943215"><ele>840.0</ele><time>2026-04-11T13:30:03.001Z</time></trkpt><trkpt lat="42.66714791446702" lon="12.692760487713683"><ele>839.6</ele><time>2026-04-11T13:30:05.001Z</time></trkpt><trkpt lat="42.66713118065103" lon="12.692589939807624"><ele>839.2</ele><time>2026-04-11T13:30:07.001Z</time></trkpt><trkpt lat="42.667103799986464" lon="12.692454578241513"><ele>838.8</ele><time>2026-04-11T13:30:09.001Z</time></trkpt><trkpt lat="42.66707731689481" lon="12.69233382337016"><ele>838.4</ele><time>2026-04-11T13:30:11Z</time></trkpt><trkpt lat="42.66704344375451" lon="12.692256262410478"><ele>838.0</ele><time>2026-04-11T13:30:12Z</time></trkpt><trkpt lat="42.66701186877126" lon="12.69216790710982"><ele>838.0</ele><time>2026-04-11T13:30:13Z</time></trkpt><trkpt lat="42.66699514119241" lon="12.692030089685531"><ele>838.0</ele><time>2026-04-11T13:30:15Z</time></trkpt><trkpt lat="42.66699454642485" lon="12.691879791056666"><ele>838.0</ele><time>2026-04-11T13:30:17Z</time></trkpt><trkpt lat="42.66697236719985" lon="12.691739465872265"><ele>838.0</ele><time>2026-04-11T13:30:19Z</time></trkpt><trkpt lat="42.666957531796164" lon="12.691620741835393"><ele>838.0</ele><time>2026-04-11T13:30:21Z</time></trkpt><trkpt lat="42.66696793759436" lon="12.691497607203233"><ele>838.1666666666666</ele><time>2026-04-11T13:30:23Z</time></trkpt><trkpt lat="42.66699688661661" lon="12.691383683818609"><ele>838.3333333333333</ele><time>2026-04-11T13:30:25Z</time></trkpt><trkpt lat="42.66703253551913" lon="12.691271151851852"><ele>838.5</ele><time>2026-04-11T13:30:27Z</time></trkpt><trkpt lat="42.66708255078105" lon="12.691186306631662"><ele>838.6666666666667</ele><time>2026-04-11T13:30:29Z</time></trkpt><trkpt lat="42.66712808840412" lon="12.69108343431679"><ele>838.8333333333334</ele><time>2026-04-11T13:30:31Z</time></trkpt><trkpt lat="42.66718651123245" lon="12.69097041907482"><ele>839.0</ele><time>2026-04-11T13:30:33Z</time></trkpt><trkpt lat="42.66724026043522" lon="12.690821232851853"><ele>839.8333333333334</ele><time>2026-04-11T13:30:35Z</time></trkpt><trkpt lat="42.6672800027145" lon="12.69073793099967"><ele>840.6666666666667</ele><time>2026-04-11T13:30:36Z</time></trkpt><trkpt lat="42.66733368495188" lon="12.690667349943938"><ele>841.5</ele><time>2026-04-11T13:30:37Z</time></trkpt><trkpt lat="42.667411754283734" lon="12.690601556316734"><ele>842.3333333333333</ele><time>2026-04-11T13:30:38Z</time></trkpt><trkpt lat="42.66747908413815" lon="12.690544938855124"><ele>843.1666666666666</ele><time>2026-04-11T13:30:39Z</time></trkpt><trkpt lat="42.66753950566741" lon="12.690479141821928"><ele>844.0</ele><time>2026-04-11T13:30:40Z</time></trkpt><trkpt lat="42.66760589123991" lon="12.6904217545401"><ele>843.9999999999999</ele><time>2026-04-11T13:30:41Z</time></trkpt><trkpt lat="42.66766746632785" lon="12.690350254356925"><ele>844.0</ele><time>2026-04-11T13:30:42Z</time></trkpt><trkpt lat="42.667705151208594" lon="12.690254795870477"><ele>844.0</ele><time>2026-04-11T13:30:43Z</time></trkpt><trkpt lat="42.66773453907118" lon="12.6901510244573"><ele>844.0</ele><time>2026-04-11T13:30:44Z</time></trkpt><trkpt lat="42.66775275761452" lon="12.69005186571159"><ele>843.9999999999999</ele><time>2026-04-11T13:30:45Z</time></trkpt><trkpt lat="42.66777980361706" lon="12.689971786950439"><ele>844.0</ele><time>2026-04-11T13:30:46Z</time></trkpt><trkpt lat="42.66782099585527" lon="12.689886600269888"><ele>846.3333333333333</ele><time>2026-04-11T13:30:47Z</time></trkpt><trkpt lat="42.667855892459684" lon="12.6897899010292"><ele>848.6666666666666</ele><time>2026-04-11T13:30:48Z</time></trkpt><trkpt lat="42.667892336170425" lon="12.689706841139461"><ele>851.0</ele><time>2026-04-11T13:30:49Z</time></trkpt><trkpt lat="42.6679739573123" lon="12.689598011176125"><ele>853.3333333333333</ele><time>2026-04-11T13:30:51Z</time></trkpt><trkpt lat="42.66805189111337" lon="12.689526263934571"><ele>855.6666666666666</ele><time>2026-04-11T13:30:53Z</time></trkpt><trkpt lat="42.668106309086134" lon="12.689471326609167"><ele>858.0</ele><time>2026-04-11T13:30:55Z</time></trkpt><trkpt lat="42.66818604894685" lon="12.689384663589042"><ele>858.4</ele><time>2026-04-11T13:30:58Z</time></trkpt><trkpt lat="42.668270232522765" lon="12.689268775329538"><ele>858.8</ele><time>2026-04-11T13:31:00Z</time></trkpt><trkpt lat="42.66831849079955" lon="12.689182597589957"><ele>859.2</ele><time>2026-04-11T13:31:01Z</time></trkpt><trkpt lat="42.66835471480405" lon="12.689108105841049"><ele>859.6</ele><time>2026-04-11T13:31:02Z</time></trkpt><trkpt lat="42.66842538715157" lon="12.688994876257569"><ele>860.0</ele><time>2026-04-11T13:31:04Z</time></trkpt><trkpt lat="42.668492541124955" lon="12.688904128508753"><ele>860.0</ele><time>2026-04-11T13:31:06Z</time></trkpt><trkpt lat="42.66856555077296" lon="12.688793697902259"><ele>860.0</ele><time>2026-04-11T13:31:08Z</time></trkpt><trkpt lat="42.668631597670704" lon="12.688691152736686"><ele>860.0</ele><time>2026-04-11T13:31:10Z</time></trkpt><trkpt lat="42.66870844308888" lon="12.688639670747156"><ele>860.0</ele><time>2026-04-11T13:31:12Z</time></trkpt><trkpt lat="42.668790416097465" lon="12.688605155847577"><ele>860.0</ele><time>2026-04-11T13:31:14Z</time></trkpt><trkpt lat="42.66885746918309" lon="12.688545831598365"><ele>859.0000000000001</ele><time>2026-04-11T13:31:16Z</time></trkpt><trkpt lat="42.668900646764534" lon="12.688483350600832"><ele>858.0</ele><time>2026-04-11T13:31:18Z</time></trkpt><trkpt lat="42.66894853729482" lon="12.688391926240005"><ele>857.0</ele><time>2026-04-11T13:31:20Z</time></trkpt><trkpt lat="42.66898944650376" lon="12.688305193562565"><ele>856.0</ele><time>2026-04-11T13:31:22Z</time></trkpt><trkpt lat="42.669046795280124" lon="12.688197240521857"><ele>855.0000000000001</ele><time>2026-04-11T13:31:24Z</time></trkpt><trkpt lat="42.669075365552736" lon="12.688109377450365"><ele>854.0</ele><time>2026-04-11T13:31:25Z</time></trkpt><trkpt lat="42.66911619590071" lon="12.688027953028397"><ele>854.0000000000001</ele><time>2026-04-11T13:31:26Z</time></trkpt><trkpt lat="42.669135217753166" lon="12.687943310090105"><ele>854.0</ele><time>2026-04-11T13:31:27Z</time></trkpt><trkpt lat="42.669166949369625" lon="12.687855890623215"><ele>854.0</ele><time>2026-04-11T13:31:28Z</time></trkpt><trkpt lat="42.66922343376866" lon="12.687724754617442"><ele>854.0</ele><time>2026-04-11T13:31:30Z</time></trkpt><trkpt lat="42.66928208273289" lon="12.687681597045907"><ele>854.0000000000001</ele><time>2026-04-11T13:31:31Z</time></trkpt><trkpt lat="42.66935664717054" lon="12.68768978801072"><ele>854.0</ele><time>2026-04-11T13:31:32Z</time></trkpt><trkpt lat="42.66942776097226" lon="12.687717735914502"><ele>855.3333333333334</ele><time>2026-04-11T13:31:33Z</time></trkpt><trkpt lat="42.669519369720206" lon="12.687760678783308"><ele>856.6666666666667</ele><time>2026-04-11T13:31:35Z</time></trkpt><trkpt lat="42.66957685800796" lon="12.687691460685514"><ele>858.0</ele><time>2026-04-11T13:31:37Z</time></trkpt><trkpt lat="42.66961699738222" lon="12.687612882314468"><ele>859.3333333333333</ele><time>2026-04-11T13:31:38Z</time></trkpt><trkpt lat="42.669641582218006" lon="12.687505096910748"><ele>860.6666666666666</ele><time>2026-04-11T13:31:39Z</time></trkpt><trkpt lat="42.6696657359931" lon="12.687375832018098"><ele>862.0</ele><time>2026-04-11T13:31:40Z</time></trkpt><trkpt lat="42.669687759703095" lon="12.687260610641282"><ele>862.0</ele><time>2026-04-11T13:31:41Z</time></trkpt><trkpt lat="42.669717059228844" lon="12.687165083062593"><ele>862.0</ele><time>2026-04-11T13:31:42Z</time></trkpt><trkpt lat="42.66975462655315" lon="12.687078599847338"><ele>862.0</ele><time>2026-04-11T13:31:43Z</time></trkpt><trkpt lat="42.66978705073763" lon="12.686993809620486"><ele>862.0</ele><time>2026-04-11T13:31:44Z</time></trkpt><trkpt lat="42.66983864912842" lon="12.686929534514604"><ele>862.0</ele><time>2026-04-11T13:31:45Z</time></trkpt><trkpt lat="42.66988906705526" lon="12.686867995709603"><ele>862.0</ele><time>2026-04-11T13:31:46Z</time></trkpt><trkpt lat="42.6699406553036" lon="12.68680452086157"><ele>862.0</ele><time>2026-04-11T13:31:47Z</time></trkpt><trkpt lat="42.66999805815624" lon="12.686735801502445"><ele>862.1666666666666</ele><time>2026-04-11T13:31:48Z</time></trkpt><trkpt lat="42.67005766251636" lon="12.686666594133506"><ele>862.3333333333333</ele><time>2026-04-11T13:31:49.001Z</time></trkpt><trkpt lat="42.67010831648724" lon="12.686599797526618"><ele>862.5</ele><time>2026-04-11T13:31:50.001Z</time></trkpt><trkpt lat="42.67017339018724" lon="12.686490856400592"><ele>862.6666666666667</ele><time>2026-04-11T13:31:52.001Z</time></trkpt><trkpt lat="42.67021371398175" lon="12.686395018405003"><ele>862.8333333333334</ele><time>2026-04-11T13:31:54.001Z</time></trkpt><trkpt lat="42.67026595534285" lon="12.686276919794997"><ele>863.0</ele><time>2026-04-11T13:31:56.001Z</time></trkpt><trkpt lat="42.6703289585702" lon="12.686187134486705"><ele>860.5999999999999</ele><time>2026-04-11T13:31:58.001Z</time></trkpt><trkpt lat="42.67041872878889" lon="12.686105038986058"><ele>858.1999999999999</ele><time>2026-04-11T13:32:00.001Z</time></trkpt><trkpt lat="42.670509735788144" lon="12.685968531645797"><ele>855.8</ele><time>2026-04-11T13:32:02.001Z</time></trkpt><trkpt lat="42.67055995370946" lon="12.68588113202304"><ele>853.4</ele><time>2026-04-11T13:32:03.001Z</time></trkpt><trkpt lat="42.67060454104948" lon="12.685803183810181"><ele>851.0</ele><time>2026-04-11T13:32:04.001Z</time></trkpt><trkpt lat="42.67066638349013" lon="12.685678868228985"><ele>850.5999999999999</ele><time>2026-04-11T13:32:06.001Z</time></trkpt><trkpt lat="42.670703625485366" lon="12.685525193296083"><ele>850.2</ele><time>2026-04-11T13:32:08.001Z</time></trkpt><trkpt lat="42.67073088846563" lon="12.685405620006987"><ele>849.8</ele><time>2026-04-11T13:32:10.001Z</time></trkpt><trkpt lat="42.6707468166201" lon="12.685313529478679"><ele>849.4000000000001</ele><time>2026-04-11T13:32:12.001Z</time></trkpt><trkpt lat="42.67071896617518" lon="12.685220385137756"><ele>849.0</ele><time>2026-04-11T13:32:21Z</time></trkpt><trkpt lat="42.670631460821866" lon="12.685162320272473"><ele>847.2</ele><time>2026-04-11T13:32:23Z</time></trkpt><trkpt lat="42.67053521232526" lon="12.685138911210288"><ele>845.4000000000001</ele><time>2026-04-11T13:32:25Z</time></trkpt><trkpt lat="42.6704241913844" lon="12.685092478165458"><ele>843.6</ele><time>2026-04-11T13:32:27Z</time></trkpt><trkpt lat="42.670374600964294" lon="12.684957164041627"><ele>841.8</ele><time>2026-04-11T13:32:29Z</time></trkpt><trkpt lat="42.67034484660375" lon="12.684851406415447"><ele>840.0</ele><time>2026-04-11T13:32:30Z</time></trkpt><trkpt lat="42.670338479333594" lon="12.684737571537736"><ele>840.0</ele><time>2026-04-11T13:32:31Z</time></trkpt><trkpt lat="42.67032446350122" lon="12.684632012394665"><ele>840.0</ele><time>2026-04-11T13:32:32Z</time></trkpt><trkpt lat="42.67029670199634" lon="12.684539415357976"><ele>840.0</ele><time>2026-04-11T13:32:33Z</time></trkpt><trkpt lat="42.67027764376358" lon="12.684447038768853"><ele>840.0</ele><time>2026-04-11T13:32:34Z</time></trkpt><trkpt lat="42.670265672743" lon="12.68434157041836"><ele>840.0</ele><time>2026-04-11T13:32:35Z</time></trkpt><trkpt lat="42.67025072594982" lon="12.684246110578842"><ele>840.0</ele><time>2026-04-11T13:32:36Z</time></trkpt><trkpt lat="42.67028939090419" lon="12.684118587128435"><ele>838.1666666666666</ele><time>2026-04-11T13:32:38Z</time></trkpt><trkpt lat="42.670318913348424" lon="12.684022352479573"><ele>836.3333333333333</ele><time>2026-04-11T13:32:39Z</time></trkpt><trkpt lat="42.67035548513675" lon="12.68395190537115"><ele>834.5</ele><time>2026-04-11T13:32:40Z</time></trkpt><trkpt lat="42.6704355485556" lon="12.683807752241309"><ele>832.6666666666666</ele><time>2026-04-11T13:32:42Z</time></trkpt><trkpt lat="42.67047016403275" lon="12.683691451676628"><ele>830.8333333333333</ele><time>2026-04-11T13:32:43Z</time></trkpt><trkpt lat="42.670495191570815" lon="12.683590275179634"><ele>829.0</ele><time>2026-04-11T13:32:44Z</time></trkpt><trkpt lat="42.67052190844413" lon="12.683484212355395"><ele>828.4999999999999</ele><time>2026-04-11T13:32:45Z</time></trkpt><trkpt lat="42.670548909077766" lon="12.68337678084366"><ele>828.0</ele><time>2026-04-11T13:32:46Z</time></trkpt><trkpt lat="42.67055857818718" lon="12.683262293456773"><ele>827.5</ele><time>2026-04-11T13:32:47Z</time></trkpt><trkpt lat="42.67060408568817" lon="12.68316721576058"><ele>827.0</ele><time>2026-04-11T13:32:48Z</time></trkpt><trkpt lat="42.670633275365404" lon="12.683060650514822"><ele>826.4999999999999</ele><time>2026-04-11T13:32:49Z</time></trkpt><trkpt lat="42.670652675102524" lon="12.682966924130938"><ele>826.0</ele><time>2026-04-11T13:32:50Z</time></trkpt><trkpt lat="42.67067431908349" lon="12.682802412042413"><ele>826.0</ele><time>2026-04-11T13:32:52Z</time></trkpt><trkpt lat="42.670715819789564" lon="12.682671847128727"><ele>826.0</ele><time>2026-04-11T13:32:54Z</time></trkpt><trkpt lat="42.67075610869074" lon="12.682555523536967"><ele>826.0</ele><time>2026-04-11T13:32:56Z</time></trkpt><trkpt lat="42.67079601735174" lon="12.682451434198837"><ele>826.0</ele><time>2026-04-11T13:32:58Z</time></trkpt><trkpt lat="42.67083995862946" lon="12.682334951818556"><ele>826.0</ele><time>2026-04-11T13:33:00Z</time></trkpt><trkpt lat="42.67086387809185" lon="12.682164695474889"><ele>825.9999999999999</ele><time>2026-04-11T13:33:02Z</time></trkpt><trkpt lat="42.670870794230204" lon="12.68202952592776"><ele>826.0</ele><time>2026-04-11T13:33:04Z</time></trkpt><trkpt lat="42.67089913878809" lon="12.68191756422182"><ele>826.0</ele><time>2026-04-11T13:33:06Z</time></trkpt><trkpt lat="42.67092844361571" lon="12.681772896123158"><ele>826.0</ele><time>2026-04-11T13:33:08Z</time></trkpt><trkpt lat="42.67096189445167" lon="12.681697188610498"><ele>825.9999999999999</ele><time>2026-04-11T13:33:09Z</time></trkpt><trkpt lat="42.670988595213636" lon="12.68161672219181"><ele>826.0</ele><time>2026-04-11T13:33:10Z</time></trkpt><trkpt lat="42.6710326096523" lon="12.681522563045554"><ele>827.1999999999999</ele><time>2026-04-11T13:33:11Z</time></trkpt><trkpt lat="42.671070628691716" lon="12.681396780665409"><ele>828.4</ele><time>2026-04-11T13:33:12Z</time></trkpt><trkpt lat="42.67110980149235" lon="12.681263675502649"><ele>829.6</ele><time>2026-04-11T13:33:13Z</time></trkpt><trkpt lat="42.671166625009924" lon="12.681132612542369"><ele>830.8</ele><time>2026-04-11T13:33:14Z</time></trkpt><trkpt lat="42.67122606707142" lon="12.681009528165694"><ele>832.0</ele><time>2026-04-11T13:33:15Z</time></trkpt><trkpt lat="42.67128613308612" lon="12.680900471457504"><ele>826.6666666666666</ele><time>2026-04-11T13:33:16Z</time></trkpt><trkpt lat="42.67135389835102" lon="12.68080460999812"><ele>821.3333333333333</ele><time>2026-04-11T13:33:17Z</time></trkpt><trkpt lat="42.67140132737855" lon="12.680708195783366"><ele>816.0</ele><time>2026-04-11T13:33:18Z</time></trkpt><trkpt lat="42.67144616916167" lon="12.680634349938584"><ele>810.6666666666667</ele><time>2026-04-11T13:33:19Z</time></trkpt><trkpt lat="42.671488926677355" lon="12.680565604092159"><ele>805.3333333333334</ele><time>2026-04-11T13:33:20Z</time></trkpt><trkpt lat="42.67153313931119" lon="12.680487638131755"><ele>800.0</ele><time>2026-04-11T13:33:21Z</time></trkpt><trkpt lat="42.67156520835623" lon="12.680393855642466"><ele>800.0</ele><time>2026-04-11T13:33:22Z</time></trkpt><trkpt lat="42.67159968423678" lon="12.680302156729113"><ele>800.0</ele><time>2026-04-11T13:33:23Z</time></trkpt><trkpt lat="42.67165586607397" lon="12.680140675416903"><ele>800.0</ele><time>2026-04-11T13:33:25Z</time></trkpt><trkpt lat="42.671671464150094" lon="12.680037943545821"><ele>800.0</ele><time>2026-04-11T13:33:26Z</time></trkpt><trkpt lat="42.67168690843048" lon="12.679940677050794"><ele>800.0</ele><time>2026-04-11T13:33:27Z</time></trkpt><trkpt lat="42.671738477532834" lon="12.67981031524716"><ele>801.0000000000001</ele><time>2026-04-11T13:33:29Z</time></trkpt><trkpt lat="42.671796597091124" lon="12.67971774711445"><ele>802.0</ele><time>2026-04-11T13:33:31Z</time></trkpt><trkpt lat="42.67184816832993" lon="12.679629833498174"><ele>803.0</ele><time>2026-04-11T13:33:33Z</time></trkpt><trkpt lat="42.67190775793835" lon="12.679542980562323"><ele>804.0</ele><time>2026-04-11T13:33:35Z</time></trkpt><trkpt lat="42.67197169092521" lon="12.67948321222644"><ele>805.0000000000001</ele><time>2026-04-11T13:33:37Z</time></trkpt><trkpt lat="42.6720207404555" lon="12.679411931120574"><ele>806.0</ele><time>2026-04-11T13:33:39Z</time></trkpt><trkpt lat="42.67207802980595" lon="12.679340962919728"><ele>802.5000000000001</ele><time>2026-04-11T13:33:41Z</time></trkpt><trkpt lat="42.67214075484764" lon="12.679271444569762"><ele>799.0</ele><time>2026-04-11T13:33:44Z</time></trkpt><trkpt lat="42.67219596901949" lon="12.67917405942075"><ele>795.5</ele><time>2026-04-11T13:33:47Z</time></trkpt><trkpt lat="42.672260478188015" lon="12.67908797596882"><ele>792.0</ele><time>2026-04-11T13:33:49Z</time></trkpt><trkpt lat="42.67231893181626" lon="12.679005470053427"><ele>788.5000000000001</ele><time>2026-04-11T13:33:51Z</time></trkpt><trkpt lat="42.67237906202081" lon="12.67892036344841"><ele>785.0</ele><time>2026-04-11T13:33:53Z</time></trkpt><trkpt lat="42.672426596234416" lon="12.678855203739818"><ele>785.0000000000001</ele><time>2026-04-11T13:33:55Z</time></trkpt><trkpt lat="42.672503528512685" lon="12.67880843944247"><ele>785.0</ele><time>2026-04-11T13:33:57Z</time></trkpt><trkpt lat="42.672556903864105" lon="12.678747009451723"><ele>785.0</ele><time>2026-04-11T13:33:58Z</time></trkpt><trkpt lat="42.672609650005526" lon="12.678658143653774"><ele>785.0</ele><time>2026-04-11T13:33:59.001Z</time></trkpt><trkpt lat="42.67265905679997" lon="12.678575514892913"><ele>785.0000000000001</ele><time>2026-04-11T13:34:00.001Z</time></trkpt><trkpt lat="42.672701775799275" lon="12.678512294787483"><ele>785.0</ele><time>2026-04-11T13:34:01.001Z</time></trkpt><trkpt lat="42.6727937839099" lon="12.678419519349394"><ele>783.1666666666667</ele><time>2026-04-11T13:34:03.001Z</time></trkpt><trkpt lat="42.67284793485612" lon="12.678369044473119"><ele>781.3333333333334</ele><time>2026-04-11T13:34:05.001Z</time></trkpt><trkpt lat="42.672913511951485" lon="12.678331280338785"><ele>779.5</ele><time>2026-04-11T13:34:09.001Z</time></trkpt><trkpt lat="42.67297944056676" lon="12.678293095773572"><ele>777.6666666666667</ele><time>2026-04-11T13:34:27Z</time></trkpt><trkpt lat="42.67306355295811" lon="12.678274162191975"><ele>775.8333333333334</ele><time>2026-04-11T13:34:30Z</time></trkpt><trkpt lat="42.67314915717601" lon="12.678251303077776"><ele>774.0</ele><time>2026-04-11T13:34:33Z</time></trkpt><trkpt lat="42.67322861956415" lon="12.678216910027102"><ele>774.0</ele><time>2026-04-11T13:34:35Z</time></trkpt><trkpt lat="42.67331395424269" lon="12.678159754189362"><ele>774.0</ele><time>2026-04-11T13:34:37Z</time></trkpt><trkpt lat="42.673419088950524" lon="12.678100959257419"><ele>774.0</ele><time>2026-04-11T13:34:39Z</time></trkpt><trkpt lat="42.673494206932936" lon="12.67805748350463"><ele>774.0</ele><time>2026-04-11T13:34:40Z</time></trkpt><trkpt lat="42.67357931702969" lon="12.678056536006885"><ele>774.0</ele><time>2026-04-11T13:34:41Z</time></trkpt><trkpt lat="42.67365655799331" lon="12.678021516912873"><ele>774.6666666666666</ele><time>2026-04-11T13:34:42Z</time></trkpt><trkpt lat="42.67372235311731" lon="12.677951092605399"><ele>775.3333333333333</ele><time>2026-04-11T13:34:43Z</time></trkpt><trkpt lat="42.67380067390353" lon="12.67791844194569"><ele>776.0</ele><time>2026-04-11T13:34:44Z</time></trkpt><trkpt lat="42.67388794184302" lon="12.677878659850847"><ele>776.6666666666666</ele><time>2026-04-11T13:34:45Z</time></trkpt><trkpt lat="42.67397676571174" lon="12.677826009349555"><ele>777.3333333333333</ele><time>2026-04-11T13:34:46Z</time></trkpt><trkpt lat="42.67405606111212" lon="12.677755906973623"><ele>778.0</ele><time>2026-04-11T13:34:47Z</time></trkpt><trkpt lat="42.674138394056534" lon="12.677687070595725"><ele>776.8333333333333</ele><time>2026-04-11T13:34:48Z</time></trkpt><trkpt lat="42.67419869024994" lon="12.6776116998137"><ele>775.6666666666666</ele><time>2026-04-11T13:34:49Z</time></trkpt><trkpt lat="42.6742508862793" lon="12.677558126556557"><ele>774.5</ele><time>2026-04-11T13:34:50Z</time></trkpt><trkpt lat="42.67431588264624" lon="12.677444827920551"><ele>773.3333333333333</ele><time>2026-04-11T13:34:52Z</time></trkpt><trkpt lat="42.67438296469733" lon="12.677329501035956"><ele>772.1666666666666</ele><time>2026-04-11T13:34:54Z</time></trkpt><trkpt lat="42.67442404385523" lon="12.677260995923643"><ele>771.0</ele><time>2026-04-11T13:34:55Z</time></trkpt><trkpt lat="42.67445413816744" lon="12.677184649424856"><ele>771.0</ele><time>2026-04-11T13:34:56Z</time></trkpt><trkpt lat="42.674518922602665" lon="12.677021716794519"><ele>771.0</ele><time>2026-04-11T13:34:58Z</time></trkpt><trkpt lat="42.67456020328822" lon="12.676908367244698"><ele>771.0</ele><time>2026-04-11T13:34:59Z</time></trkpt><trkpt lat="42.67460022110388" lon="12.676819856819113"><ele>771.0</ele><time>2026-04-11T13:35:00Z</time></trkpt><trkpt lat="42.67463605029132" lon="12.67672899784393"><ele>771.0</ele><time>2026-04-11T13:35:01Z</time></trkpt><trkpt lat="42.67467575582759" lon="12.676630938645314"><ele>769.1999999999999</ele><time>2026-04-11T13:35:02Z</time></trkpt><trkpt lat="42.67470480315914" lon="12.67651415526195"><ele>767.4</ele><time>2026-04-11T13:35:03Z</time></trkpt><trkpt lat="42.674722063405824" lon="12.676381018915125"><ele>765.6</ele><time>2026-04-11T13:35:04Z</time></trkpt><trkpt lat="42.67474278903152" lon="12.676248850214433"><ele>763.8</ele><time>2026-04-11T13:35:05Z</time></trkpt><trkpt lat="42.674757971082734" lon="12.676114763310558"><ele>762.0</ele><time>2026-04-11T13:35:06Z</time></trkpt><trkpt lat="42.67477304673206" lon="12.675984786390034"><ele>760.8333333333334</ele><time>2026-04-11T13:35:07Z</time></trkpt><trkpt lat="42.67477429380695" lon="12.675866545994097"><ele>759.6666666666666</ele><time>2026-04-11T13:35:08Z</time></trkpt><trkpt lat="42.67476996890105" lon="12.675746189660147"><ele>758.5</ele><time>2026-04-11T13:35:09Z</time></trkpt><trkpt lat="42.67476552991426" lon="12.675620650148787"><ele>757.3333333333333</ele><time>2026-04-11T13:35:11Z</time></trkpt><trkpt lat="42.67484016405872" lon="12.675602728237731"><ele>756.1666666666666</ele><time>2026-04-11T13:35:33Z</time></trkpt><trkpt lat="42.67489552115211" lon="12.675702587725663"><ele>755.0</ele><time>2026-04-11T13:35:35Z</time></trkpt><trkpt lat="42.67494259467311" lon="12.675845521199845"><ele>755.0</ele><time>2026-04-11T13:35:37Z</time></trkpt><trkpt lat="42.67497629682553" lon="12.675944344089652"><ele>755.0</ele><time>2026-04-11T13:35:38Z</time></trkpt><trkpt lat="42.675007430810524" lon="12.67604428632121"><ele>755.0</ele><time>2026-04-11T13:35:39Z</time></trkpt><trkpt lat="42.6750248194949" lon="12.676151788556702"><ele>755.0</ele><time>2026-04-11T13:35:40Z</time></trkpt><trkpt lat="42.67503361862034" lon="12.676264790791958"><ele>755.0</ele><time>2026-04-11T13:35:41Z</time></trkpt><trkpt lat="42.675043898327765" lon="12.676359156139096"><ele>755.0</ele><time>2026-04-11T13:35:42Z</time></trkpt><trkpt lat="42.675032790066" lon="12.676519400749186"><ele>756.4</ele><time>2026-04-11T13:35:44Z</time></trkpt><trkpt lat="42.675011625175586" lon="12.676685589378065"><ele>757.8</ele><time>2026-04-11T13:35:46Z</time></trkpt><trkpt lat="42.67497141895731" lon="12.67684202111737"><ele>759.2</ele><time>2026-04-11T13:35:48Z</time></trkpt><trkpt lat="42.674940568030976" lon="12.676931297927878"><ele>760.6</ele><time>2026-04-11T13:35:49Z</time></trkpt><trkpt lat="42.67489731557369" lon="12.677072613100306"><ele>762.0</ele><time>2026-04-11T13:35:51.001Z</time></trkpt><trkpt lat="42.67487039508306" lon="12.677158897096865"><ele>771.0</ele><time>2026-04-11T13:35:53.001Z</time></trkpt></trkseg><trkseg><trkpt lat="42.67490138514777" lon="12.677044505180328"><ele>769.1999999999999</ele><time>2026-04-11T13:49:05.006Z</time></trkpt><trkpt lat="42.674940697324764" lon="12.676884375466773"><ele>767.4</ele><time>2026-04-11T13:49:07.006Z</time></trkpt><trkpt lat="42.67496695226201" lon="12.676803735150779"><ele>765.6</ele><time>2026-04-11T13:49:08.006Z</time></trkpt><trkpt lat="42.67499987548403" lon="12.676648514780004"><ele>763.8</ele><time>2026-04-11T13:49:10.006Z</time></trkpt><trkpt lat="42.67504095979844" lon="12.676504169773924"><ele>762.0</ele><time>2026-04-11T13:49:12.006Z</time></trkpt><trkpt lat="42.67502954527963" lon="12.676333521591676"><ele>762.0</ele><time>2026-04-11T13:49:14.006Z</time></trkpt><trkpt lat="42.675023892169236" lon="12.676169960942808"><ele>762.0</ele><time>2026-04-11T13:49:16.006Z</time></trkpt><trkpt lat="42.67500328385979" lon="12.676088572767897"><ele>762.0</ele><time>2026-04-11T13:49:17.006Z</time></trkpt><trkpt lat="42.67498343091693" lon="12.67600387843467"><ele>762.0</ele><time>2026-04-11T13:49:18.006Z</time></trkpt><trkpt lat="42.67496155138052" lon="12.675911781337664"><ele>762.0</ele><time>2026-04-11T13:49:19.006Z</time></trkpt><trkpt lat="42.67490913557667" lon="12.675765410698103"><ele>762.0</ele><time>2026-04-11T13:49:21.006Z</time></trkpt><trkpt lat="42.674874345202525" lon="12.675687472674188"><ele>760.6</ele><time>2026-04-11T13:49:23.006Z</time></trkpt><trkpt lat="42.674820652221094" lon="12.675625764284662"><ele>759.2</ele><time>2026-04-11T13:49:25.006Z</time></trkpt><trkpt lat="42.67475136094336" lon="12.67553491101833"><ele>757.8</ele><time>2026-04-11T13:49:27.006Z</time></trkpt><trkpt lat="42.67476803879043" lon="12.675377244239465"><ele>756.4</ele><time>2026-04-11T13:49:29.006Z</time></trkpt><trkpt lat="42.674777330504845" lon="12.675232356273085"><ele>755.0</ele><time>2026-04-11T13:49:31.006Z</time></trkpt><trkpt lat="42.67478106036057" lon="12.675137306363176"><ele>754.1428571428571</ele><time>2026-04-11T13:49:33.006Z</time></trkpt><trkpt lat="42.674772838340324" lon="12.675028358409048"><ele>753.2857142857143</ele><time>2026-04-11T13:49:36.006Z</time></trkpt><trkpt lat="42.67475943641495" lon="12.67492992066023"><ele>752.4285714285714</ele><time>2026-04-11T13:49:39.006Z</time></trkpt><trkpt lat="42.67475018948426" lon="12.674837842892131"><ele>751.5714285714286</ele><time>2026-04-11T13:49:42.006Z</time></trkpt><trkpt lat="42.67474260227918" lon="12.674736356993467"><ele>750.7142857142858</ele><time>2026-04-11T13:49:45.006Z</time></trkpt><trkpt lat="42.674791084671895" lon="12.674676209272917"><ele>749.8571428571429</ele><time>2026-04-11T13:49:53.006Z</time></trkpt><trkpt lat="42.67485302047876" lon="12.674725284693363"><ele>749.0</ele><time>2026-04-11T13:49:55.006Z</time></trkpt><trkpt lat="42.67491769866798" lon="12.674786692973024"><ele>749.0</ele><time>2026-04-11T13:49:57.006Z</time></trkpt><trkpt lat="42.67501131486339" lon="12.674809579131663"><ele>749.0</ele><time>2026-04-11T13:49:59.006Z</time></trkpt><trkpt lat="42.6750858853322" lon="12.674813960910496"><ele>749.0</ele><time>2026-04-11T13:50:00.006Z</time></trkpt><trkpt lat="42.6751933158602" lon="12.674825844401317"><ele>749.0</ele><time>2026-04-11T13:50:02.006Z</time></trkpt><trkpt lat="42.675309765086645" lon="12.674866434258961"><ele>749.0</ele><time>2026-04-11T13:50:04.006Z</time></trkpt><trkpt lat="42.67542187931268" lon="12.674927501644875"><ele>746.0</ele><time>2026-04-11T13:50:06.006Z</time></trkpt><trkpt lat="42.67552090006759" lon="12.67492958355558"><ele>743.0</ele><time>2026-04-11T13:50:08.006Z</time></trkpt><trkpt lat="42.67566015022801" lon="12.674910909255113"><ele>740.0</ele><time>2026-04-11T13:50:10.006Z</time></trkpt><trkpt lat="42.675746418074446" lon="12.674919084837775"><ele>737.0</ele><time>2026-04-11T13:50:11.006Z</time></trkpt><trkpt lat="42.67581333592054" lon="12.674954373945276"><ele>734.0</ele><time>2026-04-11T13:50:12.006Z</time></trkpt><trkpt lat="42.6758712758722" lon="12.675005815408468"><ele>734.0</ele><time>2026-04-11T13:50:13.006Z</time></trkpt><trkpt lat="42.675978355356875" lon="12.675119411668685"><ele>734.0</ele><time>2026-04-11T13:50:15.006Z</time></trkpt><trkpt lat="42.676077565946095" lon="12.67521674518176"><ele>734.0</ele><time>2026-04-11T13:50:17.006Z</time></trkpt><trkpt lat="42.6761680354597" lon="12.675291920025764"><ele>734.0</ele><time>2026-04-11T13:50:19.006Z</time></trkpt><trkpt lat="42.67625508943053" lon="12.67537645895657"><ele>730.6666666666666</ele><time>2026-04-11T13:50:21.006Z</time></trkpt><trkpt lat="42.67629412015327" lon="12.675490338020207"><ele>727.3333333333333</ele><time>2026-04-11T13:50:23.006Z</time></trkpt><trkpt lat="42.67631387473054" lon="12.675619295532448"><ele>724.0</ele><time>2026-04-11T13:50:25.006Z</time></trkpt><trkpt lat="42.676323747868516" lon="12.675727789906013"><ele>720.6666666666666</ele><time>2026-04-11T13:50:27.006Z</time></trkpt><trkpt lat="42.67631029090676" lon="12.675825810449965"><ele>717.3333333333334</ele><time>2026-04-11T13:50:28.006Z</time></trkpt><trkpt lat="42.676302649972044" lon="12.675933548592273"><ele>714.0</ele><time>2026-04-11T13:50:29.006Z</time></trkpt><trkpt lat="42.67625909152208" lon="12.67600753022234"><ele>711.5</ele><time>2026-04-11T13:50:30.006Z</time></trkpt><trkpt lat="42.67623845468479" lon="12.67610445451737"><ele>709.0</ele><time>2026-04-11T13:50:31.006Z</time></trkpt><trkpt lat="42.67622997995139" lon="12.676219448863828"><ele>706.5</ele><time>2026-04-11T13:50:33.006Z</time></trkpt><trkpt lat="42.6762599028962" lon="12.676323231553763"><ele>704.0</ele><time>2026-04-11T13:50:35.006Z</time></trkpt><trkpt lat="42.676278287891535" lon="12.676479803895253"><ele>701.5</ele><time>2026-04-11T13:50:37.006Z</time></trkpt><trkpt lat="42.676293161283084" lon="12.67659196961131"><ele>699.0</ele><time>2026-04-11T13:50:38.006Z</time></trkpt><trkpt lat="42.67630838126361" lon="12.676700725490146"><ele>699.0</ele><time>2026-04-11T13:50:39.006Z</time></trkpt><trkpt lat="42.67633346179541" lon="12.676828811404853"><ele>699.0</ele><time>2026-04-11T13:50:40.006Z</time></trkpt><trkpt lat="42.676343937087275" lon="12.676951655749123"><ele>699.0</ele><time>2026-04-11T13:50:41.006Z</time></trkpt><trkpt lat="42.676355096541094" lon="12.677069356220104"><ele>699.0</ele><time>2026-04-11T13:50:42.006Z</time></trkpt><trkpt lat="42.676378890910094" lon="12.677178135764548"><ele>699.0</ele><time>2026-04-11T13:50:43.006Z</time></trkpt><trkpt lat="42.67639724038061" lon="12.677274999554237"><ele>699.0</ele><time>2026-04-11T13:50:44.006Z</time></trkpt><trkpt lat="42.676438836001495" lon="12.677350031538145"><ele>697.8000000000001</ele><time>2026-04-11T13:50:45.006Z</time></trkpt><trkpt lat="42.67648631182967" lon="12.677495949934068"><ele>696.6</ele><time>2026-04-11T13:50:47.006Z</time></trkpt><trkpt lat="42.676512492907044" lon="12.677582993070324"><ele>695.4</ele><time>2026-04-11T13:50:48.006Z</time></trkpt><trkpt lat="42.67653521840181" lon="12.67767211255556"><ele>694.2</ele><time>2026-04-11T13:50:49.006Z</time></trkpt><trkpt lat="42.67657111081091" lon="12.677765401592266"><ele>693.0</ele><time>2026-04-11T13:50:50.006Z</time></trkpt><trkpt lat="42.67661889387848" lon="12.677920194732257"><ele>692.6666666666666</ele><time>2026-04-11T13:50:52.007Z</time></trkpt><trkpt lat="42.6766391495926" lon="12.678014634841368"><ele>692.3333333333334</ele><time>2026-04-11T13:50:53.007Z</time></trkpt><trkpt lat="42.67665247126154" lon="12.678111601659017"><ele>692.0</ele><time>2026-04-11T13:50:54.007Z</time></trkpt><trkpt lat="42.676673641061605" lon="12.678237881577449"><ele>691.6666666666667</ele><time>2026-04-11T13:50:55.007Z</time></trkpt><trkpt lat="42.676666780354196" lon="12.678333434989888"><ele>691.3333333333334</ele><time>2026-04-11T13:50:56.007Z</time></trkpt><trkpt lat="42.67668243252466" lon="12.67844710406336"><ele>691.0</ele><time>2026-04-11T13:50:57.007Z</time></trkpt><trkpt lat="42.67670712524311" lon="12.67856338216876"><ele>690.3333333333334</ele><time>2026-04-11T13:50:58.007Z</time></trkpt><trkpt lat="42.67673849052457" lon="12.678654286416467"><ele>689.6666666666667</ele><time>2026-04-11T13:50:59.007Z</time></trkpt><trkpt lat="42.676766768413465" lon="12.678766328251024"><ele>689.0</ele><time>2026-04-11T13:51:00.007Z</time></trkpt><trkpt lat="42.67678256362313" lon="12.678860326018981"><ele>688.3333333333334</ele><time>2026-04-11T13:51:01.007Z</time></trkpt><trkpt lat="42.676799084363246" lon="12.67896434287437"><ele>687.6666666666666</ele><time>2026-04-11T13:51:02.007Z</time></trkpt><trkpt lat="42.676829198951914" lon="12.679067776210497"><ele>687.0</ele><time>2026-04-11T13:51:03.007Z</time></trkpt><trkpt lat="42.67685618698134" lon="12.679171831717445"><ele>687.0</ele><time>2026-04-11T13:51:04.007Z</time></trkpt><trkpt lat="42.6768919530321" lon="12.679261843178761"><ele>687.0</ele><time>2026-04-11T13:51:05.007Z</time></trkpt><trkpt lat="42.67690301703582" lon="12.679359303313067"><ele>687.0</ele><time>2026-04-11T13:51:06.007Z</time></trkpt><trkpt lat="42.67691296258005" lon="12.679458011453278"><ele>687.0</ele><time>2026-04-11T13:51:07.007Z</time></trkpt><trkpt lat="42.676900446711045" lon="12.679543549449594"><ele>687.0</ele><time>2026-04-11T13:51:08.007Z</time></trkpt><trkpt lat="42.67689756654427" lon="12.679651273143245"><ele>687.0</ele><time>2026-04-11T13:51:09.007Z</time></trkpt><trkpt lat="42.67684253992463" lon="12.679788233446324"><ele>683.0</ele><time>2026-04-11T13:51:11.007Z</time></trkpt><trkpt lat="42.67679324554567" lon="12.67984288781054"><ele>679.0</ele><time>2026-04-11T13:51:12.007Z</time></trkpt><trkpt lat="42.676736814369534" lon="12.679881345943075"><ele>675.0</ele><time>2026-04-11T13:51:13.007Z</time></trkpt><trkpt lat="42.676674156000594" lon="12.679917614928607"><ele>671.0</ele><time>2026-04-11T13:51:14.007Z</time></trkpt><trkpt lat="42.67658279495562" lon="12.679958384061775"><ele>667.0</ele><time>2026-04-11T13:51:15.007Z</time></trkpt><trkpt lat="42.67650400781121" lon="12.680001694618728"><ele>663.0</ele><time>2026-04-11T13:51:16.007Z</time></trkpt><trkpt lat="42.67643563921394" lon="12.680051809158261"><ele>663.0</ele><time>2026-04-11T13:51:17.007Z</time></trkpt><trkpt lat="42.67636990174734" lon="12.680104633761328"><ele>663.0</ele><time>2026-04-11T13:51:18.007Z</time></trkpt><trkpt lat="42.676317088490165" lon="12.680173737056535"><ele>663.0</ele><time>2026-04-11T13:51:19.007Z</time></trkpt><trkpt lat="42.676259368892545" lon="12.680222481863598"><ele>663.0</ele><time>2026-04-11T13:51:20.007Z</time></trkpt><trkpt lat="42.67619035733592" lon="12.680288462245066"><ele>663.0</ele><time>2026-04-11T13:51:21.007Z</time></trkpt><trkpt lat="42.6760827407364" lon="12.680357476727222"><ele>663.0</ele><time>2026-04-11T13:51:23.007Z</time></trkpt><trkpt lat="42.676013970844245" lon="12.680420589122974"><ele>663.8333333333334</ele><time>2026-04-11T13:51:24.007Z</time></trkpt><trkpt lat="42.67595803332956" lon="12.680478463687631"><ele>664.6666666666666</ele><time>2026-04-11T13:51:25.007Z</time></trkpt><trkpt lat="42.67585786245267" lon="12.680537798815921"><ele>665.5</ele><time>2026-04-11T13:51:27.007Z</time></trkpt><trkpt lat="42.67584555423437" lon="12.680632394153207"><ele>666.3333333333333</ele><time>2026-04-11T13:51:34.007Z</time></trkpt><trkpt lat="42.67592766890873" lon="12.680733705818922"><ele>667.1666666666666</ele><time>2026-04-11T13:51:37.007Z</time></trkpt><trkpt lat="42.675998363715216" lon="12.680731541689957"><ele>668.0</ele><time>2026-04-11T13:51:38.007Z</time></trkpt><trkpt lat="42.67608517994741" lon="12.68073372896303"><ele>665.2</ele><time>2026-04-11T13:51:39.007Z</time></trkpt><trkpt lat="42.67617167513074" lon="12.680759206437918"><ele>662.4</ele><time>2026-04-11T13:51:40.007Z</time></trkpt><trkpt lat="42.67627903199974" lon="12.680806583412444"><ele>659.6</ele><time>2026-04-11T13:51:41.007Z</time></trkpt><trkpt lat="42.67639708948349" lon="12.680825788733562"><ele>656.8000000000001</ele><time>2026-04-11T13:51:42.007Z</time></trkpt><trkpt lat="42.676508340453964" lon="12.680857442468229"><ele>654.0</ele><time>2026-04-11T13:51:43.007Z</time></trkpt><trkpt lat="42.676615611464015" lon="12.68088527779512"><ele>654.0</ele><time>2026-04-11T13:51:44.007Z</time></trkpt><trkpt lat="42.676692446774055" lon="12.6809211303585"><ele>654.0</ele><time>2026-04-11T13:51:45.007Z</time></trkpt><trkpt lat="42.67678048080897" lon="12.680949139609774"><ele>654.0</ele><time>2026-04-11T13:51:46.007Z</time></trkpt><trkpt lat="42.67685685903357" lon="12.68096449283926"><ele>654.0</ele><time>2026-04-11T13:51:47.007Z</time></trkpt><trkpt lat="42.676928943281176" lon="12.680991523387663"><ele>654.0</ele><time>2026-04-11T13:51:48.007Z</time></trkpt><trkpt lat="42.676976205400074" lon="12.681112182213951"><ele>654.0</ele><time>2026-04-11T13:51:50.007Z</time></trkpt><trkpt lat="42.67698679242587" lon="12.681214996228373"><ele>656.4000000000001</ele><time>2026-04-11T13:51:51.007Z</time></trkpt><trkpt lat="42.67695976133373" lon="12.681319962996607"><ele>658.8</ele><time>2026-04-11T13:51:52.007Z</time></trkpt><trkpt lat="42.676930006253464" lon="12.68146219227106"><ele>661.2</ele><time>2026-04-11T13:51:53.007Z</time></trkpt><trkpt lat="42.676905692815915" lon="12.681608696180689"><ele>663.5999999999999</ele><time>2026-04-11T13:51:54.007Z</time></trkpt><trkpt lat="42.67688086785707" lon="12.681769150410013"><ele>666.0</ele><time>2026-04-11T13:51:55.007Z</time></trkpt><trkpt lat="42.676855376361885" lon="12.68191753098154"><ele>665.4</ele><time>2026-04-11T13:51:56.007Z</time></trkpt><trkpt lat="42.676818685713975" lon="12.68206251359409"><ele>664.8</ele><time>2026-04-11T13:51:57.007Z</time></trkpt><trkpt lat="42.67679401033078" lon="12.68217581734605"><ele>664.1999999999999</ele><time>2026-04-11T13:51:58.007Z</time></trkpt><trkpt lat="42.67675198690444" lon="12.68225864644069"><ele>663.5999999999999</ele><time>2026-04-11T13:51:59.007Z</time></trkpt><trkpt lat="42.67665789271383" lon="12.682427314289537"><ele>663.0</ele><time>2026-04-11T13:52:01.007Z</time></trkpt><trkpt lat="42.6766551317243" lon="12.682597462791655"><ele>663.0</ele><time>2026-04-11T13:52:03.007Z</time></trkpt><trkpt lat="42.67670206180236" lon="12.682739332518997"><ele>663.0</ele><time>2026-04-11T13:52:04.007Z</time></trkpt><trkpt lat="42.67677379081846" lon="12.682840020374718"><ele>663.0</ele><time>2026-04-11T13:52:05.007Z</time></trkpt><trkpt lat="42.676830398985075" lon="12.682987660557448"><ele>663.0</ele><time>2026-04-11T13:52:06.007Z</time></trkpt><trkpt lat="42.67688956103914" lon="12.683144475870993"><ele>657.4</ele><time>2026-04-11T13:52:07.007Z</time></trkpt><trkpt lat="42.6769418123947" lon="12.683289656826174"><ele>651.8</ele><time>2026-04-11T13:52:08.007Z</time></trkpt><trkpt lat="42.67696754736112" lon="12.68339746267114"><ele>646.2</ele><time>2026-04-11T13:52:09.007Z</time></trkpt><trkpt lat="42.676986514568746" lon="12.683487188040157"><ele>640.6</ele><time>2026-04-11T13:52:10.007Z</time></trkpt><trkpt lat="42.677029158879904" lon="12.683625005034843"><ele>635.0</ele><time>2026-04-11T13:52:12.007Z</time></trkpt><trkpt lat="42.676971174357206" lon="12.683759257034424"><ele>639.2</ele><time>2026-04-11T13:52:14.007Z</time></trkpt><trkpt lat="42.67690841956868" lon="12.683787489994595"><ele>643.4</ele><time>2026-04-11T13:52:15.007Z</time></trkpt><trkpt lat="42.67677773318874" lon="12.683788396338262"><ele>647.5999999999999</ele><time>2026-04-11T13:52:17.007Z</time></trkpt><trkpt lat="42.67671596196844" lon="12.683807757280636"><ele>651.8</ele><time>2026-04-11T13:52:18.007Z</time></trkpt><trkpt lat="42.676620416286305" lon="12.683827627669658"><ele>656.0</ele><time>2026-04-11T13:52:20.007Z</time></trkpt><trkpt lat="42.67652823953154" lon="12.683840929869024"><ele>655.9999999999999</ele><time>2026-04-11T13:52:22.007Z</time></trkpt><trkpt lat="42.67648584572993" lon="12.683908119986807"><ele>656.0</ele><time>2026-04-11T13:52:24.007Z</time></trkpt><trkpt lat="42.67649176095361" lon="12.683995303113175"><ele>656.0</ele><time>2026-04-11T13:52:25.007Z</time></trkpt><trkpt lat="42.67657798220614" lon="12.684016971534145"><ele>656.0</ele><time>2026-04-11T13:52:27.007Z</time></trkpt><trkpt lat="42.6766512950921" lon="12.68401853250866"><ele>656.0</ele><time>2026-04-11T13:52:28.007Z</time></trkpt><trkpt lat="42.676726405480075" lon="12.68405898138739"><ele>655.9999999999999</ele><time>2026-04-11T13:52:29.007Z</time></trkpt><trkpt lat="42.676789980722084" lon="12.684108118385634"><ele>656.0</ele><time>2026-04-11T13:52:30.007Z</time></trkpt><trkpt lat="42.67685790712058" lon="12.684167724938758"><ele>656.0</ele><time>2026-04-11T13:52:31.007Z</time></trkpt><trkpt lat="42.676899744609635" lon="12.684235767754208"><ele>656.0</ele><time>2026-04-11T13:52:32.007Z</time></trkpt><trkpt lat="42.676934062329" lon="12.684314035406244"><ele>656.0</ele><time>2026-04-11T13:52:33.007Z</time></trkpt><trkpt lat="42.67697333889783" lon="12.684400128938321"><ele>656.0</ele><time>2026-04-11T13:52:34.007Z</time></trkpt><trkpt lat="42.67705274539985" lon="12.684570123095563"><ele>656.0</ele><time>2026-04-11T13:52:36.007Z</time></trkpt><trkpt lat="42.67711916027817" lon="12.684656977434495"><ele>656.0</ele><time>2026-04-11T13:52:37.007Z</time></trkpt><trkpt lat="42.67718480272912" lon="12.68472924148591"><ele>650.5999999999999</ele><time>2026-04-11T13:52:38.007Z</time></trkpt><trkpt lat="42.67723611367461" lon="12.684789418167167"><ele>645.1999999999999</ele><time>2026-04-11T13:52:39.007Z</time></trkpt><trkpt lat="42.677288465471065" lon="12.684850282436456"><ele>639.8</ele><time>2026-04-11T13:52:40.007Z</time></trkpt><trkpt lat="42.67731171636319" lon="12.684988024074816"><ele>634.4</ele><time>2026-04-11T13:52:42.007Z</time></trkpt><trkpt lat="42.677313091668424" lon="12.68518769365527"><ele>629.0</ele><time>2026-04-11T13:52:44.007Z</time></trkpt><trkpt lat="42.67729032166999" lon="12.685320745816286"><ele>629.0</ele><time>2026-04-11T13:52:45.007Z</time></trkpt><trkpt lat="42.67724305482397" lon="12.68545902871556"><ele>629.0</ele><time>2026-04-11T13:52:46.007Z</time></trkpt><trkpt lat="42.677191278196304" lon="12.685601284587898"><ele>629.0</ele><time>2026-04-11T13:52:47.007Z</time></trkpt><trkpt lat="42.677152698917645" lon="12.685756603026656"><ele>629.0</ele><time>2026-04-11T13:52:48.007Z</time></trkpt><trkpt lat="42.677140233377855" lon="12.685920217845652"><ele>629.0</ele><time>2026-04-11T13:52:49.007Z</time></trkpt><trkpt lat="42.67713157818418" lon="12.686053308116112"><ele>629.0</ele><time>2026-04-11T13:52:50.007Z</time></trkpt><trkpt lat="42.67712010293674" lon="12.686185475043196"><ele>629.0</ele><time>2026-04-11T13:52:51.007Z</time></trkpt><trkpt lat="42.677120775965264" lon="12.686285413044017"><ele>629.0</ele><time>2026-04-11T13:52:52.007Z</time></trkpt><trkpt lat="42.677137427653506" lon="12.68640475041173"><ele>629.0</ele><time>2026-04-11T13:52:53.007Z</time></trkpt><trkpt lat="42.67715237632414" lon="12.686510706727042"><ele>629.0</ele><time>2026-04-11T13:52:54.007Z</time></trkpt><trkpt lat="42.677188406544374" lon="12.68664510079822"><ele>628.5</ele><time>2026-04-11T13:52:55.007Z</time></trkpt><trkpt lat="42.67723344341591" lon="12.686780552618082"><ele>628.0</ele><time>2026-04-11T13:52:56.007Z</time></trkpt><trkpt lat="42.677303316664585" lon="12.6869197780037"><ele>627.5</ele><time>2026-04-11T13:52:57.007Z</time></trkpt><trkpt lat="42.677347782300444" lon="12.687056962175333"><ele>627.0</ele><time>2026-04-11T13:52:58.007Z</time></trkpt><trkpt lat="42.67739713664923" lon="12.687199858787187"><ele>628.8000000000001</ele><time>2026-04-11T13:52:59.007Z</time></trkpt><trkpt lat="42.677462855990704" lon="12.687318414792173"><ele>630.6</ele><time>2026-04-11T13:53:00.007Z</time></trkpt><trkpt lat="42.677515947897184" lon="12.687426331122365"><ele>632.4000000000001</ele><time>2026-04-11T13:53:01.007Z</time></trkpt><trkpt lat="42.67757292734566" lon="12.687543486528932"><ele>634.2</ele><time>2026-04-11T13:53:02.007Z</time></trkpt><trkpt lat="42.677633279341215" lon="12.687638022383767"><ele>636.0</ele><time>2026-04-11T13:53:03.007Z</time></trkpt><trkpt lat="42.67768583237318" lon="12.68771636621776"><ele>637.4</ele><time>2026-04-11T13:53:04.007Z</time></trkpt><trkpt lat="42.67771564583488" lon="12.687832580269333"><ele>638.8</ele><time>2026-04-11T13:53:06.007Z</time></trkpt><trkpt lat="42.67768155518817" lon="12.688031549491912"><ele>640.1999999999999</ele><time>2026-04-11T13:53:08.007Z</time></trkpt><trkpt lat="42.677667737038824" lon="12.688164049433649"><ele>641.6</ele><time>2026-04-11T13:53:09.007Z</time></trkpt><trkpt lat="42.67764576676053" lon="12.688296351300464"><ele>643.0</ele><time>2026-04-11T13:53:10.007Z</time></trkpt><trkpt lat="42.677632615381796" lon="12.688400171151663"><ele>643.0</ele><time>2026-04-11T13:53:11.007Z</time></trkpt><trkpt lat="42.677624772470026" lon="12.68855084670599"><ele>643.0</ele><time>2026-04-11T13:53:13.007Z</time></trkpt><trkpt lat="42.67767536692112" lon="12.688655454845284"><ele>643.0</ele><time>2026-04-11T13:53:15.007Z</time></trkpt><trkpt lat="42.677739779381" lon="12.688679677466139"><ele>643.0</ele><time>2026-04-11T13:53:16.007Z</time></trkpt><trkpt lat="42.677805838481035" lon="12.688647998811824"><ele>643.0</ele><time>2026-04-11T13:53:17.007Z</time></trkpt><trkpt lat="42.67788238825774" lon="12.68861945518204"><ele>643.0</ele><time>2026-04-11T13:53:18.007Z</time></trkpt><trkpt lat="42.677974643230215" lon="12.688613067303981"><ele>638.0</ele><time>2026-04-11T13:53:19.007Z</time></trkpt><trkpt lat="42.67804635770838" lon="12.68861996340432"><ele>633.0</ele><time>2026-04-11T13:53:20.007Z</time></trkpt><trkpt lat="42.67814260442139" lon="12.6887052862143"><ele>628.0</ele><time>2026-04-11T13:53:22.007Z</time></trkpt><trkpt lat="42.678186949878295" lon="12.688793821233231"><ele>623.0</ele><time>2026-04-11T13:53:23.008Z</time></trkpt><trkpt lat="42.67823243189377" lon="12.688907639371326"><ele>618.0</ele><time>2026-04-11T13:53:24.008Z</time></trkpt><trkpt lat="42.67824800118568" lon="12.689029173213624"><ele>618.0000000000001</ele><time>2026-04-11T13:53:25.008Z</time></trkpt><trkpt lat="42.67824333082154" lon="12.689146985797993"><ele>618.0</ele><time>2026-04-11T13:53:26.008Z</time></trkpt><trkpt lat="42.678255117246906" lon="12.689256917577213"><ele>618.0</ele><time>2026-04-11T13:53:27.008Z</time></trkpt><trkpt lat="42.678279132326765" lon="12.68934575117875"><ele>618.0</ele><time>2026-04-11T13:53:28.008Z</time></trkpt><trkpt lat="42.678287221726094" lon="12.689442259593726"><ele>618.0</ele><time>2026-04-11T13:53:29.008Z</time></trkpt><trkpt lat="42.67828927824678" lon="12.689532571619084"><ele>618.0000000000001</ele><time>2026-04-11T13:53:30.008Z</time></trkpt><trkpt lat="42.67827695868543" lon="12.689624888802632"><ele>618.0</ele><time>2026-04-11T13:53:31.008Z</time></trkpt><trkpt lat="42.678291780447694" lon="12.68979636931997"><ele>619.0</ele><time>2026-04-11T13:53:33.008Z</time></trkpt><trkpt lat="42.67832704451202" lon="12.689891005620735"><ele>620.0</ele><time>2026-04-11T13:53:34.008Z</time></trkpt><trkpt lat="42.67838623908821" lon="12.690001057999144"><ele>621.0</ele><time>2026-04-11T13:53:35.008Z</time></trkpt><trkpt lat="42.678434232594164" lon="12.690102426073574"><ele>622.0</ele><time>2026-04-11T13:53:36.008Z</time></trkpt><trkpt lat="42.67846783957468" lon="12.690201949766967"><ele>623.0</ele><time>2026-04-11T13:53:37.008Z</time></trkpt><trkpt lat="42.67850452336093" lon="12.690272417935647"><ele>624.0</ele><time>2026-04-11T13:53:38.008Z</time></trkpt><trkpt lat="42.67854786170206" lon="12.690335424168634"><ele>618.8333333333334</ele><time>2026-04-11T13:53:39.008Z</time></trkpt><trkpt lat="42.67861066549985" lon="12.690448374570158"><ele>613.6666666666666</ele><time>2026-04-11T13:53:41.008Z</time></trkpt><trkpt lat="42.67864662975401" lon="12.69052170630874"><ele>608.5</ele><time>2026-04-11T13:53:42.008Z</time></trkpt><trkpt lat="42.67869530259152" lon="12.690620940778585"><ele>603.3333333333333</ele><time>2026-04-11T13:53:43.008Z</time></trkpt><trkpt lat="42.67875356486817" lon="12.690703677556183"><ele>598.1666666666666</ele><time>2026-04-11T13:53:44.008Z</time></trkpt><trkpt lat="42.67881703713934" lon="12.690782912052184"><ele>593.0</ele><time>2026-04-11T13:53:45.008Z</time></trkpt><trkpt lat="42.678873907494726" lon="12.690854629844349"><ele>593.0</ele><time>2026-04-11T13:53:46.008Z</time></trkpt><trkpt lat="42.678921428027536" lon="12.690919350744181"><ele>593.0</ele><time>2026-04-11T13:53:47.008Z</time></trkpt><trkpt lat="42.678957613503336" lon="12.690993627067694"><ele>593.0</ele><time>2026-04-11T13:53:48.008Z</time></trkpt><trkpt lat="42.679040541401285" lon="12.69114871315578"><ele>593.0</ele><time>2026-04-11T13:53:50.008Z</time></trkpt><trkpt lat="42.679097832367546" lon="12.691228359032298"><ele>593.0</ele><time>2026-04-11T13:53:51.008Z</time></trkpt><trkpt lat="42.67916154316624" lon="12.69130393942231"><ele>593.0</ele><time>2026-04-11T13:53:52.008Z</time></trkpt><trkpt lat="42.679285706232385" lon="12.691359000969"><ele>593.1666666666666</ele><time>2026-04-11T13:53:53.008Z</time></trkpt><trkpt lat="42.679337682753655" lon="12.691412583337117"><ele>593.3333333333333</ele><time>2026-04-11T13:53:54.008Z</time></trkpt><trkpt lat="42.67941798688978" lon="12.691475404994524"><ele>593.5</ele><time>2026-04-11T13:53:56.008Z</time></trkpt><trkpt lat="42.67946481112584" lon="12.691555214694057"><ele>593.6666666666666</ele><time>2026-04-11T13:53:57.008Z</time></trkpt><trkpt lat="42.67953109051146" lon="12.691621400841544"><ele>593.8333333333334</ele><time>2026-04-11T13:53:58.008Z</time></trkpt><trkpt lat="42.67960786143592" lon="12.691682528342344"><ele>594.0</ele><time>2026-04-11T13:53:59.008Z</time></trkpt><trkpt lat="42.679721850061505" lon="12.691743626867684"><ele>591.3333333333334</ele><time>2026-04-11T13:54:00.008Z</time></trkpt><trkpt lat="42.67978432762173" lon="12.691808879066286"><ele>588.6666666666666</ele><time>2026-04-11T13:54:01.008Z</time></trkpt><trkpt lat="42.679838141674686" lon="12.69188845214357"><ele>586.0</ele><time>2026-04-11T13:54:02.008Z</time></trkpt><trkpt lat="42.67986146956244" lon="12.692014186232317"><ele>583.3333333333333</ele><time>2026-04-11T13:54:03.008Z</time></trkpt><trkpt lat="42.67989726514732" lon="12.692121903541178"><ele>580.6666666666666</ele><time>2026-04-11T13:54:04.008Z</time></trkpt><trkpt lat="42.679961040890156" lon="12.692224837764487"><ele>578.0</ele><time>2026-04-11T13:54:05.008Z</time></trkpt><trkpt lat="42.68002834211608" lon="12.692329788964042"><ele>578.0</ele><time>2026-04-11T13:54:06.008Z</time></trkpt><trkpt lat="42.680079440822524" lon="12.692406279452648"><ele>578.0</ele><time>2026-04-11T13:54:07.008Z</time></trkpt><trkpt lat="42.68014520722591" lon="12.69247542617421"><ele>578.0</ele><time>2026-04-11T13:54:08.008Z</time></trkpt><trkpt lat="42.68023792168491" lon="12.692534475731897"><ele>578.0</ele><time>2026-04-11T13:54:09.008Z</time></trkpt><trkpt lat="42.680340895200494" lon="12.692572897964586"><ele>578.0</ele><time>2026-04-11T13:54:10.008Z</time></trkpt><trkpt lat="42.680441865719665" lon="12.692593713283541"><ele>578.1999999999999</ele><time>2026-04-11T13:54:11.008Z</time></trkpt><trkpt lat="42.680547393936266" lon="12.692616559356985"><ele>578.4</ele><time>2026-04-11T13:54:12.008Z</time></trkpt><trkpt lat="42.68062473173651" lon="12.69264078462632"><ele>578.5999999999999</ele><time>2026-04-11T13:54:13.008Z</time></trkpt><trkpt lat="42.68069453570779" lon="12.692669063775277"><ele>578.8</ele><time>2026-04-11T13:54:14.008Z</time></trkpt><trkpt lat="42.680790597276875" lon="12.692715009641825"><ele>579.0</ele><time>2026-04-11T13:54:16.008Z</time></trkpt><trkpt lat="42.68087549755014" lon="12.692777462299325"><ele>578.9999999999999</ele><time>2026-04-11T13:54:18.008Z</time></trkpt><trkpt lat="42.68095310867924" lon="12.692822818383403"><ele>579.0</ele><time>2026-04-11T13:54:20.008Z</time></trkpt><trkpt lat="42.68101253120405" lon="12.692853412434587"><ele>579.0</ele><time>2026-04-11T13:54:22.008Z</time></trkpt><trkpt lat="42.68108286049607" lon="12.692907562626488"><ele>579.0</ele><time>2026-04-11T13:54:24.008Z</time></trkpt><trkpt lat="42.68113473733024" lon="12.692957549076073"><ele>579.0</ele><time>2026-04-11T13:54:25.008Z</time></trkpt><trkpt lat="42.681182675751565" lon="12.693016813507304"><ele>578.9999999999999</ele><time>2026-04-11T13:54:26.008Z</time></trkpt><trkpt lat="42.68122241905601" lon="12.693085411362878"><ele>579.0</ele><time>2026-04-11T13:54:27.008Z</time></trkpt><trkpt lat="42.68126283252792" lon="12.693187666886589"><ele>578.8</ele><time>2026-04-11T13:54:28.008Z</time></trkpt><trkpt lat="42.68130812298842" lon="12.693312911360753"><ele>578.5999999999999</ele><time>2026-04-11T13:54:29.008Z</time></trkpt><trkpt lat="42.681350526434024" lon="12.693422026813083"><ele>578.4</ele><time>2026-04-11T13:54:30.008Z</time></trkpt><trkpt lat="42.68141524155846" lon="12.693530965682738"><ele>578.1999999999999</ele><time>2026-04-11T13:54:31.008Z</time></trkpt><trkpt lat="42.681489478084636" lon="12.693656518999141"><ele>578.0</ele><time>2026-04-11T13:54:32.008Z</time></trkpt><trkpt lat="42.68159991043659" lon="12.69375120921929"><ele>578.0</ele><time>2026-04-11T13:54:33.008Z</time></trkpt><trkpt lat="42.68171815037602" lon="12.6938413528301"><ele>578.0</ele><time>2026-04-11T13:54:34.008Z</time></trkpt><trkpt lat="42.68183556959631" lon="12.693890939192261"><ele>578.0</ele><time>2026-04-11T13:54:35.008Z</time></trkpt><trkpt lat="42.68197404301235" lon="12.693939257724171"><ele>578.0</ele><time>2026-04-11T13:54:36.001Z</time></trkpt><trkpt lat="42.682127249203226" lon="12.69398411019512"><ele>573.75</ele><time>2026-04-11T13:54:37.001Z</time></trkpt><trkpt lat="42.68226467594775" lon="12.694021795145172"><ele>569.5</ele><time>2026-04-11T13:54:38.001Z</time></trkpt><trkpt lat="42.6823948204091" lon="12.694050745736362"><ele>565.25</ele><time>2026-04-11T13:54:39.001Z</time></trkpt><trkpt lat="42.68252518596614" lon="12.694052402683257"><ele>561.0</ele><time>2026-04-11T13:54:40.001Z</time></trkpt><trkpt lat="42.68262132628009" lon="12.694125133557597"><ele>561.0</ele><time>2026-04-11T13:54:42.001Z</time></trkpt><trkpt lat="42.68270971829628" lon="12.694203859886692"><ele>561.0</ele><time>2026-04-11T13:54:43.001Z</time></trkpt><trkpt lat="42.682808653269554" lon="12.69428038087943"><ele>561.0</ele><time>2026-04-11T13:54:44.001Z</time></trkpt><trkpt lat="42.68288316042808" lon="12.69435215334018"><ele>561.0</ele><time>2026-04-11T13:54:45.001Z</time></trkpt><trkpt lat="42.68295031414554" lon="12.694425851952579"><ele>561.0</ele><time>2026-04-11T13:54:46.001Z</time></trkpt><trkpt lat="42.68300853733394" lon="12.69458827019036"><ele>559.4</ele><time>2026-04-11T13:54:48.001Z</time></trkpt><trkpt lat="42.683025414357814" lon="12.69475015499415"><ele>557.8</ele><time>2026-04-11T13:54:49.001Z</time></trkpt><trkpt lat="42.68307211034676" lon="12.694858513217095"><ele>556.1999999999999</ele><time>2026-04-11T13:54:50.001Z</time></trkpt><trkpt lat="42.68313884185255" lon="12.694974639952532"><ele>554.6</ele><time>2026-04-11T13:54:51.001Z</time></trkpt><trkpt lat="42.68320289544627" lon="12.695098337673498"><ele>553.0</ele><time>2026-04-11T13:54:52.001Z</time></trkpt><trkpt lat="42.683269034421365" lon="12.695218623604399"><ele>555.0</ele><time>2026-04-11T13:54:53.001Z</time></trkpt><trkpt lat="42.68332877698996" lon="12.69533988732196"><ele>557.0</ele><time>2026-04-11T13:54:54.001Z</time></trkpt><trkpt lat="42.68338635519447" lon="12.69547005307346"><ele>559.0</ele><time>2026-04-11T13:54:55.001Z</time></trkpt><trkpt lat="42.68344266900746" lon="12.69560343421485"><ele>561.0</ele><time>2026-04-11T13:54:56.001Z</time></trkpt><trkpt lat="42.68350644776623" lon="12.695739625752376"><ele>561.0</ele><time>2026-04-11T13:54:57.001Z</time></trkpt><trkpt lat="42.68356315342225" lon="12.695868272598032"><ele>561.0</ele><time>2026-04-11T13:54:58.001Z</time></trkpt><trkpt lat="42.68361361208992" lon="12.69601222879839"><ele>561.0</ele><time>2026-04-11T13:54:59.001Z</time></trkpt><trkpt lat="42.68366498544966" lon="12.696128646147143"><ele>561.0</ele><time>2026-04-11T13:55:00.001Z</time></trkpt><trkpt lat="42.683739821065245" lon="12.696227971284696"><ele>561.0</ele><time>2026-04-11T13:55:01.001Z</time></trkpt><trkpt lat="42.683801172871455" lon="12.69631317697496"><ele>557.6666666666666</ele><time>2026-04-11T13:55:02.001Z</time></trkpt><trkpt lat="42.683853676932415" lon="12.696396865346525"><ele>554.3333333333334</ele><time>2026-04-11T13:55:03.001Z</time></trkpt><trkpt lat="42.68390942045647" lon="12.696481393375732"><ele>551.0</ele><time>2026-04-11T13:55:04.001Z</time></trkpt><trkpt lat="42.68397164531059" lon="12.696562530458642"><ele>547.6666666666667</ele><time>2026-04-11T13:55:05.001Z</time></trkpt><trkpt lat="42.68402737548224" lon="12.696635683471058"><ele>544.3333333333334</ele><time>2026-04-11T13:55:06.001Z</time></trkpt><trkpt lat="42.68407926061053" lon="12.696714186328473"><ele>541.0</ele><time>2026-04-11T13:55:07.001Z</time></trkpt><trkpt lat="42.68412705014907" lon="12.69679122849367"><ele>541.0</ele><time>2026-04-11T13:55:08.001Z</time></trkpt><trkpt lat="42.68416405848133" lon="12.696895166991732"><ele>541.0</ele><time>2026-04-11T13:55:09.001Z</time></trkpt><trkpt lat="42.68419880062444" lon="12.696994773809124"><ele>541.0</ele><time>2026-04-11T13:55:10.001Z</time></trkpt><trkpt lat="42.684249580873214" lon="12.697049413979066"><ele>541.0</ele><time>2026-04-11T13:55:11.001Z</time></trkpt><trkpt lat="42.684308289752714" lon="12.697132546291998"><ele>541.0</ele><time>2026-04-11T13:55:12.001Z</time></trkpt><trkpt lat="42.68436210535283" lon="12.697217759857905"><ele>541.0</ele><time>2026-04-11T13:55:13.001Z</time></trkpt><trkpt lat="42.684420939486806" lon="12.69729916541733"><ele>539.4</ele><time>2026-04-11T13:55:14.001Z</time></trkpt><trkpt lat="42.68449220219634" lon="12.697364301566934"><ele>537.8</ele><time>2026-04-11T13:55:15.001Z</time></trkpt><trkpt lat="42.68460208095681" lon="12.69745468052284"><ele>536.1999999999999</ele><time>2026-04-11T13:55:17.001Z</time></trkpt><trkpt lat="42.68468649848996" lon="12.697477428792569"><ele>534.6</ele><time>2026-04-11T13:55:18.001Z</time></trkpt><trkpt lat="42.68477010385123" lon="12.697463793352666"><ele>533.0</ele><time>2026-04-11T13:55:19.001Z</time></trkpt><trkpt lat="42.68487686559523" lon="12.697409589736573"><ele>533.0</ele><time>2026-04-11T13:55:20.001Z</time></trkpt><trkpt lat="42.68495568453866" lon="12.697369110216387"><ele>533.0</ele><time>2026-04-11T13:55:21.001Z</time></trkpt><trkpt lat="42.68503980636444" lon="12.697339072489408"><ele>533.0</ele><time>2026-04-11T13:55:22.001Z</time></trkpt><trkpt lat="42.68511715319637" lon="12.697326214455842"><ele>533.0</ele><time>2026-04-11T13:55:23Z</time></trkpt><trkpt lat="42.68521822634638" lon="12.697321968989048"><ele>533.0</ele><time>2026-04-11T13:55:24Z</time></trkpt><trkpt lat="42.68533033918553" lon="12.69732574832832"><ele>531.1666666666666</ele><time>2026-04-11T13:55:26Z</time></trkpt><trkpt lat="42.685394130038055" lon="12.697354897804937"><ele>529.3333333333333</ele><time>2026-04-11T13:55:27Z</time></trkpt><trkpt lat="42.685454831667336" lon="12.697400551896889"><ele>527.5</ele><time>2026-04-11T13:55:28Z</time></trkpt><trkpt lat="42.68552445111148" lon="12.697436825890616"><ele>525.6666666666666</ele><time>2026-04-11T13:55:29Z</time></trkpt><trkpt lat="42.68562293087234" lon="12.697527342141285"><ele>523.8333333333334</ele><time>2026-04-11T13:55:31Z</time></trkpt><trkpt lat="42.68568666200502" lon="12.69758617729167"><ele>522.0</ele><time>2026-04-11T13:55:32Z</time></trkpt><trkpt lat="42.68572844518583" lon="12.697656703237149"><ele>522.0</ele><time>2026-04-11T13:55:33Z</time></trkpt><trkpt lat="42.685776147272875" lon="12.697732509385038"><ele>522.0</ele><time>2026-04-11T13:55:34Z</time></trkpt><trkpt lat="42.68581909183137" lon="12.697811443050933"><ele>522.0</ele><time>2026-04-11T13:55:35Z</time></trkpt><trkpt lat="42.68585319180585" lon="12.69788771425802"><ele>522.0</ele><time>2026-04-11T13:55:36Z</time></trkpt><trkpt lat="42.68588534841893" lon="12.697968394085953"><ele>522.0</ele><time>2026-04-11T13:55:37Z</time></trkpt><trkpt lat="42.68590452377164" lon="12.698070704839523"><ele>522.0</ele><time>2026-04-11T13:55:38Z</time></trkpt><trkpt lat="42.68592838017305" lon="12.69823284294576"><ele>521.6</ele><time>2026-04-11T13:55:40Z</time></trkpt><trkpt lat="42.68602454116961" lon="12.698309275091617"><ele>521.2</ele><time>2026-04-11T13:55:42Z</time></trkpt><trkpt lat="42.686121392294304" lon="12.698392587538402"><ele>520.8</ele><time>2026-04-11T13:55:44Z</time></trkpt><trkpt lat="42.68621136030355" lon="12.698453025316674"><ele>520.4</ele><time>2026-04-11T13:55:45Z</time></trkpt><trkpt lat="42.686295860740756" lon="12.698489145981739"><ele>520.0</ele><time>2026-04-11T13:55:46Z</time></trkpt><trkpt lat="42.68636525860049" lon="12.698544869313974"><ele>518.4</ele><time>2026-04-11T13:55:47Z</time></trkpt><trkpt lat="42.6864476194156" lon="12.698618236835523"><ele>516.8</ele><time>2026-04-11T13:55:48Z</time></trkpt><trkpt lat="42.68652670360427" lon="12.69870592640009"><ele>515.2</ele><time>2026-04-11T13:55:49Z</time></trkpt><trkpt lat="42.68659225559965" lon="12.698799092931093"><ele>513.6</ele><time>2026-04-11T13:55:50Z</time></trkpt><trkpt lat="42.686652595668804" lon="12.698887995257225"><ele>512.0</ele><time>2026-04-11T13:55:51Z</time></trkpt><trkpt lat="42.68671641865823" lon="12.698961645763717"><ele>511.99999999999994</ele><time>2026-04-11T13:55:52Z</time></trkpt><trkpt lat="42.68678151138231" lon="12.699027422945464"><ele>512.0</ele><time>2026-04-11T13:55:53Z</time></trkpt><trkpt lat="42.68683450343288" lon="12.699081971946441"><ele>512.0</ele><time>2026-04-11T13:55:54Z</time></trkpt><trkpt lat="42.68694000402277" lon="12.699125266833816"><ele>512.0</ele><time>2026-04-11T13:55:56Z</time></trkpt><trkpt lat="42.68700952431029" lon="12.699108955737568"><ele>511.99999999999994</ele><time>2026-04-11T13:55:57Z</time></trkpt><trkpt lat="42.68707708002599" lon="12.699084623817894"><ele>512.0</ele><time>2026-04-11T13:55:58Z</time></trkpt><trkpt lat="42.68714237102098" lon="12.699107005522237"><ele>513.0</ele><time>2026-04-11T13:55:59Z</time></trkpt><trkpt lat="42.68722973198094" lon="12.699168659592234"><ele>514.0</ele><time>2026-04-11T13:56:00Z</time></trkpt><trkpt lat="42.6873109931846" lon="12.699241474120605"><ele>515.0</ele><time>2026-04-11T13:56:01Z</time></trkpt><trkpt lat="42.687392600781465" lon="12.69932180146266"><ele>516.0</ele><time>2026-04-11T13:56:02Z</time></trkpt><trkpt lat="42.687436653343696" lon="12.69938332817478"><ele>517.0</ele><time>2026-04-11T13:56:03Z</time></trkpt><trkpt lat="42.68750193132855" lon="12.699445850489937"><ele>518.0</ele><time>2026-04-11T13:56:05.001Z</time></trkpt><trkpt lat="42.687534198889566" lon="12.699533021397762"><ele>515.8333333333333</ele><time>2026-04-11T13:56:37.001Z</time></trkpt><trkpt lat="42.68749383642224" lon="12.69962463132458"><ele>513.6666666666666</ele><time>2026-04-11T13:56:40.001Z</time></trkpt><trkpt lat="42.68748862048582" lon="12.69972530178746"><ele>511.5</ele><time>2026-04-11T13:56:43.001Z</time></trkpt><trkpt lat="42.68751855936772" lon="12.699805225564782"><ele>509.33333333333337</ele><time>2026-04-11T13:56:46.001Z</time></trkpt><trkpt lat="42.687591123122196" lon="12.699853012570808"><ele>507.1666666666667</ele><time>2026-04-11T13:56:49.001Z</time></trkpt><trkpt lat="42.68767509469398" lon="12.699861853880602"><ele>505.0</ele><time>2026-04-11T13:56:51.001Z</time></trkpt><trkpt lat="42.687786752025985" lon="12.699886644869775"><ele>505.0</ele><time>2026-04-11T13:56:53.001Z</time></trkpt><trkpt lat="42.68784665297489" lon="12.69994302417232"><ele>504.99999999999994</ele><time>2026-04-11T13:56:54.001Z</time></trkpt><trkpt lat="42.687908846564525" lon="12.700029242155637"><ele>505.0</ele><time>2026-04-11T13:56:55.001Z</time></trkpt><trkpt lat="42.68796014132738" lon="12.700094415070586"><ele>505.0</ele><time>2026-04-11T13:56:56.001Z</time></trkpt><trkpt lat="42.68800955047479" lon="12.700147635462006"><ele>504.99999999999994</ele><time>2026-04-11T13:56:57.001Z</time></trkpt><trkpt lat="42.68806512481416" lon="12.70020417803955"><ele>505.0</ele><time>2026-04-11T13:56:58.001Z</time></trkpt><trkpt lat="42.68811224909934" lon="12.70027574640673"><ele>505.0</ele><time>2026-04-11T13:56:59.001Z</time></trkpt><trkpt lat="42.68816183137345" lon="12.700358626129015"><ele>505.0</ele><time>2026-04-11T13:57:00.001Z</time></trkpt><trkpt lat="42.688224796029374" lon="12.70044775360448"><ele>505.0</ele><time>2026-04-11T13:57:01.001Z</time></trkpt><trkpt lat="42.6882896116835" lon="12.700531660601971"><ele>505.0</ele><time>2026-04-11T13:57:02.001Z</time></trkpt><trkpt lat="42.68835766608502" lon="12.700620438998365"><ele>505.0</ele><time>2026-04-11T13:57:03.001Z</time></trkpt><trkpt lat="42.68842625626771" lon="12.700703595290289"><ele>505.0</ele><time>2026-04-11T13:57:04.001Z</time></trkpt><trkpt lat="42.68849878799591" lon="12.700764652323814"><ele>505.00000000000006</ele><time>2026-04-11T13:57:05.001Z</time></trkpt><trkpt lat="42.68857361354906" lon="12.700812297753188"><ele>505.0</ele><time>2026-04-11T13:57:06.001Z</time></trkpt><trkpt lat="42.68864001499378" lon="12.700857408215583"><ele>505.0</ele><time>2026-04-11T13:57:07.001Z</time></trkpt><trkpt lat="42.688703983454126" lon="12.7009174094729"><ele>505.0</ele><time>2026-04-11T13:57:09.001Z</time></trkpt><trkpt lat="42.688762234121114" lon="12.701007181587093"><ele>505.00000000000006</ele><time>2026-04-11T13:57:32Z</time></trkpt><trkpt lat="42.68869777038988" lon="12.701079084800549"><ele>505.0</ele><time>2026-04-11T13:57:35Z</time></trkpt><trkpt lat="42.6886440696916" lon="12.701237120853655"><ele>505.4</ele><time>2026-04-11T13:57:37Z</time></trkpt><trkpt lat="42.68861024032847" lon="12.701324649167317"><ele>505.8</ele><time>2026-04-11T13:57:38Z</time></trkpt><trkpt lat="42.68856977248867" lon="12.701421226726605"><ele>506.20000000000005</ele><time>2026-04-11T13:57:39Z</time></trkpt><trkpt lat="42.688532106487706" lon="12.70151373227211"><ele>506.6</ele><time>2026-04-11T13:57:40Z</time></trkpt><trkpt lat="42.688460304787945" lon="12.7016243846602"><ele>507.0</ele><time>2026-04-11T13:57:41.999Z</time></trkpt><trkpt lat="42.68835134294293" lon="12.701696962012686"><ele>509.0</ele><time>2026-04-11T13:57:43.999Z</time></trkpt><trkpt lat="42.68822773715974" lon="12.701670486258768"><ele>511.0</ele><time>2026-04-11T13:57:45.999Z</time></trkpt><trkpt lat="42.688158459085244" lon="12.701615248680124"><ele>513.0</ele><time>2026-04-11T13:57:46.999Z</time></trkpt><trkpt lat="42.688089993480126" lon="12.701518079783941"><ele>515.0</ele><time>2026-04-11T13:57:48.999Z</time></trkpt><trkpt lat="42.68803244736847" lon="12.701473091460246"><ele>517.0</ele><time>2026-04-11T13:57:56.999Z</time></trkpt><trkpt lat="42.68797145336514" lon="12.701527962454447"><ele>519.0</ele><time>2026-04-11T13:57:58.999Z</time></trkpt><trkpt lat="42.68795369382026" lon="12.701683807639943"><ele>519.0</ele><time>2026-04-11T13:58:00.999Z</time></trkpt><trkpt lat="42.687926621338164" lon="12.701787509313352"><ele>519.0</ele><time>2026-04-11T13:58:02Z</time></trkpt><trkpt lat="42.687919659882475" lon="12.701885509542295"><ele>519.0</ele><time>2026-04-11T13:58:03Z</time></trkpt><trkpt lat="42.68791562701087" lon="12.70203485861208"><ele>519.0</ele><time>2026-04-11T13:58:05Z</time></trkpt><trkpt lat="42.68787476217337" lon="12.702197302162357"><ele>519.0</ele><time>2026-04-11T13:58:07Z</time></trkpt><trkpt lat="42.687831502095584" lon="12.702349990168468"><ele>521.1666666666666</ele><time>2026-04-11T13:58:09Z</time></trkpt><trkpt lat="42.68781803125626" lon="12.702451816007635"><ele>523.3333333333334</ele><time>2026-04-11T13:58:10Z</time></trkpt><trkpt lat="42.68780764788797" lon="12.702545238972604"><ele>525.5</ele><time>2026-04-11T13:58:11Z</time></trkpt><trkpt lat="42.687793522116934" lon="12.702646223716803"><ele>527.6666666666667</ele><time>2026-04-11T13:58:12Z</time></trkpt><trkpt lat="42.68780381745117" lon="12.702817243980874"><ele>529.8333333333334</ele><time>2026-04-11T13:58:14Z</time></trkpt><trkpt lat="42.68779709601962" lon="12.702922392241923"><ele>532.0</ele><time>2026-04-11T13:58:15Z</time></trkpt><trkpt lat="42.68780868438227" lon="12.70302275268804"><ele>535.8333333333334</ele><time>2026-04-11T13:58:16Z</time></trkpt><trkpt lat="42.68782193454412" lon="12.703114750613507"><ele>539.6666666666667</ele><time>2026-04-11T13:58:17Z</time></trkpt><trkpt lat="42.68788958577121" lon="12.703203433497432"><ele>543.5</ele><time>2026-04-11T13:58:19Z</time></trkpt><trkpt lat="42.68794480840903" lon="12.703259303246005"><ele>547.3333333333334</ele><time>2026-04-11T13:58:20Z</time></trkpt><trkpt lat="42.68798734537667" lon="12.703345211077718"><ele>551.1666666666666</ele><time>2026-04-11T13:58:22Z</time></trkpt><trkpt lat="42.6880605904386" lon="12.703369327098251"><ele>555.0</ele><time>2026-04-11T13:58:25Z</time></trkpt><trkpt lat="42.68807017758161" lon="12.703476301939242"><ele>555.0</ele><time>2026-04-11T13:58:28Z</time></trkpt><trkpt lat="42.68799449389697" lon="12.703537986608994"><ele>555.0</ele><time>2026-04-11T13:58:30Z</time></trkpt><trkpt lat="42.687946458649584" lon="12.703607372289294"><ele>555.0</ele><time>2026-04-11T13:58:32Z</time></trkpt><trkpt lat="42.68789205365002" lon="12.703679471159798"><ele>555.0</ele><time>2026-04-11T13:58:34Z</time></trkpt><trkpt lat="42.687919912858696" lon="12.703759939187188"><ele>555.0</ele><time>2026-04-11T13:58:36Z</time></trkpt><trkpt lat="42.68805222636507" lon="12.703773710677437"><ele>555.0</ele><time>2026-04-11T13:58:39Z</time></trkpt><trkpt lat="42.68813897901014" lon="12.703760231983038"><ele>559.6666666666666</ele><time>2026-04-11T13:58:41Z</time></trkpt><trkpt lat="42.68822838398412" lon="12.703763950133448"><ele>564.3333333333334</ele><time>2026-04-11T13:58:43Z</time></trkpt><trkpt lat="42.688315207385415" lon="12.703765178910093"><ele>569.0</ele><time>2026-04-11T13:58:45Z</time></trkpt><trkpt lat="42.68839803689794" lon="12.70384995185864"><ele>573.6666666666667</ele><time>2026-04-11T13:58:48Z</time></trkpt><trkpt lat="42.688387192376155" lon="12.703940378826742"><ele>578.3333333333334</ele><time>2026-04-11T13:58:50Z</time></trkpt><trkpt lat="42.688309709761796" lon="12.703979971556207"><ele>583.0</ele><time>2026-04-11T13:58:52Z</time></trkpt><trkpt lat="42.68826653868492" lon="12.704044525646564"><ele>583.0</ele><time>2026-04-11T13:58:54Z</time></trkpt><trkpt lat="42.68822082741147" lon="12.704120234778731"><ele>583.0</ele><time>2026-04-11T13:58:56Z</time></trkpt><trkpt lat="42.68816055793383" lon="12.704228079562355"><ele>583.0</ele><time>2026-04-11T13:58:59Z</time></trkpt><trkpt lat="42.6881006202877" lon="12.704288063560972"><ele>583.0</ele><time>2026-04-11T13:59:01Z</time></trkpt><trkpt lat="42.688038132375375" lon="12.704342472455032"><ele>583.0</ele><time>2026-04-11T13:59:03Z</time></trkpt><trkpt lat="42.68796357159032" lon="12.704419772333274"><ele>583.0</ele><time>2026-04-11T13:59:05Z</time></trkpt><trkpt lat="42.68790069982859" lon="12.704476608557005"><ele>588.5</ele><time>2026-04-11T13:59:07Z</time></trkpt><trkpt lat="42.687846374823785" lon="12.704524355749424"><ele>594.0</ele><time>2026-04-11T13:59:08Z</time></trkpt><trkpt lat="42.68778907344272" lon="12.704569962790162"><ele>599.5</ele><time>2026-04-11T13:59:09Z</time></trkpt><trkpt lat="42.68772931065124" lon="12.704607670132944"><ele>605.0</ele><time>2026-04-11T13:59:10Z</time></trkpt><trkpt lat="42.68764645737541" lon="12.7046764149343"><ele>610.5</ele><time>2026-04-11T13:59:12Z</time></trkpt><trkpt lat="42.687572093987754" lon="12.704719678462684"><ele>616.0</ele><time>2026-04-11T13:59:14Z</time></trkpt><trkpt lat="42.68746522591912" lon="12.704783982756675"><ele>616.0</ele><time>2026-04-11T13:59:16Z</time></trkpt><trkpt lat="42.68736035622683" lon="12.704824234839775"><ele>616.0</ele><time>2026-04-11T13:59:18Z</time></trkpt><trkpt lat="42.68728447983517" lon="12.704845618119005"><ele>616.0</ele><time>2026-04-11T13:59:20Z</time></trkpt><trkpt lat="42.687195142145534" lon="12.704901975610108"><ele>616.0</ele><time>2026-04-11T13:59:22Z</time></trkpt><trkpt lat="42.68709908859452" lon="12.70494667485347"><ele>616.0</ele><time>2026-04-11T13:59:24Z</time></trkpt><trkpt lat="42.687017309524876" lon="12.705006484017327"><ele>616.0</ele><time>2026-04-11T13:59:26Z</time></trkpt><trkpt lat="42.686959026908745" lon="12.70506927933595"><ele>616.0</ele><time>2026-04-11T13:59:29Z</time></trkpt><trkpt lat="42.686891673852536" lon="12.705234755591647"><ele>616.0</ele><time>2026-04-11T13:59:53Z</time></trkpt><trkpt lat="42.68689311794283" lon="12.70534676262156"><ele>616.0</ele><time>2026-04-11T13:59:57Z</time></trkpt><trkpt lat="42.68692359048778" lon="12.70543209672569"><ele>616.0</ele><time>2026-04-11T14:00:00Z</time></trkpt><trkpt lat="42.68693865681554" lon="12.705540414932653"><ele>616.0</ele><time>2026-04-11T14:00:04Z</time></trkpt><trkpt lat="42.68697570789842" lon="12.70563869487582"><ele>617.4</ele><time>2026-04-11T14:00:06Z</time></trkpt><trkpt lat="42.68699786144256" lon="12.705757366617275"><ele>618.8</ele><time>2026-04-11T14:00:09Z</time></trkpt><trkpt lat="42.6870146893017" lon="12.705844222384867"><ele>620.1999999999999</ele><time>2026-04-11T14:00:11Z</time></trkpt><trkpt lat="42.68707196021134" lon="12.705928913879976"><ele>621.6</ele><time>2026-04-11T14:00:13Z</time></trkpt><trkpt lat="42.68712603556581" lon="12.706049336044037"><ele>623.0</ele><time>2026-04-11T14:00:15Z</time></trkpt><trkpt lat="42.68716673293937" lon="12.706191099552042"><ele>623.0</ele><time>2026-04-11T14:00:17Z</time></trkpt><trkpt lat="42.687196304251124" lon="12.706287989101632"><ele>623.0</ele><time>2026-04-11T14:00:18Z</time></trkpt><trkpt lat="42.68722061525936" lon="12.706383245547753"><ele>623.0</ele><time>2026-04-11T14:00:19Z</time></trkpt><trkpt lat="42.68726453534675" lon="12.70645301704302"><ele>623.0</ele><time>2026-04-11T14:00:20Z</time></trkpt><trkpt lat="42.68730860350385" lon="12.706540199261378"><ele>623.0</ele><time>2026-04-11T14:00:21Z</time></trkpt><trkpt lat="42.687326658006285" lon="12.706635923007243"><ele>623.0</ele><time>2026-04-11T14:00:22Z</time></trkpt><trkpt lat="42.687362328042035" lon="12.706787196573977"><ele>623.0</ele><time>2026-04-11T14:00:24Z</time></trkpt><trkpt lat="42.68738806930251" lon="12.706866602141968"><ele>623.0</ele><time>2026-04-11T14:00:25Z</time></trkpt><trkpt lat="42.68741680531671" lon="12.706953597093666"><ele>623.0</ele><time>2026-04-11T14:00:26Z</time></trkpt><trkpt lat="42.687487767367365" lon="12.707097643820333"><ele>623.0</ele><time>2026-04-11T14:00:28Z</time></trkpt><trkpt lat="42.68750583365958" lon="12.707180090962666"><ele>623.0</ele><time>2026-04-11T14:00:29Z</time></trkpt><trkpt lat="42.68752818555355" lon="12.707261989061822"><ele>623.0</ele><time>2026-04-11T14:00:30Z</time></trkpt><trkpt lat="42.687566802175624" lon="12.707329855532938"><ele>621.0</ele><time>2026-04-11T14:00:31Z</time></trkpt><trkpt lat="42.68760768644347" lon="12.707395596685064"><ele>619.0</ele><time>2026-04-11T14:00:32Z</time></trkpt><trkpt lat="42.687650478573396" lon="12.707540345069164"><ele>617.0</ele><time>2026-04-11T14:00:34Z</time></trkpt><trkpt lat="42.68771977698272" lon="12.70766160551431"><ele>615.0</ele><time>2026-04-11T14:00:36Z</time></trkpt><trkpt lat="42.687812390183495" lon="12.707771441397433"><ele>613.0</ele><time>2026-04-11T14:00:38Z</time></trkpt><trkpt lat="42.68786918042483" lon="12.707840635551424"><ele>611.1666666666667</ele><time>2026-04-11T14:00:39Z</time></trkpt><trkpt lat="42.687919928145185" lon="12.70789805220571"><ele>609.3333333333334</ele><time>2026-04-11T14:00:40Z</time></trkpt><trkpt lat="42.687967557052126" lon="12.707972943680408"><ele>607.5</ele><time>2026-04-11T14:00:41Z</time></trkpt><trkpt lat="42.68800579209241" lon="12.708042655947787"><ele>605.6666666666666</ele><time>2026-04-11T14:00:42Z</time></trkpt><trkpt lat="42.68802745639188" lon="12.708130085662365"><ele>603.8333333333333</ele><time>2026-04-11T14:00:43Z</time></trkpt><trkpt lat="42.68807178134698" lon="12.708255568482697"><ele>602.0</ele><time>2026-04-11T14:00:45Z</time></trkpt><trkpt lat="42.6881214918713" lon="12.708368755954552"><ele>602.0</ele><time>2026-04-11T14:00:47Z</time></trkpt><trkpt lat="42.68819618455879" lon="12.708430308228387"><ele>602.0</ele><time>2026-04-11T14:00:49Z</time></trkpt><trkpt lat="42.688250361128375" lon="12.70847660386388"><ele>602.0</ele><time>2026-04-11T14:00:50Z</time></trkpt><trkpt lat="42.688345923353644" lon="12.708582190393235"><ele>602.0</ele><time>2026-04-11T14:00:52Z</time></trkpt><trkpt lat="42.68839483132404" lon="12.708641145177127"><ele>602.0</ele><time>2026-04-11T14:00:53Z</time></trkpt><trkpt lat="42.68845035835122" lon="12.708721865292853"><ele>602.0</ele><time>2026-04-11T14:00:54Z</time></trkpt><trkpt lat="42.688520525536866" lon="12.708857041524544"><ele>600.2</ele><time>2026-04-11T14:00:56Z</time></trkpt><trkpt lat="42.68859880560698" lon="12.708963449586857"><ele>598.4000000000001</ele><time>2026-04-11T14:00:58Z</time></trkpt><trkpt lat="42.68866284671589" lon="12.709079264930915"><ele>596.5999999999999</ele><time>2026-04-11T14:01:00Z</time></trkpt><trkpt lat="42.68869637847359" lon="12.709152095969724"><ele>594.8</ele><time>2026-04-11T14:01:01Z</time></trkpt><trkpt lat="42.68877511122653" lon="12.709288605864753"><ele>593.0</ele><time>2026-04-11T14:01:03Z</time></trkpt><trkpt lat="42.68885518559623" lon="12.709390190473135"><ele>591.1666666666666</ele><time>2026-04-11T14:01:05Z</time></trkpt><trkpt lat="42.68890947379459" lon="12.709465200169161"><ele>589.3333333333333</ele><time>2026-04-11T14:01:06Z</time></trkpt><trkpt lat="42.68896820117157" lon="12.709529129770177"><ele>587.5</ele><time>2026-04-11T14:01:07Z</time></trkpt><trkpt lat="42.68903297699129" lon="12.70958978288251"><ele>585.6666666666666</ele><time>2026-04-11T14:01:08Z</time></trkpt><trkpt lat="42.68909443925376" lon="12.70963259590555"><ele>583.8333333333334</ele><time>2026-04-11T14:01:09Z</time></trkpt><trkpt lat="42.68921751342985" lon="12.70973670128898"><ele>582.0</ele><time>2026-04-11T14:01:11Z</time></trkpt><trkpt lat="42.68926561618905" lon="12.709795722690735"><ele>582.0</ele><time>2026-04-11T14:01:12Z</time></trkpt><trkpt lat="42.68931570878421" lon="12.70985399977717"><ele>582.0</ele><time>2026-04-11T14:01:13Z</time></trkpt><trkpt lat="42.68940629407867" lon="12.709932782016429"><ele>582.0</ele><time>2026-04-11T14:01:15Z</time></trkpt><trkpt lat="42.689468671954586" lon="12.70996765822991"><ele>582.0</ele><time>2026-04-11T14:01:16Z</time></trkpt><trkpt lat="42.689533361083726" lon="12.710003757312718"><ele>582.0</ele><time>2026-04-11T14:01:17Z</time></trkpt><trkpt lat="42.68962848152387" lon="12.710034542591263"><ele>582.0</ele><time>2026-04-11T14:01:19Z</time></trkpt><trkpt lat="42.68969165431694" lon="12.710061162920384"><ele>580.8333333333334</ele><time>2026-04-11T14:01:21Z</time></trkpt><trkpt lat="42.68976346374452" lon="12.710057444862557"><ele>579.6666666666666</ele><time>2026-04-11T14:01:23Z</time></trkpt><trkpt lat="42.68984446190524" lon="12.710046597742629"><ele>578.5</ele><time>2026-04-11T14:01:25Z</time></trkpt><trkpt lat="42.68994511764927" lon="12.71001698431258"><ele>577.3333333333333</ele><time>2026-04-11T14:01:27Z</time></trkpt><trkpt lat="42.69001478682593" lon="12.710046694918757"><ele>576.1666666666666</ele><time>2026-04-11T14:01:28Z</time></trkpt><trkpt lat="42.69011917414465" lon="12.710087940811649"><ele>575.0</ele><time>2026-04-11T14:01:30Z</time></trkpt><trkpt lat="42.690188767951135" lon="12.710155743189466"><ele>576.4</ele><time>2026-04-11T14:01:31Z</time></trkpt><trkpt lat="42.69032142263926" lon="12.710205303447818"><ele>577.8</ele><time>2026-04-11T14:01:33Z</time></trkpt><trkpt lat="42.69042948485242" lon="12.710290967554963"><ele>579.2</ele><time>2026-04-11T14:01:35Z</time></trkpt><trkpt lat="42.69050002378527" lon="12.710344925193612"><ele>580.6</ele><time>2026-04-11T14:01:36Z</time></trkpt><trkpt lat="42.690553714231825" lon="12.710413238283095"><ele>582.0</ele><time>2026-04-11T14:01:37Z</time></trkpt><trkpt lat="42.69060583480706" lon="12.710479725019509"><ele>578.0</ele><time>2026-04-11T14:01:38Z</time></trkpt><trkpt lat="42.69067106886898" lon="12.710504462487544"><ele>574.0</ele><time>2026-04-11T14:01:39Z</time></trkpt><trkpt lat="42.69077062420443" lon="12.710607673364144"><ele>570.0</ele><time>2026-04-11T14:01:40.999Z</time></trkpt><trkpt lat="42.69087570176193" lon="12.710688982046587"><ele>566.0</ele><time>2026-04-11T14:01:42.999Z</time></trkpt><trkpt lat="42.69093757385993" lon="12.71071423973286"><ele>562.0</ele><time>2026-04-11T14:01:44Z</time></trkpt><trkpt lat="42.69101104487901" lon="12.710747335538112"><ele>564.0</ele><time>2026-04-11T14:01:44.999Z</time></trkpt><trkpt lat="42.69109171015675" lon="12.710806955341178"><ele>566.0</ele><time>2026-04-11T14:01:45.999Z</time></trkpt><trkpt lat="42.6911824767308" lon="12.710873135780021"><ele>568.0</ele><time>2026-04-11T14:01:46.999Z</time></trkpt><trkpt lat="42.691240183960225" lon="12.710934465849814"><ele>570.0</ele><time>2026-04-11T14:01:47.999Z</time></trkpt><trkpt lat="42.69133742577268" lon="12.711016113023287"><ele>572.0</ele><time>2026-04-11T14:01:50Z</time></trkpt><trkpt lat="42.691394364967266" lon="12.711069880579323"><ele>569.8333333333333</ele><time>2026-04-11T14:01:50.999Z</time></trkpt><trkpt lat="42.69144335720165" lon="12.7111239114354"><ele>567.6666666666666</ele><time>2026-04-11T14:01:51.999Z</time></trkpt><trkpt lat="42.69148598497456" lon="12.711257713838739"><ele>565.5</ele><time>2026-04-11T14:01:53.999Z</time></trkpt><trkpt lat="42.69153203380235" lon="12.711317202098018"><ele>563.3333333333334</ele><time>2026-04-11T14:01:54.999Z</time></trkpt><trkpt lat="42.69157892253684" lon="12.711381475618346"><ele>561.1666666666667</ele><time>2026-04-11T14:01:55.999Z</time></trkpt><trkpt lat="42.69165325748721" lon="12.711503526970125"><ele>559.0</ele><time>2026-04-11T14:01:57.999Z</time></trkpt><trkpt lat="42.69170398064886" lon="12.711565863317885"><ele>559.0</ele><time>2026-04-11T14:01:58.999Z</time></trkpt><trkpt lat="42.691806248020924" lon="12.711694814131938"><ele>559.0</ele><time>2026-04-11T14:02:00.999Z</time></trkpt><trkpt lat="42.69187326927891" lon="12.7117897150722"><ele>559.0</ele><time>2026-04-11T14:02:01.999Z</time></trkpt><trkpt lat="42.691949666135" lon="12.711871342252362"><ele>559.0</ele><time>2026-04-11T14:02:02.999Z</time></trkpt><trkpt lat="42.69201002392011" lon="12.711971229238065"><ele>559.0</ele><time>2026-04-11T14:02:03.999Z</time></trkpt><trkpt lat="42.69206825937373" lon="12.712048580134514"><ele>557.5</ele><time>2026-04-11T14:02:04.999Z</time></trkpt><trkpt lat="42.692113366698855" lon="12.712130727289814"><ele>556.0</ele><time>2026-04-11T14:02:05.999Z</time></trkpt><trkpt lat="42.69215723163035" lon="12.712207942724369"><ele>554.5</ele><time>2026-04-11T14:02:06.999Z</time></trkpt><trkpt lat="42.69221509609425" lon="12.712287074086325"><ele>553.0</ele><time>2026-04-11T14:02:07.999Z</time></trkpt><trkpt lat="42.69227145149441" lon="12.712352077814437"><ele>551.5</ele><time>2026-04-11T14:02:08.999Z</time></trkpt><trkpt lat="42.692322237558194" lon="12.712414998329946"><ele>550.0</ele><time>2026-04-11T14:02:09.999Z</time></trkpt><trkpt lat="42.69237983537966" lon="12.712489193666379"><ele>550.0</ele><time>2026-04-11T14:02:10.999Z</time></trkpt><trkpt lat="42.69244514816944" lon="12.712580176861715"><ele>550.0</ele><time>2026-04-11T14:02:11.999Z</time></trkpt><trkpt lat="42.69249729685947" lon="12.712679800629815"><ele>550.0</ele><time>2026-04-11T14:02:12.999Z</time></trkpt><trkpt lat="42.692553684020226" lon="12.712789122384402"><ele>550.0</ele><time>2026-04-11T14:02:13.999Z</time></trkpt><trkpt lat="42.69260304560151" lon="12.712876740925562"><ele>550.0</ele><time>2026-04-11T14:02:14.999Z</time></trkpt><trkpt lat="42.69264414378793" lon="12.712960290450603"><ele>550.0</ele><time>2026-04-11T14:02:15.999Z</time></trkpt><trkpt lat="42.692680643625366" lon="12.713033739210891"><ele>550.0</ele><time>2026-04-11T14:02:16.999Z</time></trkpt><trkpt lat="42.69271432775352" lon="12.713108159168836"><ele>550.0</ele><time>2026-04-11T14:02:17.999Z</time></trkpt><trkpt lat="42.69280192728963" lon="12.71320985329725"><ele>550.0</ele><time>2026-04-11T14:02:19.999Z</time></trkpt><trkpt lat="42.69288303568681" lon="12.713303299780504"><ele>550.0</ele><time>2026-04-11T14:02:21.999Z</time></trkpt><trkpt lat="42.692944825855044" lon="12.713362396153212"><ele>550.0</ele><time>2026-04-11T14:02:22.999Z</time></trkpt><trkpt lat="42.69300913197785" lon="12.713424623194387"><ele>550.0</ele><time>2026-04-11T14:02:23.999Z</time></trkpt><trkpt lat="42.693095575625605" lon="12.713523363907507"><ele>545.8333333333334</ele><time>2026-04-11T14:02:25.999Z</time></trkpt><trkpt lat="42.693152226958034" lon="12.713588685747855"><ele>541.6666666666667</ele><time>2026-04-11T14:02:26.999Z</time></trkpt><trkpt lat="42.693204238679066" lon="12.713650268303269"><ele>537.5</ele><time>2026-04-11T14:02:27.999Z</time></trkpt><trkpt lat="42.69326792254387" lon="12.713697431762293"><ele>533.3333333333334</ele><time>2026-04-11T14:02:28.999Z</time></trkpt><trkpt lat="42.69333647205279" lon="12.713737714301669"><ele>529.1666666666666</ele><time>2026-04-11T14:02:29.999Z</time></trkpt><trkpt lat="42.69341308132831" lon="12.713844976667378"><ele>525.0</ele><time>2026-04-11T14:02:31.999Z</time></trkpt><trkpt lat="42.693480736969256" lon="12.713889660813544"><ele>525.0</ele><time>2026-04-11T14:02:32.999Z</time></trkpt><trkpt lat="42.6935604323156" lon="12.7139678272073"><ele>525.0</ele><time>2026-04-11T14:02:34.999Z</time></trkpt><trkpt lat="42.69358470313355" lon="12.714116102671348"><ele>525.0</ele><time>2026-04-11T14:02:36.999Z</time></trkpt><trkpt lat="42.69363535714045" lon="12.71416987092567"><ele>525.0</ele><time>2026-04-11T14:02:37.999Z</time></trkpt><trkpt lat="42.69370566794093" lon="12.714276605444601"><ele>525.0</ele><time>2026-04-11T14:02:39.999Z</time></trkpt><trkpt lat="42.69375410282315" lon="12.714394270634921"><ele>525.4</ele><time>2026-04-11T14:02:41.999Z</time></trkpt><trkpt lat="42.69376277824375" lon="12.71452844378911"><ele>525.8</ele><time>2026-04-11T14:02:43.999Z</time></trkpt><trkpt lat="42.69379495621731" lon="12.714639073462104"><ele>526.2</ele><time>2026-04-11T14:02:45.999Z</time></trkpt><trkpt lat="42.693829707100974" lon="12.714772903616668"><ele>526.6</ele><time>2026-04-11T14:02:47.999Z</time></trkpt><trkpt lat="42.693862287134905" lon="12.714894154567833"><ele>527.0</ele><time>2026-04-11T14:02:48.999Z</time></trkpt><trkpt lat="42.69387921196" lon="12.71499816573098"><ele>527.0</ele><time>2026-04-11T14:02:49.999Z</time></trkpt><trkpt lat="42.693889987424626" lon="12.715087948636016"><ele>527.0</ele><time>2026-04-11T14:02:50.999Z</time></trkpt><trkpt lat="42.693889775539624" lon="12.71521125280225"><ele>527.0</ele><time>2026-04-11T14:02:52.999Z</time></trkpt><trkpt lat="42.69388315062254" lon="12.715367491585432"><ele>527.0</ele><time>2026-04-11T14:02:54.999Z</time></trkpt><trkpt lat="42.69389494076207" lon="12.71546050977151"><ele>527.0</ele><time>2026-04-11T14:02:56.999Z</time></trkpt><trkpt lat="42.693926869603025" lon="12.71557008949334"><ele>527.0</ele><time>2026-04-11T14:02:58.999Z</time></trkpt><trkpt lat="42.69396639347993" lon="12.715741396311266"><ele>524.4</ele><time>2026-04-11T14:03:00.999Z</time></trkpt><trkpt lat="42.69399031307618" lon="12.715853348825775"><ele>521.8000000000001</ele><time>2026-04-11T14:03:02.999Z</time></trkpt><trkpt lat="42.694019116643446" lon="12.715955118808107"><ele>519.2</ele><time>2026-04-11T14:03:13Z</time></trkpt><trkpt lat="42.69407627425223" lon="12.716069262967933"><ele>516.6</ele><time>2026-04-11T14:03:15Z</time></trkpt><trkpt lat="42.694119399407995" lon="12.716235776616202"><ele>514.0</ele><time>2026-04-11T14:03:17Z</time></trkpt><trkpt lat="42.694119231864455" lon="12.716395732883347"><ele>512.8333333333334</ele><time>2026-04-11T14:03:19Z</time></trkpt><trkpt lat="42.69409994020236" lon="12.716541050267448"><ele>511.6666666666667</ele><time>2026-04-11T14:03:21Z</time></trkpt><trkpt lat="42.69410302509567" lon="12.716658268368635"><ele>510.5</ele><time>2026-04-11T14:03:22Z</time></trkpt><trkpt lat="42.694117925436096" lon="12.71674802693266"><ele>509.33333333333337</ele><time>2026-04-11T14:03:23Z</time></trkpt><trkpt lat="42.694138321352256" lon="12.716837577335394"><ele>508.1666666666667</ele><time>2026-04-11T14:03:24Z</time></trkpt><trkpt lat="42.694147113243226" lon="12.716987931613845"><ele>507.0</ele><time>2026-04-11T14:03:26Z</time></trkpt><trkpt lat="42.69416023585031" lon="12.717129101850944"><ele>506.0</ele><time>2026-04-11T14:03:28Z</time></trkpt><trkpt lat="42.6941805606324" lon="12.717242542140305"><ele>505.0</ele><time>2026-04-11T14:03:31Z</time></trkpt><trkpt lat="42.69420736455509" lon="12.717326841808472"><ele>504.0</ele><time>2026-04-11T14:03:34Z</time></trkpt><trkpt lat="42.69423294109785" lon="12.717408580053132"><ele>503.0</ele><time>2026-04-11T14:03:36Z</time></trkpt><trkpt lat="42.69429010871735" lon="12.71750079390305"><ele>502.0</ele><time>2026-04-11T14:03:39Z</time></trkpt><trkpt lat="42.69431305488444" lon="12.717600241996733"><ele>501.0</ele><time>2026-04-11T14:03:43Z</time></trkpt><trkpt lat="42.69430826164505" lon="12.717752894055543"><ele>498.3333333333333</ele><time>2026-04-11T14:04:04Z</time></trkpt><trkpt lat="42.69435852164745" lon="12.717815336616015"><ele>495.66666666666663</ele><time>2026-04-11T14:05:16Z</time></trkpt><trkpt lat="42.69437652059668" lon="12.71790899890367"><ele>493.0</ele><time>2026-04-11T14:05:19Z</time></trkpt><trkpt lat="42.694391220272614" lon="12.717997138899298"><ele>490.3333333333333</ele><time>2026-04-11T14:05:21Z</time></trkpt><trkpt lat="42.694393197494016" lon="12.71810320756308"><ele>487.66666666666663</ele><time>2026-04-11T14:05:23Z</time></trkpt><trkpt lat="42.694374519876646" lon="12.718219156331399"><ele>485.0</ele><time>2026-04-11T14:05:25Z</time></trkpt><trkpt lat="42.69432550703952" lon="12.718305256776162"><ele>484.99999999999994</ele><time>2026-04-11T14:05:28Z</time></trkpt><trkpt lat="42.694258747513736" lon="12.718406505379765"><ele>485.0</ele><time>2026-04-11T14:05:30Z</time></trkpt><trkpt lat="42.69421687320606" lon="12.718491193345738"><ele>485.0</ele><time>2026-04-11T14:05:32Z</time></trkpt><trkpt lat="42.694178594925624" lon="12.718585507608509"><ele>485.0</ele><time>2026-04-11T14:05:34Z</time></trkpt><trkpt lat="42.69415347421847" lon="12.718671189180261"><ele>484.99999999999994</ele><time>2026-04-11T14:05:36Z</time></trkpt><trkpt lat="42.69413449806874" lon="12.71880703581748"><ele>485.0</ele><time>2026-04-11T14:05:38Z</time></trkpt><trkpt lat="42.69410844079839" lon="12.718890583358187"><ele>483.66666666666663</ele><time>2026-04-11T14:05:40Z</time></trkpt><trkpt lat="42.69408248030356" lon="12.718974207206633"><ele>482.3333333333333</ele><time>2026-04-11T14:05:42Z</time></trkpt><trkpt lat="42.69405199947505" lon="12.719070501098875"><ele>481.0</ele><time>2026-04-11T14:05:44Z</time></trkpt><trkpt lat="42.69400197889334" lon="12.71917538712117"><ele>479.66666666666663</ele><time>2026-04-11T14:05:47Z</time></trkpt><trkpt lat="42.693966524941466" lon="12.719255944747886"><ele>478.3333333333333</ele><time>2026-04-11T14:05:51Z</time></trkpt><trkpt lat="42.693936602497" lon="12.71933932330085"><ele>477.0</ele><time>2026-04-11T14:05:55Z</time></trkpt><trkpt lat="42.693896224012924" lon="12.719447983036456"><ele>475.6666666666667</ele><time>2026-04-11T14:05:57.999Z</time></trkpt><trkpt lat="42.69385691307104" lon="12.719527882416187"><ele>474.33333333333337</ele><time>2026-04-11T14:05:59.999Z</time></trkpt><trkpt lat="42.69378600400325" lon="12.719588343813147"><ele>473.0</ele><time>2026-04-11T14:06:02.999Z</time></trkpt><trkpt lat="42.6937471103367" lon="12.719742570850208"><ele>471.6666666666667</ele><time>2026-04-11T14:06:04.999Z</time></trkpt><trkpt lat="42.693731721970224" lon="12.71983265541286"><ele>470.33333333333337</ele><time>2026-04-11T14:06:06Z</time></trkpt><trkpt lat="42.69371466417002" lon="12.719920418884405"><ele>469.0</ele><time>2026-04-11T14:06:07Z</time></trkpt><trkpt lat="42.693726539655756" lon="12.720016931956204"><ele>469.0</ele><time>2026-04-11T14:06:08Z</time></trkpt><trkpt lat="42.693779012591314" lon="12.720107289548341"><ele>469.0</ele><time>2026-04-11T14:06:09Z</time></trkpt><trkpt lat="42.69382458335285" lon="12.720225495978216"><ele>469.0</ele><time>2026-04-11T14:06:10Z</time></trkpt><trkpt lat="42.69388700076755" lon="12.720333654127781"><ele>469.0</ele><time>2026-04-11T14:06:11Z</time></trkpt><trkpt lat="42.69393339048623" lon="12.720443670704443"><ele>469.0</ele><time>2026-04-11T14:06:12Z</time></trkpt><trkpt lat="42.69397600821136" lon="12.720536648795097"><ele>468.4</ele><time>2026-04-11T14:06:13Z</time></trkpt><trkpt lat="42.69401855628781" lon="12.720631616291952"><ele>467.79999999999995</ele><time>2026-04-11T14:06:14Z</time></trkpt><trkpt lat="42.69405839170361" lon="12.720722110064193"><ele>467.20000000000005</ele><time>2026-04-11T14:06:15Z</time></trkpt><trkpt lat="42.69408223162038" lon="12.720863384638292"><ele>466.6</ele><time>2026-04-11T14:06:17Z</time></trkpt><trkpt lat="42.694082516875405" lon="12.720960100875113"><ele>466.0</ele><time>2026-04-11T14:06:18Z</time></trkpt><trkpt lat="42.69408361987701" lon="12.721157002021203"><ele>466.0</ele><time>2026-04-11T14:06:20Z</time></trkpt><trkpt lat="42.694087606727855" lon="12.7212578162109"><ele>466.0</ele><time>2026-04-11T14:06:21Z</time></trkpt><trkpt lat="42.69414451147189" lon="12.721351264895283"><ele>466.0</ele><time>2026-04-11T14:06:23Z</time></trkpt><trkpt lat="42.69425297363115" lon="12.721396359604366"><ele>466.0</ele><time>2026-04-11T14:06:25Z</time></trkpt><trkpt lat="42.69433893980592" lon="12.72141317127357"><ele>466.0</ele><time>2026-04-11T14:06:26Z</time></trkpt><trkpt lat="42.694432987248405" lon="12.721417569484794"><ele>464.20000000000005</ele><time>2026-04-11T14:06:27Z</time></trkpt><trkpt lat="42.69451453534335" lon="12.721416935900567"><ele>462.40000000000003</ele><time>2026-04-11T14:06:28Z</time></trkpt><trkpt lat="42.694599083142066" lon="12.721474233202608"><ele>460.6</ele><time>2026-04-11T14:06:30Z</time></trkpt><trkpt lat="42.694680839274085" lon="12.721477115763015"><ele>458.8</ele><time>2026-04-11T14:06:31Z</time></trkpt><trkpt lat="42.694783898570506" lon="12.721496973486863"><ele>457.0</ele><time>2026-04-11T14:06:32Z</time></trkpt><trkpt lat="42.69487558170073" lon="12.72152281154188"><ele>457.0</ele><time>2026-04-11T14:06:33Z</time></trkpt><trkpt lat="42.69496478016565" lon="12.72155903569788"><ele>457.0</ele><time>2026-04-11T14:06:34Z</time></trkpt><trkpt lat="42.69500745334403" lon="12.72191468848257"><ele>457.0</ele><time>2026-04-11T14:06:35Z</time></trkpt><trkpt lat="42.69511175417743" lon="12.721931790891777"><ele>458.5</ele><time>2026-04-11T14:06:37Z</time></trkpt><trkpt lat="42.69523569882642" lon="12.721951783448164"><ele>460.0</ele><time>2026-04-11T14:06:39Z</time></trkpt><trkpt lat="42.695283145193464" lon="12.721781774167258"><ele>461.5</ele><time>2026-04-11T14:06:44Z</time></trkpt><trkpt lat="42.69527714072697" lon="12.721907961924828"><ele>463.0</ele><time>2026-04-11T14:06:47Z</time></trkpt><trkpt lat="42.69532636944264" lon="12.722076317718322"><ele>459.75</ele><time>2026-04-11T14:06:48Z</time></trkpt><trkpt lat="42.69537928615457" lon="12.72218843657488"><ele>456.5</ele><time>2026-04-11T14:06:50Z</time></trkpt><trkpt lat="42.69550074057098" lon="12.722285307666837"><ele>453.25</ele><time>2026-04-11T14:06:52Z</time></trkpt><trkpt lat="42.69561949004556" lon="12.722307848538167"><ele>450.0</ele><time>2026-04-11T14:06:53Z</time></trkpt><trkpt lat="42.69573455319732" lon="12.722312260643008"><ele>450.0</ele><time>2026-04-11T14:06:54Z</time></trkpt><trkpt lat="42.695860934699205" lon="12.722323746458725"><ele>450.0</ele><time>2026-04-11T14:06:55Z</time></trkpt><trkpt lat="42.69600147458166" lon="12.72234432909192"><ele>450.0</ele><time>2026-04-11T14:06:56Z</time></trkpt><trkpt lat="42.696151781916015" lon="12.722356442633568"><ele>450.0</ele><time>2026-04-11T14:06:57Z</time></trkpt><trkpt lat="42.69628949096154" lon="12.72236972177809"><ele>449.5</ele><time>2026-04-11T14:06:58Z</time></trkpt><trkpt lat="42.696415972015075" lon="12.722387198890244"><ele>449.0</ele><time>2026-04-11T14:06:59Z</time></trkpt><trkpt lat="42.69654195477229" lon="12.722400057665334"><ele>448.5</ele><time>2026-04-11T14:07:00Z</time></trkpt><trkpt lat="42.696669298989406" lon="12.722417414894293"><ele>448.0</ele><time>2026-04-11T14:07:01Z</time></trkpt><trkpt lat="42.69680174245108" lon="12.722424220483385"><ele>448.5</ele><time>2026-04-11T14:07:02Z</time></trkpt><trkpt lat="42.69693171209069" lon="12.722444173926297"><ele>449.0</ele><time>2026-04-11T14:07:03Z</time></trkpt><trkpt lat="42.6970573940779" lon="12.722462038418756"><ele>449.5</ele><time>2026-04-11T14:07:04Z</time></trkpt><trkpt lat="42.69718286221381" lon="12.722479354258711"><ele>450.0</ele><time>2026-04-11T14:07:05Z</time></trkpt><trkpt lat="42.69730577388865" lon="12.722495755607959"><ele>450.0</ele><time>2026-04-11T14:07:06Z</time></trkpt><trkpt lat="42.69745116602059" lon="12.722497862429623"><ele>450.0</ele><time>2026-04-11T14:07:07Z</time></trkpt><trkpt lat="42.697580583110515" lon="12.722506597200272"><ele>450.0</ele><time>2026-04-11T14:07:08Z</time></trkpt><trkpt lat="42.697708475893364" lon="12.722519593728114"><ele>450.0</ele><time>2026-04-11T14:07:09Z</time></trkpt><trkpt lat="42.6978348010749" lon="12.722539042279266"><ele>449.6</ele><time>2026-04-11T14:07:10Z</time></trkpt><trkpt lat="42.69794742319499" lon="12.722563422343754"><ele>449.2</ele><time>2026-04-11T14:07:11Z</time></trkpt><trkpt lat="42.69804872972492" lon="12.722589302070816"><ele>448.79999999999995</ele><time>2026-04-11T14:07:12Z</time></trkpt><trkpt lat="42.698144918907325" lon="12.722624927146677"><ele>448.4</ele><time>2026-04-11T14:07:13Z</time></trkpt><trkpt lat="42.698239264402105" lon="12.72265905333168"><ele>448.0</ele><time>2026-04-11T14:07:14Z</time></trkpt><trkpt lat="42.69833050051915" lon="12.722674330518368"><ele>448.0</ele><time>2026-04-11T14:07:15Z</time></trkpt><trkpt lat="42.698432169369845" lon="12.72271116601782"><ele>447.99999999999994</ele><time>2026-04-11T14:07:16Z</time></trkpt><trkpt lat="42.69853107146968" lon="12.722748065101428"><ele>447.99999999999994</ele><time>2026-04-11T14:07:17Z</time></trkpt><trkpt lat="42.69862016454317" lon="12.722780938742824"><ele>448.0</ele><time>2026-04-11T14:07:18Z</time></trkpt><trkpt lat="42.69870168866232" lon="12.722810862036697"><ele>448.0</ele><time>2026-04-11T14:07:19Z</time></trkpt><trkpt lat="42.69876554014553" lon="12.722834298660837"><ele>446.00000000000006</ele><time>2026-04-11T14:07:20Z</time></trkpt><trkpt lat="42.69886755224985" lon="12.722871742074394"><ele>444.0</ele><time>2026-04-11T14:07:22Z</time></trkpt><trkpt lat="42.69893144095925" lon="12.722895192395999"><ele>442.0</ele><time>2026-04-11T14:07:25Z</time></trkpt><trkpt lat="42.69902654078314" lon="12.722930390603233"><ele>440.0</ele><time>2026-04-11T14:07:33Z</time></trkpt><trkpt lat="42.69909631218986" lon="12.722956193949893"><ele>438.00000000000006</ele><time>2026-04-11T14:07:35Z</time></trkpt><trkpt lat="42.69915529816691" lon="12.72300875476954"><ele>436.0</ele><time>2026-04-11T14:07:38Z</time></trkpt><trkpt lat="42.69908476153511" lon="12.723341652439753"><ele>436.0</ele><time>2026-04-11T14:07:39Z</time></trkpt><trkpt lat="42.69906072141702" lon="12.72342540586456"><ele>436.0</ele><time>2026-04-11T14:07:40Z</time></trkpt><trkpt lat="42.69904401194389" lon="12.723525124935096"><ele>436.0</ele><time>2026-04-11T14:07:41Z</time></trkpt><trkpt lat="42.699061415137855" lon="12.723692721832247"><ele>436.0</ele><time>2026-04-11T14:07:43Z</time></trkpt><trkpt lat="42.69916071469352" lon="12.723750977436502"><ele>436.0</ele><time>2026-04-11T14:07:44Z</time></trkpt><trkpt lat="42.69924457253353" lon="12.72386286156201"><ele>435.8</ele><time>2026-04-11T14:07:45Z</time></trkpt><trkpt lat="42.69933206191944" lon="12.7239510078078"><ele>435.6</ele><time>2026-04-11T14:07:46Z</time></trkpt><trkpt lat="42.69943529984276" lon="12.724026188981393"><ele>435.4</ele><time>2026-04-11T14:07:47Z</time></trkpt><trkpt lat="42.69951577228876" lon="12.724121661924015"><ele>435.2</ele><time>2026-04-11T14:07:48Z</time></trkpt><trkpt lat="42.699585764422324" lon="12.724186696857572"><ele>435.0</ele><time>2026-04-11T14:07:49Z</time></trkpt><trkpt lat="42.69967479447465" lon="12.724308918901782"><ele>436.8</ele><time>2026-04-11T14:07:51Z</time></trkpt><trkpt lat="42.69969940486026" lon="12.724405009097339"><ele>438.6</ele><time>2026-04-11T14:07:52Z</time></trkpt><trkpt lat="42.69969083180114" lon="12.724527302330703"><ele>440.4</ele><time>2026-04-11T14:07:53Z</time></trkpt><trkpt lat="42.69962959591847" lon="12.724633300005118"><ele>442.2</ele><time>2026-04-11T14:07:54Z</time></trkpt><trkpt lat="42.69955909369222" lon="12.72473202250857"><ele>444.0</ele><time>2026-04-11T14:07:55Z</time></trkpt><trkpt lat="42.69946640454874" lon="12.7248045951269"><ele>443.79999999999995</ele><time>2026-04-11T14:07:56Z</time></trkpt><trkpt lat="42.69938837614479" lon="12.724905071149971"><ele>443.59999999999997</ele><time>2026-04-11T14:07:57Z</time></trkpt><trkpt lat="42.6993153245658" lon="12.724978098733073"><ele>443.4</ele><time>2026-04-11T14:07:58Z</time></trkpt><trkpt lat="42.69926382572135" lon="12.725082791066006"><ele>443.2</ele><time>2026-04-11T14:07:58.999Z</time></trkpt><trkpt lat="42.69922093209666" lon="12.725212546744059"><ele>443.0</ele><time>2026-04-11T14:07:59.999Z</time></trkpt><trkpt lat="42.699170142359336" lon="12.725354288509699"><ele>442.99999999999994</ele><time>2026-04-11T14:08:00.999Z</time></trkpt><trkpt lat="42.6990936632049" lon="12.725454015933394"><ele>443.0</ele><time>2026-04-11T14:08:01.999Z</time></trkpt><trkpt lat="42.699020680831694" lon="12.725529683966599"><ele>443.0</ele><time>2026-04-11T14:08:03Z</time></trkpt><trkpt lat="42.698948651702324" lon="12.725609470439107"><ele>443.0</ele><time>2026-04-11T14:08:04Z</time></trkpt><trkpt lat="42.698875885993864" lon="12.725666590995976"><ele>442.99999999999994</ele><time>2026-04-11T14:08:04.999Z</time></trkpt><trkpt lat="42.698809892784006" lon="12.725708128156992"><ele>443.0</ele><time>2026-04-11T14:08:05.999Z</time></trkpt><trkpt lat="42.698717475255066" lon="12.725765420033259"><ele>442.99999999999994</ele><time>2026-04-11T14:08:07.999Z</time></trkpt><trkpt lat="42.698682389064004" lon="12.72584689756657"><ele>443.0</ele><time>2026-04-11T14:08:10Z</time></trkpt><trkpt lat="42.698739118523754" lon="12.725983019596562"><ele>443.0</ele><time>2026-04-11T14:08:10.999Z</time></trkpt><trkpt lat="42.698795860327415" lon="12.72605879198958"><ele>443.0</ele><time>2026-04-11T14:08:11.999Z</time></trkpt><trkpt lat="42.69885284624604" lon="12.726137382681522"><ele>442.99999999999994</ele><time>2026-04-11T14:08:12.999Z</time></trkpt><trkpt lat="42.6989167399991" lon="12.726234257169088"><ele>443.0</ele><time>2026-04-11T14:08:13.999Z</time></trkpt><trkpt lat="42.69898466906257" lon="12.72633560749144"><ele>444.49999999999994</ele><time>2026-04-11T14:08:14.999Z</time></trkpt><trkpt lat="42.69906369156479" lon="12.726423814317549"><ele>446.0</ele><time>2026-04-11T14:08:15.999Z</time></trkpt><trkpt lat="42.69911534891073" lon="12.72651159887113"><ele>447.5</ele><time>2026-04-11T14:08:16.999Z</time></trkpt><trkpt lat="42.699159973882416" lon="12.726585744723247"><ele>449.0</ele><time>2026-04-11T14:08:17.999Z</time></trkpt><trkpt lat="42.69915283321858" lon="12.726740965179921"><ele>450.49999999999994</ele><time>2026-04-11T14:08:20Z</time></trkpt><trkpt lat="42.69912315727879" lon="12.72684184931155"><ele>452.0</ele><time>2026-04-11T14:08:21Z</time></trkpt><trkpt lat="42.69908776692172" lon="12.726943905743601"><ele>453.8333333333333</ele><time>2026-04-11T14:08:22Z</time></trkpt><trkpt lat="42.69904029697763" lon="12.72703219172968"><ele>455.66666666666663</ele><time>2026-04-11T14:08:23Z</time></trkpt><trkpt lat="42.699017524345926" lon="12.72711680993197"><ele>457.5</ele><time>2026-04-11T14:08:24Z</time></trkpt><trkpt lat="42.69903074698008" lon="12.72725899828997"><ele>459.33333333333337</ele><time>2026-04-11T14:08:26Z</time></trkpt><trkpt lat="42.699088950228834" lon="12.7273076901691"><ele>461.1666666666667</ele><time>2026-04-11T14:08:27Z</time></trkpt><trkpt lat="42.6991675676407" lon="12.727314651703203"><ele>463.0</ele><time>2026-04-11T14:08:28Z</time></trkpt><trkpt lat="42.69921932796953" lon="12.727257889544509"><ele>463.00000000000006</ele><time>2026-04-11T14:08:29Z</time></trkpt><trkpt lat="42.699289267909755" lon="12.727221060043243"><ele>463.0</ele><time>2026-04-11T14:08:30Z</time></trkpt><trkpt lat="42.699355482906654" lon="12.7271612597607"><ele>463.0</ele><time>2026-04-11T14:08:31Z</time></trkpt><trkpt lat="42.6994170511471" lon="12.72708045302426"><ele>463.0</ele><time>2026-04-11T14:08:32Z</time></trkpt><trkpt lat="42.69948559614547" lon="12.727037145708126"><ele>463.00000000000006</ele><time>2026-04-11T14:08:33Z</time></trkpt><trkpt lat="42.699552781695424" lon="12.726992092148361"><ele>463.0</ele><time>2026-04-11T14:08:34Z</time></trkpt><trkpt lat="42.69962681601705" lon="12.726941044476197"><ele>463.33333333333337</ele><time>2026-04-11T14:08:35Z</time></trkpt><trkpt lat="42.69970079704845" lon="12.726881318367216"><ele>463.6666666666667</ele><time>2026-04-11T14:08:36Z</time></trkpt><trkpt lat="42.69977820123832" lon="12.726812740387134"><ele>464.0</ele><time>2026-04-11T14:08:37Z</time></trkpt><trkpt lat="42.699848644431114" lon="12.726779686372803"><ele>464.33333333333337</ele><time>2026-04-11T14:08:38Z</time></trkpt><trkpt lat="42.69991173371479" lon="12.726743961655517"><ele>464.6666666666667</ele><time>2026-04-11T14:08:39Z</time></trkpt><trkpt lat="42.699983924032125" lon="12.7267126094896"><ele>465.0</ele><time>2026-04-11T14:08:40Z</time></trkpt><trkpt lat="42.70006176030914" lon="12.726689981339467"><ele>465.0</ele><time>2026-04-11T14:08:41Z</time></trkpt><trkpt lat="42.70013847751959" lon="12.726678636419923"><ele>465.0</ele><time>2026-04-11T14:08:42Z</time></trkpt><trkpt lat="42.70021992972719" lon="12.72665128423342"><ele>465.0</ele><time>2026-04-11T14:08:43Z</time></trkpt><trkpt lat="42.70032052519136" lon="12.726656222808268"><ele>465.0</ele><time>2026-04-11T14:08:44Z</time></trkpt><trkpt lat="42.700424811690255" lon="12.726655198406801"><ele>465.0</ele><time>2026-04-11T14:08:45Z</time></trkpt><trkpt lat="42.70052133408239" lon="12.726659517689079"><ele>467.2</ele><time>2026-04-11T14:08:46Z</time></trkpt><trkpt lat="42.70060078702338" lon="12.726683750484934"><ele>469.4</ele><time>2026-04-11T14:08:47Z</time></trkpt><trkpt lat="42.700680522706854" lon="12.72674834364909"><ele>471.6</ele><time>2026-04-11T14:08:48Z</time></trkpt><trkpt lat="42.70075511444899" lon="12.726836340110538"><ele>473.8</ele><time>2026-04-11T14:08:49Z</time></trkpt><trkpt lat="42.700841328330434" lon="12.726912210897007"><ele>476.0</ele><time>2026-04-11T14:08:50Z</time></trkpt><trkpt lat="42.70094576402498" lon="12.726961180619595"><ele>478.4</ele><time>2026-04-11T14:08:51Z</time></trkpt><trkpt lat="42.70102594609892" lon="12.726985130294109"><ele>480.8</ele><time>2026-04-11T14:08:52Z</time></trkpt><trkpt lat="42.70111104838694" lon="12.726998820252028"><ele>483.19999999999993</ele><time>2026-04-11T14:08:53Z</time></trkpt><trkpt lat="42.70119282214128" lon="12.726982305475543"><ele>485.59999999999997</ele><time>2026-04-11T14:08:54Z</time></trkpt><trkpt lat="42.70128157735086" lon="12.726899677829053"><ele>488.0</ele><time>2026-04-11T14:08:55Z</time></trkpt><trkpt lat="42.701359581062626" lon="12.726816297354214"><ele>488.8333333333333</ele><time>2026-04-11T14:08:56Z</time></trkpt><trkpt lat="42.701425157885026" lon="12.726742864423167"><ele>489.66666666666663</ele><time>2026-04-11T14:08:57Z</time></trkpt><trkpt lat="42.70146867295065" lon="12.72665339791235"><ele>490.5</ele><time>2026-04-11T14:08:58Z</time></trkpt><trkpt lat="42.701517036211136" lon="12.726578586677972"><ele>491.33333333333337</ele><time>2026-04-11T14:08:59Z</time></trkpt><trkpt lat="42.701536347046435" lon="12.726469005073803"><ele>492.1666666666667</ele><time>2026-04-11T14:09:00Z</time></trkpt><trkpt lat="42.70155533322893" lon="12.726343937906917"><ele>493.0</ele><time>2026-04-11T14:09:01Z</time></trkpt><trkpt lat="42.70155752370141" lon="12.726188374784073"><ele>493.00000000000006</ele><time>2026-04-11T14:09:02Z</time></trkpt><trkpt lat="42.70157349125101" lon="12.726084797539743"><ele>493.0</ele><time>2026-04-11T14:09:03Z</time></trkpt><trkpt lat="42.7015950462489" lon="12.725960919195638"><ele>493.0</ele><time>2026-04-11T14:09:04Z</time></trkpt><trkpt lat="42.70162425889779" lon="12.725860581840209"><ele>493.0</ele><time>2026-04-11T14:09:05Z</time></trkpt><trkpt lat="42.701668364911406" lon="12.725786415193337"><ele>493.00000000000006</ele><time>2026-04-11T14:09:06Z</time></trkpt><trkpt lat="42.701753210015625" lon="12.72574140489533"><ele>493.0</ele><time>2026-04-11T14:09:08Z</time></trkpt><trkpt lat="42.701815137605976" lon="12.72578158487074"><ele>492.4</ele><time>2026-04-11T14:09:09Z</time></trkpt><trkpt lat="42.70188319155245" lon="12.725866701429407"><ele>491.79999999999995</ele><time>2026-04-11T14:09:10Z</time></trkpt><trkpt lat="42.70198120510609" lon="12.725923502033071"><ele>491.2</ele><time>2026-04-11T14:09:11Z</time></trkpt><trkpt lat="42.7020549101728" lon="12.72597898350484"><ele>490.6</ele><time>2026-04-11T14:09:12Z</time></trkpt><trkpt lat="42.70213003060138" lon="12.725969546511715"><ele>490.0</ele><time>2026-04-11T14:09:13Z</time></trkpt><trkpt lat="42.70230387855456" lon="12.725944990921448"><ele>493.6</ele><time>2026-04-11T14:09:14Z</time></trkpt><trkpt lat="42.702184096824254" lon="12.725926505002894"><ele>497.2</ele><time>2026-04-11T14:09:15Z</time></trkpt><trkpt lat="42.702256943546566" lon="12.725930791534743"><ele>500.79999999999995</ele><time>2026-04-11T14:09:16Z</time></trkpt><trkpt lat="42.70236544332314" lon="12.72595807920894"><ele>504.4</ele><time>2026-04-11T14:09:18Z</time></trkpt><trkpt lat="42.70235273855181" lon="12.726115784720736"><ele>508.0</ele><time>2026-04-11T14:09:21Z</time></trkpt><trkpt lat="42.70232893660234" lon="12.726209040483148"><ele>510.0</ele><time>2026-04-11T14:09:22Z</time></trkpt><trkpt lat="42.70232790802452" lon="12.72629567914632"><ele>511.99999999999994</ele><time>2026-04-11T14:09:23Z</time></trkpt><trkpt lat="42.70229693196067" lon="12.726431810086696"><ele>514.0</ele><time>2026-04-11T14:09:25Z</time></trkpt><trkpt lat="42.70228107608422" lon="12.726590511181065"><ele>516.0</ele><time>2026-04-11T14:09:27Z</time></trkpt><trkpt lat="42.702272458878625" lon="12.726714439716597"><ele>518.0</ele><time>2026-04-11T14:09:29Z</time></trkpt><trkpt lat="42.70227994251873" lon="12.726880139125996"><ele>520.0</ele><time>2026-04-11T14:09:31Z</time></trkpt><trkpt lat="42.70226765246443" lon="12.727040962585935"><ele>522.0</ele><time>2026-04-11T14:09:33Z</time></trkpt><trkpt lat="42.70224685609425" lon="12.727194959097769"><ele>524.0</ele><time>2026-04-11T14:09:35Z</time></trkpt><trkpt lat="42.70221909971592" lon="12.727354089830738"><ele>526.0</ele><time>2026-04-11T14:09:37Z</time></trkpt><trkpt lat="42.70218250134363" lon="12.727431353375277"><ele>528.0</ele><time>2026-04-11T14:09:38Z</time></trkpt><trkpt lat="42.702147335087965" lon="12.727503051182474"><ele>528.0</ele><time>2026-04-11T14:09:39Z</time></trkpt><trkpt lat="42.70210579457265" lon="12.72757951689654"><ele>528.0</ele><time>2026-04-11T14:09:40Z</time></trkpt><trkpt lat="42.702069586915435" lon="12.727689456201105"><ele>528.0</ele><time>2026-04-11T14:09:41Z</time></trkpt><trkpt lat="42.702026169863544" lon="12.72779920551758"><ele>528.0</ele><time>2026-04-11T14:09:42Z</time></trkpt><trkpt lat="42.70199288717224" lon="12.727907475481427"><ele>528.0</ele><time>2026-04-11T14:09:43Z</time></trkpt><trkpt lat="42.701985136497306" lon="12.728013160881948"><ele>528.0</ele><time>2026-04-11T14:09:44Z</time></trkpt><trkpt lat="42.70199545751284" lon="12.728102785999127"><ele>527.8333333333334</ele><time>2026-04-11T14:09:45Z</time></trkpt><trkpt lat="42.70201118454772" lon="12.72821421314809"><ele>527.6666666666666</ele><time>2026-04-11T14:09:46Z</time></trkpt><trkpt lat="42.7020192788737" lon="12.728308328008643"><ele>527.5</ele><time>2026-04-11T14:09:47Z</time></trkpt><trkpt lat="42.702003566643036" lon="12.72841280530105"><ele>527.3333333333333</ele><time>2026-04-11T14:09:48Z</time></trkpt><trkpt lat="42.70195626673806" lon="12.728523843531745"><ele>527.1666666666666</ele><time>2026-04-11T14:09:49Z</time></trkpt><trkpt lat="42.7019083949017" lon="12.728602747643258"><ele>527.0</ele><time>2026-04-11T14:09:50Z</time></trkpt><trkpt lat="42.70187268806795" lon="12.728697101910177"><ele>527.0</ele><time>2026-04-11T14:09:51Z</time></trkpt><trkpt lat="42.701889145965055" lon="12.72882455779169"><ele>527.0</ele><time>2026-04-11T14:09:53Z</time></trkpt><trkpt lat="42.70196413967387" lon="12.728760268122043"><ele>527.0</ele><time>2026-04-11T14:10:13.999Z</time></trkpt><trkpt lat="42.70198407923906" lon="12.72866678979944"><ele>527.0</ele><time>2026-04-11T14:10:14.998Z</time></trkpt><trkpt lat="42.70201174775712" lon="12.728583639673046"><ele>527.0</ele><time>2026-04-11T14:10:15.998Z</time></trkpt><trkpt lat="42.70207194902177" lon="12.72849273608255"><ele>527.0</ele><time>2026-04-11T14:10:16.999Z</time></trkpt><trkpt lat="42.7021271425355" lon="12.728406794090635"><ele>527.0</ele><time>2026-04-11T14:10:17.998Z</time></trkpt><trkpt lat="42.70217858333301" lon="12.728309668342424"><ele>527.0</ele><time>2026-04-11T14:10:18.998Z</time></trkpt><trkpt lat="42.70224068856895" lon="12.728223196642803"><ele>527.0</ele><time>2026-04-11T14:10:19.998Z</time></trkpt><trkpt lat="42.70229402645838" lon="12.728127851978021"><ele>527.0</ele><time>2026-04-11T14:10:20.998Z</time></trkpt><trkpt lat="42.70236223349546" lon="12.728048224587297"><ele>527.0</ele><time>2026-04-11T14:10:21.998Z</time></trkpt><trkpt lat="42.70244683364529" lon="12.72798351348457"><ele>527.0</ele><time>2026-04-11T14:10:22.998Z</time></trkpt><trkpt lat="42.70253941150134" lon="12.727936105759255"><ele>527.0</ele><time>2026-04-11T14:10:23.998Z</time></trkpt><trkpt lat="42.70262192748013" lon="12.72790615871717"><ele>527.0</ele><time>2026-04-11T14:10:24.998Z</time></trkpt><trkpt lat="42.702700791868935" lon="12.727912741575148"><ele>527.0</ele><time>2026-04-11T14:10:25.998Z</time></trkpt><trkpt lat="42.702783190428335" lon="12.727924248662363"><ele>527.0</ele><time>2026-04-11T14:10:26.998Z</time></trkpt><trkpt lat="42.70285728895769" lon="12.727977570532216"><ele>527.0</ele><time>2026-04-11T14:10:27.998Z</time></trkpt><trkpt lat="42.70294155998824" lon="12.72803702435359"><ele>528.0</ele><time>2026-04-11T14:10:28.998Z</time></trkpt><trkpt lat="42.70302985263155" lon="12.72810774577694"><ele>529.0</ele><time>2026-04-11T14:10:29.998Z</time></trkpt><trkpt lat="42.70312240292139" lon="12.728159543596291"><ele>530.0</ele><time>2026-04-11T14:10:30.998Z</time></trkpt><trkpt lat="42.70321721029514" lon="12.728193481847727"><ele>531.0</ele><time>2026-04-11T14:10:31.998Z</time></trkpt><trkpt lat="42.70331969312311" lon="12.728252633798158"><ele>532.0</ele><time>2026-04-11T14:10:32.998Z</time></trkpt><trkpt lat="42.70341044436853" lon="12.72831321575268"><ele>532.0</ele><time>2026-04-11T14:10:33.999Z</time></trkpt><trkpt lat="42.70351147445325" lon="12.72836741603865"><ele>532.0</ele><time>2026-04-11T14:10:34.999Z</time></trkpt><trkpt lat="42.703611720501165" lon="12.728444807233801"><ele>532.0</ele><time>2026-04-11T14:10:35.999Z</time></trkpt><trkpt lat="42.70370474342941" lon="12.728536103998614"><ele>532.0</ele><time>2026-04-11T14:10:36.999Z</time></trkpt><trkpt lat="42.703769147398475" lon="12.728616194669803"><ele>532.0</ele><time>2026-04-11T14:10:37.999Z</time></trkpt><trkpt lat="42.70383190777419" lon="12.728688404004458"><ele>528.6666666666667</ele><time>2026-04-11T14:10:38.999Z</time></trkpt><trkpt lat="42.703888047480504" lon="12.728765202217659"><ele>525.3333333333334</ele><time>2026-04-11T14:10:39.999Z</time></trkpt><trkpt lat="42.703930931987756" lon="12.728862558359163"><ele>522.0</ele><time>2026-04-11T14:10:40.999Z</time></trkpt><trkpt lat="42.70399678479899" lon="12.728933412784208"><ele>518.6666666666666</ele><time>2026-04-11T14:10:41.999Z</time></trkpt><trkpt lat="42.70406572063194" lon="12.728996998985188"><ele>515.3333333333333</ele><time>2026-04-11T14:10:42.999Z</time></trkpt><trkpt lat="42.704133916796934" lon="12.729040873337665"><ele>512.0</ele><time>2026-04-11T14:10:43.999Z</time></trkpt><trkpt lat="42.704198310112524" lon="12.729091565923413"><ele>512.0</ele><time>2026-04-11T14:10:44.999Z</time></trkpt><trkpt lat="42.70426806681003" lon="12.729113769088459"><ele>512.0</ele><time>2026-04-11T14:10:45.999Z</time></trkpt><trkpt lat="42.70434088364678" lon="12.729119911067174"><ele>512.0</ele><time>2026-04-11T14:10:46.999Z</time></trkpt><trkpt lat="42.70444445852914" lon="12.729170690229958"><ele>512.0</ele><time>2026-04-11T14:10:48.999Z</time></trkpt><trkpt lat="42.7045157899387" lon="12.729210168814413"><ele>512.0</ele><time>2026-04-11T14:10:50.999Z</time></trkpt><trkpt lat="42.704422472822344" lon="12.729365934459885"><ele>508.40000000000003</ele><time>2026-04-11T14:10:53.999Z</time></trkpt><trkpt lat="42.70433084600894" lon="12.729395266619997"><ele>504.80000000000007</ele><time>2026-04-11T14:10:54.999Z</time></trkpt><trkpt lat="42.704239048942846" lon="12.7294208661412"><ele>501.2</ele><time>2026-04-11T14:10:55.999Z</time></trkpt><trkpt lat="42.704163156258964" lon="12.729448932691696"><ele>497.6</ele><time>2026-04-11T14:10:56.999Z</time></trkpt><trkpt lat="42.704050015372076" lon="12.729499927080706"><ele>494.0</ele><time>2026-04-11T14:10:58.999Z</time></trkpt><trkpt lat="42.7039408641524" lon="12.72948492886522"><ele>493.99999999999994</ele><time>2026-04-11T14:11:00.999Z</time></trkpt><trkpt lat="42.70390484818695" lon="12.729410529033345"><ele>494.0</ele><time>2026-04-11T14:11:01.999Z</time></trkpt><trkpt lat="42.70384400956575" lon="12.729335235287719"><ele>494.0</ele><time>2026-04-11T14:11:02.999Z</time></trkpt><trkpt lat="42.70377529555295" lon="12.72927946216682"><ele>494.0</ele><time>2026-04-11T14:11:03.999Z</time></trkpt><trkpt lat="42.703716658277415" lon="12.729229034745403"><ele>493.99999999999994</ele><time>2026-04-11T14:11:04.999Z</time></trkpt><trkpt lat="42.70361269938817" lon="12.729194547966955"><ele>494.0</ele><time>2026-04-11T14:11:06.999Z</time></trkpt><trkpt lat="42.703514075635816" lon="12.72930380075639"><ele>493.99999999999994</ele><time>2026-04-11T14:11:08.999Z</time></trkpt><trkpt lat="42.703520523612966" lon="12.729424753492996"><ele>494.0</ele><time>2026-04-11T14:11:10.999Z</time></trkpt><trkpt lat="42.7035706505811" lon="12.729497619738783"><ele>494.0</ele><time>2026-04-11T14:14:01.998Z</time></trkpt><trkpt lat="42.70361349424248" lon="12.729619563545546"><ele>494.0</ele><time>2026-04-11T14:14:04.998Z</time></trkpt><trkpt lat="42.703673767558634" lon="12.729697480953297"><ele>493.99999999999994</ele><time>2026-04-11T14:14:06.998Z</time></trkpt><trkpt lat="42.70372563743546" lon="12.729809221158229"><ele>494.0</ele><time>2026-04-11T14:14:08.998Z</time></trkpt><trkpt lat="42.7037695014067" lon="12.72993732595299"><ele>494.0</ele><time>2026-04-11T14:14:10.998Z</time></trkpt><trkpt lat="42.70375478503282" lon="12.730072385571463"><ele>494.0</ele><time>2026-04-11T14:14:12.998Z</time></trkpt><trkpt lat="42.70371562642828" lon="12.730190006970291"><ele>494.0</ele><time>2026-04-11T14:14:14.999Z</time></trkpt><trkpt lat="42.70365822662576" lon="12.73029550464191"><ele>494.0</ele><time>2026-04-11T14:14:16.998Z</time></trkpt><trkpt lat="42.703572919512894" lon="12.730396613180819"><ele>494.0</ele><time>2026-04-11T14:14:18.998Z</time></trkpt><trkpt lat="42.70352322695504" lon="12.730453320765372"><ele>492.4</ele><time>2026-04-11T14:14:19.998Z</time></trkpt><trkpt lat="42.70343317745159" lon="12.730553523504662"><ele>490.79999999999995</ele><time>2026-04-11T14:14:21.998Z</time></trkpt><trkpt lat="42.7033599453631" lon="12.73063501263642"><ele>489.20000000000005</ele><time>2026-04-11T14:14:23.998Z</time></trkpt><trkpt lat="42.70330112961837" lon="12.730726512581176"><ele>487.6</ele><time>2026-04-11T14:14:25.998Z</time></trkpt><trkpt lat="42.70324773680012" lon="12.73080276647472"><ele>486.0</ele><time>2026-04-11T14:14:27.998Z</time></trkpt><trkpt lat="42.70323423757056" lon="12.730915087140398"><ele>486.0</ele><time>2026-04-11T14:14:30.998Z</time></trkpt><trkpt lat="42.70329628866586" lon="12.731013855007562"><ele>486.0</ele><time>2026-04-11T14:14:32.998Z</time></trkpt><trkpt lat="42.70339630649388" lon="12.730981547814745"><ele>486.0</ele><time>2026-04-11T14:14:33.998Z</time></trkpt><trkpt lat="42.70346336236247" lon="12.730954628948723"><ele>486.0</ele><time>2026-04-11T14:14:34.998Z</time></trkpt><trkpt lat="42.703528024967795" lon="12.730921066515117"><ele>486.0</ele><time>2026-04-11T14:14:35.998Z</time></trkpt><trkpt lat="42.703643613628856" lon="12.730856448132899"><ele>484.3333333333333</ele><time>2026-04-11T14:14:37.998Z</time></trkpt><trkpt lat="42.703750433479655" lon="12.730795359416087"><ele>482.66666666666663</ele><time>2026-04-11T14:14:39.998Z</time></trkpt><trkpt lat="42.70384626461726" lon="12.730747186937855"><ele>481.0</ele><time>2026-04-11T14:14:41.998Z</time></trkpt><trkpt lat="42.70390776566549" lon="12.730714009580435"><ele>479.3333333333333</ele><time>2026-04-11T14:14:42.998Z</time></trkpt><trkpt lat="42.703982443677006" lon="12.73072584766597"><ele>477.66666666666663</ele><time>2026-04-11T14:14:43.998Z</time></trkpt><trkpt lat="42.70406281207337" lon="12.730739050986534"><ele>476.0</ele><time>2026-04-11T14:14:44.998Z</time></trkpt><trkpt lat="42.70413335548746" lon="12.730749816423101"><ele>476.0</ele><time>2026-04-11T14:14:45.998Z</time></trkpt><trkpt lat="42.704196415835746" lon="12.73076479153151"><ele>476.0</ele><time>2026-04-11T14:14:46.998Z</time></trkpt><trkpt lat="42.70426340661832" lon="12.730770988923343"><ele>476.0</ele><time>2026-04-11T14:14:47.998Z</time></trkpt><trkpt lat="42.70434468503275" lon="12.730789412289347"><ele>476.0</ele><time>2026-04-11T14:14:48.998Z</time></trkpt><trkpt lat="42.704419601027695" lon="12.73078221238641"><ele>476.0</ele><time>2026-04-11T14:14:49.998Z</time></trkpt><trkpt lat="42.70449704697308" lon="12.730770250137738"><ele>476.0</ele><time>2026-04-11T14:14:50.998Z</time></trkpt><trkpt lat="42.70456973977373" lon="12.730755202274452"><ele>476.0</ele><time>2026-04-11T14:14:51.998Z</time></trkpt><trkpt lat="42.704639791080446" lon="12.73073867927581"><ele>474.49999999999994</ele><time>2026-04-11T14:14:52.998Z</time></trkpt><trkpt lat="42.70472205467666" lon="12.730711129448387"><ele>473.0</ele><time>2026-04-11T14:14:53.998Z</time></trkpt><trkpt lat="42.70481074976932" lon="12.730672777474586"><ele>471.5</ele><time>2026-04-11T14:14:54.998Z</time></trkpt><trkpt lat="42.70489113589924" lon="12.730631463630594"><ele>470.0</ele><time>2026-04-11T14:14:55.998Z</time></trkpt><trkpt lat="42.7049687779648" lon="12.730587162276679"><ele>468.49999999999994</ele><time>2026-04-11T14:14:56.998Z</time></trkpt><trkpt lat="42.70504716378609" lon="12.730556995132604"><ele>467.0</ele><time>2026-04-11T14:14:57.998Z</time></trkpt><trkpt lat="42.705124826212206" lon="12.730521686649688"><ele>466.99999999999994</ele><time>2026-04-11T14:14:58.998Z</time></trkpt><trkpt lat="42.705210177344306" lon="12.730484438904748"><ele>467.0</ele><time>2026-04-11T14:14:59.998Z</time></trkpt><trkpt lat="42.70529152760645" lon="12.730447590465715"><ele>467.0</ele><time>2026-04-11T14:15:00.998Z</time></trkpt><trkpt lat="42.705371833420394" lon="12.730422242305611"><ele>467.0</ele><time>2026-04-11T14:15:01.998Z</time></trkpt><trkpt lat="42.70546210069056" lon="12.730400966205861"><ele>466.99999999999994</ele><time>2026-04-11T14:15:02.998Z</time></trkpt><trkpt lat="42.70555114809387" lon="12.730374522668988"><ele>467.0</ele><time>2026-04-11T14:15:03.998Z</time></trkpt><trkpt lat="42.705629134732305" lon="12.73035074562876"><ele>465.16666666666663</ele><time>2026-04-11T14:15:04.998Z</time></trkpt><trkpt lat="42.7057112879672" lon="12.73032574887738"><ele>463.3333333333333</ele><time>2026-04-11T14:15:05.998Z</time></trkpt><trkpt lat="42.705789135411926" lon="12.730327479982291"><ele>461.5</ele><time>2026-04-11T14:15:06.998Z</time></trkpt><trkpt lat="42.705874482984335" lon="12.730299004404454"><ele>459.66666666666663</ele><time>2026-04-11T14:15:07.998Z</time></trkpt><trkpt lat="42.70595524046536" lon="12.730295013683351"><ele>457.8333333333333</ele><time>2026-04-11T14:15:08.998Z</time></trkpt><trkpt lat="42.70602842856785" lon="12.730281653289373"><ele>456.0</ele><time>2026-04-11T14:15:09.998Z</time></trkpt><trkpt lat="42.70610789928776" lon="12.730266494697409"><ele>456.1666666666667</ele><time>2026-04-11T14:15:10.998Z</time></trkpt><trkpt lat="42.70618298937419" lon="12.73024159312429"><ele>456.33333333333337</ele><time>2026-04-11T14:15:11.998Z</time></trkpt><trkpt lat="42.70625658542872" lon="12.730203321976783"><ele>456.5</ele><time>2026-04-11T14:15:12.998Z</time></trkpt><trkpt lat="42.70632484453709" lon="12.730156961615469"><ele>456.6666666666667</ele><time>2026-04-11T14:15:13.998Z</time></trkpt><trkpt lat="42.70638620197247" lon="12.73011113182332"><ele>456.83333333333337</ele><time>2026-04-11T14:15:14.998Z</time></trkpt><trkpt lat="42.70645475410371" lon="12.730047514212206"><ele>457.0</ele><time>2026-04-11T14:15:15.998Z</time></trkpt><trkpt lat="42.70652481275039" lon="12.729975682611377"><ele>457.0</ele><time>2026-04-11T14:15:16.998Z</time></trkpt><trkpt lat="42.70660612840413" lon="12.729888335338313"><ele>457.00000000000006</ele><time>2026-04-11T14:15:17.998Z</time></trkpt><trkpt lat="42.70668584810446" lon="12.729817760578703"><ele>457.00000000000006</ele><time>2026-04-11T14:15:18.998Z</time></trkpt><trkpt lat="42.70675827002374" lon="12.729739972255901"><ele>457.0</ele><time>2026-04-11T14:15:19.998Z</time></trkpt><trkpt lat="42.706816498572294" lon="12.729658020583843"><ele>457.0</ele><time>2026-04-11T14:15:20.998Z</time></trkpt><trkpt lat="42.70687428776608" lon="12.729589471263196"><ele>456.1666666666667</ele><time>2026-04-11T14:15:21.998Z</time></trkpt><trkpt lat="42.7069219944282" lon="12.729511305668025"><ele>455.33333333333337</ele><time>2026-04-11T14:15:22.998Z</time></trkpt><trkpt lat="42.706987098325996" lon="12.729450096526062"><ele>454.5</ele><time>2026-04-11T14:15:23.998Z</time></trkpt><trkpt lat="42.70705715823507" lon="12.729386593054434"><ele>453.66666666666663</ele><time>2026-04-11T14:15:24.998Z</time></trkpt><trkpt lat="42.70713614870819" lon="12.72932436886929"><ele>452.8333333333333</ele><time>2026-04-11T14:15:25.998Z</time></trkpt><trkpt lat="42.70722672193425" lon="12.72927355663992"><ele>452.0</ele><time>2026-04-11T14:15:26.998Z</time></trkpt><trkpt lat="42.70732132889588" lon="12.729230915256236"><ele>452.0</ele><time>2026-04-11T14:15:27.998Z</time></trkpt><trkpt lat="42.70740384623013" lon="12.729201857943586"><ele>452.00000000000006</ele><time>2026-04-11T14:15:28.998Z</time></trkpt><trkpt lat="42.707490357761785" lon="12.729169704202949"><ele>452.00000000000006</ele><time>2026-04-11T14:15:29.998Z</time></trkpt><trkpt lat="42.707575596677955" lon="12.729135652853579"><ele>452.0</ele><time>2026-04-11T14:15:30.998Z</time></trkpt><trkpt lat="42.7076594205994" lon="12.72911483657065"><ele>452.0</ele><time>2026-04-11T14:15:31.998Z</time></trkpt><trkpt lat="42.70775846393087" lon="12.729090939359173"><ele>449.40000000000003</ele><time>2026-04-11T14:15:32.998Z</time></trkpt><trkpt lat="42.70785109276211" lon="12.729069403463322"><ele>446.80000000000007</ele><time>2026-04-11T14:15:33.998Z</time></trkpt><trkpt lat="42.70794959497795" lon="12.729023864308411"><ele>444.2</ele><time>2026-04-11T14:15:34.998Z</time></trkpt><trkpt lat="42.70804961126223" lon="12.728976338446946"><ele>441.6</ele><time>2026-04-11T14:15:35.998Z</time></trkpt><trkpt lat="42.70815136349143" lon="12.728915439772228"><ele>439.0</ele><time>2026-04-11T14:15:36.998Z</time></trkpt><trkpt lat="42.70825618219635" lon="12.728858789971216"><ele>439.0</ele><time>2026-04-11T14:15:37.998Z</time></trkpt><trkpt lat="42.70838518468199" lon="12.728791322423566"><ele>439.0</ele><time>2026-04-11T14:15:38.998Z</time></trkpt><trkpt lat="42.70849237871416" lon="12.728713109361275"><ele>439.0</ele><time>2026-04-11T14:15:39.998Z</time></trkpt><trkpt lat="42.708603314814056" lon="12.728626906121791"><ele>439.0</ele><time>2026-04-11T14:15:40.998Z</time></trkpt><trkpt lat="42.708702965092016" lon="12.728545510613468"><ele>438.75</ele><time>2026-04-11T14:15:41.998Z</time></trkpt><trkpt lat="42.70880827331214" lon="12.728467497753268"><ele>438.5</ele><time>2026-04-11T14:15:42.998Z</time></trkpt><trkpt lat="42.70891545507367" lon="12.728398507086371"><ele>438.25</ele><time>2026-04-11T14:15:43.998Z</time></trkpt><trkpt lat="42.70901626720669" lon="12.72833801613095"><ele>438.0</ele><time>2026-04-11T14:15:44.998Z</time></trkpt><trkpt lat="42.709115102238115" lon="12.728282842835128"><ele>438.0</ele><time>2026-04-11T14:15:45.998Z</time></trkpt><trkpt lat="42.70920778336301" lon="12.728217676091239"><ele>437.99999999999994</ele><time>2026-04-11T14:15:46.998Z</time></trkpt><trkpt lat="42.70929177495313" lon="12.72815230895003"><ele>437.99999999999994</ele><time>2026-04-11T14:15:47.998Z</time></trkpt><trkpt lat="42.70936788590501" lon="12.72809941403682"><ele>438.0</ele><time>2026-04-11T14:15:48.998Z</time></trkpt><trkpt lat="42.709447551086605" lon="12.728056844889775"><ele>438.0</ele><time>2026-04-11T14:15:49.999Z</time></trkpt><trkpt lat="42.70952051786756" lon="12.728013633065931"><ele>436.79999999999995</ele><time>2026-04-11T14:15:50.999Z</time></trkpt><trkpt lat="42.70959253048" lon="12.727949960031955"><ele>435.59999999999997</ele><time>2026-04-11T14:15:51.999Z</time></trkpt><trkpt lat="42.70964649085949" lon="12.727858596562774"><ele>434.40000000000003</ele><time>2026-04-11T14:15:52.999Z</time></trkpt><trkpt lat="42.70971763166481" lon="12.727760317989196"><ele>433.20000000000005</ele><time>2026-04-11T14:15:53.999Z</time></trkpt><trkpt lat="42.70978818797063" lon="12.727651843763894"><ele>432.0</ele><time>2026-04-11T14:15:54.999Z</time></trkpt><trkpt lat="42.709873428248706" lon="12.727565342150395"><ele>431.8</ele><time>2026-04-11T14:15:55.999Z</time></trkpt><trkpt lat="42.70995842588607" lon="12.727483752596887"><ele>431.6</ele><time>2026-04-11T14:15:56.999Z</time></trkpt><trkpt lat="42.710044400502575" lon="12.727403121054602"><ele>431.40000000000003</ele><time>2026-04-11T14:15:57.999Z</time></trkpt><trkpt lat="42.71013905882657" lon="12.727312092301625"><ele>431.20000000000005</ele><time>2026-04-11T14:15:58.999Z</time></trkpt><trkpt lat="42.710235723386404" lon="12.727234188977341"><ele>431.0</ele><time>2026-04-11T14:15:59.999Z</time></trkpt><trkpt lat="42.710311144080606" lon="12.727154418328318"><ele>431.4</ele><time>2026-04-11T14:16:00.999Z</time></trkpt><trkpt lat="42.71040028749004" lon="12.727077769764305"><ele>431.8</ele><time>2026-04-11T14:16:01.999Z</time></trkpt><trkpt lat="42.71046697762785" lon="12.72701390105951"><ele>432.19999999999993</ele><time>2026-04-11T14:16:02.999Z</time></trkpt><trkpt lat="42.710540979453654" lon="12.726970229059985"><ele>432.59999999999997</ele><time>2026-04-11T14:16:03.999Z</time></trkpt><trkpt lat="42.7106097316779" lon="12.726916159932255"><ele>433.0</ele><time>2026-04-11T14:16:04.999Z</time></trkpt><trkpt lat="42.71071372175039" lon="12.726844002020993"><ele>433.0</ele><time>2026-04-11T14:16:05.999Z</time></trkpt><trkpt lat="42.710831641477746" lon="12.726789376640507"><ele>433.0</ele><time>2026-04-11T14:16:06.999Z</time></trkpt><trkpt lat="42.71094462331593" lon="12.726744601256293"><ele>433.0</ele><time>2026-04-11T14:16:07.999Z</time></trkpt><trkpt lat="42.71104503098477" lon="12.726702591357947"><ele>433.0</ele><time>2026-04-11T14:16:08.999Z</time></trkpt><trkpt lat="42.71115027182893" lon="12.726653194743896"><ele>430.59999999999997</ele><time>2026-04-11T14:16:09.999Z</time></trkpt><trkpt lat="42.71126175084921" lon="12.726598540944511"><ele>428.19999999999993</ele><time>2026-04-11T14:16:10.999Z</time></trkpt><trkpt lat="42.71136895711837" lon="12.726547110597874"><ele>425.8</ele><time>2026-04-11T14:16:11.999Z</time></trkpt><trkpt lat="42.71146390352914" lon="12.7264880453644"><ele>423.4</ele><time>2026-04-11T14:16:12.999Z</time></trkpt><trkpt lat="42.71156194998346" lon="12.726437000988767"><ele>421.0</ele><time>2026-04-11T14:16:13.999Z</time></trkpt><trkpt lat="42.71166621608132" lon="12.726427553859537"><ele>421.0</ele><time>2026-04-11T14:16:14.999Z</time></trkpt><trkpt lat="42.711745711076155" lon="12.726391169463923"><ele>421.0</ele><time>2026-04-11T14:16:15.999Z</time></trkpt><trkpt lat="42.711817769853326" lon="12.72633409064848"><ele>421.0</ele><time>2026-04-11T14:16:16.999Z</time></trkpt><trkpt lat="42.71188309383673" lon="12.726272963606357"><ele>421.0</ele><time>2026-04-11T14:16:17.999Z</time></trkpt><trkpt lat="42.711967151955534" lon="12.726186406926713"><ele>421.0</ele><time>2026-04-11T14:16:18.999Z</time></trkpt><trkpt lat="42.712055204424686" lon="12.726094522269824"><ele>419.4</ele><time>2026-04-11T14:16:19.999Z</time></trkpt><trkpt lat="42.71215387990175" lon="12.726018490326636"><ele>417.8</ele><time>2026-04-11T14:16:20.999Z</time></trkpt><trkpt lat="42.71223762336228" lon="12.726012678463038"><ele>416.2</ele><time>2026-04-11T14:16:21.999Z</time></trkpt><trkpt lat="42.712325331482056" lon="12.726019559736923"><ele>414.59999999999997</ele><time>2026-04-11T14:16:22.998Z</time></trkpt><trkpt lat="42.712416192107526" lon="12.72599900961335"><ele>413.0</ele><time>2026-04-11T14:16:23.998Z</time></trkpt><trkpt lat="42.712505837385955" lon="12.72602255374604"><ele>412.99999999999994</ele><time>2026-04-11T14:16:24.998Z</time></trkpt><trkpt lat="42.71258252584705" lon="12.725997439657508"><ele>413.0</ele><time>2026-04-11T14:16:25.997Z</time></trkpt><trkpt lat="42.71264986740329" lon="12.725982136293586"><ele>413.0</ele><time>2026-04-11T14:16:26.998Z</time></trkpt><trkpt lat="42.7127135515852" lon="12.72596781254126"><ele>413.0</ele><time>2026-04-11T14:16:27.998Z</time></trkpt><trkpt lat="42.712797846189375" lon="12.725901726473058"><ele>412.99999999999994</ele><time>2026-04-11T14:16:28.997Z</time></trkpt><trkpt lat="42.712873773005384" lon="12.725798675824137"><ele>413.0</ele><time>2026-04-11T14:16:29.998Z</time></trkpt><trkpt lat="42.712933285437245" lon="12.725702850263417"><ele>412.2</ele><time>2026-04-11T14:16:30.998Z</time></trkpt><trkpt lat="42.712993812017665" lon="12.725608725754238"><ele>411.4</ele><time>2026-04-11T14:16:31.997Z</time></trkpt><trkpt lat="42.71305024528041" lon="12.725521378890848"><ele>410.59999999999997</ele><time>2026-04-11T14:16:32.997Z</time></trkpt><trkpt lat="42.713109333235174" lon="12.725432200140796"><ele>409.79999999999995</ele><time>2026-04-11T14:16:33.997Z</time></trkpt><trkpt lat="42.71317616717975" lon="12.725335533185936"><ele>409.0</ele><time>2026-04-11T14:16:34.997Z</time></trkpt><trkpt lat="42.71325197972774" lon="12.725249456418693"><ele>408.2</ele><time>2026-04-11T14:16:35.997Z</time></trkpt><trkpt lat="42.713324287337834" lon="12.725179525189338"><ele>407.4</ele><time>2026-04-11T14:16:36.997Z</time></trkpt><trkpt lat="42.7134063972681" lon="12.725133020371583"><ele>406.6</ele><time>2026-04-11T14:16:37.997Z</time></trkpt><trkpt lat="42.71349911614341" lon="12.725121047242336"><ele>405.8</ele><time>2026-04-11T14:16:38.997Z</time></trkpt><trkpt lat="42.71360681281343" lon="12.725106131428637"><ele>405.0</ele><time>2026-04-11T14:16:39.997Z</time></trkpt><trkpt lat="42.71370085189947" lon="12.725090133018009"><ele>404.3333333333333</ele><time>2026-04-11T14:16:40.997Z</time></trkpt><trkpt lat="42.71378222689788" lon="12.725077029244572"><ele>403.66666666666663</ele><time>2026-04-11T14:16:41.997Z</time></trkpt><trkpt lat="42.71384533732195" lon="12.725068040241132"><ele>403.0</ele><time>2026-04-11T14:16:42.997Z</time></trkpt><trkpt lat="42.71392050904726" lon="12.725092034043966"><ele>402.3333333333333</ele><time>2026-04-11T14:16:44.997Z</time></trkpt><trkpt lat="42.71398285835481" lon="12.725156237139924"><ele>401.66666666666663</ele><time>2026-04-11T14:16:47.997Z</time></trkpt><trkpt lat="42.714112274446265" lon="12.725174867718428"><ele>401.0</ele><time>2026-04-11T14:16:49.997Z</time></trkpt><trkpt lat="42.71419016581631" lon="12.725182213289608"><ele>401.0</ele><time>2026-04-11T14:16:50.997Z</time></trkpt><trkpt lat="42.71427930207928" lon="12.72519177680797"><ele>401.0</ele><time>2026-04-11T14:16:51.997Z</time></trkpt><trkpt lat="42.71437148018998" lon="12.725221162899471"><ele>401.0</ele><time>2026-04-11T14:16:52.997Z</time></trkpt><trkpt lat="42.71446226580488" lon="12.725255225673882"><ele>401.0</ele><time>2026-04-11T14:16:53.997Z</time></trkpt><trkpt lat="42.714561539255214" lon="12.725305546307748"><ele>401.0</ele><time>2026-04-11T14:16:54.997Z</time></trkpt><trkpt lat="42.714667302309444" lon="12.725361926696152"><ele>401.4</ele><time>2026-04-11T14:16:55.997Z</time></trkpt><trkpt lat="42.71477827552796" lon="12.725427404224869"><ele>401.8</ele><time>2026-04-11T14:16:56.997Z</time></trkpt><trkpt lat="42.714887444687506" lon="12.725495593155914"><ele>402.2</ele><time>2026-04-11T14:16:57.997Z</time></trkpt><trkpt lat="42.7149857818215" lon="12.725555313606737"><ele>402.59999999999997</ele><time>2026-04-11T14:16:58.997Z</time></trkpt><trkpt lat="42.71507676440528" lon="12.725607914341955"><ele>403.0</ele><time>2026-04-11T14:16:59.997Z</time></trkpt><trkpt lat="42.71517358878808" lon="12.72566191805171"><ele>401.83333333333337</ele><time>2026-04-11T14:17:00.997Z</time></trkpt><trkpt lat="42.71527041376437" lon="12.72570230726298"><ele>400.6666666666667</ele><time>2026-04-11T14:17:01.997Z</time></trkpt><trkpt lat="42.71536299718574" lon="12.725730515441004"><ele>399.5</ele><time>2026-04-11T14:17:02.997Z</time></trkpt><trkpt lat="42.71544738280498" lon="12.725749295015643"><ele>398.33333333333337</ele><time>2026-04-11T14:17:03.997Z</time></trkpt><trkpt lat="42.715520734855325" lon="12.725771600127567"><ele>397.1666666666667</ele><time>2026-04-11T14:17:04.997Z</time></trkpt><trkpt lat="42.71558997903081" lon="12.725789095028588"><ele>396.0</ele><time>2026-04-11T14:17:05.997Z</time></trkpt><trkpt lat="42.71566087065791" lon="12.725811904264951"><ele>396.0</ele><time>2026-04-11T14:17:06.997Z</time></trkpt><trkpt lat="42.71573441673861" lon="12.725838954331124"><ele>396.0</ele><time>2026-04-11T14:17:07.997Z</time></trkpt><trkpt lat="42.71581660438605" lon="12.725866040142959"><ele>396.0</ele><time>2026-04-11T14:17:08.997Z</time></trkpt><trkpt lat="42.71588762547668" lon="12.725887780777526"><ele>396.0</ele><time>2026-04-11T14:17:09.997Z</time></trkpt><trkpt lat="42.71595606332681" lon="12.725897522211111"><ele>396.0</ele><time>2026-04-11T14:17:10.997Z</time></trkpt><trkpt lat="42.716017027059294" lon="12.725873021667782"><ele>396.0</ele><time>2026-04-11T14:17:11.997Z</time></trkpt><trkpt lat="42.716090267363334" lon="12.725838615664129"><ele>396.0</ele><time>2026-04-11T14:17:12.997Z</time></trkpt><trkpt lat="42.716164536991414" lon="12.725752890982871"><ele>395.20000000000005</ele><time>2026-04-11T14:17:13.997Z</time></trkpt><trkpt lat="42.7162383595518" lon="12.725655902907725"><ele>394.40000000000003</ele><time>2026-04-11T14:17:14.997Z</time></trkpt><trkpt lat="42.71630164477144" lon="12.725567774138204"><ele>393.6</ele><time>2026-04-11T14:17:15.997Z</time></trkpt><trkpt lat="42.71635135322877" lon="12.725498128097668"><ele>392.8</ele><time>2026-04-11T14:17:16.997Z</time></trkpt><trkpt lat="42.71642509406461" lon="12.725401590677267"><ele>392.0</ele><time>2026-04-11T14:17:18.997Z</time></trkpt><trkpt lat="42.71666378752469" lon="12.725331634929535"><ele>391.99999999999994</ele><time>2026-04-11T14:17:21.997Z</time></trkpt><trkpt lat="42.71671092353515" lon="12.725388561556"><ele>392.0</ele><time>2026-04-11T14:17:22.997Z</time></trkpt><trkpt lat="42.71679942895613" lon="12.725495733083973"><ele>392.0</ele><time>2026-04-11T14:17:24.997Z</time></trkpt><trkpt lat="42.716880464872204" lon="12.725594151034636"><ele>392.0</ele><time>2026-04-11T14:17:26.997Z</time></trkpt><trkpt lat="42.71693405265663" lon="12.725659240704259"><ele>391.99999999999994</ele><time>2026-04-11T14:17:28.997Z</time></trkpt><trkpt lat="42.71698298489974" lon="12.725718668863648"><ele>392.0</ele><time>2026-04-11T14:17:30.998Z</time></trkpt><trkpt lat="42.71704560494272" lon="12.725794748658274"><ele>392.6</ele><time>2026-04-11T14:17:33.998Z</time></trkpt><trkpt lat="42.71710965327746" lon="12.725872591492111"><ele>393.20000000000005</ele><time>2026-04-11T14:17:35.998Z</time></trkpt><trkpt lat="42.71717893498556" lon="12.72595679492511"><ele>393.8</ele><time>2026-04-11T14:17:37.998Z</time></trkpt><trkpt lat="42.71726590743267" lon="12.726062499291334"><ele>394.4</ele><time>2026-04-11T14:17:39.998Z</time></trkpt><trkpt lat="42.717324354147785" lon="12.726133534121724"><ele>395.0</ele><time>2026-04-11T14:17:41.998Z</time></trkpt><trkpt lat="42.71739718881867" lon="12.726221996664432"><ele>395.0</ele><time>2026-04-11T14:17:43.998Z</time></trkpt><trkpt lat="42.71745383503019" lon="12.7262902603201"><ele>395.0</ele><time>2026-04-11T14:17:44.998Z</time></trkpt><trkpt lat="42.717512618990995" lon="12.726361100117044"><ele>395.0</ele><time>2026-04-11T14:17:45.998Z</time></trkpt><trkpt lat="42.71759684417627" lon="12.726462598795388"><ele>395.0</ele><time>2026-04-11T14:17:47.998Z</time></trkpt><trkpt lat="42.71768721442073" lon="12.726571502758876"><ele>395.0</ele><time>2026-04-11T14:17:49.998Z</time></trkpt><trkpt lat="42.717747980235714" lon="12.726644730807951"><ele>394.66666666666663</ele><time>2026-04-11T14:17:50.998Z</time></trkpt><trkpt lat="42.71781143233005" lon="12.726721196659321"><ele>394.3333333333333</ele><time>2026-04-11T14:17:51.998Z</time></trkpt><trkpt lat="42.71785918375815" lon="12.726778740727925"><ele>394.0</ele><time>2026-04-11T14:17:52.998Z</time></trkpt><trkpt lat="42.717914714785984" lon="12.726845660467312"><ele>393.66666666666663</ele><time>2026-04-11T14:17:53.998Z</time></trkpt><trkpt lat="42.71796838497912" lon="12.726910337756719"><ele>393.3333333333333</ele><time>2026-04-11T14:17:54.998Z</time></trkpt><trkpt lat="42.71802655749346" lon="12.726981094625778"><ele>393.0</ele><time>2026-04-11T14:17:55.998Z</time></trkpt><trkpt lat="42.7180887250404" lon="12.727056980794744"><ele>392.1666666666667</ele><time>2026-04-11T14:17:56.998Z</time></trkpt><trkpt lat="42.718152214573855" lon="12.727134480592488"><ele>391.33333333333337</ele><time>2026-04-11T14:17:57.998Z</time></trkpt><trkpt lat="42.71821473244643" lon="12.727210794531945"><ele>390.5</ele><time>2026-04-11T14:17:58.998Z</time></trkpt><trkpt lat="42.71828101727907" lon="12.727291706446708"><ele>389.6666666666667</ele><time>2026-04-11T14:17:59.998Z</time></trkpt><trkpt lat="42.718344368305964" lon="12.727369037196866"><ele>388.83333333333337</ele><time>2026-04-11T14:18:00.998Z</time></trkpt><trkpt lat="42.718405714202625" lon="12.72744367302728"><ele>388.0</ele><time>2026-04-11T14:18:01.998Z</time></trkpt><trkpt lat="42.71826710922713" lon="12.727816201784458"><ele>387.83333333333337</ele><time>2026-04-11T14:18:02.998Z</time></trkpt><trkpt lat="42.71830777319392" lon="12.727895066778126"><ele>387.6666666666667</ele><time>2026-04-11T14:18:03.998Z</time></trkpt><trkpt lat="42.71836465595556" lon="12.727973874858499"><ele>387.5</ele><time>2026-04-11T14:18:04.998Z</time></trkpt><trkpt lat="42.71843710160472" lon="12.728055555370927"><ele>387.33333333333337</ele><time>2026-04-11T14:18:05.998Z</time></trkpt><trkpt lat="42.718499520521085" lon="12.728134568681199"><ele>387.1666666666667</ele><time>2026-04-11T14:18:06.998Z</time></trkpt><trkpt lat="42.71856660968845" lon="12.728200036500047"><ele>387.0</ele><time>2026-04-11T14:18:07.998Z</time></trkpt><trkpt lat="42.71861308512948" lon="12.728265544442621"><ele>386.6666666666667</ele><time>2026-04-11T14:18:08.998Z</time></trkpt><trkpt lat="42.71868320203866" lon="12.728386323993417"><ele>386.33333333333337</ele><time>2026-04-11T14:18:10.998Z</time></trkpt><trkpt lat="42.718724744684906" lon="12.728455138492162"><ele>386.0</ele><time>2026-04-11T14:18:12.998Z</time></trkpt><trkpt lat="42.71878349754098" lon="12.728488400871997"><ele>385.6666666666667</ele><time>2026-04-11T14:18:19.998Z</time></trkpt><trkpt lat="42.71884130180966" lon="12.728524282466717"><ele>385.33333333333337</ele><time>2026-04-11T14:18:22.998Z</time></trkpt><trkpt lat="42.71891087451735" lon="12.728513164447225"><ele>385.0</ele><time>2026-04-11T14:18:26.998Z</time></trkpt><trkpt lat="42.7189944335373" lon="12.728504316831078"><ele>385.0</ele><time>2026-04-11T14:18:28.997Z</time></trkpt><trkpt lat="42.71908166706266" lon="12.728559543820904"><ele>385.0</ele><time>2026-04-11T14:18:30.997Z</time></trkpt><trkpt lat="42.71914872894572" lon="12.72864337336426"><ele>385.0</ele><time>2026-04-11T14:18:32.997Z</time></trkpt><trkpt lat="42.71919841989128" lon="12.728706206396765"><ele>385.0</ele><time>2026-04-11T14:18:34.997Z</time></trkpt><trkpt lat="42.71914397275317" lon="12.728811644189108"><ele>385.0</ele><time>2026-04-11T14:18:36.997Z</time></trkpt><trkpt lat="42.7191060146331" lon="12.728937537062864"><ele>385.1666666666667</ele><time>2026-04-11T14:18:38.997Z</time></trkpt><trkpt lat="42.71913364586096" lon="12.729051643488685"><ele>385.33333333333337</ele><time>2026-04-11T14:18:43.997Z</time></trkpt><trkpt lat="42.719183907151184" lon="12.729104441064027"><ele>385.5</ele><time>2026-04-11T14:18:46.997Z</time></trkpt><trkpt lat="42.719238017834044" lon="12.729207668533062"><ele>385.66666666666663</ele><time>2026-04-11T14:18:49.997Z</time></trkpt><trkpt lat="42.719282308845756" lon="12.729290477990979"><ele>385.8333333333333</ele><time>2026-04-11T14:18:50.997Z</time></trkpt><trkpt lat="42.71931976854728" lon="12.729361172824897"><ele>386.0</ele><time>2026-04-11T14:18:51.997Z</time></trkpt><trkpt lat="42.71939444917639" lon="12.729485193660324"><ele>386.16666666666663</ele><time>2026-04-11T14:18:53.997Z</time></trkpt><trkpt lat="42.719434147471986" lon="12.729555598017535"><ele>386.3333333333333</ele><time>2026-04-11T14:18:54.997Z</time></trkpt><trkpt lat="42.719516604889115" lon="12.729636566064844"><ele>386.5</ele><time>2026-04-11T14:18:56.997Z</time></trkpt><trkpt lat="42.719580664577315" lon="12.729654245033327"><ele>386.66666666666663</ele><time>2026-04-11T14:19:03.997Z</time></trkpt><trkpt lat="42.71949299879004" lon="12.729594914867688"><ele>386.8333333333333</ele><time>2026-04-11T14:19:07.997Z</time></trkpt><trkpt lat="42.71942255108627" lon="12.729512679272588"><ele>387.0</ele><time>2026-04-11T14:19:08.997Z</time></trkpt><trkpt lat="42.719352512625775" lon="12.729398481293206"><ele>386.8</ele><time>2026-04-11T14:19:09.997Z</time></trkpt><trkpt lat="42.71929439611068" lon="12.729288261678725"><ele>386.6</ele><time>2026-04-11T14:19:10.997Z</time></trkpt><trkpt lat="42.71923229180893" lon="12.729194504689945"><ele>386.40000000000003</ele><time>2026-04-11T14:19:11.997Z</time></trkpt><trkpt lat="42.71918778744887" lon="12.729133893195495"><ele>386.20000000000005</ele><time>2026-04-11T14:19:12.997Z</time></trkpt><trkpt lat="42.71911163908961" lon="12.72902067842619"><ele>386.0</ele><time>2026-04-11T14:19:14.997Z</time></trkpt><trkpt lat="42.71911155380527" lon="12.728899297965597"><ele>385.99999999999994</ele><time>2026-04-11T14:19:16.997Z</time></trkpt><trkpt lat="42.71918195073213" lon="12.728720117974905"><ele>386.0</ele><time>2026-04-11T14:19:18.997Z</time></trkpt><trkpt lat="42.719223432924764" lon="12.728610682963332"><ele>386.0</ele><time>2026-04-11T14:19:19.997Z</time></trkpt><trkpt lat="42.71924009175831" lon="12.728521469945566"><ele>386.0</ele><time>2026-04-11T14:19:20.997Z</time></trkpt><trkpt lat="42.719230472273296" lon="12.728427568015368"><ele>385.99999999999994</ele><time>2026-04-11T14:19:22.997Z</time></trkpt><trkpt lat="42.71930242497557" lon="12.728419227406375"><ele>386.0</ele><time>2026-04-11T14:19:24.997Z</time></trkpt><trkpt lat="42.719403035034794" lon="12.728516392861954"><ele>386.0</ele><time>2026-04-11T14:19:26.997Z</time></trkpt><trkpt lat="42.71946604704275" lon="12.728616131800681"><ele>386.0</ele><time>2026-04-11T14:19:27.997Z</time></trkpt><trkpt lat="42.719541919277674" lon="12.728723555249815"><ele>386.0</ele><time>2026-04-11T14:19:28.997Z</time></trkpt><trkpt lat="42.71963741142483" lon="12.728836844745468"><ele>386.0</ele><time>2026-04-11T14:19:29.997Z</time></trkpt><trkpt lat="42.71973997095887" lon="12.728957038348135"><ele>386.0</ele><time>2026-04-11T14:19:30.997Z</time></trkpt><trkpt lat="42.71985689371488" lon="12.729093124135547"><ele>386.0</ele><time>2026-04-11T14:19:31.997Z</time></trkpt><trkpt lat="42.71997559429255" lon="12.729244911944663"><ele>386.0</ele><time>2026-04-11T14:19:32.997Z</time></trkpt><trkpt lat="42.72009107970514" lon="12.729391938817603"><ele>385.3333333333333</ele><time>2026-04-11T14:19:33.997Z</time></trkpt><trkpt lat="42.7202094549223" lon="12.72953042368369"><ele>384.66666666666663</ele><time>2026-04-11T14:19:34.997Z</time></trkpt><trkpt lat="42.720325661148344" lon="12.729659552194628"><ele>384.0</ele><time>2026-04-11T14:19:35.997Z</time></trkpt><trkpt lat="42.72044888118293" lon="12.729809173152242"><ele>384.0</ele><time>2026-04-11T14:19:36.997Z</time></trkpt><trkpt lat="42.720571908617316" lon="12.729959255547195"><ele>384.0</ele><time>2026-04-11T14:19:37.997Z</time></trkpt><trkpt lat="42.72067306514734" lon="12.73009773945426"><ele>384.0</ele><time>2026-04-11T14:19:38.997Z</time></trkpt><trkpt lat="42.72077323741094" lon="12.73022083646086"><ele>384.0</ele><time>2026-04-11T14:19:39.997Z</time></trkpt><trkpt lat="42.72086487338341" lon="12.730323358980016"><ele>384.5</ele><time>2026-04-11T14:19:40.997Z</time></trkpt><trkpt lat="42.72096654591804" lon="12.730438201431078"><ele>385.0</ele><time>2026-04-11T14:19:41.997Z</time></trkpt><trkpt lat="42.72106223690611" lon="12.730553496361013"><ele>385.5</ele><time>2026-04-11T14:19:42.997Z</time></trkpt><trkpt lat="42.72115450776271" lon="12.730671739111424"><ele>386.0</ele><time>2026-04-11T14:19:43.997Z</time></trkpt><trkpt lat="42.721247832786254" lon="12.73078982199367"><ele>386.0</ele><time>2026-04-11T14:19:44.997Z</time></trkpt><trkpt lat="42.72133902775924" lon="12.730901514637544"><ele>386.0</ele><time>2026-04-11T14:19:45.997Z</time></trkpt><trkpt lat="42.72142236459063" lon="12.73101069449241"><ele>386.0</ele><time>2026-04-11T14:19:46.997Z</time></trkpt><trkpt lat="42.721508237725715" lon="12.731122068422707"><ele>386.0</ele><time>2026-04-11T14:19:47.997Z</time></trkpt><trkpt lat="42.72159715904275" lon="12.731229371770194"><ele>385.75</ele><time>2026-04-11T14:19:48.997Z</time></trkpt><trkpt lat="42.72169451765944" lon="12.731338364729831"><ele>385.5</ele><time>2026-04-11T14:19:49.997Z</time></trkpt><trkpt lat="42.72178173604255" lon="12.7314572165154"><ele>385.25</ele><time>2026-04-11T14:19:50.997Z</time></trkpt><trkpt lat="42.721865822558144" lon="12.731577174046517"><ele>385.0</ele><time>2026-04-11T14:19:51.997Z</time></trkpt><trkpt lat="42.721955744733904" lon="12.731698840238916"><ele>384.5</ele><time>2026-04-11T14:19:52.997Z</time></trkpt><trkpt lat="42.72203764056335" lon="12.731829461821215"><ele>384.0</ele><time>2026-04-11T14:19:53.997Z</time></trkpt><trkpt lat="42.72211833272155" lon="12.73196161659282"><ele>383.5</ele><time>2026-04-11T14:19:54.997Z</time></trkpt><trkpt lat="42.72219578053387" lon="12.732108982773324"><ele>383.0</ele><time>2026-04-11T14:19:55.997Z</time></trkpt><trkpt lat="42.72228041630796" lon="12.732256787023562"><ele>383.0</ele><time>2026-04-11T14:19:56.997Z</time></trkpt><trkpt lat="42.72236552371308" lon="12.732415966555667"><ele>383.0</ele><time>2026-04-11T14:19:57.997Z</time></trkpt><trkpt lat="42.72245245284499" lon="12.732570459832129"><ele>383.0</ele><time>2026-04-11T14:19:58.997Z</time></trkpt><trkpt lat="42.72254582146869" lon="12.732733638094615"><ele>383.0</ele><time>2026-04-11T14:19:59.997Z</time></trkpt><trkpt lat="42.722639147560784" lon="12.732898864158736"><ele>385.33333333333337</ele><time>2026-04-11T14:20:00.997Z</time></trkpt><trkpt lat="42.722731136180705" lon="12.733069365058249"><ele>387.6666666666667</ele><time>2026-04-11T14:20:01.997Z</time></trkpt><trkpt lat="42.72282014643345" lon="12.733235151184992"><ele>390.0</ele><time>2026-04-11T14:20:02.997Z</time></trkpt><trkpt lat="42.72291215500753" lon="12.73339524279995"><ele>390.0</ele><time>2026-04-11T14:20:03.997Z</time></trkpt><trkpt lat="42.72300321469397" lon="12.733555190606001"><ele>390.0</ele><time>2026-04-11T14:20:04.997Z</time></trkpt><trkpt lat="42.723093943772284" lon="12.73371517481588"><ele>390.0</ele><time>2026-04-11T14:20:05.997Z</time></trkpt><trkpt lat="42.72318629268844" lon="12.733873354375593"><ele>390.0</ele><time>2026-04-11T14:20:06.997Z</time></trkpt><trkpt lat="42.72328624472247" lon="12.734026012702644"><ele>386.6666666666667</ele><time>2026-04-11T14:20:07.997Z</time></trkpt><trkpt lat="42.72339980268282" lon="12.734173401320708"><ele>383.33333333333337</ele><time>2026-04-11T14:20:08.997Z</time></trkpt><trkpt lat="42.72352506741695" lon="12.73430631477551"><ele>380.0</ele><time>2026-04-11T14:20:09.997Z</time></trkpt><trkpt lat="42.72366163817897" lon="12.73442051516928"><ele>379.5</ele><time>2026-04-11T14:20:10.997Z</time></trkpt><trkpt lat="42.72380031422233" lon="12.7345077707676"><ele>379.0</ele><time>2026-04-11T14:20:11.997Z</time></trkpt><trkpt lat="42.72393711977021" lon="12.73457023787338"><ele>378.5</ele><time>2026-04-11T14:20:12.997Z</time></trkpt><trkpt lat="42.72407195596107" lon="12.73461801794411"><ele>378.0</ele><time>2026-04-11T14:20:13.997Z</time></trkpt><trkpt lat="42.72419907372338" lon="12.734659087297644"><ele>378.0</ele><time>2026-04-11T14:20:14.997Z</time></trkpt><trkpt lat="42.72431579733366" lon="12.734689835427217"><ele>378.0</ele><time>2026-04-11T14:20:15.997Z</time></trkpt><trkpt lat="42.72442555793647" lon="12.734710787486696"><ele>378.0</ele><time>2026-04-11T14:20:16.997Z</time></trkpt><trkpt lat="42.72452249736731" lon="12.734723493911032"><ele>378.0</ele><time>2026-04-11T14:20:17.997Z</time></trkpt><trkpt lat="42.72463280489494" lon="12.734740839719668"><ele>378.0</ele><time>2026-04-11T14:20:18.997Z</time></trkpt><trkpt lat="42.72474641178773" lon="12.734760557632654"><ele>377.5</ele><time>2026-04-11T14:20:19.997Z</time></trkpt><trkpt lat="42.72487039487228" lon="12.734772608354044"><ele>377.0</ele><time>2026-04-11T14:20:20.997Z</time></trkpt><trkpt lat="42.725001415946664" lon="12.734789187987936"><ele>376.5</ele><time>2026-04-11T14:20:21.997Z</time></trkpt><trkpt lat="42.72513609684931" lon="12.734812576866476"><ele>376.0</ele><time>2026-04-11T14:20:22.997Z</time></trkpt><trkpt lat="42.725277341239426" lon="12.734832621865742"><ele>375.25</ele><time>2026-04-11T14:20:23.997Z</time></trkpt><trkpt lat="42.72542347828081" lon="12.734849887460488"><ele>374.5</ele><time>2026-04-11T14:20:24.997Z</time></trkpt><trkpt lat="42.725574850899" lon="12.734867565001245"><ele>373.75</ele><time>2026-04-11T14:20:25.997Z</time></trkpt><trkpt lat="42.725724375358034" lon="12.734887929738345"><ele>373.0</ele><time>2026-04-11T14:20:26.997Z</time></trkpt><trkpt lat="42.72586470286112" lon="12.734907812914972"><ele>373.0</ele><time>2026-04-11T14:20:27.997Z</time></trkpt><trkpt lat="42.72599749119385" lon="12.734921691974515"><ele>373.0</ele><time>2026-04-11T14:20:28.997Z</time></trkpt><trkpt lat="42.72612434547577" lon="12.734935141332276"><ele>373.0</ele><time>2026-04-11T14:20:29.997Z</time></trkpt><trkpt lat="42.72625196555572" lon="12.73494729863151"><ele>373.0</ele><time>2026-04-11T14:20:30.997Z</time></trkpt><trkpt lat="42.726378830549464" lon="12.73497468716377"><ele>372.0</ele><time>2026-04-11T14:20:31.997Z</time></trkpt><trkpt lat="42.726504363958696" lon="12.735013698677147"><ele>371.0</ele><time>2026-04-11T14:20:32.997Z</time></trkpt><trkpt lat="42.72662907982876" lon="12.735070246193787"><ele>370.0</ele><time>2026-04-11T14:20:33.997Z</time></trkpt><trkpt lat="42.72674771370248" lon="12.735138629356067"><ele>369.0</ele><time>2026-04-11T14:20:34.996Z</time></trkpt><trkpt lat="42.72685976833759" lon="12.735228018793256"><ele>368.5</ele><time>2026-04-11T14:20:35.995Z</time></trkpt><trkpt lat="42.72696783015741" lon="12.735322814184778"><ele>368.0</ele><time>2026-04-11T14:20:36.995Z</time></trkpt><trkpt lat="42.72707170212498" lon="12.735416764770886"><ele>367.5</ele><time>2026-04-11T14:20:37.995Z</time></trkpt><trkpt lat="42.727169899355424" lon="12.735514178296516"><ele>367.0</ele><time>2026-04-11T14:20:38.995Z</time></trkpt><trkpt lat="42.727258169516865" lon="12.735624430213957"><ele>367.0</ele><time>2026-04-11T14:20:39.995Z</time></trkpt><trkpt lat="42.727332995279966" lon="12.73572953842838"><ele>367.0</ele><time>2026-04-11T14:20:40.996Z</time></trkpt><trkpt lat="42.727404071959775" lon="12.735833586289823"><ele>367.0</ele><time>2026-04-11T14:20:41.995Z</time></trkpt><trkpt lat="42.72744921438592" lon="12.735911542847205"><ele>367.0</ele><time>2026-04-11T14:20:42.995Z</time></trkpt><trkpt lat="42.727490546908626" lon="12.73602563819865"><ele>367.0</ele><time>2026-04-11T14:20:45.996Z</time></trkpt><trkpt lat="42.72752117216079" lon="12.736168026113216"><ele>366.5</ele><time>2026-04-11T14:20:47.995Z</time></trkpt><trkpt lat="42.727613647864096" lon="12.736225809894407"><ele>366.0</ele><time>2026-04-11T14:20:49.995Z</time></trkpt><trkpt lat="42.727706528395814" lon="12.736154370484208"><ele>365.5</ele><time>2026-04-11T14:20:51.995Z</time></trkpt><trkpt lat="42.72773477261993" lon="12.736005928393759"><ele>365.0</ele><time>2026-04-11T14:20:53.995Z</time></trkpt><trkpt lat="42.72773125491611" lon="12.735918633149339"><ele>364.5</ele><time>2026-04-11T14:20:54.995Z</time></trkpt><trkpt lat="42.72773634640505" lon="12.735831789651813"><ele>364.0</ele><time>2026-04-11T14:20:55.995Z</time></trkpt><trkpt lat="42.72775595825269" lon="12.73574517717532"><ele>364.0</ele><time>2026-04-11T14:20:56.995Z</time></trkpt><trkpt lat="42.72781311763423" lon="12.735625938608832"><ele>364.0</ele><time>2026-04-11T14:20:58.996Z</time></trkpt><trkpt lat="42.727838847261815" lon="12.735547097971278"><ele>364.0</ele><time>2026-04-11T14:21:02.996Z</time></trkpt><trkpt lat="42.727868655100494" lon="12.73545525221158"><ele>364.0</ele><time>2026-04-11T14:21:06.996Z</time></trkpt><trkpt lat="42.727919210025014" lon="12.73536786302823"><ele>364.0</ele><time>2026-04-11T14:21:09.996Z</time></trkpt><trkpt lat="42.72796912105813" lon="12.735464273966056"><ele>364.0</ele><time>2026-04-11T14:21:10.996Z</time></trkpt><trkpt lat="42.728032119092404" lon="12.7354891552039"><ele>364.0</ele><time>2026-04-11T14:21:14.996Z</time></trkpt><trkpt lat="42.728262044018784" lon="12.73524652596899"><ele>364.0</ele><time>2026-04-11T14:21:44.996Z</time></trkpt><trkpt lat="42.7281064148543" lon="12.735187485769856"><ele>364.0</ele><time>2026-04-11T14:21:45.996Z</time></trkpt><trkpt lat="42.728028643627425" lon="12.735141848854905"><ele>364.0</ele><time>2026-04-11T14:21:47.996Z</time></trkpt><trkpt lat="42.72792942892559" lon="12.735216945911485"><ele>364.0</ele><time>2026-04-11T14:21:50.996Z</time></trkpt><trkpt lat="42.72787074140504" lon="12.735375228280143"><ele>364.0</ele><time>2026-04-11T14:21:52.996Z</time></trkpt><trkpt lat="42.72782917127918" lon="12.735486271029473"><ele>364.0</ele><time>2026-04-11T14:21:53.996Z</time></trkpt><trkpt lat="42.7277862574738" lon="12.735597752612462"><ele>364.0</ele><time>2026-04-11T14:21:54.996Z</time></trkpt><trkpt lat="42.72773963287874" lon="12.735702466250503"><ele>364.0</ele><time>2026-04-11T14:21:55.996Z</time></trkpt><trkpt lat="42.7276965128318" lon="12.735786245454202"><ele>364.0</ele><time>2026-04-11T14:21:56.996Z</time></trkpt><trkpt lat="42.72764817503696" lon="12.735843425599692"><ele>364.0</ele><time>2026-04-11T14:21:57.996Z</time></trkpt><trkpt lat="42.72758533596397" lon="12.735866327992786"><ele>364.0</ele><time>2026-04-11T14:21:58.996Z</time></trkpt><trkpt lat="42.72751228286735" lon="12.735838019101486"><ele>364.0</ele><time>2026-04-11T14:21:59.996Z</time></trkpt><trkpt lat="42.72743683750538" lon="12.735772867028182"><ele>364.75</ele><time>2026-04-11T14:22:00.996Z</time></trkpt><trkpt lat="42.727360698973655" lon="12.735675112856494"><ele>365.5</ele><time>2026-04-11T14:22:01.996Z</time></trkpt><trkpt lat="42.727268954025654" lon="12.735556917416078"><ele>366.25</ele><time>2026-04-11T14:22:02.996Z</time></trkpt><trkpt lat="42.72717525141461" lon="12.73543616670447"><ele>367.0</ele><time>2026-04-11T14:22:03.996Z</time></trkpt><trkpt lat="42.727062965209505" lon="12.735317450526962"><ele>367.66666666666663</ele><time>2026-04-11T14:22:04.996Z</time></trkpt><trkpt lat="42.726932072968296" lon="12.735203660392335"><ele>368.3333333333333</ele><time>2026-04-11T14:22:05.996Z</time></trkpt><trkpt lat="42.726786549337746" lon="12.735107967333418"><ele>369.0</ele><time>2026-04-11T14:22:06.996Z</time></trkpt><trkpt lat="42.72664327623475" lon="12.735027300691018"><ele>369.0</ele><time>2026-04-11T14:22:07.996Z</time></trkpt><trkpt lat="42.7264935835145" lon="12.734956649393542"><ele>369.0</ele><time>2026-04-11T14:22:08.996Z</time></trkpt><trkpt lat="42.726338353153814" lon="12.734909868281473"><ele>369.0</ele><time>2026-04-11T14:22:09.996Z</time></trkpt><trkpt lat="42.726177798112175" lon="12.73488584890104"><ele>370.3333333333333</ele><time>2026-04-11T14:22:10.996Z</time></trkpt><trkpt lat="42.72601004911244" lon="12.734865930664709"><ele>371.66666666666663</ele><time>2026-04-11T14:22:11.996Z</time></trkpt><trkpt lat="42.72583869595029" lon="12.734847367020665"><ele>373.0</ele><time>2026-04-11T14:22:12.996Z</time></trkpt><trkpt lat="42.72567378121418" lon="12.73482686604696"><ele>373.0</ele><time>2026-04-11T14:22:13.996Z</time></trkpt><trkpt lat="42.72552748585935" lon="12.734808595723209"><ele>373.0</ele><time>2026-04-11T14:22:14.996Z</time></trkpt><trkpt lat="42.725375595553984" lon="12.734789606313997"><ele>373.0</ele><time>2026-04-11T14:22:15.996Z</time></trkpt><trkpt lat="42.725231743446024" lon="12.73477347803518"><ele>373.0</ele><time>2026-04-11T14:22:16.996Z</time></trkpt><trkpt lat="42.725097277963336" lon="12.734739809243827"><ele>373.75</ele><time>2026-04-11T14:22:17.996Z</time></trkpt><trkpt lat="42.724960555342626" lon="12.734705484791863"><ele>374.5</ele><time>2026-04-11T14:22:18.996Z</time></trkpt><trkpt lat="42.724821765670185" lon="12.73467851726088"><ele>375.25</ele><time>2026-04-11T14:22:19.996Z</time></trkpt><trkpt lat="42.72469577773384" lon="12.734660513483796"><ele>376.0</ele><time>2026-04-11T14:22:20.996Z</time></trkpt><trkpt lat="42.724561756699075" lon="12.73464132497098"><ele>376.0</ele><time>2026-04-11T14:22:21.996Z</time></trkpt><trkpt lat="42.72442256947067" lon="12.734617578631173"><ele>376.0</ele><time>2026-04-11T14:22:22.996Z</time></trkpt><trkpt lat="42.72427315279577" lon="12.734588217538265"><ele>376.0</ele><time>2026-04-11T14:22:23.996Z</time></trkpt><trkpt lat="42.72411777601361" lon="12.734553375207051"><ele>376.0</ele><time>2026-04-11T14:22:24.996Z</time></trkpt><trkpt lat="42.723964137554354" lon="12.734500689476548"><ele>376.66666666666663</ele><time>2026-04-11T14:22:25.996Z</time></trkpt><trkpt lat="42.72381552986844" lon="12.734423517420552"><ele>377.3333333333333</ele><time>2026-04-11T14:22:26.996Z</time></trkpt><trkpt lat="42.72367537463892" lon="12.734324128261916"><ele>378.0</ele><time>2026-04-11T14:22:27.996Z</time></trkpt><trkpt lat="42.72353503920462" lon="12.734213645532831"><ele>378.6666666666667</ele><time>2026-04-11T14:22:28.996Z</time></trkpt><trkpt lat="42.723406546456985" lon="12.734081100692382"><ele>379.33333333333337</ele><time>2026-04-11T14:22:29.996Z</time></trkpt><trkpt lat="42.72328638324213" lon="12.733931239298322"><ele>380.0</ele><time>2026-04-11T14:22:30.996Z</time></trkpt><trkpt lat="42.72317258186836" lon="12.733766440280727"><ele>380.0</ele><time>2026-04-11T14:22:31.996Z</time></trkpt><trkpt lat="42.72306537168603" lon="12.73358691175951"><ele>380.0</ele><time>2026-04-11T14:22:32.996Z</time></trkpt><trkpt lat="42.722968856733544" lon="12.73341218732964"><ele>380.0</ele><time>2026-04-11T14:22:33.996Z</time></trkpt><trkpt lat="42.722864752581145" lon="12.73322492374667"><ele>381.0</ele><time>2026-04-11T14:22:34.996Z</time></trkpt><trkpt lat="42.72276331600175" lon="12.733040464809333"><ele>382.0</ele><time>2026-04-11T14:22:35.996Z</time></trkpt><trkpt lat="42.72266030552808" lon="12.732862894353577"><ele>383.0</ele><time>2026-04-11T14:22:36.996Z</time></trkpt><trkpt lat="42.722562624785574" lon="12.732682488320137"><ele>383.0</ele><time>2026-04-11T14:22:37.996Z</time></trkpt><trkpt lat="42.72246546236024" lon="12.732507004157608"><ele>383.0</ele><time>2026-04-11T14:22:38.996Z</time></trkpt><trkpt lat="42.72237184498849" lon="12.73233224027398"><ele>383.0</ele><time>2026-04-11T14:22:39.996Z</time></trkpt><trkpt lat="42.722278816865725" lon="12.732162865715427"><ele>383.0</ele><time>2026-04-11T14:22:40.995Z</time></trkpt><trkpt lat="42.722183803856105" lon="12.731992619564508"><ele>383.0</ele><time>2026-04-11T14:22:41.995Z</time></trkpt><trkpt lat="42.72209192468423" lon="12.731819614055954"><ele>383.0</ele><time>2026-04-11T14:22:42.995Z</time></trkpt><trkpt lat="42.72199600509758" lon="12.73165803841928"><ele>383.6666666666667</ele><time>2026-04-11T14:22:43.995Z</time></trkpt><trkpt lat="42.72189295375464" lon="12.731502937721764"><ele>384.33333333333337</ele><time>2026-04-11T14:22:44.994Z</time></trkpt><trkpt lat="42.721782821012425" lon="12.731353984120124"><ele>385.0</ele><time>2026-04-11T14:22:45.994Z</time></trkpt><trkpt lat="42.721671978511026" lon="12.731199628286697"><ele>385.33333333333337</ele><time>2026-04-11T14:22:46.995Z</time></trkpt><trkpt lat="42.72155538937792" lon="12.731047701064037"><ele>385.66666666666663</ele><time>2026-04-11T14:22:47.995Z</time></trkpt><trkpt lat="42.721438156816085" lon="12.730896222310577"><ele>386.0</ele><time>2026-04-11T14:22:48.995Z</time></trkpt><trkpt lat="42.72131916370053" lon="12.73075337115324"><ele>386.0</ele><time>2026-04-11T14:22:49.995Z</time></trkpt><trkpt lat="42.721202623284185" lon="12.73061205131357"><ele>386.0</ele><time>2026-04-11T14:22:50.995Z</time></trkpt><trkpt lat="42.721088630067385" lon="12.73046954700472"><ele>386.0</ele><time>2026-04-11T14:22:51.995Z</time></trkpt><trkpt lat="42.720971743254886" lon="12.730324172409292"><ele>385.3333333333333</ele><time>2026-04-11T14:22:52.995Z</time></trkpt><trkpt lat="42.72085452367624" lon="12.730177354181256"><ele>384.66666666666663</ele><time>2026-04-11T14:22:53.995Z</time></trkpt><trkpt lat="42.720733332571584" lon="12.730036995642395"><ele>384.0</ele><time>2026-04-11T14:22:54.995Z</time></trkpt><trkpt lat="42.72060850343467" lon="12.729901387435719"><ele>384.0</ele><time>2026-04-11T14:22:55.995Z</time></trkpt><trkpt lat="42.720479755587306" lon="12.729765514770785"><ele>384.0</ele><time>2026-04-11T14:22:56.995Z</time></trkpt><trkpt lat="42.72034966709846" lon="12.729619876638305"><ele>384.0</ele><time>2026-04-11T14:22:57.995Z</time></trkpt><trkpt lat="42.720226603907186" lon="12.72947199442175"><ele>384.5</ele><time>2026-04-11T14:22:58.995Z</time></trkpt><trkpt lat="42.720112110511714" lon="12.72933283634807"><ele>385.0</ele><time>2026-04-11T14:22:59.995Z</time></trkpt><trkpt lat="42.71999980038918" lon="12.72919913847636"><ele>385.5</ele><time>2026-04-11T14:23:00.995Z</time></trkpt><trkpt lat="42.719891924222324" lon="12.729069271412635"><ele>386.0</ele><time>2026-04-11T14:23:01.995Z</time></trkpt><trkpt lat="42.719791002374166" lon="12.728938737918952"><ele>386.0</ele><time>2026-04-11T14:23:02.995Z</time></trkpt><trkpt lat="42.71969566066716" lon="12.728821218737417"><ele>386.0</ele><time>2026-04-11T14:23:03.995Z</time></trkpt><trkpt lat="42.71962268689498" lon="12.728683318536952"><ele>386.0</ele><time>2026-04-11T14:23:04.995Z</time></trkpt><trkpt lat="42.719533830221366" lon="12.728578538936059"><ele>386.0</ele><time>2026-04-11T14:23:05.995Z</time></trkpt><trkpt lat="42.719452019924155" lon="12.72848072179942"><ele>386.0</ele><time>2026-04-11T14:23:06.995Z</time></trkpt><trkpt lat="42.71937853813664" lon="12.728401829663609"><ele>386.0</ele><time>2026-04-11T14:23:07.995Z</time></trkpt><trkpt lat="42.719317961100295" lon="12.72835650935089"><ele>386.0</ele><time>2026-04-11T14:23:08.995Z</time></trkpt><trkpt lat="42.71925683907614" lon="12.728574811702298"><ele>386.0</ele><time>2026-04-11T14:23:14.995Z</time></trkpt><trkpt lat="42.71922873339784" lon="12.728659384002292"><ele>386.0</ele><time>2026-04-11T14:23:17.995Z</time></trkpt><trkpt lat="42.71933202304178" lon="12.728746210209003"><ele>386.00000000000006</ele><time>2026-04-11T14:23:20.995Z</time></trkpt><trkpt lat="42.71938461417051" lon="12.728798805269909"><ele>386.0</ele><time>2026-04-11T14:23:21.995Z</time></trkpt><trkpt lat="42.719435162340375" lon="12.728852723239209"><ele>386.0</ele><time>2026-04-11T14:23:22.995Z</time></trkpt><trkpt lat="42.71949233181704" lon="12.728916325448477"><ele>386.0</ele><time>2026-04-11T14:23:23.995Z</time></trkpt><trkpt lat="42.719544935209115" lon="12.728974307991455"><ele>386.0</ele><time>2026-04-11T14:23:24.995Z</time></trkpt><trkpt lat="42.719601689221264" lon="12.729028176848445"><ele>386.00000000000006</ele><time>2026-04-11T14:23:25.995Z</time></trkpt><trkpt lat="42.719655406094304" lon="12.729091913725318"><ele>386.0</ele><time>2026-04-11T14:23:26.995Z</time></trkpt><trkpt lat="42.71971874522467" lon="12.729176883051343"><ele>385.99999999999994</ele><time>2026-04-11T14:23:27.995Z</time></trkpt><trkpt lat="42.71978044737074" lon="12.729263534070926"><ele>386.0</ele><time>2026-04-11T14:23:28.995Z</time></trkpt><trkpt lat="42.71983575229937" lon="12.729343609744603"><ele>386.0</ele><time>2026-04-11T14:23:29.995Z</time></trkpt><trkpt lat="42.71989639594516" lon="12.729419149776092"><ele>386.0</ele><time>2026-04-11T14:23:30.995Z</time></trkpt><trkpt lat="42.71996012371299" lon="12.729500778803203"><ele>385.99999999999994</ele><time>2026-04-11T14:23:31.995Z</time></trkpt><trkpt lat="42.72002337713707" lon="12.729572918195512"><ele>386.0</ele><time>2026-04-11T14:23:32.995Z</time></trkpt><trkpt lat="42.72008453402392" lon="12.729642041030932"><ele>385.66666666666663</ele><time>2026-04-11T14:23:33.995Z</time></trkpt><trkpt lat="42.72014132553333" lon="12.729698545081437"><ele>385.3333333333333</ele><time>2026-04-11T14:23:34.995Z</time></trkpt><trkpt lat="42.720194462637394" lon="12.729747913057077"><ele>385.0</ele><time>2026-04-11T14:23:35.995Z</time></trkpt><trkpt lat="42.72024893102892" lon="12.729794803875187"><ele>384.66666666666663</ele><time>2026-04-11T14:23:36.995Z</time></trkpt><trkpt lat="42.7203281872601" lon="12.729864759116447"><ele>384.3333333333333</ele><time>2026-04-11T14:23:38.995Z</time></trkpt><trkpt lat="42.72040811818614" lon="12.729941730873373"><ele>384.0</ele><time>2026-04-11T14:23:43.995Z</time></trkpt><trkpt lat="42.72046972695635" lon="12.730001361030128"><ele>384.0</ele><time>2026-04-11T14:23:45.995Z</time></trkpt><trkpt lat="42.72054504778332" lon="12.730058082647542"><ele>384.0</ele><time>2026-04-11T14:23:47.995Z</time></trkpt><trkpt lat="42.72060933034126" lon="12.730137278403667"><ele>384.0</ele><time>2026-04-11T14:23:49.995Z</time></trkpt><trkpt lat="42.7206787995163" lon="12.730222864010809"><ele>384.0</ele><time>2026-04-11T14:23:51.995Z</time></trkpt><trkpt lat="42.72075196273522" lon="12.73031300061759"><ele>384.0</ele><time>2026-04-11T14:23:53.995Z</time></trkpt><trkpt lat="42.7208381582553" lon="12.730419193040955"><ele>384.4</ele><time>2026-04-11T14:23:55.995Z</time></trkpt><trkpt lat="42.720929078171515" lon="12.73053046874461"><ele>384.79999999999995</ele><time>2026-04-11T14:23:57.995Z</time></trkpt><trkpt lat="42.72102484151798" lon="12.730647610926573"><ele>385.20000000000005</ele><time>2026-04-11T14:23:59.995Z</time></trkpt><trkpt lat="42.72108096811051" lon="12.73071626851021"><ele>385.6</ele><time>2026-04-11T14:24:00.995Z</time></trkpt><trkpt lat="42.721133307113746" lon="12.73078027724579"><ele>386.0</ele><time>2026-04-11T14:24:01.995Z</time></trkpt><trkpt lat="42.72121959803388" lon="12.730885813768209"><ele>386.00000000000006</ele><time>2026-04-11T14:24:03.995Z</time></trkpt><trkpt lat="42.721272032715795" lon="12.730949943069158"><ele>386.0</ele><time>2026-04-11T14:24:05.995Z</time></trkpt><trkpt lat="42.721320379087146" lon="12.731009072146676"><ele>386.0</ele><time>2026-04-11T14:24:07.995Z</time></trkpt><trkpt lat="42.721387135635844" lon="12.731090717636832"><ele>386.0</ele><time>2026-04-11T14:24:10.996Z</time></trkpt><trkpt lat="42.721440009889804" lon="12.731155384519822"><ele>386.0</ele><time>2026-04-11T14:24:12.996Z</time></trkpt><trkpt lat="42.72149327462655" lon="12.731220530637291"><ele>386.00000000000006</ele><time>2026-04-11T14:24:15.996Z</time></trkpt><trkpt lat="42.72154659280111" lon="12.731285743792979"><ele>386.0</ele><time>2026-04-11T14:24:19.996Z</time></trkpt><trkpt lat="42.721623437476985" lon="12.731383136728455"><ele>385.8</ele><time>2026-04-11T14:24:21.996Z</time></trkpt><trkpt lat="42.72169112436993" lon="12.731477110771449"><ele>385.6</ele><time>2026-04-11T14:24:23.996Z</time></trkpt><trkpt lat="42.721751830634204" lon="12.731560312669611"><ele>385.4</ele><time>2026-04-11T14:24:25.996Z</time></trkpt><trkpt lat="42.72180005567528" lon="12.73164802792763"><ele>385.2</ele><time>2026-04-11T14:24:27.996Z</time></trkpt><trkpt lat="42.721888101317816" lon="12.731722271667557"><ele>385.0</ele><time>2026-04-11T14:24:29.996Z</time></trkpt><trkpt lat="42.721960373130685" lon="12.73182872957162"><ele>384.5</ele><time>2026-04-11T14:24:31.996Z</time></trkpt><trkpt lat="42.72199516661535" lon="12.731948563673251"><ele>384.0</ele><time>2026-04-11T14:24:34.996Z</time></trkpt><trkpt lat="42.722050309759396" lon="12.732036782526523"><ele>383.5</ele><time>2026-04-11T14:24:37.996Z</time></trkpt><trkpt lat="42.721838479472936" lon="12.732262543920623"><ele>383.0</ele><time>2026-04-11T14:24:41.996Z</time></trkpt><trkpt lat="42.721770882158275" lon="12.732302066175608"><ele>383.57142857142856</ele><time>2026-04-11T14:24:42.996Z</time></trkpt><trkpt lat="42.721709110054256" lon="12.732333999387361"><ele>384.1428571428571</ele><time>2026-04-11T14:24:43.996Z</time></trkpt><trkpt lat="42.72163873966874" lon="12.73237330560211"><ele>384.7142857142857</ele><time>2026-04-11T14:24:44.996Z</time></trkpt><trkpt lat="42.72158365605003" lon="12.73241500757433"><ele>385.2857142857143</ele><time>2026-04-11T14:24:45.996Z</time></trkpt><trkpt lat="42.72151075998183" lon="12.732499446744884"><ele>385.8571428571429</ele><time>2026-04-11T14:24:47.993Z</time></trkpt><trkpt lat="42.721447585858336" lon="12.732476087461071"><ele>386.42857142857144</ele><time>2026-04-11T14:24:50.994Z</time></trkpt><trkpt lat="42.721461439030286" lon="12.732382940423111"><ele>387.0</ele><time>2026-04-11T14:24:52.994Z</time></trkpt><trkpt lat="42.72144630043121" lon="12.732283666486117"><ele>387.0</ele><time>2026-04-11T14:24:54.994Z</time></trkpt><trkpt lat="42.72137318181552" lon="12.732296141090819"><ele>387.0</ele><time>2026-04-11T14:24:56.994Z</time></trkpt><trkpt lat="42.721300350446484" lon="12.732391036756947"><ele>387.0</ele><time>2026-04-11T14:24:58.994Z</time></trkpt><trkpt lat="42.721218972363076" lon="12.732482588784304"><ele>387.0</ele><time>2026-04-11T14:25:00.994Z</time></trkpt><trkpt lat="42.72111897236743" lon="12.732461815707707"><ele>387.0</ele><time>2026-04-11T14:25:03.994Z</time></trkpt><trkpt lat="42.72104832277684" lon="12.732365149245208"><ele>388.8</ele><time>2026-04-11T14:25:05.994Z</time></trkpt><trkpt lat="42.72092550792005" lon="12.732348971252154"><ele>390.6</ele><time>2026-04-11T14:25:07.994Z</time></trkpt><trkpt lat="42.720866431165646" lon="12.732379635538198"><ele>392.40000000000003</ele><time>2026-04-11T14:25:08.994Z</time></trkpt><trkpt lat="42.72076832031132" lon="12.732490116606161"><ele>394.20000000000005</ele><time>2026-04-11T14:25:10.994Z</time></trkpt><trkpt lat="42.720739332321436" lon="12.732580101314754"><ele>396.0</ele><time>2026-04-11T14:25:11.994Z</time></trkpt><trkpt lat="42.720683404565804" lon="12.732644896922768"><ele>396.0</ele><time>2026-04-11T14:25:13.994Z</time></trkpt><trkpt lat="42.72060143559365" lon="12.7326690578583"><ele>396.0</ele><time>2026-04-11T14:25:29.994Z</time></trkpt><trkpt lat="42.72060796261827" lon="12.732542683515545"><ele>396.0</ele><time>2026-04-11T14:25:32.994Z</time></trkpt><trkpt lat="42.720532965568694" lon="12.732504655227057"><ele>396.0</ele><time>2026-04-11T14:25:34.994Z</time></trkpt><trkpt lat="42.720472535175034" lon="12.73247576597677"><ele>396.0</ele><time>2026-04-11T14:25:35.994Z</time></trkpt><trkpt lat="42.72038548361352" lon="12.73244215311252"><ele>396.0</ele><time>2026-04-11T14:25:36.994Z</time></trkpt><trkpt lat="42.720304734548236" lon="12.732413514320143"><ele>398.3333333333333</ele><time>2026-04-11T14:25:37.994Z</time></trkpt><trkpt lat="42.720228398087045" lon="12.73238799396976"><ele>400.66666666666663</ele><time>2026-04-11T14:25:38.994Z</time></trkpt><trkpt lat="42.72015200707477" lon="12.732362455227705"><ele>403.0</ele><time>2026-04-11T14:25:39.994Z</time></trkpt><trkpt lat="42.72007419379534" lon="12.732335844190262"><ele>405.3333333333333</ele><time>2026-04-11T14:25:40.994Z</time></trkpt><trkpt lat="42.71999268466357" lon="12.732308000575834"><ele>407.66666666666663</ele><time>2026-04-11T14:25:41.994Z</time></trkpt><trkpt lat="42.719911539767004" lon="12.732280281381216"><ele>410.0</ele><time>2026-04-11T14:25:42.994Z</time></trkpt><trkpt lat="42.71984337609515" lon="12.732255206263785"><ele>410.0</ele><time>2026-04-11T14:25:43.994Z</time></trkpt><trkpt lat="42.71977242981798" lon="12.732228771597327"><ele>410.0</ele><time>2026-04-11T14:25:44.994Z</time></trkpt><trkpt lat="42.71970974095759" lon="12.732205413319752"><ele>410.0</ele><time>2026-04-11T14:25:45.994Z</time></trkpt><trkpt lat="42.71957269484361" lon="12.732154347255074"><ele>410.0</ele><time>2026-04-11T14:25:47.994Z</time></trkpt><trkpt lat="42.71947714575169" lon="12.732118743795102"><ele>410.0</ele><time>2026-04-11T14:25:49.994Z</time></trkpt><trkpt lat="42.71933806868155" lon="12.73255886186642"><ele>413.6</ele><time>2026-04-11T14:25:50.994Z</time></trkpt><trkpt lat="42.71926359056207" lon="12.732554135978365"><ele>417.2</ele><time>2026-04-11T14:25:51.994Z</time></trkpt><trkpt lat="42.71919482785158" lon="12.732592181612347"><ele>420.79999999999995</ele><time>2026-04-11T14:25:52.994Z</time></trkpt><trkpt lat="42.719093233730476" lon="12.73262379962818"><ele>424.4</ele><time>2026-04-11T14:25:54.994Z</time></trkpt><trkpt lat="42.71898377244683" lon="12.732615971700602"><ele>428.0</ele><time>2026-04-11T14:25:56.994Z</time></trkpt><trkpt lat="42.71888929036091" lon="12.73257738498108"><ele>427.99999999999994</ele><time>2026-04-11T14:25:58.994Z</time></trkpt><trkpt lat="42.71876655365459" lon="12.73253515045752"><ele>428.0</ele><time>2026-04-11T14:26:00.994Z</time></trkpt><trkpt lat="42.7186971544769" lon="12.73251619881307"><ele>428.0</ele><time>2026-04-11T14:26:01.994Z</time></trkpt><trkpt lat="42.71862316503016" lon="12.732493729704904"><ele>428.0</ele><time>2026-04-11T14:26:02.994Z</time></trkpt><trkpt lat="42.71854906945626" lon="12.732461797452075"><ele>427.99999999999994</ele><time>2026-04-11T14:26:03.994Z</time></trkpt><trkpt lat="42.718475907456735" lon="12.732428492410476"><ele>428.0</ele><time>2026-04-11T14:26:04.994Z</time></trkpt><trkpt lat="42.718394798044834" lon="12.732394085371155"><ele>431.16666666666663</ele><time>2026-04-11T14:26:05.994Z</time></trkpt><trkpt lat="42.71833125701138" lon="12.732389032404559"><ele>434.3333333333333</ele><time>2026-04-11T14:26:06.994Z</time></trkpt><trkpt lat="42.718262564884874" lon="12.732362517351145"><ele>437.5</ele><time>2026-04-11T14:26:08.994Z</time></trkpt><trkpt lat="42.718179768231145" lon="12.732264966559137"><ele>440.66666666666663</ele><time>2026-04-11T14:26:10.994Z</time></trkpt><trkpt lat="42.71812585570067" lon="12.732186599428104"><ele>443.8333333333333</ele><time>2026-04-11T14:26:11.994Z</time></trkpt><trkpt lat="42.718063172668295" lon="12.732122387089643"><ele>447.0</ele><time>2026-04-11T14:26:12.994Z</time></trkpt><trkpt lat="42.71796586053088" lon="12.732048163242887"><ele>447.0</ele><time>2026-04-11T14:26:14.994Z</time></trkpt><trkpt lat="42.717883215597745" lon="12.73202487868978"><ele>447.0</ele><time>2026-04-11T14:26:16.994Z</time></trkpt><trkpt lat="42.717816172542896" lon="12.7320134964172"><ele>447.0</ele><time>2026-04-11T14:26:17.994Z</time></trkpt><trkpt lat="42.7177501309073" lon="12.732020688333765"><ele>447.0</ele><time>2026-04-11T14:26:18.994Z</time></trkpt><trkpt lat="42.71767856522794" lon="12.732034261939527"><ele>447.0</ele><time>2026-04-11T14:26:19.994Z</time></trkpt><trkpt lat="42.717604242396725" lon="12.732053030802383"><ele>447.0</ele><time>2026-04-11T14:26:20.994Z</time></trkpt><trkpt lat="42.71748548524319" lon="12.732065620897616"><ele>451.40000000000003</ele><time>2026-04-11T14:26:22.994Z</time></trkpt><trkpt lat="42.717424825594534" lon="12.732089016805004"><ele>455.80000000000007</ele><time>2026-04-11T14:26:24.994Z</time></trkpt><trkpt lat="42.71734044667044" lon="12.732119817116168"><ele>460.2</ele><time>2026-04-11T14:26:26.994Z</time></trkpt><trkpt lat="42.71724168201845" lon="12.732178970414093"><ele>464.6</ele><time>2026-04-11T14:26:28.994Z</time></trkpt><trkpt lat="42.71714637388161" lon="12.732230429615209"><ele>469.0</ele><time>2026-04-11T14:26:30.994Z</time></trkpt><trkpt lat="42.71705308508827" lon="12.732289874593164"><ele>469.00000000000006</ele><time>2026-04-11T14:26:32.994Z</time></trkpt><trkpt lat="42.71696711863068" lon="12.732321274418833"><ele>469.0</ele><time>2026-04-11T14:26:34.994Z</time></trkpt><trkpt lat="42.71688547668088" lon="12.732374925164937"><ele>469.0</ele><time>2026-04-11T14:26:36.994Z</time></trkpt><trkpt lat="42.716815247323" lon="12.732438465921398"><ele>469.0</ele><time>2026-04-11T14:26:38.994Z</time></trkpt><trkpt lat="42.71675694491699" lon="12.732475429164777"><ele>469.00000000000006</ele><time>2026-04-11T14:26:40.994Z</time></trkpt><trkpt lat="42.71667709389104" lon="12.73247151616543"><ele>469.0</ele><time>2026-04-11T14:26:43.994Z</time></trkpt><trkpt lat="42.7166077023112" lon="12.732449651921092"><ele>473.1666666666667</ele><time>2026-04-11T14:26:46.994Z</time></trkpt><trkpt lat="42.71660260809111" lon="12.73236274173052"><ele>477.33333333333337</ele><time>2026-04-11T14:26:49.994Z</time></trkpt><trkpt lat="42.7165500278662" lon="12.732287109203218"><ele>481.5</ele><time>2026-04-11T14:26:57.992Z</time></trkpt><trkpt lat="42.71647386422939" lon="12.73222776342335"><ele>485.66666666666663</ele><time>2026-04-11T14:27:00.992Z</time></trkpt><trkpt lat="42.71640168395006" lon="12.732186340647662"><ele>489.8333333333333</ele><time>2026-04-11T14:27:02.992Z</time></trkpt><trkpt lat="42.716310327979635" lon="12.732140138281354"><ele>494.0</ele><time>2026-04-11T14:27:33.993Z</time></trkpt><trkpt lat="42.716292716596826" lon="12.732272368117735"><ele>493.99999999999994</ele><time>2026-04-11T14:27:37.993Z</time></trkpt><trkpt lat="42.7163201968338" lon="12.732351209388899"><ele>494.0</ele><time>2026-04-11T14:27:39.993Z</time></trkpt><trkpt lat="42.7163588972588" lon="12.732445717435393"><ele>494.0</ele><time>2026-04-11T14:27:41.993Z</time></trkpt><trkpt lat="42.7163372598624" lon="12.732526854576038"><ele>494.0</ele><time>2026-04-11T14:27:44.993Z</time></trkpt><trkpt lat="42.71633912376418" lon="12.732651762599458"><ele>493.99999999999994</ele><time>2026-04-11T14:27:47.993Z</time></trkpt><trkpt lat="42.71635616680089" lon="12.732774762462336"><ele>494.0</ele><time>2026-04-11T14:27:49.993Z</time></trkpt><trkpt lat="42.71638072491943" lon="12.73288184611113"><ele>497.16666666666663</ele><time>2026-04-11T14:27:50.993Z</time></trkpt><trkpt lat="42.71642866640999" lon="12.732984824782811"><ele>500.3333333333333</ele><time>2026-04-11T14:27:51.993Z</time></trkpt><trkpt lat="42.71646982659561" lon="12.733069446311195"><ele>503.5</ele><time>2026-04-11T14:27:52.993Z</time></trkpt><trkpt lat="42.716544962876696" lon="12.733116822898662"><ele>506.66666666666663</ele><time>2026-04-11T14:27:54.993Z</time></trkpt><trkpt lat="42.7166323641824" lon="12.733124994263488"><ele>509.8333333333333</ele><time>2026-04-11T14:27:58.993Z</time></trkpt><trkpt lat="42.71670409558283" lon="12.733173340811495"><ele>513.0</ele><time>2026-04-11T14:28:01.993Z</time></trkpt><trkpt lat="42.716784643338315" lon="12.733201592045996"><ele>513.0000000000001</ele><time>2026-04-11T14:28:03.993Z</time></trkpt><trkpt lat="42.71683666823139" lon="12.733251294944017"><ele>513.0</ele><time>2026-04-11T14:28:04.993Z</time></trkpt><trkpt lat="42.71688973305235" lon="12.733325064569224"><ele>513.0</ele><time>2026-04-11T14:28:06.993Z</time></trkpt><trkpt lat="42.71692405950052" lon="12.733407963914852"><ele>513.0</ele><time>2026-04-11T14:28:08.993Z</time></trkpt><trkpt lat="42.71689499813985" lon="12.733499770446894"><ele>513.0</ele><time>2026-04-11T14:28:10.993Z</time></trkpt><trkpt lat="42.716827598473074" lon="12.733537271527867"><ele>513.0000000000001</ele><time>2026-04-11T14:28:12.993Z</time></trkpt><trkpt lat="42.716769239664174" lon="12.733596764877676"><ele>513.0</ele><time>2026-04-11T14:28:15.993Z</time></trkpt><trkpt lat="42.71671396941502" lon="12.733663594693205"><ele>514.5</ele><time>2026-04-11T14:28:18.993Z</time></trkpt><trkpt lat="42.71662907938867" lon="12.733692483166605"><ele>516.0</ele><time>2026-04-11T14:28:21.993Z</time></trkpt><trkpt lat="42.71656775707009" lon="12.733765085023323"><ele>517.5</ele><time>2026-04-11T14:28:24.993Z</time></trkpt><trkpt lat="42.71651771683954" lon="12.733849236146005"><ele>519.0</ele><time>2026-04-11T14:28:26.993Z</time></trkpt><trkpt lat="42.7164854210686" lon="12.733981829621628"><ele>520.5</ele><time>2026-04-11T14:28:28.993Z</time></trkpt><trkpt lat="42.716444623029275" lon="12.734092487756424"><ele>522.0</ele><time>2026-04-11T14:28:30.993Z</time></trkpt><trkpt lat="42.71640274379132" lon="12.734191675231525"><ele>522.0</ele><time>2026-04-11T14:28:32.993Z</time></trkpt><trkpt lat="42.716402161044286" lon="12.734304518872738"><ele>522.0</ele><time>2026-04-11T14:28:34.993Z</time></trkpt><trkpt lat="42.71640894701174" lon="12.734442936940477"><ele>522.0</ele><time>2026-04-11T14:28:36.993Z</time></trkpt><trkpt lat="42.71640618887396" lon="12.734599879139308"><ele>522.0</ele><time>2026-04-11T14:28:38.993Z</time></trkpt><trkpt lat="42.71635493535868" lon="12.734733762767574"><ele>522.0</ele><time>2026-04-11T14:28:40.993Z</time></trkpt><trkpt lat="42.71631758047492" lon="12.73480815787864"><ele>521.0</ele><time>2026-04-11T14:28:41.993Z</time></trkpt><trkpt lat="42.716275092048555" lon="12.734951504607375"><ele>520.0</ele><time>2026-04-11T14:28:43.993Z</time></trkpt><trkpt lat="42.716264046656974" lon="12.735096761049833"><ele>519.0</ele><time>2026-04-11T14:28:45.993Z</time></trkpt><trkpt lat="42.71620342937653" lon="12.735197044288467"><ele>518.0</ele><time>2026-04-11T14:28:48.993Z</time></trkpt><trkpt lat="42.71613073995679" lon="12.735246523867325"><ele>517.0</ele><time>2026-04-11T14:28:50.993Z</time></trkpt><trkpt lat="42.71605777843433" lon="12.735273482850205"><ele>522.75</ele><time>2026-04-11T14:28:52.993Z</time></trkpt><trkpt lat="42.715969777297445" lon="12.735312457306794"><ele>528.5</ele><time>2026-04-11T14:28:54.993Z</time></trkpt><trkpt lat="42.715863053918014" lon="12.735383108608637"><ele>534.25</ele><time>2026-04-11T14:28:56.993Z</time></trkpt><trkpt lat="42.71572908251487" lon="12.735442733747622"><ele>540.0</ele><time>2026-04-11T14:28:58.992Z</time></trkpt><trkpt lat="42.715627252326435" lon="12.73550042405679"><ele>540.0</ele><time>2026-04-11T14:29:00.992Z</time></trkpt><trkpt lat="42.715538776795924" lon="12.735547883800608"><ele>540.0</ele><time>2026-04-11T14:29:02.992Z</time></trkpt><trkpt lat="42.715467256967194" lon="12.735572269453877"><ele>540.0</ele><time>2026-04-11T14:29:04.992Z</time></trkpt><trkpt lat="42.7154062336926" lon="12.735605768397196"><ele>540.0</ele><time>2026-04-11T14:29:19.991Z</time></trkpt><trkpt lat="42.715326934748425" lon="12.735649282735244"><ele>540.0</ele><time>2026-04-11T14:30:35.992Z</time></trkpt><trkpt lat="42.715269808458885" lon="12.735600969151678"><ele>540.0</ele><time>2026-04-11T14:31:10.991Z</time></trkpt><trkpt lat="42.71520649702972" lon="12.735524850651457"><ele>542.1666666666666</ele><time>2026-04-11T14:31:15.992Z</time></trkpt><trkpt lat="42.71513039107229" lon="12.735499308620035"><ele>544.3333333333334</ele><time>2026-04-11T14:35:27.993Z</time></trkpt><trkpt lat="42.715069906932655" lon="12.735470612207036"><ele>546.5</ele><time>2026-04-11T14:35:30.993Z</time></trkpt><trkpt lat="42.71500384306965" lon="12.735429212443519"><ele>548.6666666666667</ele><time>2026-04-11T14:35:33.993Z</time></trkpt><trkpt lat="42.714943605191564" lon="12.735346435079162"><ele>550.8333333333334</ele><time>2026-04-11T14:35:36.993Z</time></trkpt><trkpt lat="42.71486424292619" lon="12.735282865572033"><ele>553.0</ele><time>2026-04-11T14:35:39.993Z</time></trkpt><trkpt lat="42.71480479829014" lon="12.735230806281484"><ele>557.5</ele><time>2026-04-11T14:35:42.993Z</time></trkpt><trkpt lat="42.71472297539695" lon="12.735185712476326"><ele>562.0</ele><time>2026-04-11T14:35:45.993Z</time></trkpt><trkpt lat="42.71465687318755" lon="12.735143468637581"><ele>566.5</ele><time>2026-04-11T14:35:47.993Z</time></trkpt><trkpt lat="42.714576725552085" lon="12.735101625140665"><ele>571.0</ele><time>2026-04-11T14:35:50.993Z</time></trkpt><trkpt lat="42.71451372231544" lon="12.735052579526355"><ele>575.5</ele><time>2026-04-11T14:35:53.993Z</time></trkpt><trkpt lat="42.71445242088376" lon="12.734992928542079"><ele>580.0</ele><time>2026-04-11T14:35:55.993Z</time></trkpt><trkpt lat="42.714380132358436" lon="12.734961530550958"><ele>580.3333333333334</ele><time>2026-04-11T14:35:57.993Z</time></trkpt><trkpt lat="42.7142953214738" lon="12.734943098302468"><ele>580.6666666666667</ele><time>2026-04-11T14:36:00.993Z</time></trkpt><trkpt lat="42.71421569956987" lon="12.734921925063611"><ele>581.0</ele><time>2026-04-11T14:36:02.993Z</time></trkpt><trkpt lat="42.71415550155618" lon="12.734895223638084"><ele>581.3333333333334</ele><time>2026-04-11T14:36:04.993Z</time></trkpt><trkpt lat="42.714070723505884" lon="12.73486620309384"><ele>581.6666666666666</ele><time>2026-04-11T14:36:07.993Z</time></trkpt><trkpt lat="42.71399389007937" lon="12.734843482777551"><ele>582.0</ele><time>2026-04-11T14:36:09.993Z</time></trkpt><trkpt lat="42.71390911590589" lon="12.73486530279579"><ele>582.0</ele><time>2026-04-11T14:36:11.994Z</time></trkpt><trkpt lat="42.71381839833505" lon="12.734886632778846"><ele>582.0</ele><time>2026-04-11T14:36:13.994Z</time></trkpt><trkpt lat="42.71375531231656" lon="12.734908028806682"><ele>582.0</ele><time>2026-04-11T14:36:15.994Z</time></trkpt><trkpt lat="42.713681907213" lon="12.734897043200595"><ele>582.0</ele><time>2026-04-11T14:36:17.994Z</time></trkpt><trkpt lat="42.7135839323396" lon="12.734886581953953"><ele>582.0</ele><time>2026-04-11T14:36:20.994Z</time></trkpt><trkpt lat="42.71351447992698" lon="12.734890620136921"><ele>582.0</ele><time>2026-04-11T14:36:22.994Z</time></trkpt><trkpt lat="42.71344143721151" lon="12.734881302841714"><ele>585.1666666666666</ele><time>2026-04-11T14:36:24.994Z</time></trkpt><trkpt lat="42.71336016627947" lon="12.734884055725347"><ele>588.3333333333334</ele><time>2026-04-11T14:36:26.994Z</time></trkpt><trkpt lat="42.71328078361101" lon="12.734869662101435"><ele>591.5</ele><time>2026-04-11T14:36:28.994Z</time></trkpt><trkpt lat="42.713192350162366" lon="12.734846625049862"><ele>594.6666666666667</ele><time>2026-04-11T14:36:30.994Z</time></trkpt><trkpt lat="42.71312133368399" lon="12.734853157334138"><ele>597.8333333333334</ele><time>2026-04-11T14:36:32.994Z</time></trkpt><trkpt lat="42.71302550837836" lon="12.734881580579163"><ele>601.0</ele><time>2026-04-11T14:36:34.994Z</time></trkpt><trkpt lat="42.712939152885596" lon="12.734949912104186"><ele>601.0</ele><time>2026-04-11T14:36:36.994Z</time></trkpt><trkpt lat="42.71285606615189" lon="12.735073179197173"><ele>601.0</ele><time>2026-04-11T14:36:38.994Z</time></trkpt><trkpt lat="42.71280941905514" lon="12.735132471572445"><ele>601.0</ele><time>2026-04-11T14:36:39.994Z</time></trkpt><trkpt lat="42.71270433615207" lon="12.735098282593635"><ele>601.0</ele><time>2026-04-11T14:36:40.994Z</time></trkpt><trkpt lat="42.71269422197444" lon="12.73524023436539"><ele>601.0</ele><time>2026-04-11T14:36:41.994Z</time></trkpt><trkpt lat="42.712621317790266" lon="12.73528716883838"><ele>603.3333333333334</ele><time>2026-04-11T14:36:42.994Z</time></trkpt><trkpt lat="42.712553162236915" lon="12.735339583986446"><ele>605.6666666666667</ele><time>2026-04-11T14:36:43.994Z</time></trkpt><trkpt lat="42.71249162710235" lon="12.735378659630406"><ele>608.0</ele><time>2026-04-11T14:36:44.994Z</time></trkpt><trkpt lat="42.71237619932819" lon="12.73545049015152"><ele>610.3333333333334</ele><time>2026-04-11T14:36:46.994Z</time></trkpt><trkpt lat="42.7123221037297" lon="12.735504136760731"><ele>612.6666666666666</ele><time>2026-04-11T14:36:47.994Z</time></trkpt><trkpt lat="42.71226036574084" lon="12.735567552819226"><ele>615.0</ele><time>2026-04-11T14:36:48.994Z</time></trkpt><trkpt lat="42.71219909246535" lon="12.7356327578632"><ele>615.0</ele><time>2026-04-11T14:36:49.994Z</time></trkpt><trkpt lat="42.71214277600658" lon="12.735702330720525"><ele>615.0</ele><time>2026-04-11T14:36:50.994Z</time></trkpt><trkpt lat="42.71208632620473" lon="12.735778917428403"><ele>615.0</ele><time>2026-04-11T14:36:51.994Z</time></trkpt><trkpt lat="42.712023048876326" lon="12.735856144583561"><ele>615.0</ele><time>2026-04-11T14:36:52.994Z</time></trkpt><trkpt lat="42.71196812509231" lon="12.735950367412082"><ele>615.0</ele><time>2026-04-11T14:36:53.994Z</time></trkpt><trkpt lat="42.711916148289916" lon="12.73604050700529"><ele>615.0</ele><time>2026-04-11T14:36:54.994Z</time></trkpt><trkpt lat="42.71185532526933" lon="12.73611866818735"><ele>616.8333333333334</ele><time>2026-04-11T14:36:55.994Z</time></trkpt><trkpt lat="42.711804726657945" lon="12.73619275515715"><ele>618.6666666666666</ele><time>2026-04-11T14:36:56.994Z</time></trkpt><trkpt lat="42.71175487000111" lon="12.736274498496165"><ele>620.5</ele><time>2026-04-11T14:36:57.994Z</time></trkpt><trkpt lat="42.71171369436122" lon="12.73635770156715"><ele>622.3333333333333</ele><time>2026-04-11T14:36:58.994Z</time></trkpt><trkpt lat="42.71166709879649" lon="12.73643556456255"><ele>624.1666666666666</ele><time>2026-04-11T14:36:59.994Z</time></trkpt><trkpt lat="42.71163879062644" lon="12.736522456832965"><ele>626.0</ele><time>2026-04-11T14:37:00.994Z</time></trkpt><trkpt lat="42.71152287600224" lon="12.736621121220622"><ele>626.0</ele><time>2026-04-11T14:37:02.994Z</time></trkpt><trkpt lat="42.71145545375281" lon="12.73665249336157"><ele>626.0</ele><time>2026-04-11T14:37:03.994Z</time></trkpt><trkpt lat="42.711376670280195" lon="12.736662462059194"><ele>626.0</ele><time>2026-04-11T14:37:04.994Z</time></trkpt><trkpt lat="42.711306535140224" lon="12.736657308059023"><ele>626.0</ele><time>2026-04-11T14:37:05.994Z</time></trkpt><trkpt lat="42.71123633060986" lon="12.736650233899457"><ele>626.0</ele><time>2026-04-11T14:37:06.994Z</time></trkpt><trkpt lat="42.711142786302425" lon="12.736648054210562"><ele>626.0</ele><time>2026-04-11T14:37:07.994Z</time></trkpt><trkpt lat="42.71106434838141" lon="12.736657271800528"><ele>629.8</ele><time>2026-04-11T14:37:08.994Z</time></trkpt><trkpt lat="42.71097372622146" lon="12.73668122887819"><ele>633.6</ele><time>2026-04-11T14:37:09.994Z</time></trkpt><trkpt lat="42.710874949500344" lon="12.736704869548962"><ele>637.4</ele><time>2026-04-11T14:37:10.994Z</time></trkpt><trkpt lat="42.71077073244047" lon="12.736731636402698"><ele>641.2</ele><time>2026-04-11T14:37:11.994Z</time></trkpt><trkpt lat="42.710667805512294" lon="12.736753830553244"><ele>645.0</ele><time>2026-04-11T14:37:12.994Z</time></trkpt><trkpt lat="42.71056061266483" lon="12.736790345345725"><ele>645.0</ele><time>2026-04-11T14:37:13.994Z</time></trkpt><trkpt lat="42.71046880635233" lon="12.736831488155307"><ele>645.0</ele><time>2026-04-11T14:37:14.994Z</time></trkpt><trkpt lat="42.71036414628405" lon="12.73689251309351"><ele>645.0</ele><time>2026-04-11T14:37:15.994Z</time></trkpt><trkpt lat="42.71026068751602" lon="12.736962865415636"><ele>645.0</ele><time>2026-04-11T14:37:16.994Z</time></trkpt><trkpt lat="42.71016893895438" lon="12.737056153631139"><ele>645.0</ele><time>2026-04-11T14:37:17.994Z</time></trkpt><trkpt lat="42.71007636616055" lon="12.737134599004367"><ele>646.4</ele><time>2026-04-11T14:37:18.994Z</time></trkpt><trkpt lat="42.70998466249043" lon="12.73722427304194"><ele>647.8</ele><time>2026-04-11T14:37:19.994Z</time></trkpt><trkpt lat="42.70993434849749" lon="12.737322178746734"><ele>649.2</ele><time>2026-04-11T14:37:20.993Z</time></trkpt><trkpt lat="42.70985238646621" lon="12.737419785517552"><ele>650.6</ele><time>2026-04-11T14:37:21.993Z</time></trkpt><trkpt lat="42.709790677790785" lon="12.737493183861702"><ele>652.0</ele><time>2026-04-11T14:37:22.993Z</time></trkpt><trkpt lat="42.70970881660335" lon="12.737536445638412"><ele>652.0</ele><time>2026-04-11T14:37:23.993Z</time></trkpt><trkpt lat="42.70959258281251" lon="12.737583933488107"><ele>652.0</ele><time>2026-04-11T14:37:24.993Z</time></trkpt><trkpt lat="42.70949060861535" lon="12.737627778385674"><ele>652.0</ele><time>2026-04-11T14:37:25.993Z</time></trkpt><trkpt lat="42.70938161470348" lon="12.737677057880491"><ele>652.0</ele><time>2026-04-11T14:37:26.993Z</time></trkpt><trkpt lat="42.70926771145723" lon="12.737701037734109"><ele>650.0</ele><time>2026-04-11T14:37:27.994Z</time></trkpt><trkpt lat="42.70914541414531" lon="12.737740949120534"><ele>648.0</ele><time>2026-04-11T14:37:28.994Z</time></trkpt><trkpt lat="42.70902569600909" lon="12.737799037581059"><ele>646.0</ele><time>2026-04-11T14:37:29.993Z</time></trkpt><trkpt lat="42.70890982489281" lon="12.7378105229588"><ele>644.0</ele><time>2026-04-11T14:37:30.993Z</time></trkpt><trkpt lat="42.70882445610299" lon="12.737801349652768"><ele>644.0</ele><time>2026-04-11T14:37:31.993Z</time></trkpt><trkpt lat="42.70872776520093" lon="12.737817919878987"><ele>644.0</ele><time>2026-04-11T14:37:32.993Z</time></trkpt><trkpt lat="42.708629188175635" lon="12.737850984813294"><ele>644.0</ele><time>2026-04-11T14:37:33.993Z</time></trkpt><trkpt lat="42.70854214000395" lon="12.73788414892588"><ele>644.0</ele><time>2026-04-11T14:37:34.993Z</time></trkpt><trkpt lat="42.70846502182521" lon="12.737917464312714"><ele>644.0</ele><time>2026-04-11T14:37:35.993Z</time></trkpt><trkpt lat="42.708380654335755" lon="12.737970484017813"><ele>646.6666666666666</ele><time>2026-04-11T14:37:36.993Z</time></trkpt><trkpt lat="42.70830616368165" lon="12.738031207528653"><ele>649.3333333333333</ele><time>2026-04-11T14:37:37.993Z</time></trkpt><trkpt lat="42.70822232049912" lon="12.738086402435467"><ele>652.0</ele><time>2026-04-11T14:37:38.993Z</time></trkpt><trkpt lat="42.70814883812422" lon="12.738152504128378"><ele>654.6666666666666</ele><time>2026-04-11T14:37:39.993Z</time></trkpt><trkpt lat="42.708084402434324" lon="12.738232240349696"><ele>657.3333333333334</ele><time>2026-04-11T14:37:40.993Z</time></trkpt><trkpt lat="42.708025696135394" lon="12.738319213793933"><ele>660.0</ele><time>2026-04-11T14:37:41.993Z</time></trkpt><trkpt lat="42.70797492254645" lon="12.738411873530163"><ele>660.0</ele><time>2026-04-11T14:37:42.993Z</time></trkpt><trkpt lat="42.707911638437174" lon="12.738532756605094"><ele>660.0</ele><time>2026-04-11T14:37:43.993Z</time></trkpt><trkpt lat="42.70784468364798" lon="12.738639227474152"><ele>660.0</ele><time>2026-04-11T14:37:44.993Z</time></trkpt><trkpt lat="42.707786297864644" lon="12.738759904485745"><ele>660.0</ele><time>2026-04-11T14:37:45.993Z</time></trkpt><trkpt lat="42.707721767862225" lon="12.738867961205683"><ele>660.0</ele><time>2026-04-11T14:37:46.993Z</time></trkpt><trkpt lat="42.707662701208676" lon="12.738968788252024"><ele>659.6666666666666</ele><time>2026-04-11T14:37:47.993Z</time></trkpt><trkpt lat="42.707612284205425" lon="12.739064159707956"><ele>659.3333333333334</ele><time>2026-04-11T14:37:48.993Z</time></trkpt><trkpt lat="42.70756587128007" lon="12.73916518143228"><ele>659.0</ele><time>2026-04-11T14:37:49.993Z</time></trkpt><trkpt lat="42.707523946076556" lon="12.73926215476554"><ele>658.6666666666667</ele><time>2026-04-11T14:37:50.993Z</time></trkpt><trkpt lat="42.707469321162115" lon="12.739329025371818"><ele>658.3333333333334</ele><time>2026-04-11T14:37:51.993Z</time></trkpt><trkpt lat="42.707425305014986" lon="12.739404988846616"><ele>658.0</ele><time>2026-04-11T14:37:52.993Z</time></trkpt><trkpt lat="42.707372198934515" lon="12.739489360447994"><ele>657.1666666666667</ele><time>2026-04-11T14:37:53.993Z</time></trkpt><trkpt lat="42.70730988503794" lon="12.73958082409895"><ele>656.3333333333334</ele><time>2026-04-11T14:37:54.993Z</time></trkpt><trkpt lat="42.70724905403463" lon="12.739660565503673"><ele>655.5</ele><time>2026-04-11T14:37:55.993Z</time></trkpt><trkpt lat="42.70717755078895" lon="12.739742028534206"><ele>654.6666666666666</ele><time>2026-04-11T14:37:56.993Z</time></trkpt><trkpt lat="42.70711485283874" lon="12.739822770043753"><ele>653.8333333333333</ele><time>2026-04-11T14:37:57.993Z</time></trkpt><trkpt lat="42.70702951034445" lon="12.739866892784635"><ele>653.0</ele><time>2026-04-11T14:37:58.993Z</time></trkpt><trkpt lat="42.7069405030029" lon="12.739887470307467"><ele>653.5999999999999</ele><time>2026-04-11T14:37:59.993Z</time></trkpt><trkpt lat="42.7068458626642" lon="12.739902095607047"><ele>654.1999999999999</ele><time>2026-04-11T14:38:00.993Z</time></trkpt><trkpt lat="42.70675036672099" lon="12.739932584291635"><ele>654.8</ele><time>2026-04-11T14:38:01.993Z</time></trkpt><trkpt lat="42.70665467537781" lon="12.739954071983332"><ele>655.4</ele><time>2026-04-11T14:38:02.993Z</time></trkpt><trkpt lat="42.70656774190661" lon="12.739976263367383"><ele>656.0</ele><time>2026-04-11T14:38:03.993Z</time></trkpt><trkpt lat="42.70648451849487" lon="12.739998540732707"><ele>656.0</ele><time>2026-04-11T14:38:04.993Z</time></trkpt><trkpt lat="42.706392955357984" lon="12.739994372037822"><ele>656.0</ele><time>2026-04-11T14:38:05.993Z</time></trkpt><trkpt lat="42.70629791476743" lon="12.739986659055642"><ele>656.0</ele><time>2026-04-11T14:38:06.993Z</time></trkpt><trkpt lat="42.70620070735143" lon="12.739984449759463"><ele>656.0</ele><time>2026-04-11T14:38:07.993Z</time></trkpt><trkpt lat="42.706102392436065" lon="12.73997821283602"><ele>656.0</ele><time>2026-04-11T14:38:08.993Z</time></trkpt><trkpt lat="42.705986736235396" lon="12.739966265203002"><ele>658.5999999999999</ele><time>2026-04-11T14:38:09.993Z</time></trkpt><trkpt lat="42.705866968559064" lon="12.739948566418482"><ele>661.2</ele><time>2026-04-11T14:38:10.993Z</time></trkpt><trkpt lat="42.70576058546397" lon="12.739901455335664"><ele>663.8</ele><time>2026-04-11T14:38:11.993Z</time></trkpt><trkpt lat="42.705667618269054" lon="12.739867703185999"><ele>666.4000000000001</ele><time>2026-04-11T14:38:12.993Z</time></trkpt><trkpt lat="42.7055693532465" lon="12.739859282682875"><ele>669.0</ele><time>2026-04-11T14:38:13.993Z</time></trkpt><trkpt lat="42.70547570397797" lon="12.739816865506352"><ele>669.0</ele><time>2026-04-11T14:38:14.993Z</time></trkpt><trkpt lat="42.7053793163924" lon="12.739787185339852"><ele>669.0</ele><time>2026-04-11T14:38:15.993Z</time></trkpt><trkpt lat="42.70527828960666" lon="12.73981466366269"><ele>669.0</ele><time>2026-04-11T14:38:16.993Z</time></trkpt><trkpt lat="42.70518705203729" lon="12.739776964275917"><ele>669.0</ele><time>2026-04-11T14:38:17.993Z</time></trkpt><trkpt lat="42.70509078313013" lon="12.73973652093586"><ele>669.0</ele><time>2026-04-11T14:38:18.993Z</time></trkpt><trkpt lat="42.70499404293682" lon="12.739691521549574"><ele>670.8333333333334</ele><time>2026-04-11T14:38:19.993Z</time></trkpt><trkpt lat="42.70489597834304" lon="12.739669003096877"><ele>672.6666666666666</ele><time>2026-04-11T14:38:20.993Z</time></trkpt><trkpt lat="42.704821271660826" lon="12.739646417724096"><ele>674.5</ele><time>2026-04-11T14:38:21.993Z</time></trkpt><trkpt lat="42.70475149252464" lon="12.739655654346949"><ele>676.3333333333333</ele><time>2026-04-11T14:38:22.993Z</time></trkpt><trkpt lat="42.704650015237284" lon="12.739665705483013"><ele>678.1666666666666</ele><time>2026-04-11T14:38:24.993Z</time></trkpt><trkpt lat="42.70459168947976" lon="12.739622829709198"><ele>680.0</ele><time>2026-04-11T14:38:25.993Z</time></trkpt><trkpt lat="42.704515297961834" lon="12.739533778844194"><ele>680.0</ele><time>2026-04-11T14:38:26.993Z</time></trkpt><trkpt lat="42.704419499895856" lon="12.739440789903796"><ele>680.0</ele><time>2026-04-11T14:38:27.993Z</time></trkpt><trkpt lat="42.704309012908354" lon="12.739393513344222"><ele>680.0</ele><time>2026-04-11T14:38:28.993Z</time></trkpt><trkpt lat="42.704169886512794" lon="12.739341152893095"><ele>680.0</ele><time>2026-04-11T14:38:29.993Z</time></trkpt><trkpt lat="42.70404332384125" lon="12.73935546970491"><ele>680.0</ele><time>2026-04-11T14:38:30.993Z</time></trkpt><trkpt lat="42.703937529385605" lon="12.739359420146053"><ele>680.0</ele><time>2026-04-11T14:38:31.993Z</time></trkpt><trkpt lat="42.70384988382372" lon="12.739366027919948"><ele>680.0</ele><time>2026-04-11T14:38:32.993Z</time></trkpt><trkpt lat="42.70377672266975" lon="12.739344127746193"><ele>680.0</ele><time>2026-04-11T14:38:33.993Z</time></trkpt><trkpt lat="42.70370186613172" lon="12.739336266789815"><ele>680.0</ele><time>2026-04-11T14:38:34.993Z</time></trkpt><trkpt lat="42.70363009552738" lon="12.73933487317535"><ele>680.0</ele><time>2026-04-11T14:38:35.993Z</time></trkpt><trkpt lat="42.7035609707251" lon="12.739314510221089"><ele>680.0</ele><time>2026-04-11T14:38:36.993Z</time></trkpt><trkpt lat="42.70349400749215" lon="12.739316429469675"><ele>680.0</ele><time>2026-04-11T14:38:37.993Z</time></trkpt><trkpt lat="42.70338606919775" lon="12.739350566232805"><ele>680.0</ele><time>2026-04-11T14:38:39.993Z</time></trkpt><trkpt lat="42.703337064698026" lon="12.739418329640364"><ele>680.0</ele><time>2026-04-11T14:38:40.993Z</time></trkpt><trkpt lat="42.70330165127017" lon="12.739507131030946"><ele>680.0</ele><time>2026-04-11T14:38:41.993Z</time></trkpt><trkpt lat="42.703286115493164" lon="12.739619230187571"><ele>680.0</ele><time>2026-04-11T14:38:42.993Z</time></trkpt><trkpt lat="42.70327685256718" lon="12.739748081738483"><ele>684.0</ele><time>2026-04-11T14:38:43.993Z</time></trkpt><trkpt lat="42.703253642033175" lon="12.739875209545449"><ele>688.0</ele><time>2026-04-11T14:38:44.993Z</time></trkpt><trkpt lat="42.703240162546265" lon="12.739982904574552"><ele>692.0</ele><time>2026-04-11T14:38:45.993Z</time></trkpt><trkpt lat="42.70321987503259" lon="12.74009592837508"><ele>696.0</ele><time>2026-04-11T14:38:46.993Z</time></trkpt><trkpt lat="42.70319940178197" lon="12.740215099062187"><ele>700.0</ele><time>2026-04-11T14:38:47.993Z</time></trkpt><trkpt lat="42.703179776109984" lon="12.740334362905692"><ele>704.0</ele><time>2026-04-11T14:38:48.993Z</time></trkpt><trkpt lat="42.70317207554794" lon="12.740451655347412"><ele>706.6</ele><time>2026-04-11T14:38:49.993Z</time></trkpt><trkpt lat="42.70316137997093" lon="12.740579914228386"><ele>709.2</ele><time>2026-04-11T14:38:50.993Z</time></trkpt><trkpt lat="42.70315100623692" lon="12.740719009988196"><ele>711.8000000000001</ele><time>2026-04-11T14:38:51.993Z</time></trkpt><trkpt lat="42.70314685131536" lon="12.74086538441015"><ele>714.4000000000001</ele><time>2026-04-11T14:38:52.993Z</time></trkpt><trkpt lat="42.703151771383304" lon="12.741011460869316"><ele>717.0</ele><time>2026-04-11T14:38:53.993Z</time></trkpt><trkpt lat="42.70315219271735" lon="12.741143310875557"><ele>719.6</ele><time>2026-04-11T14:38:54.993Z</time></trkpt><trkpt lat="42.703145411742604" lon="12.741274687296748"><ele>722.2</ele><time>2026-04-11T14:38:55.993Z</time></trkpt><trkpt lat="42.703133983626074" lon="12.741412059382405"><ele>724.8</ele><time>2026-04-11T14:38:56.993Z</time></trkpt><trkpt lat="42.703121132821465" lon="12.741541200705422"><ele>727.4</ele><time>2026-04-11T14:38:57.993Z</time></trkpt><trkpt lat="42.703097604729436" lon="12.74166956120033"><ele>730.0</ele><time>2026-04-11T14:38:58.993Z</time></trkpt><trkpt lat="42.703055885055335" lon="12.741789793325797"><ele>733.0</ele><time>2026-04-11T14:38:59.993Z</time></trkpt><trkpt lat="42.7030064543407" lon="12.74191023266348"><ele>736.0</ele><time>2026-04-11T14:39:00.993Z</time></trkpt><trkpt lat="42.70296494958503" lon="12.742037806189892"><ele>739.0</ele><time>2026-04-11T14:39:01.993Z</time></trkpt><trkpt lat="42.70292612060987" lon="12.742170339958307"><ele>742.0</ele><time>2026-04-11T14:39:02.993Z</time></trkpt><trkpt lat="42.702898607877856" lon="12.742302919855899"><ele>745.0</ele><time>2026-04-11T14:39:03.993Z</time></trkpt><trkpt lat="42.70287444226521" lon="12.74243149472636"><ele>745.0</ele><time>2026-04-11T14:39:04.993Z</time></trkpt><trkpt lat="42.70286578241655" lon="12.742555462462128"><ele>745.0</ele><time>2026-04-11T14:39:05.993Z</time></trkpt><trkpt lat="42.702841530375444" lon="12.742679754200774"><ele>745.0</ele><time>2026-04-11T14:39:06.993Z</time></trkpt><trkpt lat="42.70278359036814" lon="12.742798149563903"><ele>745.0</ele><time>2026-04-11T14:39:07.993Z</time></trkpt><trkpt lat="42.7027223838583" lon="12.742910856530232"><ele>745.0</ele><time>2026-04-11T14:39:08.993Z</time></trkpt><trkpt lat="42.702670111303725" lon="12.7429989110898"><ele>744.3333333333334</ele><time>2026-04-11T14:39:09.993Z</time></trkpt><trkpt lat="42.70259713557426" lon="12.74306766559827"><ele>743.6666666666667</ele><time>2026-04-11T14:39:10.993Z</time></trkpt><trkpt lat="42.70253518531431" lon="12.743092109873476"><ele>743.0</ele><time>2026-04-11T14:39:11.993Z</time></trkpt><trkpt lat="42.702483727836196" lon="12.743180098587914"><ele>742.3333333333334</ele><time>2026-04-11T14:39:13.994Z</time></trkpt><trkpt lat="42.7024612682346" lon="12.743284230921283"><ele>741.6666666666666</ele><time>2026-04-11T14:39:14.994Z</time></trkpt><trkpt lat="42.70242685475301" lon="12.743381118029449"><ele>741.0</ele><time>2026-04-11T14:39:15.994Z</time></trkpt><trkpt lat="42.702389743114885" lon="12.743464443479034"><ele>741.0</ele><time>2026-04-11T14:39:16.994Z</time></trkpt><trkpt lat="42.70234277922668" lon="12.743542915790512"><ele>741.0</ele><time>2026-04-11T14:39:17.994Z</time></trkpt><trkpt lat="42.70229038337358" lon="12.74366467896065"><ele>741.0</ele><time>2026-04-11T14:39:19.994Z</time></trkpt><trkpt lat="42.70229648337768" lon="12.743793392777741"><ele>741.0</ele><time>2026-04-11T14:39:21.994Z</time></trkpt><trkpt lat="42.702295794413374" lon="12.743879169683678"><ele>741.0</ele><time>2026-04-11T14:39:22.994Z</time></trkpt><trkpt lat="42.70229191403063" lon="12.743981768471182"><ele>741.0</ele><time>2026-04-11T14:39:23.994Z</time></trkpt><trkpt lat="42.70226509856535" lon="12.744075584816978"><ele>743.5</ele><time>2026-04-11T14:39:24.994Z</time></trkpt><trkpt lat="42.70224090689998" lon="12.744166131351726"><ele>746.0</ele><time>2026-04-11T14:39:25.994Z</time></trkpt><trkpt lat="42.70221892801048" lon="12.744256049024179"><ele>748.5</ele><time>2026-04-11T14:39:26.993Z</time></trkpt><trkpt lat="42.70223370361132" lon="12.74439306279517"><ele>751.0</ele><time>2026-04-11T14:39:28.993Z</time></trkpt><trkpt lat="42.70225628666003" lon="12.744480172771867"><ele>753.5</ele><time>2026-04-11T14:39:29.993Z</time></trkpt><trkpt lat="42.70225861883576" lon="12.74458609299624"><ele>756.0</ele><time>2026-04-11T14:39:30.993Z</time></trkpt><trkpt lat="42.70224739697547" lon="12.74467394453443"><ele>756.1666666666666</ele><time>2026-04-11T14:39:31.993Z</time></trkpt><trkpt lat="42.702196047318594" lon="12.744777227214346"><ele>756.3333333333334</ele><time>2026-04-11T14:39:33.993Z</time></trkpt><trkpt lat="42.70224369565513" lon="12.744875936764466"><ele>756.5</ele><time>2026-04-11T14:39:35.994Z</time></trkpt><trkpt lat="42.702318469510956" lon="12.744930605474714"><ele>756.6666666666667</ele><time>2026-04-11T14:39:37.993Z</time></trkpt><trkpt lat="42.70224542248611" lon="12.745028950324233"><ele>756.8333333333334</ele><time>2026-04-11T14:39:49.993Z</time></trkpt><trkpt lat="42.70217878244741" lon="12.745067481345224"><ele>757.0</ele><time>2026-04-11T14:39:50.993Z</time></trkpt><trkpt lat="42.70205882051356" lon="12.745122731982892"><ele>757.0</ele><time>2026-04-11T14:39:52.993Z</time></trkpt><trkpt lat="42.701993505961546" lon="12.74512941083437"><ele>757.0</ele><time>2026-04-11T14:39:53.993Z</time></trkpt><trkpt lat="42.70186471436407" lon="12.745144296699955"><ele>757.0</ele><time>2026-04-11T14:39:55.993Z</time></trkpt><trkpt lat="42.701757480454425" lon="12.745140738772843"><ele>757.0</ele><time>2026-04-11T14:39:57.993Z</time></trkpt><trkpt lat="42.70162451329566" lon="12.745135160702674"><ele>757.0</ele><time>2026-04-11T14:39:59.993Z</time></trkpt><trkpt lat="42.701560844205346" lon="12.745148450511406"><ele>758.3333333333334</ele><time>2026-04-11T14:40:00.993Z</time></trkpt><trkpt lat="42.70146891950368" lon="12.745151479928454"><ele>759.6666666666667</ele><time>2026-04-11T14:40:02.993Z</time></trkpt><trkpt lat="42.70135378926897" lon="12.745190588882322"><ele>761.0</ele><time>2026-04-11T14:40:04.993Z</time></trkpt><trkpt lat="42.701269374093044" lon="12.7452336097567"><ele>762.3333333333334</ele><time>2026-04-11T14:40:05.993Z</time></trkpt><trkpt lat="42.7011957043144" lon="12.745255897732799"><ele>763.6666666666666</ele><time>2026-04-11T14:40:06.993Z</time></trkpt><trkpt lat="42.70113269530093" lon="12.745271461328144"><ele>765.0</ele><time>2026-04-11T14:40:07.993Z</time></trkpt><trkpt lat="42.701026407570964" lon="12.745331844795349"><ele>770.8333333333334</ele><time>2026-04-11T14:40:09.993Z</time></trkpt><trkpt lat="42.70095823690298" lon="12.74540061737198"><ele>776.6666666666667</ele><time>2026-04-11T14:40:10.993Z</time></trkpt><trkpt lat="42.70088011738273" lon="12.745443831026334"><ele>782.5</ele><time>2026-04-11T14:40:11.993Z</time></trkpt><trkpt lat="42.70079114967278" lon="12.74546693553072"><ele>788.3333333333334</ele><time>2026-04-11T14:40:12.993Z</time></trkpt><trkpt lat="42.700719889665265" lon="12.745501038924688"><ele>794.1666666666667</ele><time>2026-04-11T14:40:13.993Z</time></trkpt><trkpt lat="42.70064217465262" lon="12.745557317121994"><ele>800.0</ele><time>2026-04-11T14:40:14.993Z</time></trkpt><trkpt lat="42.70056428102317" lon="12.745599334729265"><ele>800.0</ele><time>2026-04-11T14:40:15.993Z</time></trkpt><trkpt lat="42.7004748415959" lon="12.745630453747536"><ele>800.0</ele><time>2026-04-11T14:40:16.993Z</time></trkpt><trkpt lat="42.70038507176308" lon="12.745660887162327"><ele>800.0</ele><time>2026-04-11T14:40:17.993Z</time></trkpt><trkpt lat="42.70028327540372" lon="12.745727392594192"><ele>800.0</ele><time>2026-04-11T14:40:19.993Z</time></trkpt><trkpt lat="42.70022104726568" lon="12.745712879932736"><ele>800.0</ele><time>2026-04-11T14:40:26.993Z</time></trkpt><trkpt lat="42.700129723827" lon="12.745733306758737"><ele>799.8333333333334</ele><time>2026-04-11T14:40:31.993Z</time></trkpt><trkpt lat="42.70004658936444" lon="12.74578517612808"><ele>799.6666666666667</ele><time>2026-04-11T14:40:33.993Z</time></trkpt><trkpt lat="42.69996664144115" lon="12.745874604761928"><ele>799.5</ele><time>2026-04-11T14:40:35.993Z</time></trkpt><trkpt lat="42.699909039706114" lon="12.745924235925646"><ele>799.3333333333333</ele><time>2026-04-11T14:40:36.993Z</time></trkpt><trkpt lat="42.699888276870055" lon="12.746065849229382"><ele>799.1666666666666</ele><time>2026-04-11T14:40:38.993Z</time></trkpt><trkpt lat="42.69982782971914" lon="12.746126124322783"><ele>799.0</ele><time>2026-04-11T14:40:41.993Z</time></trkpt><trkpt lat="42.699755757560915" lon="12.746026425288735"><ele>803.8333333333333</ele><time>2026-04-11T14:40:43.993Z</time></trkpt><trkpt lat="42.69970181953524" lon="12.746121348916352"><ele>808.6666666666666</ele><time>2026-04-11T14:41:09.993Z</time></trkpt><trkpt lat="42.69979097900002" lon="12.746147518087534"><ele>813.5</ele><time>2026-04-11T14:41:12.993Z</time></trkpt><trkpt lat="42.699736798394554" lon="12.74625212376954"><ele>818.3333333333333</ele><time>2026-04-11T14:41:17.993Z</time></trkpt><trkpt lat="42.69968894750011" lon="12.746317869992446"><ele>823.1666666666666</ele><time>2026-04-11T14:41:19.993Z</time></trkpt><trkpt lat="42.69965759026609" lon="12.746401315086022"><ele>828.0</ele><time>2026-04-11T14:41:21.993Z</time></trkpt><trkpt lat="42.699586300420435" lon="12.746442034948307"><ele>828.0</ele><time>2026-04-11T14:41:23.993Z</time></trkpt><trkpt lat="42.699521146772575" lon="12.746536900067191"><ele>828.0</ele><time>2026-04-11T14:41:26.993Z</time></trkpt><trkpt lat="42.69947976335241" lon="12.746603569284456"><ele>828.0</ele><time>2026-04-11T14:41:28.993Z</time></trkpt><trkpt lat="42.69938760008783" lon="12.746640773399657"><ele>828.0</ele><time>2026-04-11T14:41:31.993Z</time></trkpt><trkpt lat="42.69933183653736" lon="12.746697880570478"><ele>828.0</ele><time>2026-04-11T14:41:33.993Z</time></trkpt><trkpt lat="42.699256008272414" lon="12.746756021882335"><ele>828.0</ele><time>2026-04-11T14:41:35.994Z</time></trkpt><trkpt lat="42.69919907515956" lon="12.746803011789325"><ele>829.1666666666666</ele><time>2026-04-11T14:41:37.995Z</time></trkpt><trkpt lat="42.69914604879465" lon="12.746873137588485"><ele>830.3333333333333</ele><time>2026-04-11T14:41:39.995Z</time></trkpt><trkpt lat="42.699098334169975" lon="12.746966512697732"><ele>831.5</ele><time>2026-04-11T14:41:41.996Z</time></trkpt><trkpt lat="42.699040715192254" lon="12.74706143501715"><ele>832.6666666666666</ele><time>2026-04-11T14:41:43.997Z</time></trkpt><trkpt lat="42.698988209594795" lon="12.747123047451305"><ele>833.8333333333333</ele><time>2026-04-11T14:41:45.997Z</time></trkpt><trkpt lat="42.69894688571927" lon="12.747194070908797"><ele>835.0</ele><time>2026-04-11T14:41:47.998Z</time></trkpt><trkpt lat="42.698894151172" lon="12.747284193973234"><ele>836.1428571428572</ele><time>2026-04-11T14:41:49.998Z</time></trkpt><trkpt lat="42.698861187228566" lon="12.747363978855779"><ele>837.2857142857143</ele><time>2026-04-11T14:41:51.998Z</time></trkpt><trkpt lat="42.6988405878687" lon="12.747453537233346"><ele>838.4285714285714</ele><time>2026-04-11T14:41:53.999Z</time></trkpt><trkpt lat="42.69881568805482" lon="12.747558624817206"><ele>839.5714285714287</ele><time>2026-04-11T14:41:55.999Z</time></trkpt><trkpt lat="42.69874573853678" lon="12.747584932633204"><ele>840.7142857142857</ele><time>2026-04-11T14:41:57.999Z</time></trkpt><trkpt lat="42.698685770689856" lon="12.74761754078691"><ele>841.8571428571429</ele><time>2026-04-11T14:41:59.999Z</time></trkpt><trkpt lat="42.69862337379472" lon="12.747666413252082"><ele>843.0</ele><time>2026-04-11T14:42:02Z</time></trkpt><trkpt lat="42.698558344657954" lon="12.747745786755008"><ele>843.4</ele><time>2026-04-11T14:42:04Z</time></trkpt><trkpt lat="42.69849423498357" lon="12.747799216349135"><ele>843.8</ele><time>2026-04-11T14:42:07Z</time></trkpt><trkpt lat="42.69838210670317" lon="12.747905815283438"><ele>844.2</ele><time>2026-04-11T14:42:23.001Z</time></trkpt><trkpt lat="42.69834168258845" lon="12.747991831269536"><ele>844.6</ele><time>2026-04-11T14:42:25.001Z</time></trkpt><trkpt lat="42.698268772714776" lon="12.748114740386702"><ele>845.0</ele><time>2026-04-11T14:42:27.001Z</time></trkpt><trkpt lat="42.698230501308004" lon="12.74818473077238"><ele>845.0000000000001</ele><time>2026-04-11T14:42:30.001Z</time></trkpt><trkpt lat="42.698205330603344" lon="12.748297492697741"><ele>845.0</ele><time>2026-04-11T14:42:33.001Z</time></trkpt><trkpt lat="42.69819347909203" lon="12.748406001974885"><ele>845.0</ele><time>2026-04-11T14:42:36.001Z</time></trkpt><trkpt lat="42.69820675131417" lon="12.748512063977998"><ele>845.0</ele><time>2026-04-11T14:42:41.001Z</time></trkpt><trkpt lat="42.69818112708207" lon="12.748617129148712"><ele>845.0000000000001</ele><time>2026-04-11T14:42:43.001Z</time></trkpt><trkpt lat="42.69823859051261" lon="12.748657185455201"><ele>845.0</ele><time>2026-04-11T14:42:46.001Z</time></trkpt><trkpt lat="42.69835935822951" lon="12.748591302020902"><ele>845.0000000000001</ele><time>2026-04-11T14:42:48.001Z</time></trkpt><trkpt lat="42.69842318656089" lon="12.7485517920076"><ele>845.0</ele><time>2026-04-11T14:42:49.001Z</time></trkpt><trkpt lat="42.69848878811221" lon="12.748526623551683"><ele>845.0</ele><time>2026-04-11T14:42:50.001Z</time></trkpt><trkpt lat="42.698579513479245" lon="12.748480751997388"><ele>845.0</ele><time>2026-04-11T14:42:52.001Z</time></trkpt><trkpt lat="42.69866886508995" lon="12.74841439396357"><ele>845.0000000000001</ele><time>2026-04-11T14:42:54.001Z</time></trkpt><trkpt lat="42.698749137660954" lon="12.748357144804208"><ele>845.0</ele><time>2026-04-11T14:42:56.001Z</time></trkpt><trkpt lat="42.69884577028352" lon="12.748331110209035"><ele>847.4</ele><time>2026-04-11T14:42:58.001Z</time></trkpt><trkpt lat="42.69890713905975" lon="12.748387787308056"><ele>849.8</ele><time>2026-04-11T14:43:01.001Z</time></trkpt><trkpt lat="42.69901628798229" lon="12.748414898753422"><ele>852.2</ele><time>2026-04-11T14:43:23.001Z</time></trkpt><trkpt lat="42.69914376705789" lon="12.748463195904986"><ele>854.6</ele><time>2026-04-11T14:43:25.001Z</time></trkpt><trkpt lat="42.699220784707336" lon="12.74850247030474"><ele>857.0</ele><time>2026-04-11T14:43:26.001Z</time></trkpt><trkpt lat="42.69929947558285" lon="12.748538255027498"><ele>858.0000000000001</ele><time>2026-04-11T14:43:27.001Z</time></trkpt><trkpt lat="42.699375146739065" lon="12.748566092088536"><ele>859.0</ele><time>2026-04-11T14:43:28.001Z</time></trkpt><trkpt lat="42.699451860376385" lon="12.748574693032246"><ele>860.0</ele><time>2026-04-11T14:43:29.001Z</time></trkpt><trkpt lat="42.699519852926855" lon="12.748584666024023"><ele>861.0</ele><time>2026-04-11T14:43:30.001Z</time></trkpt><trkpt lat="42.6996062650668" lon="12.74868732112088"><ele>862.0000000000001</ele><time>2026-04-11T14:43:32.001Z</time></trkpt><trkpt lat="42.699647625919404" lon="12.748780041814037"><ele>863.0</ele><time>2026-04-11T14:43:33.001Z</time></trkpt><trkpt lat="42.69969775344729" lon="12.748866507172046"><ele>864.4</ele><time>2026-04-11T14:43:34.002Z</time></trkpt><trkpt lat="42.699758522296676" lon="12.748956631978462"><ele>865.8</ele><time>2026-04-11T14:43:35.002Z</time></trkpt><trkpt lat="42.69982036356208" lon="12.749050383707608"><ele>867.2</ele><time>2026-04-11T14:43:36.002Z</time></trkpt><trkpt lat="42.699859891314404" lon="12.749122076735825"><ele>868.6</ele><time>2026-04-11T14:43:37.002Z</time></trkpt><trkpt lat="42.69993701510336" lon="12.749226689160402"><ele>870.0</ele><time>2026-04-11T14:43:39.002Z</time></trkpt><trkpt lat="42.70001477156603" lon="12.749346979446134"><ele>871.0000000000001</ele><time>2026-04-11T14:43:41.002Z</time></trkpt><trkpt lat="42.700056968842446" lon="12.749441524267633"><ele>872.0</ele><time>2026-04-11T14:43:43.002Z</time></trkpt><trkpt lat="42.70006881047035" lon="12.749527565034288"><ele>873.0</ele><time>2026-04-11T14:43:45.002Z</time></trkpt><trkpt lat="42.70006051053276" lon="12.749615057939984"><ele>874.0</ele><time>2026-04-11T14:43:48.002Z</time></trkpt><trkpt lat="42.70000213280914" lon="12.749656109243338"><ele>875.0</ele><time>2026-04-11T14:43:56.002Z</time></trkpt><trkpt lat="42.699934255458636" lon="12.749699576911238"><ele>876.0000000000001</ele><time>2026-04-11T14:43:59.002Z</time></trkpt><trkpt lat="42.699876652009976" lon="12.749663070278123"><ele>877.0</ele><time>2026-04-11T14:44:01.002Z</time></trkpt><trkpt lat="42.69981226213176" lon="12.749648361835684"><ele>876.9999999999999</ele><time>2026-04-11T14:44:03.002Z</time></trkpt><trkpt lat="42.69973611803359" lon="12.749641794368406"><ele>877.0</ele><time>2026-04-11T14:44:06.002Z</time></trkpt><trkpt lat="42.699679268846744" lon="12.74968367818776"><ele>877.0</ele><time>2026-04-11T14:44:08.002Z</time></trkpt><trkpt lat="42.69964159895484" lon="12.749759242178145"><ele>877.0</ele><time>2026-04-11T14:44:10.002Z</time></trkpt><trkpt lat="42.69963109890894" lon="12.749863402727625"><ele>876.9999999999999</ele><time>2026-04-11T14:44:14.002Z</time></trkpt><trkpt lat="42.69971267925812" lon="12.749946867150856"><ele>877.0</ele><time>2026-04-11T14:44:17.002Z</time></trkpt><trkpt lat="42.69976667968236" lon="12.750024153065073"><ele>877.0</ele><time>2026-04-11T14:44:19.002Z</time></trkpt><trkpt lat="42.69983895976057" lon="12.750138443528737"><ele>877.0</ele><time>2026-04-11T14:44:22.002Z</time></trkpt><trkpt lat="42.69987790890148" lon="12.750245647897346"><ele>877.0</ele><time>2026-04-11T14:44:24.002Z</time></trkpt><trkpt lat="42.69992296175863" lon="12.75036133738987"><ele>877.0</ele><time>2026-04-11T14:44:26.002Z</time></trkpt><trkpt lat="42.69996345050153" lon="12.750447863945306"><ele>877.0</ele><time>2026-04-11T14:44:27.002Z</time></trkpt><trkpt lat="42.69999983842208" lon="12.750547482505684"><ele>880.4000000000001</ele><time>2026-04-11T14:44:29.002Z</time></trkpt><trkpt lat="42.700038719061396" lon="12.750616438907052"><ele>883.8000000000001</ele><time>2026-04-11T14:44:30.002Z</time></trkpt><trkpt lat="42.70010014886183" lon="12.750740448821404"><ele>887.2</ele><time>2026-04-11T14:44:32.002Z</time></trkpt><trkpt lat="42.700167899202775" lon="12.750867382524659"><ele>890.6</ele><time>2026-04-11T14:44:34.002Z</time></trkpt><trkpt lat="42.70019528958803" lon="12.751010201947015"><ele>894.0</ele><time>2026-04-11T14:44:36.002Z</time></trkpt><trkpt lat="42.70024757984493" lon="12.75114252870346"><ele>896.7142857142857</ele><time>2026-04-11T14:44:38.002Z</time></trkpt><trkpt lat="42.70025988531584" lon="12.751241085336355"><ele>899.4285714285713</ele><time>2026-04-11T14:44:41.002Z</time></trkpt><trkpt lat="42.70024587862321" lon="12.751346512636243"><ele>902.1428571428571</ele><time>2026-04-11T14:44:43.002Z</time></trkpt><trkpt lat="42.70021173728043" lon="12.751427588606035"><ele>904.8571428571428</ele><time>2026-04-11T14:44:45.002Z</time></trkpt><trkpt lat="42.70020814628031" lon="12.751525759255603"><ele>907.5714285714286</ele><time>2026-04-11T14:44:47.002Z</time></trkpt><trkpt lat="42.70022657255102" lon="12.75162573178061"><ele>910.2857142857141</ele><time>2026-04-11T14:44:49.002Z</time></trkpt><trkpt lat="42.700248563548136" lon="12.751719062665357"><ele>912.9999999999999</ele><time>2026-04-11T14:44:51.002Z</time></trkpt><trkpt lat="42.70031355348014" lon="12.751770926984836"><ele>912.9999999999999</ele><time>2026-04-11T14:45:34.003Z</time></trkpt><trkpt lat="42.70040006204422" lon="12.751829870017506"><ele>913.0</ele><time>2026-04-11T14:46:37.003Z</time></trkpt><trkpt lat="42.70046388312132" lon="12.751809622727896"><ele>913.0</ele><time>2026-04-11T14:46:40.003Z</time></trkpt><trkpt lat="42.700543168374935" lon="12.751761343139218"><ele>913.0</ele><time>2026-04-11T14:53:33.006Z</time></trkpt><trkpt lat="42.700606067994286" lon="12.751749787961648"><ele>912.9999999999999</ele><time>2026-04-11T14:53:35.006Z</time></trkpt><trkpt lat="42.70069403960945" lon="12.75169941883291"><ele>913.0</ele><time>2026-04-11T14:53:38.006Z</time></trkpt><trkpt lat="42.70076650201059" lon="12.751676934392657"><ele>912.9999999999999</ele><time>2026-04-11T14:53:41.006Z</time></trkpt><trkpt lat="42.7008290753429" lon="12.751707766738178"><ele>913.0</ele><time>2026-04-11T14:53:43.006Z</time></trkpt><trkpt lat="42.700876481854635" lon="12.751781969377832"><ele>913.0</ele><time>2026-04-11T14:53:45.006Z</time></trkpt><trkpt lat="42.70096069746137" lon="12.75186616977555"><ele>913.0</ele><time>2026-04-11T14:53:48.006Z</time></trkpt><trkpt lat="42.7010111006484" lon="12.751925147696932"><ele>912.9999999999999</ele><time>2026-04-11T14:53:50.006Z</time></trkpt><trkpt lat="42.70107153851125" lon="12.751964599333977"><ele>913.0</ele><time>2026-04-11T14:53:53.006Z</time></trkpt><trkpt lat="42.70114551698459" lon="12.75201909112668"><ele>915.4999999999999</ele><time>2026-04-11T14:53:56.006Z</time></trkpt><trkpt lat="42.70118590296253" lon="12.752092013500606"><ele>918.0</ele><time>2026-04-11T14:53:58.006Z</time></trkpt><trkpt lat="42.70126257297846" lon="12.752135749114736"><ele>920.5</ele><time>2026-04-11T14:54:01.006Z</time></trkpt><trkpt lat="42.701319153401" lon="12.752177973144553"><ele>923.0</ele><time>2026-04-11T14:54:04.006Z</time></trkpt><trkpt lat="42.70139524859657" lon="12.752259363027873"><ele>925.4999999999999</ele><time>2026-04-11T14:54:06.006Z</time></trkpt><trkpt lat="42.70145058149952" lon="12.752337465306647"><ele>928.0</ele><time>2026-04-11T14:54:09.007Z</time></trkpt><trkpt lat="42.70138282158478" lon="12.75243716480273"><ele>928.0000000000001</ele><time>2026-04-11T14:54:10.007Z</time></trkpt><trkpt lat="42.7013456979754" lon="12.752509607302976"><ele>928.0</ele><time>2026-04-11T14:54:12.007Z</time></trkpt><trkpt lat="42.70127312559794" lon="12.752544295429281"><ele>928.0000000000001</ele><time>2026-04-11T14:54:15.007Z</time></trkpt><trkpt lat="42.70121037287425" lon="12.752582200475581"><ele>928.0000000000001</ele><time>2026-04-11T14:54:18.007Z</time></trkpt><trkpt lat="42.701122586431765" lon="12.752616004153627"><ele>928.0</ele><time>2026-04-11T14:54:22.007Z</time></trkpt><trkpt lat="42.70105351463412" lon="12.752604348867187"><ele>928.0000000000001</ele><time>2026-04-11T14:54:24.007Z</time></trkpt><trkpt lat="42.7009935526265" lon="12.752639567889249"><ele>928.0000000000001</ele><time>2026-04-11T14:54:26.007Z</time></trkpt><trkpt lat="42.70091286825869" lon="12.75273028058098"><ele>931.1666666666666</ele><time>2026-04-11T14:54:28.007Z</time></trkpt><trkpt lat="42.70092403833962" lon="12.75285239136467"><ele>934.3333333333333</ele><time>2026-04-11T14:54:29.007Z</time></trkpt><trkpt lat="42.700969822683476" lon="12.752925548566052"><ele>937.5</ele><time>2026-04-11T14:54:30.007Z</time></trkpt><trkpt lat="42.7010416052332" lon="12.752964926174998"><ele>940.6666666666667</ele><time>2026-04-11T14:54:31.007Z</time></trkpt><trkpt lat="42.70110358792588" lon="12.753003167509991"><ele>943.8333333333334</ele><time>2026-04-11T14:54:32.007Z</time></trkpt><trkpt lat="42.701166493267905" lon="12.753050377545225"><ele>947.0</ele><time>2026-04-11T14:54:34.007Z</time></trkpt><trkpt lat="42.701228140394996" lon="12.753121524027788"><ele>947.0</ele><time>2026-04-11T14:54:38.007Z</time></trkpt><trkpt lat="42.70128771202845" lon="12.753189589669079"><ele>946.9999999999999</ele><time>2026-04-11T14:54:40.007Z</time></trkpt><trkpt lat="42.70134320392486" lon="12.753257600203966"><ele>947.0</ele><time>2026-04-11T14:54:42.007Z</time></trkpt><trkpt lat="42.70140341581844" lon="12.753317055278732"><ele>947.0</ele><time>2026-04-11T14:54:44.007Z</time></trkpt><trkpt lat="42.701469842992665" lon="12.753354216135067"><ele>946.9999999999999</ele><time>2026-04-11T14:54:47.007Z</time></trkpt><trkpt lat="42.70149936264795" lon="12.753455957457245"><ele>947.0</ele><time>2026-04-11T14:54:49.007Z</time></trkpt><trkpt lat="42.70149225153711" lon="12.753546501645467"><ele>947.0</ele><time>2026-04-11T14:54:51.007Z</time></trkpt><trkpt lat="42.7014940661037" lon="12.75364081943482"><ele>949.1666666666667</ele><time>2026-04-11T14:54:53.007Z</time></trkpt><trkpt lat="42.70147576568635" lon="12.753765025429804"><ele>951.3333333333334</ele><time>2026-04-11T14:54:56.007Z</time></trkpt><trkpt lat="42.70144751662724" lon="12.753876504743493"><ele>953.5</ele><time>2026-04-11T14:54:59.007Z</time></trkpt><trkpt lat="42.70143111807613" lon="12.753971012148442"><ele>955.6666666666667</ele><time>2026-04-11T14:55:01.007Z</time></trkpt><trkpt lat="42.701415801525165" lon="12.754101224232603"><ele>957.8333333333334</ele><time>2026-04-11T14:55:04.007Z</time></trkpt><trkpt lat="42.701412308367864" lon="12.75422419239809"><ele>960.0</ele><time>2026-04-11T14:55:06.007Z</time></trkpt><trkpt lat="42.701443676094115" lon="12.754308847544849"><ele>961.1666666666666</ele><time>2026-04-11T14:55:08.007Z</time></trkpt><trkpt lat="42.70143964924156" lon="12.754408343594159"><ele>962.3333333333333</ele><time>2026-04-11T14:55:10.007Z</time></trkpt><trkpt lat="42.70142245229058" lon="12.754496206275748"><ele>963.5</ele><time>2026-04-11T14:55:12.007Z</time></trkpt><trkpt lat="42.701365444156274" lon="12.754587843129025"><ele>964.6666666666666</ele><time>2026-04-11T14:55:14.007Z</time></trkpt><trkpt lat="42.7013282437775" lon="12.754685943904438"><ele>965.8333333333333</ele><time>2026-04-11T14:55:16.007Z</time></trkpt><trkpt lat="42.70127579917745" lon="12.754808826842098"><ele>967.0</ele><time>2026-04-11T14:55:18.007Z</time></trkpt><trkpt lat="42.701236486100846" lon="12.754917541554345"><ele>966.9999999999999</ele><time>2026-04-11T14:55:20.007Z</time></trkpt><trkpt lat="42.701199406072504" lon="12.755013247837834"><ele>967.0</ele><time>2026-04-11T14:55:22.007Z</time></trkpt><trkpt lat="42.701155646685024" lon="12.755121196394981"><ele>967.0</ele><time>2026-04-11T14:55:24.007Z</time></trkpt><trkpt lat="42.70110393494182" lon="12.75518589439855"><ele>967.0</ele><time>2026-04-11T14:55:26.007Z</time></trkpt><trkpt lat="42.70105541107597" lon="12.755268963045298"><ele>966.9999999999999</ele><time>2026-04-11T14:55:28.007Z</time></trkpt><trkpt lat="42.70099891275331" lon="12.75536568326696"><ele>967.0</ele><time>2026-04-11T14:55:30.007Z</time></trkpt><trkpt lat="42.70109906710104" lon="12.755572358210408"><ele>967.8</ele><time>2026-04-11T14:55:31.007Z</time></trkpt><trkpt lat="42.70110781009438" lon="12.75566657916934"><ele>968.6</ele><time>2026-04-11T14:55:32.007Z</time></trkpt><trkpt lat="42.70111038579968" lon="12.755762518184003"><ele>969.3999999999999</ele><time>2026-04-11T14:55:33.007Z</time></trkpt><trkpt lat="42.701075278499545" lon="12.75591991140112"><ele>970.1999999999999</ele><time>2026-04-11T14:55:35.007Z</time></trkpt><trkpt lat="42.701052552195684" lon="12.756054152588229"><ele>971.0</ele><time>2026-04-11T14:55:37.007Z</time></trkpt><trkpt lat="42.7011061216388" lon="12.756206228323345"><ele>972.0</ele><time>2026-04-11T14:55:39.007Z</time></trkpt><trkpt lat="42.701146548374574" lon="12.75627546107994"><ele>972.9999999999999</ele><time>2026-04-11T14:55:40.007Z</time></trkpt><trkpt lat="42.70121599318071" lon="12.756395474534273"><ele>973.9999999999999</ele><time>2026-04-11T14:55:42.007Z</time></trkpt><trkpt lat="42.701225664735354" lon="12.7565478339058"><ele>975.0</ele><time>2026-04-11T14:55:44.007Z</time></trkpt><trkpt lat="42.70122720563762" lon="12.75665925784618"><ele>976.0</ele><time>2026-04-11T14:55:45.007Z</time></trkpt><trkpt lat="42.701234788530485" lon="12.756770677797983"><ele>976.0</ele><time>2026-04-11T14:55:46.007Z</time></trkpt><trkpt lat="42.70124429433365" lon="12.756867330067422"><ele>975.9999999999999</ele><time>2026-04-11T14:55:47.007Z</time></trkpt><trkpt lat="42.701243797574506" lon="12.757025596194843"><ele>975.9999999999999</ele><time>2026-04-11T14:55:49.007Z</time></trkpt><trkpt lat="42.70122736809293" lon="12.75717115396378"><ele>976.0</ele><time>2026-04-11T14:55:51.007Z</time></trkpt><trkpt lat="42.701188302018146" lon="12.7573163319323"><ele>976.0</ele><time>2026-04-11T14:55:53.008Z</time></trkpt><trkpt lat="42.701140485490086" lon="12.757447790834396"><ele>976.9999999999999</ele><time>2026-04-11T14:55:55.008Z</time></trkpt><trkpt lat="42.70110103049123" lon="12.757567710296295"><ele>978.0</ele><time>2026-04-11T14:55:57.008Z</time></trkpt><trkpt lat="42.7010792715308" lon="12.757660929389417"><ele>979.0</ele><time>2026-04-11T14:55:59.008Z</time></trkpt><trkpt lat="42.70102467876491" lon="12.75775402581875"><ele>980.0</ele><time>2026-04-11T14:56:05.008Z</time></trkpt><trkpt lat="42.70099615656935" lon="12.757853809319908"><ele>980.9999999999999</ele><time>2026-04-11T14:56:32.008Z</time></trkpt><trkpt lat="42.700982987225196" lon="12.757945634992712"><ele>982.0</ele><time>2026-04-11T14:56:34.008Z</time></trkpt><trkpt lat="42.700980519807395" lon="12.758039205893253"><ele>984.2857142857142</ele><time>2026-04-11T14:56:36.008Z</time></trkpt><trkpt lat="42.700958717696366" lon="12.758149697810142"><ele>986.5714285714284</ele><time>2026-04-11T14:56:39.008Z</time></trkpt><trkpt lat="42.70093191224788" lon="12.758249288659867"><ele>988.8571428571429</ele><time>2026-04-11T14:56:42.008Z</time></trkpt><trkpt lat="42.700913796703034" lon="12.75835003199638"><ele>991.1428571428571</ele><time>2026-04-11T14:56:46.008Z</time></trkpt><trkpt lat="42.70090547609329" lon="12.758434947183158"><ele>993.4285714285714</ele><time>2026-04-11T14:57:09.008Z</time></trkpt><trkpt lat="42.700889833178934" lon="12.758531638258281"><ele>995.7142857142858</ele><time>2026-04-11T14:57:13.008Z</time></trkpt><trkpt lat="42.70087786954748" lon="12.758627031260996"><ele>998.0000000000001</ele><time>2026-04-11T14:57:16.008Z</time></trkpt><trkpt lat="42.70086391503657" lon="12.758719709778136"><ele>1001.0</ele><time>2026-04-11T14:57:20.008Z</time></trkpt><trkpt lat="42.70086094998919" lon="12.758812661431183"><ele>1004.0</ele><time>2026-04-11T14:57:22.008Z</time></trkpt><trkpt lat="42.70084556624588" lon="12.758905878701434"><ele>1007.0</ele><time>2026-04-11T14:57:25.008Z</time></trkpt><trkpt lat="42.70091086569642" lon="12.75901112776941"><ele>1010.0</ele><time>2026-04-11T14:57:26.008Z</time></trkpt><trkpt lat="42.7008318425258" lon="12.759208306122526"><ele>1013.0</ele><time>2026-04-11T14:57:53.009Z</time></trkpt><trkpt lat="42.70079237960795" lon="12.759312516074052"><ele>1015.1666666666667</ele><time>2026-04-11T14:57:56.009Z</time></trkpt><trkpt lat="42.70074255304152" lon="12.759391167394407"><ele>1017.3333333333334</ele><time>2026-04-11T14:57:59.009Z</time></trkpt><trkpt lat="42.7006817760037" lon="12.75947007255323"><ele>1019.5</ele><time>2026-04-11T14:58:02.009Z</time></trkpt><trkpt lat="42.70065306056656" lon="12.759548254930356"><ele>1021.6666666666667</ele><time>2026-04-11T14:58:04.009Z</time></trkpt><trkpt lat="42.70060605929578" lon="12.75963615446784"><ele>1023.8333333333334</ele><time>2026-04-11T14:58:07.009Z</time></trkpt><trkpt lat="42.700568496301386" lon="12.75972786149796"><ele>1026.0</ele><time>2026-04-11T14:58:10.009Z</time></trkpt><trkpt lat="42.700484037364646" lon="12.75983601542988"><ele>1026.0</ele><time>2026-04-11T14:58:12.009Z</time></trkpt><trkpt lat="42.700466457478136" lon="12.760012003272015"><ele>1026.0</ele><time>2026-04-11T14:58:14.009Z</time></trkpt><trkpt lat="42.70042946742733" lon="12.760197952177476"><ele>1026.0</ele><time>2026-04-11T14:58:15.009Z</time></trkpt><trkpt lat="42.700377741740105" lon="12.760274980422766"><ele>1026.0</ele><time>2026-04-11T14:58:16.009Z</time></trkpt><trkpt lat="42.70032895654667" lon="12.76038351055623"><ele>1026.0</ele><time>2026-04-11T14:58:17.009Z</time></trkpt><trkpt lat="42.70027520016618" lon="12.760499870687005"><ele>1024.6</ele><time>2026-04-11T14:58:18.009Z</time></trkpt><trkpt lat="42.70020134201473" lon="12.76061989781827"><ele>1023.1999999999999</ele><time>2026-04-11T14:58:19.009Z</time></trkpt><trkpt lat="42.70013116148879" lon="12.760700307312998"><ele>1021.8000000000001</ele><time>2026-04-11T14:58:20.009Z</time></trkpt><trkpt lat="42.700065137818115" lon="12.760751651217344"><ele>1020.4000000000001</ele><time>2026-04-11T14:58:21.009Z</time></trkpt><trkpt lat="42.69999173164114" lon="12.760779800721771"><ele>1019.0</ele><time>2026-04-11T14:58:22.009Z</time></trkpt><trkpt lat="42.699890762285904" lon="12.760771775595206"><ele>1019.0</ele><time>2026-04-11T14:58:24.009Z</time></trkpt><trkpt lat="42.69981793641828" lon="12.760752809434178"><ele>1019.0000000000001</ele><time>2026-04-11T14:58:28.009Z</time></trkpt><trkpt lat="42.69978915483287" lon="12.760858158987421"><ele>1019.0000000000001</ele><time>2026-04-11T14:58:31.009Z</time></trkpt><trkpt lat="42.69983409594112" lon="12.761074607840206"><ele>1019.0</ele><time>2026-04-11T14:58:32.009Z</time></trkpt><trkpt lat="42.69985681450134" lon="12.761171416080163"><ele>1019.0</ele><time>2026-04-11T14:58:33.009Z</time></trkpt><trkpt lat="42.69988151997853" lon="12.761259706221296"><ele>1018.0000000000001</ele><time>2026-04-11T14:58:34.009Z</time></trkpt><trkpt lat="42.69990345990754" lon="12.761352706372197"><ele>1017.0</ele><time>2026-04-11T14:58:35.009Z</time></trkpt><trkpt lat="42.69992075305587" lon="12.761435352496084"><ele>1016.0</ele><time>2026-04-11T14:58:36.009Z</time></trkpt><trkpt lat="42.69994517369276" lon="12.761575716250416"><ele>1015.0</ele><time>2026-04-11T14:58:38.009Z</time></trkpt><trkpt lat="42.699961741564245" lon="12.761691212720518"><ele>1014.0000000000001</ele><time>2026-04-11T14:58:40.009Z</time></trkpt><trkpt lat="42.69997337777266" lon="12.761827077599309"><ele>1013.0</ele><time>2026-04-11T14:58:42.009Z</time></trkpt><trkpt lat="42.6999790591121" lon="12.76197621233784"><ele>1011.5999999999999</ele><time>2026-04-11T14:58:44.009Z</time></trkpt><trkpt lat="42.6999707241656" lon="12.762066762864986"><ele>1010.1999999999999</ele><time>2026-04-11T14:58:45.009Z</time></trkpt><trkpt lat="42.69993740004354" lon="12.762230845813033"><ele>1008.8</ele><time>2026-04-11T14:58:47.009Z</time></trkpt><trkpt lat="42.69991803718358" lon="12.762397319058113"><ele>1007.4</ele><time>2026-04-11T14:58:49.009Z</time></trkpt><trkpt lat="42.699901885830485" lon="12.762543794041372"><ele>1006.0</ele><time>2026-04-11T14:58:51.009Z</time></trkpt><trkpt lat="42.69985182010196" lon="12.762626278971243"><ele>1005.9999999999999</ele><time>2026-04-11T14:58:53.009Z</time></trkpt><trkpt lat="42.699812603898906" lon="12.76269592716895"><ele>1006.0</ele><time>2026-04-11T14:58:56.009Z</time></trkpt><trkpt lat="42.69977484762029" lon="12.762803923187487"><ele>1006.0</ele><time>2026-04-11T14:58:59.009Z</time></trkpt><trkpt lat="42.69973270042673" lon="12.762887089335294"><ele>1006.0</ele><time>2026-04-11T14:59:01.009Z</time></trkpt><trkpt lat="42.699678436453155" lon="12.762980614475497"><ele>1005.9999999999999</ele><time>2026-04-11T14:59:26.009Z</time></trkpt><trkpt lat="42.699662862241425" lon="12.763094721885897"><ele>1006.0</ele><time>2026-04-11T14:59:33.009Z</time></trkpt><trkpt lat="42.69962625638631" lon="12.76321208942995"><ele>1005.6666666666666</ele><time>2026-04-11T14:59:36.01Z</time></trkpt><trkpt lat="42.69962294268902" lon="12.763318492808356"><ele>1005.3333333333333</ele><time>2026-04-11T14:59:39.01Z</time></trkpt><trkpt lat="42.69960931555804" lon="12.763438680736026"><ele>1005.0</ele><time>2026-04-11T14:59:48.01Z</time></trkpt><trkpt lat="42.69962787686485" lon="12.763542038547433"><ele>1004.6666666666667</ele><time>2026-04-11T14:59:50.01Z</time></trkpt><trkpt lat="42.69961743439931" lon="12.76362740361401"><ele>1004.3333333333334</ele><time>2026-04-11T14:59:52.01Z</time></trkpt><trkpt lat="42.699597135415296" lon="12.763744749714112"><ele>1004.0</ele><time>2026-04-11T14:59:54.01Z</time></trkpt><trkpt lat="42.69958497050181" lon="12.763871287108769"><ele>1005.8333333333334</ele><time>2026-04-11T14:59:56.01Z</time></trkpt><trkpt lat="42.6995595977054" lon="12.763959584332277"><ele>1007.6666666666667</ele><time>2026-04-11T14:59:58.01Z</time></trkpt><trkpt lat="42.69954840558523" lon="12.764081642221958"><ele>1009.5</ele><time>2026-04-11T15:00:00.01Z</time></trkpt><trkpt lat="42.69944187590514" lon="12.76413853345743"><ele>1011.3333333333333</ele><time>2026-04-11T15:00:02.01Z</time></trkpt><trkpt lat="42.69938534428238" lon="12.764098687320201"><ele>1013.1666666666666</ele><time>2026-04-11T15:00:03.01Z</time></trkpt><trkpt lat="42.69933341127076" lon="12.763981743601642"><ele>1015.0</ele><time>2026-04-11T15:00:05.01Z</time></trkpt><trkpt lat="42.6993337393465" lon="12.763877131005298"><ele>1014.2</ele><time>2026-04-11T15:00:07.01Z</time></trkpt><trkpt lat="42.69928558102919" lon="12.763764744253505"><ele>1013.4</ele><time>2026-04-11T15:00:09.01Z</time></trkpt><trkpt lat="42.69920614336079" lon="12.763605420874717"><ele>1012.5999999999999</ele><time>2026-04-11T15:00:11.01Z</time></trkpt><trkpt lat="42.69916091992539" lon="12.763511915829659"><ele>1011.8</ele><time>2026-04-11T15:00:12.01Z</time></trkpt><trkpt lat="42.69911608854537" lon="12.763423049880936"><ele>1011.0</ele><time>2026-04-11T15:00:13.01Z</time></trkpt><trkpt lat="42.69907099713883" lon="12.763329429468687"><ele>1011.0</ele><time>2026-04-11T15:00:14.01Z</time></trkpt><trkpt lat="42.69901956530657" lon="12.763247204017745"><ele>1011.0</ele><time>2026-04-11T15:00:15.01Z</time></trkpt><trkpt lat="42.69896921378823" lon="12.763168852705967"><ele>1011.0</ele><time>2026-04-11T15:00:16.01Z</time></trkpt><trkpt lat="42.69889834405687" lon="12.763039807564224"><ele>1011.0</ele><time>2026-04-11T15:00:18.01Z</time></trkpt><trkpt lat="42.698852842531196" lon="12.762980410715942"><ele>1011.0</ele><time>2026-04-11T15:00:19.01Z</time></trkpt><trkpt lat="42.69880691127382" lon="12.762910840202728"><ele>1011.0</ele><time>2026-04-11T15:00:20.01Z</time></trkpt><trkpt lat="42.69875551250822" lon="12.762854725558084"><ele>1011.0</ele><time>2026-04-11T15:00:21.01Z</time></trkpt><trkpt lat="42.69868431236391" lon="12.762812397030586"><ele>1011.0</ele><time>2026-04-11T15:00:22.01Z</time></trkpt><trkpt lat="42.698615046217554" lon="12.76276498236495"><ele>1011.0</ele><time>2026-04-11T15:00:23.01Z</time></trkpt><trkpt lat="42.698531539324335" lon="12.762714182396923"><ele>1011.0</ele><time>2026-04-11T15:00:24.01Z</time></trkpt><trkpt lat="42.69843840589679" lon="12.762677285078315"><ele>1011.0</ele><time>2026-04-11T15:00:25.01Z</time></trkpt><trkpt lat="42.69835816339724" lon="12.762628777458847"><ele>1011.0</ele><time>2026-04-11T15:00:26.01Z</time></trkpt><trkpt lat="42.69826493255487" lon="12.762569295380382"><ele>1013.4</ele><time>2026-04-11T15:00:27.01Z</time></trkpt><trkpt lat="42.69817787292077" lon="12.76250450613744"><ele>1015.8</ele><time>2026-04-11T15:00:28.01Z</time></trkpt><trkpt lat="42.69809225029006" lon="12.762449601225835"><ele>1018.1999999999999</ele><time>2026-04-11T15:00:29.01Z</time></trkpt><trkpt lat="42.698010413776096" lon="12.76239884803578"><ele>1020.5999999999999</ele><time>2026-04-11T15:00:30.01Z</time></trkpt><trkpt lat="42.69792828715298" lon="12.762348275818526"><ele>1023.0</ele><time>2026-04-11T15:00:31.01Z</time></trkpt><trkpt lat="42.69785263893239" lon="12.762288342615811"><ele>1023.0</ele><time>2026-04-11T15:00:32.01Z</time></trkpt><trkpt lat="42.697787831202845" lon="12.762232480659264"><ele>1023.0</ele><time>2026-04-11T15:00:33.01Z</time></trkpt><trkpt lat="42.69772161763479" lon="12.76218063984444"><ele>1023.0</ele><time>2026-04-11T15:00:34.01Z</time></trkpt><trkpt lat="42.69765469356476" lon="12.762138981758731"><ele>1023.0</ele><time>2026-04-11T15:00:35.01Z</time></trkpt><trkpt lat="42.69756881027042" lon="12.762069845083753"><ele>1023.0</ele><time>2026-04-11T15:00:37.01Z</time></trkpt><trkpt lat="42.69746174795769" lon="12.762054800518902"><ele>1023.0</ele><time>2026-04-11T15:00:39.01Z</time></trkpt><trkpt lat="42.697356395737366" lon="12.76205572708533"><ele>1028.2</ele><time>2026-04-11T15:00:41.01Z</time></trkpt><trkpt lat="42.69726261264247" lon="12.762043097121165"><ele>1033.4</ele><time>2026-04-11T15:00:43.01Z</time></trkpt><trkpt lat="42.697159136858986" lon="12.762071169331547"><ele>1038.6000000000001</ele><time>2026-04-11T15:00:45.01Z</time></trkpt><trkpt lat="42.69704701937996" lon="12.76212368450578"><ele>1043.8</ele><time>2026-04-11T15:00:47.01Z</time></trkpt><trkpt lat="42.6969495684684" lon="12.762190302533337"><ele>1049.0</ele><time>2026-04-11T15:00:49.01Z</time></trkpt><trkpt lat="42.69684118525512" lon="12.762281655899953"><ele>1049.5</ele><time>2026-04-11T15:00:51.01Z</time></trkpt><trkpt lat="42.69677340560957" lon="12.762325181614063"><ele>1050.0</ele><time>2026-04-11T15:00:52.01Z</time></trkpt><trkpt lat="42.696701146421454" lon="12.762386500948493"><ele>1050.5</ele><time>2026-04-11T15:00:53.01Z</time></trkpt><trkpt lat="42.696627803860125" lon="12.762450278936083"><ele>1051.0</ele><time>2026-04-11T15:00:54.01Z</time></trkpt><trkpt lat="42.6965695735059" lon="12.762511950784946"><ele>1051.5</ele><time>2026-04-11T15:00:55.01Z</time></trkpt><trkpt lat="42.69651116233153" lon="12.762553233367933"><ele>1052.0</ele><time>2026-04-11T15:00:56.011Z</time></trkpt><trkpt lat="42.696410763536605" lon="12.762611367911449"><ele>1052.0</ele><time>2026-04-11T15:00:58.01Z</time></trkpt><trkpt lat="42.696305677452415" lon="12.762625868039287"><ele>1052.0</ele><time>2026-04-11T15:01:00.01Z</time></trkpt><trkpt lat="42.6962465859032" lon="12.762592480089085"><ele>1052.0</ele><time>2026-04-11T15:01:01.01Z</time></trkpt><trkpt lat="42.69616315815017" lon="12.76254807198365"><ele>1052.0</ele><time>2026-04-11T15:01:03.01Z</time></trkpt><trkpt lat="42.696056503179506" lon="12.762593955964267"><ele>1052.0</ele><time>2026-04-11T15:01:05.01Z</time></trkpt><trkpt lat="42.695980867233324" lon="12.762630191008228"><ele>1053.4</ele><time>2026-04-11T15:01:06.01Z</time></trkpt><trkpt lat="42.695870700628355" lon="12.762706937541891"><ele>1054.8000000000002</ele><time>2026-04-11T15:01:08.01Z</time></trkpt><trkpt lat="42.69581000926179" lon="12.762775766873018"><ele>1056.2</ele><time>2026-04-11T15:01:10.01Z</time></trkpt><trkpt lat="42.69575770127925" lon="12.762849686935807"><ele>1057.6000000000001</ele><time>2026-04-11T15:01:12.01Z</time></trkpt><trkpt lat="42.69567365771181" lon="12.762942800782385"><ele>1059.0</ele><time>2026-04-11T15:01:14.01Z</time></trkpt><trkpt lat="42.695618997993726" lon="12.762997410765532"><ele>1059.0</ele><time>2026-04-11T15:01:15.01Z</time></trkpt><trkpt lat="42.69554770182147" lon="12.76305967038953"><ele>1059.0</ele><time>2026-04-11T15:01:16.01Z</time></trkpt><trkpt lat="42.69548095965513" lon="12.763112771448291"><ele>1059.0</ele><time>2026-04-11T15:01:17.01Z</time></trkpt><trkpt lat="42.695370699834605" lon="12.763212603546958"><ele>1059.0</ele><time>2026-04-11T15:01:19.01Z</time></trkpt><trkpt lat="42.695249761873946" lon="12.76328299496521"><ele>1059.0</ele><time>2026-04-11T15:01:21.011Z</time></trkpt><trkpt lat="42.69517360647582" lon="12.763313833559188"><ele>1060.3333333333333</ele><time>2026-04-11T15:01:22.011Z</time></trkpt><trkpt lat="42.695095104118266" lon="12.763319692942911"><ele>1061.6666666666667</ele><time>2026-04-11T15:01:23.011Z</time></trkpt><trkpt lat="42.69500081924009" lon="12.763347463611968"><ele>1063.0</ele><time>2026-04-11T15:01:25.011Z</time></trkpt><trkpt lat="42.69494366445698" lon="12.76341926732212"><ele>1064.3333333333335</ele><time>2026-04-11T15:01:27.011Z</time></trkpt><trkpt lat="42.69487519812966" lon="12.763475957401505"><ele>1065.6666666666667</ele><time>2026-04-11T15:01:31.011Z</time></trkpt><trkpt lat="42.69480762326816" lon="12.763584769350823"><ele>1067.0</ele><time>2026-04-11T15:01:48.998Z</time></trkpt><trkpt lat="42.69471416079209" lon="12.763696672322999"><ele>1067.0</ele><time>2026-04-11T15:01:50.998Z</time></trkpt><trkpt lat="42.69464858089012" lon="12.763777122483752"><ele>1067.0</ele><time>2026-04-11T15:01:51.998Z</time></trkpt><trkpt lat="42.694586866391056" lon="12.763850382086098"><ele>1067.0</ele><time>2026-04-11T15:01:52.998Z</time></trkpt><trkpt lat="42.6945323706589" lon="12.763943911493252"><ele>1067.0</ele><time>2026-04-11T15:01:53.998Z</time></trkpt><trkpt lat="42.694493713088036" lon="12.764019941807195"><ele>1067.0</ele><time>2026-04-11T15:01:54.998Z</time></trkpt><trkpt lat="42.69443659932845" lon="12.764096170569918"><ele>1067.0</ele><time>2026-04-11T15:01:55.998Z</time></trkpt><trkpt lat="42.69438888871676" lon="12.7641670724117"><ele>1067.2</ele><time>2026-04-11T15:01:56.998Z</time></trkpt><trkpt lat="42.694341228029984" lon="12.764237489005485"><ele>1067.4</ele><time>2026-04-11T15:01:57.998Z</time></trkpt><trkpt lat="42.69425245164843" lon="12.764355918189798"><ele>1067.6</ele><time>2026-04-11T15:01:59.998Z</time></trkpt><trkpt lat="42.69417627778072" lon="12.764467865740118"><ele>1067.8</ele><time>2026-04-11T15:02:01.998Z</time></trkpt><trkpt lat="42.6941190890318" lon="12.76456367274217"><ele>1068.0</ele><time>2026-04-11T15:02:03.998Z</time></trkpt><trkpt lat="42.694096047641985" lon="12.764659949576847"><ele>1068.0</ele><time>2026-04-11T15:02:05.998Z</time></trkpt><trkpt lat="42.694064293499736" lon="12.764740546952874"><ele>1068.0</ele><time>2026-04-11T15:02:44.996Z</time></trkpt><trkpt lat="42.694102713765915" lon="12.764886975728105"><ele>1068.0</ele><time>2026-04-11T15:02:46.996Z</time></trkpt><trkpt lat="42.694145508543194" lon="12.76499379292496"><ele>1068.0</ele><time>2026-04-11T15:02:47.996Z</time></trkpt><trkpt lat="42.69418877136597" lon="12.765105604919423"><ele>1068.0</ele><time>2026-04-11T15:02:48.996Z</time></trkpt><trkpt lat="42.69422111335893" lon="12.765227297082605"><ele>1068.857142857143</ele><time>2026-04-11T15:02:49.996Z</time></trkpt><trkpt lat="42.69425444796479" lon="12.765319317166858"><ele>1069.7142857142858</ele><time>2026-04-11T15:02:50.996Z</time></trkpt><trkpt lat="42.69429623116467" lon="12.765410439209253"><ele>1070.5714285714284</ele><time>2026-04-11T15:02:51.996Z</time></trkpt><trkpt lat="42.69432952951034" lon="12.765501822109321"><ele>1071.4285714285716</ele><time>2026-04-11T15:02:52.996Z</time></trkpt><trkpt lat="42.69434641714132" lon="12.765593602563944"><ele>1072.2857142857142</ele><time>2026-04-11T15:02:53.996Z</time></trkpt><trkpt lat="42.694351019523694" lon="12.765686149978148"><ele>1073.142857142857</ele><time>2026-04-11T15:02:54.996Z</time></trkpt><trkpt lat="42.694336796078" lon="12.765778943009527"><ele>1074.0</ele><time>2026-04-11T15:02:55.996Z</time></trkpt><trkpt lat="42.694319817242985" lon="12.765862949834487"><ele>1074.0</ele><time>2026-04-11T15:02:56.996Z</time></trkpt><trkpt lat="42.694286188954166" lon="12.765957426608411"><ele>1074.0</ele><time>2026-04-11T15:03:05.996Z</time></trkpt><trkpt lat="42.69422116124761" lon="12.765918649210212"><ele>1074.0</ele><time>2026-04-11T15:03:07.996Z</time></trkpt><trkpt lat="42.69413809368903" lon="12.765787240049328"><ele>1074.0</ele><time>2026-04-11T15:03:09.996Z</time></trkpt><trkpt lat="42.694049945613386" lon="12.765719761878104"><ele>1074.0</ele><time>2026-04-11T15:03:11.996Z</time></trkpt><trkpt lat="42.69393072221576" lon="12.765739898335557"><ele>1074.0</ele><time>2026-04-11T15:03:13.996Z</time></trkpt><trkpt lat="42.69385451149812" lon="12.765767884411646"><ele>1074.0</ele><time>2026-04-11T15:03:14.996Z</time></trkpt><trkpt lat="42.693774872807815" lon="12.765814529898716"><ele>1074.0</ele><time>2026-04-11T15:03:15.996Z</time></trkpt><trkpt lat="42.69369334891286" lon="12.765864096688448"><ele>1074.0</ele><time>2026-04-11T15:03:16.996Z</time></trkpt><trkpt lat="42.6936261663085" lon="12.765908506950725"><ele>1074.0</ele><time>2026-04-11T15:03:17.996Z</time></trkpt><trkpt lat="42.69353356867031" lon="12.765978283734253"><ele>1074.0</ele><time>2026-04-11T15:03:19.996Z</time></trkpt><trkpt lat="42.693416016275634" lon="12.766055600912065"><ele>1074.8333333333333</ele><time>2026-04-11T15:03:21.996Z</time></trkpt><trkpt lat="42.69335108832784" lon="12.766109267683234"><ele>1075.6666666666667</ele><time>2026-04-11T15:03:22.996Z</time></trkpt><trkpt lat="42.69329760594996" lon="12.76618636849438"><ele>1076.5</ele><time>2026-04-11T15:03:23.996Z</time></trkpt><trkpt lat="42.69325957673404" lon="12.766263255106235"><ele>1077.3333333333335</ele><time>2026-04-11T15:03:24.996Z</time></trkpt><trkpt lat="42.69323819747511" lon="12.766346741086904"><ele>1078.1666666666667</ele><time>2026-04-11T15:03:25.996Z</time></trkpt><trkpt lat="42.69323256662374" lon="12.76645608521713"><ele>1079.0</ele><time>2026-04-11T15:03:26.996Z</time></trkpt><trkpt lat="42.693212253112044" lon="12.766570431723204"><ele>1079.0</ele><time>2026-04-11T15:03:27.996Z</time></trkpt><trkpt lat="42.69318870525401" lon="12.766686900654351"><ele>1079.0</ele><time>2026-04-11T15:03:28.996Z</time></trkpt><trkpt lat="42.69316699155135" lon="12.766782584892677"><ele>1079.0</ele><time>2026-04-11T15:03:29.996Z</time></trkpt><trkpt lat="42.693149508834864" lon="12.766880873264752"><ele>1079.0</ele><time>2026-04-11T15:03:30.996Z</time></trkpt><trkpt lat="42.69312001474624" lon="12.766977251353973"><ele>1079.0</ele><time>2026-04-11T15:03:31.996Z</time></trkpt><trkpt lat="42.69307994871972" lon="12.767072980730859"><ele>1079.0</ele><time>2026-04-11T15:03:32.996Z</time></trkpt><trkpt lat="42.693038426721856" lon="12.76717205539028"><ele>1079.4</ele><time>2026-04-11T15:03:33.996Z</time></trkpt><trkpt lat="42.693000563425976" lon="12.767254488663816"><ele>1079.8000000000002</ele><time>2026-04-11T15:03:34.996Z</time></trkpt><trkpt lat="42.692975549177405" lon="12.767350360993156"><ele>1080.1999999999998</ele><time>2026-04-11T15:03:35.996Z</time></trkpt><trkpt lat="42.69287877515031" lon="12.767412795225772"><ele>1080.6</ele><time>2026-04-11T15:03:37.996Z</time></trkpt><trkpt lat="42.69276129685918" lon="12.767394699775995"><ele>1081.0</ele><time>2026-04-11T15:03:39.996Z</time></trkpt><trkpt lat="42.69268094511644" lon="12.767368734365718"><ele>1081.0</ele><time>2026-04-11T15:03:40.996Z</time></trkpt><trkpt lat="42.692602721840615" lon="12.767322573689059"><ele>1081.0</ele><time>2026-04-11T15:03:41.996Z</time></trkpt><trkpt lat="42.69253140298941" lon="12.767252682053256"><ele>1081.0</ele><time>2026-04-11T15:03:42.996Z</time></trkpt><trkpt lat="42.692463692032426" lon="12.767203117189574"><ele>1081.0</ele><time>2026-04-11T15:03:43.996Z</time></trkpt><trkpt lat="42.692394845956606" lon="12.767176930594744"><ele>1081.0</ele><time>2026-04-11T15:03:44.996Z</time></trkpt><trkpt lat="42.692314612558675" lon="12.767176255331835"><ele>1081.0</ele><time>2026-04-11T15:03:45.996Z</time></trkpt><trkpt lat="42.692231751654376" lon="12.767166486130169"><ele>1081.0</ele><time>2026-04-11T15:03:46.996Z</time></trkpt><trkpt lat="42.69216284891936" lon="12.767159183164988"><ele>1081.0</ele><time>2026-04-11T15:03:47.996Z</time></trkpt><trkpt lat="42.69204342736953" lon="12.767221519639834"><ele>1081.0</ele><time>2026-04-11T15:03:49.996Z</time></trkpt><trkpt lat="42.69197462116342" lon="12.76722136121177"><ele>1081.0</ele><time>2026-04-11T15:03:50.996Z</time></trkpt><trkpt lat="42.69190660461986" lon="12.767189455315117"><ele>1081.0</ele><time>2026-04-11T15:03:52.996Z</time></trkpt><trkpt lat="42.69183678087472" lon="12.767203300519279"><ele>1081.0</ele><time>2026-04-11T15:03:54.996Z</time></trkpt><trkpt lat="42.69176111770457" lon="12.767233243961037"><ele>1081.8333333333333</ele><time>2026-04-11T15:03:55.996Z</time></trkpt><trkpt lat="42.69169578005873" lon="12.767254984491347"><ele>1082.6666666666665</ele><time>2026-04-11T15:03:56.996Z</time></trkpt><trkpt lat="42.69162358109076" lon="12.767270744393105"><ele>1083.5</ele><time>2026-04-11T15:03:57.996Z</time></trkpt><trkpt lat="42.691531953901624" lon="12.767282196178986"><ele>1084.3333333333333</ele><time>2026-04-11T15:03:58.996Z</time></trkpt><trkpt lat="42.69144048883927" lon="12.767286139805037"><ele>1085.1666666666667</ele><time>2026-04-11T15:03:59.996Z</time></trkpt><trkpt lat="42.69136463244345" lon="12.76730461413836"><ele>1086.0</ele><time>2026-04-11T15:04:00.996Z</time></trkpt><trkpt lat="42.69129658972367" lon="12.76731532210542"><ele>1086.0</ele><time>2026-04-11T15:04:01.996Z</time></trkpt><trkpt lat="42.691219790914474" lon="12.767309171980747"><ele>1086.0</ele><time>2026-04-11T15:04:02.996Z</time></trkpt><trkpt lat="42.69114522316293" lon="12.767287354130119"><ele>1086.0</ele><time>2026-04-11T15:04:03.996Z</time></trkpt><trkpt lat="42.69104016764552" lon="12.767267493443349"><ele>1086.0</ele><time>2026-04-11T15:04:05.996Z</time></trkpt><trkpt lat="42.690929211230944" lon="12.767263971119796"><ele>1086.0</ele><time>2026-04-11T15:04:07.996Z</time></trkpt><trkpt lat="42.690825417433224" lon="12.7673001044189"><ele>1087.3333333333333</ele><time>2026-04-11T15:04:09.996Z</time></trkpt><trkpt lat="42.69073363868529" lon="12.767311116205706"><ele>1088.6666666666667</ele><time>2026-04-11T15:04:11.996Z</time></trkpt><trkpt lat="42.69064241257321" lon="12.767339753389493"><ele>1090.0</ele><time>2026-04-11T15:04:21.997Z</time></trkpt><trkpt lat="42.69058009328043" lon="12.76741320477165"><ele>1091.3333333333335</ele><time>2026-04-11T15:04:24.997Z</time></trkpt><trkpt lat="42.69052020415589" lon="12.767473203225029"><ele>1092.6666666666667</ele><time>2026-04-11T15:04:28.997Z</time></trkpt><trkpt lat="42.6904440780485" lon="12.767541690902702"><ele>1094.0</ele><time>2026-04-11T15:04:31.997Z</time></trkpt><trkpt lat="42.69036503972767" lon="12.767606583998832"><ele>1094.0</ele><time>2026-04-11T15:04:33.997Z</time></trkpt><trkpt lat="42.69027520336" lon="12.767618743507875"><ele>1094.0</ele><time>2026-04-11T15:04:36.997Z</time></trkpt><trkpt lat="42.6901883844202" lon="12.767660674774694"><ele>1094.0</ele><time>2026-04-11T15:04:38.995Z</time></trkpt><trkpt lat="42.69011146337182" lon="12.767691432242737"><ele>1094.0</ele><time>2026-04-11T15:04:40.995Z</time></trkpt><trkpt lat="42.690029570758675" lon="12.767723361207537"><ele>1094.0</ele><time>2026-04-11T15:04:42.995Z</time></trkpt><trkpt lat="42.68993557716749" lon="12.767778057746982"><ele>1093.0</ele><time>2026-04-11T15:04:44.995Z</time></trkpt><trkpt lat="42.68985693202634" lon="12.767794846392446"><ele>1092.0</ele><time>2026-04-11T15:04:46.995Z</time></trkpt><trkpt lat="42.689782636251515" lon="12.76778046010638"><ele>1091.0</ele><time>2026-04-11T15:04:49.996Z</time></trkpt><trkpt lat="42.68971279093888" lon="12.767767303521584"><ele>1090.0</ele><time>2026-04-11T15:04:51.995Z</time></trkpt><trkpt lat="42.689660489880886" lon="12.767702392451598"><ele>1089.0</ele><time>2026-04-11T15:04:53.995Z</time></trkpt><trkpt lat="42.689580560726135" lon="12.767685390163996"><ele>1088.0</ele><time>2026-04-11T15:04:59.995Z</time></trkpt><trkpt lat="42.68949870079927" lon="12.767694745498297"><ele>1088.0</ele><time>2026-04-11T15:05:01.995Z</time></trkpt><trkpt lat="42.68940915012119" lon="12.767687797176546"><ele>1088.0</ele><time>2026-04-11T15:05:03.995Z</time></trkpt><trkpt lat="42.68929999796924" lon="12.76769462775707"><ele>1088.0</ele><time>2026-04-11T15:05:06.995Z</time></trkpt><trkpt lat="42.689241684717196" lon="12.767622697392895"><ele>1088.0</ele><time>2026-04-11T15:05:09.995Z</time></trkpt><trkpt lat="42.6892089236736" lon="12.76754047423793"><ele>1088.0</ele><time>2026-04-11T15:05:11.995Z</time></trkpt><trkpt lat="42.689177136903034" lon="12.767453629241425"><ele>1088.0</ele><time>2026-04-11T15:05:13.995Z</time></trkpt><trkpt lat="42.689151728431746" lon="12.76737096965553"><ele>1088.0</ele><time>2026-04-11T15:05:15.996Z</time></trkpt><trkpt lat="42.689091087452304" lon="12.767298561636037"><ele>1088.0</ele><time>2026-04-11T15:05:18.996Z</time></trkpt><trkpt lat="42.688997109182004" lon="12.767307692331139"><ele>1088.0</ele><time>2026-04-11T15:05:21.996Z</time></trkpt><trkpt lat="42.68891841915401" lon="12.76732099014211"><ele>1088.0</ele><time>2026-04-11T15:05:23.996Z</time></trkpt><trkpt lat="42.688826998242" lon="12.767373482275254"><ele>1088.0</ele><time>2026-04-11T15:05:25.996Z</time></trkpt><trkpt lat="42.688726249025414" lon="12.767438791993003"><ele>1088.0</ele><time>2026-04-11T15:05:27.996Z</time></trkpt><trkpt lat="42.68862570198369" lon="12.767517772562687"><ele>1088.0</ele><time>2026-04-11T15:05:29.996Z</time></trkpt><trkpt lat="42.68852752440138" lon="12.767620999382034"><ele>1088.0</ele><time>2026-04-11T15:05:31.996Z</time></trkpt><trkpt lat="42.688477621093796" lon="12.767698418333504"><ele>1088.0</ele><time>2026-04-11T15:05:32.996Z</time></trkpt><trkpt lat="42.688430345185665" lon="12.767758318893476"><ele>1088.0</ele><time>2026-04-11T15:05:33.996Z</time></trkpt><trkpt lat="42.68836833205943" lon="12.767878127200273"><ele>1090.0</ele><time>2026-04-11T15:05:35.996Z</time></trkpt><trkpt lat="42.68830365696583" lon="12.768021022576987"><ele>1092.0</ele><time>2026-04-11T15:05:37.996Z</time></trkpt><trkpt lat="42.6882186160524" lon="12.768100214029305"><ele>1094.0</ele><time>2026-04-11T15:05:39.996Z</time></trkpt><trkpt lat="42.68815092923393" lon="12.768161528437362"><ele>1096.0</ele><time>2026-04-11T15:05:41.996Z</time></trkpt><trkpt lat="42.68808903213233" lon="12.768217110640915"><ele>1098.0</ele><time>2026-04-11T15:05:44.996Z</time></trkpt><trkpt lat="42.68803142170924" lon="12.768134479181322"><ele>1098.0</ele><time>2026-04-11T15:05:46.996Z</time></trkpt><trkpt lat="42.68803615064225" lon="12.768020925362293"><ele>1098.0</ele><time>2026-04-11T15:05:48.996Z</time></trkpt><trkpt lat="42.68803696262186" lon="12.767924206149841"><ele>1098.0</ele><time>2026-04-11T15:05:50.996Z</time></trkpt><trkpt lat="42.68801169280643" lon="12.767825106326011"><ele>1098.0</ele><time>2026-04-11T15:05:52.996Z</time></trkpt><trkpt lat="42.68797019720487" lon="12.767730511348983"><ele>1098.0</ele><time>2026-04-11T15:05:55.996Z</time></trkpt><trkpt lat="42.68793715515903" lon="12.767636277723417"><ele>1098.0</ele><time>2026-04-11T15:05:57.996Z</time></trkpt><trkpt lat="42.68789932028178" lon="12.767547019470008"><ele>1097.2</ele><time>2026-04-11T15:05:59.996Z</time></trkpt><trkpt lat="42.68784675309694" lon="12.767443870852306"><ele>1096.4</ele><time>2026-04-11T15:06:01.996Z</time></trkpt><trkpt lat="42.68779654363981" lon="12.767376399002758"><ele>1095.6000000000001</ele><time>2026-04-11T15:06:03.996Z</time></trkpt><trkpt lat="42.68769686849378" lon="12.767316209697823"><ele>1094.8</ele><time>2026-04-11T15:06:06.996Z</time></trkpt><trkpt lat="42.68760145727757" lon="12.767301513381222"><ele>1094.0</ele><time>2026-04-11T15:06:08.996Z</time></trkpt><trkpt lat="42.68748954674813" lon="12.76725444064046"><ele>1097.6666666666667</ele><time>2026-04-11T15:06:10.996Z</time></trkpt><trkpt lat="42.68742532099012" lon="12.767235878858394"><ele>1101.3333333333335</ele><time>2026-04-11T15:06:11.996Z</time></trkpt><trkpt lat="42.687329861981546" lon="12.76719546219342"><ele>1105.0</ele><time>2026-04-11T15:06:13.996Z</time></trkpt><trkpt lat="42.687240767664235" lon="12.767189567117033"><ele>1108.6666666666667</ele><time>2026-04-11T15:06:15.996Z</time></trkpt><trkpt lat="42.687176704377485" lon="12.767161575348364"><ele>1112.3333333333333</ele><time>2026-04-11T15:06:17.996Z</time></trkpt><trkpt lat="42.68709518065049" lon="12.767231190207191"><ele>1116.0</ele><time>2026-04-11T15:06:20.996Z</time></trkpt><trkpt lat="42.68705474461398" lon="12.767297037261322"><ele>1116.0</ele><time>2026-04-11T15:06:21.996Z</time></trkpt><trkpt lat="42.68698156490774" lon="12.767399481229004"><ele>1116.0</ele><time>2026-04-11T15:06:23.996Z</time></trkpt><trkpt lat="42.68692883806956" lon="12.76746167802623"><ele>1116.0</ele><time>2026-04-11T15:06:25.996Z</time></trkpt><trkpt lat="42.686876261083974" lon="12.767576590238743"><ele>1116.0</ele><time>2026-04-11T15:06:27.996Z</time></trkpt><trkpt lat="42.68684290730831" lon="12.767693379714599"><ele>1116.0</ele><time>2026-04-11T15:06:29.996Z</time></trkpt><trkpt lat="42.68678127111943" lon="12.76776352189276"><ele>1116.0</ele><time>2026-04-11T15:06:32.996Z</time></trkpt><trkpt lat="42.68668972396477" lon="12.767741392287183"><ele>1115.1666666666667</ele><time>2026-04-11T15:06:35.996Z</time></trkpt><trkpt lat="42.68662973127121" lon="12.767675986006635"><ele>1114.3333333333333</ele><time>2026-04-11T15:06:37.996Z</time></trkpt><trkpt lat="42.68659687115153" lon="12.76758960418403"><ele>1113.5</ele><time>2026-04-11T15:06:39.996Z</time></trkpt><trkpt lat="42.686593033395916" lon="12.76745892316496"><ele>1112.6666666666665</ele><time>2026-04-11T15:06:41.996Z</time></trkpt><trkpt lat="42.686586289765124" lon="12.76737353306599"><ele>1111.8333333333333</ele><time>2026-04-11T15:06:42.996Z</time></trkpt><trkpt lat="42.68662792756083" lon="12.767233931632479"><ele>1111.0</ele><time>2026-04-11T15:06:44.995Z</time></trkpt><trkpt lat="42.686673288405444" lon="12.767115905003818"><ele>1111.0</ele><time>2026-04-11T15:06:46.994Z</time></trkpt><trkpt lat="42.68669143604094" lon="12.766995354947229"><ele>1111.0</ele><time>2026-04-11T15:06:48.995Z</time></trkpt><trkpt lat="42.68667633708687" lon="12.766862344142762"><ele>1111.0</ele><time>2026-04-11T15:06:50.994Z</time></trkpt><trkpt lat="42.6866477611687" lon="12.766768817730313"><ele>1111.0</ele><time>2026-04-11T15:06:52.995Z</time></trkpt><trkpt lat="42.68657814151994" lon="12.766814000930147"><ele>1111.0</ele><time>2026-04-11T15:08:07.995Z</time></trkpt><trkpt lat="42.68662552240386" lon="12.766957145456818"><ele>1111.0</ele><time>2026-04-11T15:08:09.995Z</time></trkpt><trkpt lat="42.68667381730402" lon="12.767035414568799"><ele>1111.0</ele><time>2026-04-11T15:08:10.995Z</time></trkpt><trkpt lat="42.686712781440676" lon="12.767122347911057"><ele>1111.0</ele><time>2026-04-11T15:08:11.995Z</time></trkpt><trkpt lat="42.68674891211322" lon="12.76721747046362"><ele>1111.0</ele><time>2026-04-11T15:08:12.995Z</time></trkpt><trkpt lat="42.68678719996842" lon="12.767317994212203"><ele>1111.0</ele><time>2026-04-11T15:08:13.995Z</time></trkpt><trkpt lat="42.68681473521269" lon="12.767406993137854"><ele>1111.0</ele><time>2026-04-11T15:08:14.995Z</time></trkpt><trkpt lat="42.686825010873584" lon="12.767507349830225"><ele>1111.0</ele><time>2026-04-11T15:08:15.995Z</time></trkpt><trkpt lat="42.68684677695679" lon="12.767660002179856"><ele>1111.0</ele><time>2026-04-11T15:08:17.995Z</time></trkpt><trkpt lat="42.68678306562947" lon="12.767776724272414"><ele>1111.0</ele><time>2026-04-11T15:08:19.995Z</time></trkpt><trkpt lat="42.68670567467165" lon="12.767762889935003"><ele>1111.0</ele><time>2026-04-11T15:08:21.995Z</time></trkpt><trkpt lat="42.68668974649697" lon="12.767619202877844"><ele>1111.0</ele><time>2026-04-11T15:08:24.995Z</time></trkpt><trkpt lat="42.686684238703286" lon="12.76751218442845"><ele>1111.0</ele><time>2026-04-11T15:08:25.995Z</time></trkpt><trkpt lat="42.68668861328457" lon="12.76739594587238"><ele>1111.0</ele><time>2026-04-11T15:08:26.995Z</time></trkpt><trkpt lat="42.68670511391971" lon="12.767280968522218"><ele>1111.0</ele><time>2026-04-11T15:08:27.995Z</time></trkpt><trkpt lat="42.686720757271345" lon="12.767183566350527"><ele>1111.0</ele><time>2026-04-11T15:08:28.995Z</time></trkpt><trkpt lat="42.68671601095064" lon="12.767057283693456"><ele>1111.0</ele><time>2026-04-11T15:08:30.995Z</time></trkpt><trkpt lat="42.686665087876435" lon="12.767136959708353"><ele>1111.0</ele><time>2026-04-11T15:08:33.995Z</time></trkpt><trkpt lat="42.68672413379069" lon="12.767305753239745"><ele>1111.0</ele><time>2026-04-11T15:08:35.995Z</time></trkpt><trkpt lat="42.686760400818876" lon="12.767425271812296"><ele>1111.0</ele><time>2026-04-11T15:08:36.995Z</time></trkpt><trkpt lat="42.68676560904466" lon="12.76753268852104"><ele>1111.0</ele><time>2026-04-11T15:08:37.995Z</time></trkpt><trkpt lat="42.6867724687955" lon="12.767646125350655"><ele>1111.0</ele><time>2026-04-11T15:08:38.996Z</time></trkpt><trkpt lat="42.68677306658625" lon="12.767746601325385"><ele>1111.0</ele><time>2026-04-11T15:08:39.996Z</time></trkpt><trkpt lat="42.686778690025" lon="12.767891802085934"><ele>1111.0</ele><time>2026-04-11T15:08:41.996Z</time></trkpt><trkpt lat="42.68677912487853" lon="12.767982544945513"><ele>1112.0</ele><time>2026-04-11T15:08:43.996Z</time></trkpt><trkpt lat="42.68675075754906" lon="12.768063265817558"><ele>1113.0</ele><time>2026-04-11T15:08:46.996Z</time></trkpt><trkpt lat="42.68668951507481" lon="12.767996595774301"><ele>1114.0</ele><time>2026-04-11T15:08:51.995Z</time></trkpt><trkpt lat="42.68661151167162" lon="12.767909916835325"><ele>1115.0</ele><time>2026-04-11T15:08:53.994Z</time></trkpt><trkpt lat="42.68655539600639" lon="12.767859294255688"><ele>1116.0</ele><time>2026-04-11T15:08:54.994Z</time></trkpt><trkpt lat="42.68646898690574" lon="12.76780155741697"><ele>1117.0</ele><time>2026-04-11T15:08:56.995Z</time></trkpt><trkpt lat="42.68640448099605" lon="12.767818403535252"><ele>1117.0</ele><time>2026-04-11T15:08:58.995Z</time></trkpt><trkpt lat="42.68630262363286" lon="12.767877903284177"><ele>1117.0</ele><time>2026-04-11T15:09:00.995Z</time></trkpt><trkpt lat="42.686202101890466" lon="12.767900193043461"><ele>1117.0</ele><time>2026-04-11T15:09:02.995Z</time></trkpt><trkpt lat="42.686129316713334" lon="12.767910892583334"><ele>1117.0</ele><time>2026-04-11T15:09:04.995Z</time></trkpt><trkpt lat="42.686052704116506" lon="12.767858165412575"><ele>1117.0</ele><time>2026-04-11T15:09:07.995Z</time></trkpt><trkpt lat="42.68599184416477" lon="12.767782531054412"><ele>1117.0</ele><time>2026-04-11T15:09:11.995Z</time></trkpt><trkpt lat="42.6859218546688" lon="12.767735021239417"><ele>1117.0</ele><time>2026-04-11T15:09:15.995Z</time></trkpt><trkpt lat="42.68586209679846" lon="12.767786470583346"><ele>1117.0</ele><time>2026-04-11T15:09:19.995Z</time></trkpt><trkpt lat="42.68581989514327" lon="12.767679737428725"><ele>1117.0</ele><time>2026-04-11T15:09:24.995Z</time></trkpt><trkpt lat="42.68580614452246" lon="12.767550612661475"><ele>1117.0</ele><time>2026-04-11T15:09:26.995Z</time></trkpt><trkpt lat="42.685752206853024" lon="12.767490183603057"><ele>1117.0</ele><time>2026-04-11T15:09:29.995Z</time></trkpt><trkpt lat="42.68573328181195" lon="12.767359688166911"><ele>1116.2</ele><time>2026-04-11T15:09:32.995Z</time></trkpt><trkpt lat="42.68570746974105" lon="12.767271814436215"><ele>1115.4</ele><time>2026-04-11T15:09:33.995Z</time></trkpt><trkpt lat="42.68560704341576" lon="12.767163630222754"><ele>1114.6</ele><time>2026-04-11T15:09:35.995Z</time></trkpt><trkpt lat="42.68552041246797" lon="12.767125748863887"><ele>1113.8</ele><time>2026-04-11T15:09:36.995Z</time></trkpt><trkpt lat="42.68542837004966" lon="12.767121147230561"><ele>1113.0</ele><time>2026-04-11T15:09:37.995Z</time></trkpt><trkpt lat="42.685349145131674" lon="12.767115363843669"><ele>1113.0</ele><time>2026-04-11T15:09:38.995Z</time></trkpt><trkpt lat="42.68527667387583" lon="12.767112521155854"><ele>1113.0</ele><time>2026-04-11T15:09:39.995Z</time></trkpt><trkpt lat="42.68520992944886" lon="12.76710471558"><ele>1113.0</ele><time>2026-04-11T15:09:40.995Z</time></trkpt><trkpt lat="42.68514120533516" lon="12.767107640634592"><ele>1113.0</ele><time>2026-04-11T15:09:41.995Z</time></trkpt><trkpt lat="42.68503325046114" lon="12.767113288778098"><ele>1113.0</ele><time>2026-04-11T15:09:43.995Z</time></trkpt><trkpt lat="42.68493564912563" lon="12.767110141129356"><ele>1113.0</ele><time>2026-04-11T15:09:45.995Z</time></trkpt><trkpt lat="42.68484811919607" lon="12.766963359481966"><ele>1113.8</ele><time>2026-04-11T15:09:47.995Z</time></trkpt><trkpt lat="42.68480799202491" lon="12.766864512874822"><ele>1114.6</ele><time>2026-04-11T15:09:48.995Z</time></trkpt><trkpt lat="42.68474830384722" lon="12.766751261009691"><ele>1115.4</ele><time>2026-04-11T15:09:49.995Z</time></trkpt><trkpt lat="42.68469052373962" lon="12.76663555485433"><ele>1116.2</ele><time>2026-04-11T15:09:50.995Z</time></trkpt><trkpt lat="42.684641060308024" lon="12.766511897667876"><ele>1117.0</ele><time>2026-04-11T15:09:51.995Z</time></trkpt><trkpt lat="42.68458312693991" lon="12.76638654204453"><ele>1117.3333333333333</ele><time>2026-04-11T15:09:52.995Z</time></trkpt><trkpt lat="42.68453288593288" lon="12.766275022937545"><ele>1117.6666666666665</ele><time>2026-04-11T15:09:53.995Z</time></trkpt><trkpt lat="42.68449005687561" lon="12.766205633715321"><ele>1118.0</ele><time>2026-04-11T15:09:54.995Z</time></trkpt><trkpt lat="42.684442599647966" lon="12.76614642450385"><ele>1118.3333333333333</ele><time>2026-04-11T15:09:56.995Z</time></trkpt><trkpt lat="42.68441954916986" lon="12.766242602950626"><ele>1118.6666666666667</ele><time>2026-04-11T15:10:00.995Z</time></trkpt><trkpt lat="42.68448333960574" lon="12.7663413057622"><ele>1119.0</ele><time>2026-04-11T15:10:02.995Z</time></trkpt><trkpt lat="42.68458115693916" lon="12.766431781029995"><ele>1119.0</ele><time>2026-04-11T15:10:04.995Z</time></trkpt><trkpt lat="42.68464853544223" lon="12.766505709343674"><ele>1119.0</ele><time>2026-04-11T15:10:06.996Z</time></trkpt><trkpt lat="42.684710977734326" lon="12.766642301402893"><ele>1119.0</ele><time>2026-04-11T15:10:08.996Z</time></trkpt><trkpt lat="42.6847574003317" lon="12.766744778579879"><ele>1119.0</ele><time>2026-04-11T15:10:09.996Z</time></trkpt><trkpt lat="42.684797682319434" lon="12.766841508232973"><ele>1119.0</ele><time>2026-04-11T15:10:10.996Z</time></trkpt><trkpt lat="42.68484611545848" lon="12.766928268213992"><ele>1118.6666666666667</ele><time>2026-04-11T15:10:11.996Z</time></trkpt><trkpt lat="42.684888356130585" lon="12.767004746841796"><ele>1118.3333333333333</ele><time>2026-04-11T15:10:12.996Z</time></trkpt><trkpt lat="42.684940901331274" lon="12.767088352052554"><ele>1118.0</ele><time>2026-04-11T15:10:14.996Z</time></trkpt><trkpt lat="42.68499711168142" lon="12.767209453010317"><ele>1117.6666666666665</ele><time>2026-04-11T15:10:17.996Z</time></trkpt><trkpt lat="42.6850418007108" lon="12.767324749764493"><ele>1117.3333333333333</ele><time>2026-04-11T15:10:19.996Z</time></trkpt><trkpt lat="42.68508924103336" lon="12.767413814570896"><ele>1117.0</ele><time>2026-04-11T15:10:22.996Z</time></trkpt><trkpt lat="42.685141825837675" lon="12.767501394836628"><ele>1117.0</ele><time>2026-04-11T15:10:25.996Z</time></trkpt><trkpt lat="42.68521673561277" lon="12.767571203992816"><ele>1117.0</ele><time>2026-04-11T15:10:27.996Z</time></trkpt><trkpt lat="42.68528448655547" lon="12.767614265984845"><ele>1117.0</ele><time>2026-04-11T15:10:29.996Z</time></trkpt><trkpt lat="42.68532643800456" lon="12.767701169499126"><ele>1117.0</ele><time>2026-04-11T15:10:32.996Z</time></trkpt><trkpt lat="42.68540738363833" lon="12.767764194877744"><ele>1117.0</ele><time>2026-04-11T15:10:49.996Z</time></trkpt><trkpt lat="42.68544139881656" lon="12.767839112369142"><ele>1117.0</ele><time>2026-04-11T15:10:50.996Z</time></trkpt><trkpt lat="42.68549826870934" lon="12.767918877140916"><ele>1117.0</ele><time>2026-04-11T15:10:52.996Z</time></trkpt><trkpt lat="42.68553601328189" lon="12.768012360766797"><ele>1117.0</ele><time>2026-04-11T15:10:55.995Z</time></trkpt><trkpt lat="42.685549677823545" lon="12.768103039371212"><ele>1117.0</ele><time>2026-04-11T15:10:57.995Z</time></trkpt><trkpt lat="42.68553245689686" lon="12.768205892815738"><ele>1117.0</ele><time>2026-04-11T15:10:59.994Z</time></trkpt><trkpt lat="42.685521801752124" lon="12.768292986456647"><ele>1117.0</ele><time>2026-04-11T15:11:01.995Z</time></trkpt><trkpt lat="42.685521351276286" lon="12.768395957929295"><ele>1117.0</ele><time>2026-04-11T15:11:05.995Z</time></trkpt><trkpt lat="42.68560736629347" lon="12.7684932718627"><ele>1118.3333333333333</ele><time>2026-04-11T15:11:08.994Z</time></trkpt><trkpt lat="42.685613717570135" lon="12.768583090319476"><ele>1119.6666666666665</ele><time>2026-04-11T15:11:10.994Z</time></trkpt><trkpt lat="42.685665712412884" lon="12.768677257636025"><ele>1121.0</ele><time>2026-04-11T15:11:13.994Z</time></trkpt><trkpt lat="42.68569633635631" lon="12.76878411754668"><ele>1122.3333333333333</ele><time>2026-04-11T15:11:16.994Z</time></trkpt><trkpt lat="42.68574202815825" lon="12.76886815257863"><ele>1123.6666666666667</ele><time>2026-04-11T15:11:19.994Z</time></trkpt><trkpt lat="42.68579348138084" lon="12.768926426008736"><ele>1125.0</ele><time>2026-04-11T15:11:22.994Z</time></trkpt><trkpt lat="42.68580030302581" lon="12.769026069725854"><ele>1125.0</ele><time>2026-04-11T15:11:25.994Z</time></trkpt><trkpt lat="42.68573551767117" lon="12.769083472626008"><ele>1125.0</ele><time>2026-04-11T15:11:29.994Z</time></trkpt><trkpt lat="42.68568460514594" lon="12.769133950790264"><ele>1125.0</ele><time>2026-04-11T15:11:57.995Z</time></trkpt><trkpt lat="42.68564035003014" lon="12.769211574063373"><ele>1125.0</ele><time>2026-04-11T15:11:59.995Z</time></trkpt><trkpt lat="42.685714733701836" lon="12.76913685137557"><ele>1125.0</ele><time>2026-04-11T15:12:17.995Z</time></trkpt><trkpt lat="42.685782588895904" lon="12.76905254732052"><ele>1125.0</ele><time>2026-04-11T15:12:20.995Z</time></trkpt><trkpt lat="42.68584990240081" lon="12.769040650214404"><ele>1125.0</ele><time>2026-04-11T15:13:03.995Z</time></trkpt><trkpt lat="42.68593192783799" lon="12.768985492183669"><ele>1125.0</ele><time>2026-04-11T15:13:05.994Z</time></trkpt><trkpt lat="42.68601316278964" lon="12.769022309611328"><ele>1125.0</ele><time>2026-04-11T15:13:08.994Z</time></trkpt><trkpt lat="42.686082974705286" lon="12.769009383461569"><ele>1125.0</ele><time>2026-04-11T15:13:10.994Z</time></trkpt><trkpt lat="42.68616145355737" lon="12.769002868783533"><ele>1125.0</ele><time>2026-04-11T15:13:13.994Z</time></trkpt><trkpt lat="42.68622693433739" lon="12.768911216606647"><ele>1125.0</ele><time>2026-04-11T15:13:19.995Z</time></trkpt><trkpt lat="42.68630894666673" lon="12.76885807759159"><ele>1125.6</ele><time>2026-04-11T15:13:21.995Z</time></trkpt><trkpt lat="42.68641196726424" lon="12.768804425524404"><ele>1126.2</ele><time>2026-04-11T15:13:24.995Z</time></trkpt><trkpt lat="42.68650967220095" lon="12.768810386205532"><ele>1126.8</ele><time>2026-04-11T15:13:26.995Z</time></trkpt><trkpt lat="42.686593407367766" lon="12.768836106535499"><ele>1127.4</ele><time>2026-04-11T15:13:28.995Z</time></trkpt><trkpt lat="42.68667695519238" lon="12.768868878582115"><ele>1128.0</ele><time>2026-04-11T15:13:31.995Z</time></trkpt><trkpt lat="42.68674384888869" lon="12.768923362639969"><ele>1128.0</ele><time>2026-04-11T15:13:33.995Z</time></trkpt><trkpt lat="42.68679497075785" lon="12.76902149417767"><ele>1128.0</ele><time>2026-04-11T15:13:35.995Z</time></trkpt><trkpt lat="42.686760767521065" lon="12.769134021398743"><ele>1128.0</ele><time>2026-04-11T15:13:38.995Z</time></trkpt><trkpt lat="42.68669590242205" lon="12.769218972454018"><ele>1128.0</ele><time>2026-04-11T15:13:40.995Z</time></trkpt><trkpt lat="42.68662812998946" lon="12.769271954635402"><ele>1128.0</ele><time>2026-04-11T15:13:42.995Z</time></trkpt><trkpt lat="42.68653443736374" lon="12.769346063575155"><ele>1130.2</ele><time>2026-04-11T15:13:56.995Z</time></trkpt><trkpt lat="42.6864230135608" lon="12.769399961312551"><ele>1132.4</ele><time>2026-04-11T15:13:58.995Z</time></trkpt><trkpt lat="42.6863234015487" lon="12.769413324719936"><ele>1134.6000000000001</ele><time>2026-04-11T15:14:00.995Z</time></trkpt><trkpt lat="42.686228272478935" lon="12.769474541890794"><ele>1136.8</ele><time>2026-04-11T15:14:02.995Z</time></trkpt><trkpt lat="42.686166160410146" lon="12.769522715851473"><ele>1139.0</ele><time>2026-04-11T15:14:04.995Z</time></trkpt><trkpt lat="42.686085036649274" lon="12.76957836720527"><ele>1139.0</ele><time>2026-04-11T15:14:06.995Z</time></trkpt><trkpt lat="42.686004498748716" lon="12.769649070904979"><ele>1139.0</ele><time>2026-04-11T15:14:08.995Z</time></trkpt><trkpt lat="42.68593770874569" lon="12.769732020479264"><ele>1139.0</ele><time>2026-04-11T15:14:10.995Z</time></trkpt><trkpt lat="42.685843859332394" lon="12.769821954832581"><ele>1139.0</ele><time>2026-04-11T15:14:12.995Z</time></trkpt><trkpt lat="42.685783217598754" lon="12.769890124181481"><ele>1139.0</ele><time>2026-04-11T15:14:14.995Z</time></trkpt><trkpt lat="42.68568617401192" lon="12.769966585113055"><ele>1139.0</ele><time>2026-04-11T15:14:16.995Z</time></trkpt><trkpt lat="42.685615762171174" lon="12.770031996894081"><ele>1139.0</ele><time>2026-04-11T15:14:18.995Z</time></trkpt><trkpt lat="42.685538943619186" lon="12.770140736640336"><ele>1139.0</ele><time>2026-04-11T15:14:20.995Z</time></trkpt><trkpt lat="42.685477034081" lon="12.770200397922581"><ele>1139.0</ele><time>2026-04-11T15:14:21.995Z</time></trkpt><trkpt lat="42.68538533141132" lon="12.770285397685218"><ele>1139.0</ele><time>2026-04-11T15:14:23.995Z</time></trkpt><trkpt lat="42.68532787466715" lon="12.770337164988257"><ele>1141.6000000000001</ele><time>2026-04-11T15:14:24.995Z</time></trkpt><trkpt lat="42.68524814107416" lon="12.77041503850991"><ele>1144.2</ele><time>2026-04-11T15:14:26.995Z</time></trkpt><trkpt lat="42.685190358117495" lon="12.77045163045112"><ele>1146.8000000000002</ele><time>2026-04-11T15:14:27.995Z</time></trkpt><trkpt lat="42.685109354773985" lon="12.770532121392154"><ele>1149.4</ele><time>2026-04-11T15:14:29.995Z</time></trkpt><trkpt lat="42.68502329906671" lon="12.770568875356236"><ele>1152.0</ele><time>2026-04-11T15:14:31.995Z</time></trkpt><trkpt lat="42.68491599354091" lon="12.770614775840974"><ele>1152.0</ele><time>2026-04-11T15:14:33.995Z</time></trkpt><trkpt lat="42.684835407147986" lon="12.770630158653548"><ele>1152.0</ele><time>2026-04-11T15:14:34.995Z</time></trkpt><trkpt lat="42.68476372933651" lon="12.770627341960951"><ele>1152.0</ele><time>2026-04-11T15:14:35.995Z</time></trkpt><trkpt lat="42.68467545126762" lon="12.770573880561559"><ele>1152.0</ele><time>2026-04-11T15:14:37.995Z</time></trkpt><trkpt lat="42.684621185104696" lon="12.770518618183635"><ele>1152.0</ele><time>2026-04-11T15:14:38.995Z</time></trkpt><trkpt lat="42.68456557807213" lon="12.770467060027164"><ele>1152.0</ele><time>2026-04-11T15:14:40.995Z</time></trkpt><trkpt lat="42.684442811756895" lon="12.770488046764088"><ele>1151.8</ele><time>2026-04-11T15:14:42.995Z</time></trkpt><trkpt lat="42.684361831273954" lon="12.770523929696566"><ele>1151.6</ele><time>2026-04-11T15:14:44.995Z</time></trkpt><trkpt lat="42.684248955678434" lon="12.770556426993817"><ele>1151.3999999999999</ele><time>2026-04-11T15:14:46.995Z</time></trkpt><trkpt lat="42.68416776854456" lon="12.770599073988103"><ele>1151.2</ele><time>2026-04-11T15:14:48.995Z</time></trkpt><trkpt lat="42.68407081539114" lon="12.770633158828305"><ele>1151.0</ele><time>2026-04-11T15:14:50.995Z</time></trkpt><trkpt lat="42.68399605711572" lon="12.770647977499"><ele>1151.0</ele><time>2026-04-11T15:14:52.995Z</time></trkpt><trkpt lat="42.683934532458586" lon="12.770705007394652"><ele>1151.0</ele><time>2026-04-11T15:14:54.995Z</time></trkpt><trkpt lat="42.68385274235463" lon="12.770789603743605"><ele>1151.0</ele><time>2026-04-11T15:14:57.995Z</time></trkpt><trkpt lat="42.683788030852774" lon="12.77087502690963"><ele>1151.0</ele><time>2026-04-11T15:14:59.995Z</time></trkpt><trkpt lat="42.683731058506375" lon="12.77094075477774"><ele>1151.0</ele><time>2026-04-11T15:15:01.995Z</time></trkpt><trkpt lat="42.683658200620485" lon="12.771008472358357"><ele>1151.0</ele><time>2026-04-11T15:15:03.995Z</time></trkpt><trkpt lat="42.683591165200575" lon="12.771105036826919"><ele>1149.8333333333335</ele><time>2026-04-11T15:15:05.995Z</time></trkpt><trkpt lat="42.683561958911795" lon="12.77118233140518"><ele>1148.6666666666667</ele><time>2026-04-11T15:15:07.994Z</time></trkpt><trkpt lat="42.683533342801184" lon="12.771304623875643"><ele>1147.5</ele><time>2026-04-11T15:15:10.994Z</time></trkpt><trkpt lat="42.683487550171186" lon="12.771425636910456"><ele>1146.3333333333333</ele><time>2026-04-11T15:15:13.994Z</time></trkpt><trkpt lat="42.68346478846161" lon="12.77150979004651"><ele>1145.1666666666665</ele><time>2026-04-11T15:15:15.994Z</time></trkpt><trkpt lat="42.68345010001594" lon="12.771599029638354"><ele>1144.0</ele><time>2026-04-11T15:15:17.994Z</time></trkpt><trkpt lat="42.68344345505526" lon="12.771722021704706"><ele>1144.0</ele><time>2026-04-11T15:15:19.994Z</time></trkpt><trkpt lat="42.683432460095716" lon="12.771831293835026"><ele>1144.0</ele><time>2026-04-11T15:15:21.994Z</time></trkpt><trkpt lat="42.683425597532064" lon="12.77195600759932"><ele>1144.0</ele><time>2026-04-11T15:15:23.994Z</time></trkpt><trkpt lat="42.68341837903988" lon="12.772087252850124"><ele>1144.0</ele><time>2026-04-11T15:15:25.994Z</time></trkpt><trkpt lat="42.68342862123814" lon="12.772197173655682"><ele>1144.0</ele><time>2026-04-11T15:15:27.994Z</time></trkpt><trkpt lat="42.68342182224337" lon="12.772306600762114"><ele>1144.0</ele><time>2026-04-11T15:15:29.994Z</time></trkpt><trkpt lat="42.683416006614515" lon="12.772437125074847"><ele>1147.0</ele><time>2026-04-11T15:15:31.994Z</time></trkpt><trkpt lat="42.68341913608928" lon="12.772578006402828"><ele>1150.0</ele><time>2026-04-11T15:15:34.994Z</time></trkpt><trkpt lat="42.68342516169905" lon="12.772733411150723"><ele>1153.0</ele><time>2026-04-11T15:15:36.994Z</time></trkpt><trkpt lat="42.68340706007652" lon="12.77284081156258"><ele>1156.0</ele><time>2026-04-11T15:15:38.994Z</time></trkpt><trkpt lat="42.68336142281183" lon="12.772938676953416"><ele>1159.0</ele><time>2026-04-11T15:15:40.994Z</time></trkpt><trkpt lat="42.683320083129665" lon="12.773061928356283"><ele>1162.5</ele><time>2026-04-11T15:15:42.995Z</time></trkpt><trkpt lat="42.68329344752997" lon="12.773198987779242"><ele>1166.0</ele><time>2026-04-11T15:15:44.995Z</time></trkpt><trkpt lat="42.683196389949" lon="12.773343370701001"><ele>1169.5</ele><time>2026-04-11T15:15:46.995Z</time></trkpt><trkpt lat="42.68312530134213" lon="12.773419339088736"><ele>1173.0</ele><time>2026-04-11T15:15:48.995Z</time></trkpt><trkpt lat="42.683019251687824" lon="12.77350168941944"><ele>1174.5</ele><time>2026-04-11T15:15:50.995Z</time></trkpt><trkpt lat="42.68292325771463" lon="12.773559340461984"><ele>1176.0</ele><time>2026-04-11T15:15:51.995Z</time></trkpt><trkpt lat="42.682859304076594" lon="12.773601891368436"><ele>1177.5</ele><time>2026-04-11T15:15:52.995Z</time></trkpt><trkpt lat="42.682783888385174" lon="12.773629669719917"><ele>1179.0</ele><time>2026-04-11T15:15:53.995Z</time></trkpt><trkpt lat="42.68272575356378" lon="12.773687958974786"><ele>1180.5</ele><time>2026-04-11T15:15:54.995Z</time></trkpt><trkpt lat="42.682634729401876" lon="12.773767609412019"><ele>1182.0</ele><time>2026-04-11T15:15:56.995Z</time></trkpt><trkpt lat="42.68253937805562" lon="12.77380859723057"><ele>1182.0</ele><time>2026-04-11T15:15:58.995Z</time></trkpt><trkpt lat="42.68247300604789" lon="12.773807574110295"><ele>1182.0</ele><time>2026-04-11T15:15:59.995Z</time></trkpt><trkpt lat="42.6823464456964" lon="12.773796582358125"><ele>1182.0</ele><time>2026-04-11T15:16:01.995Z</time></trkpt><trkpt lat="42.6822819121342" lon="12.773802932955446"><ele>1182.0</ele><time>2026-04-11T15:16:02.995Z</time></trkpt><trkpt lat="42.68216892182668" lon="12.773809618988242"><ele>1182.0</ele><time>2026-04-11T15:16:04.995Z</time></trkpt><trkpt lat="42.68206805410714" lon="12.773811077417927"><ele>1182.0</ele><time>2026-04-11T15:16:06.995Z</time></trkpt><trkpt lat="42.68200191899401" lon="12.773794711232101"><ele>1182.0</ele><time>2026-04-11T15:16:07.995Z</time></trkpt><trkpt lat="42.68194360594845" lon="12.773762152975284"><ele>1182.0</ele><time>2026-04-11T15:16:08.995Z</time></trkpt><trkpt lat="42.681845498696816" lon="12.773718313053188"><ele>1182.0</ele><time>2026-04-11T15:16:10.995Z</time></trkpt><trkpt lat="42.68177117606627" lon="12.773776964964828"><ele>1182.0</ele><time>2026-04-11T15:16:17.995Z</time></trkpt><trkpt lat="42.68170838558227" lon="12.773905611281991"><ele>1182.0</ele><time>2026-04-11T15:16:19.995Z</time></trkpt><trkpt lat="42.68161976819298" lon="12.77399931832009"><ele>1182.3333333333333</ele><time>2026-04-11T15:16:21.995Z</time></trkpt><trkpt lat="42.681537819526675" lon="12.774028719842683"><ele>1182.6666666666667</ele><time>2026-04-11T15:16:23.995Z</time></trkpt><trkpt lat="42.681460054018395" lon="12.774103738107414"><ele>1183.0</ele><time>2026-04-11T15:16:25.995Z</time></trkpt><trkpt lat="42.68140922801385" lon="12.774207836483496"><ele>1183.3333333333335</ele><time>2026-04-11T15:16:27.995Z</time></trkpt><trkpt lat="42.681357262964525" lon="12.774304976456499"><ele>1183.6666666666667</ele><time>2026-04-11T15:16:29.995Z</time></trkpt><trkpt lat="42.681303905375074" lon="12.774356669161305"><ele>1184.0</ele><time>2026-04-11T15:16:32.995Z</time></trkpt><trkpt lat="42.681281993367435" lon="12.7744417449055"><ele>1185.1666666666667</ele><time>2026-04-11T15:16:35.995Z</time></trkpt><trkpt lat="42.6812197797171" lon="12.774511836125962"><ele>1186.3333333333335</ele><time>2026-04-11T15:17:06.995Z</time></trkpt><trkpt lat="42.68116098186514" lon="12.774591944579274"><ele>1187.5</ele><time>2026-04-11T15:17:12.995Z</time></trkpt><trkpt lat="42.681196560302574" lon="12.774677056683194"><ele>1188.6666666666667</ele><time>2026-04-11T15:17:14.993Z</time></trkpt><trkpt lat="42.681306076721704" lon="12.774664251980052"><ele>1189.8333333333333</ele><time>2026-04-11T15:17:16.993Z</time></trkpt><trkpt lat="42.68138684308471" lon="12.774605798656832"><ele>1191.0</ele><time>2026-04-11T15:17:18.994Z</time></trkpt><trkpt lat="42.68138413357066" lon="12.774511735474025"><ele>1191.0</ele><time>2026-04-11T15:17:20.993Z</time></trkpt><trkpt lat="42.68138502188522" lon="12.774391591700967"><ele>1191.0</ele><time>2026-04-11T15:17:22.993Z</time></trkpt><trkpt lat="42.681347024128804" lon="12.774304649530395"><ele>1191.0</ele><time>2026-04-11T15:17:25.994Z</time></trkpt><trkpt lat="42.68138235583938" lon="12.774207054387267"><ele>1191.0</ele><time>2026-04-11T15:17:29.995Z</time></trkpt><trkpt lat="42.68143768909426" lon="12.774158463516224"><ele>1191.0</ele><time>2026-04-11T15:17:32.996Z</time></trkpt><trkpt lat="42.68145984239168" lon="12.774074699213775"><ele>1191.0</ele><time>2026-04-11T15:17:34.997Z</time></trkpt><trkpt lat="42.68145015373732" lon="12.773973848377604"><ele>1191.0</ele><time>2026-04-11T15:17:37.997Z</time></trkpt><trkpt lat="42.681416751505246" lon="12.77385183982556"><ele>1189.8333333333333</ele><time>2026-04-11T15:17:40.998Z</time></trkpt><trkpt lat="42.681408781358805" lon="12.77376595287896"><ele>1188.6666666666667</ele><time>2026-04-11T15:17:42.998Z</time></trkpt><trkpt lat="42.681394966659965" lon="12.77365009523189"><ele>1187.5</ele><time>2026-04-11T15:17:45.999Z</time></trkpt><trkpt lat="42.681345847393835" lon="12.773562112456016"><ele>1186.3333333333335</ele><time>2026-04-11T15:17:48.999Z</time></trkpt><trkpt lat="42.681263155172125" lon="12.77354887634545"><ele>1185.1666666666667</ele><time>2026-04-11T15:17:51.999Z</time></trkpt><trkpt lat="42.68119180726546" lon="12.773580434493953"><ele>1184.0</ele><time>2026-04-11T15:17:53.999Z</time></trkpt><trkpt lat="42.6811211342583" lon="12.773628346707842"><ele>1183.8333333333335</ele><time>2026-04-11T15:17:56Z</time></trkpt><trkpt lat="42.68105640647131" lon="12.773693569609119"><ele>1183.6666666666667</ele><time>2026-04-11T15:17:58Z</time></trkpt><trkpt lat="42.680997014437224" lon="12.773754836146711"><ele>1183.5</ele><time>2026-04-11T15:18:00Z</time></trkpt><trkpt lat="42.680946436491226" lon="12.773820211942954"><ele>1183.3333333333333</ele><time>2026-04-11T15:18:03Z</time></trkpt><trkpt lat="42.680892598104485" lon="12.773870602645106"><ele>1183.1666666666665</ele><time>2026-04-11T15:18:43.001Z</time></trkpt><trkpt lat="42.68099018627319" lon="12.773780068324887"><ele>1183.0</ele><time>2026-04-11T15:18:47.001Z</time></trkpt><trkpt lat="42.68103360649873" lon="12.77371260316204"><ele>1183.0</ele><time>2026-04-11T15:18:48.001Z</time></trkpt><trkpt lat="42.681097502419384" lon="12.773592304491867"><ele>1183.0</ele><time>2026-04-11T15:18:50.001Z</time></trkpt><trkpt lat="42.681194338347474" lon="12.773523022035947"><ele>1183.0</ele><time>2026-04-11T15:18:52.001Z</time></trkpt><trkpt lat="42.6813008386848" lon="12.773489990723391"><ele>1183.0</ele><time>2026-04-11T15:18:54.001Z</time></trkpt><trkpt lat="42.68142232087917" lon="12.773493924420205"><ele>1183.0</ele><time>2026-04-11T15:18:56.001Z</time></trkpt><trkpt lat="42.68154371645442" lon="12.77354325379533"><ele>1183.1666666666665</ele><time>2026-04-11T15:18:58.001Z</time></trkpt><trkpt lat="42.68161529682765" lon="12.77357253200158"><ele>1183.3333333333333</ele><time>2026-04-11T15:18:59.001Z</time></trkpt><trkpt lat="42.681680190992566" lon="12.773606017637995"><ele>1183.5</ele><time>2026-04-11T15:19:00.001Z</time></trkpt><trkpt lat="42.68176024434556" lon="12.77363220427854"><ele>1183.6666666666667</ele><time>2026-04-11T15:19:01.001Z</time></trkpt><trkpt lat="42.68183437676649" lon="12.773637167540105"><ele>1183.8333333333335</ele><time>2026-04-11T15:19:02.001Z</time></trkpt><trkpt lat="42.681897451025414" lon="12.77364088130991"><ele>1184.0</ele><time>2026-04-11T15:19:03.001Z</time></trkpt><trkpt lat="42.682001943475086" lon="12.773607550787865"><ele>1183.6666666666667</ele><time>2026-04-11T15:19:05.001Z</time></trkpt><trkpt lat="42.682066377613516" lon="12.77357264978177"><ele>1183.3333333333335</ele><time>2026-04-11T15:19:06.001Z</time></trkpt><trkpt lat="42.68212691914657" lon="12.773543292317234"><ele>1183.0</ele><time>2026-04-11T15:19:07.001Z</time></trkpt><trkpt lat="42.68219084469283" lon="12.773528142693047"><ele>1182.6666666666667</ele><time>2026-04-11T15:19:08.001Z</time></trkpt><trkpt lat="42.68228582296387" lon="12.773468733171844"><ele>1182.3333333333333</ele><time>2026-04-11T15:19:10.001Z</time></trkpt><trkpt lat="42.682361719370604" lon="12.77329841133456"><ele>1182.0</ele><time>2026-04-11T15:19:12.001Z</time></trkpt><trkpt lat="42.682428072074785" lon="12.773184133488714"><ele>1179.5</ele><time>2026-04-11T15:19:14.001Z</time></trkpt><trkpt lat="42.682491643773254" lon="12.773091136330924"><ele>1177.0</ele><time>2026-04-11T15:19:16.001Z</time></trkpt><trkpt lat="42.682541654018614" lon="12.773027689455498"><ele>1174.5</ele><time>2026-04-11T15:19:18.001Z</time></trkpt><trkpt lat="42.682604056546225" lon="12.772975407572801"><ele>1172.0</ele><time>2026-04-11T15:19:22Z</time></trkpt><trkpt lat="42.68256229745961" lon="12.772906019184854"><ele>1169.5</ele><time>2026-04-11T15:19:25Z</time></trkpt><trkpt lat="42.68250523568625" lon="12.77297596631999"><ele>1167.0</ele><time>2026-04-11T15:19:28Z</time></trkpt><trkpt lat="42.682509474395815" lon="12.773113210858861"><ele>1167.0</ele><time>2026-04-11T15:19:30Z</time></trkpt><trkpt lat="42.682492279983485" lon="12.773204027210793"><ele>1167.0</ele><time>2026-04-11T15:19:32Z</time></trkpt><trkpt lat="42.68242149433241" lon="12.773280000404865"><ele>1167.0</ele><time>2026-04-11T15:19:35Z</time></trkpt><trkpt lat="42.682350161071795" lon="12.773339457814467"><ele>1167.0</ele><time>2026-04-11T15:19:37Z</time></trkpt><trkpt lat="42.682309156844745" lon="12.773479204997695"><ele>1167.0</ele><time>2026-04-11T15:19:39Z</time></trkpt><trkpt lat="42.68227105919079" lon="12.773598587833467"><ele>1167.0</ele><time>2026-04-11T15:19:41Z</time></trkpt><trkpt lat="42.68219089325022" lon="12.773653117346123"><ele>1169.5</ele><time>2026-04-11T15:19:43Z</time></trkpt><trkpt lat="42.682128683973474" lon="12.773673642582185"><ele>1172.0</ele><time>2026-04-11T15:19:44Z</time></trkpt><trkpt lat="42.68203544142783" lon="12.773697535503592"><ele>1174.5</ele><time>2026-04-11T15:19:46Z</time></trkpt><trkpt lat="42.682003999845705" lon="12.773787424253053"><ele>1177.0</ele><time>2026-04-11T15:19:48Z</time></trkpt><trkpt lat="42.682073089851755" lon="12.77386024637134"><ele>1179.5</ele><time>2026-04-11T15:19:50Z</time></trkpt><trkpt lat="42.68217637199225" lon="12.773859540938668"><ele>1182.0</ele><time>2026-04-11T15:19:52Z</time></trkpt><trkpt lat="42.682256973743435" lon="12.773855669463604"><ele>1182.0</ele><time>2026-04-11T15:19:54Z</time></trkpt><trkpt lat="42.68233073746494" lon="12.77388675489519"><ele>1182.0</ele><time>2026-04-11T15:19:56Z</time></trkpt><trkpt lat="42.682429569049695" lon="12.773885471643158"><ele>1182.0</ele><time>2026-04-11T15:19:58Z</time></trkpt><trkpt lat="42.68251884979321" lon="12.773823669922487"><ele>1182.0</ele><time>2026-04-11T15:20:00Z</time></trkpt><trkpt lat="42.682586501089894" lon="12.773780730375957"><ele>1182.0</ele><time>2026-04-11T15:20:01Z</time></trkpt><trkpt lat="42.682681267287144" lon="12.773675758347276"><ele>1182.0</ele><time>2026-04-11T15:20:03Z</time></trkpt><trkpt lat="42.682746685182856" lon="12.773643779357798"><ele>1182.0</ele><time>2026-04-11T15:20:04Z</time></trkpt><trkpt lat="42.682855063190416" lon="12.77359167367921"><ele>1182.0</ele><time>2026-04-11T15:20:06Z</time></trkpt><trkpt lat="42.682962713672374" lon="12.773523892867752"><ele>1182.0</ele><time>2026-04-11T15:20:08Z</time></trkpt><trkpt lat="42.68301604399099" lon="12.7734634488518"><ele>1182.0</ele><time>2026-04-11T15:20:09Z</time></trkpt><trkpt lat="42.68310864208659" lon="12.773337708492335"><ele>1180.2</ele><time>2026-04-11T15:20:11Z</time></trkpt><trkpt lat="42.683161313698655" lon="12.773244029904555"><ele>1178.4</ele><time>2026-04-11T15:20:12Z</time></trkpt><trkpt lat="42.68319127920719" lon="12.773156851486595"><ele>1176.6</ele><time>2026-04-11T15:20:13Z</time></trkpt><trkpt lat="42.683258334455694" lon="12.773028172263636"><ele>1174.8</ele><time>2026-04-11T15:20:15Z</time></trkpt><trkpt lat="42.68331516368447" lon="12.772914621938897"><ele>1173.0</ele><time>2026-04-11T15:20:17Z</time></trkpt><trkpt lat="42.68335904253524" lon="12.772783878866655"><ele>1170.6666666666667</ele><time>2026-04-11T15:20:19Z</time></trkpt><trkpt lat="42.68337280159514" lon="12.77267897223379"><ele>1168.3333333333333</ele><time>2026-04-11T15:20:20Z</time></trkpt><trkpt lat="42.6833670981052" lon="12.772593499311885"><ele>1166.0</ele><time>2026-04-11T15:20:21Z</time></trkpt><trkpt lat="42.68336525879213" lon="12.772505292108491"><ele>1163.6666666666665</ele><time>2026-04-11T15:20:22Z</time></trkpt><trkpt lat="42.683388837198294" lon="12.772397785184316"><ele>1161.3333333333333</ele><time>2026-04-11T15:20:23Z</time></trkpt><trkpt lat="42.6833886955121" lon="12.772216172924445"><ele>1159.0</ele><time>2026-04-11T15:20:25.001Z</time></trkpt><trkpt lat="42.68339245536396" lon="12.772051041829126"><ele>1159.0</ele><time>2026-04-11T15:20:27.001Z</time></trkpt><trkpt lat="42.68341399370773" lon="12.771916112941119"><ele>1159.0</ele><time>2026-04-11T15:20:29.001Z</time></trkpt><trkpt lat="42.68342301631152" lon="12.771784082240254"><ele>1159.0</ele><time>2026-04-11T15:20:31.001Z</time></trkpt><trkpt lat="42.68341363826595" lon="12.771654493219813"><ele>1159.0</ele><time>2026-04-11T15:20:33.001Z</time></trkpt><trkpt lat="42.68342003698105" lon="12.771538037479925"><ele>1159.0</ele><time>2026-04-11T15:20:35.001Z</time></trkpt><trkpt lat="42.68345521760427" lon="12.771438457079839"><ele>1157.4</ele><time>2026-04-11T15:20:38.001Z</time></trkpt><trkpt lat="42.68349117076224" lon="12.771299949373272"><ele>1155.8000000000002</ele><time>2026-04-11T15:20:40.001Z</time></trkpt><trkpt lat="42.68354368298894" lon="12.771189502166079"><ele>1154.1999999999998</ele><time>2026-04-11T15:20:42.001Z</time></trkpt><trkpt lat="42.683597112244385" lon="12.771099085635587"><ele>1152.6</ele><time>2026-04-11T15:20:44.001Z</time></trkpt><trkpt lat="42.683649447503115" lon="12.771026378577584"><ele>1151.0</ele><time>2026-04-11T15:20:46.001Z</time></trkpt><trkpt lat="42.683714837202736" lon="12.770948196650233"><ele>1151.0</ele><time>2026-04-11T15:20:48.001Z</time></trkpt><trkpt lat="42.6838027674882" lon="12.770858928931208"><ele>1151.0</ele><time>2026-04-11T15:20:50.001Z</time></trkpt><trkpt lat="42.68388301648875" lon="12.77076275918705"><ele>1151.0</ele><time>2026-04-11T15:20:52.001Z</time></trkpt><trkpt lat="42.68396264571584" lon="12.770685310152793"><ele>1151.0</ele><time>2026-04-11T15:20:54.001Z</time></trkpt><trkpt lat="42.68406404842791" lon="12.770638426034406"><ele>1151.0</ele><time>2026-04-11T15:20:56.001Z</time></trkpt><trkpt lat="42.684176419893056" lon="12.770592233327823"><ele>1151.0</ele><time>2026-04-11T15:20:58.001Z</time></trkpt><trkpt lat="42.684269810567315" lon="12.770536375656025"><ele>1151.0</ele><time>2026-04-11T15:21:00.001Z</time></trkpt><trkpt lat="42.68436649203469" lon="12.770518471626524"><ele>1151.0</ele><time>2026-04-11T15:21:02.001Z</time></trkpt><trkpt lat="42.68445509413144" lon="12.770500488453226"><ele>1151.0</ele><time>2026-04-11T15:21:04.001Z</time></trkpt><trkpt lat="42.68452523821388" lon="12.770525570415927"><ele>1151.0</ele><time>2026-04-11T15:21:06.001Z</time></trkpt><trkpt lat="42.68457912526139" lon="12.770612463509716"><ele>1151.0</ele><time>2026-04-11T15:21:08.001Z</time></trkpt><trkpt lat="42.68466317272346" lon="12.770665658571282"><ele>1151.1666666666667</ele><time>2026-04-11T15:21:10.001Z</time></trkpt><trkpt lat="42.68472536033782" lon="12.770651513227829"><ele>1151.3333333333335</ele><time>2026-04-11T15:21:11.001Z</time></trkpt><trkpt lat="42.68481470837072" lon="12.770627176789132"><ele>1151.5</ele><time>2026-04-11T15:21:12.001Z</time></trkpt><trkpt lat="42.684902720454396" lon="12.770586614644904"><ele>1151.6666666666667</ele><time>2026-04-11T15:21:13.001Z</time></trkpt><trkpt lat="42.68496525911144" lon="12.770563790219242"><ele>1151.8333333333333</ele><time>2026-04-11T15:21:14.001Z</time></trkpt><trkpt lat="42.68506004810771" lon="12.770524354707632"><ele>1152.0</ele><time>2026-04-11T15:21:16.001Z</time></trkpt><trkpt lat="42.68513248549268" lon="12.770473661790126"><ele>1152.0</ele><time>2026-04-11T15:21:17.001Z</time></trkpt><trkpt lat="42.68518931303044" lon="12.770396033685353"><ele>1152.0</ele><time>2026-04-11T15:21:18.001Z</time></trkpt><trkpt lat="42.685251274439906" lon="12.770341270925353"><ele>1152.0</ele><time>2026-04-11T15:21:19.001Z</time></trkpt><trkpt lat="42.685317258443604" lon="12.770306631257053"><ele>1152.0</ele><time>2026-04-11T15:21:20.001Z</time></trkpt><trkpt lat="42.685376203601514" lon="12.770233985998882"><ele>1152.0</ele><time>2026-04-11T15:21:21.001Z</time></trkpt><trkpt lat="42.68546762458402" lon="12.770174794029671"><ele>1152.0</ele><time>2026-04-11T15:21:22.001Z</time></trkpt><trkpt lat="42.68553398482404" lon="12.770097452552838"><ele>1149.8333333333333</ele><time>2026-04-11T15:21:23.001Z</time></trkpt><trkpt lat="42.68559190877152" lon="12.770027335873424"><ele>1147.6666666666667</ele><time>2026-04-11T15:21:24.001Z</time></trkpt><trkpt lat="42.68564831685886" lon="12.769956921566747"><ele>1145.5</ele><time>2026-04-11T15:21:25.001Z</time></trkpt><trkpt lat="42.68575686658607" lon="12.769854318376167"><ele>1143.3333333333335</ele><time>2026-04-11T15:21:27Z</time></trkpt><trkpt lat="42.68582453752983" lon="12.769801988101577"><ele>1141.1666666666667</ele><time>2026-04-11T15:21:28Z</time></trkpt><trkpt lat="42.68588548715271" lon="12.769730554610707"><ele>1139.0</ele><time>2026-04-11T15:21:29Z</time></trkpt><trkpt lat="42.68595299524178" lon="12.769656514513782"><ele>1139.0</ele><time>2026-04-11T15:21:30Z</time></trkpt><trkpt lat="42.686041194467265" lon="12.769550831295302"><ele>1139.0</ele><time>2026-04-11T15:21:32Z</time></trkpt><trkpt lat="42.6861598076043" lon="12.769471559891569"><ele>1139.0</ele><time>2026-04-11T15:21:34Z</time></trkpt><trkpt lat="42.68627622183438" lon="12.769421339438946"><ele>1139.0</ele><time>2026-04-11T15:21:36Z</time></trkpt><trkpt lat="42.68634193424662" lon="12.769372451013668"><ele>1139.0</ele><time>2026-04-11T15:21:37Z</time></trkpt><trkpt lat="42.686409935681425" lon="12.76933370826859"><ele>1136.8</ele><time>2026-04-11T15:21:38Z</time></trkpt><trkpt lat="42.68653148740267" lon="12.769307865262244"><ele>1134.6000000000001</ele><time>2026-04-11T15:21:40Z</time></trkpt><trkpt lat="42.68659752555151" lon="12.769276976572451"><ele>1132.4</ele><time>2026-04-11T15:21:41Z</time></trkpt><trkpt lat="42.68666802290404" lon="12.769216664020632"><ele>1130.2</ele><time>2026-04-11T15:21:42Z</time></trkpt><trkpt lat="42.68673154965544" lon="12.76915644733814"><ele>1128.0</ele><time>2026-04-11T15:21:43Z</time></trkpt><trkpt lat="42.68679461509494" lon="12.769052338706706"><ele>1128.0</ele><time>2026-04-11T15:21:45Z</time></trkpt><trkpt lat="42.68683577402046" lon="12.768932849341558"><ele>1128.0</ele><time>2026-04-11T15:21:47Z</time></trkpt><trkpt lat="42.68684412849053" lon="12.768836590835397"><ele>1128.0</ele><time>2026-04-11T15:22:15Z</time></trkpt><trkpt lat="42.68686843371182" lon="12.768698388419939"><ele>1128.0</ele><time>2026-04-11T15:22:17Z</time></trkpt><trkpt lat="42.686878960952185" lon="12.768588902833606"><ele>1128.0</ele><time>2026-04-11T15:22:19.001Z</time></trkpt><trkpt lat="42.686930209595225" lon="12.768495127282062"><ele>1128.0</ele><time>2026-04-11T15:22:22.001Z</time></trkpt><trkpt lat="42.68697112997764" lon="12.768419971664883"><ele>1125.8</ele><time>2026-04-11T15:22:25.001Z</time></trkpt><trkpt lat="42.686951683311015" lon="12.768309079984308"><ele>1123.6</ele><time>2026-04-11T15:22:28.001Z</time></trkpt><trkpt lat="42.68688163321274" lon="12.768212990217497"><ele>1121.4</ele><time>2026-04-11T15:22:30.001Z</time></trkpt><trkpt lat="42.686816471762334" lon="12.768090781227583"><ele>1119.2</ele><time>2026-04-11T15:22:32.001Z</time></trkpt><trkpt lat="42.686770878155734" lon="12.768007480686666"><ele>1117.0</ele><time>2026-04-11T15:22:34.001Z</time></trkpt><trkpt lat="42.686763929728855" lon="12.767864266775787"><ele>1117.0000000000002</ele><time>2026-04-11T15:22:36.001Z</time></trkpt><trkpt lat="42.686779677125976" lon="12.767780881745425"><ele>1117.0</ele><time>2026-04-11T15:22:37.001Z</time></trkpt><trkpt lat="42.68681078619391" lon="12.767697203657836"><ele>1117.0</ele><time>2026-04-11T15:22:38.001Z</time></trkpt><trkpt lat="42.686845188275896" lon="12.76761669712709"><ele>1117.0</ele><time>2026-04-11T15:22:39.001Z</time></trkpt><trkpt lat="42.68687202169263" lon="12.76753358891272"><ele>1117.0</ele><time>2026-04-11T15:22:40.001Z</time></trkpt><trkpt lat="42.68691455082632" lon="12.767387313470826"><ele>1117.0000000000002</ele><time>2026-04-11T15:22:42.001Z</time></trkpt><trkpt lat="42.686962352919295" lon="12.76733078717925"><ele>1117.0</ele><time>2026-04-11T15:22:43.001Z</time></trkpt><trkpt lat="42.68702297554202" lon="12.767264335822977"><ele>1116.8333333333333</ele><time>2026-04-11T15:22:44.001Z</time></trkpt><trkpt lat="42.68706421344586" lon="12.76718585710367"><ele>1116.6666666666665</ele><time>2026-04-11T15:22:45.001Z</time></trkpt><trkpt lat="42.68714203779522" lon="12.767082842542928"><ele>1116.5</ele><time>2026-04-11T15:22:47.001Z</time></trkpt><trkpt lat="42.6872098602984" lon="12.767071233964614"><ele>1116.3333333333333</ele><time>2026-04-11T15:22:49.001Z</time></trkpt><trkpt lat="42.68727844495176" lon="12.767078107232065"><ele>1116.1666666666667</ele><time>2026-04-11T15:22:52.001Z</time></trkpt><trkpt lat="42.68735657801317" lon="12.767088624932148"><ele>1116.0</ele><time>2026-04-11T15:23:00.001Z</time></trkpt><trkpt lat="42.68743972992492" lon="12.767108752433066"><ele>1116.0</ele><time>2026-04-11T15:23:02.001Z</time></trkpt><trkpt lat="42.687513300947465" lon="12.76709720256142"><ele>1116.0</ele><time>2026-04-11T15:23:04.001Z</time></trkpt><trkpt lat="42.687582349549174" lon="12.767082047935434"><ele>1116.0</ele><time>2026-04-11T15:23:06.001Z</time></trkpt><trkpt lat="42.68763981857847" lon="12.767135464496086"><ele>1116.0</ele><time>2026-04-11T15:23:09.001Z</time></trkpt><trkpt lat="42.687675375006044" lon="12.767207532061205"><ele>1116.0</ele><time>2026-04-11T15:23:10.001Z</time></trkpt><trkpt lat="42.68771145028645" lon="12.767282378885279"><ele>1116.0</ele><time>2026-04-11T15:23:11.001Z</time></trkpt><trkpt lat="42.68775493725639" lon="12.76742555360808"><ele>1113.0</ele><time>2026-04-11T15:23:13.001Z</time></trkpt><trkpt lat="42.687775716981115" lon="12.767509037273184"><ele>1110.0</ele><time>2026-04-11T15:23:14.001Z</time></trkpt><trkpt lat="42.68782841567595" lon="12.767647255093994"><ele>1107.0</ele><time>2026-04-11T15:23:16.001Z</time></trkpt><trkpt lat="42.68787922910674" lon="12.767738858942533"><ele>1104.0</ele><time>2026-04-11T15:23:18.001Z</time></trkpt><trkpt lat="42.687889721563636" lon="12.767858413047739"><ele>1101.0</ele><time>2026-04-11T15:23:20.001Z</time></trkpt><trkpt lat="42.68792024160246" lon="12.767976086361918"><ele>1098.0</ele><time>2026-04-11T15:23:22.001Z</time></trkpt><trkpt lat="42.687930551546" lon="12.768106794233075"><ele>1098.0</ele><time>2026-04-11T15:23:24.001Z</time></trkpt><trkpt lat="42.688004013323514" lon="12.768175102912968"><ele>1098.0</ele><time>2026-04-11T15:23:26.001Z</time></trkpt><trkpt lat="42.688100597842634" lon="12.768106830539276"><ele>1098.0</ele><time>2026-04-11T15:23:28.001Z</time></trkpt><trkpt lat="42.68816835877772" lon="12.768038398700773"><ele>1098.0</ele><time>2026-04-11T15:23:29.001Z</time></trkpt><trkpt lat="42.68822037861441" lon="12.767963956000738"><ele>1098.0</ele><time>2026-04-11T15:23:30.001Z</time></trkpt><trkpt lat="42.688270850909674" lon="12.767874785465906"><ele>1098.0</ele><time>2026-04-11T15:23:31.001Z</time></trkpt><trkpt lat="42.68833389796176" lon="12.767802964138209"><ele>1098.0</ele><time>2026-04-11T15:23:32Z</time></trkpt><trkpt lat="42.68842088385815" lon="12.767721018345666"><ele>1098.0</ele><time>2026-04-11T15:23:34Z</time></trkpt><trkpt lat="42.688500782493385" lon="12.767649582262091"><ele>1098.0</ele><time>2026-04-11T15:23:36Z</time></trkpt><trkpt lat="42.68860038724111" lon="12.767544661359565"><ele>1098.0</ele><time>2026-04-11T15:23:38Z</time></trkpt><trkpt lat="42.68865578909502" lon="12.76747990741435"><ele>1098.0</ele><time>2026-04-11T15:23:39Z</time></trkpt><trkpt lat="42.68875252176494" lon="12.76737786826353"><ele>1096.0</ele><time>2026-04-11T15:23:41Z</time></trkpt><trkpt lat="42.688871892162105" lon="12.767306787908664"><ele>1094.0</ele><time>2026-04-11T15:23:43Z</time></trkpt><trkpt lat="42.688942689262596" lon="12.76727546868603"><ele>1092.0</ele><time>2026-04-11T15:23:44Z</time></trkpt><trkpt lat="42.689007118051805" lon="12.767256947975232"><ele>1090.0</ele><time>2026-04-11T15:23:45Z</time></trkpt><trkpt lat="42.68912831471969" lon="12.767241787050912"><ele>1088.0</ele><time>2026-04-11T15:23:47Z</time></trkpt><trkpt lat="42.68920067467896" lon="12.767230782935663"><ele>1088.0</ele><time>2026-04-11T15:23:48Z</time></trkpt><trkpt lat="42.68927677175208" lon="12.767217617630216"><ele>1088.0</ele><time>2026-04-11T15:23:49Z</time></trkpt><trkpt lat="42.68938983321839" lon="12.767140795483813"><ele>1088.0</ele><time>2026-04-11T15:23:51Z</time></trkpt><trkpt lat="42.68947107738387" lon="12.767080035245348"><ele>1088.0</ele><time>2026-04-11T15:23:52Z</time></trkpt><trkpt lat="42.689566836691924" lon="12.767026657287563"><ele>1088.0</ele><time>2026-04-11T15:23:53Z</time></trkpt><trkpt lat="42.68965097848647" lon="12.766990785293686"><ele>1088.0</ele><time>2026-04-11T15:23:54Z</time></trkpt><trkpt lat="42.689782131242545" lon="12.766996320833659"><ele>1088.0</ele><time>2026-04-11T15:23:56Z</time></trkpt><trkpt lat="42.68986397355092" lon="12.767039919192841"><ele>1088.0</ele><time>2026-04-11T15:23:57Z</time></trkpt><trkpt lat="42.68992684169202" lon="12.767099319070747"><ele>1088.0</ele><time>2026-04-11T15:23:58Z</time></trkpt><trkpt lat="42.69000026304643" lon="12.767235171388851"><ele>1088.0</ele><time>2026-04-11T15:24:00Z</time></trkpt><trkpt lat="42.69003346996712" lon="12.767361900434022"><ele>1088.0</ele><time>2026-04-11T15:24:02Z</time></trkpt><trkpt lat="42.69009620450141" lon="12.767398569016501"><ele>1088.0</ele><time>2026-04-11T15:24:04Z</time></trkpt><trkpt lat="42.6901671415944" lon="12.76738084216922"><ele>1088.0</ele><time>2026-04-11T15:24:06Z</time></trkpt><trkpt lat="42.690261034017276" lon="12.767295904115123"><ele>1088.0</ele><time>2026-04-11T15:24:09Z</time></trkpt><trkpt lat="42.69030298295179" lon="12.767229170545521"><ele>1088.0</ele><time>2026-04-11T15:24:10Z</time></trkpt><trkpt lat="42.69034086123429" lon="12.767153579345646"><ele>1088.0</ele><time>2026-04-11T15:24:11Z</time></trkpt><trkpt lat="42.69036856312226" lon="12.767053922167014"><ele>1088.0</ele><time>2026-04-11T15:24:12Z</time></trkpt><trkpt lat="42.69039932696564" lon="12.7669562435497"><ele>1088.0</ele><time>2026-04-11T15:24:13Z</time></trkpt><trkpt lat="42.69043112583276" lon="12.766856623733725"><ele>1088.0</ele><time>2026-04-11T15:24:14Z</time></trkpt><trkpt lat="42.690495783609315" lon="12.766713148758555"><ele>1088.0</ele><time>2026-04-11T15:24:16Z</time></trkpt><trkpt lat="42.69053684818874" lon="12.766644698539263"><ele>1088.0</ele><time>2026-04-11T15:24:17Z</time></trkpt><trkpt lat="42.69064010718971" lon="12.76650388484821"><ele>1088.0</ele><time>2026-04-11T15:24:19Z</time></trkpt><trkpt lat="42.690720552982974" lon="12.76641833210021"><ele>1088.0</ele><time>2026-04-11T15:24:20Z</time></trkpt><trkpt lat="42.690789865783835" lon="12.76634869145349"><ele>1088.0</ele><time>2026-04-11T15:24:21.001Z</time></trkpt><trkpt lat="42.690834710284065" lon="12.766256988725047"><ele>1088.0</ele><time>2026-04-11T15:24:22.001Z</time></trkpt><trkpt lat="42.69089829891457" lon="12.766199236248589"><ele>1088.0</ele><time>2026-04-11T15:24:23.001Z</time></trkpt><trkpt lat="42.69096082101851" lon="12.76612651994139"><ele>1088.0</ele><time>2026-04-11T15:24:24.001Z</time></trkpt><trkpt lat="42.69103490913243" lon="12.766082567718597"><ele>1086.8333333333335</ele><time>2026-04-11T15:24:25.001Z</time></trkpt><trkpt lat="42.691103535304386" lon="12.766036051426815"><ele>1085.6666666666667</ele><time>2026-04-11T15:24:26.001Z</time></trkpt><trkpt lat="42.69116905473237" lon="12.766001851308946"><ele>1084.5</ele><time>2026-04-11T15:24:27.001Z</time></trkpt><trkpt lat="42.69128143557658" lon="12.765949961525521"><ele>1083.3333333333333</ele><time>2026-04-11T15:24:29.001Z</time></trkpt><trkpt lat="42.6913505173604" lon="12.765976513881052"><ele>1082.1666666666665</ele><time>2026-04-11T15:24:30.001Z</time></trkpt><trkpt lat="42.69140679749335" lon="12.766020816135468"><ele>1081.0</ele><time>2026-04-11T15:24:31.001Z</time></trkpt><trkpt lat="42.691506510867626" lon="12.766094926080628"><ele>1081.0</ele><time>2026-04-11T15:24:33.001Z</time></trkpt><trkpt lat="42.691564424105756" lon="12.766239744323123"><ele>1081.0</ele><time>2026-04-11T15:24:35.001Z</time></trkpt><trkpt lat="42.69156635499183" lon="12.76639581779159"><ele>1081.0</ele><time>2026-04-11T15:24:37.001Z</time></trkpt><trkpt lat="42.6915527365245" lon="12.766542101763083"><ele>1081.0</ele><time>2026-04-11T15:24:39.001Z</time></trkpt><trkpt lat="42.69149921358261" lon="12.76666615242116"><ele>1081.0</ele><time>2026-04-11T15:24:41.001Z</time></trkpt><trkpt lat="42.69154135806873" lon="12.766812257989315"><ele>1081.0</ele><time>2026-04-11T15:24:43.001Z</time></trkpt><trkpt lat="42.691581901117054" lon="12.76691419215322"><ele>1081.0</ele><time>2026-04-11T15:24:44.001Z</time></trkpt><trkpt lat="42.69170293750934" lon="12.767007241610699"><ele>1081.0</ele><time>2026-04-11T15:24:45.001Z</time></trkpt><trkpt lat="42.69179344117185" lon="12.767076842380408"><ele>1081.0</ele><time>2026-04-11T15:24:46.001Z</time></trkpt><trkpt lat="42.69186553006151" lon="12.7671525260865"><ele>1081.0</ele><time>2026-04-11T15:24:47.001Z</time></trkpt><trkpt lat="42.6919434712397" lon="12.767207143616528"><ele>1081.0</ele><time>2026-04-11T15:24:48.001Z</time></trkpt><trkpt lat="42.692039005611825" lon="12.767217110405898"><ele>1081.0</ele><time>2026-04-11T15:24:49.001Z</time></trkpt><trkpt lat="42.692143147072635" lon="12.767190392486608"><ele>1081.0</ele><time>2026-04-11T15:24:50.001Z</time></trkpt><trkpt lat="42.69222865152662" lon="12.767162923519056"><ele>1081.0</ele><time>2026-04-11T15:24:51.001Z</time></trkpt><trkpt lat="42.69230459827027" lon="12.767152030945338"><ele>1081.0</ele><time>2026-04-11T15:24:52.001Z</time></trkpt><trkpt lat="42.692370932709466" lon="12.76717745266054"><ele>1081.0</ele><time>2026-04-11T15:24:53.001Z</time></trkpt><trkpt lat="42.692446296013905" lon="12.767203674525021"><ele>1081.0</ele><time>2026-04-11T15:24:54.001Z</time></trkpt><trkpt lat="42.69250974415586" lon="12.767231468522745"><ele>1081.0</ele><time>2026-04-11T15:24:55.001Z</time></trkpt><trkpt lat="42.692575357078866" lon="12.767285351645516"><ele>1081.0</ele><time>2026-04-11T15:24:56.001Z</time></trkpt><trkpt lat="42.69265053247167" lon="12.767356654874765"><ele>1081.0</ele><time>2026-04-11T15:24:57.001Z</time></trkpt><trkpt lat="42.6927407923794" lon="12.767395649142207"><ele>1082.0</ele><time>2026-04-11T15:24:58.001Z</time></trkpt><trkpt lat="42.69282440582838" lon="12.76740898347098"><ele>1083.0</ele><time>2026-04-11T15:24:59.001Z</time></trkpt><trkpt lat="42.69289328156151" lon="12.767380075504777"><ele>1084.0</ele><time>2026-04-11T15:25:00.001Z</time></trkpt><trkpt lat="42.692970295207466" lon="12.767286609140426"><ele>1085.0</ele><time>2026-04-11T15:25:02.001Z</time></trkpt><trkpt lat="42.69303608070299" lon="12.767133851109776"><ele>1086.0</ele><time>2026-04-11T15:25:04.001Z</time></trkpt><trkpt lat="42.69307374836576" lon="12.7670148317586"><ele>1086.0</ele><time>2026-04-11T15:25:05.001Z</time></trkpt><trkpt lat="42.693117781917614" lon="12.76691972882629"><ele>1086.0</ele><time>2026-04-11T15:25:06.001Z</time></trkpt><trkpt lat="42.69315631869106" lon="12.766803992836362"><ele>1086.0</ele><time>2026-04-11T15:25:07.001Z</time></trkpt><trkpt lat="42.69317276392861" lon="12.766670394431486"><ele>1086.0</ele><time>2026-04-11T15:25:08.001Z</time></trkpt><trkpt lat="42.693191110748714" lon="12.766546737124001"><ele>1086.0</ele><time>2026-04-11T15:25:09.001Z</time></trkpt><trkpt lat="42.69322194850574" lon="12.76643138836146"><ele>1084.8333333333333</ele><time>2026-04-11T15:25:10.001Z</time></trkpt><trkpt lat="42.69324651174579" lon="12.766300190652133"><ele>1083.6666666666667</ele><time>2026-04-11T15:25:11.001Z</time></trkpt><trkpt lat="42.693273044016806" lon="12.766206187870479"><ele>1082.5</ele><time>2026-04-11T15:25:12.001Z</time></trkpt><trkpt lat="42.693313138961344" lon="12.766138171907103"><ele>1081.3333333333335</ele><time>2026-04-11T15:25:13.001Z</time></trkpt><trkpt lat="42.69336594687933" lon="12.76607577598799"><ele>1080.1666666666667</ele><time>2026-04-11T15:25:14.001Z</time></trkpt><trkpt lat="42.69343631549795" lon="12.766023897113818"><ele>1079.0</ele><time>2026-04-11T15:25:15.001Z</time></trkpt><trkpt lat="42.69349824379291" lon="12.76597330430258"><ele>1078.1666666666667</ele><time>2026-04-11T15:25:16.001Z</time></trkpt><trkpt lat="42.693562286861024" lon="12.765937988770208"><ele>1077.3333333333335</ele><time>2026-04-11T15:25:17.001Z</time></trkpt><trkpt lat="42.69362697870118" lon="12.765890480583096"><ele>1076.5</ele><time>2026-04-11T15:25:18.001Z</time></trkpt><trkpt lat="42.69370568086371" lon="12.765847404850904"><ele>1075.6666666666667</ele><time>2026-04-11T15:25:19.001Z</time></trkpt><trkpt lat="42.693790944752955" lon="12.765798381645522"><ele>1074.8333333333333</ele><time>2026-04-11T15:25:20.001Z</time></trkpt><trkpt lat="42.693871017306506" lon="12.765763146484018"><ele>1074.0</ele><time>2026-04-11T15:25:21.001Z</time></trkpt><trkpt lat="42.69398103307767" lon="12.765714035620096"><ele>1074.0</ele><time>2026-04-11T15:25:23.001Z</time></trkpt><trkpt lat="42.69408712455894" lon="12.765710414975189"><ele>1074.0</ele><time>2026-04-11T15:25:25.001Z</time></trkpt><trkpt lat="42.69417375816805" lon="12.765683711438177"><ele>1074.0</ele><time>2026-04-11T15:25:27.001Z</time></trkpt><trkpt lat="42.69422749024409" lon="12.765637091279162"><ele>1074.0</ele><time>2026-04-11T15:25:29.001Z</time></trkpt><trkpt lat="42.694267024619506" lon="12.765524813164317"><ele>1074.0</ele><time>2026-04-11T15:25:31.001Z</time></trkpt><trkpt lat="42.69427348286074" lon="12.765406852599318"><ele>1074.0</ele><time>2026-04-11T15:25:33.001Z</time></trkpt><trkpt lat="42.69425178755045" lon="12.765270652530438"><ele>1073.0</ele><time>2026-04-11T15:25:35.001Z</time></trkpt><trkpt lat="42.69421979212797" lon="12.765162298799487"><ele>1072.0</ele><time>2026-04-11T15:25:36.001Z</time></trkpt><trkpt lat="42.69419714710438" lon="12.765076543944984"><ele>1071.0</ele><time>2026-04-11T15:25:37.001Z</time></trkpt><trkpt lat="42.69415959472591" lon="12.764951258363439"><ele>1070.0</ele><time>2026-04-11T15:25:39.001Z</time></trkpt><trkpt lat="42.69411122593071" lon="12.764832925634943"><ele>1069.0</ele><time>2026-04-11T15:25:41.001Z</time></trkpt><trkpt lat="42.694068134302924" lon="12.76472450526925"><ele>1068.0</ele><time>2026-04-11T15:25:43.001Z</time></trkpt><trkpt lat="42.694071095397746" lon="12.764636500558924"><ele>1068.0</ele><time>2026-04-11T15:25:44.001Z</time></trkpt><trkpt lat="42.69413778462512" lon="12.764509818574892"><ele>1068.0</ele><time>2026-04-11T15:25:46.001Z</time></trkpt><trkpt lat="42.69419198068418" lon="12.764433869796589"><ele>1068.0</ele><time>2026-04-11T15:25:47.001Z</time></trkpt><trkpt lat="42.69424010669352" lon="12.76435922961462"><ele>1068.0</ele><time>2026-04-11T15:25:48.001Z</time></trkpt><trkpt lat="42.69429916412907" lon="12.764271946784781"><ele>1068.0</ele><time>2026-04-11T15:25:49.001Z</time></trkpt><trkpt lat="42.69435707996876" lon="12.76418302318534"><ele>1068.0</ele><time>2026-04-11T15:25:50.001Z</time></trkpt><trkpt lat="42.69441897133207" lon="12.764094435746218"><ele>1067.8333333333333</ele><time>2026-04-11T15:25:51.001Z</time></trkpt><trkpt lat="42.69446970644771" lon="12.764003482782579"><ele>1067.6666666666667</ele><time>2026-04-11T15:25:52.001Z</time></trkpt><trkpt lat="42.69452358734345" lon="12.763925733891146"><ele>1067.5</ele><time>2026-04-11T15:25:53.001Z</time></trkpt><trkpt lat="42.69459101685524" lon="12.763843282762824"><ele>1067.3333333333335</ele><time>2026-04-11T15:25:54.001Z</time></trkpt><trkpt lat="42.69464904071043" lon="12.76374725959135"><ele>1067.1666666666667</ele><time>2026-04-11T15:25:55.001Z</time></trkpt><trkpt lat="42.69469814826626" lon="12.763659271334447"><ele>1067.0</ele><time>2026-04-11T15:25:56.001Z</time></trkpt><trkpt lat="42.6948061705543" lon="12.763541288583802"><ele>1067.5</ele><time>2026-04-11T15:25:58.001Z</time></trkpt><trkpt lat="42.69485391401324" lon="12.763467411913542"><ele>1068.0</ele><time>2026-04-11T15:26:00.001Z</time></trkpt><trkpt lat="42.694831730202125" lon="12.76337856317537"><ele>1068.5</ele><time>2026-04-11T15:26:03.001Z</time></trkpt><trkpt lat="42.69491626585442" lon="12.763373436272413"><ele>1069.0</ele><time>2026-04-11T15:26:15.001Z</time></trkpt><trkpt lat="42.694988599802734" lon="12.763361023613886"><ele>1069.5</ele><time>2026-04-11T15:26:17.001Z</time></trkpt><trkpt lat="42.695075805026306" lon="12.763312813312282"><ele>1070.0</ele><time>2026-04-11T15:26:19.001Z</time></trkpt><trkpt lat="42.6951778137601" lon="12.763285385015855"><ele>1070.0</ele><time>2026-04-11T15:26:21.001Z</time></trkpt><trkpt lat="42.6952495076934" lon="12.763246572460734"><ele>1070.0</ele><time>2026-04-11T15:26:22.001Z</time></trkpt><trkpt lat="42.69533472743768" lon="12.763196562518054"><ele>1070.0</ele><time>2026-04-11T15:26:23.001Z</time></trkpt><trkpt lat="42.69540995628914" lon="12.763148258975527"><ele>1070.0</ele><time>2026-04-11T15:26:24.001Z</time></trkpt><trkpt lat="42.69547787740273" lon="12.763089924829075"><ele>1070.0</ele><time>2026-04-11T15:26:25.001Z</time></trkpt><trkpt lat="42.69553541517521" lon="12.76302600504749"><ele>1070.0</ele><time>2026-04-11T15:26:26.001Z</time></trkpt><trkpt lat="42.695595966694654" lon="12.762959678302957"><ele>1068.1666666666667</ele><time>2026-04-11T15:26:27.001Z</time></trkpt><trkpt lat="42.695679350336995" lon="12.762900685348475"><ele>1066.3333333333335</ele><time>2026-04-11T15:26:28.001Z</time></trkpt><trkpt lat="42.695747961612405" lon="12.762837272456926"><ele>1064.5</ele><time>2026-04-11T15:26:29.001Z</time></trkpt><trkpt lat="42.695800645445836" lon="12.762757526161085"><ele>1062.6666666666667</ele><time>2026-04-11T15:26:30.001Z</time></trkpt><trkpt lat="42.69584004454902" lon="12.762689510220808"><ele>1060.8333333333333</ele><time>2026-04-11T15:26:31.001Z</time></trkpt><trkpt lat="42.695899222646496" lon="12.762630784781678"><ele>1059.0</ele><time>2026-04-11T15:26:32.001Z</time></trkpt><trkpt lat="42.695967194693736" lon="12.762597416582661"><ele>1058.3333333333333</ele><time>2026-04-11T15:26:33.001Z</time></trkpt><trkpt lat="42.69603506743764" lon="12.762567194826334"><ele>1057.6666666666667</ele><time>2026-04-11T15:26:34.001Z</time></trkpt><trkpt lat="42.69614089962893" lon="12.762527216719812"><ele>1057.0</ele><time>2026-04-11T15:26:36.001Z</time></trkpt><trkpt lat="42.696215251766525" lon="12.762532428249429"><ele>1056.3333333333335</ele><time>2026-04-11T15:26:38.001Z</time></trkpt><trkpt lat="42.69628213216539" lon="12.762578171396692"><ele>1055.6666666666667</ele><time>2026-04-11T15:26:40.001Z</time></trkpt><trkpt lat="42.69636149046345" lon="12.762611100833052"><ele>1055.0</ele><time>2026-04-11T15:26:42.001Z</time></trkpt><trkpt lat="42.69644819043246" lon="12.76257143956783"><ele>1054.5</ele><time>2026-04-11T15:26:44.001Z</time></trkpt><trkpt lat="42.696555692664546" lon="12.762474796994411"><ele>1054.0</ele><time>2026-04-11T15:26:46.001Z</time></trkpt><trkpt lat="42.69661081851274" lon="12.762422006415257"><ele>1053.5</ele><time>2026-04-11T15:26:47.001Z</time></trkpt><trkpt lat="42.696674378042324" lon="12.762364198011507"><ele>1053.0</ele><time>2026-04-11T15:26:48.001Z</time></trkpt><trkpt lat="42.696741346794084" lon="12.762317900755866"><ele>1052.5</ele><time>2026-04-11T15:26:49.001Z</time></trkpt><trkpt lat="42.696811046756466" lon="12.762277120498903"><ele>1052.0</ele><time>2026-04-11T15:26:50.001Z</time></trkpt><trkpt lat="42.69687342241543" lon="12.762234176154992"><ele>1051.4</ele><time>2026-04-11T15:26:51.001Z</time></trkpt><trkpt lat="42.69697714590261" lon="12.762168127651929"><ele>1050.8000000000002</ele><time>2026-04-11T15:26:53.001Z</time></trkpt><trkpt lat="42.69708473389517" lon="12.762099261597008"><ele>1050.2</ele><time>2026-04-11T15:26:55.001Z</time></trkpt><trkpt lat="42.697182511001344" lon="12.76205947737638"><ele>1049.6000000000001</ele><time>2026-04-11T15:26:57.001Z</time></trkpt><trkpt lat="42.69728363443995" lon="12.762006804099892"><ele>1049.0</ele><time>2026-04-11T15:26:59.001Z</time></trkpt><trkpt lat="42.69738937875016" lon="12.762028114904899"><ele>1049.0</ele><time>2026-04-11T15:27:01.001Z</time></trkpt><trkpt lat="42.697495794269976" lon="12.762041804286502"><ele>1049.0</ele><time>2026-04-11T15:27:03.001Z</time></trkpt><trkpt lat="42.69757936937528" lon="12.762030258647151"><ele>1049.0</ele><time>2026-04-11T15:27:05.001Z</time></trkpt><trkpt lat="42.697641684980866" lon="12.762091685709725"><ele>1049.0</ele><time>2026-04-11T15:27:07.001Z</time></trkpt><trkpt lat="42.69769248440044" lon="12.76214644105868"><ele>1049.0</ele><time>2026-04-11T15:27:08.001Z</time></trkpt><trkpt lat="42.697760057401254" lon="12.76221920352858"><ele>1049.0</ele><time>2026-04-11T15:27:09.001Z</time></trkpt><trkpt lat="42.697843462469095" lon="12.762282080562018"><ele>1044.6666666666667</ele><time>2026-04-11T15:27:10.001Z</time></trkpt><trkpt lat="42.69792029769502" lon="12.762356432131902"><ele>1040.3333333333335</ele><time>2026-04-11T15:27:11.001Z</time></trkpt><trkpt lat="42.69800401119442" lon="12.762421608900869"><ele>1036.0</ele><time>2026-04-11T15:27:12.001Z</time></trkpt><trkpt lat="42.69808832905931" lon="12.762466811821048"><ele>1031.6666666666667</ele><time>2026-04-11T15:27:13.001Z</time></trkpt><trkpt lat="42.698162532610986" lon="12.762505395794431"><ele>1027.3333333333333</ele><time>2026-04-11T15:27:14.001Z</time></trkpt><trkpt lat="42.69822910785627" lon="12.762544091673826"><ele>1023.0</ele><time>2026-04-11T15:27:15.001Z</time></trkpt><trkpt lat="42.69832485484879" lon="12.762615021198652"><ele>1023.0</ele><time>2026-04-11T15:27:17.001Z</time></trkpt><trkpt lat="42.69841099171663" lon="12.762669582769886"><ele>1023.0</ele><time>2026-04-11T15:27:19.001Z</time></trkpt><trkpt lat="42.69848524716013" lon="12.762730854012208"><ele>1023.0</ele><time>2026-04-11T15:27:21.001Z</time></trkpt><trkpt lat="42.6985509485552" lon="12.762739417284696"><ele>1023.0</ele><time>2026-04-11T15:27:22.001Z</time></trkpt><trkpt lat="42.69861028972373" lon="12.762772929753265"><ele>1023.0</ele><time>2026-04-11T15:27:23.001Z</time></trkpt><trkpt lat="42.69868437292298" lon="12.762840577471788"><ele>1023.0</ele><time>2026-04-11T15:27:25.001Z</time></trkpt><trkpt lat="42.69877491937106" lon="12.762920730330379"><ele>1021.0</ele><time>2026-04-11T15:27:27.001Z</time></trkpt><trkpt lat="42.698835309114585" lon="12.7629766075409"><ele>1019.0</ele><time>2026-04-11T15:27:28.001Z</time></trkpt><trkpt lat="42.6989186532557" lon="12.763108644044163"><ele>1017.0</ele><time>2026-04-11T15:27:30.001Z</time></trkpt><trkpt lat="42.698956682356226" lon="12.763192726378161"><ele>1015.0</ele><time>2026-04-11T15:27:31.001Z</time></trkpt><trkpt lat="42.69901805796031" lon="12.76328676961298"><ele>1013.0</ele><time>2026-04-11T15:27:32.001Z</time></trkpt><trkpt lat="42.69906762590073" lon="12.763376050224817"><ele>1011.0</ele><time>2026-04-11T15:27:33.001Z</time></trkpt><trkpt lat="42.699114188791896" lon="12.763472291399239"><ele>1012.8</ele><time>2026-04-11T15:27:34.001Z</time></trkpt><trkpt lat="42.699159212196086" lon="12.76355261306388"><ele>1014.5999999999999</ele><time>2026-04-11T15:27:35.001Z</time></trkpt><trkpt lat="42.699195957226934" lon="12.76363705029853"><ele>1016.4</ele><time>2026-04-11T15:27:36.001Z</time></trkpt><trkpt lat="42.699247182435016" lon="12.763735861510103"><ele>1018.2</ele><time>2026-04-11T15:27:37.001Z</time></trkpt><trkpt lat="42.69930265532225" lon="12.7638616784864"><ele>1020.0</ele><time>2026-04-11T15:27:39.001Z</time></trkpt><trkpt lat="42.69935491512302" lon="12.764002879367233"><ele>1020.0</ele><time>2026-04-11T15:27:41.001Z</time></trkpt><trkpt lat="42.69937248601281" lon="12.76415029782345"><ele>1020.0</ele><time>2026-04-11T15:27:43.001Z</time></trkpt><trkpt lat="42.699456059179816" lon="12.764241073230522"><ele>1020.0</ele><time>2026-04-11T15:27:45.001Z</time></trkpt><trkpt lat="42.69952725071845" lon="12.764170253419234"><ele>1020.0</ele><time>2026-04-11T15:27:47.001Z</time></trkpt><trkpt lat="42.69955135158703" lon="12.764006374844783"><ele>1020.0</ele><time>2026-04-11T15:27:49.001Z</time></trkpt><trkpt lat="42.69956158931925" lon="12.763901969328552"><ele>1019.1666666666666</ele><time>2026-04-11T15:27:50.001Z</time></trkpt><trkpt lat="42.6995902920677" lon="12.76381029736139"><ele>1018.3333333333333</ele><time>2026-04-11T15:27:52.001Z</time></trkpt><trkpt lat="42.69960412793656" lon="12.763670974039218"><ele>1017.5</ele><time>2026-04-11T15:27:55.001Z</time></trkpt><trkpt lat="42.69959390934479" lon="12.76356496457612"><ele>1016.6666666666666</ele><time>2026-04-11T15:27:57.001Z</time></trkpt><trkpt lat="42.699592315076934" lon="12.763440411070828"><ele>1015.8333333333333</ele><time>2026-04-11T15:27:59.001Z</time></trkpt><trkpt lat="42.699593191531854" lon="12.76334826230994"><ele>1015.0</ele><time>2026-04-11T15:28:01.001Z</time></trkpt><trkpt lat="42.69961436951538" lon="12.763217437966546"><ele>1013.4999999999999</ele><time>2026-04-11T15:28:32.001Z</time></trkpt><trkpt lat="42.69962805814512" lon="12.763128711814359"><ele>1012.0</ele><time>2026-04-11T15:28:33.001Z</time></trkpt><trkpt lat="42.69968447672779" lon="12.76298998002388"><ele>1010.5</ele><time>2026-04-11T15:28:35.001Z</time></trkpt><trkpt lat="42.699713946538104" lon="12.76291285602144"><ele>1009.0</ele><time>2026-04-11T15:28:36.001Z</time></trkpt><trkpt lat="42.699738427881265" lon="12.762830540200369"><ele>1007.4999999999999</ele><time>2026-04-11T15:28:38.001Z</time></trkpt><trkpt lat="42.699785373704266" lon="12.762746058114232"><ele>1006.0</ele><time>2026-04-11T15:28:40.001Z</time></trkpt><trkpt lat="42.69983811091711" lon="12.762639891218146"><ele>1005.9999999999999</ele><time>2026-04-11T15:28:42.001Z</time></trkpt><trkpt lat="42.69986989803726" lon="12.762540268812545"><ele>1006.0</ele><time>2026-04-11T15:28:43.001Z</time></trkpt><trkpt lat="42.69988678478842" lon="12.762438508231703"><ele>1006.0</ele><time>2026-04-11T15:28:44.001Z</time></trkpt><trkpt lat="42.69989699817986" lon="12.762333649051635"><ele>1006.0</ele><time>2026-04-11T15:28:45.001Z</time></trkpt><trkpt lat="42.699930966466134" lon="12.762219010064412"><ele>1005.9999999999999</ele><time>2026-04-11T15:28:47.001Z</time></trkpt><trkpt lat="42.69994338550122" lon="12.762115781186226"><ele>1006.0</ele><time>2026-04-11T15:28:48.001Z</time></trkpt><trkpt lat="42.69993427523472" lon="12.762002723423349"><ele>1006.0</ele><time>2026-04-11T15:28:49.001Z</time></trkpt><trkpt lat="42.69992883703971" lon="12.76187859422955"><ele>1005.9999999999999</ele><time>2026-04-11T15:28:50.001Z</time></trkpt><trkpt lat="42.699924030547294" lon="12.761753251768209"><ele>1005.9999999999999</ele><time>2026-04-11T15:28:51.001Z</time></trkpt><trkpt lat="42.69991030248856" lon="12.761634726274213"><ele>1006.0</ele><time>2026-04-11T15:28:52.001Z</time></trkpt><trkpt lat="42.6998921073118" lon="12.761522212180672"><ele>1006.0</ele><time>2026-04-11T15:28:53.001Z</time></trkpt><trkpt lat="42.69986556503854" lon="12.761352985272993"><ele>1007.4</ele><time>2026-04-11T15:28:54.001Z</time></trkpt><trkpt lat="42.699834222025714" lon="12.761220815713385"><ele>1008.8</ele><time>2026-04-11T15:28:55.001Z</time></trkpt><trkpt lat="42.69981380310341" lon="12.761102307068143"><ele>1010.1999999999999</ele><time>2026-04-11T15:28:56.001Z</time></trkpt><trkpt lat="42.69979908975025" lon="12.761002142120178"><ele>1011.5999999999999</ele><time>2026-04-11T15:28:57.001Z</time></trkpt><trkpt lat="42.69982672542607" lon="12.760854169407425"><ele>1013.0</ele><time>2026-04-11T15:28:59.001Z</time></trkpt><trkpt lat="42.6999186780067" lon="12.76079447132505"><ele>1014.0000000000001</ele><time>2026-04-11T15:29:01.001Z</time></trkpt><trkpt lat="42.7000452714366" lon="12.760790496169134"><ele>1015.0</ele><time>2026-04-11T15:29:03.001Z</time></trkpt><trkpt lat="42.70011718430058" lon="12.760759192591534"><ele>1016.0</ele><time>2026-04-11T15:29:04.001Z</time></trkpt><trkpt lat="42.70017535811513" lon="12.760705954289605"><ele>1017.0</ele><time>2026-04-11T15:29:05.001Z</time></trkpt><trkpt lat="42.700222830151425" lon="12.760627055703814"><ele>1018.0000000000001</ele><time>2026-04-11T15:29:06.001Z</time></trkpt><trkpt lat="42.700276321936535" lon="12.760535557160244"><ele>1019.0</ele><time>2026-04-11T15:29:07.001Z</time></trkpt><trkpt lat="42.7003182958047" lon="12.760442643241424"><ele>1020.4000000000001</ele><time>2026-04-11T15:29:08.001Z</time></trkpt><trkpt lat="42.70036331912077" lon="12.760355068547545"><ele>1021.8000000000001</ele><time>2026-04-11T15:29:09.001Z</time></trkpt><trkpt lat="42.7004225576373" lon="12.760229967125817"><ele>1023.1999999999999</ele><time>2026-04-11T15:29:11.001Z</time></trkpt><trkpt lat="42.700486142594215" lon="12.760157682073977"><ele>1024.6</ele><time>2026-04-11T15:29:13.001Z</time></trkpt><trkpt lat="42.700578050313055" lon="12.760060291426447"><ele>1026.0</ele><time>2026-04-11T15:29:15.001Z</time></trkpt><trkpt lat="42.70065389822191" lon="12.759939582805954"><ele>1026.0</ele><time>2026-04-11T15:29:17.001Z</time></trkpt><trkpt lat="42.7007126740693" lon="12.759852032012683"><ele>1026.0</ele><time>2026-04-11T15:29:19.001Z</time></trkpt><trkpt lat="42.70076339598307" lon="12.759978011027757"><ele>1026.0</ele><time>2026-04-11T15:29:22.001Z</time></trkpt><trkpt lat="42.70073960104225" lon="12.760146741342465"><ele>1026.0</ele><time>2026-04-11T15:29:24.001Z</time></trkpt><trkpt lat="42.70070948935834" lon="12.760233951880094"><ele>1026.0</ele><time>2026-04-11T15:29:25.001Z</time></trkpt><trkpt lat="42.70069061443115" lon="12.76031586788688"><ele>1027.5</ele><time>2026-04-11T15:29:26.001Z</time></trkpt><trkpt lat="42.70067989508386" lon="12.760435334010802"><ele>1029.0</ele><time>2026-04-11T15:29:27.001Z</time></trkpt><trkpt lat="42.70067383012795" lon="12.760573876359281"><ele>1030.5</ele><time>2026-04-11T15:29:28.001Z</time></trkpt><trkpt lat="42.700661211219796" lon="12.760701898200645"><ele>1032.0</ele><time>2026-04-11T15:29:29.001Z</time></trkpt><trkpt lat="42.70065378871048" lon="12.760815272767024"><ele>1033.5</ele><time>2026-04-11T15:29:30.001Z</time></trkpt><trkpt lat="42.70063698101116" lon="12.76091916819385"><ele>1035.0</ele><time>2026-04-11T15:29:31.001Z</time></trkpt><trkpt lat="42.70062583997776" lon="12.761021431945906"><ele>1035.2</ele><time>2026-04-11T15:29:32.001Z</time></trkpt><trkpt lat="42.700627945232384" lon="12.761134275807455"><ele>1035.4</ele><time>2026-04-11T15:29:33.001Z</time></trkpt><trkpt lat="42.700639428427245" lon="12.761254242114083"><ele>1035.6</ele><time>2026-04-11T15:29:34.001Z</time></trkpt><trkpt lat="42.70066682678048" lon="12.761380209306298"><ele>1035.8</ele><time>2026-04-11T15:29:35.001Z</time></trkpt><trkpt lat="42.70070753524931" lon="12.761510114265313"><ele>1036.0</ele><time>2026-04-11T15:29:36.001Z</time></trkpt><trkpt lat="42.70075031268986" lon="12.761648031463261"><ele>1036.0</ele><time>2026-04-11T15:29:37.001Z</time></trkpt><trkpt lat="42.700800803119485" lon="12.761799823023937"><ele>1036.0</ele><time>2026-04-11T15:29:38.001Z</time></trkpt><trkpt lat="42.70084018501646" lon="12.76192578786496"><ele>1036.0</ele><time>2026-04-11T15:29:39.001Z</time></trkpt><trkpt lat="42.70087058970266" lon="12.762052795716967"><ele>1036.0</ele><time>2026-04-11T15:29:40.001Z</time></trkpt><trkpt lat="42.70090108782286" lon="12.76215211844217"><ele>1036.0</ele><time>2026-04-11T15:29:41.001Z</time></trkpt><trkpt lat="42.70094010983778" lon="12.76224233254017"><ele>1037.0</ele><time>2026-04-11T15:29:42.001Z</time></trkpt><trkpt lat="42.70100412499071" lon="12.7623176009196"><ele>1038.0</ele><time>2026-04-11T15:29:43.001Z</time></trkpt><trkpt lat="42.70107220789665" lon="12.762398804808727"><ele>1039.0</ele><time>2026-04-11T15:29:44.001Z</time></trkpt><trkpt lat="42.70112510243581" lon="12.762508951116482"><ele>1040.0</ele><time>2026-04-11T15:29:45.001Z</time></trkpt><trkpt lat="42.70116615078301" lon="12.76263742795808"><ele>1041.0</ele><time>2026-04-11T15:29:46.001Z</time></trkpt><trkpt lat="42.701192721976426" lon="12.762777723513121"><ele>1041.2</ele><time>2026-04-11T15:29:47.001Z</time></trkpt><trkpt lat="42.70120396300293" lon="12.76291663207472"><ele>1041.3999999999999</ele><time>2026-04-11T15:29:48.001Z</time></trkpt><trkpt lat="42.70117681094813" lon="12.76307622193923"><ele>1041.6</ele><time>2026-04-11T15:29:49.001Z</time></trkpt><trkpt lat="42.70116910355399" lon="12.763227723679083"><ele>1041.8</ele><time>2026-04-11T15:29:50.001Z</time></trkpt><trkpt lat="42.70116024409158" lon="12.763379168610998"><ele>1042.0</ele><time>2026-04-11T15:29:51.001Z</time></trkpt><trkpt lat="42.70117247299389" lon="12.763537682422015"><ele>1041.6</ele><time>2026-04-11T15:29:52.001Z</time></trkpt><trkpt lat="42.701162019690855" lon="12.76368874344666"><ele>1041.2</ele><time>2026-04-11T15:29:53.001Z</time></trkpt><trkpt lat="42.70115320768622" lon="12.763813716689198"><ele>1040.8</ele><time>2026-04-11T15:29:54.001Z</time></trkpt><trkpt lat="42.701164658522146" lon="12.763919828152796"><ele>1040.4</ele><time>2026-04-11T15:29:55.001Z</time></trkpt><trkpt lat="42.701209343288234" lon="12.764034634573449"><ele>1040.0</ele><time>2026-04-11T15:29:56.001Z</time></trkpt><trkpt lat="42.701252353115365" lon="12.76414183747076"><ele>1040.0</ele><time>2026-04-11T15:29:57.001Z</time></trkpt><trkpt lat="42.70133687900893" lon="12.764217433354279"><ele>1040.0</ele><time>2026-04-11T15:29:58.001Z</time></trkpt><trkpt lat="42.701379146299125" lon="12.764324417950775"><ele>1040.0</ele><time>2026-04-11T15:29:59.001Z</time></trkpt><trkpt lat="42.70139064609292" lon="12.764445377323305"><ele>1040.0</ele><time>2026-04-11T15:30:00.001Z</time></trkpt><trkpt lat="42.70140017763584" lon="12.764588027734677"><ele>1040.0</ele><time>2026-04-11T15:30:02.001Z</time></trkpt><trkpt lat="42.701232336066276" lon="12.764618867317465"><ele>1040.0</ele><time>2026-04-11T15:30:03.001Z</time></trkpt><trkpt lat="42.70118468644036" lon="12.764761501038478"><ele>1040.0</ele><time>2026-04-11T15:30:05Z</time></trkpt><trkpt lat="42.701152318222746" lon="12.764931971573517"><ele>1040.0</ele><time>2026-04-11T15:30:07Z</time></trkpt><trkpt lat="42.70114211407993" lon="12.76505290531306"><ele>1040.0</ele><time>2026-04-11T15:30:08Z</time></trkpt><trkpt lat="42.701132208983076" lon="12.765185821640213"><ele>1040.0</ele><time>2026-04-11T15:30:09Z</time></trkpt><trkpt lat="42.70112184301104" lon="12.765324998606234"><ele>1040.0</ele><time>2026-04-11T15:30:10Z</time></trkpt><trkpt lat="42.70111253992332" lon="12.765471631744363"><ele>1040.0</ele><time>2026-04-11T15:30:11Z</time></trkpt><trkpt lat="42.70110845522354" lon="12.765629596984581"><ele>1040.0</ele><time>2026-04-11T15:30:12Z</time></trkpt><trkpt lat="42.70112118498192" lon="12.765791334384003"><ele>1040.0</ele><time>2026-04-11T15:30:13Z</time></trkpt><trkpt lat="42.70115336674898" lon="12.765928601092776"><ele>1043.5</ele><time>2026-04-11T15:30:14Z</time></trkpt><trkpt lat="42.70109661518843" lon="12.76605239140807"><ele>1047.0</ele><time>2026-04-11T15:30:16Z</time></trkpt><trkpt lat="42.70130380676833" lon="12.766208433279855"><ele>1050.5</ele><time>2026-04-11T15:30:17Z</time></trkpt><trkpt lat="42.70134548900802" lon="12.76632600872236"><ele>1054.0</ele><time>2026-04-11T15:30:18Z</time></trkpt><trkpt lat="42.7013718703276" lon="12.766440559307501"><ele>1054.0</ele><time>2026-04-11T15:30:19Z</time></trkpt><trkpt lat="42.70138975775102" lon="12.76655552285137"><ele>1054.0</ele><time>2026-04-11T15:30:20Z</time></trkpt><trkpt lat="42.70140736214931" lon="12.766662022181407"><ele>1054.0</ele><time>2026-04-11T15:30:21Z</time></trkpt><trkpt lat="42.70144569280414" lon="12.766769948995027"><ele>1054.0</ele><time>2026-04-11T15:30:22Z</time></trkpt><trkpt lat="42.70150095397793" lon="12.766872537701623"><ele>1054.0</ele><time>2026-04-11T15:30:23Z</time></trkpt><trkpt lat="42.701564752542126" lon="12.766962054661608"><ele>1054.0</ele><time>2026-04-11T15:30:24Z</time></trkpt><trkpt lat="42.70163750751077" lon="12.767039212682155"><ele>1054.0</ele><time>2026-04-11T15:30:25Z</time></trkpt><trkpt lat="42.7017168548947" lon="12.767118954243333"><ele>1054.0</ele><time>2026-04-11T15:30:26Z</time></trkpt><trkpt lat="42.70183298989224" lon="12.767135101187563"><ele>1054.0</ele><time>2026-04-11T15:30:27Z</time></trkpt><trkpt lat="42.70194839693854" lon="12.76710574623045"><ele>1054.0</ele><time>2026-04-11T15:30:28Z</time></trkpt><trkpt lat="42.70204737773984" lon="12.767091269667043"><ele>1054.0</ele><time>2026-04-11T15:30:29Z</time></trkpt><trkpt lat="42.702143617339125" lon="12.767090839332681"><ele>1054.0</ele><time>2026-04-11T15:30:30Z</time></trkpt><trkpt lat="42.70224384628617" lon="12.767096574674014"><ele>1054.0</ele><time>2026-04-11T15:30:31Z</time></trkpt><trkpt lat="42.70234683039679" lon="12.767107067965462"><ele>1054.0</ele><time>2026-04-11T15:30:32Z</time></trkpt><trkpt lat="42.70243801253423" lon="12.767120373164886"><ele>1054.0</ele><time>2026-04-11T15:30:33Z</time></trkpt><trkpt lat="42.70250561071973" lon="12.767122700039922"><ele>1054.0</ele><time>2026-04-11T15:30:34Z</time></trkpt><trkpt lat="42.70255575801174" lon="12.767271121610401"><ele>1054.0</ele><time>2026-04-11T15:30:36Z</time></trkpt><trkpt lat="42.70252833000731" lon="12.767365958764158"><ele>1054.0</ele><time>2026-04-11T15:30:37Z</time></trkpt><trkpt lat="42.70247812881774" lon="12.767454336647123"><ele>1054.0</ele><time>2026-04-11T15:30:38Z</time></trkpt><trkpt lat="42.702423654914064" lon="12.767561740286025"><ele>1054.0</ele><time>2026-04-11T15:30:39.001Z</time></trkpt><trkpt lat="42.70236178547417" lon="12.767656532862363"><ele>1054.0</ele><time>2026-04-11T15:30:40.001Z</time></trkpt><trkpt lat="42.7022954188896" lon="12.767743106321674"><ele>1054.0</ele><time>2026-04-11T15:30:41.001Z</time></trkpt><trkpt lat="42.70223271825478" lon="12.767798499412025"><ele>1052.1666666666665</ele><time>2026-04-11T15:30:42.001Z</time></trkpt><trkpt lat="42.70216340681504" lon="12.767831572975446"><ele>1050.3333333333333</ele><time>2026-04-11T15:30:43.001Z</time></trkpt><trkpt lat="42.70207814373313" lon="12.767836318699294"><ele>1048.5</ele><time>2026-04-11T15:30:44.001Z</time></trkpt><trkpt lat="42.701988695042125" lon="12.767835656351501"><ele>1046.6666666666667</ele><time>2026-04-11T15:30:45.001Z</time></trkpt><trkpt lat="42.701902025645005" lon="12.76786168268513"><ele>1044.8333333333335</ele><time>2026-04-11T15:30:46.001Z</time></trkpt><trkpt lat="42.70182371242091" lon="12.767919921301804"><ele>1043.0</ele><time>2026-04-11T15:30:47.001Z</time></trkpt><trkpt lat="42.701755012272564" lon="12.768016142348634"><ele>1047.75</ele><time>2026-04-11T15:30:48.001Z</time></trkpt><trkpt lat="42.701705621760986" lon="12.768154061924522"><ele>1052.5</ele><time>2026-04-11T15:30:49.001Z</time></trkpt><trkpt lat="42.70163575158658" lon="12.768295445816035"><ele>1057.25</ele><time>2026-04-11T15:30:50.001Z</time></trkpt><trkpt lat="42.70157862830207" lon="12.768447402191786"><ele>1062.0</ele><time>2026-04-11T15:30:51.001Z</time></trkpt><trkpt lat="42.70153678244924" lon="12.768606698591405"><ele>1062.0</ele><time>2026-04-11T15:30:52.001Z</time></trkpt><trkpt lat="42.70146867582775" lon="12.768751712579416"><ele>1062.0</ele><time>2026-04-11T15:30:53.001Z</time></trkpt><trkpt lat="42.70141719567752" lon="12.768897670875791"><ele>1062.0</ele><time>2026-04-11T15:30:54.001Z</time></trkpt><trkpt lat="42.7013685811537" lon="12.769023836688437"><ele>1062.0</ele><time>2026-04-11T15:30:55.001Z</time></trkpt><trkpt lat="42.70133302246485" lon="12.769145729023979"><ele>1062.0</ele><time>2026-04-11T15:30:56.001Z</time></trkpt><trkpt lat="42.70130283204427" lon="12.769273891802804"><ele>1064.0</ele><time>2026-04-11T15:30:57.001Z</time></trkpt><trkpt lat="42.70131752964549" lon="12.76940995874487"><ele>1066.0</ele><time>2026-04-11T15:30:58.001Z</time></trkpt><trkpt lat="42.701328382758135" lon="12.769553818575735"><ele>1068.0</ele><time>2026-04-11T15:30:59.001Z</time></trkpt><trkpt lat="42.70133196126749" lon="12.769706103831393"><ele>1070.0</ele><time>2026-04-11T15:31:00.001Z</time></trkpt><trkpt lat="42.701357439187774" lon="12.769852083006787"><ele>1072.0</ele><time>2026-04-11T15:31:01.001Z</time></trkpt><trkpt lat="42.70136971161331" lon="12.769976062566581"><ele>1072.0</ele><time>2026-04-11T15:31:02.001Z</time></trkpt><trkpt lat="42.70138086345964" lon="12.770066806664794"><ele>1072.0</ele><time>2026-04-11T15:31:03.001Z</time></trkpt><trkpt lat="42.701391869826146" lon="12.770163797753034"><ele>1072.0</ele><time>2026-04-11T15:31:04.001Z</time></trkpt><trkpt lat="42.7014073900517" lon="12.770283610159018"><ele>1072.0</ele><time>2026-04-11T15:31:06.001Z</time></trkpt><trkpt lat="42.701461080802574" lon="12.77033926503368"><ele>1072.0</ele><time>2026-04-11T15:31:09.001Z</time></trkpt><trkpt lat="42.70155398322645" lon="12.77036147457623"><ele>1072.0</ele><time>2026-04-11T15:32:28Z</time></trkpt><trkpt lat="42.70162188661469" lon="12.770333097498359"><ele>1075.4</ele><time>2026-04-11T15:32:29Z</time></trkpt><trkpt lat="42.70168635881195" lon="12.770280707213365"><ele>1078.8000000000002</ele><time>2026-04-11T15:32:30Z</time></trkpt><trkpt lat="42.701760904760945" lon="12.77022660741472"><ele>1082.2</ele><time>2026-04-11T15:32:31Z</time></trkpt><trkpt lat="42.70184993130756" lon="12.770192740421214"><ele>1085.6000000000001</ele><time>2026-04-11T15:32:32Z</time></trkpt><trkpt lat="42.70194592727529" lon="12.770184630505472"><ele>1089.0</ele><time>2026-04-11T15:32:33Z</time></trkpt><trkpt lat="42.70204740637204" lon="12.770183803792992"><ele>1087.6000000000001</ele><time>2026-04-11T15:32:34Z</time></trkpt><trkpt lat="42.702147496485885" lon="12.770196005470277"><ele>1086.2</ele><time>2026-04-11T15:32:35Z</time></trkpt><trkpt lat="42.70222681608304" lon="12.770233956033469"><ele>1084.8000000000002</ele><time>2026-04-11T15:32:36Z</time></trkpt><trkpt lat="42.70230159502914" lon="12.770293939354705"><ele>1083.4</ele><time>2026-04-11T15:32:37Z</time></trkpt><trkpt lat="42.70239779099921" lon="12.770374032341744"><ele>1082.0</ele><time>2026-04-11T15:32:38Z</time></trkpt><trkpt lat="42.70249564910037" lon="12.77045838139985"><ele>1082.0</ele><time>2026-04-11T15:32:39Z</time></trkpt><trkpt lat="42.702582529003614" lon="12.770542490462518"><ele>1082.0</ele><time>2026-04-11T15:32:40Z</time></trkpt><trkpt lat="42.702654680959526" lon="12.77061940628458"><ele>1082.0</ele><time>2026-04-11T15:32:41Z</time></trkpt><trkpt lat="42.70272880551232" lon="12.770711691937457"><ele>1082.0</ele><time>2026-04-11T15:32:42Z</time></trkpt><trkpt lat="42.70280983914335" lon="12.770831101387135"><ele>1082.0</ele><time>2026-04-11T15:32:43Z</time></trkpt><trkpt lat="42.70288624161385" lon="12.77095636295467"><ele>1079.25</ele><time>2026-04-11T15:32:44Z</time></trkpt><trkpt lat="42.702953144963864" lon="12.77108040001285"><ele>1076.5</ele><time>2026-04-11T15:32:45Z</time></trkpt><trkpt lat="42.7030132420952" lon="12.771214801218774"><ele>1073.75</ele><time>2026-04-11T15:32:46Z</time></trkpt><trkpt lat="42.703080283893684" lon="12.771348662482797"><ele>1071.0</ele><time>2026-04-11T15:32:47Z</time></trkpt><trkpt lat="42.70314147879082" lon="12.77146512833658"><ele>1071.0</ele><time>2026-04-11T15:32:48Z</time></trkpt><trkpt lat="42.70319319230654" lon="12.771572402132662"><ele>1071.0</ele><time>2026-04-11T15:32:49Z</time></trkpt><trkpt lat="42.70324185766284" lon="12.77167413131813"><ele>1071.0</ele><time>2026-04-11T15:32:50Z</time></trkpt><trkpt lat="42.70329969914731" lon="12.771764564076998"><ele>1071.0</ele><time>2026-04-11T15:32:51Z</time></trkpt><trkpt lat="42.70333817928075" lon="12.771844586918846"><ele>1071.0</ele><time>2026-04-11T15:32:52Z</time></trkpt><trkpt lat="42.70339190913658" lon="12.771958432026056"><ele>1071.0</ele><time>2026-04-11T15:32:54Z</time></trkpt><trkpt lat="42.7034629818308" lon="12.771971409349328"><ele>1070.0</ele><time>2026-04-11T15:33:04Z</time></trkpt><trkpt lat="42.703454423987274" lon="12.772073474033155"><ele>1069.0</ele><time>2026-04-11T15:38:34Z</time></trkpt><trkpt lat="42.70355783725735" lon="12.77199345506983"><ele>1068.0</ele><time>2026-04-11T15:38:39Z</time></trkpt><trkpt lat="42.7036123531712" lon="12.771934397958777"><ele>1067.0</ele><time>2026-04-11T15:38:40Z</time></trkpt><trkpt lat="42.703664244860406" lon="12.771883113121659"><ele>1066.0</ele><time>2026-04-11T15:38:41Z</time></trkpt><trkpt lat="42.70372440241544" lon="12.771825805384895"><ele>1065.0</ele><time>2026-04-11T15:38:42Z</time></trkpt><trkpt lat="42.7038138992506" lon="12.771762694010809"><ele>1065.0</ele><time>2026-04-11T15:38:43Z</time></trkpt><trkpt lat="42.70393275414163" lon="12.771724006890226"><ele>1065.0</ele><time>2026-04-11T15:38:44Z</time></trkpt><trkpt lat="42.7040466181689" lon="12.771654184719642"><ele>1065.0</ele><time>2026-04-11T15:38:45Z</time></trkpt><trkpt lat="42.70415278381948" lon="12.771603606988577"><ele>1065.0</ele><time>2026-04-11T15:38:46Z</time></trkpt><trkpt lat="42.704247895031386" lon="12.77155785920468"><ele>1065.0</ele><time>2026-04-11T15:38:47Z</time></trkpt><trkpt lat="42.70432692124271" lon="12.771513348346716"><ele>1065.0</ele><time>2026-04-11T15:38:48Z</time></trkpt><trkpt lat="42.70440655878408" lon="12.77147588861417"><ele>1065.0</ele><time>2026-04-11T15:38:49Z</time></trkpt><trkpt lat="42.70448438276558" lon="12.771448611456481"><ele>1065.0</ele><time>2026-04-11T15:38:50Z</time></trkpt><trkpt lat="42.70457273339291" lon="12.77141511320123"><ele>1065.0</ele><time>2026-04-11T15:38:51Z</time></trkpt><trkpt lat="42.704672749880466" lon="12.771377908235396"><ele>1065.0</ele><time>2026-04-11T15:38:52Z</time></trkpt><trkpt lat="42.704777681118614" lon="12.771341239637799"><ele>1061.0</ele><time>2026-04-11T15:38:53Z</time></trkpt><trkpt lat="42.70489457669761" lon="12.77129897940542"><ele>1057.0</ele><time>2026-04-11T15:38:54Z</time></trkpt><trkpt lat="42.70501666468758" lon="12.7712473426036"><ele>1053.0</ele><time>2026-04-11T15:38:55Z</time></trkpt><trkpt lat="42.7051386216926" lon="12.771191949186408"><ele>1049.0</ele><time>2026-04-11T15:38:56Z</time></trkpt><trkpt lat="42.70525526696491" lon="12.771133808908358"><ele>1051.25</ele><time>2026-04-11T15:38:57Z</time></trkpt><trkpt lat="42.70536250711651" lon="12.771057252455861"><ele>1053.5</ele><time>2026-04-11T15:38:58Z</time></trkpt><trkpt lat="42.70547454051051" lon="12.77097506893713"><ele>1055.75</ele><time>2026-04-11T15:38:59Z</time></trkpt><trkpt lat="42.705584779972654" lon="12.77088061625922"><ele>1058.0</ele><time>2026-04-11T15:39:00Z</time></trkpt><trkpt lat="42.70569420750752" lon="12.770792044542533"><ele>1058.0</ele><time>2026-04-11T15:39:01Z</time></trkpt><trkpt lat="42.7058102658057" lon="12.770712807855567"><ele>1058.0</ele><time>2026-04-11T15:39:02Z</time></trkpt><trkpt lat="42.70591015188517" lon="12.770624384190386"><ele>1058.0</ele><time>2026-04-11T15:39:03Z</time></trkpt><trkpt lat="42.70600207036959" lon="12.770542336625839"><ele>1058.0</ele><time>2026-04-11T15:39:04Z</time></trkpt><trkpt lat="42.706086529591616" lon="12.770451433850305"><ele>1058.0</ele><time>2026-04-11T15:39:05Z</time></trkpt><trkpt lat="42.70617800178402" lon="12.770372823494952"><ele>1058.0</ele><time>2026-04-11T15:39:06Z</time></trkpt><trkpt lat="42.70628830516537" lon="12.770295563470517"><ele>1058.0</ele><time>2026-04-11T15:39:07Z</time></trkpt><trkpt lat="42.70640682984704" lon="12.770225197808111"><ele>1058.0</ele><time>2026-04-11T15:39:08Z</time></trkpt><trkpt lat="42.7065157933782" lon="12.77012385743281"><ele>1058.0</ele><time>2026-04-11T15:39:09Z</time></trkpt><trkpt lat="42.70663448038048" lon="12.77002224155492"><ele>1058.0</ele><time>2026-04-11T15:39:10Z</time></trkpt><trkpt lat="42.70674643337742" lon="12.769919332453101"><ele>1058.0</ele><time>2026-04-11T15:39:11Z</time></trkpt><trkpt lat="42.706858592733354" lon="12.769835939865255"><ele>1058.0</ele><time>2026-04-11T15:39:12Z</time></trkpt><trkpt lat="42.70697262560031" lon="12.769766808038511"><ele>1059.75</ele><time>2026-04-11T15:39:13Z</time></trkpt><trkpt lat="42.70708473782365" lon="12.769684585940546"><ele>1061.5</ele><time>2026-04-11T15:39:14Z</time></trkpt><trkpt lat="42.707200222030416" lon="12.769603016845972"><ele>1063.25</ele><time>2026-04-11T15:39:15Z</time></trkpt><trkpt lat="42.70731590748914" lon="12.7695032212113"><ele>1065.0</ele><time>2026-04-11T15:39:16Z</time></trkpt><trkpt lat="42.70743837756026" lon="12.769407177212646"><ele>1064.75</ele><time>2026-04-11T15:39:17Z</time></trkpt><trkpt lat="42.70755710486663" lon="12.769295719731254"><ele>1064.5</ele><time>2026-04-11T15:39:18Z</time></trkpt><trkpt lat="42.70767616520973" lon="12.769183998831513"><ele>1064.25</ele><time>2026-04-11T15:39:19Z</time></trkpt><trkpt lat="42.70778678059873" lon="12.76908575809977"><ele>1064.0</ele><time>2026-04-11T15:39:20Z</time></trkpt><trkpt lat="42.70790236574006" lon="12.76904678856713"><ele>1065.75</ele><time>2026-04-11T15:39:21Z</time></trkpt><trkpt lat="42.70801641529138" lon="12.768992729702765"><ele>1067.5</ele><time>2026-04-11T15:39:22Z</time></trkpt><trkpt lat="42.70812257791066" lon="12.76895465042861"><ele>1069.25</ele><time>2026-04-11T15:39:23Z</time></trkpt><trkpt lat="42.708233631761814" lon="12.768940618821679"><ele>1071.0</ele><time>2026-04-11T15:39:24Z</time></trkpt><trkpt lat="42.70834389794567" lon="12.768945833331875"><ele>1071.0</ele><time>2026-04-11T15:39:25Z</time></trkpt><trkpt lat="42.70845973164758" lon="12.768968711037122"><ele>1071.0</ele><time>2026-04-11T15:39:26Z</time></trkpt><trkpt lat="42.70859065241236" lon="12.768987422545946"><ele>1071.0</ele><time>2026-04-11T15:39:27Z</time></trkpt><trkpt lat="42.708723831208495" lon="12.768990819264111"><ele>1071.0</ele><time>2026-04-11T15:39:28Z</time></trkpt><trkpt lat="42.70883678619976" lon="12.769008340463525"><ele>1071.75</ele><time>2026-04-11T15:39:29Z</time></trkpt><trkpt lat="42.70894089780186" lon="12.769004103123265"><ele>1072.5</ele><time>2026-04-11T15:39:30Z</time></trkpt><trkpt lat="42.70903942322163" lon="12.768971317052632"><ele>1073.25</ele><time>2026-04-11T15:39:31Z</time></trkpt><trkpt lat="42.709153838350204" lon="12.768914933759127"><ele>1074.0</ele><time>2026-04-11T15:39:32Z</time></trkpt><trkpt lat="42.709285696079476" lon="12.76881898151393"><ele>1073.0</ele><time>2026-04-11T15:39:33Z</time></trkpt><trkpt lat="42.70941096033471" lon="12.76871333475717"><ele>1072.0</ele><time>2026-04-11T15:39:34Z</time></trkpt><trkpt lat="42.709524585244324" lon="12.768628788716745"><ele>1071.0</ele><time>2026-04-11T15:39:35Z</time></trkpt><trkpt lat="42.709637839732174" lon="12.768556794431142"><ele>1070.0</ele><time>2026-04-11T15:39:36Z</time></trkpt><trkpt lat="42.70975666264749" lon="12.768497136250005"><ele>1067.25</ele><time>2026-04-11T15:39:37Z</time></trkpt><trkpt lat="42.709876289999926" lon="12.768425338887358"><ele>1064.5</ele><time>2026-04-11T15:39:38Z</time></trkpt><trkpt lat="42.70998813874971" lon="12.768353747382939"><ele>1061.75</ele><time>2026-04-11T15:39:39Z</time></trkpt><trkpt lat="42.71009455646638" lon="12.768291670884242"><ele>1059.0</ele><time>2026-04-11T15:39:40Z</time></trkpt><trkpt lat="42.71019269768209" lon="12.768234400865682"><ele>1057.4</ele><time>2026-04-11T15:39:41Z</time></trkpt><trkpt lat="42.710288339923835" lon="12.768183591492875"><ele>1055.8000000000002</ele><time>2026-04-11T15:39:42Z</time></trkpt><trkpt lat="42.71037830457308" lon="12.768146970370577"><ele>1054.1999999999998</ele><time>2026-04-11T15:39:43Z</time></trkpt><trkpt lat="42.710472236471006" lon="12.76814030406079"><ele>1052.6</ele><time>2026-04-11T15:39:44Z</time></trkpt><trkpt lat="42.71057559119389" lon="12.768119571936733"><ele>1051.0</ele><time>2026-04-11T15:39:45Z</time></trkpt><trkpt lat="42.71068735315623" lon="12.768101787059843"><ele>1051.0</ele><time>2026-04-11T15:39:46Z</time></trkpt><trkpt lat="42.71079042848792" lon="12.768080837279632"><ele>1051.0</ele><time>2026-04-11T15:39:47Z</time></trkpt><trkpt lat="42.710897773068105" lon="12.768086635018207"><ele>1051.0</ele><time>2026-04-11T15:39:48Z</time></trkpt><trkpt lat="42.711003207513244" lon="12.768071153033652"><ele>1051.0</ele><time>2026-04-11T15:39:49Z</time></trkpt><trkpt lat="42.71110413361365" lon="12.768036712661711"><ele>1051.0</ele><time>2026-04-11T15:39:50Z</time></trkpt><trkpt lat="42.71122009318932" lon="12.768008163538397"><ele>1045.25</ele><time>2026-04-11T15:39:51Z</time></trkpt><trkpt lat="42.71133242294897" lon="12.767981205368605"><ele>1039.5</ele><time>2026-04-11T15:39:52Z</time></trkpt><trkpt lat="42.711441960092415" lon="12.767923960454091"><ele>1033.75</ele><time>2026-04-11T15:39:53Z</time></trkpt><trkpt lat="42.71155040324875" lon="12.76785955006154"><ele>1028.0</ele><time>2026-04-11T15:39:54Z</time></trkpt><trkpt lat="42.711652602640115" lon="12.767789244548144"><ele>1028.0</ele><time>2026-04-11T15:39:55Z</time></trkpt><trkpt lat="42.71174574177729" lon="12.76771836031915"><ele>1028.0</ele><time>2026-04-11T15:39:56Z</time></trkpt><trkpt lat="42.71182791373679" lon="12.767636324297062"><ele>1028.0</ele><time>2026-04-11T15:39:57.001Z</time></trkpt><trkpt lat="42.711900699761" lon="12.767550061122154"><ele>1028.0</ele><time>2026-04-11T15:39:58.001Z</time></trkpt><trkpt lat="42.71196297602782" lon="12.767453046069447"><ele>1028.0</ele><time>2026-04-11T15:39:59.001Z</time></trkpt><trkpt lat="42.71200481816281" lon="12.767339532974287"><ele>1027.8</ele><time>2026-04-11T15:40:00.001Z</time></trkpt><trkpt lat="42.712052339282174" lon="12.767207615152683"><ele>1027.6</ele><time>2026-04-11T15:40:01.001Z</time></trkpt><trkpt lat="42.71209301052908" lon="12.767072304373052"><ele>1027.4</ele><time>2026-04-11T15:40:02.001Z</time></trkpt><trkpt lat="42.71213750562336" lon="12.766941129990443"><ele>1027.2</ele><time>2026-04-11T15:40:03.001Z</time></trkpt><trkpt lat="42.71218246566847" lon="12.766821020716542"><ele>1027.0</ele><time>2026-04-11T15:40:04.001Z</time></trkpt><trkpt lat="42.7122261468988" lon="12.766721386140588"><ele>1027.0</ele><time>2026-04-11T15:40:05.001Z</time></trkpt><trkpt lat="42.71228031831706" lon="12.76663631366313"><ele>1027.0</ele><time>2026-04-11T15:40:06.001Z</time></trkpt><trkpt lat="42.7123439657997" lon="12.766551648346832"><ele>1027.0</ele><time>2026-04-11T15:40:07.001Z</time></trkpt><trkpt lat="42.712416740153785" lon="12.766488720180444"><ele>1027.0</ele><time>2026-04-11T15:40:08.001Z</time></trkpt><trkpt lat="42.712491152632545" lon="12.766440338018123"><ele>1027.0</ele><time>2026-04-11T15:40:09.001Z</time></trkpt><trkpt lat="42.71255931730073" lon="12.766422259158617"><ele>1027.0</ele><time>2026-04-11T15:40:10.001Z</time></trkpt><trkpt lat="42.71263204907053" lon="12.766412861190851"><ele>1027.0</ele><time>2026-04-11T15:40:11.001Z</time></trkpt><trkpt lat="42.712695254958724" lon="12.76640752859487"><ele>1027.0</ele><time>2026-04-11T15:40:12.001Z</time></trkpt><trkpt lat="42.71277120756256" lon="12.766325109059311"><ele>1027.0</ele><time>2026-04-11T15:40:14.001Z</time></trkpt><trkpt lat="42.71272350898512" lon="12.76621505060366"><ele>1027.0</ele><time>2026-04-11T15:40:16.001Z</time></trkpt><trkpt lat="42.712605053716146" lon="12.76613947691028"><ele>1027.0</ele><time>2026-04-11T15:40:18.001Z</time></trkpt><trkpt lat="42.71252741425153" lon="12.766120755816466"><ele>1027.0</ele><time>2026-04-11T15:40:19.001Z</time></trkpt><trkpt lat="42.71244410751157" lon="12.76609215158095"><ele>1027.0</ele><time>2026-04-11T15:40:20.001Z</time></trkpt><trkpt lat="42.71235425866307" lon="12.766090702583243"><ele>1027.0</ele><time>2026-04-11T15:40:21.001Z</time></trkpt><trkpt lat="42.71226079030604" lon="12.766108723030989"><ele>1027.0</ele><time>2026-04-11T15:40:22.001Z</time></trkpt><trkpt lat="42.7121650840573" lon="12.76612962641793"><ele>1027.0</ele><time>2026-04-11T15:40:23.001Z</time></trkpt><trkpt lat="42.712063779355816" lon="12.766156974335464"><ele>1027.0</ele><time>2026-04-11T15:40:24.001Z</time></trkpt><trkpt lat="42.71195603820075" lon="12.76619175577515"><ele>1027.0</ele><time>2026-04-11T15:40:25.001Z</time></trkpt><trkpt lat="42.71184308418778" lon="12.766237275776714"><ele>1027.0</ele><time>2026-04-11T15:40:26.001Z</time></trkpt><trkpt lat="42.71173399814471" lon="12.766289082626171"><ele>1027.0</ele><time>2026-04-11T15:40:27.001Z</time></trkpt><trkpt lat="42.71163970758485" lon="12.766341080739341"><ele>1027.0</ele><time>2026-04-11T15:40:28.001Z</time></trkpt><trkpt lat="42.71155254812685" lon="12.766398058030214"><ele>1026.8333333333333</ele><time>2026-04-11T15:40:29.001Z</time></trkpt><trkpt lat="42.71148423552488" lon="12.766450111773533"><ele>1026.6666666666665</ele><time>2026-04-11T15:40:30.001Z</time></trkpt><trkpt lat="42.71142499359954" lon="12.766504031581036"><ele>1026.5</ele><time>2026-04-11T15:40:31Z</time></trkpt><trkpt lat="42.71134358712768" lon="12.76657553446676"><ele>1026.3333333333333</ele><time>2026-04-11T15:40:33Z</time></trkpt><trkpt lat="42.71132889579307" lon="12.766467730864942"><ele>1026.1666666666667</ele><time>2026-04-11T15:40:36Z</time></trkpt><trkpt lat="42.71138534714299" lon="12.7663746480946"><ele>1026.0</ele><time>2026-04-11T15:40:37Z</time></trkpt><trkpt lat="42.71145748792316" lon="12.766265592714857"><ele>1026.0</ele><time>2026-04-11T15:40:38Z</time></trkpt><trkpt lat="42.71152011393258" lon="12.766129907451614"><ele>1026.0</ele><time>2026-04-11T15:40:39Z</time></trkpt><trkpt lat="42.71157425651359" lon="12.76597101663446"><ele>1026.0</ele><time>2026-04-11T15:40:40Z</time></trkpt><trkpt lat="42.71161320155273" lon="12.765812025968478"><ele>1026.0</ele><time>2026-04-11T15:40:41Z</time></trkpt><trkpt lat="42.71165685561591" lon="12.765661435358995"><ele>1022.75</ele><time>2026-04-11T15:40:42Z</time></trkpt><trkpt lat="42.711701684162016" lon="12.765514277926943"><ele>1019.5</ele><time>2026-04-11T15:40:43Z</time></trkpt><trkpt lat="42.71174760965187" lon="12.765367570886383"><ele>1016.25</ele><time>2026-04-11T15:40:44Z</time></trkpt><trkpt lat="42.71179650195796" lon="12.765231629748753"><ele>1013.0</ele><time>2026-04-11T15:40:45Z</time></trkpt><trkpt lat="42.71184286157754" lon="12.765096639092794"><ele>1012.4</ele><time>2026-04-11T15:40:46Z</time></trkpt><trkpt lat="42.71188739076286" lon="12.764964842201174"><ele>1011.8</ele><time>2026-04-11T15:40:47Z</time></trkpt><trkpt lat="42.711931860509765" lon="12.764836791080555"><ele>1011.2</ele><time>2026-04-11T15:40:48Z</time></trkpt><trkpt lat="42.71197832260478" lon="12.764726577213645"><ele>1010.6</ele><time>2026-04-11T15:40:49Z</time></trkpt><trkpt lat="42.71202692511845" lon="12.764629704488666"><ele>1010.0</ele><time>2026-04-11T15:40:50Z</time></trkpt><trkpt lat="42.71208196377039" lon="12.764554980693108"><ele>1010.0000000000001</ele><time>2026-04-11T15:40:51Z</time></trkpt><trkpt lat="42.712128953535355" lon="12.764493666792701"><ele>1010.0</ele><time>2026-04-11T15:40:52Z</time></trkpt><trkpt lat="42.71215177034248" lon="12.764393345811046"><ele>1010.0</ele><time>2026-04-11T15:40:54Z</time></trkpt><trkpt lat="42.71205517801428" lon="12.764366133953262"><ele>1010.0</ele><time>2026-04-11T15:40:56Z</time></trkpt><trkpt lat="42.71196729072784" lon="12.764357900580878"><ele>1010.0000000000001</ele><time>2026-04-11T15:40:57Z</time></trkpt><trkpt lat="42.71186378818433" lon="12.764406255501521"><ele>1010.0</ele><time>2026-04-11T15:40:58Z</time></trkpt><trkpt lat="42.71176138846202" lon="12.764492432710925"><ele>1007.6</ele><time>2026-04-11T15:40:59Z</time></trkpt><trkpt lat="42.711664064705595" lon="12.764593202876974"><ele>1005.2</ele><time>2026-04-11T15:41:00Z</time></trkpt><trkpt lat="42.71157285697776" lon="12.764688216984288"><ele>1002.8</ele><time>2026-04-11T15:41:01Z</time></trkpt><trkpt lat="42.71149650232551" lon="12.764790577558719"><ele>1000.4</ele><time>2026-04-11T15:41:02Z</time></trkpt><trkpt lat="42.7114121376469" lon="12.76485747191306"><ele>998.0</ele><time>2026-04-11T15:41:03Z</time></trkpt><trkpt lat="42.711336995715115" lon="12.764934642823068"><ele>998.0</ele><time>2026-04-11T15:41:04Z</time></trkpt><trkpt lat="42.711263048846476" lon="12.765009937552936"><ele>998.0</ele><time>2026-04-11T15:41:05Z</time></trkpt><trkpt lat="42.711185941384734" lon="12.765076517605397"><ele>998.0</ele><time>2026-04-11T15:41:06Z</time></trkpt><trkpt lat="42.71110890974721" lon="12.765147067153562"><ele>998.0</ele><time>2026-04-11T15:41:07Z</time></trkpt><trkpt lat="42.71102813195048" lon="12.765224755926672"><ele>998.0</ele><time>2026-04-11T15:41:08Z</time></trkpt><trkpt lat="42.71095321490257" lon="12.765303979566275"><ele>997.8333333333334</ele><time>2026-04-11T15:41:09Z</time></trkpt><trkpt lat="42.71089627292324" lon="12.765388560398858"><ele>997.6666666666667</ele><time>2026-04-11T15:41:10Z</time></trkpt><trkpt lat="42.71081637014466" lon="12.765438494583396"><ele>997.5</ele><time>2026-04-11T15:41:12Z</time></trkpt><trkpt lat="42.710796425719984" lon="12.765354873252694"><ele>997.3333333333333</ele><time>2026-04-11T15:41:15Z</time></trkpt><trkpt lat="42.710830956318354" lon="12.765267274984957"><ele>997.1666666666666</ele><time>2026-04-11T15:41:16Z</time></trkpt><trkpt lat="42.71091365528007" lon="12.7651734924141"><ele>997.0</ele><time>2026-04-11T15:41:17Z</time></trkpt><trkpt lat="42.71098343397707" lon="12.76506273699551"><ele>997.25</ele><time>2026-04-11T15:41:18Z</time></trkpt><trkpt lat="42.71105626214698" lon="12.764950493341832"><ele>997.5</ele><time>2026-04-11T15:41:19Z</time></trkpt><trkpt lat="42.711125232853554" lon="12.764795761169815"><ele>997.75</ele><time>2026-04-11T15:41:20Z</time></trkpt><trkpt lat="42.71118530222387" lon="12.76462733412819"><ele>998.0</ele><time>2026-04-11T15:41:21Z</time></trkpt><trkpt lat="42.711241021356074" lon="12.76446419778542"><ele>994.5</ele><time>2026-04-11T15:41:22Z</time></trkpt><trkpt lat="42.711284365741825" lon="12.764312165123581"><ele>991.0</ele><time>2026-04-11T15:41:23Z</time></trkpt><trkpt lat="42.71131439155411" lon="12.764141722902435"><ele>987.5</ele><time>2026-04-11T15:41:24Z</time></trkpt><trkpt lat="42.71132503618045" lon="12.763967933661515"><ele>984.0</ele><time>2026-04-11T15:41:25Z</time></trkpt><trkpt lat="42.71133816442255" lon="12.763815275937597"><ele>984.0</ele><time>2026-04-11T15:41:26Z</time></trkpt><trkpt lat="42.71138088687301" lon="12.763675679862015"><ele>984.0000000000001</ele><time>2026-04-11T15:41:27Z</time></trkpt><trkpt lat="42.71142069761772" lon="12.76353683949229"><ele>984.0000000000001</ele><time>2026-04-11T15:41:28Z</time></trkpt><trkpt lat="42.711450800575626" lon="12.76340102742742"><ele>984.0</ele><time>2026-04-11T15:41:29Z</time></trkpt><trkpt lat="42.71151821151608" lon="12.763301399829695"><ele>984.0</ele><time>2026-04-11T15:41:30Z</time></trkpt><trkpt lat="42.711566798340534" lon="12.763185419569783"><ele>981.5</ele><time>2026-04-11T15:41:31Z</time></trkpt><trkpt lat="42.71165710943181" lon="12.76310264532395"><ele>979.0</ele><time>2026-04-11T15:41:32Z</time></trkpt><trkpt lat="42.711754993097706" lon="12.763024350357723"><ele>976.5</ele><time>2026-04-11T15:41:33Z</time></trkpt><trkpt lat="42.711863350271464" lon="12.762959151065411"><ele>974.0</ele><time>2026-04-11T15:41:34Z</time></trkpt><trkpt lat="42.71197506101507" lon="12.76291933907849"><ele>974.0</ele><time>2026-04-11T15:41:35Z</time></trkpt><trkpt lat="42.71208570017844" lon="12.76288528127527"><ele>974.0000000000001</ele><time>2026-04-11T15:41:36Z</time></trkpt><trkpt lat="42.71218727796338" lon="12.762862219813153"><ele>974.0000000000001</ele><time>2026-04-11T15:41:37Z</time></trkpt><trkpt lat="42.7122859564898" lon="12.762835461941629"><ele>974.0</ele><time>2026-04-11T15:41:38Z</time></trkpt><trkpt lat="42.712377452796424" lon="12.762820166964989"><ele>974.0</ele><time>2026-04-11T15:41:39Z</time></trkpt><trkpt lat="42.712463049785846" lon="12.762817413754531"><ele>974.0</ele><time>2026-04-11T15:41:40Z</time></trkpt><trkpt lat="42.71254916877304" lon="12.76284708123527"><ele>974.0000000000001</ele><time>2026-04-11T15:41:41Z</time></trkpt><trkpt lat="42.71262626448986" lon="12.762900061256317"><ele>974.0000000000001</ele><time>2026-04-11T15:41:42Z</time></trkpt><trkpt lat="42.712735027768716" lon="12.762976945025514"><ele>974.0</ele><time>2026-04-11T15:41:43Z</time></trkpt><trkpt lat="42.712836404631055" lon="12.763083280932062"><ele>974.0</ele><time>2026-04-11T15:41:44Z</time></trkpt><trkpt lat="42.71291436962604" lon="12.763209674379898"><ele>972.6</ele><time>2026-04-11T15:41:45Z</time></trkpt><trkpt lat="42.713019515527016" lon="12.763308799946254"><ele>971.2</ele><time>2026-04-11T15:41:46Z</time></trkpt><trkpt lat="42.71311619121242" lon="12.76338501126842"><ele>969.8000000000001</ele><time>2026-04-11T15:41:47Z</time></trkpt><trkpt lat="42.713193937315225" lon="12.763420326194693"><ele>968.4000000000001</ele><time>2026-04-11T15:41:48Z</time></trkpt><trkpt lat="42.71325405442818" lon="12.763491992432728"><ele>967.0</ele><time>2026-04-11T15:41:49Z</time></trkpt><trkpt lat="42.71331566288898" lon="12.763539501518748"><ele>967.0</ele><time>2026-04-11T15:41:50Z</time></trkpt><trkpt lat="42.71333987401524" lon="12.763713177200453"><ele>967.0</ele><time>2026-04-11T15:41:52Z</time></trkpt><trkpt lat="42.713353810123365" lon="12.763840939688723"><ele>967.0</ele><time>2026-04-11T15:41:53Z</time></trkpt><trkpt lat="42.71338829027017" lon="12.763962463106761"><ele>967.0</ele><time>2026-04-11T15:41:54Z</time></trkpt><trkpt lat="42.71344682632767" lon="12.764071609113593"><ele>967.0</ele><time>2026-04-11T15:41:55Z</time></trkpt><trkpt lat="42.71351503823508" lon="12.764164033826406"><ele>958.75</ele><time>2026-04-11T15:41:56Z</time></trkpt><trkpt lat="42.71359987037856" lon="12.76425865358507"><ele>950.5</ele><time>2026-04-11T15:41:57Z</time></trkpt><trkpt lat="42.71372682783389" lon="12.764260254359547"><ele>942.25</ele><time>2026-04-11T15:41:58Z</time></trkpt><trkpt lat="42.71384779273804" lon="12.764314250741304"><ele>934.0</ele><time>2026-04-11T15:41:59Z</time></trkpt><trkpt lat="42.713969826732836" lon="12.764360132829244"><ele>939.75</ele><time>2026-04-11T15:42:00Z</time></trkpt><trkpt lat="42.714071752376725" lon="12.764403811042452"><ele>945.5</ele><time>2026-04-11T15:42:01Z</time></trkpt><trkpt lat="42.7141825179803" lon="12.764466549136309"><ele>951.25</ele><time>2026-04-11T15:42:02Z</time></trkpt><trkpt lat="42.71429251693959" lon="12.764533624005088"><ele>957.0</ele><time>2026-04-11T15:42:03Z</time></trkpt><trkpt lat="42.714395832991926" lon="12.764603185531612"><ele>950.8</ele><time>2026-04-11T15:42:04Z</time></trkpt><trkpt lat="42.714488639686714" lon="12.764676174442513"><ele>944.6</ele><time>2026-04-11T15:42:05Z</time></trkpt><trkpt lat="42.71458194771806" lon="12.764760249339712"><ele>938.3999999999999</ele><time>2026-04-11T15:42:06Z</time></trkpt><trkpt lat="42.7146710766952" lon="12.764852223961576"><ele>932.1999999999999</ele><time>2026-04-11T15:42:07Z</time></trkpt><trkpt lat="42.71475785115809" lon="12.764939722065046"><ele>926.0</ele><time>2026-04-11T15:42:08Z</time></trkpt><trkpt lat="42.71485039974151" lon="12.765027662544046"><ele>926.0</ele><time>2026-04-11T15:42:09Z</time></trkpt><trkpt lat="42.71493966079715" lon="12.765110958595063"><ele>926.0</ele><time>2026-04-11T15:42:10Z</time></trkpt><trkpt lat="42.71503706043269" lon="12.765201849252735"><ele>926.0</ele><time>2026-04-11T15:42:11Z</time></trkpt><trkpt lat="42.71513517328048" lon="12.765293405547983"><ele>926.0</ele><time>2026-04-11T15:42:12Z</time></trkpt><trkpt lat="42.71524028655706" lon="12.765394100416032"><ele>922.25</ele><time>2026-04-11T15:42:13Z</time></trkpt><trkpt lat="42.71534195780358" lon="12.76549441448212"><ele>918.5</ele><time>2026-04-11T15:42:14Z</time></trkpt><trkpt lat="42.7154402080483" lon="12.765582144531368"><ele>914.75</ele><time>2026-04-11T15:42:15.001Z</time></trkpt><trkpt lat="42.71553641379874" lon="12.765667315302794"><ele>911.0</ele><time>2026-04-11T15:42:16.001Z</time></trkpt><trkpt lat="42.7156261033683" lon="12.76574465289483"><ele>911.0</ele><time>2026-04-11T15:42:17.001Z</time></trkpt><trkpt lat="42.715711538877216" lon="12.765813745011142"><ele>911.0</ele><time>2026-04-11T15:42:18.001Z</time></trkpt><trkpt lat="42.71580836929813" lon="12.76585859939591"><ele>911.0</ele><time>2026-04-11T15:42:19.001Z</time></trkpt><trkpt lat="42.715933716526166" lon="12.76587861272607"><ele>911.0</ele><time>2026-04-11T15:42:20.001Z</time></trkpt><trkpt lat="42.71606322297951" lon="12.765843023702223"><ele>908.4</ele><time>2026-04-11T15:42:21.001Z</time></trkpt><trkpt lat="42.7161963014829" lon="12.765765491746404"><ele>905.8</ele><time>2026-04-11T15:42:22.001Z</time></trkpt><trkpt lat="42.71628805757572" lon="12.765696076496347"><ele>903.1999999999999</ele><time>2026-04-11T15:42:23.001Z</time></trkpt><trkpt lat="42.71636524377124" lon="12.765608711156457"><ele>900.5999999999999</ele><time>2026-04-11T15:42:24.001Z</time></trkpt><trkpt lat="42.716436272559456" lon="12.765543984060674"><ele>898.0</ele><time>2026-04-11T15:42:25.001Z</time></trkpt><trkpt lat="42.71648799054608" lon="12.765456600333344"><ele>898.0</ele><time>2026-04-11T15:42:26.001Z</time></trkpt><trkpt lat="42.71651874101684" lon="12.765331436257293"><ele>898.0</ele><time>2026-04-11T15:42:27.001Z</time></trkpt><trkpt lat="42.716521892044405" lon="12.76518815406126"><ele>898.0</ele><time>2026-04-11T15:42:28.001Z</time></trkpt><trkpt lat="42.716519037660305" lon="12.76500788362044"><ele>898.0</ele><time>2026-04-11T15:42:29.001Z</time></trkpt><trkpt lat="42.71646893879874" lon="12.764814657285301"><ele>902.0</ele><time>2026-04-11T15:42:30.001Z</time></trkpt><trkpt lat="42.71640589113379" lon="12.764628000215264"><ele>906.0</ele><time>2026-04-11T15:42:31.001Z</time></trkpt><trkpt lat="42.71633357348959" lon="12.764423925490405"><ele>910.0</ele><time>2026-04-11T15:42:32.001Z</time></trkpt><trkpt lat="42.71627177310299" lon="12.76422084859717"><ele>914.0</ele><time>2026-04-11T15:42:33.001Z</time></trkpt><trkpt lat="42.71622637668112" lon="12.764013764170812"><ele>918.0</ele><time>2026-04-11T15:42:34.001Z</time></trkpt><trkpt lat="42.71616871086787" lon="12.763753920149354"><ele>922.0</ele><time>2026-04-11T15:42:35.001Z</time></trkpt><trkpt lat="42.716133834454105" lon="12.763498956707272"><ele>922.75</ele><time>2026-04-11T15:42:36.001Z</time></trkpt><trkpt lat="42.71610396144326" lon="12.76324865057808"><ele>923.5</ele><time>2026-04-11T15:42:37.001Z</time></trkpt><trkpt lat="42.716059337734414" lon="12.763137195324829"><ele>924.25</ele><time>2026-04-11T15:42:39.001Z</time></trkpt><trkpt lat="42.716034253582066" lon="12.762945979119047"><ele>925.0</ele><time>2026-04-11T15:42:40.001Z</time></trkpt><trkpt lat="42.716038791261724" lon="12.762773493560156"><ele>923.5</ele><time>2026-04-11T15:42:41Z</time></trkpt><trkpt lat="42.71603783586598" lon="12.762614855794261"><ele>922.0</ele><time>2026-04-11T15:42:42Z</time></trkpt><trkpt lat="42.716043168984626" lon="12.76246091732881"><ele>920.5</ele><time>2026-04-11T15:42:43Z</time></trkpt><trkpt lat="42.71606582025883" lon="12.762281538892331"><ele>919.0</ele><time>2026-04-11T15:42:44Z</time></trkpt><trkpt lat="42.71609723519519" lon="12.76212461103758"><ele>919.0</ele><time>2026-04-11T15:42:45Z</time></trkpt><trkpt lat="42.71613592863778" lon="12.76197263630917"><ele>919.0000000000001</ele><time>2026-04-11T15:42:46Z</time></trkpt><trkpt lat="42.71617782120892" lon="12.76183209437797"><ele>919.0000000000001</ele><time>2026-04-11T15:42:47Z</time></trkpt><trkpt lat="42.71622184808338" lon="12.761736588189821"><ele>919.0</ele><time>2026-04-11T15:42:48Z</time></trkpt><trkpt lat="42.71628725143511" lon="12.761651577033623"><ele>919.0</ele><time>2026-04-11T15:42:49Z</time></trkpt><trkpt lat="42.716350322119766" lon="12.76158327197551"><ele>914.75</ele><time>2026-04-11T15:42:50Z</time></trkpt><trkpt lat="42.71642669640655" lon="12.761517231691856"><ele>910.5</ele><time>2026-04-11T15:42:51Z</time></trkpt><trkpt lat="42.716524244288834" lon="12.761451443137144"><ele>906.25</ele><time>2026-04-11T15:42:52Z</time></trkpt><trkpt lat="42.71664982307655" lon="12.761381442263925"><ele>902.0</ele><time>2026-04-11T15:42:53Z</time></trkpt><trkpt lat="42.71680651992085" lon="12.761310151368193"><ele>905.3333333333334</ele><time>2026-04-11T15:42:54Z</time></trkpt><trkpt lat="42.71697358487097" lon="12.761252473360273"><ele>908.6666666666667</ele><time>2026-04-11T15:42:55Z</time></trkpt><trkpt lat="42.717146014776844" lon="12.761197895510007"><ele>912.0</ele><time>2026-04-11T15:42:56Z</time></trkpt><trkpt lat="42.71731932268278" lon="12.761142908699135"><ele>912.0</ele><time>2026-04-11T15:42:57Z</time></trkpt><trkpt lat="42.71747787339943" lon="12.761091145822931"><ele>912.0</ele><time>2026-04-11T15:42:58Z</time></trkpt><trkpt lat="42.717640333078414" lon="12.76103722692079"><ele>912.0</ele><time>2026-04-11T15:42:59Z</time></trkpt><trkpt lat="42.717792519225874" lon="12.760987052242434"><ele>906.6666666666667</ele><time>2026-04-11T15:43:00Z</time></trkpt><trkpt lat="42.71794920251944" lon="12.76093869203818"><ele>901.3333333333334</ele><time>2026-04-11T15:43:01Z</time></trkpt><trkpt lat="42.71809694066443" lon="12.76089560539347"><ele>896.0</ele><time>2026-04-11T15:43:02Z</time></trkpt><trkpt lat="42.71824338890412" lon="12.760857202051177"><ele>896.0</ele><time>2026-04-11T15:43:03Z</time></trkpt><trkpt lat="42.718388789439516" lon="12.760822317422086"><ele>896.0</ele><time>2026-04-11T15:43:04Z</time></trkpt><trkpt lat="42.71853446622781" lon="12.760787986755185"><ele>896.0</ele><time>2026-04-11T15:43:05Z</time></trkpt><trkpt lat="42.71867770887758" lon="12.760759960404636"><ele>896.0</ele><time>2026-04-11T15:43:06Z</time></trkpt><trkpt lat="42.71881584933098" lon="12.760736601195362"><ele>895.75</ele><time>2026-04-11T15:43:07Z</time></trkpt><trkpt lat="42.71894531932972" lon="12.76071490178961"><ele>895.5</ele><time>2026-04-11T15:43:08Z</time></trkpt><trkpt lat="42.71906566905559" lon="12.760688444538571"><ele>895.25</ele><time>2026-04-11T15:43:09Z</time></trkpt><trkpt lat="42.719182599913765" lon="12.760616957267281"><ele>895.0</ele><time>2026-04-11T15:43:10Z</time></trkpt><trkpt lat="42.71930311500283" lon="12.76052991880368"><ele>895.0</ele><time>2026-04-11T15:43:11Z</time></trkpt><trkpt lat="42.71939919698611" lon="12.76040529808215"><ele>895.0</ele><time>2026-04-11T15:43:12Z</time></trkpt><trkpt lat="42.719484716784415" lon="12.760275035118092"><ele>895.0</ele><time>2026-04-11T15:43:13Z</time></trkpt><trkpt lat="42.71954557341338" lon="12.760153639407179"><ele>895.0</ele><time>2026-04-11T15:43:14Z</time></trkpt><trkpt lat="42.71959293571794" lon="12.760053399055254"><ele>892.75</ele><time>2026-04-11T15:43:15Z</time></trkpt><trkpt lat="42.719638141685294" lon="12.759951320002452"><ele>890.5</ele><time>2026-04-11T15:43:16Z</time></trkpt><trkpt lat="42.71966907940271" lon="12.759822834766556"><ele>888.25</ele><time>2026-04-11T15:43:17Z</time></trkpt><trkpt lat="42.71968177948395" lon="12.759650275537938"><ele>886.0</ele><time>2026-04-11T15:43:18Z</time></trkpt><trkpt lat="42.71970410245068" lon="12.759449386732415"><ele>884.25</ele><time>2026-04-11T15:43:19Z</time></trkpt><trkpt lat="42.71973855671696" lon="12.759249491600961"><ele>882.5</ele><time>2026-04-11T15:43:20Z</time></trkpt><trkpt lat="42.71977507409322" lon="12.759065339403113"><ele>880.75</ele><time>2026-04-11T15:43:21Z</time></trkpt><trkpt lat="42.71980458999404" lon="12.758907214348639"><ele>879.0</ele><time>2026-04-11T15:43:22Z</time></trkpt><trkpt lat="42.71982243942758" lon="12.758751241644818"><ele>879.0</ele><time>2026-04-11T15:43:23Z</time></trkpt><trkpt lat="42.71984380088936" lon="12.758608934226414"><ele>879.0000000000001</ele><time>2026-04-11T15:43:24Z</time></trkpt><trkpt lat="42.71988191940981" lon="12.75848806468379"><ele>879.0000000000001</ele><time>2026-04-11T15:43:25Z</time></trkpt><trkpt lat="42.71990273544498" lon="12.758373715072338"><ele>879.0</ele><time>2026-04-11T15:43:26Z</time></trkpt><trkpt lat="42.719927685951376" lon="12.758282482239299"><ele>879.0</ele><time>2026-04-11T15:43:27Z</time></trkpt><trkpt lat="42.71993344804845" lon="12.758121893707772"><ele>877.6</ele><time>2026-04-11T15:43:29Z</time></trkpt><trkpt lat="42.71982469621207" lon="12.758026372592408"><ele>876.2</ele><time>2026-04-11T15:43:31Z</time></trkpt><trkpt lat="42.719728326905894" lon="12.75800312221545"><ele>874.8000000000001</ele><time>2026-04-11T15:43:32Z</time></trkpt><trkpt lat="42.7196179836055" lon="12.757992770562094"><ele>873.4000000000001</ele><time>2026-04-11T15:43:33Z</time></trkpt><trkpt lat="42.71951437063998" lon="12.757993681834822"><ele>872.0</ele><time>2026-04-11T15:43:34Z</time></trkpt><trkpt lat="42.71943805222647" lon="12.758011113125718"><ele>871.0</ele><time>2026-04-11T15:43:35Z</time></trkpt><trkpt lat="42.719371235891856" lon="12.75798414441787"><ele>870.0</ele><time>2026-04-11T15:43:36Z</time></trkpt><trkpt lat="42.71930152022573" lon="12.757904530458681"><ele>869.0</ele><time>2026-04-11T15:43:37Z</time></trkpt><trkpt lat="42.7192363145761" lon="12.757778499186866"><ele>868.0</ele><time>2026-04-11T15:43:38Z</time></trkpt><trkpt lat="42.71919002362767" lon="12.757667148926274"><ele>867.0</ele><time>2026-04-11T15:43:39Z</time></trkpt><trkpt lat="42.71916119484371" lon="12.757558731499"><ele>867.0</ele><time>2026-04-11T15:43:40Z</time></trkpt><trkpt lat="42.71913071426089" lon="12.757476199243813"><ele>867.0</ele><time>2026-04-11T15:43:41Z</time></trkpt><trkpt lat="42.719130032932696" lon="12.757329554443599"><ele>867.0</ele><time>2026-04-11T15:43:43Z</time></trkpt><trkpt lat="42.719217122889" lon="12.757275481690552"><ele>867.0</ele><time>2026-04-11T15:43:45Z</time></trkpt><trkpt lat="42.71930927590893" lon="12.757326711059815"><ele>867.0</ele><time>2026-04-11T15:43:47Z</time></trkpt><trkpt lat="42.71937762029545" lon="12.757387335715729"><ele>865.5</ele><time>2026-04-11T15:43:48Z</time></trkpt><trkpt lat="42.719455972932046" lon="12.757444859979456"><ele>864.0</ele><time>2026-04-11T15:43:49Z</time></trkpt><trkpt lat="42.71952860641673" lon="12.757476578647234"><ele>862.5</ele><time>2026-04-11T15:43:50Z</time></trkpt><trkpt lat="42.71960246564283" lon="12.757491861094683"><ele>861.0</ele><time>2026-04-11T15:43:51Z</time></trkpt><trkpt lat="42.71966901001548" lon="12.757469669179088"><ele>859.5</ele><time>2026-04-11T15:43:52Z</time></trkpt><trkpt lat="42.71975669500753" lon="12.757401433427168"><ele>858.0</ele><time>2026-04-11T15:43:53Z</time></trkpt><trkpt lat="42.71989425067535" lon="12.757339625433296"><ele>858.0</ele><time>2026-04-11T15:43:54Z</time></trkpt><trkpt lat="42.72000568418007" lon="12.757259889135199"><ele>858.0</ele><time>2026-04-11T15:43:55Z</time></trkpt><trkpt lat="42.72010641175068" lon="12.757162451614676"><ele>858.0</ele><time>2026-04-11T15:43:56Z</time></trkpt><trkpt lat="42.72020428843116" lon="12.757084781998454"><ele>858.0</ele><time>2026-04-11T15:43:57Z</time></trkpt><trkpt lat="42.720292613512" lon="12.757001465571692"><ele>855.5999999999999</ele><time>2026-04-11T15:43:58Z</time></trkpt><trkpt lat="42.720384154863645" lon="12.75692546929169"><ele>853.1999999999999</ele><time>2026-04-11T15:43:59Z</time></trkpt><trkpt lat="42.72046994296244" lon="12.756846491729515"><ele>850.8</ele><time>2026-04-11T15:44:00Z</time></trkpt><trkpt lat="42.72055832263546" lon="12.75676360641815"><ele>848.4</ele><time>2026-04-11T15:44:01Z</time></trkpt><trkpt lat="42.72062590952777" lon="12.756699883673505"><ele>846.0</ele><time>2026-04-11T15:44:02Z</time></trkpt><trkpt lat="42.72069661856355" lon="12.756639680167378"><ele>844.8</ele><time>2026-04-11T15:44:03Z</time></trkpt><trkpt lat="42.720778387893034" lon="12.756595735662666"><ele>843.5999999999999</ele><time>2026-04-11T15:44:04Z</time></trkpt><trkpt lat="42.72085241033028" lon="12.75650984373545"><ele>842.4</ele><time>2026-04-11T15:44:05Z</time></trkpt><trkpt lat="42.72090271025083" lon="12.756357498347887"><ele>841.2</ele><time>2026-04-11T15:44:06Z</time></trkpt><trkpt lat="42.72092452750252" lon="12.756203596600223"><ele>840.0</ele><time>2026-04-11T15:44:07Z</time></trkpt><trkpt lat="42.72094266718719" lon="12.756091329684713"><ele>839.2</ele><time>2026-04-11T15:44:08Z</time></trkpt><trkpt lat="42.720926828773536" lon="12.75596067348977"><ele>838.4</ele><time>2026-04-11T15:44:09Z</time></trkpt><trkpt lat="42.720950989525385" lon="12.755817091481092"><ele>837.5999999999999</ele><time>2026-04-11T15:44:10Z</time></trkpt><trkpt lat="42.72096372287628" lon="12.755674091096807"><ele>836.8</ele><time>2026-04-11T15:44:11Z</time></trkpt><trkpt lat="42.720954726982754" lon="12.755498631195413"><ele>836.0</ele><time>2026-04-11T15:44:12Z</time></trkpt><trkpt lat="42.72095135623251" lon="12.755357509992916"><ele>836.0</ele><time>2026-04-11T15:44:13Z</time></trkpt><trkpt lat="42.72096158306561" lon="12.755224983073058"><ele>836.0</ele><time>2026-04-11T15:44:14Z</time></trkpt><trkpt lat="42.72098907897976" lon="12.755090243586345"><ele>836.0</ele><time>2026-04-11T15:44:15Z</time></trkpt><trkpt lat="42.72107857340498" lon="12.75501646422468"><ele>836.0</ele><time>2026-04-11T15:44:16Z</time></trkpt><trkpt lat="42.72116153972751" lon="12.75494088550972"><ele>836.0</ele><time>2026-04-11T15:44:17Z</time></trkpt><trkpt lat="42.721280148158804" lon="12.754871198286247"><ele>834.25</ele><time>2026-04-11T15:44:18Z</time></trkpt><trkpt lat="42.72141507360206" lon="12.754754852883243"><ele>832.5</ele><time>2026-04-11T15:44:19Z</time></trkpt><trkpt lat="42.721527974583935" lon="12.754635853518401"><ele>830.75</ele><time>2026-04-11T15:44:20Z</time></trkpt><trkpt lat="42.72163459901124" lon="12.754517654349856"><ele>829.0</ele><time>2026-04-11T15:44:21Z</time></trkpt><trkpt lat="42.72172322077665" lon="12.754422714737446"><ele>827.0</ele><time>2026-04-11T15:44:22Z</time></trkpt><trkpt lat="42.72179559600988" lon="12.754312248331729"><ele>825.0</ele><time>2026-04-11T15:44:23Z</time></trkpt><trkpt lat="42.72183916961014" lon="12.754197515903218"><ele>823.0</ele><time>2026-04-11T15:44:24Z</time></trkpt><trkpt lat="42.72188851752245" lon="12.754113805920525"><ele>821.0</ele><time>2026-04-11T15:44:25Z</time></trkpt><trkpt lat="42.721901936833866" lon="12.753990101831421"><ele>819.0</ele><time>2026-04-11T15:44:26Z</time></trkpt><trkpt lat="42.721889705428765" lon="12.753819493160494"><ele>819.0</ele><time>2026-04-11T15:44:27Z</time></trkpt><trkpt lat="42.72187879036852" lon="12.753619316840144"><ele>819.0</ele><time>2026-04-11T15:44:28Z</time></trkpt><trkpt lat="42.72184942484134" lon="12.753433652177069"><ele>819.0</ele><time>2026-04-11T15:44:29Z</time></trkpt><trkpt lat="42.721835626487504" lon="12.753253520104423"><ele>819.0</ele><time>2026-04-11T15:44:30Z</time></trkpt><trkpt lat="42.72181573395928" lon="12.753096761472056"><ele>817.6</ele><time>2026-04-11T15:44:31Z</time></trkpt><trkpt lat="42.72181240279326" lon="12.752955319693413"><ele>816.2</ele><time>2026-04-11T15:44:32.001Z</time></trkpt><trkpt lat="42.72180526636169" lon="12.752817553863737"><ele>814.8000000000001</ele><time>2026-04-11T15:44:33.001Z</time></trkpt><trkpt lat="42.7217789509505" lon="12.752667345970261"><ele>813.4000000000001</ele><time>2026-04-11T15:44:34.001Z</time></trkpt><trkpt lat="42.72174225588" lon="12.752501971849279"><ele>812.0</ele><time>2026-04-11T15:44:35.001Z</time></trkpt><trkpt lat="42.72170734362578" lon="12.752360946331965"><ele>811.0000000000001</ele><time>2026-04-11T15:44:36.001Z</time></trkpt><trkpt lat="42.721679849234775" lon="12.752228203820241"><ele>810.0</ele><time>2026-04-11T15:44:37.001Z</time></trkpt><trkpt lat="42.72168845385542" lon="12.752105244064552"><ele>809.0</ele><time>2026-04-11T15:44:38.001Z</time></trkpt><trkpt lat="42.72169532241942" lon="12.752002393045633"><ele>808.0</ele><time>2026-04-11T15:44:39.001Z</time></trkpt><trkpt lat="42.72170984562766" lon="12.751889341061393"><ele>807.0000000000001</ele><time>2026-04-11T15:44:40.001Z</time></trkpt><trkpt lat="42.72177311029331" lon="12.751834107839207"><ele>806.0</ele><time>2026-04-11T15:44:41.001Z</time></trkpt><trkpt lat="42.72182784134296" lon="12.751791210621187"><ele>806.5000000000001</ele><time>2026-04-11T15:44:42.001Z</time></trkpt><trkpt lat="42.72189957907545" lon="12.75176629609447"><ele>807.0</ele><time>2026-04-11T15:44:43.001Z</time></trkpt><trkpt lat="42.72197313771795" lon="12.751789659453255"><ele>807.5</ele><time>2026-04-11T15:44:44.001Z</time></trkpt><trkpt lat="42.722035832880074" lon="12.751818838094325"><ele>808.0</ele><time>2026-04-11T15:44:45.001Z</time></trkpt><trkpt lat="42.72210837447539" lon="12.751908618683661"><ele>808.5000000000001</ele><time>2026-04-11T15:44:46.001Z</time></trkpt><trkpt lat="42.72219305526728" lon="12.751988483789436"><ele>809.0</ele><time>2026-04-11T15:44:47.001Z</time></trkpt><trkpt lat="42.72230722993878" lon="12.752051838528267"><ele>809.0</ele><time>2026-04-11T15:44:48.001Z</time></trkpt><trkpt lat="42.72243705842803" lon="12.752061172800536"><ele>809.0</ele><time>2026-04-11T15:44:49.001Z</time></trkpt><trkpt lat="42.72257451120746" lon="12.75205585987098"><ele>809.0</ele><time>2026-04-11T15:44:50.001Z</time></trkpt><trkpt lat="42.72268825175544" lon="12.752041752357064"><ele>809.0</ele><time>2026-04-11T15:44:51.001Z</time></trkpt><trkpt lat="42.72277655281452" lon="12.752035351195362"><ele>805.4000000000001</ele><time>2026-04-11T15:44:52.001Z</time></trkpt><trkpt lat="42.72286481268723" lon="12.752012582935993"><ele>801.8</ele><time>2026-04-11T15:44:54.001Z</time></trkpt><trkpt lat="42.72292133122367" lon="12.752057207181249"><ele>798.2</ele><time>2026-04-11T15:44:55.001Z</time></trkpt><trkpt lat="42.72298228544909" lon="12.752138400234168"><ele>794.5999999999999</ele><time>2026-04-11T15:44:56.001Z</time></trkpt><trkpt lat="42.723058217798105" lon="12.752235741209793"><ele>791.0</ele><time>2026-04-11T15:44:57.001Z</time></trkpt><trkpt lat="42.72314598633168" lon="12.752338791254601"><ele>791.0</ele><time>2026-04-11T15:44:58.001Z</time></trkpt><trkpt lat="42.723231201471584" lon="12.752467855040344"><ele>791.0</ele><time>2026-04-11T15:44:59.001Z</time></trkpt><trkpt lat="42.72328353207469" lon="12.752596328425806"><ele>791.0</ele><time>2026-04-11T15:45:00Z</time></trkpt><trkpt lat="42.723312383370846" lon="12.752711608484061"><ele>791.0</ele><time>2026-04-11T15:45:01Z</time></trkpt><trkpt lat="42.72332440370462" lon="12.7527972647876"><ele>791.0</ele><time>2026-04-11T15:45:02.001Z</time></trkpt><trkpt lat="42.723260442597365" lon="12.752989276589437"><ele>791.4</ele><time>2026-04-11T15:45:04Z</time></trkpt><trkpt lat="42.72323821917589" lon="12.753095413514945"><ele>791.8</ele><time>2026-04-11T15:45:05Z</time></trkpt><trkpt lat="42.72327449295431" lon="12.753211567979907"><ele>792.1999999999999</ele><time>2026-04-11T15:45:06Z</time></trkpt><trkpt lat="42.72333912603643" lon="12.753370492380373"><ele>792.5999999999999</ele><time>2026-04-11T15:45:07Z</time></trkpt><trkpt lat="42.723377901998084" lon="12.753508737529673"><ele>793.0</ele><time>2026-04-11T15:45:08Z</time></trkpt><trkpt lat="42.72342721836546" lon="12.753623040184696"><ele>792.9999999999999</ele><time>2026-04-11T15:45:09Z</time></trkpt><trkpt lat="42.72344844354849" lon="12.753722172335506"><ele>793.0</ele><time>2026-04-11T15:45:10Z</time></trkpt><trkpt lat="42.723494566047684" lon="12.75379478164146"><ele>793.0</ele><time>2026-04-11T15:45:11Z</time></trkpt><trkpt lat="42.72356539102953" lon="12.753853084779752"><ele>793.0</ele><time>2026-04-11T15:45:13Z</time></trkpt><trkpt lat="42.723661191194616" lon="12.753781885018208"><ele>792.9999999999999</ele><time>2026-04-11T15:45:14Z</time></trkpt><trkpt lat="42.723704916743586" lon="12.75371334738306"><ele>793.0</ele><time>2026-04-11T15:45:15Z</time></trkpt><trkpt lat="42.723763451229445" lon="12.753592464314151"><ele>790.0</ele><time>2026-04-11T15:45:17Z</time></trkpt><trkpt lat="42.72380616194199" lon="12.753524134019013"><ele>787.0</ele><time>2026-04-11T15:45:18Z</time></trkpt><trkpt lat="42.723828935920146" lon="12.753402841897492"><ele>784.0</ele><time>2026-04-11T15:45:19Z</time></trkpt><trkpt lat="42.72387629957806" lon="12.753299820167731"><ele>781.0</ele><time>2026-04-11T15:45:20Z</time></trkpt><trkpt lat="42.72391152133643" lon="12.753178113823171"><ele>778.0</ele><time>2026-04-11T15:45:21Z</time></trkpt><trkpt lat="42.72385921808235" lon="12.753015389186713"><ele>778.0</ele><time>2026-04-11T15:45:22Z</time></trkpt><trkpt lat="42.723869951501804" lon="12.752893527658143"><ele>778.0</ele><time>2026-04-11T15:45:23Z</time></trkpt><trkpt lat="42.723889465747874" lon="12.752774866559573"><ele>778.0</ele><time>2026-04-11T15:45:24Z</time></trkpt><trkpt lat="42.723902928661424" lon="12.752653230809033"><ele>778.0</ele><time>2026-04-11T15:45:25Z</time></trkpt><trkpt lat="42.723929737243296" lon="12.752507427432525"><ele>778.0</ele><time>2026-04-11T15:45:26Z</time></trkpt><trkpt lat="42.723959000544994" lon="12.75235940659905"><ele>777.8</ele><time>2026-04-11T15:45:27Z</time></trkpt><trkpt lat="42.723994611864725" lon="12.752208954607061"><ele>777.5999999999999</ele><time>2026-04-11T15:45:28Z</time></trkpt><trkpt lat="42.724041263766395" lon="12.752082700479022"><ele>777.4000000000001</ele><time>2026-04-11T15:45:29Z</time></trkpt><trkpt lat="42.72408832126081" lon="12.751951085095065"><ele>777.2</ele><time>2026-04-11T15:45:30Z</time></trkpt><trkpt lat="42.72412140194259" lon="12.751825900023661"><ele>777.0</ele><time>2026-04-11T15:45:31Z</time></trkpt><trkpt lat="42.7241542154985" lon="12.751728006231838"><ele>776.2</ele><time>2026-04-11T15:45:32Z</time></trkpt><trkpt lat="42.72419132846321" lon="12.751648346037493"><ele>775.4000000000001</ele><time>2026-04-11T15:45:33Z</time></trkpt><trkpt lat="42.724266148085" lon="12.751522368251548"><ele>774.5999999999999</ele><time>2026-04-11T15:45:35Z</time></trkpt><trkpt lat="42.724390789086165" lon="12.751534810299768"><ele>773.8</ele><time>2026-04-11T15:45:37Z</time></trkpt><trkpt lat="42.7244509606224" lon="12.751596676420187"><ele>773.0</ele><time>2026-04-11T15:45:38Z</time></trkpt><trkpt lat="42.724526063402585" lon="12.751675230088885"><ele>775.0</ele><time>2026-04-11T15:45:39Z</time></trkpt><trkpt lat="42.724588950707265" lon="12.751786141796"><ele>777.0</ele><time>2026-04-11T15:45:40Z</time></trkpt><trkpt lat="42.72464211802468" lon="12.751940805928418"><ele>779.0</ele><time>2026-04-11T15:45:41Z</time></trkpt><trkpt lat="42.724694878174006" lon="12.752124991208918"><ele>781.0</ele><time>2026-04-11T15:45:42Z</time></trkpt><trkpt lat="42.72474142510345" lon="12.752321355253917"><ele>781.0</ele><time>2026-04-11T15:45:43Z</time></trkpt><trkpt lat="42.72478494648916" lon="12.752525156296832"><ele>781.0</ele><time>2026-04-11T15:45:44Z</time></trkpt><trkpt lat="42.72481881682213" lon="12.752706819946187"><ele>781.0</ele><time>2026-04-11T15:45:45Z</time></trkpt><trkpt lat="42.724854671402795" lon="12.752884229340024"><ele>781.0</ele><time>2026-04-11T15:45:46Z</time></trkpt><trkpt lat="42.72489658518998" lon="12.753058573928833"><ele>780.75</ele><time>2026-04-11T15:45:47Z</time></trkpt><trkpt lat="42.72496180407881" lon="12.753237665254689"><ele>780.5</ele><time>2026-04-11T15:45:48Z</time></trkpt><trkpt lat="42.7250592270584" lon="12.753364821540078"><ele>780.25</ele><time>2026-04-11T15:45:49Z</time></trkpt><trkpt lat="42.72515854581681" lon="12.753508747676266"><ele>780.0</ele><time>2026-04-11T15:45:50Z</time></trkpt><trkpt lat="42.72532031824688" lon="12.753508444280312"><ele>780.8</ele><time>2026-04-11T15:45:51Z</time></trkpt><trkpt lat="42.72537997243337" lon="12.753595335638334"><ele>781.6</ele><time>2026-04-11T15:45:52Z</time></trkpt><trkpt lat="42.72546027656255" lon="12.753719238997837"><ele>782.4000000000001</ele><time>2026-04-11T15:45:53Z</time></trkpt><trkpt lat="42.72553944011973" lon="12.753830953729157"><ele>783.2</ele><time>2026-04-11T15:45:54Z</time></trkpt><trkpt lat="42.725600343737334" lon="12.75393086561653"><ele>784.0</ele><time>2026-04-11T15:45:55Z</time></trkpt><trkpt lat="42.725701755829995" lon="12.754017012694886"><ele>784.0</ele><time>2026-04-11T15:45:56Z</time></trkpt><trkpt lat="42.725781806227516" lon="12.75414079388887"><ele>784.0</ele><time>2026-04-11T15:45:57Z</time></trkpt><trkpt lat="42.72585601485468" lon="12.754272324121533"><ele>784.0</ele><time>2026-04-11T15:45:58Z</time></trkpt><trkpt lat="42.72591646615857" lon="12.754383523199829"><ele>784.0</ele><time>2026-04-11T15:45:59Z</time></trkpt><trkpt lat="42.72597509661732" lon="12.754516086285133"><ele>784.4000000000001</ele><time>2026-04-11T15:46:00Z</time></trkpt><trkpt lat="42.72603758290612" lon="12.754691070368603"><ele>784.8</ele><time>2026-04-11T15:46:01Z</time></trkpt><trkpt lat="42.7260414001763" lon="12.754808424228191"><ele>785.2</ele><time>2026-04-11T15:46:02Z</time></trkpt><trkpt lat="42.72606931096649" lon="12.75493199419813"><ele>785.5999999999999</ele><time>2026-04-11T15:46:03Z</time></trkpt><trkpt lat="42.726104569712746" lon="12.755056019273571"><ele>786.0</ele><time>2026-04-11T15:46:04Z</time></trkpt><trkpt lat="42.72641984011187" lon="12.755018739413563"><ele>782.5</ele><time>2026-04-11T15:46:05Z</time></trkpt><trkpt lat="42.726549929318494" lon="12.755064426156467"><ele>779.0</ele><time>2026-04-11T15:46:06Z</time></trkpt><trkpt lat="42.726682342114266" lon="12.75509244531478"><ele>775.5</ele><time>2026-04-11T15:46:07Z</time></trkpt><trkpt lat="42.72681959680605" lon="12.755078130719143"><ele>772.0</ele><time>2026-04-11T15:46:08Z</time></trkpt><trkpt lat="42.726926105065544" lon="12.75514001688183"><ele>768.0</ele><time>2026-04-11T15:46:09Z</time></trkpt><trkpt lat="42.72701313204853" lon="12.75515710266631"><ele>764.0</ele><time>2026-04-11T15:46:10Z</time></trkpt><trkpt lat="42.72709074999092" lon="12.755174617698719"><ele>760.0</ele><time>2026-04-11T15:46:11Z</time></trkpt><trkpt lat="42.72722764827231" lon="12.755100078209336"><ele>756.0</ele><time>2026-04-11T15:46:12Z</time></trkpt><trkpt lat="42.72734642083452" lon="12.754981197279378"><ele>756.0</ele><time>2026-04-11T15:46:13Z</time></trkpt><trkpt lat="42.72747021026195" lon="12.754848467044498"><ele>756.0</ele><time>2026-04-11T15:46:14Z</time></trkpt><trkpt lat="42.72760746544698" lon="12.754665749187247"><ele>756.0</ele><time>2026-04-11T15:46:15Z</time></trkpt><trkpt lat="42.72773171548113" lon="12.754454384902754"><ele>753.3333333333334</ele><time>2026-04-11T15:46:16Z</time></trkpt><trkpt lat="42.72784753466746" lon="12.75427145891959"><ele>750.6666666666667</ele><time>2026-04-11T15:46:17Z</time></trkpt><trkpt lat="42.727996322810924" lon="12.754121849212707"><ele>748.0</ele><time>2026-04-11T15:46:18Z</time></trkpt><trkpt lat="42.72790258039268" lon="12.754218742830611"><ele>748.0</ele><time>2026-04-11T15:46:19Z</time></trkpt><trkpt lat="42.72803000898236" lon="12.75417569464711"><ele>748.0</ele><time>2026-04-11T15:46:20Z</time></trkpt><trkpt lat="42.72815741118498" lon="12.754123945616413"><ele>748.0</ele><time>2026-04-11T15:46:21Z</time></trkpt><trkpt lat="42.72826915175039" lon="12.754060207410133"><ele>748.0</ele><time>2026-04-11T15:46:22Z</time></trkpt><trkpt lat="42.7283505121928" lon="12.753952272550693"><ele>748.0</ele><time>2026-04-11T15:46:23Z</time></trkpt><trkpt lat="42.72842364216271" lon="12.75382744246133"><ele>748.0</ele><time>2026-04-11T15:46:24Z</time></trkpt><trkpt lat="42.72846790682231" lon="12.753641918162135"><ele>748.0</ele><time>2026-04-11T15:46:25Z</time></trkpt><trkpt lat="42.728529802158135" lon="12.753443178210395"><ele>748.0</ele><time>2026-04-11T15:46:26Z</time></trkpt><trkpt lat="42.72865036916221" lon="12.753283545786012"><ele>745.5</ele><time>2026-04-11T15:46:27Z</time></trkpt><trkpt lat="42.72874218264959" lon="12.75312452324638"><ele>743.0</ele><time>2026-04-11T15:46:28Z</time></trkpt><trkpt lat="42.72881103620083" lon="12.752947055085869"><ele>740.5</ele><time>2026-04-11T15:46:29Z</time></trkpt><trkpt lat="42.72884577188892" lon="12.752745486729246"><ele>738.0</ele><time>2026-04-11T15:46:30Z</time></trkpt><trkpt lat="42.72886541519333" lon="12.7525517392795"><ele>738.0</ele><time>2026-04-11T15:46:31Z</time></trkpt><trkpt lat="42.728926381308874" lon="12.752386039488872"><ele>738.0</ele><time>2026-04-11T15:46:32Z</time></trkpt><trkpt lat="42.729015696404126" lon="12.752230488164862"><ele>738.0</ele><time>2026-04-11T15:46:33Z</time></trkpt><trkpt lat="42.72910556896023" lon="12.752091500948977"><ele>738.0</ele><time>2026-04-11T15:46:34Z</time></trkpt><trkpt lat="42.72919871566279" lon="12.751963198947077"><ele>739.0</ele><time>2026-04-11T15:46:35Z</time></trkpt><trkpt lat="42.72928090113988" lon="12.751833982956038"><ele>740.0</ele><time>2026-04-11T15:46:36Z</time></trkpt><trkpt lat="42.72933091763186" lon="12.751689208842489"><ele>741.0</ele><time>2026-04-11T15:46:37Z</time></trkpt><trkpt lat="42.729377386686366" lon="12.751521744273736"><ele>742.0</ele><time>2026-04-11T15:46:38.001Z</time></trkpt><trkpt lat="42.729384890973606" lon="12.751320265845445"><ele>742.0</ele><time>2026-04-11T15:46:39.001Z</time></trkpt><trkpt lat="42.72938699034506" lon="12.751123091036522"><ele>742.0</ele><time>2026-04-11T15:46:40.001Z</time></trkpt><trkpt lat="42.729390388567246" lon="12.75094583180981"><ele>742.0</ele><time>2026-04-11T15:46:41.001Z</time></trkpt><trkpt lat="42.729411501185034" lon="12.750788996218494"><ele>742.0</ele><time>2026-04-11T15:46:42.001Z</time></trkpt><trkpt lat="42.72938775553768" lon="12.750654017082416"><ele>740.75</ele><time>2026-04-11T15:46:43.001Z</time></trkpt><trkpt lat="42.72935852172741" lon="12.75052305194268"><ele>739.5</ele><time>2026-04-11T15:46:44.001Z</time></trkpt><trkpt lat="42.72928285159997" lon="12.750395323220479"><ele>738.25</ele><time>2026-04-11T15:46:45.001Z</time></trkpt><trkpt lat="42.729177835973125" lon="12.750273696495361"><ele>737.0</ele><time>2026-04-11T15:46:46.001Z</time></trkpt><trkpt lat="42.72905900092373" lon="12.750168048376443"><ele>733.0</ele><time>2026-04-11T15:46:47.001Z</time></trkpt><trkpt lat="42.72892766213527" lon="12.75010775192743"><ele>729.0</ele><time>2026-04-11T15:46:48.001Z</time></trkpt><trkpt lat="42.72878403279253" lon="12.750045213022984"><ele>725.0</ele><time>2026-04-11T15:46:49.001Z</time></trkpt><trkpt lat="42.728664522899265" lon="12.749954673715257"><ele>721.0</ele><time>2026-04-11T15:46:50.001Z</time></trkpt><trkpt lat="42.7285737576771" lon="12.749825267739167"><ele>724.25</ele><time>2026-04-11T15:46:51.001Z</time></trkpt><trkpt lat="42.72845603013339" lon="12.749694349177515"><ele>727.5</ele><time>2026-04-11T15:46:52.001Z</time></trkpt><trkpt lat="42.72836449185338" lon="12.749584871955546"><ele>730.75</ele><time>2026-04-11T15:46:53.001Z</time></trkpt><trkpt lat="42.72828156679792" lon="12.749478192785594"><ele>734.0</ele><time>2026-04-11T15:46:54.001Z</time></trkpt><trkpt lat="42.72821216478387" lon="12.749388911040006"><ele>732.1666666666666</ele><time>2026-04-11T15:46:55.001Z</time></trkpt><trkpt lat="42.72816848982025" lon="12.749305648517149"><ele>730.3333333333333</ele><time>2026-04-11T15:46:56Z</time></trkpt><trkpt lat="42.72813836972532" lon="12.74921112368224"><ele>728.5</ele><time>2026-04-11T15:46:57Z</time></trkpt><trkpt lat="42.728145972164754" lon="12.749117579114772"><ele>726.6666666666666</ele><time>2026-04-11T15:46:58Z</time></trkpt><trkpt lat="42.728159946893605" lon="12.749028111317703"><ele>724.8333333333334</ele><time>2026-04-11T15:46:59Z</time></trkpt><trkpt lat="42.72822425551258" lon="12.748872828451251"><ele>723.0</ele><time>2026-04-11T15:47:01Z</time></trkpt><trkpt lat="42.72831864403357" lon="12.748788193856708"><ele>723.0</ele><time>2026-04-11T15:47:03Z</time></trkpt><trkpt lat="42.72837862068943" lon="12.748695900108181"><ele>723.0</ele><time>2026-04-11T15:47:05Z</time></trkpt><trkpt lat="42.72829480015539" lon="12.748257590437102"><ele>723.0</ele><time>2026-04-11T15:47:11Z</time></trkpt><trkpt lat="42.728319910101284" lon="12.74817685877902"><ele>723.0</ele><time>2026-04-11T15:47:15Z</time></trkpt><trkpt lat="42.72828855677347" lon="12.748270441724095"><ele>723.0</ele><time>2026-04-11T15:47:20Z</time></trkpt><trkpt lat="42.72827699463145" lon="12.748447384890916"><ele>723.0</ele><time>2026-04-11T15:47:22Z</time></trkpt><trkpt lat="42.72827118696375" lon="12.748538812922229"><ele>723.0</ele><time>2026-04-11T15:47:23Z</time></trkpt><trkpt lat="42.72826300633195" lon="12.748625786479906"><ele>723.0</ele><time>2026-04-11T15:47:24Z</time></trkpt><trkpt lat="42.728249842427196" lon="12.74876136356932"><ele>723.0</ele><time>2026-04-11T15:47:26Z</time></trkpt><trkpt lat="42.72828654654943" lon="12.748838326289844"><ele>723.0</ele><time>2026-04-11T15:47:31Z</time></trkpt><trkpt lat="42.72837870010754" lon="12.748784384453156"><ele>723.0</ele><time>2026-04-11T15:47:33Z</time></trkpt><trkpt lat="42.728446697293776" lon="12.748740685786256"><ele>723.0</ele><time>2026-04-11T15:47:34Z</time></trkpt><trkpt lat="42.72856559456761" lon="12.748671787627524"><ele>723.0</ele><time>2026-04-11T15:47:35Z</time></trkpt><trkpt lat="42.72865171660935" lon="12.74861384891362"><ele>723.0</ele><time>2026-04-11T15:47:36Z</time></trkpt><trkpt lat="42.728754948323214" lon="12.748643860769894"><ele>720.5999999999999</ele><time>2026-04-11T15:47:37Z</time></trkpt><trkpt lat="42.72880908691932" lon="12.748577478306842"><ele>718.1999999999999</ele><time>2026-04-11T15:47:38Z</time></trkpt><trkpt lat="42.728792687787916" lon="12.748449509947696"><ele>715.8</ele><time>2026-04-11T15:47:39Z</time></trkpt><trkpt lat="42.72875894000079" lon="12.748338073972572"><ele>713.4</ele><time>2026-04-11T15:47:40Z</time></trkpt><trkpt lat="42.72867198780838" lon="12.748259438127562"><ele>711.0</ele><time>2026-04-11T15:47:41Z</time></trkpt><trkpt lat="42.72856020271351" lon="12.748171199414596"><ele>711.0</ele><time>2026-04-11T15:47:42Z</time></trkpt><trkpt lat="42.72847464345021" lon="12.748078397459157"><ele>711.0</ele><time>2026-04-11T15:47:43Z</time></trkpt><trkpt lat="42.72839119953405" lon="12.747986285627327"><ele>711.0</ele><time>2026-04-11T15:47:44Z</time></trkpt><trkpt lat="42.72833777616343" lon="12.747911018901135"><ele>711.0</ele><time>2026-04-11T15:47:45Z</time></trkpt><trkpt lat="42.728273441853105" lon="12.74787048442831"><ele>711.0</ele><time>2026-04-11T15:47:46Z</time></trkpt><trkpt lat="42.72820131317756" lon="12.747895487400852"><ele>711.0</ele><time>2026-04-11T15:47:47Z</time></trkpt><trkpt lat="42.72813581268565" lon="12.747974025972649"><ele>711.0</ele><time>2026-04-11T15:47:48Z</time></trkpt><trkpt lat="42.728054239271884" lon="12.74806729546371"><ele>711.0</ele><time>2026-04-11T15:47:49Z</time></trkpt><trkpt lat="42.727957267408954" lon="12.748134024589374"><ele>711.0</ele><time>2026-04-11T15:47:50Z</time></trkpt><trkpt lat="42.727844819939605" lon="12.7481490520032"><ele>711.0</ele><time>2026-04-11T15:47:51Z</time></trkpt><trkpt lat="42.72774789876581" lon="12.748155443765992"><ele>711.0</ele><time>2026-04-11T15:47:52Z</time></trkpt><trkpt lat="42.72766642233699" lon="12.748163142440493"><ele>709.1666666666666</ele><time>2026-04-11T15:47:53Z</time></trkpt><trkpt lat="42.72759722024803" lon="12.748170863231097"><ele>707.3333333333334</ele><time>2026-04-11T15:47:54Z</time></trkpt><trkpt lat="42.72755106623229" lon="12.74824701212845"><ele>705.5</ele><time>2026-04-11T15:47:55Z</time></trkpt><trkpt lat="42.72752469833415" lon="12.748378152525563"><ele>703.6666666666667</ele><time>2026-04-11T15:47:56Z</time></trkpt><trkpt lat="42.72749046080712" lon="12.748499570206176"><ele>701.8333333333334</ele><time>2026-04-11T15:47:57Z</time></trkpt><trkpt lat="42.727421618214784" lon="12.748563666876851"><ele>700.0</ele><time>2026-04-11T15:47:58Z</time></trkpt><trkpt lat="42.72730817242481" lon="12.748580446635422"><ele>700.0</ele><time>2026-04-11T15:47:59Z</time></trkpt><trkpt lat="42.72717708495915" lon="12.748560009321478"><ele>700.0</ele><time>2026-04-11T15:48:00Z</time></trkpt><trkpt lat="42.72702275364531" lon="12.748511943771046"><ele>700.0</ele><time>2026-04-11T15:48:01Z</time></trkpt><trkpt lat="42.72688508346241" lon="12.748466404738865"><ele>700.0</ele><time>2026-04-11T15:48:02Z</time></trkpt><trkpt lat="42.72674317350673" lon="12.748402066510446"><ele>699.75</ele><time>2026-04-11T15:48:03Z</time></trkpt><trkpt lat="42.72661256442493" lon="12.748354451380559"><ele>699.5</ele><time>2026-04-11T15:48:04Z</time></trkpt><trkpt lat="42.7264863481267" lon="12.748292744026958"><ele>699.25</ele><time>2026-04-11T15:48:05Z</time></trkpt><trkpt lat="42.726379055009154" lon="12.748209864151582"><ele>699.0</ele><time>2026-04-11T15:48:06Z</time></trkpt><trkpt lat="42.72630392944696" lon="12.748090648750727"><ele>699.0</ele><time>2026-04-11T15:48:06.999Z</time></trkpt><trkpt lat="42.72622718127169" lon="12.748029705503974"><ele>699.0</ele><time>2026-04-11T15:48:07.999Z</time></trkpt><trkpt lat="42.72614750495037" lon="12.748007734800108"><ele>699.0</ele><time>2026-04-11T15:48:08.999Z</time></trkpt><trkpt lat="42.726045958702535" lon="12.748083234473803"><ele>699.0</ele><time>2026-04-11T15:48:09.999Z</time></trkpt><trkpt lat="42.72593576373692" lon="12.748153804590858"><ele>699.0</ele><time>2026-04-11T15:48:10.999Z</time></trkpt><trkpt lat="42.725800862267576" lon="12.748134054527199"><ele>698.6666666666666</ele><time>2026-04-11T15:48:11.999Z</time></trkpt><trkpt lat="42.725645091277805" lon="12.748092449224341"><ele>698.3333333333333</ele><time>2026-04-11T15:48:12.999Z</time></trkpt><trkpt lat="42.72547355928796" lon="12.748045116237897"><ele>698.0</ele><time>2026-04-11T15:48:13.999Z</time></trkpt><trkpt lat="42.725297647795806" lon="12.74802963948247"><ele>699.6666666666666</ele><time>2026-04-11T15:48:14.999Z</time></trkpt><trkpt lat="42.725135037885096" lon="12.748003124560801"><ele>701.3333333333334</ele><time>2026-04-11T15:48:15.999Z</time></trkpt><trkpt lat="42.72497200956721" lon="12.747968088070923"><ele>703.0</ele><time>2026-04-11T15:48:16.999Z</time></trkpt><trkpt lat="42.72483931592347" lon="12.74791685956915"><ele>703.0</ele><time>2026-04-11T15:48:17.999Z</time></trkpt><trkpt lat="42.72471170480455" lon="12.747901730990044"><ele>703.0</ele><time>2026-04-11T15:48:18.999Z</time></trkpt><trkpt lat="42.72459493163441" lon="12.747842722328567"><ele>703.0</ele><time>2026-04-11T15:48:19.999Z</time></trkpt><trkpt lat="42.72444677023321" lon="12.747810094264935"><ele>703.0</ele><time>2026-04-11T15:48:20.999Z</time></trkpt><trkpt lat="42.72427194611112" lon="12.747840600052198"><ele>703.0</ele><time>2026-04-11T15:48:21.999Z</time></trkpt><trkpt lat="42.72409351077966" lon="12.747868187455776"><ele>703.0</ele><time>2026-04-11T15:48:22.999Z</time></trkpt><trkpt lat="42.72393333048088" lon="12.747841189738493"><ele>703.0</ele><time>2026-04-11T15:48:23.999Z</time></trkpt><trkpt lat="42.723787182609854" lon="12.7478108492786"><ele>703.0</ele><time>2026-04-11T15:48:24.999Z</time></trkpt><trkpt lat="42.72362796928422" lon="12.7477698323941"><ele>703.0</ele><time>2026-04-11T15:48:25.999Z</time></trkpt><trkpt lat="42.72347441656189" lon="12.747767787052213"><ele>703.0</ele><time>2026-04-11T15:48:26.999Z</time></trkpt><trkpt lat="42.723318463474946" lon="12.74776827067638"><ele>702.0</ele><time>2026-04-11T15:48:27.999Z</time></trkpt><trkpt lat="42.72318700549861" lon="12.747768017913092"><ele>701.0</ele><time>2026-04-11T15:48:28.999Z</time></trkpt><trkpt lat="42.72306859559761" lon="12.747747511578618"><ele>700.0</ele><time>2026-04-11T15:48:29.999Z</time></trkpt><trkpt lat="42.72295174865256" lon="12.747772461979112"><ele>699.0</ele><time>2026-04-11T15:48:30.999Z</time></trkpt><trkpt lat="42.722825921496856" lon="12.747800628527907"><ele>694.5</ele><time>2026-04-11T15:48:31.999Z</time></trkpt><trkpt lat="42.722695904687164" lon="12.747867286954184"><ele>690.0</ele><time>2026-04-11T15:48:32.999Z</time></trkpt><trkpt lat="42.72256682107034" lon="12.747920087102317"><ele>685.5</ele><time>2026-04-11T15:48:33.999Z</time></trkpt><trkpt lat="42.722438706879416" lon="12.747931763856146"><ele>681.0</ele><time>2026-04-11T15:48:34.999Z</time></trkpt><trkpt lat="42.722295014966676" lon="12.747938548750128"><ele>681.0</ele><time>2026-04-11T15:48:35.999Z</time></trkpt><trkpt lat="42.72216249586108" lon="12.747918653603275"><ele>681.0</ele><time>2026-04-11T15:48:36.999Z</time></trkpt><trkpt lat="42.722040704995344" lon="12.74795319171329"><ele>681.0</ele><time>2026-04-11T15:48:37.999Z</time></trkpt><trkpt lat="42.72190499528282" lon="12.747973868148243"><ele>681.0</ele><time>2026-04-11T15:48:38.999Z</time></trkpt><trkpt lat="42.721794211365626" lon="12.748054785040539"><ele>678.8</ele><time>2026-04-11T15:48:39.999Z</time></trkpt><trkpt lat="42.721698566589" lon="12.748093691207211"><ele>676.5999999999999</ele><time>2026-04-11T15:48:40.999Z</time></trkpt><trkpt lat="42.72163760442796" lon="12.748135790868279"><ele>674.4</ele><time>2026-04-11T15:48:41.999Z</time></trkpt><trkpt lat="42.721510234002494" lon="12.74812141032431"><ele>672.2</ele><time>2026-04-11T15:48:44Z</time></trkpt><trkpt lat="42.72146471765474" lon="12.748001560261788"><ele>670.0</ele><time>2026-04-11T15:48:45Z</time></trkpt><trkpt lat="42.7214379813943" lon="12.747898523259375"><ele>670.0</ele><time>2026-04-11T15:48:46Z</time></trkpt><trkpt lat="42.72142751186517" lon="12.747765532924692"><ele>670.0</ele><time>2026-04-11T15:48:47Z</time></trkpt><trkpt lat="42.72148960665959" lon="12.747663321271823"><ele>670.0</ele><time>2026-04-11T15:48:48Z</time></trkpt><trkpt lat="42.721583159741975" lon="12.74753625716105"><ele>670.0</ele><time>2026-04-11T15:48:49Z</time></trkpt><trkpt lat="42.72168945000288" lon="12.74737367272445"><ele>666.3333333333334</ele><time>2026-04-11T15:48:50Z</time></trkpt><trkpt lat="42.72179896660885" lon="12.747221575938793"><ele>662.6666666666666</ele><time>2026-04-11T15:48:51Z</time></trkpt><trkpt lat="42.721953069588515" lon="12.747035675857303"><ele>659.0</ele><time>2026-04-11T15:48:52Z</time></trkpt><trkpt lat="42.72209879534375" lon="12.746829538291376"><ele>651.6666666666666</ele><time>2026-04-11T15:48:53Z</time></trkpt><trkpt lat="42.72222562823727" lon="12.746626532040558"><ele>644.3333333333334</ele><time>2026-04-11T15:48:54Z</time></trkpt><trkpt lat="42.72234318515261" lon="12.746437450204875"><ele>637.0</ele><time>2026-04-11T15:48:55Z</time></trkpt><trkpt lat="42.722466641210126" lon="12.746269480810488"><ele>637.0</ele><time>2026-04-11T15:48:56Z</time></trkpt><trkpt lat="42.72257085944022" lon="12.746098420885385"><ele>637.0</ele><time>2026-04-11T15:48:57.001Z</time></trkpt><trkpt lat="42.72268047849391" lon="12.745957459531748"><ele>637.0</ele><time>2026-04-11T15:48:58.001Z</time></trkpt><trkpt lat="42.72277779606102" lon="12.745811716414753"><ele>630.75</ele><time>2026-04-11T15:48:59Z</time></trkpt><trkpt lat="42.72285934146556" lon="12.745685030835308"><ele>624.5</ele><time>2026-04-11T15:49:00Z</time></trkpt><trkpt lat="42.72293628213663" lon="12.745528355528299"><ele>618.25</ele><time>2026-04-11T15:49:01Z</time></trkpt><trkpt lat="42.722996174476854" lon="12.745349347725455"><ele>612.0</ele><time>2026-04-11T15:49:02Z</time></trkpt><trkpt lat="42.72304078499295" lon="12.745198201484092"><ele>612.0</ele><time>2026-04-11T15:49:03Z</time></trkpt><trkpt lat="42.72307513535972" lon="12.745062639805887"><ele>612.0</ele><time>2026-04-11T15:49:04Z</time></trkpt><trkpt lat="42.723096060086874" lon="12.7449341062939"><ele>612.0</ele><time>2026-04-11T15:49:05Z</time></trkpt><trkpt lat="42.723091409241135" lon="12.744822415579995"><ele>612.0</ele><time>2026-04-11T15:49:06Z</time></trkpt><trkpt lat="42.72302471756279" lon="12.744730609473686"><ele>612.0</ele><time>2026-04-11T15:49:07Z</time></trkpt><trkpt lat="42.72293264183138" lon="12.744673743697389"><ele>612.0</ele><time>2026-04-11T15:49:08Z</time></trkpt><trkpt lat="42.722814752318854" lon="12.74459018586"><ele>612.0</ele><time>2026-04-11T15:49:09Z</time></trkpt><trkpt lat="42.722676935309934" lon="12.74452207240703"><ele>612.0</ele><time>2026-04-11T15:49:10Z</time></trkpt><trkpt lat="42.72252561810241" lon="12.744461886116383"><ele>612.0</ele><time>2026-04-11T15:49:11Z</time></trkpt><trkpt lat="42.72234819956994" lon="12.744402828548516"><ele>612.3333333333334</ele><time>2026-04-11T15:49:12Z</time></trkpt><trkpt lat="42.72216163776755" lon="12.74434964570556"><ele>612.6666666666667</ele><time>2026-04-11T15:49:13Z</time></trkpt><trkpt lat="42.72199507263531" lon="12.744277883656226"><ele>613.0</ele><time>2026-04-11T15:49:14Z</time></trkpt><trkpt lat="42.72183302787354" lon="12.744178398689433"><ele>616.6666666666667</ele><time>2026-04-11T15:49:15Z</time></trkpt><trkpt lat="42.72166769220384" lon="12.744087722003243"><ele>620.3333333333334</ele><time>2026-04-11T15:49:16Z</time></trkpt><trkpt lat="42.72150431517418" lon="12.744002611246135"><ele>624.0</ele><time>2026-04-11T15:49:17Z</time></trkpt><trkpt lat="42.72133721711795" lon="12.743917326311413"><ele>624.0</ele><time>2026-04-11T15:49:18Z</time></trkpt><trkpt lat="42.72119626248701" lon="12.743850447604084"><ele>624.0</ele><time>2026-04-11T15:49:19Z</time></trkpt><trkpt lat="42.72088029580756" lon="12.744319777380674"><ele>627.5</ele><time>2026-04-11T15:49:20Z</time></trkpt><trkpt lat="42.720777175170355" lon="12.744212166399093"><ele>631.0</ele><time>2026-04-11T15:49:21Z</time></trkpt><trkpt lat="42.72065517688194" lon="12.744051791029188"><ele>634.5</ele><time>2026-04-11T15:49:22Z</time></trkpt><trkpt lat="42.72054420864202" lon="12.743926990509317"><ele>638.0</ele><time>2026-04-11T15:49:23Z</time></trkpt><trkpt lat="42.72046975942754" lon="12.743742311702757"><ele>629.6666666666666</ele><time>2026-04-11T15:49:24Z</time></trkpt><trkpt lat="42.72044374760204" lon="12.743536164874131"><ele>621.3333333333334</ele><time>2026-04-11T15:49:25Z</time></trkpt><trkpt lat="42.720480515240546" lon="12.743233818385969"><ele>613.0</ele><time>2026-04-11T15:49:26Z</time></trkpt><trkpt lat="42.720400027264624" lon="12.743169788568963"><ele>613.0</ele><time>2026-04-11T15:49:27Z</time></trkpt><trkpt lat="42.72031462740963" lon="12.743090099961442"><ele>613.0</ele><time>2026-04-11T15:49:29Z</time></trkpt><trkpt lat="42.72026489958513" lon="12.742977514360295"><ele>613.0</ele><time>2026-04-11T15:49:31Z</time></trkpt><trkpt lat="42.720339001696324" lon="12.74288861630834"><ele>613.0</ele><time>2026-04-11T15:49:33Z</time></trkpt><trkpt lat="42.72043130655596" lon="12.742824244028224"><ele>613.0</ele><time>2026-04-11T15:49:34Z</time></trkpt><trkpt lat="42.72051479331988" lon="12.742765364634426"><ele>613.0</ele><time>2026-04-11T15:49:35Z</time></trkpt><trkpt lat="42.72063804935751" lon="12.74322333634793"><ele>613.0</ele><time>2026-04-11T15:49:36Z</time></trkpt><trkpt lat="42.72051859220764" lon="12.743110495859694"><ele>613.0</ele><time>2026-04-11T15:49:37Z</time></trkpt><trkpt lat="42.720617887701664" lon="12.74320771982194"><ele>613.0</ele><time>2026-04-11T15:49:38Z</time></trkpt><trkpt lat="42.72075236243473" lon="12.743271171666608"><ele>613.0</ele><time>2026-04-11T15:49:39Z</time></trkpt><trkpt lat="42.720911594820606" lon="12.743336877423305"><ele>613.0</ele><time>2026-04-11T15:49:40Z</time></trkpt><trkpt lat="42.72108873571571" lon="12.743404149716197"><ele>616.6666666666667</ele><time>2026-04-11T15:49:41Z</time></trkpt><trkpt lat="42.72126792733177" lon="12.743471594350359"><ele>620.3333333333334</ele><time>2026-04-11T15:49:42Z</time></trkpt><trkpt lat="42.72144892958672" lon="12.743540456212003"><ele>624.0</ele><time>2026-04-11T15:49:43Z</time></trkpt><trkpt lat="42.72161245953265" lon="12.74360289363496"><ele>624.0</ele><time>2026-04-11T15:49:44Z</time></trkpt><trkpt lat="42.72176810705026" lon="12.743667682826011"><ele>624.0</ele><time>2026-04-11T15:49:45Z</time></trkpt><trkpt lat="42.72193201936757" lon="12.743735052372415"><ele>624.0</ele><time>2026-04-11T15:49:46Z</time></trkpt><trkpt lat="42.72209979907754" lon="12.743766568716186"><ele>620.3333333333334</ele><time>2026-04-11T15:49:47Z</time></trkpt><trkpt lat="42.722281016180894" lon="12.743775160301512"><ele>616.6666666666667</ele><time>2026-04-11T15:49:48Z</time></trkpt><trkpt lat="42.722454830106884" lon="12.74375709739925"><ele>613.0</ele><time>2026-04-11T15:49:49Z</time></trkpt><trkpt lat="42.72260423258019" lon="12.743746191178436"><ele>609.75</ele><time>2026-04-11T15:49:50Z</time></trkpt><trkpt lat="42.722751202459605" lon="12.743730371110834"><ele>606.5</ele><time>2026-04-11T15:49:51Z</time></trkpt><trkpt lat="42.72288404084655" lon="12.74372437408361"><ele>603.25</ele><time>2026-04-11T15:49:52Z</time></trkpt><trkpt lat="42.722998379701146" lon="12.743778430456905"><ele>600.0</ele><time>2026-04-11T15:49:53Z</time></trkpt><trkpt lat="42.723125909921265" lon="12.7438396888008"><ele>600.0</ele><time>2026-04-11T15:49:54Z</time></trkpt><trkpt lat="42.72327625777804" lon="12.743902872865636"><ele>600.0</ele><time>2026-04-11T15:49:55Z</time></trkpt><trkpt lat="42.72343439419928" lon="12.743907204731636"><ele>600.0</ele><time>2026-04-11T15:49:56Z</time></trkpt><trkpt lat="42.72361022736727" lon="12.743910622462405"><ele>595.0</ele><time>2026-04-11T15:49:57Z</time></trkpt><trkpt lat="42.72376519915702" lon="12.743895594524218"><ele>590.0</ele><time>2026-04-11T15:49:58Z</time></trkpt><trkpt lat="42.72391258212153" lon="12.74391529027999"><ele>585.0</ele><time>2026-04-11T15:49:59Z</time></trkpt><trkpt lat="42.724017539559476" lon="12.7439272817423"><ele>580.0</ele><time>2026-04-11T15:50:00Z</time></trkpt><trkpt lat="42.7241282379026" lon="12.743951330128349"><ele>580.0</ele><time>2026-04-11T15:50:01Z</time></trkpt><trkpt lat="42.72422337164785" lon="12.743988106966368"><ele>580.0</ele><time>2026-04-11T15:50:02Z</time></trkpt><trkpt lat="42.72429546655842" lon="12.744030748849678"><ele>580.0</ele><time>2026-04-11T15:50:03Z</time></trkpt><trkpt lat="42.724379527351914" lon="12.744151772804555"><ele>580.0</ele><time>2026-04-11T15:50:05Z</time></trkpt><trkpt lat="42.724355781181885" lon="12.744275548125913"><ele>580.0</ele><time>2026-04-11T15:50:06Z</time></trkpt><trkpt lat="42.72430196186746" lon="12.744397175325712"><ele>577.5</ele><time>2026-04-11T15:50:07Z</time></trkpt><trkpt lat="42.724226484943216" lon="12.744522799037902"><ele>575.0</ele><time>2026-04-11T15:50:08Z</time></trkpt><trkpt lat="42.72413867665363" lon="12.744650160194809"><ele>572.5</ele><time>2026-04-11T15:50:09Z</time></trkpt><trkpt lat="42.72403590803975" lon="12.744773970125712"><ele>570.0</ele><time>2026-04-11T15:50:10Z</time></trkpt><trkpt lat="42.723942947924876" lon="12.744879860700895"><ele>570.0</ele><time>2026-04-11T15:50:11Z</time></trkpt><trkpt lat="42.72385900735592" lon="12.744991847835195"><ele>570.0</ele><time>2026-04-11T15:50:12Z</time></trkpt><trkpt lat="42.723789796441324" lon="12.745119585323012"><ele>570.0</ele><time>2026-04-11T15:50:13Z</time></trkpt><trkpt lat="42.72375620548545" lon="12.745285517164438"><ele>570.0</ele><time>2026-04-11T15:50:14Z</time></trkpt><trkpt lat="42.72373942124286" lon="12.745436918339085"><ele>572.75</ele><time>2026-04-11T15:50:15Z</time></trkpt><trkpt lat="42.72374206665139" lon="12.745611566109092"><ele>575.5</ele><time>2026-04-11T15:50:16Z</time></trkpt><trkpt lat="42.72377084168723" lon="12.745788341665383"><ele>578.25</ele><time>2026-04-11T15:50:17Z</time></trkpt><trkpt lat="42.72380501544063" lon="12.745930833565886"><ele>581.0</ele><time>2026-04-11T15:50:18Z</time></trkpt><trkpt lat="42.72386938545065" lon="12.74604929816499"><ele>581.0</ele><time>2026-04-11T15:50:19Z</time></trkpt><trkpt lat="42.723910471126935" lon="12.746124671502438"><ele>581.0</ele><time>2026-04-11T15:50:20Z</time></trkpt><trkpt lat="42.723981662263036" lon="12.746165396765377"><ele>581.0</ele><time>2026-04-11T15:50:22Z</time></trkpt><trkpt lat="42.724040875949136" lon="12.746049443061754"><ele>581.0</ele><time>2026-04-11T15:50:24Z</time></trkpt><trkpt lat="42.72406151910942" lon="12.745935788195606"><ele>581.0</ele><time>2026-04-11T15:50:26Z</time></trkpt><trkpt lat="42.723990732812716" lon="12.74578703294882"><ele>581.0</ele><time>2026-04-11T15:50:28Z</time></trkpt><trkpt lat="42.72388846623789" lon="12.745713471274426"><ele>581.0</ele><time>2026-04-11T15:50:29Z</time></trkpt><trkpt lat="42.72388121318375" lon="12.745569876562183"><ele>581.0</ele><time>2026-04-11T15:50:30Z</time></trkpt><trkpt lat="42.72387518474348" lon="12.745428354342538"><ele>581.0</ele><time>2026-04-11T15:50:31Z</time></trkpt><trkpt lat="42.723905325109435" lon="12.745293554815223"><ele>581.0</ele><time>2026-04-11T15:50:32Z</time></trkpt><trkpt lat="42.72398843895827" lon="12.745137965584638"><ele>578.25</ele><time>2026-04-11T15:50:33Z</time></trkpt><trkpt lat="42.7241104773116" lon="12.745016714844867"><ele>575.5</ele><time>2026-04-11T15:50:34Z</time></trkpt><trkpt lat="42.72422462811705" lon="12.744902552979323"><ele>572.75</ele><time>2026-04-11T15:50:35Z</time></trkpt><trkpt lat="42.724326672247855" lon="12.744807595964433"><ele>570.0</ele><time>2026-04-11T15:50:36Z</time></trkpt><trkpt lat="42.72442569087411" lon="12.744735536226967"><ele>564.6</ele><time>2026-04-11T15:50:37Z</time></trkpt><trkpt lat="42.72452517406563" lon="12.744718202307034"><ele>559.2</ele><time>2026-04-11T15:50:38Z</time></trkpt><trkpt lat="42.72461694981897" lon="12.744663887007768"><ele>553.8</ele><time>2026-04-11T15:50:39Z</time></trkpt><trkpt lat="42.72469252125999" lon="12.744549083144824"><ele>548.4</ele><time>2026-04-11T15:50:40Z</time></trkpt><trkpt lat="42.724764325609975" lon="12.744409141603027"><ele>543.0</ele><time>2026-04-11T15:50:41Z</time></trkpt><trkpt lat="42.724809164932644" lon="12.744230272968124"><ele>543.0</ele><time>2026-04-11T15:50:42Z</time></trkpt><trkpt lat="42.72483783945234" lon="12.744045735695"><ele>543.0</ele><time>2026-04-11T15:50:43Z</time></trkpt><trkpt lat="42.72488529708704" lon="12.743892312512799"><ele>543.0</ele><time>2026-04-11T15:50:44Z</time></trkpt><trkpt lat="42.72494221540035" lon="12.743779895646302"><ele>543.0</ele><time>2026-04-11T15:50:45Z</time></trkpt><trkpt lat="42.72502505646871" lon="12.743647115211765"><ele>543.0</ele><time>2026-04-11T15:50:46Z</time></trkpt><trkpt lat="42.72505911481271" lon="12.743517173365353"><ele>543.0</ele><time>2026-04-11T15:50:47Z</time></trkpt><trkpt lat="42.725087471596666" lon="12.743380088922184"><ele>543.0</ele><time>2026-04-11T15:50:48Z</time></trkpt><trkpt lat="42.72509291784639" lon="12.74324003991609"><ele>543.0</ele><time>2026-04-11T15:50:49Z</time></trkpt><trkpt lat="42.72507645491998" lon="12.743130829533618"><ele>543.0</ele><time>2026-04-11T15:50:50.001Z</time></trkpt><trkpt lat="42.72503220437136" lon="12.743034618155027"><ele>543.0</ele><time>2026-04-11T15:50:51.001Z</time></trkpt><trkpt lat="42.72492799964208" lon="12.742986235637705"><ele>543.0</ele><time>2026-04-11T15:50:52.001Z</time></trkpt><trkpt lat="42.72478752571848" lon="12.742997341955133"><ele>543.0</ele><time>2026-04-11T15:50:53.001Z</time></trkpt><trkpt lat="42.72463725472947" lon="12.742956639418649"><ele>543.0</ele><time>2026-04-11T15:50:54.001Z</time></trkpt><trkpt lat="42.72447982338694" lon="12.742911751988025"><ele>538.0</ele><time>2026-04-11T15:50:55.001Z</time></trkpt><trkpt lat="42.72432873034971" lon="12.742827716093982"><ele>533.0</ele><time>2026-04-11T15:50:56.001Z</time></trkpt><trkpt lat="42.72418729591785" lon="12.742721048226786"><ele>528.0</ele><time>2026-04-11T15:50:57.001Z</time></trkpt><trkpt lat="42.72406558975297" lon="12.742634673317626"><ele>528.0</ele><time>2026-04-11T15:50:58.001Z</time></trkpt><trkpt lat="42.723941357979676" lon="12.742554589451146"><ele>528.0</ele><time>2026-04-11T15:50:59.001Z</time></trkpt><trkpt lat="42.72381612759474" lon="12.742494121962384"><ele>528.0</ele><time>2026-04-11T15:51:00.001Z</time></trkpt><trkpt lat="42.72366856868416" lon="12.742473781173413"><ele>528.0</ele><time>2026-04-11T15:51:01.001Z</time></trkpt><trkpt lat="42.72351872458194" lon="12.74245959591625"><ele>529.25</ele><time>2026-04-11T15:51:02.001Z</time></trkpt><trkpt lat="42.72338321429028" lon="12.74244180436257"><ele>530.5</ele><time>2026-04-11T15:51:03.001Z</time></trkpt><trkpt lat="42.72326167374692" lon="12.74240775389434"><ele>531.75</ele><time>2026-04-11T15:51:04.001Z</time></trkpt><trkpt lat="42.72315223719732" lon="12.742343173802457"><ele>533.0</ele><time>2026-04-11T15:51:05.001Z</time></trkpt><trkpt lat="42.72303451675102" lon="12.742303152439188"><ele>533.0</ele><time>2026-04-11T15:51:06.001Z</time></trkpt><trkpt lat="42.7229090143683" lon="12.742322909259194"><ele>533.0</ele><time>2026-04-11T15:51:07.001Z</time></trkpt><trkpt lat="42.72278473392301" lon="12.74236149585827"><ele>533.0</ele><time>2026-04-11T15:51:08.001Z</time></trkpt><trkpt lat="42.72267820686425" lon="12.742393500762667"><ele>533.0</ele><time>2026-04-11T15:51:09.001Z</time></trkpt><trkpt lat="42.72259058825585" lon="12.74241270310053"><ele>535.0</ele><time>2026-04-11T15:51:10.001Z</time></trkpt><trkpt lat="42.7225199868235" lon="12.742415736741478"><ele>537.0</ele><time>2026-04-11T15:51:11.001Z</time></trkpt><trkpt lat="42.722418499617454" lon="12.742383775692593"><ele>539.0</ele><time>2026-04-11T15:51:13Z</time></trkpt><trkpt lat="42.722414141425" lon="12.742286329308998"><ele>541.0</ele><time>2026-04-11T15:51:15Z</time></trkpt><trkpt lat="42.72246782055733" lon="12.742214948259784"><ele>543.0</ele><time>2026-04-11T15:51:17Z</time></trkpt><trkpt lat="42.72256480067351" lon="12.74226937444315"><ele>545.0</ele><time>2026-04-11T15:51:18Z</time></trkpt><trkpt lat="42.72270683899774" lon="12.742309985679826"><ele>542.0</ele><time>2026-04-11T15:51:19Z</time></trkpt><trkpt lat="42.722834925619914" lon="12.742282948308342"><ele>539.0</ele><time>2026-04-11T15:51:20Z</time></trkpt><trkpt lat="42.72297161711678" lon="12.742228385157615"><ele>536.0</ele><time>2026-04-11T15:51:21Z</time></trkpt><trkpt lat="42.723086347784154" lon="12.742142570516643"><ele>533.0</ele><time>2026-04-11T15:51:22Z</time></trkpt><trkpt lat="42.723188755494675" lon="12.742106669083492"><ele>533.0</ele><time>2026-04-11T15:51:23Z</time></trkpt><trkpt lat="42.723315672597074" lon="12.742124255303507"><ele>533.0</ele><time>2026-04-11T15:51:24Z</time></trkpt><trkpt lat="42.72344982297501" lon="12.742171502440613"><ele>533.0</ele><time>2026-04-11T15:51:25Z</time></trkpt><trkpt lat="42.72361366227322" lon="12.742161908498248"><ele>533.0</ele><time>2026-04-11T15:51:26Z</time></trkpt><trkpt lat="42.723768805188975" lon="12.742137502918013"><ele>531.75</ele><time>2026-04-11T15:51:27Z</time></trkpt><trkpt lat="42.72391054731237" lon="12.742113384776864"><ele>530.5</ele><time>2026-04-11T15:51:28Z</time></trkpt><trkpt lat="42.72404994157698" lon="12.742086471665814"><ele>529.25</ele><time>2026-04-11T15:51:29Z</time></trkpt><trkpt lat="42.72416924219921" lon="12.742080232299134"><ele>528.0</ele><time>2026-04-11T15:51:30Z</time></trkpt><trkpt lat="42.72430333902686" lon="12.742114434257372"><ele>526.5</ele><time>2026-04-11T15:51:31Z</time></trkpt><trkpt lat="42.724449535232324" lon="12.742159148135306"><ele>525.0</ele><time>2026-04-11T15:51:32Z</time></trkpt><trkpt lat="42.72458669868462" lon="12.742186406496284"><ele>523.5</ele><time>2026-04-11T15:51:33Z</time></trkpt><trkpt lat="42.724704478560255" lon="12.742233638903851"><ele>522.0</ele><time>2026-04-11T15:51:34Z</time></trkpt><trkpt lat="42.72481298598673" lon="12.742251257254136"><ele>522.0</ele><time>2026-04-11T15:51:35Z</time></trkpt><trkpt lat="42.72490602081984" lon="12.742210745405526"><ele>522.0</ele><time>2026-04-11T15:51:36Z</time></trkpt><trkpt lat="42.724996276626364" lon="12.742095039028335"><ele>522.0</ele><time>2026-04-11T15:51:37Z</time></trkpt><trkpt lat="42.72509994425918" lon="12.741951269432077"><ele>522.0</ele><time>2026-04-11T15:51:38Z</time></trkpt><trkpt lat="42.72521813125316" lon="12.741834620070183"><ele>515.25</ele><time>2026-04-11T15:51:39Z</time></trkpt><trkpt lat="42.72533157099275" lon="12.741746626151667"><ele>508.5</ele><time>2026-04-11T15:51:40Z</time></trkpt><trkpt lat="42.72545175082563" lon="12.741693586948506"><ele>501.75</ele><time>2026-04-11T15:51:41Z</time></trkpt><trkpt lat="42.725571100972594" lon="12.741651122980024"><ele>495.0</ele><time>2026-04-11T15:51:42Z</time></trkpt><trkpt lat="42.72568212303382" lon="12.741636697932332"><ele>495.0</ele><time>2026-04-11T15:51:43Z</time></trkpt><trkpt lat="42.725787372423596" lon="12.741673188014458"><ele>495.0</ele><time>2026-04-11T15:51:44Z</time></trkpt><trkpt lat="42.72588119612699" lon="12.74173931624866"><ele>495.0</ele><time>2026-04-11T15:51:45Z</time></trkpt><trkpt lat="42.72599696747077" lon="12.74184809175794"><ele>495.0</ele><time>2026-04-11T15:51:46Z</time></trkpt><trkpt lat="42.72611337334336" lon="12.741972396406299"><ele>491.8</ele><time>2026-04-11T15:51:47Z</time></trkpt><trkpt lat="42.72620946993077" lon="12.742080499707843"><ele>488.6</ele><time>2026-04-11T15:51:48Z</time></trkpt><trkpt lat="42.726275851609095" lon="12.742166364916006"><ele>485.4</ele><time>2026-04-11T15:51:49Z</time></trkpt><trkpt lat="42.72632882853834" lon="12.742255657664098"><ele>482.2</ele><time>2026-04-11T15:51:50Z</time></trkpt><trkpt lat="42.726313519312896" lon="12.742371498640871"><ele>479.0</ele><time>2026-04-11T15:51:51Z</time></trkpt><trkpt lat="42.72634102809239" lon="12.742462760481747"><ele>478.99999999999994</ele><time>2026-04-11T15:51:52Z</time></trkpt><trkpt lat="42.72639288156859" lon="12.742584688473839"><ele>479.0</ele><time>2026-04-11T15:51:54Z</time></trkpt><trkpt lat="42.72646655590754" lon="12.742590512108677"><ele>479.0</ele><time>2026-04-11T15:51:55Z</time></trkpt><trkpt lat="42.726535409831214" lon="12.742529726419036"><ele>479.0</ele><time>2026-04-11T15:51:56Z</time></trkpt><trkpt lat="42.726558849817025" lon="12.742431005561626"><ele>478.99999999999994</ele><time>2026-04-11T15:51:57Z</time></trkpt><trkpt lat="42.72653514380267" lon="12.742325155648007"><ele>479.0</ele><time>2026-04-11T15:51:58Z</time></trkpt><trkpt lat="42.726454420369045" lon="12.742213034753561"><ele>479.0</ele><time>2026-04-11T15:51:59Z</time></trkpt><trkpt lat="42.72637039594365" lon="12.742090628496518"><ele>479.0</ele><time>2026-04-11T15:52:00Z</time></trkpt><trkpt lat="42.7262837292754" lon="12.74196004901562"><ele>479.0</ele><time>2026-04-11T15:52:01Z</time></trkpt><trkpt lat="42.72620263487229" lon="12.741811956522453"><ele>479.0</ele><time>2026-04-11T15:52:02Z</time></trkpt><trkpt lat="42.72611140237794" lon="12.741659036040874"><ele>483.0</ele><time>2026-04-11T15:52:03Z</time></trkpt><trkpt lat="42.726015331705845" lon="12.741520740416261"><ele>487.0</ele><time>2026-04-11T15:52:04Z</time></trkpt><trkpt lat="42.725929516913716" lon="12.741381950608597"><ele>491.0</ele><time>2026-04-11T15:52:05Z</time></trkpt><trkpt lat="42.725860306922684" lon="12.741251008515537"><ele>495.0</ele><time>2026-04-11T15:52:06Z</time></trkpt><trkpt lat="42.725792495565756" lon="12.741153572623862"><ele>495.0</ele><time>2026-04-11T15:52:07Z</time></trkpt><trkpt lat="42.72572751955083" lon="12.741089538423441"><ele>495.0</ele><time>2026-04-11T15:52:08Z</time></trkpt><trkpt lat="42.725622895199855" lon="12.741065501988825"><ele>495.0</ele><time>2026-04-11T15:52:09Z</time></trkpt><trkpt lat="42.72547870825503" lon="12.741102299654292"><ele>495.0</ele><time>2026-04-11T15:52:10Z</time></trkpt><trkpt lat="42.725323574611664" lon="12.741174715822009"><ele>495.5</ele><time>2026-04-11T15:52:11Z</time></trkpt><trkpt lat="42.72517694915428" lon="12.741220015772171"><ele>496.0</ele><time>2026-04-11T15:52:12Z</time></trkpt><trkpt lat="42.725054776549925" lon="12.741270150520402"><ele>496.5</ele><time>2026-04-11T15:52:13Z</time></trkpt><trkpt lat="42.72495800758097" lon="12.741324237050412"><ele>497.0</ele><time>2026-04-11T15:52:14Z</time></trkpt><trkpt lat="42.72486615645432" lon="12.741375791486291"><ele>497.0</ele><time>2026-04-11T15:52:15Z</time></trkpt><trkpt lat="42.72480493235216" lon="12.74143439023665"><ele>497.00000000000006</ele><time>2026-04-11T15:52:16Z</time></trkpt><trkpt lat="42.72474188376373" lon="12.741471541890437"><ele>497.00000000000006</ele><time>2026-04-11T15:52:17Z</time></trkpt><trkpt lat="42.72464206023035" lon="12.74141780828385"><ele>497.0</ele><time>2026-04-11T15:52:19Z</time></trkpt><trkpt lat="42.72462322108921" lon="12.741328548942358"><ele>497.0</ele><time>2026-04-11T15:52:20Z</time></trkpt><trkpt lat="42.72473271991357" lon="12.741217805909509"><ele>497.0</ele><time>2026-04-11T15:52:22Z</time></trkpt><trkpt lat="42.72483577280311" lon="12.741199035679838"><ele>497.0</ele><time>2026-04-11T15:52:23Z</time></trkpt><trkpt lat="42.72496012414261" lon="12.741162366676319"><ele>497.0</ele><time>2026-04-11T15:52:24Z</time></trkpt><trkpt lat="42.72509837864717" lon="12.74111270901484"><ele>497.0</ele><time>2026-04-11T15:52:25Z</time></trkpt><trkpt lat="42.72522876891378" lon="12.741048887089637"><ele>490.5</ele><time>2026-04-11T15:52:26Z</time></trkpt><trkpt lat="42.725373797086014" lon="12.740976923620499"><ele>484.0</ele><time>2026-04-11T15:52:27Z</time></trkpt><trkpt lat="42.72550921852384" lon="12.740908777439918"><ele>477.5</ele><time>2026-04-11T15:52:28Z</time></trkpt><trkpt lat="42.725637465991234" lon="12.740849322817866"><ele>471.0</ele><time>2026-04-11T15:52:29Z</time></trkpt><trkpt lat="42.72575368247188" lon="12.740801243861045"><ele>471.0</ele><time>2026-04-11T15:52:30Z</time></trkpt><trkpt lat="42.725849418157196" lon="12.74076538936308"><ele>471.0</ele><time>2026-04-11T15:52:31Z</time></trkpt><trkpt lat="42.725927735222804" lon="12.740731141067362"><ele>471.0</ele><time>2026-04-11T15:52:32Z</time></trkpt><trkpt lat="42.726000588230946" lon="12.740783725385844"><ele>471.0</ele><time>2026-04-11T15:52:33Z</time></trkpt><trkpt lat="42.7260695892736" lon="12.740894566814415"><ele>471.0</ele><time>2026-04-11T15:52:34Z</time></trkpt><trkpt lat="42.72612823446213" lon="12.741032776126724"><ele>470.0</ele><time>2026-04-11T15:52:35Z</time></trkpt><trkpt lat="42.72619823618448" lon="12.741203928332423"><ele>469.0</ele><time>2026-04-11T15:52:36Z</time></trkpt><trkpt lat="42.726328975740486" lon="12.741325059865497"><ele>468.0</ele><time>2026-04-11T15:52:37Z</time></trkpt><trkpt lat="42.72644552350553" lon="12.741448030585119"><ele>467.0</ele><time>2026-04-11T15:52:38Z</time></trkpt><trkpt lat="42.726551372918394" lon="12.741569804192896"><ele>467.0</ele><time>2026-04-11T15:52:39Z</time></trkpt><trkpt lat="42.726675826917116" lon="12.741674040449539"><ele>467.0</ele><time>2026-04-11T15:52:40Z</time></trkpt><trkpt lat="42.72682416629013" lon="12.741731701692903"><ele>467.0</ele><time>2026-04-11T15:52:41Z</time></trkpt><trkpt lat="42.72695865361292" lon="12.74178735272058"><ele>467.0</ele><time>2026-04-11T15:52:42Z</time></trkpt><trkpt lat="42.727086730549" lon="12.741841993218578"><ele>464.16666666666663</ele><time>2026-04-11T15:52:43Z</time></trkpt><trkpt lat="42.72719272671834" lon="12.741891097300362"><ele>461.3333333333333</ele><time>2026-04-11T15:52:44Z</time></trkpt><trkpt lat="42.7272796062279" lon="12.741940594294269"><ele>458.5</ele><time>2026-04-11T15:52:45Z</time></trkpt><trkpt lat="42.72734268012781" lon="12.741982715453025"><ele>455.66666666666663</ele><time>2026-04-11T15:52:46Z</time></trkpt><trkpt lat="42.72740274122659" lon="12.742038243511177"><ele>452.8333333333333</ele><time>2026-04-11T15:52:47Z</time></trkpt><trkpt lat="42.72744366204489" lon="12.742104365085304"><ele>450.0</ele><time>2026-04-11T15:52:48Z</time></trkpt><trkpt lat="42.72742581071037" lon="12.742220288037835"><ele>450.0</ele><time>2026-04-11T15:52:49Z</time></trkpt><trkpt lat="42.72735930016046" lon="12.74233571503553"><ele>450.0</ele><time>2026-04-11T15:52:50Z</time></trkpt><trkpt lat="42.72727175596899" lon="12.742446341266067"><ele>450.0</ele><time>2026-04-11T15:52:51Z</time></trkpt><trkpt lat="42.72720122299037" lon="12.742578836368434"><ele>450.0</ele><time>2026-04-11T15:52:52Z</time></trkpt><trkpt lat="42.727130447302685" lon="12.742692727898042"><ele>451.4</ele><time>2026-04-11T15:52:53Z</time></trkpt><trkpt lat="42.72706560145562" lon="12.742803054076175"><ele>452.8</ele><time>2026-04-11T15:52:54Z</time></trkpt><trkpt lat="42.72700774415733" lon="12.742909252371842"><ele>454.20000000000005</ele><time>2026-04-11T15:52:55Z</time></trkpt><trkpt lat="42.726964823127915" lon="12.742990542572082"><ele>455.6</ele><time>2026-04-11T15:52:56.001Z</time></trkpt><trkpt lat="42.72690815091435" lon="12.743123949308183"><ele>457.0</ele><time>2026-04-11T15:52:58.001Z</time></trkpt><trkpt lat="42.726854971418305" lon="12.743349262191245"><ele>457.0</ele><time>2026-04-11T15:53:00.001Z</time></trkpt><trkpt lat="42.72709373349786" lon="12.743425725697165"><ele>457.0</ele><time>2026-04-11T15:53:01.001Z</time></trkpt><trkpt lat="42.727205884040266" lon="12.743296308776149"><ele>457.0</ele><time>2026-04-11T15:53:02.001Z</time></trkpt><trkpt lat="42.72727175726533" lon="12.743255470183403"><ele>457.0</ele><time>2026-04-11T15:53:03.001Z</time></trkpt><trkpt lat="42.72737058524573" lon="12.743232871411292"><ele>457.0</ele><time>2026-04-11T15:53:04.001Z</time></trkpt><trkpt lat="42.72750439012166" lon="12.74320417966429"><ele>457.0</ele><time>2026-04-11T15:53:05.001Z</time></trkpt><trkpt lat="42.727629056530226" lon="12.74317640700412"><ele>457.0</ele><time>2026-04-11T15:53:06.001Z</time></trkpt><trkpt lat="42.72777553939167" lon="12.74314708806608"><ele>457.5</ele><time>2026-04-11T15:53:07.001Z</time></trkpt><trkpt lat="42.72793270048582" lon="12.743124828239305"><ele>458.0</ele><time>2026-04-11T15:53:08.001Z</time></trkpt><trkpt lat="42.728081700276164" lon="12.743123052873148"><ele>458.5</ele><time>2026-04-11T15:53:09.001Z</time></trkpt><trkpt lat="42.72821603693964" lon="12.743105197885596"><ele>459.0</ele><time>2026-04-11T15:53:10.001Z</time></trkpt><trkpt lat="42.728355941967976" lon="12.743086861404056"><ele>459.0</ele><time>2026-04-11T15:53:11.001Z</time></trkpt><trkpt lat="42.72853290802476" lon="12.743473243094181"><ele>459.0</ele><time>2026-04-11T15:53:12.001Z</time></trkpt><trkpt lat="42.72865773388157" lon="12.743594038054175"><ele>473.66666666666663</ele><time>2026-04-11T15:53:13Z</time></trkpt><trkpt lat="42.72878668907274" lon="12.743735568631859"><ele>488.3333333333333</ele><time>2026-04-11T15:53:14Z</time></trkpt><trkpt lat="42.728888463680725" lon="12.7438754304665"><ele>503.0</ele><time>2026-04-11T15:53:15Z</time></trkpt><trkpt lat="42.72899499066785" lon="12.744041531480176"><ele>435.0</ele><time>2026-04-11T15:53:16Z</time></trkpt><trkpt lat="42.729181075585856" lon="12.742543883581899"><ele>435.0</ele><time>2026-04-11T15:53:17Z</time></trkpt><trkpt lat="42.72932878116988" lon="12.742569607748182"><ele>435.0</ele><time>2026-04-11T15:53:18Z</time></trkpt><trkpt lat="42.72946130761408" lon="12.742537720623368"><ele>435.0</ele><time>2026-04-11T15:53:19Z</time></trkpt><trkpt lat="42.72957746449254" lon="12.742504314327453"><ele>435.0</ele><time>2026-04-11T15:53:20Z</time></trkpt><trkpt lat="42.72967204470464" lon="12.742496888594054"><ele>433.25</ele><time>2026-04-11T15:53:21Z</time></trkpt><trkpt lat="42.72975867363738" lon="12.742522700193238"><ele>431.5</ele><time>2026-04-11T15:53:22Z</time></trkpt><trkpt lat="42.729851108780984" lon="12.742596946344657"><ele>429.75</ele><time>2026-04-11T15:53:23Z</time></trkpt><trkpt lat="42.729970632808204" lon="12.742679487911369"><ele>428.0</ele><time>2026-04-11T15:53:24Z</time></trkpt><trkpt lat="42.73009358713401" lon="12.742761218872785"><ele>428.3333333333333</ele><time>2026-04-11T15:53:25Z</time></trkpt><trkpt lat="42.730201628745924" lon="12.74286825957"><ele>428.66666666666663</ele><time>2026-04-11T15:53:26Z</time></trkpt><trkpt lat="42.73032543760476" lon="12.743017330406884"><ele>429.0</ele><time>2026-04-11T15:53:27Z</time></trkpt><trkpt lat="42.73047704936775" lon="12.74320257728785"><ele>429.0</ele><time>2026-04-11T15:53:28Z</time></trkpt><trkpt lat="42.73065562232224" lon="12.74337566405759"><ele>429.0</ele><time>2026-04-11T15:53:29Z</time></trkpt><trkpt lat="42.730812289601005" lon="12.743503458131247"><ele>429.0</ele><time>2026-04-11T15:53:30Z</time></trkpt><trkpt lat="42.7309580467129" lon="12.74362903493995"><ele>427.0</ele><time>2026-04-11T15:53:31Z</time></trkpt><trkpt lat="42.7311110195804" lon="12.743740366915004"><ele>425.0</ele><time>2026-04-11T15:53:32Z</time></trkpt><trkpt lat="42.73123938714554" lon="12.743808486996848"><ele>423.0</ele><time>2026-04-11T15:53:33Z</time></trkpt><trkpt lat="42.73135232598951" lon="12.743884079000344"><ele>421.0</ele><time>2026-04-11T15:53:34Z</time></trkpt><trkpt lat="42.73142766288192" lon="12.743952022679082"><ele>421.00000000000006</ele><time>2026-04-11T15:53:35Z</time></trkpt><trkpt lat="42.731503599025785" lon="12.744043733036712"><ele>421.0</ele><time>2026-04-11T15:53:36Z</time></trkpt><trkpt lat="42.73155454652905" lon="12.74413142099812"><ele>421.0</ele><time>2026-04-11T15:53:37Z</time></trkpt><trkpt lat="42.731591374879265" lon="12.744210795359326"><ele>421.0</ele><time>2026-04-11T15:53:38Z</time></trkpt><trkpt lat="42.73159718711294" lon="12.744324558090089"><ele>421.00000000000006</ele><time>2026-04-11T15:53:39Z</time></trkpt><trkpt lat="42.73166300069767" lon="12.744444028041816"><ele>421.0</ele><time>2026-04-11T15:53:41Z</time></trkpt><trkpt lat="42.731763816332446" lon="12.744494696919508"><ele>421.0</ele><time>2026-04-11T15:53:43Z</time></trkpt><trkpt lat="42.73181298334551" lon="12.744431146680137"><ele>421.0</ele><time>2026-04-11T15:53:46Z</time></trkpt><trkpt lat="42.73175675990049" lon="12.74418578386287"><ele>421.0</ele><time>2026-04-11T15:53:57Z</time></trkpt><trkpt lat="42.731656349673216" lon="12.74412319780187"><ele>421.0</ele><time>2026-04-11T15:53:58Z</time></trkpt><trkpt lat="42.73161501623578" lon="12.744010998823876"><ele>421.0</ele><time>2026-04-11T15:53:59Z</time></trkpt><trkpt lat="42.73153234842392" lon="12.743901752708588"><ele>421.0</ele><time>2026-04-11T15:54:00Z</time></trkpt><trkpt lat="42.73145097174298" lon="12.743788132094735"><ele>421.0</ele><time>2026-04-11T15:54:01Z</time></trkpt><trkpt lat="42.73133805954022" lon="12.74367889324609"><ele>421.0</ele><time>2026-04-11T15:54:02Z</time></trkpt><trkpt lat="42.73122143043295" lon="12.743584384087974"><ele>423.0</ele><time>2026-04-11T15:54:03Z</time></trkpt><trkpt lat="42.73110398582569" lon="12.743466372900128"><ele>425.0</ele><time>2026-04-11T15:54:04Z</time></trkpt><trkpt lat="42.730990107835304" lon="12.743358528989708"><ele>427.0</ele><time>2026-04-11T15:54:05Z</time></trkpt><trkpt lat="42.73086790609338" lon="12.743235542536265"><ele>429.0</ele><time>2026-04-11T15:54:06Z</time></trkpt><trkpt lat="42.73075779338196" lon="12.743106854603909"><ele>429.0</ele><time>2026-04-11T15:54:07Z</time></trkpt><trkpt lat="42.73065163623401" lon="12.742968570159055"><ele>429.0</ele><time>2026-04-11T15:54:08Z</time></trkpt><trkpt lat="42.730545382629735" lon="12.742843469665758"><ele>429.0</ele><time>2026-04-11T15:54:09Z</time></trkpt><trkpt lat="42.73045589862356" lon="12.742695903738365"><ele>429.0</ele><time>2026-04-11T15:54:10Z</time></trkpt><trkpt lat="42.730372786362544" lon="12.742568006078058"><ele>428.75</ele><time>2026-04-11T15:54:11Z</time></trkpt><trkpt lat="42.73028295232237" lon="12.7424393642826"><ele>428.5</ele><time>2026-04-11T15:54:12Z</time></trkpt><trkpt lat="42.730188697314055" lon="12.742315534311917"><ele>428.25</ele><time>2026-04-11T15:54:13Z</time></trkpt><trkpt lat="42.73007956083788" lon="12.742199098401274"><ele>428.0</ele><time>2026-04-11T15:54:14Z</time></trkpt><trkpt lat="42.72994967020528" lon="12.742091187106064"><ele>428.0</ele><time>2026-04-11T15:54:15Z</time></trkpt><trkpt lat="42.72983456104858" lon="12.74200370207406"><ele>428.0</ele><time>2026-04-11T15:54:16Z</time></trkpt><trkpt lat="42.72973483825496" lon="12.741891660590717"><ele>428.0</ele><time>2026-04-11T15:54:17Z</time></trkpt><trkpt lat="42.729660803229116" lon="12.741779977102528"><ele>428.0</ele><time>2026-04-11T15:54:18Z</time></trkpt><trkpt lat="42.72958446415718" lon="12.741662850289305"><ele>425.2</ele><time>2026-04-11T15:54:19Z</time></trkpt><trkpt lat="42.72951078953439" lon="12.741575312356021"><ele>422.4</ele><time>2026-04-11T15:54:20Z</time></trkpt><trkpt lat="42.729424993569495" lon="12.741526114592922"><ele>419.59999999999997</ele><time>2026-04-11T15:54:21Z</time></trkpt><trkpt lat="42.729312306563024" lon="12.741501698578148"><ele>416.79999999999995</ele><time>2026-04-11T15:54:22Z</time></trkpt><trkpt lat="42.72919839381415" lon="12.741545182005375"><ele>414.0</ele><time>2026-04-11T15:54:23Z</time></trkpt><trkpt lat="42.72907224912827" lon="12.741670087155816"><ele>414.0</ele><time>2026-04-11T15:54:24Z</time></trkpt><trkpt lat="42.72894687307849" lon="12.74178906980584"><ele>414.0</ele><time>2026-04-11T15:54:25Z</time></trkpt><trkpt lat="42.728839384097014" lon="12.74188460816427"><ele>414.0</ele><time>2026-04-11T15:54:26Z</time></trkpt><trkpt lat="42.72875452578671" lon="12.741940522566257"><ele>414.0</ele><time>2026-04-11T15:54:27Z</time></trkpt><trkpt lat="42.72868520971639" lon="12.741981477611962"><ele>415.0</ele><time>2026-04-11T15:54:28Z</time></trkpt><trkpt lat="42.728622090907734" lon="12.742007488692723"><ele>416.0</ele><time>2026-04-11T15:54:29Z</time></trkpt><trkpt lat="42.72852393495241" lon="12.741973826635165"><ele>417.0</ele><time>2026-04-11T15:54:31Z</time></trkpt><trkpt lat="42.728483881018064" lon="12.741861068409438"><ele>418.0</ele><time>2026-04-11T15:54:33Z</time></trkpt><trkpt lat="42.72855175011094" lon="12.741630972332496"><ele>419.0</ele><time>2026-04-11T15:54:34Z</time></trkpt><trkpt lat="42.72855760730302" lon="12.741420749745986"><ele>419.0</ele><time>2026-04-11T15:54:35Z</time></trkpt><trkpt lat="42.72853699671047" lon="12.741270234026258"><ele>419.0</ele><time>2026-04-11T15:54:36Z</time></trkpt><trkpt lat="42.728455490887455" lon="12.74113062161134"><ele>419.0</ele><time>2026-04-11T15:54:37Z</time></trkpt><trkpt lat="42.728365819370765" lon="12.740964788129338"><ele>419.0</ele><time>2026-04-11T15:54:38Z</time></trkpt><trkpt lat="42.72824380122313" lon="12.740775429530217"><ele>413.66666666666663</ele><time>2026-04-11T15:54:39Z</time></trkpt><trkpt lat="42.728115492746454" lon="12.74057838253371"><ele>408.33333333333337</ele><time>2026-04-11T15:54:40Z</time></trkpt><trkpt lat="42.72800997999935" lon="12.740406638958072"><ele>403.0</ele><time>2026-04-11T15:54:41Z</time></trkpt><trkpt lat="42.727909808300886" lon="12.740246960145033"><ele>403.0</ele><time>2026-04-11T15:54:42Z</time></trkpt><trkpt lat="42.727817509072494" lon="12.740084127806263"><ele>403.0</ele><time>2026-04-11T15:54:43Z</time></trkpt><trkpt lat="42.72773347263497" lon="12.739951857158214"><ele>403.0</ele><time>2026-04-11T15:54:44Z</time></trkpt><trkpt lat="42.72767453964591" lon="12.73981695842508"><ele>403.0</ele><time>2026-04-11T15:54:45Z</time></trkpt><trkpt lat="42.727627457287795" lon="12.73965423429452"><ele>403.0</ele><time>2026-04-11T15:54:46Z</time></trkpt><trkpt lat="42.72758101673301" lon="12.739470239632858"><ele>403.0</ele><time>2026-04-11T15:54:47Z</time></trkpt><trkpt lat="42.72755411455915" lon="12.739264516447586"><ele>403.0</ele><time>2026-04-11T15:54:48Z</time></trkpt><trkpt lat="42.727535061610034" lon="12.739065337543925"><ele>403.0</ele><time>2026-04-11T15:54:49Z</time></trkpt><trkpt lat="42.72752734281903" lon="12.73885002593454"><ele>401.0</ele><time>2026-04-11T15:54:50Z</time></trkpt><trkpt lat="42.727543764591836" lon="12.738639587082204"><ele>399.0</ele><time>2026-04-11T15:54:51Z</time></trkpt><trkpt lat="42.72755202187561" lon="12.738451855649465"><ele>397.0</ele><time>2026-04-11T15:54:52Z</time></trkpt><trkpt lat="42.72755041526327" lon="12.738256257634685"><ele>395.0</ele><time>2026-04-11T15:54:53Z</time></trkpt><trkpt lat="42.72753368658485" lon="12.738047524470375"><ele>392.5</ele><time>2026-04-11T15:54:54Z</time></trkpt><trkpt lat="42.72749382834755" lon="12.737858159366283"><ele>390.0</ele><time>2026-04-11T15:54:55Z</time></trkpt><trkpt lat="42.72743186113848" lon="12.737677900248313"><ele>387.5</ele><time>2026-04-11T15:54:56Z</time></trkpt><trkpt lat="42.72737597928569" lon="12.737512459318305"><ele>385.0</ele><time>2026-04-11T15:54:57Z</time></trkpt><trkpt lat="42.72733430760321" lon="12.737359024591706"><ele>383.8</ele><time>2026-04-11T15:54:58Z</time></trkpt><trkpt lat="42.727310249319174" lon="12.737208463713547"><ele>382.6</ele><time>2026-04-11T15:54:59Z</time></trkpt><trkpt lat="42.72727818973296" lon="12.73707703557446"><ele>381.4</ele><time>2026-04-11T15:55:00Z</time></trkpt><trkpt lat="42.72728792800722" lon="12.736932444393554"><ele>380.2</ele><time>2026-04-11T15:55:01Z</time></trkpt><trkpt lat="42.72735158279317" lon="12.736816418187846"><ele>379.0</ele><time>2026-04-11T15:55:02Z</time></trkpt><trkpt lat="42.727395238988095" lon="12.736693011884311"><ele>377.66666666666663</ele><time>2026-04-11T15:55:03Z</time></trkpt><trkpt lat="42.72744389008342" lon="12.736564141718496"><ele>376.3333333333333</ele><time>2026-04-11T15:55:04Z</time></trkpt><trkpt lat="42.72748978887425" lon="12.736454016898824"><ele>375.0</ele><time>2026-04-11T15:55:05Z</time></trkpt><trkpt lat="42.72753136554247" lon="12.73636334039881"><ele>373.6666666666667</ele><time>2026-04-11T15:55:06Z</time></trkpt><trkpt lat="42.727568457444086" lon="12.736270776877156"><ele>372.33333333333337</ele><time>2026-04-11T15:55:08Z</time></trkpt><trkpt lat="42.72760519332709" lon="12.736199827758213"><ele>371.0</ele><time>2026-04-11T15:55:18Z</time></trkpt><trkpt lat="42.72770450381538" lon="12.736129486467211"><ele>370.20000000000005</ele><time>2026-04-11T15:55:20Z</time></trkpt><trkpt lat="42.72772942535321" lon="12.735986705275195"><ele>369.40000000000003</ele><time>2026-04-11T15:55:22Z</time></trkpt><trkpt lat="42.72761357863104" lon="12.735870848411464"><ele>368.6</ele><time>2026-04-11T15:55:24Z</time></trkpt><trkpt lat="42.72752849966192" lon="12.735825649009746"><ele>367.8</ele><time>2026-04-11T15:55:25Z</time></trkpt><trkpt lat="42.72744308133243" lon="12.735774127329721"><ele>367.0</ele><time>2026-04-11T15:55:26Z</time></trkpt><trkpt lat="42.72736065659821" lon="12.735715181578607"><ele>367.0</ele><time>2026-04-11T15:55:27Z</time></trkpt><trkpt lat="42.727289885383975" lon="12.735615261612512"><ele>367.0</ele><time>2026-04-11T15:55:28Z</time></trkpt><trkpt lat="42.7272181192532" lon="12.735520507371577"><ele>367.0</ele><time>2026-04-11T15:55:29Z</time></trkpt><trkpt lat="42.72713890166893" lon="12.735417930531291"><ele>367.0</ele><time>2026-04-11T15:55:30Z</time></trkpt><trkpt lat="42.7270499575463" lon="12.735320853876388"><ele>367.0</ele><time>2026-04-11T15:55:31Z</time></trkpt><trkpt lat="42.726940653471" lon="12.73523299819255"><ele>367.5</ele><time>2026-04-11T15:55:32Z</time></trkpt><trkpt lat="42.726818149779405" lon="12.735146303678153"><ele>368.0</ele><time>2026-04-11T15:55:33Z</time></trkpt><trkpt lat="42.72669282227198" lon="12.735063640001702"><ele>368.5</ele><time>2026-04-11T15:55:34Z</time></trkpt><trkpt lat="42.726549674892524" lon="12.734987684152552"><ele>369.0</ele><time>2026-04-11T15:55:35Z</time></trkpt><trkpt lat="42.726398701020535" lon="12.734927637538497"><ele>369.0</ele><time>2026-04-11T15:55:36Z</time></trkpt><trkpt lat="42.72624310894254" lon="12.734876073716027"><ele>369.0</ele><time>2026-04-11T15:55:37Z</time></trkpt><trkpt lat="42.72607657154487" lon="12.734845763833313"><ele>369.0</ele><time>2026-04-11T15:55:38Z</time></trkpt><trkpt lat="42.72590692181299" lon="12.734821059684794"><ele>370.3333333333333</ele><time>2026-04-11T15:55:39Z</time></trkpt><trkpt lat="42.72573743931997" lon="12.734800765900294"><ele>371.66666666666663</ele><time>2026-04-11T15:55:40Z</time></trkpt><trkpt lat="42.72556780034154" lon="12.734774949858094"><ele>373.0</ele><time>2026-04-11T15:55:41Z</time></trkpt><trkpt lat="42.725399227486285" lon="12.73474912351454"><ele>373.0</ele><time>2026-04-11T15:55:42Z</time></trkpt><trkpt lat="42.725234776713826" lon="12.734718859785504"><ele>373.0</ele><time>2026-04-11T15:55:43Z</time></trkpt><trkpt lat="42.72506471905993" lon="12.734704351722042"><ele>373.0</ele><time>2026-04-11T15:55:44Z</time></trkpt><trkpt lat="42.72490009395149" lon="12.734678148311666"><ele>374.0</ele><time>2026-04-11T15:55:45Z</time></trkpt><trkpt lat="42.72473685869021" lon="12.734657250968777"><ele>375.0</ele><time>2026-04-11T15:55:46Z</time></trkpt><trkpt lat="42.72456935962398" lon="12.734631320032314"><ele>376.0</ele><time>2026-04-11T15:55:47Z</time></trkpt><trkpt lat="42.72440654940598" lon="12.73460491393552"><ele>376.66666666666663</ele><time>2026-04-11T15:55:48Z</time></trkpt><trkpt lat="42.724243248359116" lon="12.734578229072145"><ele>377.3333333333333</ele><time>2026-04-11T15:55:49Z</time></trkpt><trkpt lat="42.72408509134885" lon="12.734534631198423"><ele>378.0</ele><time>2026-04-11T15:55:50Z</time></trkpt><trkpt lat="42.72392916457234" lon="12.734474318357913"><ele>378.0</ele><time>2026-04-11T15:55:51Z</time></trkpt><trkpt lat="42.72377003725244" lon="12.73439722672983"><ele>378.0</ele><time>2026-04-11T15:55:52Z</time></trkpt><trkpt lat="42.72362507305455" lon="12.73429357564619"><ele>378.0</ele><time>2026-04-11T15:55:53Z</time></trkpt><trkpt lat="42.72348972786573" lon="12.734160202825112"><ele>378.6666666666667</ele><time>2026-04-11T15:55:54Z</time></trkpt><trkpt lat="42.723360905713974" lon="12.734036701475043"><ele>379.33333333333337</ele><time>2026-04-11T15:55:55Z</time></trkpt><trkpt lat="42.723239705504554" lon="12.73387226718844"><ele>380.0</ele><time>2026-04-11T15:55:56Z</time></trkpt><trkpt lat="42.72313202114418" lon="12.733684404084423"><ele>383.33333333333337</ele><time>2026-04-11T15:55:57Z</time></trkpt><trkpt lat="42.72303794791434" lon="12.733493175032965"><ele>386.6666666666667</ele><time>2026-04-11T15:55:58Z</time></trkpt><trkpt lat="42.72294165090694" lon="12.733309043058535"><ele>390.0</ele><time>2026-04-11T15:55:59Z</time></trkpt><trkpt lat="42.72283548974627" lon="12.733117289051307"><ele>388.0</ele><time>2026-04-11T15:56:00Z</time></trkpt><trkpt lat="42.72272659655983" lon="12.732928145303873"><ele>386.0</ele><time>2026-04-11T15:56:01Z</time></trkpt><trkpt lat="42.72261626455404" lon="12.73273789950983"><ele>384.0</ele><time>2026-04-11T15:56:02Z</time></trkpt><trkpt lat="42.722506737228926" lon="12.732546601373919"><ele>383.6666666666667</ele><time>2026-04-11T15:56:03Z</time></trkpt><trkpt lat="42.72240343147873" lon="12.732356314195679"><ele>383.33333333333337</ele><time>2026-04-11T15:56:04Z</time></trkpt><trkpt lat="42.72229153659706" lon="12.732161657756595"><ele>383.0</ele><time>2026-04-11T15:56:05Z</time></trkpt><trkpt lat="42.722188940101134" lon="12.731975299576407"><ele>383.6666666666667</ele><time>2026-04-11T15:56:06Z</time></trkpt><trkpt lat="42.72208414246254" lon="12.73179320500653"><ele>384.33333333333337</ele><time>2026-04-11T15:56:07Z</time></trkpt><trkpt lat="42.72196744326029" lon="12.731607789810502"><ele>385.0</ele><time>2026-04-11T15:56:08Z</time></trkpt><trkpt lat="42.72184505686871" lon="12.731436332734146"><ele>385.0</ele><time>2026-04-11T15:56:09Z</time></trkpt><trkpt lat="42.72171410783012" lon="12.731269393900458"><ele>385.0</ele><time>2026-04-11T15:56:10Z</time></trkpt><trkpt lat="42.72158325697263" lon="12.73110746968337"><ele>385.0</ele><time>2026-04-11T15:56:11Z</time></trkpt><trkpt lat="42.721452720686095" lon="12.730944952668043"><ele>385.33333333333337</ele><time>2026-04-11T15:56:12Z</time></trkpt><trkpt lat="42.721323761784944" lon="12.730783751944408"><ele>385.66666666666663</ele><time>2026-04-11T15:56:13Z</time></trkpt><trkpt lat="42.72119441528541" lon="12.730620461867755"><ele>386.0</ele><time>2026-04-11T15:56:14Z</time></trkpt><trkpt lat="42.7210608942885" lon="12.73045490386202"><ele>385.3333333333333</ele><time>2026-04-11T15:56:15Z</time></trkpt><trkpt lat="42.7209259032656" lon="12.730291939774107"><ele>384.66666666666663</ele><time>2026-04-11T15:56:16Z</time></trkpt><trkpt lat="42.720797037466006" lon="12.730132245430235"><ele>384.0</ele><time>2026-04-11T15:56:17Z</time></trkpt><trkpt lat="42.720665490655094" lon="12.729970206464094"><ele>384.0</ele><time>2026-04-11T15:56:18Z</time></trkpt><trkpt lat="42.72053689654869" lon="12.729805911737868"><ele>384.0</ele><time>2026-04-11T15:56:19Z</time></trkpt><trkpt lat="42.72040783867811" lon="12.729641344105266"><ele>384.0</ele><time>2026-04-11T15:56:20Z</time></trkpt><trkpt lat="42.720274837804595" lon="12.729480125197696"><ele>384.66666666666663</ele><time>2026-04-11T15:56:21Z</time></trkpt><trkpt lat="42.720139964011814" lon="12.72931580640814"><ele>385.3333333333333</ele><time>2026-04-11T15:56:22Z</time></trkpt><trkpt lat="42.72000426111968" lon="12.729150542510345"><ele>386.0</ele><time>2026-04-11T15:56:23Z</time></trkpt><trkpt lat="42.71986588513045" lon="12.728985411396925"><ele>386.0</ele><time>2026-04-11T15:56:24Z</time></trkpt><trkpt lat="42.71972918236346" lon="12.728816243197663"><ele>386.0</ele><time>2026-04-11T15:56:25Z</time></trkpt><trkpt lat="42.71959469814033" lon="12.728645602379988"><ele>386.0</ele><time>2026-04-11T15:56:26Z</time></trkpt><trkpt lat="42.71945827133403" lon="12.728476420625304"><ele>385.66666666666663</ele><time>2026-04-11T15:56:27Z</time></trkpt><trkpt lat="42.71931688710612" lon="12.728308322699556"><ele>385.33333333333337</ele><time>2026-04-11T15:56:28Z</time></trkpt><trkpt lat="42.71917556538093" lon="12.728139181566577"><ele>385.0</ele><time>2026-04-11T15:56:29Z</time></trkpt><trkpt lat="42.71903642685218" lon="12.72796592150769"><ele>385.0</ele><time>2026-04-11T15:56:30Z</time></trkpt><trkpt lat="42.71889456656318" lon="12.72779362424343"><ele>385.0</ele><time>2026-04-11T15:56:31Z</time></trkpt><trkpt lat="42.718754652510476" lon="12.727618731941103"><ele>385.0</ele><time>2026-04-11T15:56:32Z</time></trkpt><trkpt lat="42.71861095866247" lon="12.72744214340855"><ele>386.0</ele><time>2026-04-11T15:56:33Z</time></trkpt><trkpt lat="42.7184668548936" lon="12.727271559546194"><ele>387.0</ele><time>2026-04-11T15:56:34Z</time></trkpt><trkpt lat="42.718326407448" lon="12.72709776685465"><ele>388.0</ele><time>2026-04-11T15:56:35Z</time></trkpt><trkpt lat="42.71819252486526" lon="12.726918848529092"><ele>389.6666666666667</ele><time>2026-04-11T15:56:36Z</time></trkpt><trkpt lat="42.718059543903614" lon="12.726739332311938"><ele>391.33333333333337</ele><time>2026-04-11T15:56:37Z</time></trkpt><trkpt lat="42.71792469228661" lon="12.726570384706163"><ele>393.0</ele><time>2026-04-11T15:56:38Z</time></trkpt><trkpt lat="42.717780914438016" lon="12.726408933449143"><ele>393.66666666666663</ele><time>2026-04-11T15:56:39Z</time></trkpt><trkpt lat="42.7176416347152" lon="12.726244567238739"><ele>394.3333333333333</ele><time>2026-04-11T15:56:40Z</time></trkpt><trkpt lat="42.71750077410712" lon="12.726083939347527"><ele>395.0</ele><time>2026-04-11T15:56:41Z</time></trkpt><trkpt lat="42.71735861970242" lon="12.72591850092483"><ele>395.0</ele><time>2026-04-11T15:56:42Z</time></trkpt><trkpt lat="42.71721706890115" lon="12.725747046191524"><ele>395.0</ele><time>2026-04-11T15:56:43Z</time></trkpt><trkpt lat="42.7170770737315" lon="12.725573944240818"><ele>395.0</ele><time>2026-04-11T15:56:44Z</time></trkpt><trkpt lat="42.71693602311932" lon="12.725393814485056"><ele>395.0</ele><time>2026-04-11T15:56:45Z</time></trkpt><trkpt lat="42.71679851213487" lon="12.725223798781228"><ele>395.0</ele><time>2026-04-11T15:56:46Z</time></trkpt><trkpt lat="42.71665797966139" lon="12.725056848939532"><ele>395.0</ele><time>2026-04-11T15:56:47Z</time></trkpt><trkpt lat="42.716520075834275" lon="12.724888951848746"><ele>395.0</ele><time>2026-04-11T15:56:48Z</time></trkpt><trkpt lat="42.71638344292211" lon="12.72471747310623"><ele>395.0</ele><time>2026-04-11T15:56:49Z</time></trkpt><trkpt lat="42.716246422876274" lon="12.72454302501316"><ele>395.0</ele><time>2026-04-11T15:56:50Z</time></trkpt><trkpt lat="42.71611249742306" lon="12.724366559019842"><ele>396.0</ele><time>2026-04-11T15:56:51Z</time></trkpt><trkpt lat="42.71597165407731" lon="12.724195749446466"><ele>397.0</ele><time>2026-04-11T15:56:52Z</time></trkpt><trkpt lat="42.71582963597738" lon="12.724023713030649"><ele>398.0</ele><time>2026-04-11T15:56:53Z</time></trkpt><trkpt lat="42.71568811383886" lon="12.723857320523186"><ele>398.0</ele><time>2026-04-11T15:56:54Z</time></trkpt><trkpt lat="42.71554415663863" lon="12.7236899458166"><ele>398.0</ele><time>2026-04-11T15:56:55Z</time></trkpt><trkpt lat="42.715402823159685" lon="12.723516966596485"><ele>398.0</ele><time>2026-04-11T15:56:56Z</time></trkpt><trkpt lat="42.71525538292642" lon="12.723350530064808"><ele>398.66666666666663</ele><time>2026-04-11T15:56:57Z</time></trkpt><trkpt lat="42.71510442659285" lon="12.723180787677128"><ele>399.33333333333337</ele><time>2026-04-11T15:56:58Z</time></trkpt><trkpt lat="42.71495449664134" lon="12.72301071687846"><ele>400.0</ele><time>2026-04-11T15:56:59Z</time></trkpt><trkpt lat="42.71480145506965" lon="12.722843732479406"><ele>400.6666666666667</ele><time>2026-04-11T15:57:00Z</time></trkpt><trkpt lat="42.714652929006895" lon="12.722667993604317"><ele>401.33333333333337</ele><time>2026-04-11T15:57:01Z</time></trkpt><trkpt lat="42.714510495246124" lon="12.722490562086755"><ele>402.0</ele><time>2026-04-11T15:57:02Z</time></trkpt><trkpt lat="42.71437975646198" lon="12.722317627307076"><ele>402.0</ele><time>2026-04-11T15:57:03Z</time></trkpt><trkpt lat="42.714254404632975" lon="12.722158464671208"><ele>402.0</ele><time>2026-04-11T15:57:04Z</time></trkpt><trkpt lat="42.71412678901305" lon="12.722002910851666"><ele>402.0</ele><time>2026-04-11T15:57:05Z</time></trkpt><trkpt lat="42.713995491599825" lon="12.721849942938059"><ele>406.0</ele><time>2026-04-11T15:57:06Z</time></trkpt><trkpt lat="42.713868728711915" lon="12.721695191987497"><ele>410.0</ele><time>2026-04-11T15:57:07Z</time></trkpt><trkpt lat="42.71374112405398" lon="12.721541137831268"><ele>414.0</ele><time>2026-04-11T15:57:08Z</time></trkpt><trkpt lat="42.713611974794965" lon="12.721389934264412"><ele>411.66666666666663</ele><time>2026-04-11T15:57:09Z</time></trkpt><trkpt lat="42.71348372290078" lon="12.721237394144561"><ele>409.3333333333333</ele><time>2026-04-11T15:57:10Z</time></trkpt><trkpt lat="42.7133599505885" lon="12.721085880503736"><ele>407.0</ele><time>2026-04-11T15:57:11Z</time></trkpt><trkpt lat="42.71323634159851" lon="12.720932854599711"><ele>407.0</ele><time>2026-04-11T15:57:12Z</time></trkpt><trkpt lat="42.7131118180113" lon="12.72078332625902"><ele>407.0</ele><time>2026-04-11T15:57:13Z</time></trkpt><trkpt lat="42.712979071988066" lon="12.720639637067224"><ele>407.0</ele><time>2026-04-11T15:57:14Z</time></trkpt><trkpt lat="42.71283978078159" lon="12.720504328716201"><ele>406.3333333333333</ele><time>2026-04-11T15:57:15Z</time></trkpt><trkpt lat="42.712687935807416" lon="12.720373142694152"><ele>405.66666666666663</ele><time>2026-04-11T15:57:16Z</time></trkpt><trkpt lat="42.71253158815619" lon="12.72025358081121"><ele>405.0</ele><time>2026-04-11T15:57:17Z</time></trkpt><trkpt lat="42.712371549252964" lon="12.720141326699018"><ele>405.33333333333337</ele><time>2026-04-11T15:57:18Z</time></trkpt><trkpt lat="42.712208637957815" lon="12.720044261853117"><ele>405.6666666666667</ele><time>2026-04-11T15:57:19Z</time></trkpt><trkpt lat="42.712041491274285" lon="12.719954038047604"><ele>406.0</ele><time>2026-04-11T15:57:20Z</time></trkpt><trkpt lat="42.711872898999324" lon="12.719872743302881"><ele>406.0</ele><time>2026-04-11T15:57:21Z</time></trkpt><trkpt lat="42.71170666444144" lon="12.719796131194837"><ele>406.0</ele><time>2026-04-11T15:57:22Z</time></trkpt><trkpt lat="42.71153936211089" lon="12.719729461635513"><ele>406.0</ele><time>2026-04-11T15:57:23Z</time></trkpt><trkpt lat="42.71137449919914" lon="12.719675161698843"><ele>406.0</ele><time>2026-04-11T15:57:24Z</time></trkpt><trkpt lat="42.711213164404874" lon="12.719632833607438"><ele>406.0</ele><time>2026-04-11T15:57:25Z</time></trkpt><trkpt lat="42.71105308695677" lon="12.719597578710967"><ele>406.0</ele><time>2026-04-11T15:57:26Z</time></trkpt><trkpt lat="42.71089231365103" lon="12.719559289746739"><ele>406.0</ele><time>2026-04-11T15:57:27Z</time></trkpt><trkpt lat="42.710730916591686" lon="12.71951820520494"><ele>406.0</ele><time>2026-04-11T15:57:28Z</time></trkpt><trkpt lat="42.71056774420654" lon="12.719480150267934"><ele>406.0</ele><time>2026-04-11T15:57:29Z</time></trkpt><trkpt lat="42.71040050311891" lon="12.719439704823449"><ele>407.0</ele><time>2026-04-11T15:57:30Z</time></trkpt><trkpt lat="42.71023276422019" lon="12.71939769986263"><ele>408.0</ele><time>2026-04-11T15:57:31Z</time></trkpt><trkpt lat="42.71006230834123" lon="12.719361904249556"><ele>409.0</ele><time>2026-04-11T15:57:32Z</time></trkpt><trkpt lat="42.70989146079591" lon="12.71932817241047"><ele>409.0</ele><time>2026-04-11T15:57:33Z</time></trkpt><trkpt lat="42.70972185098109" lon="12.71929338697521"><ele>409.0</ele><time>2026-04-11T15:57:34Z</time></trkpt><trkpt lat="42.70954883439661" lon="12.71925732605322"><ele>409.0</ele><time>2026-04-11T15:57:35Z</time></trkpt><trkpt lat="42.70937339813893" lon="12.719223316862184"><ele>409.6666666666667</ele><time>2026-04-11T15:57:36Z</time></trkpt><trkpt lat="42.70919377445257" lon="12.719190256302003"><ele>410.33333333333337</ele><time>2026-04-11T15:57:37Z</time></trkpt><trkpt lat="42.70901221817161" lon="12.719167118709969"><ele>411.0</ele><time>2026-04-11T15:57:38Z</time></trkpt><trkpt lat="42.70882762562779" lon="12.719157816052066"><ele>411.0</ele><time>2026-04-11T15:57:39Z</time></trkpt><trkpt lat="42.708639971783484" lon="12.719157144282574"><ele>411.0</ele><time>2026-04-11T15:57:40Z</time></trkpt><trkpt lat="42.70845421057959" lon="12.71917088130094"><ele>411.0</ele><time>2026-04-11T15:57:41Z</time></trkpt><trkpt lat="42.70826951841019" lon="12.719198211831298"><ele>412.0</ele><time>2026-04-11T15:57:42Z</time></trkpt><trkpt lat="42.70808467894249" lon="12.719237383422321"><ele>413.0</ele><time>2026-04-11T15:57:43Z</time></trkpt><trkpt lat="42.70790046584007" lon="12.719292866961105"><ele>414.0</ele><time>2026-04-11T15:57:44Z</time></trkpt><trkpt lat="42.70772132340195" lon="12.719360301902645"><ele>413.33333333333337</ele><time>2026-04-11T15:57:45Z</time></trkpt><trkpt lat="42.70754475053363" lon="12.719433043580029"><ele>412.6666666666667</ele><time>2026-04-11T15:57:46Z</time></trkpt><trkpt lat="42.707372587249715" lon="12.719511703050943"><ele>412.0</ele><time>2026-04-11T15:57:47Z</time></trkpt><trkpt lat="42.70720326235744" lon="12.719601362642425"><ele>412.0</ele><time>2026-04-11T15:57:48Z</time></trkpt><trkpt lat="42.70703632148312" lon="12.719698564109224"><ele>412.0</ele><time>2026-04-11T15:57:49Z</time></trkpt><trkpt lat="42.706871385934726" lon="12.719798399501638"><ele>412.0</ele><time>2026-04-11T15:57:50Z</time></trkpt><trkpt lat="42.70670284800664" lon="12.719903123708601"><ele>413.33333333333337</ele><time>2026-04-11T15:57:51Z</time></trkpt><trkpt lat="42.70653285941822" lon="12.720006393575918"><ele>414.66666666666663</ele><time>2026-04-11T15:57:52Z</time></trkpt><trkpt lat="42.706367320652696" lon="12.720102644219326"><ele>416.0</ele><time>2026-04-11T15:57:53Z</time></trkpt><trkpt lat="42.70620450242303" lon="12.72019900599977"><ele>416.66666666666663</ele><time>2026-04-11T15:57:54Z</time></trkpt><trkpt lat="42.70603836304322" lon="12.720301375790115"><ele>417.33333333333337</ele><time>2026-04-11T15:57:55Z</time></trkpt><trkpt lat="42.70587444424191" lon="12.720398143869662"><ele>418.0</ele><time>2026-04-11T15:57:56Z</time></trkpt><trkpt lat="42.70571162146613" lon="12.720499015202055"><ele>418.0</ele><time>2026-04-11T15:57:57Z</time></trkpt><trkpt lat="42.705539151038614" lon="12.72060011491235"><ele>418.0</ele><time>2026-04-11T15:57:58Z</time></trkpt><trkpt lat="42.705362363940964" lon="12.720700181011377"><ele>418.0</ele><time>2026-04-11T15:57:59Z</time></trkpt><trkpt lat="42.70518141942663" lon="12.720797436654648"><ele>418.6666666666667</ele><time>2026-04-11T15:58:00Z</time></trkpt><trkpt lat="42.70500287473527" lon="12.720902220228442"><ele>419.33333333333337</ele><time>2026-04-11T15:58:01Z</time></trkpt><trkpt lat="42.70481822242999" lon="12.721000673512972"><ele>420.0</ele><time>2026-04-11T15:58:02Z</time></trkpt><trkpt lat="42.704629368589345" lon="12.721102303488331"><ele>420.0</ele><time>2026-04-11T15:58:03Z</time></trkpt><trkpt lat="42.70445582196754" lon="12.721216378686307"><ele>420.0</ele><time>2026-04-11T15:58:04Z</time></trkpt><trkpt lat="42.70427950870158" lon="12.721313867471443"><ele>420.0</ele><time>2026-04-11T15:58:05Z</time></trkpt><trkpt lat="42.7040982305572" lon="12.721416218893156"><ele>421.33333333333337</ele><time>2026-04-11T15:58:06Z</time></trkpt><trkpt lat="42.703913107745635" lon="12.721520456716933"><ele>422.6666666666667</ele><time>2026-04-11T15:58:07Z</time></trkpt><trkpt lat="42.70373245928149" lon="12.721604178682819"><ele>424.0</ele><time>2026-04-11T15:58:08Z</time></trkpt><trkpt lat="42.70355829222013" lon="12.721702775948128"><ele>425.0</ele><time>2026-04-11T15:58:09Z</time></trkpt><trkpt lat="42.703381682544205" lon="12.721804913477389"><ele>426.0</ele><time>2026-04-11T15:58:10Z</time></trkpt><trkpt lat="42.70322058704611" lon="12.721912209141504"><ele>427.0</ele><time>2026-04-11T15:58:11Z</time></trkpt><trkpt lat="42.70306639096034" lon="12.722017559667336"><ele>427.0</ele><time>2026-04-11T15:58:12Z</time></trkpt><trkpt lat="42.70290627914545" lon="12.722123627052087"><ele>427.0</ele><time>2026-04-11T15:58:13Z</time></trkpt><trkpt lat="42.70273690144591" lon="12.722227210693886"><ele>427.0</ele><time>2026-04-11T15:58:14Z</time></trkpt><trkpt lat="42.70256962650413" lon="12.722333791790069"><ele>430.33333333333337</ele><time>2026-04-11T15:58:15Z</time></trkpt><trkpt lat="42.70239993298861" lon="12.722441153323617"><ele>433.66666666666663</ele><time>2026-04-11T15:58:16Z</time></trkpt><trkpt lat="42.70222979179081" lon="12.72254813999326"><ele>437.0</ele><time>2026-04-11T15:58:17Z</time></trkpt><trkpt lat="42.70205925666706" lon="12.722650016529261"><ele>434.66666666666663</ele><time>2026-04-11T15:58:18Z</time></trkpt><trkpt lat="42.701886276977156" lon="12.722759755809802"><ele>432.33333333333337</ele><time>2026-04-11T15:58:19Z</time></trkpt><trkpt lat="42.701704474968665" lon="12.722867731247533"><ele>430.0</ele><time>2026-04-11T15:58:20Z</time></trkpt><trkpt lat="42.701504003990145" lon="12.722965586725614"><ele>430.0</ele><time>2026-04-11T15:58:21Z</time></trkpt><trkpt lat="42.701294257090765" lon="12.723056173612596"><ele>430.0</ele><time>2026-04-11T15:58:22Z</time></trkpt><trkpt lat="42.70108612123491" lon="12.723122275226043"><ele>430.0</ele><time>2026-04-11T15:58:23Z</time></trkpt><trkpt lat="42.70088010885709" lon="12.723167394991332"><ele>432.6666666666667</ele><time>2026-04-11T15:58:24Z</time></trkpt><trkpt lat="42.700677101635065" lon="12.723195382012197"><ele>435.33333333333337</ele><time>2026-04-11T15:58:25Z</time></trkpt><trkpt lat="42.70047422349611" lon="12.723197612569043"><ele>438.0</ele><time>2026-04-11T15:58:26Z</time></trkpt><trkpt lat="42.7002747429463" lon="12.723170701962005"><ele>438.66666666666663</ele><time>2026-04-11T15:58:27Z</time></trkpt><trkpt lat="42.70008576402197" lon="12.723111810705335"><ele>439.3333333333333</ele><time>2026-04-11T15:58:28Z</time></trkpt><trkpt lat="42.69989958816881" lon="12.723041853726013"><ele>440.0</ele><time>2026-04-11T15:58:29Z</time></trkpt><trkpt lat="42.69971862045136" lon="12.72296464651097"><ele>440.0</ele><time>2026-04-11T15:58:30Z</time></trkpt><trkpt lat="42.69953497377461" lon="12.72288675548729"><ele>440.0</ele><time>2026-04-11T15:58:31Z</time></trkpt><trkpt lat="42.699352418745576" lon="12.722823213302442"><ele>440.0</ele><time>2026-04-11T15:58:32Z</time></trkpt><trkpt lat="42.699146357247486" lon="12.722805269063153"><ele>438.66666666666663</ele><time>2026-04-11T15:58:33Z</time></trkpt><trkpt lat="42.698969827052764" lon="12.722753494239779"><ele>437.33333333333337</ele><time>2026-04-11T15:58:34Z</time></trkpt><trkpt lat="42.69879935975224" lon="12.722691219978032"><ele>436.0</ele><time>2026-04-11T15:58:35Z</time></trkpt><trkpt lat="42.69863368348831" lon="12.722630573984118"><ele>440.0</ele><time>2026-04-11T15:58:36Z</time></trkpt><trkpt lat="42.69847126827472" lon="12.722569026826443"><ele>444.0</ele><time>2026-04-11T15:58:37Z</time></trkpt><trkpt lat="42.698313446930214" lon="12.722502720681547"><ele>448.0</ele><time>2026-04-11T15:58:38Z</time></trkpt><trkpt lat="42.6981529047392" lon="12.722448363556712"><ele>448.0</ele><time>2026-04-11T15:58:39Z</time></trkpt><trkpt lat="42.69798660787064" lon="12.722400393144431"><ele>448.0</ele><time>2026-04-11T15:58:40Z</time></trkpt><trkpt lat="42.697817178634935" lon="12.722354773078044"><ele>448.0</ele><time>2026-04-11T15:58:41Z</time></trkpt><trkpt lat="42.69764373173158" lon="12.72231413083205"><ele>448.6666666666667</ele><time>2026-04-11T15:58:42Z</time></trkpt><trkpt lat="42.69746422176757" lon="12.722280082221529"><ele>449.33333333333337</ele><time>2026-04-11T15:58:43Z</time></trkpt><trkpt lat="42.697285439132315" lon="12.722245271309008"><ele>450.0</ele><time>2026-04-11T15:58:44Z</time></trkpt><trkpt lat="42.69710606353846" lon="12.722204388969855"><ele>450.0</ele><time>2026-04-11T15:58:45Z</time></trkpt><trkpt lat="42.696925553168406" lon="12.7221680601965"><ele>450.0</ele><time>2026-04-11T15:58:46Z</time></trkpt><trkpt lat="42.69674076375288" lon="12.722143294793419"><ele>450.0</ele><time>2026-04-11T15:58:47Z</time></trkpt><trkpt lat="42.696553700128156" lon="12.722112575571746"><ele>450.0</ele><time>2026-04-11T15:58:48Z</time></trkpt><trkpt lat="42.69636680863076" lon="12.722078504085045"><ele>450.0</ele><time>2026-04-11T15:58:49Z</time></trkpt><trkpt lat="42.696179791225305" lon="12.72205166567367"><ele>450.0</ele><time>2026-04-11T15:58:50Z</time></trkpt><trkpt lat="42.695995512302844" lon="12.722025551905054"><ele>450.0</ele><time>2026-04-11T15:58:51Z</time></trkpt><trkpt lat="42.695811119171054" lon="12.72199823247257"><ele>450.0</ele><time>2026-04-11T15:58:52Z</time></trkpt><trkpt lat="42.695627607435874" lon="12.721971098999328"><ele>450.0</ele><time>2026-04-11T15:58:53Z</time></trkpt><trkpt lat="42.69544051048306" lon="12.721944946660356"><ele>450.0</ele><time>2026-04-11T15:58:54Z</time></trkpt><trkpt lat="42.695256541149355" lon="12.721921785805304"><ele>450.0</ele><time>2026-04-11T15:58:55Z</time></trkpt><trkpt lat="42.69507326327554" lon="12.721900482713842"><ele>450.0</ele><time>2026-04-11T15:58:56Z</time></trkpt><trkpt lat="42.694891304001466" lon="12.721850158223829"><ele>452.33333333333337</ele><time>2026-04-11T15:58:57Z</time></trkpt><trkpt lat="42.6947031059573" lon="12.721837955612008"><ele>454.6666666666667</ele><time>2026-04-11T15:58:58Z</time></trkpt><trkpt lat="42.69451635001426" lon="12.72180878227037"><ele>457.0</ele><time>2026-04-11T15:58:59Z</time></trkpt><trkpt lat="42.69433144495386" lon="12.721774606791852"><ele>460.0</ele><time>2026-04-11T15:59:00Z</time></trkpt><trkpt lat="42.69414756372433" lon="12.721739497494958"><ele>463.0</ele><time>2026-04-11T15:59:00.999Z</time></trkpt><trkpt lat="42.69396324658186" lon="12.721708329535074"><ele>466.0</ele><time>2026-04-11T15:59:01.999Z</time></trkpt><trkpt lat="42.69377554128939" lon="12.721675439196403"><ele>470.0</ele><time>2026-04-11T15:59:02.999Z</time></trkpt><trkpt lat="42.69358376268887" lon="12.721646631245"><ele>474.0</ele><time>2026-04-11T15:59:03.999Z</time></trkpt><trkpt lat="42.6933955074005" lon="12.72161280095408"><ele>478.0</ele><time>2026-04-11T15:59:04.999Z</time></trkpt><trkpt lat="42.693206438544614" lon="12.721574253007326"><ele>478.0</ele><time>2026-04-11T15:59:05.999Z</time></trkpt><trkpt lat="42.69301559004605" lon="12.72153754432356"><ele>478.0</ele><time>2026-04-11T15:59:06.999Z</time></trkpt><trkpt lat="42.69282368832444" lon="12.721507016597418"><ele>478.0</ele><time>2026-04-11T15:59:07.999Z</time></trkpt><trkpt lat="42.692631170509415" lon="12.72147614295299"><ele>478.0</ele><time>2026-04-11T15:59:08.999Z</time></trkpt><trkpt lat="42.69244257835085" lon="12.721443245291402"><ele>478.0</ele><time>2026-04-11T15:59:09.999Z</time></trkpt><trkpt lat="42.69225164991374" lon="12.721412675799298"><ele>478.0</ele><time>2026-04-11T15:59:10.999Z</time></trkpt><trkpt lat="42.69205445430362" lon="12.721385876838212"><ele>479.6666666666667</ele><time>2026-04-11T15:59:11.999Z</time></trkpt><trkpt lat="42.6918626781093" lon="12.721368162303316"><ele>481.33333333333337</ele><time>2026-04-11T15:59:12.999Z</time></trkpt><trkpt lat="42.69166673557194" lon="12.721363111132321"><ele>483.0</ele><time>2026-04-11T15:59:14Z</time></trkpt><trkpt lat="42.69147620530679" lon="12.721384561447879"><ele>483.0</ele><time>2026-04-11T15:59:15Z</time></trkpt><trkpt lat="42.69129192239885" lon="12.721430796334452"><ele>483.0</ele><time>2026-04-11T15:59:16Z</time></trkpt><trkpt lat="42.69110547420125" lon="12.721493350660841"><ele>483.0</ele><time>2026-04-11T15:59:17Z</time></trkpt><trkpt lat="42.69091981254005" lon="12.721557571015591"><ele>486.0</ele><time>2026-04-11T15:59:18Z</time></trkpt><trkpt lat="42.690733853785225" lon="12.721625011695634"><ele>489.0</ele><time>2026-04-11T15:59:19Z</time></trkpt><trkpt lat="42.690550232485826" lon="12.721689875673542"><ele>492.0</ele><time>2026-04-11T15:59:20Z</time></trkpt><trkpt lat="42.69036788227693" lon="12.721753115286143"><ele>486.66666666666663</ele><time>2026-04-11T15:59:21Z</time></trkpt><trkpt lat="42.690186839340186" lon="12.72181931699202"><ele>481.3333333333333</ele><time>2026-04-11T15:59:22Z</time></trkpt><trkpt lat="42.69000739140539" lon="12.721891156452257"><ele>476.0</ele><time>2026-04-11T15:59:23Z</time></trkpt><trkpt lat="42.6898316766426" lon="12.72198923900598"><ele>476.0</ele><time>2026-04-11T15:59:24Z</time></trkpt><trkpt lat="42.68966539589107" lon="12.722114350438382"><ele>476.0</ele><time>2026-04-11T15:59:25Z</time></trkpt><trkpt lat="42.689502863527515" lon="12.722281281594103"><ele>476.0</ele><time>2026-04-11T15:59:26Z</time></trkpt><trkpt lat="42.68935916668617" lon="12.722478260191997"><ele>479.3333333333333</ele><time>2026-04-11T15:59:27Z</time></trkpt><trkpt lat="42.689231600205005" lon="12.722696032182187"><ele>482.66666666666663</ele><time>2026-04-11T15:59:28Z</time></trkpt><trkpt lat="42.68910361452002" lon="12.722930065798193"><ele>486.0</ele><time>2026-04-11T15:59:29Z</time></trkpt><trkpt lat="42.6889513455842" lon="12.723151651225402"><ele>486.0</ele><time>2026-04-11T15:59:30Z</time></trkpt><trkpt lat="42.68876375179664" lon="12.723340148018266"><ele>486.0</ele><time>2026-04-11T15:59:31Z</time></trkpt><trkpt lat="42.68849114787252" lon="12.723425928403039"><ele>494.0</ele><time>2026-04-11T15:59:32Z</time></trkpt><trkpt lat="42.688283282513005" lon="12.723623717680997"><ele>502.0</ele><time>2026-04-11T15:59:33Z</time></trkpt><trkpt lat="42.68807998366538" lon="12.723803776692616"><ele>502.0</ele><time>2026-04-11T15:59:34Z</time></trkpt><trkpt lat="42.68787001079598" lon="12.723994127505016"><ele>502.0</ele><time>2026-04-11T15:59:35Z</time></trkpt><trkpt lat="42.688052859293755" lon="12.724521640767955"><ele>503.33333333333337</ele><time>2026-04-11T15:59:37Z</time></trkpt><trkpt lat="42.68789237149076" lon="12.724667041090102"><ele>504.66666666666663</ele><time>2026-04-11T15:59:38Z</time></trkpt><trkpt lat="42.68772115232256" lon="12.724791982274937"><ele>506.0</ele><time>2026-04-11T15:59:39Z</time></trkpt><trkpt lat="42.68753337903746" lon="12.724853305629134"><ele>506.0</ele><time>2026-04-11T15:59:40Z</time></trkpt><trkpt lat="42.687347721942174" lon="12.724920690206934"><ele>506.0</ele><time>2026-04-11T15:59:41Z</time></trkpt><trkpt lat="42.68714572935729" lon="12.724989389155976"><ele>506.0</ele><time>2026-04-11T15:59:42Z</time></trkpt><trkpt lat="42.68694624401569" lon="12.725080023661079"><ele>510.66666666666663</ele><time>2026-04-11T15:59:43Z</time></trkpt><trkpt lat="42.68674638451808" lon="12.725147215217243"><ele>515.3333333333334</ele><time>2026-04-11T15:59:44Z</time></trkpt><trkpt lat="42.68654567536474" lon="12.725216645769356"><ele>520.0</ele><time>2026-04-11T15:59:45Z</time></trkpt><trkpt lat="42.686342772140826" lon="12.725283794557939"><ele>508.33333333333337</ele><time>2026-04-11T15:59:46Z</time></trkpt><trkpt lat="42.6861426557018" lon="12.725350515416423"><ele>496.66666666666663</ele><time>2026-04-11T15:59:47Z</time></trkpt><trkpt lat="42.68594754351041" lon="12.72541960844172"><ele>485.0</ele><time>2026-04-11T15:59:48Z</time></trkpt><trkpt lat="42.68575343576664" lon="12.725498453502128"><ele>485.0</ele><time>2026-04-11T15:59:49Z</time></trkpt><trkpt lat="42.685565381669214" lon="12.725574949553993"><ele>485.0</ele><time>2026-04-11T15:59:50Z</time></trkpt><trkpt lat="42.68538055195836" lon="12.725669209116251"><ele>485.0</ele><time>2026-04-11T15:59:51Z</time></trkpt><trkpt lat="42.68520020074193" lon="12.725780814033731"><ele>486.3333333333333</ele><time>2026-04-11T15:59:52Z</time></trkpt><trkpt lat="42.68502531417609" lon="12.725901211107312"><ele>487.66666666666663</ele><time>2026-04-11T15:59:53Z</time></trkpt><trkpt lat="42.684854279076255" lon="12.726027647362042"><ele>489.0</ele><time>2026-04-11T15:59:54Z</time></trkpt><trkpt lat="42.68467950783175" lon="12.726145422226914"><ele>489.0</ele><time>2026-04-11T15:59:55Z</time></trkpt><trkpt lat="42.6845055373087" lon="12.726257716895908"><ele>489.0</ele><time>2026-04-11T15:59:56Z</time></trkpt><trkpt lat="42.68432874733264" lon="12.726367629914137"><ele>489.0</ele><time>2026-04-11T15:59:57Z</time></trkpt><trkpt lat="42.68415716622773" lon="12.726474314475395"><ele>496.33333333333337</ele><time>2026-04-11T15:59:58Z</time></trkpt><trkpt lat="42.68400623288216" lon="12.726602230855649"><ele>503.6666666666667</ele><time>2026-04-11T15:59:59Z</time></trkpt><trkpt lat="42.683837373644835" lon="12.726702458165676"><ele>511.0</ele><time>2026-04-11T16:00:00Z</time></trkpt><trkpt lat="42.68366603030585" lon="12.726797594932451"><ele>509.6666666666667</ele><time>2026-04-11T16:00:01Z</time></trkpt><trkpt lat="42.6834867910697" lon="12.726873777292395"><ele>508.33333333333337</ele><time>2026-04-11T16:00:02Z</time></trkpt><trkpt lat="42.68330036015513" lon="12.72692618579586"><ele>507.0</ele><time>2026-04-11T16:00:03Z</time></trkpt><trkpt lat="42.683114049709566" lon="12.72695875343044"><ele>507.0</ele><time>2026-04-11T16:00:04Z</time></trkpt><trkpt lat="42.6829223980203" lon="12.7269679767904"><ele>507.0</ele><time>2026-04-11T16:00:05Z</time></trkpt><trkpt lat="42.68273159689244" lon="12.726973488500171"><ele>507.0</ele><time>2026-04-11T16:00:06Z</time></trkpt><trkpt lat="42.68254066980903" lon="12.726965736147015"><ele>509.33333333333337</ele><time>2026-04-11T16:00:07Z</time></trkpt><trkpt lat="42.682351293532825" lon="12.726958669530148"><ele>511.6666666666667</ele><time>2026-04-11T16:00:08Z</time></trkpt><trkpt lat="42.68216768361496" lon="12.726936155728138"><ele>514.0</ele><time>2026-04-11T16:00:09Z</time></trkpt><trkpt lat="42.68198113870177" lon="12.726937916196286"><ele>515.0</ele><time>2026-04-11T16:00:10Z</time></trkpt><trkpt lat="42.68179538105483" lon="12.726940246378273"><ele>516.0</ele><time>2026-04-11T16:00:11Z</time></trkpt><trkpt lat="42.68161394099723" lon="12.72693702381311"><ele>517.0</ele><time>2026-04-11T16:00:12Z</time></trkpt><trkpt lat="42.68143626213013" lon="12.726936095643044"><ele>517.0</ele><time>2026-04-11T16:00:13Z</time></trkpt><trkpt lat="42.68125827431997" lon="12.726908209969189"><ele>517.0</ele><time>2026-04-11T16:00:14Z</time></trkpt><trkpt lat="42.68108634567105" lon="12.726862859727037"><ele>517.0</ele><time>2026-04-11T16:00:15Z</time></trkpt><trkpt lat="42.68091171184224" lon="12.72679652935053"><ele>524.3333333333334</ele><time>2026-04-11T16:00:16Z</time></trkpt><trkpt lat="42.680739914678846" lon="12.726721980301622"><ele>531.6666666666666</ele><time>2026-04-11T16:00:17Z</time></trkpt><trkpt lat="42.68056641840854" lon="12.726633914659772"><ele>539.0</ele><time>2026-04-11T16:00:18Z</time></trkpt><trkpt lat="42.68039679209103" lon="12.726538676168758"><ele>537.0</ele><time>2026-04-11T16:00:19Z</time></trkpt><trkpt lat="42.68022494897737" lon="12.726436829128701"><ele>535.0</ele><time>2026-04-11T16:00:20Z</time></trkpt><trkpt lat="42.68005201130799" lon="12.72633435085512"><ele>533.0</ele><time>2026-04-11T16:00:21Z</time></trkpt><trkpt lat="42.67987056532112" lon="12.726240324298212"><ele>533.0</ele><time>2026-04-11T16:00:22Z</time></trkpt><trkpt lat="42.67969386633139" lon="12.726149551022186"><ele>533.0</ele><time>2026-04-11T16:00:23Z</time></trkpt><trkpt lat="42.67951320840952" lon="12.726059070876092"><ele>533.0</ele><time>2026-04-11T16:00:24Z</time></trkpt><trkpt lat="42.67933056354467" lon="12.725982614519152"><ele>540.6666666666666</ele><time>2026-04-11T16:00:25Z</time></trkpt><trkpt lat="42.679143721292334" lon="12.72590741277533"><ele>548.3333333333334</ele><time>2026-04-11T16:00:26Z</time></trkpt><trkpt lat="42.678948341591784" lon="12.725851319811865"><ele>556.0</ele><time>2026-04-11T16:00:27Z</time></trkpt><trkpt lat="42.67875619600956" lon="12.725807136412223"><ele>553.6666666666667</ele><time>2026-04-11T16:00:28Z</time></trkpt><trkpt lat="42.67856349663558" lon="12.725768620027226"><ele>551.3333333333334</ele><time>2026-04-11T16:00:29Z</time></trkpt><trkpt lat="42.67837460122852" lon="12.725724316416771"><ele>549.0</ele><time>2026-04-11T16:00:30Z</time></trkpt><trkpt lat="42.67818621996508" lon="12.725672283690125"><ele>549.0</ele><time>2026-04-11T16:00:31Z</time></trkpt><trkpt lat="42.67799603499951" lon="12.725626762461978"><ele>549.0</ele><time>2026-04-11T16:00:32Z</time></trkpt><trkpt lat="42.677808937310296" lon="12.725583613738706"><ele>549.0</ele><time>2026-04-11T16:00:33Z</time></trkpt><trkpt lat="42.677620448388915" lon="12.725541816374832"><ele>548.3333333333334</ele><time>2026-04-11T16:00:34Z</time></trkpt><trkpt lat="42.67743474705141" lon="12.725517671035186"><ele>547.6666666666667</ele><time>2026-04-11T16:00:35Z</time></trkpt><trkpt lat="42.67724551897236" lon="12.725464615472479"><ele>547.0</ele><time>2026-04-11T16:00:36Z</time></trkpt><trkpt lat="42.67705654638851" lon="12.725421735794077"><ele>546.3333333333334</ele><time>2026-04-11T16:00:37Z</time></trkpt><trkpt lat="42.67686726198843" lon="12.725383783366043"><ele>545.6666666666666</ele><time>2026-04-11T16:00:38Z</time></trkpt><trkpt lat="42.67668150804452" lon="12.72536470814988"><ele>545.0</ele><time>2026-04-11T16:00:39Z</time></trkpt><trkpt lat="42.67648948236511" lon="12.725380606620398"><ele>545.0</ele><time>2026-04-11T16:00:40Z</time></trkpt><trkpt lat="42.676298675905684" lon="12.725414598617768"><ele>545.0</ele><time>2026-04-11T16:00:41Z</time></trkpt><trkpt lat="42.6761064443114" lon="12.725471763895193"><ele>545.0</ele><time>2026-04-11T16:00:42Z</time></trkpt><trkpt lat="42.675921594462594" lon="12.725545099189228"><ele>548.0</ele><time>2026-04-11T16:00:43Z</time></trkpt><trkpt lat="42.67573949721205" lon="12.725639516117955"><ele>551.0</ele><time>2026-04-11T16:00:44Z</time></trkpt><trkpt lat="42.67556352273797" lon="12.725744509015527"><ele>554.0</ele><time>2026-04-11T16:00:45Z</time></trkpt><trkpt lat="42.675384399938714" lon="12.725840767665721"><ele>555.3333333333333</ele><time>2026-04-11T16:00:46Z</time></trkpt><trkpt lat="42.675206819944854" lon="12.725935639136303"><ele>556.6666666666666</ele><time>2026-04-11T16:00:47Z</time></trkpt><trkpt lat="42.67502756027488" lon="12.726031510417286"><ele>558.0</ele><time>2026-04-11T16:00:48Z</time></trkpt><trkpt lat="42.67484847569848" lon="12.726132081642813"><ele>564.3333333333334</ele><time>2026-04-11T16:00:49Z</time></trkpt><trkpt lat="42.674671634845055" lon="12.726228388794926"><ele>570.6666666666667</ele><time>2026-04-11T16:00:50Z</time></trkpt><trkpt lat="42.674494450828206" lon="12.726327075411596"><ele>577.0</ele><time>2026-04-11T16:00:51Z</time></trkpt><trkpt lat="42.67431760234545" lon="12.72642610592177"><ele>577.0</ele><time>2026-04-11T16:00:52Z</time></trkpt><trkpt lat="42.674140402531805" lon="12.726516527215056"><ele>577.0</ele><time>2026-04-11T16:00:53Z</time></trkpt><trkpt lat="42.67396616742287" lon="12.726604029685744"><ele>577.0</ele><time>2026-04-11T16:00:54Z</time></trkpt><trkpt lat="42.67379637155216" lon="12.726705902429382"><ele>577.0</ele><time>2026-04-11T16:00:55Z</time></trkpt><trkpt lat="42.67362738318095" lon="12.726801519596702"><ele>577.0</ele><time>2026-04-11T16:00:56Z</time></trkpt><trkpt lat="42.67347339582471" lon="12.726895462825748"><ele>577.0</ele><time>2026-04-11T16:00:57Z</time></trkpt><trkpt lat="42.6733170715724" lon="12.727001221963734"><ele>580.0</ele><time>2026-04-11T16:00:58Z</time></trkpt><trkpt lat="42.67316681471181" lon="12.72711728765874"><ele>583.0</ele><time>2026-04-11T16:00:59Z</time></trkpt><trkpt lat="42.67302179992978" lon="12.727251148876084"><ele>586.0</ele><time>2026-04-11T16:01:00Z</time></trkpt><trkpt lat="42.67288538570986" lon="12.727398755451452"><ele>584.6666666666667</ele><time>2026-04-11T16:01:01Z</time></trkpt><trkpt lat="42.6727467943666" lon="12.727558614266025"><ele>583.3333333333334</ele><time>2026-04-11T16:01:02Z</time></trkpt><trkpt lat="42.67262032523751" lon="12.727727212947766"><ele>582.0</ele><time>2026-04-11T16:01:03Z</time></trkpt><trkpt lat="42.67249842355507" lon="12.727905770086396"><ele>582.0</ele><time>2026-04-11T16:01:04Z</time></trkpt><trkpt lat="42.67237230104005" lon="12.728083894943637"><ele>582.0</ele><time>2026-04-11T16:01:05Z</time></trkpt><trkpt lat="42.672241995785996" lon="12.728255677882665"><ele>582.0</ele><time>2026-04-11T16:01:06Z</time></trkpt><trkpt lat="42.67209485598111" lon="12.728398322823587"><ele>583.3333333333334</ele><time>2026-04-11T16:01:07Z</time></trkpt><trkpt lat="42.67193549871146" lon="12.728509547652024"><ele>584.6666666666667</ele><time>2026-04-11T16:01:08Z</time></trkpt><trkpt lat="42.67176264573738" lon="12.72859898455432"><ele>586.0</ele><time>2026-04-11T16:01:09Z</time></trkpt><trkpt lat="42.67157609578355" lon="12.728664605510398"><ele>586.0</ele><time>2026-04-11T16:01:10Z</time></trkpt><trkpt lat="42.671389645714065" lon="12.728689223749248"><ele>586.0</ele><time>2026-04-11T16:01:10.999Z</time></trkpt><trkpt lat="42.671195792210035" lon="12.728691988517335"><ele>586.0</ele><time>2026-04-11T16:01:11.999Z</time></trkpt><trkpt lat="42.67101269590819" lon="12.728703589101467"><ele>591.3333333333334</ele><time>2026-04-11T16:01:12.999Z</time></trkpt><trkpt lat="42.670841130128416" lon="12.728736826716935"><ele>596.6666666666666</ele><time>2026-04-11T16:01:13.999Z</time></trkpt><trkpt lat="42.67069174057491" lon="12.728795717061583"><ele>602.0</ele><time>2026-04-11T16:01:14.999Z</time></trkpt><trkpt lat="42.67054364337865" lon="12.728864249502358"><ele>602.0</ele><time>2026-04-11T16:01:15.999Z</time></trkpt><trkpt lat="42.67040808706157" lon="12.728976293556473"><ele>602.0</ele><time>2026-04-11T16:01:16.999Z</time></trkpt><trkpt lat="42.67028017990211" lon="12.729106660258124"><ele>602.0</ele><time>2026-04-11T16:01:17.999Z</time></trkpt><trkpt lat="42.67015996530187" lon="12.729249615642079"><ele>603.3333333333333</ele><time>2026-04-11T16:01:18.999Z</time></trkpt><trkpt lat="42.670043330767705" lon="12.729417614503518"><ele>604.6666666666666</ele><time>2026-04-11T16:01:20Z</time></trkpt><trkpt lat="42.669941347798414" lon="12.729603549935792"><ele>606.0</ele><time>2026-04-11T16:01:21Z</time></trkpt><trkpt lat="42.66985845209072" lon="12.729800588088018"><ele>606.0</ele><time>2026-04-11T16:01:22Z</time></trkpt><trkpt lat="42.66978685810298" lon="12.730016114968361"><ele>606.0</ele><time>2026-04-11T16:01:23Z</time></trkpt><trkpt lat="42.66972353868797" lon="12.730249271130411"><ele>606.0</ele><time>2026-04-11T16:01:24Z</time></trkpt><trkpt lat="42.669665662854435" lon="12.73047578976473"><ele>611.3333333333334</ele><time>2026-04-11T16:01:25Z</time></trkpt><trkpt lat="42.66960504326355" lon="12.730697272702116"><ele>616.6666666666667</ele><time>2026-04-11T16:01:26Z</time></trkpt><trkpt lat="42.6695360520928" lon="12.730907265481672"><ele>622.0</ele><time>2026-04-11T16:01:27Z</time></trkpt><trkpt lat="42.66946714129629" lon="12.731120786250843"><ele>617.6666666666667</ele><time>2026-04-11T16:01:28Z</time></trkpt><trkpt lat="42.66939251208829" lon="12.731319752682255"><ele>613.3333333333334</ele><time>2026-04-11T16:01:29Z</time></trkpt><trkpt lat="42.66933169461303" lon="12.731526201140145"><ele>609.0</ele><time>2026-04-11T16:01:30Z</time></trkpt><trkpt lat="42.66927240508924" lon="12.73173531389417"><ele>610.75</ele><time>2026-04-11T16:01:31Z</time></trkpt><trkpt lat="42.66921100413194" lon="12.731938255666343"><ele>612.5</ele><time>2026-04-11T16:01:32Z</time></trkpt><trkpt lat="42.66915270707848" lon="12.732123150174381"><ele>614.25</ele><time>2026-04-11T16:01:33Z</time></trkpt><trkpt lat="42.66909530146796" lon="12.73229443016501"><ele>616.0</ele><time>2026-04-11T16:01:34Z</time></trkpt><trkpt lat="42.66904391243944" lon="12.73246783908605"><ele>616.0</ele><time>2026-04-11T16:01:35Z</time></trkpt><trkpt lat="42.66898423037567" lon="12.732642434002637"><ele>616.0</ele><time>2026-04-11T16:01:36Z</time></trkpt><trkpt lat="42.668919617165336" lon="12.73280608993176"><ele>616.0</ele><time>2026-04-11T16:01:37Z</time></trkpt><trkpt lat="42.668842324419515" lon="12.73296310509876"><ele>616.0</ele><time>2026-04-11T16:01:38Z</time></trkpt><trkpt lat="42.66875800729565" lon="12.733117307359292"><ele>617.25</ele><time>2026-04-11T16:01:39Z</time></trkpt><trkpt lat="42.66866079366078" lon="12.733270077635924"><ele>618.5</ele><time>2026-04-11T16:01:40Z</time></trkpt><trkpt lat="42.66855949573103" lon="12.733417406650327"><ele>619.75</ele><time>2026-04-11T16:01:41Z</time></trkpt><trkpt lat="42.66845565677347" lon="12.733565238371515"><ele>621.0</ele><time>2026-04-11T16:01:42Z</time></trkpt><trkpt lat="42.668354302334016" lon="12.73371979526222"><ele>621.5</ele><time>2026-04-11T16:01:43Z</time></trkpt><trkpt lat="42.668253397521866" lon="12.73387746458804"><ele>622.0</ele><time>2026-04-11T16:01:44Z</time></trkpt><trkpt lat="42.668159349843194" lon="12.734027469923708"><ele>622.5</ele><time>2026-04-11T16:01:45Z</time></trkpt><trkpt lat="42.668064987681" lon="12.734166871380458"><ele>623.0</ele><time>2026-04-11T16:01:46Z</time></trkpt><trkpt lat="42.66797007987811" lon="12.734304581673953"><ele>624.5</ele><time>2026-04-11T16:01:47Z</time></trkpt><trkpt lat="42.667871056604255" lon="12.734443324568163"><ele>626.0</ele><time>2026-04-11T16:01:48Z</time></trkpt><trkpt lat="42.66777356749171" lon="12.73458706622796"><ele>627.5</ele><time>2026-04-11T16:01:49Z</time></trkpt><trkpt lat="42.667679028986086" lon="12.734733024750497"><ele>629.0</ele><time>2026-04-11T16:01:50Z</time></trkpt><trkpt lat="42.66758372135283" lon="12.734876256197538"><ele>629.0</ele><time>2026-04-11T16:01:51Z</time></trkpt><trkpt lat="42.66749271932133" lon="12.735013724256309"><ele>629.0</ele><time>2026-04-11T16:01:52Z</time></trkpt><trkpt lat="42.6674005994982" lon="12.735123869464168"><ele>629.0</ele><time>2026-04-11T16:01:53Z</time></trkpt><trkpt lat="42.66728725240763" lon="12.735185237098325"><ele>629.0</ele><time>2026-04-11T16:01:54Z</time></trkpt><trkpt lat="42.66717628024267" lon="12.735236040519881"><ele>630.0</ele><time>2026-04-11T16:01:55Z</time></trkpt><trkpt lat="42.66705488695281" lon="12.7352397896261"><ele>631.0</ele><time>2026-04-11T16:01:56Z</time></trkpt><trkpt lat="42.66692911201056" lon="12.735217264758496"><ele>632.0</ele><time>2026-04-11T16:01:57Z</time></trkpt><trkpt lat="42.666793796596764" lon="12.735162729483797"><ele>633.0</ele><time>2026-04-11T16:01:58Z</time></trkpt><trkpt lat="42.66668437901005" lon="12.735068189319822"><ele>633.0</ele><time>2026-04-11T16:01:59Z</time></trkpt><trkpt lat="42.66659180532466" lon="12.734949721677078"><ele>633.0</ele><time>2026-04-11T16:02:00Z</time></trkpt><trkpt lat="42.666519227668076" lon="12.7347980675602"><ele>633.0</ele><time>2026-04-11T16:02:01Z</time></trkpt><trkpt lat="42.66647006311046" lon="12.734634232614502"><ele>633.0</ele><time>2026-04-11T16:02:02Z</time></trkpt><trkpt lat="42.66644777484791" lon="12.734455876149374"><ele>633.75</ele><time>2026-04-11T16:02:03Z</time></trkpt><trkpt lat="42.66645164685412" lon="12.73427959510478"><ele>634.5</ele><time>2026-04-11T16:02:04Z</time></trkpt><trkpt lat="42.666490835084524" lon="12.734117123674439"><ele>635.25</ele><time>2026-04-11T16:02:05Z</time></trkpt><trkpt lat="42.66654864610904" lon="12.733966209943297"><ele>636.0</ele><time>2026-04-11T16:02:06Z</time></trkpt><trkpt lat="42.66662961220177" lon="12.733838606601559"><ele>636.0</ele><time>2026-04-11T16:02:07Z</time></trkpt><trkpt lat="42.66672448977187" lon="12.733713271458976"><ele>636.0</ele><time>2026-04-11T16:02:08Z</time></trkpt><trkpt lat="42.66682488404875" lon="12.733579165572433"><ele>636.0</ele><time>2026-04-11T16:02:09Z</time></trkpt><trkpt lat="42.666935479200355" lon="12.73345523545428"><ele>636.0</ele><time>2026-04-11T16:02:10Z</time></trkpt><trkpt lat="42.66704419792817" lon="12.733342549720685"><ele>636.25</ele><time>2026-04-11T16:02:11Z</time></trkpt><trkpt lat="42.667154549849656" lon="12.733214710181835"><ele>636.5</ele><time>2026-04-11T16:02:12Z</time></trkpt><trkpt lat="42.667260275502" lon="12.733092898714462"><ele>636.75</ele><time>2026-04-11T16:02:13Z</time></trkpt><trkpt lat="42.667365985752745" lon="12.732973392174726"><ele>637.0</ele><time>2026-04-11T16:02:14Z</time></trkpt><trkpt lat="42.667477320485304" lon="12.732851066583505"><ele>634.5</ele><time>2026-04-11T16:02:15Z</time></trkpt><trkpt lat="42.66758419132978" lon="12.73271998051985"><ele>632.0</ele><time>2026-04-11T16:02:16Z</time></trkpt><trkpt lat="42.66768270316307" lon="12.732577835873803"><ele>629.5</ele><time>2026-04-11T16:02:17Z</time></trkpt><trkpt lat="42.66776294574742" lon="12.732419657481366"><ele>627.0</ele><time>2026-04-11T16:02:18Z</time></trkpt><trkpt lat="42.66783041975104" lon="12.732250567046961"><ele>627.0</ele><time>2026-04-11T16:02:19Z</time></trkpt><trkpt lat="42.66787577531197" lon="12.732063740830375"><ele>627.0</ele><time>2026-04-11T16:02:20Z</time></trkpt><trkpt lat="42.66790267410097" lon="12.731863666456528"><ele>627.0</ele><time>2026-04-11T16:02:21Z</time></trkpt><trkpt lat="42.66790999270991" lon="12.731658825951651"><ele>627.0</ele><time>2026-04-11T16:02:22Z</time></trkpt><trkpt lat="42.667901814634575" lon="12.731465776988191"><ele>627.5</ele><time>2026-04-11T16:02:23Z</time></trkpt><trkpt lat="42.667869694241034" lon="12.73128090657992"><ele>628.0</ele><time>2026-04-11T16:02:24Z</time></trkpt><trkpt lat="42.66783364588556" lon="12.731096780254916"><ele>628.5</ele><time>2026-04-11T16:02:25Z</time></trkpt><trkpt lat="42.667792058785196" lon="12.730909509876502"><ele>629.0</ele><time>2026-04-11T16:02:26Z</time></trkpt><trkpt lat="42.66775550170416" lon="12.730722367990024"><ele>635.75</ele><time>2026-04-11T16:02:27Z</time></trkpt><trkpt lat="42.667719037697495" lon="12.730532128765958"><ele>642.5</ele><time>2026-04-11T16:02:28Z</time></trkpt><trkpt lat="42.66767769099109" lon="12.730340561701777"><ele>649.25</ele><time>2026-04-11T16:02:29Z</time></trkpt><trkpt lat="42.66763447795249" lon="12.730155155537117"><ele>656.0</ele><time>2026-04-11T16:02:30Z</time></trkpt><trkpt lat="42.667585280515176" lon="12.729965889558999"><ele>656.0</ele><time>2026-04-11T16:02:31Z</time></trkpt><trkpt lat="42.66753240890861" lon="12.729773687425574"><ele>656.0</ele><time>2026-04-11T16:02:32Z</time></trkpt><trkpt lat="42.66748707791233" lon="12.729574596017065"><ele>656.0</ele><time>2026-04-11T16:02:33Z</time></trkpt><trkpt lat="42.66740187190898" lon="12.729396427531828"><ele>653.0</ele><time>2026-04-11T16:02:34Z</time></trkpt><trkpt lat="42.66731498962194" lon="12.729219172828566"><ele>650.0</ele><time>2026-04-11T16:02:35Z</time></trkpt><trkpt lat="42.66720555819056" lon="12.729054757088148"><ele>647.0</ele><time>2026-04-11T16:02:36Z</time></trkpt><trkpt lat="42.66707638469204" lon="12.728914325592283"><ele>656.0</ele><time>2026-04-11T16:02:37Z</time></trkpt><trkpt lat="42.666936178307424" lon="12.72879523484264"><ele>665.0</ele><time>2026-04-11T16:02:38Z</time></trkpt><trkpt lat="42.666791690059405" lon="12.728709278300084"><ele>674.0</ele><time>2026-04-11T16:02:39Z</time></trkpt><trkpt lat="42.66664846104534" lon="12.728643507028988"><ele>674.0</ele><time>2026-04-11T16:02:40Z</time></trkpt><trkpt lat="42.66649946095078" lon="12.728584871377508"><ele>674.0</ele><time>2026-04-11T16:02:41Z</time></trkpt><trkpt lat="42.6663448342851" lon="12.728533700878527"><ele>674.0</ele><time>2026-04-11T16:02:42Z</time></trkpt><trkpt lat="42.666186223221224" lon="12.72847761424877"><ele>675.0</ele><time>2026-04-11T16:02:43Z</time></trkpt><trkpt lat="42.66601677251432" lon="12.728455172086257"><ele>676.0</ele><time>2026-04-11T16:02:44Z</time></trkpt><trkpt lat="42.66584556215264" lon="12.728425971248189"><ele>677.0</ele><time>2026-04-11T16:02:45Z</time></trkpt><trkpt lat="42.66566691217893" lon="12.728395501534619"><ele>677.0</ele><time>2026-04-11T16:02:46Z</time></trkpt><trkpt lat="42.665479227153604" lon="12.728363076001187"><ele>677.0</ele><time>2026-04-11T16:02:47Z</time></trkpt><trkpt lat="42.66529332548381" lon="12.728331006390652"><ele>677.0</ele><time>2026-04-11T16:02:48Z</time></trkpt><trkpt lat="42.66508035421157" lon="12.72829635627139"><ele>672.6666666666666</ele><time>2026-04-11T16:02:49.141Z</time></trkpt><trkpt lat="42.66490767243811" lon="12.72826945172336"><ele>668.3333333333334</ele><time>2026-04-11T16:02:51Z</time></trkpt><trkpt lat="42.664725777545144" lon="12.728240086342263"><ele>664.0</ele><time>2026-04-11T16:02:52Z</time></trkpt><trkpt lat="42.66456261135416" lon="12.728213511983641"><ele>658.75</ele><time>2026-04-11T16:02:53Z</time></trkpt><trkpt lat="42.66441991158282" lon="12.728190130517495"><ele>653.5</ele><time>2026-04-11T16:02:54Z</time></trkpt><trkpt lat="42.6642759782308" lon="12.728168846630654"><ele>648.25</ele><time>2026-04-11T16:02:55Z</time></trkpt><trkpt lat="42.664137693199386" lon="12.728150794657557"><ele>643.0</ele><time>2026-04-11T16:02:56Z</time></trkpt><trkpt lat="42.66398901624499" lon="12.728139281582429"><ele>643.0</ele><time>2026-04-11T16:02:57Z</time></trkpt><trkpt lat="42.66383364345518" lon="12.728149616912502"><ele>643.0</ele><time>2026-04-11T16:02:58Z</time></trkpt><trkpt lat="42.66367784056185" lon="12.728185021087324"><ele>643.0</ele><time>2026-04-11T16:02:59Z</time></trkpt><trkpt lat="42.663515398240826" lon="12.728253654486227"><ele>645.6666666666667</ele><time>2026-04-11T16:03:00Z</time></trkpt><trkpt lat="42.66335944549298" lon="12.72833941235717"><ele>648.3333333333334</ele><time>2026-04-11T16:03:01Z</time></trkpt><trkpt lat="42.6632044302284" lon="12.728429630043793"><ele>651.0</ele><time>2026-04-11T16:03:02Z</time></trkpt><trkpt lat="42.663048386135536" lon="12.728505135973128"><ele>647.3333333333334</ele><time>2026-04-11T16:03:03Z</time></trkpt><trkpt lat="42.66289736095805" lon="12.728611023275542"><ele>643.6666666666667</ele><time>2026-04-11T16:03:04Z</time></trkpt><trkpt lat="42.662740219807766" lon="12.728704901852312"><ele>640.0</ele><time>2026-04-11T16:03:05Z</time></trkpt><trkpt lat="42.66258867628227" lon="12.728800686185163"><ele>640.0</ele><time>2026-04-11T16:03:06Z</time></trkpt><trkpt lat="42.662441902317696" lon="12.728902361195717"><ele>640.0</ele><time>2026-04-11T16:03:07Z</time></trkpt><trkpt lat="42.66229176045171" lon="12.729004970336044"><ele>640.0</ele><time>2026-04-11T16:03:08Z</time></trkpt><trkpt lat="42.662144644077316" lon="12.72912007736274"><ele>640.0</ele><time>2026-04-11T16:03:09Z</time></trkpt><trkpt lat="42.66201677196104" lon="12.729245040829404"><ele>640.0</ele><time>2026-04-11T16:03:10Z</time></trkpt><trkpt lat="42.66190405323909" lon="12.72938885750467"><ele>640.0</ele><time>2026-04-11T16:03:11Z</time></trkpt><trkpt lat="42.66179073396435" lon="12.729545157152355"><ele>635.6666666666667</ele><time>2026-04-11T16:03:12Z</time></trkpt><trkpt lat="42.661688531518145" lon="12.729721214846586"><ele>631.3333333333334</ele><time>2026-04-11T16:03:13Z</time></trkpt><trkpt lat="42.66159493333279" lon="12.729894091612021"><ele>627.0</ele><time>2026-04-11T16:03:14Z</time></trkpt><trkpt lat="42.66149331431472" lon="12.730061768752487"><ele>619.0</ele><time>2026-04-11T16:03:15Z</time></trkpt><trkpt lat="42.66139014279227" lon="12.730226151519934"><ele>611.0</ele><time>2026-04-11T16:03:16Z</time></trkpt><trkpt lat="42.6612816331342" lon="12.73038396108769"><ele>603.0</ele><time>2026-04-11T16:03:17Z</time></trkpt><trkpt lat="42.6611567421896" lon="12.730525992030334"><ele>608.6666666666666</ele><time>2026-04-11T16:03:18Z</time></trkpt><trkpt lat="42.66101605819137" lon="12.730636304340996"><ele>614.3333333333333</ele><time>2026-04-11T16:03:19Z</time></trkpt><trkpt lat="42.66086337284399" lon="12.730713066851884"><ele>620.0</ele><time>2026-04-11T16:03:20Z</time></trkpt><trkpt lat="42.66069972704851" lon="12.730761335984305"><ele>620.0</ele><time>2026-04-11T16:03:21Z</time></trkpt><trkpt lat="42.66053929179767" lon="12.730785266605524"><ele>620.0</ele><time>2026-04-11T16:03:21.999Z</time></trkpt><trkpt lat="42.660373740844086" lon="12.730798389112303"><ele>620.0</ele><time>2026-04-11T16:03:22.999Z</time></trkpt><trkpt lat="42.660209170509454" lon="12.730814274715822"><ele>619.3333333333333</ele><time>2026-04-11T16:03:23.999Z</time></trkpt><trkpt lat="42.660045079377824" lon="12.730829352895988"><ele>618.6666666666666</ele><time>2026-04-11T16:03:24.999Z</time></trkpt><trkpt lat="42.65989114386727" lon="12.730843765003954"><ele>618.0</ele><time>2026-04-11T16:03:26Z</time></trkpt><trkpt lat="42.65974057646553" lon="12.730872169099186"><ele>618.0</ele><time>2026-04-11T16:03:27Z</time></trkpt><trkpt lat="42.65959341833031" lon="12.730912278745658"><ele>618.0</ele><time>2026-04-11T16:03:28Z</time></trkpt><trkpt lat="42.65944226880413" lon="12.730972480195497"><ele>618.0</ele><time>2026-04-11T16:03:29Z</time></trkpt><trkpt lat="42.659287481430866" lon="12.731061977993223"><ele>609.3333333333334</ele><time>2026-04-11T16:03:30Z</time></trkpt><trkpt lat="42.659139387066375" lon="12.731176587552532"><ele>600.6666666666667</ele><time>2026-04-11T16:03:31Z</time></trkpt><trkpt lat="42.659000946071444" lon="12.731305031891761"><ele>592.0</ele><time>2026-04-11T16:03:32Z</time></trkpt><trkpt lat="42.6588720703911" lon="12.731444594900754"><ele>592.0</ele><time>2026-04-11T16:03:33Z</time></trkpt><trkpt lat="42.658743796532924" lon="12.731586034132865"><ele>592.0</ele><time>2026-04-11T16:03:34Z</time></trkpt><trkpt lat="42.65861331437881" lon="12.731726968775778"><ele>592.0</ele><time>2026-04-11T16:03:35Z</time></trkpt><trkpt lat="42.658479616508494" lon="12.731866091964415"><ele>589.3333333333334</ele><time>2026-04-11T16:03:36Z</time></trkpt><trkpt lat="42.658343229898826" lon="12.731999313576571"><ele>586.6666666666666</ele><time>2026-04-11T16:03:37Z</time></trkpt><trkpt lat="42.65820302939125" lon="12.732122004914023"><ele>584.0</ele><time>2026-04-11T16:03:38Z</time></trkpt><trkpt lat="42.65805207349301" lon="12.732223956210778"><ele>584.0</ele><time>2026-04-11T16:03:39Z</time></trkpt><trkpt lat="42.6578964858087" lon="12.732288191743242"><ele>584.0</ele><time>2026-04-11T16:03:40Z</time></trkpt><trkpt lat="42.65772807555606" lon="12.732326969768852"><ele>584.0</ele><time>2026-04-11T16:03:41Z</time></trkpt><trkpt lat="42.65755469864501" lon="12.732338898567983"><ele>587.0</ele><time>2026-04-11T16:03:42Z</time></trkpt><trkpt lat="42.65737805285651" lon="12.732325016843387"><ele>590.0</ele><time>2026-04-11T16:03:43Z</time></trkpt><trkpt lat="42.65719998683957" lon="12.732297114817003"><ele>593.0</ele><time>2026-04-11T16:03:44Z</time></trkpt><trkpt lat="42.65701830220498" lon="12.732266702636075"><ele>589.3333333333333</ele><time>2026-04-11T16:03:45Z</time></trkpt><trkpt lat="42.656835225793955" lon="12.732236043202976"><ele>585.6666666666666</ele><time>2026-04-11T16:03:46Z</time></trkpt><trkpt lat="42.65666167347543" lon="12.732210738879191"><ele>582.0</ele><time>2026-04-11T16:03:47Z</time></trkpt><trkpt lat="42.65648898531855" lon="12.732185553667723"><ele>582.0</ele><time>2026-04-11T16:03:48Z</time></trkpt><trkpt lat="42.6563090588856" lon="12.732155130579102"><ele>582.0</ele><time>2026-04-11T16:03:49Z</time></trkpt><trkpt lat="42.65612295883709" lon="12.732127769541288"><ele>582.0</ele><time>2026-04-11T16:03:50Z</time></trkpt><trkpt lat="42.65593239741113" lon="12.732104052762407"><ele>577.3333333333334</ele><time>2026-04-11T16:03:51Z</time></trkpt><trkpt lat="42.65573857989448" lon="12.732077290023035"><ele>572.6666666666667</ele><time>2026-04-11T16:03:52Z</time></trkpt><trkpt lat="42.65554737924327" lon="12.732048089192839"><ele>568.0</ele><time>2026-04-11T16:03:53Z</time></trkpt><trkpt lat="42.65535702669746" lon="12.732012954667166"><ele>563.3333333333334</ele><time>2026-04-11T16:03:54Z</time></trkpt><trkpt lat="42.65516469359252" lon="12.73198200025446"><ele>558.6666666666666</ele><time>2026-04-11T16:03:55Z</time></trkpt><trkpt lat="42.65497282899448" lon="12.731962336609868"><ele>554.0</ele><time>2026-04-11T16:03:56Z</time></trkpt><trkpt lat="42.654783649045925" lon="12.731936143374455"><ele>554.0</ele><time>2026-04-11T16:03:57Z</time></trkpt><trkpt lat="42.654591577783506" lon="12.73192430880325"><ele>554.0</ele><time>2026-04-11T16:03:58Z</time></trkpt><trkpt lat="42.65439396292571" lon="12.731945795144116"><ele>554.0</ele><time>2026-04-11T16:03:59Z</time></trkpt><trkpt lat="42.65419347996654" lon="12.731972423523294"><ele>554.6666666666666</ele><time>2026-04-11T16:04:00Z</time></trkpt><trkpt lat="42.653985127237185" lon="12.732012894890044"><ele>555.3333333333334</ele><time>2026-04-11T16:04:01Z</time></trkpt><trkpt lat="42.65378525647279" lon="12.732063554332468"><ele>556.0</ele><time>2026-04-11T16:04:02Z</time></trkpt><trkpt lat="42.653597521997334" lon="12.732124946613576"><ele>556.0</ele><time>2026-04-11T16:04:03Z</time></trkpt><trkpt lat="42.65341356649393" lon="12.732202124638853"><ele>556.0</ele><time>2026-04-11T16:04:04Z</time></trkpt><trkpt lat="42.65322897274833" lon="12.73229664861231"><ele>556.0</ele><time>2026-04-11T16:04:05Z</time></trkpt><trkpt lat="42.653040677198966" lon="12.732387856871082"><ele>556.0</ele><time>2026-04-11T16:04:06Z</time></trkpt><trkpt lat="42.65285684041888" lon="12.732493086844643"><ele>556.0</ele><time>2026-04-11T16:04:07Z</time></trkpt><trkpt lat="42.65267103954509" lon="12.732596374983313"><ele>556.0</ele><time>2026-04-11T16:04:08Z</time></trkpt><trkpt lat="42.652499726036" lon="12.732686716674596"><ele>555.6666666666667</ele><time>2026-04-11T16:04:09Z</time></trkpt><trkpt lat="42.652316303121616" lon="12.73278739719786"><ele>555.3333333333334</ele><time>2026-04-11T16:04:10Z</time></trkpt><trkpt lat="42.65213361915599" lon="12.732878188961486"><ele>555.0</ele><time>2026-04-11T16:04:11Z</time></trkpt><trkpt lat="42.6519528871487" lon="12.732963376386815"><ele>555.0</ele><time>2026-04-11T16:04:12Z</time></trkpt><trkpt lat="42.65176524924374" lon="12.733042559898232"><ele>555.0</ele><time>2026-04-11T16:04:13Z</time></trkpt><trkpt lat="42.65157883368895" lon="12.733119889011416"><ele>555.0</ele><time>2026-04-11T16:04:14Z</time></trkpt><trkpt lat="42.65139425692721" lon="12.7331751095436"><ele>555.0</ele><time>2026-04-11T16:04:15Z</time></trkpt><trkpt lat="42.651212618128596" lon="12.733222857177095"><ele>555.0</ele><time>2026-04-11T16:04:16Z</time></trkpt><trkpt lat="42.65102993893416" lon="12.733260160464882"><ele>555.0</ele><time>2026-04-11T16:04:17Z</time></trkpt><trkpt lat="42.65083945423952" lon="12.733308221606748"><ele>555.6666666666666</ele><time>2026-04-11T16:04:18Z</time></trkpt><trkpt lat="42.65065962184844" lon="12.73334102785947"><ele>556.3333333333333</ele><time>2026-04-11T16:04:19Z</time></trkpt><trkpt lat="42.65047717305085" lon="12.733379711626045"><ele>557.0</ele><time>2026-04-11T16:04:20Z</time></trkpt><trkpt lat="42.65030046672785" lon="12.733411185697017"><ele>558.6666666666666</ele><time>2026-04-11T16:04:21Z</time></trkpt><trkpt lat="42.65012107991895" lon="12.733450568014463"><ele>560.3333333333334</ele><time>2026-04-11T16:04:22Z</time></trkpt><trkpt lat="42.649940954962524" lon="12.733495892469909"><ele>562.0</ele><time>2026-04-11T16:04:23Z</time></trkpt><trkpt lat="42.64976270051911" lon="12.733538162497158"><ele>548.3333333333334</ele><time>2026-04-11T16:04:24Z</time></trkpt><trkpt lat="42.64959277321455" lon="12.733572407387186"><ele>534.6666666666666</ele><time>2026-04-11T16:04:25Z</time></trkpt><trkpt lat="42.64942264079315" lon="12.733608602685548"><ele>521.0</ele><time>2026-04-11T16:04:26Z</time></trkpt><trkpt lat="42.649250821069046" lon="12.733638164959718"><ele>520.6666666666666</ele><time>2026-04-11T16:04:27Z</time></trkpt><trkpt lat="42.64908170861092" lon="12.733662390589743"><ele>520.3333333333334</ele><time>2026-04-11T16:04:28Z</time></trkpt><trkpt lat="42.64891452039922" lon="12.733661519784489"><ele>520.0</ele><time>2026-04-11T16:04:29Z</time></trkpt><trkpt lat="42.64875672608777" lon="12.733626243634781"><ele>526.6666666666667</ele><time>2026-04-11T16:04:30Z</time></trkpt><trkpt lat="42.64860782994755" lon="12.733573068456716"><ele>533.3333333333334</ele><time>2026-04-11T16:04:31Z</time></trkpt><trkpt lat="42.64846955332613" lon="12.733499648268625"><ele>540.0</ele><time>2026-04-11T16:04:32Z</time></trkpt><trkpt lat="42.64833267462172" lon="12.733406337702247"><ele>540.0</ele><time>2026-04-11T16:04:33Z</time></trkpt><trkpt lat="42.64820272677654" lon="12.733282524174756"><ele>540.0</ele><time>2026-04-11T16:04:34Z</time></trkpt><trkpt lat="42.648074792845776" lon="12.733150427416808"><ele>540.0</ele><time>2026-04-11T16:04:35Z</time></trkpt><trkpt lat="42.64794184569653" lon="12.733020402842437"><ele>540.0</ele><time>2026-04-11T16:04:36Z</time></trkpt><trkpt lat="42.64781354938188" lon="12.73289144772313"><ele>540.0</ele><time>2026-04-11T16:04:37Z</time></trkpt><trkpt lat="42.647685644424406" lon="12.732761022094179"><ele>540.0</ele><time>2026-04-11T16:04:38Z</time></trkpt><trkpt lat="42.64755537161709" lon="12.732634450608375"><ele>540.3333333333334</ele><time>2026-04-11T16:04:39Z</time></trkpt><trkpt lat="42.64743127845308" lon="12.732506843472011"><ele>540.6666666666667</ele><time>2026-04-11T16:04:40Z</time></trkpt><trkpt lat="42.647312443045834" lon="12.732372968465635"><ele>541.0</ele><time>2026-04-11T16:04:41Z</time></trkpt><trkpt lat="42.64719842246925" lon="12.732247282359554"><ele>541.0</ele><time>2026-04-11T16:04:42Z</time></trkpt><trkpt lat="42.64708335322443" lon="12.732122900817451"><ele>541.0</ele><time>2026-04-11T16:04:43Z</time></trkpt><trkpt lat="42.64697270395944" lon="12.731992620828905"><ele>541.0</ele><time>2026-04-11T16:04:44Z</time></trkpt><trkpt lat="42.64687292967328" lon="12.731832990415947"><ele>541.0</ele><time>2026-04-11T16:04:45Z</time></trkpt><trkpt lat="42.64680163582362" lon="12.731646973013932"><ele>534.75</ele><time>2026-04-11T16:04:46Z</time></trkpt><trkpt lat="42.64675095887293" lon="12.731449995250285"><ele>528.5</ele><time>2026-04-11T16:04:47Z</time></trkpt><trkpt lat="42.64672190997919" lon="12.731254248203827"><ele>522.25</ele><time>2026-04-11T16:04:48Z</time></trkpt><trkpt lat="42.64671432514001" lon="12.73105516595547"><ele>516.0</ele><time>2026-04-11T16:04:49Z</time></trkpt><trkpt lat="42.64673057529875" lon="12.730853729057438"><ele>515.75</ele><time>2026-04-11T16:04:50Z</time></trkpt><trkpt lat="42.64676994546417" lon="12.730656466335999"><ele>515.5</ele><time>2026-04-11T16:04:51Z</time></trkpt><trkpt lat="42.64682305271157" lon="12.730469432486549"><ele>515.25</ele><time>2026-04-11T16:04:52Z</time></trkpt><trkpt lat="42.646900051681065" lon="12.730292182477099"><ele>515.0</ele><time>2026-04-11T16:04:53Z</time></trkpt><trkpt lat="42.64698373460473" lon="12.730115757423834"><ele>522.25</ele><time>2026-04-11T16:04:54Z</time></trkpt><trkpt lat="42.647059871939476" lon="12.729947904980714"><ele>529.5</ele><time>2026-04-11T16:04:55Z</time></trkpt><trkpt lat="42.64713209180298" lon="12.729780085254683"><ele>536.75</ele><time>2026-04-11T16:04:56Z</time></trkpt><trkpt lat="42.64719389178147" lon="12.729610942794954"><ele>544.0</ele><time>2026-04-11T16:04:57Z</time></trkpt><trkpt lat="42.64724414891357" lon="12.729431249962637"><ele>539.25</ele><time>2026-04-11T16:04:58Z</time></trkpt><trkpt lat="42.64727185236848" lon="12.72924188166527"><ele>534.5</ele><time>2026-04-11T16:04:59Z</time></trkpt><trkpt lat="42.6472821004523" lon="12.729049746465929"><ele>529.75</ele><time>2026-04-11T16:05:00Z</time></trkpt><trkpt lat="42.64727509330105" lon="12.728867816391782"><ele>525.0</ele><time>2026-04-11T16:05:01Z</time></trkpt><trkpt lat="42.64724368836108" lon="12.72868805158127"><ele>526.5</ele><time>2026-04-11T16:05:02Z</time></trkpt><trkpt lat="42.64719323097746" lon="12.728529257520517"><ele>528.0</ele><time>2026-04-11T16:05:03Z</time></trkpt><trkpt lat="42.64713128534055" lon="12.728388949691698"><ele>529.5</ele><time>2026-04-11T16:05:04Z</time></trkpt><trkpt lat="42.64706761665449" lon="12.728268733725313"><ele>531.0</ele><time>2026-04-11T16:05:05Z</time></trkpt><trkpt lat="42.64700105340859" lon="12.72816558616645"><ele>526.3333333333334</ele><time>2026-04-11T16:05:06Z</time></trkpt><trkpt lat="42.64693679153419" lon="12.728076835451885"><ele>521.6666666666666</ele><time>2026-04-11T16:05:07Z</time></trkpt><trkpt lat="42.646870809604955" lon="12.727999256687498"><ele>517.0</ele><time>2026-04-11T16:05:08Z</time></trkpt><trkpt lat="42.646803527679296" lon="12.727932928148626"><ele>512.3333333333333</ele><time>2026-04-11T16:05:09Z</time></trkpt><trkpt lat="42.6467347885112" lon="12.72786457957902"><ele>507.66666666666663</ele><time>2026-04-11T16:05:10Z</time></trkpt><trkpt lat="42.64666796380997" lon="12.727793281255916"><ele>503.0</ele><time>2026-04-11T16:05:11Z</time></trkpt><trkpt lat="42.64661046387934" lon="12.727734583616575"><ele>506.3333333333333</ele><time>2026-04-11T16:05:12Z</time></trkpt><trkpt lat="42.64656199027353" lon="12.727665942356035"><ele>509.66666666666663</ele><time>2026-04-11T16:05:13Z</time></trkpt><trkpt lat="42.64649444001753" lon="12.72761279694775"><ele>513.0</ele><time>2026-04-11T16:05:14Z</time></trkpt><trkpt lat="42.64641946592201" lon="12.72756061305525"><ele>516.3333333333334</ele><time>2026-04-11T16:05:15Z</time></trkpt><trkpt lat="42.64635360542637" lon="12.727517871397572"><ele>519.6666666666667</ele><time>2026-04-11T16:05:15.999Z</time></trkpt><trkpt lat="42.646242796229636" lon="12.72749613430569"><ele>523.0</ele><time>2026-04-11T16:05:17.999Z</time></trkpt><trkpt lat="42.646177465296496" lon="12.727480893740719"><ele>521.8</ele><time>2026-04-11T16:05:19.999Z</time></trkpt><trkpt lat="42.64611257530367" lon="12.727478858568231"><ele>520.5999999999999</ele><time>2026-04-11T16:05:25.999Z</time></trkpt><trkpt lat="42.64604922387175" lon="12.72746794592173"><ele>519.4000000000001</ele><time>2026-04-11T16:07:33.998Z</time></trkpt><trkpt lat="42.645947401655896" lon="12.727475260433646"><ele>518.2</ele><time>2026-04-11T16:07:34.998Z</time></trkpt><trkpt lat="42.64580605976695" lon="12.727508455280772"><ele>517.0</ele><time>2026-04-11T16:07:35.998Z</time></trkpt><trkpt lat="42.64565680642817" lon="12.727580747394523"><ele>517.0</ele><time>2026-04-11T16:07:36.998Z</time></trkpt><trkpt lat="42.645505970280404" lon="12.72769324790973"><ele>517.0</ele><time>2026-04-11T16:07:37.998Z</time></trkpt><trkpt lat="42.645344965876426" lon="12.727831496331344"><ele>517.0</ele><time>2026-04-11T16:07:38.998Z</time></trkpt><trkpt lat="42.645183106161795" lon="12.727971864201722"><ele>511.0</ele><time>2026-04-11T16:07:39.998Z</time></trkpt><trkpt lat="42.64501476823542" lon="12.72811785012113"><ele>505.0</ele><time>2026-04-11T16:07:40.998Z</time></trkpt><trkpt lat="42.64484133556443" lon="12.728265197877738"><ele>499.0</ele><time>2026-04-11T16:07:41.998Z</time></trkpt><trkpt lat="42.64466087636485" lon="12.728418914493766"><ele>494.0</ele><time>2026-04-11T16:07:42.998Z</time></trkpt><trkpt lat="42.64449310004487" lon="12.728563556940209"><ele>489.0</ele><time>2026-04-11T16:07:43.998Z</time></trkpt><trkpt lat="42.64433357272149" lon="12.728700679351956"><ele>484.0</ele><time>2026-04-11T16:07:44.998Z</time></trkpt><trkpt lat="42.64417924962315" lon="12.7288321690924"><ele>484.0</ele><time>2026-04-11T16:07:45.998Z</time></trkpt><trkpt lat="42.64402193463945" lon="12.728966208035972"><ele>484.0</ele><time>2026-04-11T16:07:46.998Z</time></trkpt><trkpt lat="42.64385896478893" lon="12.729094885383901"><ele>484.0</ele><time>2026-04-11T16:07:47.998Z</time></trkpt><trkpt lat="42.64368995938164" lon="12.72922270720916"><ele>480.6666666666667</ele><time>2026-04-11T16:07:48.998Z</time></trkpt><trkpt lat="42.643519149775926" lon="12.729348162892459"><ele>477.33333333333337</ele><time>2026-04-11T16:07:49.998Z</time></trkpt><trkpt lat="42.64334271207286" lon="12.72947602611905"><ele>474.0</ele><time>2026-04-11T16:07:50.998Z</time></trkpt><trkpt lat="42.643170922993036" lon="12.7295952177903"><ele>474.0</ele><time>2026-04-11T16:07:51.998Z</time></trkpt><trkpt lat="42.642992147909254" lon="12.729706483643536"><ele>474.0</ele><time>2026-04-11T16:07:52.998Z</time></trkpt><trkpt lat="42.642817762636575" lon="12.729823006756632"><ele>474.0</ele><time>2026-04-11T16:07:53.998Z</time></trkpt><trkpt lat="42.642650975917064" lon="12.729949059385833"><ele>471.33333333333337</ele><time>2026-04-11T16:07:54.998Z</time></trkpt><trkpt lat="42.64247730168616" lon="12.730078906918097"><ele>468.6666666666667</ele><time>2026-04-11T16:07:55.998Z</time></trkpt><trkpt lat="42.64230395965162" lon="12.730200759146074"><ele>466.0</ele><time>2026-04-11T16:07:56.998Z</time></trkpt><trkpt lat="42.64212524119118" lon="12.730309960821923"><ele>463.0</ele><time>2026-04-11T16:07:57.998Z</time></trkpt><trkpt lat="42.64194211993261" lon="12.730401025968499"><ele>460.0</ele><time>2026-04-11T16:07:58.998Z</time></trkpt><trkpt lat="42.64175220325263" lon="12.730463304728413"><ele>457.0</ele><time>2026-04-11T16:07:59.998Z</time></trkpt><trkpt lat="42.64156957446778" lon="12.730476814527037"><ele>457.0</ele><time>2026-04-11T16:08:00.998Z</time></trkpt><trkpt lat="42.64137869432403" lon="12.730468593736049"><ele>457.0</ele><time>2026-04-11T16:08:01.998Z</time></trkpt><trkpt lat="42.64119415653058" lon="12.730423463959479"><ele>457.0</ele><time>2026-04-11T16:08:02.998Z</time></trkpt><trkpt lat="42.64100730936414" lon="12.73035375519515"><ele>454.0</ele><time>2026-04-11T16:08:03.998Z</time></trkpt><trkpt lat="42.64081135300029" lon="12.730273822714995"><ele>451.0</ele><time>2026-04-11T16:08:04.998Z</time></trkpt><trkpt lat="42.640614712187386" lon="12.730199243490066"><ele>448.0</ele><time>2026-04-11T16:08:05.998Z</time></trkpt><trkpt lat="42.640417215355804" lon="12.73012432336451"><ele>447.0</ele><time>2026-04-11T16:08:06.998Z</time></trkpt><trkpt lat="42.64023231724139" lon="12.730057320530474"><ele>446.0</ele><time>2026-04-11T16:08:07.998Z</time></trkpt><trkpt lat="42.6400313324791" lon="12.730017379646725"><ele>445.0</ele><time>2026-04-11T16:08:08.998Z</time></trkpt><trkpt lat="42.63982378220986" lon="12.730011505032746"><ele>445.0</ele><time>2026-04-11T16:08:09.998Z</time></trkpt><trkpt lat="42.639614427846944" lon="12.730047504758506"><ele>445.0</ele><time>2026-04-11T16:08:10.998Z</time></trkpt><trkpt lat="42.6393979200482" lon="12.730106726060436"><ele>445.0</ele><time>2026-04-11T16:08:11.998Z</time></trkpt><trkpt lat="42.6391912470824" lon="12.7301794990037"><ele>435.0</ele><time>2026-04-11T16:08:12.998Z</time></trkpt><trkpt lat="42.63896742326455" lon="12.730229798599938"><ele>425.0</ele><time>2026-04-11T16:08:13.998Z</time></trkpt><trkpt lat="42.638757889410826" lon="12.730338571026474"><ele>431.5</ele><time>2026-04-11T16:08:14.998Z</time></trkpt><trkpt lat="42.63854733496534" lon="12.730434917354623"><ele>438.0</ele><time>2026-04-11T16:08:15.998Z</time></trkpt><trkpt lat="42.63835116807458" lon="12.730602393590535"><ele>438.0</ele><time>2026-04-11T16:08:16.998Z</time></trkpt><trkpt lat="42.638140850449695" lon="12.730641258127244"><ele>438.0</ele><time>2026-04-11T16:08:17.998Z</time></trkpt><trkpt lat="42.63792912340184" lon="12.730587254586604"><ele>438.0</ele><time>2026-04-11T16:08:18.998Z</time></trkpt><trkpt lat="42.637711195494596" lon="12.730546264249178"><ele>435.66666666666663</ele><time>2026-04-11T16:08:19.998Z</time></trkpt><trkpt lat="42.63749472915688" lon="12.730504457664074"><ele>433.3333333333333</ele><time>2026-04-11T16:08:20.998Z</time></trkpt><trkpt lat="42.63727478097115" lon="12.730461831657975"><ele>431.0</ele><time>2026-04-11T16:08:21.998Z</time></trkpt><trkpt lat="42.63705683986496" lon="12.730419594601717"><ele>427.3333333333333</ele><time>2026-04-11T16:08:22.998Z</time></trkpt><trkpt lat="42.63684164917679" lon="12.730379041617137"><ele>423.66666666666663</ele><time>2026-04-11T16:08:23.998Z</time></trkpt><trkpt lat="42.63662458874884" lon="12.73033855418174"><ele>420.0</ele><time>2026-04-11T16:08:24.998Z</time></trkpt><trkpt lat="42.63639979509421" lon="12.730297478335618"><ele>420.0</ele><time>2026-04-11T16:08:25.998Z</time></trkpt><trkpt lat="42.63617100638524" lon="12.730276610038652"><ele>420.0</ele><time>2026-04-11T16:08:26.998Z</time></trkpt><trkpt lat="42.63594513921885" lon="12.73022690966534"><ele>423.0</ele><time>2026-04-11T16:08:27.998Z</time></trkpt><trkpt lat="42.63572007306315" lon="12.730183368453934"><ele>426.0</ele><time>2026-04-11T16:08:28.998Z</time></trkpt><trkpt lat="42.63549449893995" lon="12.730137656497167"><ele>417.5</ele><time>2026-04-11T16:08:29.998Z</time></trkpt><trkpt lat="42.63526546084732" lon="12.730090675327748"><ele>409.0</ele><time>2026-04-11T16:08:30.998Z</time></trkpt><trkpt lat="42.635033712360226" lon="12.730045367726"><ele>409.0</ele><time>2026-04-11T16:08:31.998Z</time></trkpt><trkpt lat="42.63479980704952" lon="12.729996030542393"><ele>409.0</ele><time>2026-04-11T16:08:32.998Z</time></trkpt><trkpt lat="42.63456528665179" lon="12.72995009033174"><ele>411.0</ele><time>2026-04-11T16:08:33.998Z</time></trkpt><trkpt lat="42.634330260399146" lon="12.72990369532358"><ele>413.0</ele><time>2026-04-11T16:08:34.998Z</time></trkpt><trkpt lat="42.63409288666468" lon="12.729862559976416"><ele>413.0</ele><time>2026-04-11T16:08:35.998Z</time></trkpt><trkpt lat="42.63386638172721" lon="12.729814723308326"><ele>413.0</ele><time>2026-04-11T16:08:36.998Z</time></trkpt><trkpt lat="42.63363731260376" lon="12.729775444626041"><ele>410.3333333333333</ele><time>2026-04-11T16:08:37.998Z</time></trkpt><trkpt lat="42.63340941810077" lon="12.729737304237501"><ele>407.66666666666663</ele><time>2026-04-11T16:08:38.998Z</time></trkpt><trkpt lat="42.6331994895222" lon="12.729718849629624"><ele>405.0</ele><time>2026-04-11T16:08:39.998Z</time></trkpt><trkpt lat="42.63299015951778" lon="12.729715221769405"><ele>400.33333333333337</ele><time>2026-04-11T16:08:40.998Z</time></trkpt><trkpt lat="42.63276534307281" lon="12.72975427499139"><ele>395.6666666666667</ele><time>2026-04-11T16:08:41.998Z</time></trkpt><trkpt lat="42.632550908570046" lon="12.7297575849324"><ele>391.0</ele><time>2026-04-11T16:08:42.998Z</time></trkpt><trkpt lat="42.63233240327392" lon="12.729781842953521"><ele>391.0</ele><time>2026-04-11T16:08:43.998Z</time></trkpt><trkpt lat="42.632112984351615" lon="12.729806383973877"><ele>391.0</ele><time>2026-04-11T16:08:44.998Z</time></trkpt><trkpt lat="42.631886838442234" lon="12.729853042246896"><ele>391.0</ele><time>2026-04-11T16:08:45.998Z</time></trkpt><trkpt lat="42.63166282326988" lon="12.729868451601876"><ele>388.0</ele><time>2026-04-11T16:08:46.998Z</time></trkpt><trkpt lat="42.6314300275822" lon="12.729888957146912"><ele>385.0</ele><time>2026-04-11T16:08:47.998Z</time></trkpt><trkpt lat="42.631197933129805" lon="12.72991177332425"><ele>382.0</ele><time>2026-04-11T16:08:48.998Z</time></trkpt><trkpt lat="42.630968695074934" lon="12.729932178920167"><ele>379.0</ele><time>2026-04-11T16:08:49.998Z</time></trkpt><trkpt lat="42.63074099219126" lon="12.729964613431294"><ele>379.0</ele><time>2026-04-11T16:08:50.998Z</time></trkpt><trkpt lat="42.63051381668563" lon="12.730007327812665"><ele>379.0</ele><time>2026-04-11T16:08:51.998Z</time></trkpt><trkpt lat="42.630287508050024" lon="12.730061136230493"><ele>378.5</ele><time>2026-04-11T16:08:52.998Z</time></trkpt><trkpt lat="42.63006165422384" lon="12.730126792643894"><ele>378.0</ele><time>2026-04-11T16:08:53.998Z</time></trkpt><trkpt lat="42.62984444553274" lon="12.730211169983512"><ele>375.0</ele><time>2026-04-11T16:08:54.998Z</time></trkpt><trkpt lat="42.62962957658444" lon="12.730308265328903"><ele>372.0</ele><time>2026-04-11T16:08:55.998Z</time></trkpt><trkpt lat="42.6294046558748" lon="12.730400436902244"><ele>372.0</ele><time>2026-04-11T16:08:56.998Z</time></trkpt><trkpt lat="42.629179833672914" lon="12.730504072291065"><ele>372.0</ele><time>2026-04-11T16:08:57.998Z</time></trkpt><trkpt lat="42.628965454849926" lon="12.730599583019224"><ele>372.0</ele><time>2026-04-11T16:08:58.998Z</time></trkpt><trkpt lat="42.62874798120485" lon="12.730706194541845"><ele>372.0</ele><time>2026-04-11T16:08:59.998Z</time></trkpt><trkpt lat="42.6285316520312" lon="12.730805534997822"><ele>372.6666666666667</ele><time>2026-04-11T16:09:00.998Z</time></trkpt><trkpt lat="42.62832366796356" lon="12.730897667310035"><ele>373.33333333333337</ele><time>2026-04-11T16:09:01.998Z</time></trkpt><trkpt lat="42.62811673909488" lon="12.730989469077878"><ele>374.0</ele><time>2026-04-11T16:09:02.998Z</time></trkpt><trkpt lat="42.627907898260034" lon="12.731086056440287"><ele>371.0</ele><time>2026-04-11T16:09:03.998Z</time></trkpt><trkpt lat="42.62769663673771" lon="12.731181560242463"><ele>368.0</ele><time>2026-04-11T16:09:04.998Z</time></trkpt><trkpt lat="42.62749028044362" lon="12.731273317735464"><ele>365.0</ele><time>2026-04-11T16:09:05.998Z</time></trkpt><trkpt lat="42.627283502953745" lon="12.731354715980228"><ele>365.0</ele><time>2026-04-11T16:09:06.998Z</time></trkpt><trkpt lat="42.62707650952775" lon="12.731444813576482"><ele>365.0</ele><time>2026-04-11T16:09:07.998Z</time></trkpt><trkpt lat="42.626872290045604" lon="12.731536814547024"><ele>365.0</ele><time>2026-04-11T16:09:08.998Z</time></trkpt><trkpt lat="42.62666595930507" lon="12.731623819779461"><ele>366.33333333333337</ele><time>2026-04-11T16:09:09.998Z</time></trkpt><trkpt lat="42.6264585688658" lon="12.73171583900796"><ele>367.6666666666667</ele><time>2026-04-11T16:09:10.998Z</time></trkpt><trkpt lat="42.626254761850454" lon="12.731805679788511"><ele>369.0</ele><time>2026-04-11T16:09:11.998Z</time></trkpt><trkpt lat="42.62604969574424" lon="12.731887831519314"><ele>365.3333333333333</ele><time>2026-04-11T16:09:12.998Z</time></trkpt><trkpt lat="42.625846314326495" lon="12.731975795881167"><ele>361.66666666666663</ele><time>2026-04-11T16:09:13.998Z</time></trkpt><trkpt lat="42.62563932349436" lon="12.732077403262316"><ele>358.0</ele><time>2026-04-11T16:09:14.998Z</time></trkpt><trkpt lat="42.625431046211624" lon="12.73216902461632"><ele>359.0</ele><time>2026-04-11T16:09:15.998Z</time></trkpt><trkpt lat="42.62522482575727" lon="12.73226178614158"><ele>360.0</ele><time>2026-04-11T16:09:16.998Z</time></trkpt><trkpt lat="42.62502358568615" lon="12.732339616069682"><ele>361.0</ele><time>2026-04-11T16:09:17.998Z</time></trkpt><trkpt lat="42.624818643260504" lon="12.732424336154642"><ele>361.0</ele><time>2026-04-11T16:09:18.998Z</time></trkpt><trkpt lat="42.62460947451176" lon="12.732520180682092"><ele>361.0</ele><time>2026-04-11T16:09:19.998Z</time></trkpt><trkpt lat="42.6244012071836" lon="12.732608776164758"><ele>361.0</ele><time>2026-04-11T16:09:20.998Z</time></trkpt><trkpt lat="42.62419893541625" lon="12.732679677728122"><ele>358.0</ele><time>2026-04-11T16:09:21.998Z</time></trkpt><trkpt lat="42.62398680492483" lon="12.732728037772947"><ele>355.0</ele><time>2026-04-11T16:09:22.998Z</time></trkpt><trkpt lat="42.623773398035866" lon="12.732770945386727"><ele>352.0</ele><time>2026-04-11T16:09:23.998Z</time></trkpt><trkpt lat="42.6235589616621" lon="12.732774228518299"><ele>351.0</ele><time>2026-04-11T16:09:24.998Z</time></trkpt><trkpt lat="42.62334560951808" lon="12.7327997332512"><ele>350.0</ele><time>2026-04-11T16:09:25.998Z</time></trkpt><trkpt lat="42.62312336999362" lon="12.732798273908585"><ele>349.0</ele><time>2026-04-11T16:09:26.998Z</time></trkpt><trkpt lat="42.62291138467225" lon="12.732779883349144"><ele>349.0</ele><time>2026-04-11T16:09:27.998Z</time></trkpt><trkpt lat="42.622689508383594" lon="12.732756588846616"><ele>349.0</ele><time>2026-04-11T16:09:28.998Z</time></trkpt><trkpt lat="42.622480817442586" lon="12.732712455761813"><ele>349.0</ele><time>2026-04-11T16:09:29.998Z</time></trkpt><trkpt lat="42.62227653915698" lon="12.73266608508572"><ele>350.0</ele><time>2026-04-11T16:09:30.998Z</time></trkpt><trkpt lat="42.62207280918506" lon="12.732619444699523"><ele>351.0</ele><time>2026-04-11T16:09:31.998Z</time></trkpt><trkpt lat="42.6218624413877" lon="12.732576429493148"><ele>352.0</ele><time>2026-04-11T16:09:32.998Z</time></trkpt><trkpt lat="42.62165651460235" lon="12.732532242278705"><ele>352.0</ele><time>2026-04-11T16:09:33.998Z</time></trkpt><trkpt lat="42.621449319140794" lon="12.732484669853863"><ele>352.0</ele><time>2026-04-11T16:09:34.998Z</time></trkpt><trkpt lat="42.62125142055174" lon="12.73244844197183"><ele>352.0</ele><time>2026-04-11T16:09:35.998Z</time></trkpt><trkpt lat="42.62106541342255" lon="12.732419890255573"><ele>350.0</ele><time>2026-04-11T16:09:36.998Z</time></trkpt><trkpt lat="42.62087777439674" lon="12.732395202155914"><ele>348.0</ele><time>2026-04-11T16:09:37.998Z</time></trkpt><trkpt lat="42.62068666475747" lon="12.732374039393026"><ele>346.0</ele><time>2026-04-11T16:09:38.998Z</time></trkpt><trkpt lat="42.62049559574574" lon="12.732353355796102"><ele>345.3333333333333</ele><time>2026-04-11T16:09:39.998Z</time></trkpt><trkpt lat="42.620308364421525" lon="12.732328495354365"><ele>344.6666666666667</ele><time>2026-04-11T16:09:40.998Z</time></trkpt><trkpt lat="42.620116762683374" lon="12.732304760229617"><ele>344.0</ele><time>2026-04-11T16:09:41.998Z</time></trkpt><trkpt lat="42.61992203457757" lon="12.73232067531708"><ele>344.0</ele><time>2026-04-11T16:09:42.998Z</time></trkpt><trkpt lat="42.619734802108134" lon="12.732341899302186"><ele>344.0</ele><time>2026-04-11T16:09:43.998Z</time></trkpt><trkpt lat="42.619564660305755" lon="12.732358038762971"><ele>344.0</ele><time>2026-04-11T16:09:44.998Z</time></trkpt><trkpt lat="42.61940045406709" lon="12.732376862440326"><ele>343.75</ele><time>2026-04-11T16:09:45.998Z</time></trkpt><trkpt lat="42.61924209477443" lon="12.732397767850685"><ele>343.5</ele><time>2026-04-11T16:09:46.998Z</time></trkpt><trkpt lat="42.61909650213291" lon="12.732417914168407"><ele>343.25</ele><time>2026-04-11T16:09:47.998Z</time></trkpt><trkpt lat="42.61895688167653" lon="12.732454631513145"><ele>343.0</ele><time>2026-04-11T16:09:48.997Z</time></trkpt><trkpt lat="42.61882410793044" lon="12.73251129810334"><ele>343.0</ele><time>2026-04-11T16:09:49.997Z</time></trkpt><trkpt lat="42.61870128937918" lon="12.732560099656189"><ele>343.0</ele><time>2026-04-11T16:09:50.997Z</time></trkpt><trkpt lat="42.61858509018048" lon="12.732608636372278"><ele>343.0</ele><time>2026-04-11T16:09:51.997Z</time></trkpt><trkpt lat="42.61848528709307" lon="12.7326646151383"><ele>343.0</ele><time>2026-04-11T16:09:52.997Z</time></trkpt><trkpt lat="42.618401296113554" lon="12.732713593816195"><ele>343.0</ele><time>2026-04-11T16:09:53.997Z</time></trkpt><trkpt lat="42.61833627514981" lon="12.732752643359117"><ele>342.0</ele><time>2026-04-11T16:09:55.997Z</time></trkpt><trkpt lat="42.618257829417246" lon="12.732812088449874"><ele>341.0</ele><time>2026-04-11T16:11:57.997Z</time></trkpt><trkpt lat="42.61819881658113" lon="12.732855193390757"><ele>340.0</ele><time>2026-04-11T16:11:58.997Z</time></trkpt><trkpt lat="42.61811490611771" lon="12.732917300028308"><ele>339.0</ele><time>2026-04-11T16:11:59.997Z</time></trkpt><trkpt lat="42.61801921765775" lon="12.732992010008282"><ele>338.0</ele><time>2026-04-11T16:12:00.997Z</time></trkpt><trkpt lat="42.61790397651499" lon="12.733088883605644"><ele>343.6666666666667</ele><time>2026-04-11T16:12:01.997Z</time></trkpt><trkpt lat="42.61778572213405" lon="12.733190172145083"><ele>349.3333333333333</ele><time>2026-04-11T16:12:02.997Z</time></trkpt><trkpt lat="42.6176520332034" lon="12.73330384351255"><ele>355.0</ele><time>2026-04-11T16:12:03.997Z</time></trkpt><trkpt lat="42.61751439090128" lon="12.73342133648859"><ele>355.0</ele><time>2026-04-11T16:12:04.997Z</time></trkpt><trkpt lat="42.6173710474411" lon="12.733545132656456"><ele>355.0</ele><time>2026-04-11T16:12:05.997Z</time></trkpt><trkpt lat="42.61722282866825" lon="12.733673139289044"><ele>355.0</ele><time>2026-04-11T16:12:06.996Z</time></trkpt><trkpt lat="42.61706067837817" lon="12.733813177706208"><ele>352.0</ele><time>2026-04-11T16:12:07.996Z</time></trkpt><trkpt lat="42.616886807062166" lon="12.733963338663246"><ele>349.0</ele><time>2026-04-11T16:12:08.996Z</time></trkpt><trkpt lat="42.616718410284435" lon="12.734096623771869"><ele>346.0</ele><time>2026-04-11T16:12:09.996Z</time></trkpt><trkpt lat="42.616554164010445" lon="12.73421302710906"><ele>346.0</ele><time>2026-04-11T16:12:10.996Z</time></trkpt><trkpt lat="42.61637255698868" lon="12.734320265285358"><ele>346.0</ele><time>2026-04-11T16:12:11.996Z</time></trkpt><trkpt lat="42.616195334763155" lon="12.73440855693704"><ele>346.0</ele><time>2026-04-11T16:12:12.996Z</time></trkpt><trkpt lat="42.616017812020644" lon="12.734482156968488"><ele>342.66666666666663</ele><time>2026-04-11T16:12:13.996Z</time></trkpt><trkpt lat="42.615835364782114" lon="12.734537441071668"><ele>339.3333333333333</ele><time>2026-04-11T16:12:14.996Z</time></trkpt><trkpt lat="42.615621729764875" lon="12.734582251118068"><ele>336.0</ele><time>2026-04-11T16:12:15.996Z</time></trkpt><trkpt lat="42.61540426002554" lon="12.734619777360486"><ele>335.0</ele><time>2026-04-11T16:12:16.996Z</time></trkpt><trkpt lat="42.615186492597864" lon="12.734656433138984"><ele>334.0</ele><time>2026-04-11T16:12:17.996Z</time></trkpt><trkpt lat="42.61496655191443" lon="12.73471011551526"><ele>333.0</ele><time>2026-04-11T16:12:18.996Z</time></trkpt><trkpt lat="42.61474684761045" lon="12.734751303095836"><ele>333.0</ele><time>2026-04-11T16:12:19.996Z</time></trkpt><trkpt lat="42.61452625653328" lon="12.734785357023064"><ele>333.0</ele><time>2026-04-11T16:12:20.996Z</time></trkpt><trkpt lat="42.614308349574955" lon="12.73481637650659"><ele>333.0</ele><time>2026-04-11T16:12:21.996Z</time></trkpt><trkpt lat="42.614093102900995" lon="12.734847244232558"><ele>332.0</ele><time>2026-04-11T16:12:22.996Z</time></trkpt><trkpt lat="42.61387765703911" lon="12.734884991270308"><ele>331.0</ele><time>2026-04-11T16:12:23.996Z</time></trkpt><trkpt lat="42.61366496426201" lon="12.73491485234793"><ele>330.0</ele><time>2026-04-11T16:12:24.996Z</time></trkpt><trkpt lat="42.61344934401122" lon="12.734943772188092"><ele>329.6666666666667</ele><time>2026-04-11T16:12:25.996Z</time></trkpt><trkpt lat="42.613232852962476" lon="12.734979545139248"><ele>329.33333333333337</ele><time>2026-04-11T16:12:26.996Z</time></trkpt><trkpt lat="42.61301705659796" lon="12.735008172516899"><ele>329.0</ele><time>2026-04-11T16:12:27.996Z</time></trkpt><trkpt lat="42.61280692751883" lon="12.735047333670208"><ele>332.0</ele><time>2026-04-11T16:12:28.996Z</time></trkpt><trkpt lat="42.612596492145755" lon="12.735083319222369"><ele>335.0</ele><time>2026-04-11T16:12:29.996Z</time></trkpt><trkpt lat="42.612389857516" lon="12.735113860590802"><ele>338.0</ele><time>2026-04-11T16:12:30.996Z</time></trkpt><trkpt lat="42.61218538252497" lon="12.735148762895738"><ele>338.6666666666667</ele><time>2026-04-11T16:12:31.996Z</time></trkpt><trkpt lat="42.611978106810824" lon="12.735185299450814"><ele>339.3333333333333</ele><time>2026-04-11T16:12:32.996Z</time></trkpt><trkpt lat="42.611776441221" lon="12.735225085555788"><ele>340.0</ele><time>2026-04-11T16:12:33.996Z</time></trkpt><trkpt lat="42.61157174502335" lon="12.735265237573618"><ele>334.0</ele><time>2026-04-11T16:12:34.996Z</time></trkpt><trkpt lat="42.611377191640116" lon="12.735298086065505"><ele>328.0</ele><time>2026-04-11T16:12:35.996Z</time></trkpt><trkpt lat="42.61119451382796" lon="12.735315256503347"><ele>322.0</ele><time>2026-04-11T16:12:36.996Z</time></trkpt><trkpt lat="42.61102561149129" lon="12.735281403279108"><ele>325.3333333333333</ele><time>2026-04-11T16:12:37.996Z</time></trkpt><trkpt lat="42.6108258847393" lon="12.735188294739638"><ele>328.6666666666667</ele><time>2026-04-11T16:12:38.996Z</time></trkpt><trkpt lat="42.61063035292127" lon="12.735090555918744"><ele>332.0</ele><time>2026-04-11T16:12:39.996Z</time></trkpt><trkpt lat="42.61041935037808" lon="12.734954852584695"><ele>327.33333333333337</ele><time>2026-04-11T16:12:40.996Z</time></trkpt><trkpt lat="42.61022006151235" lon="12.734799277814899"><ele>322.6666666666667</ele><time>2026-04-11T16:12:41.996Z</time></trkpt><trkpt lat="42.61006666372907" lon="12.734663920273457"><ele>318.0</ele><time>2026-04-11T16:12:42.996Z</time></trkpt><trkpt lat="42.60998580255379" lon="12.73464917215955"><ele>318.0</ele><time>2026-04-11T16:12:43.996Z</time></trkpt><trkpt lat="42.60989763618611" lon="12.73452271228449"><ele>318.0</ele><time>2026-04-11T16:12:44.996Z</time></trkpt><trkpt lat="42.60979358907774" lon="12.734334588821973"><ele>318.0</ele><time>2026-04-11T16:12:45.996Z</time></trkpt><trkpt lat="42.60962730039029" lon="12.734058470321964"><ele>318.0</ele><time>2026-04-11T16:12:46.996Z</time></trkpt><trkpt lat="42.60952049332401" lon="12.733799643700513"><ele>318.0</ele><time>2026-04-11T16:12:47.996Z</time></trkpt><trkpt lat="42.609417346902575" lon="12.73354953247089"><ele>318.0</ele><time>2026-04-11T16:12:48.996Z</time></trkpt><trkpt lat="42.6093192555934" lon="12.73331667061491"><ele>318.0</ele><time>2026-04-11T16:12:49.996Z</time></trkpt><trkpt lat="42.60921781122032" lon="12.733086714481644"><ele>318.0</ele><time>2026-04-11T16:12:50.996Z</time></trkpt><trkpt lat="42.60910931830333" lon="12.732858963525059"><ele>318.0</ele><time>2026-04-11T16:12:51.996Z</time></trkpt><trkpt lat="42.608999047023914" lon="12.732637791823608"><ele>319.3333333333333</ele><time>2026-04-11T16:12:52.996Z</time></trkpt><trkpt lat="42.608887961547616" lon="12.732418564995893"><ele>320.66666666666663</ele><time>2026-04-11T16:12:53.996Z</time></trkpt><trkpt lat="42.60876327162663" lon="12.732203654056917"><ele>322.0</ele><time>2026-04-11T16:12:54.996Z</time></trkpt><trkpt lat="42.60861635654068" lon="12.732013900393365"><ele>322.0</ele><time>2026-04-11T16:12:55.996Z</time></trkpt><trkpt lat="42.6084595104552" lon="12.73182760639763"><ele>322.0</ele><time>2026-04-11T16:12:56.996Z</time></trkpt><trkpt lat="42.60829393068851" lon="12.731649911689525"><ele>322.0</ele><time>2026-04-11T16:12:57.996Z</time></trkpt><trkpt lat="42.6081209474468" lon="12.731485218310286"><ele>322.0</ele><time>2026-04-11T16:12:58.996Z</time></trkpt><trkpt lat="42.60794789800766" lon="12.731298678019384"><ele>322.0</ele><time>2026-04-11T16:12:59.996Z</time></trkpt><trkpt lat="42.60779498133332" lon="12.731050244233876"><ele>323.5</ele><time>2026-04-11T16:13:00.996Z</time></trkpt><trkpt lat="42.607618587728155" lon="12.73084674929149"><ele>325.0</ele><time>2026-04-11T16:13:01.996Z</time></trkpt><trkpt lat="42.60743469557895" lon="12.730654510974016"><ele>325.0</ele><time>2026-04-11T16:13:02.996Z</time></trkpt><trkpt lat="42.60729241801214" lon="12.73050581158663"><ele>325.0</ele><time>2026-04-11T16:13:03.996Z</time></trkpt><trkpt lat="42.60712346950305" lon="12.730395372821633"><ele>325.0</ele><time>2026-04-11T16:13:04.996Z</time></trkpt><trkpt lat="42.606948497492326" lon="12.730252922817035"><ele>322.0</ele><time>2026-04-11T16:13:05.996Z</time></trkpt><trkpt lat="42.606776889814924" lon="12.730095622077092"><ele>319.0</ele><time>2026-04-11T16:13:06.996Z</time></trkpt><trkpt lat="42.60661958568474" lon="12.729904518923389"><ele>316.0</ele><time>2026-04-11T16:13:07.996Z</time></trkpt><trkpt lat="42.60647055528364" lon="12.729703661490174"><ele>316.0</ele><time>2026-04-11T16:13:08.996Z</time></trkpt><trkpt lat="42.60631256249363" lon="12.729511139809084"><ele>316.0</ele><time>2026-04-11T16:13:09.996Z</time></trkpt><trkpt lat="42.60618891110764" lon="12.72927703793552"><ele>316.0</ele><time>2026-04-11T16:13:10.996Z</time></trkpt><trkpt lat="42.606068926236944" lon="12.72901929927334"><ele>318.0</ele><time>2026-04-11T16:13:11.996Z</time></trkpt><trkpt lat="42.60595453192349" lon="12.728766428986866"><ele>320.0</ele><time>2026-04-11T16:13:12.996Z</time></trkpt><trkpt lat="42.60584196624377" lon="12.728528678981771"><ele>322.0</ele><time>2026-04-11T16:13:13.996Z</time></trkpt><trkpt lat="42.605686051611166" lon="12.728319982583802"><ele>322.0</ele><time>2026-04-11T16:13:14.996Z</time></trkpt><trkpt lat="42.605545573442086" lon="12.728106690603186"><ele>322.0</ele><time>2026-04-11T16:13:15.996Z</time></trkpt><trkpt lat="42.60540245127842" lon="12.727906540239283"><ele>322.0</ele><time>2026-04-11T16:13:16.996Z</time></trkpt><trkpt lat="42.605259601485216" lon="12.727695939337186"><ele>317.3333333333333</ele><time>2026-04-11T16:13:17.996Z</time></trkpt><trkpt lat="42.60513181879807" lon="12.72747868351677"><ele>312.6666666666667</ele><time>2026-04-11T16:13:18.996Z</time></trkpt><trkpt lat="42.60501748222041" lon="12.727246661338672"><ele>308.0</ele><time>2026-04-11T16:13:19.996Z</time></trkpt><trkpt lat="42.60492214982571" lon="12.727002211910754"><ele>308.33333333333337</ele><time>2026-04-11T16:13:20.996Z</time></trkpt><trkpt lat="42.604830225137874" lon="12.72676240725345"><ele>308.6666666666667</ele><time>2026-04-11T16:13:21.996Z</time></trkpt><trkpt lat="42.604733403866234" lon="12.726529877213785"><ele>309.0</ele><time>2026-04-11T16:13:22.996Z</time></trkpt><trkpt lat="42.604623360358254" lon="12.72629839234302"><ele>309.0</ele><time>2026-04-11T16:13:23.996Z</time></trkpt><trkpt lat="42.60450100770564" lon="12.726073775162565"><ele>309.0</ele><time>2026-04-11T16:13:24.996Z</time></trkpt><trkpt lat="42.604363008746695" lon="12.725867597978146"><ele>309.0</ele><time>2026-04-11T16:13:25.996Z</time></trkpt><trkpt lat="42.60420873989293" lon="12.72566731754109"><ele>307.0</ele><time>2026-04-11T16:13:26.996Z</time></trkpt><trkpt lat="42.60404318012347" lon="12.725471936318693"><ele>305.0</ele><time>2026-04-11T16:13:27.996Z</time></trkpt><trkpt lat="42.60387630164129" lon="12.725286479459577"><ele>303.0</ele><time>2026-04-11T16:13:28.996Z</time></trkpt><trkpt lat="42.60371331478349" lon="12.725104343211193"><ele>301.6666666666667</ele><time>2026-04-11T16:13:29.996Z</time></trkpt><trkpt lat="42.6035441612154" lon="12.724931723864627"><ele>300.33333333333337</ele><time>2026-04-11T16:13:30.996Z</time></trkpt><trkpt lat="42.603369854741544" lon="12.724759649892627"><ele>299.0</ele><time>2026-04-11T16:13:31.996Z</time></trkpt><trkpt lat="42.60318557757843" lon="12.724617823563374"><ele>299.0</ele><time>2026-04-11T16:13:32.996Z</time></trkpt><trkpt lat="42.602991053927745" lon="12.724508470148109"><ele>299.0</ele><time>2026-04-11T16:13:33.996Z</time></trkpt><trkpt lat="42.60278644855134" lon="12.724438947828638"><ele>299.0</ele><time>2026-04-11T16:13:34.996Z</time></trkpt><trkpt lat="42.60257495539702" lon="12.724406750205313"><ele>297.0</ele><time>2026-04-11T16:13:35.996Z</time></trkpt><trkpt lat="42.602364114703406" lon="12.724406593386885"><ele>295.0</ele><time>2026-04-11T16:13:36.996Z</time></trkpt><trkpt lat="42.602161949579305" lon="12.724422597839691"><ele>293.0</ele><time>2026-04-11T16:13:37.996Z</time></trkpt><trkpt lat="42.601977092839064" lon="12.724448884415823"><ele>293.0</ele><time>2026-04-11T16:13:38.996Z</time></trkpt><trkpt lat="42.60179859373911" lon="12.724486125417632"><ele>293.0</ele><time>2026-04-11T16:13:39.996Z</time></trkpt><trkpt lat="42.60162017845403" lon="12.72453391564437"><ele>293.0</ele><time>2026-04-11T16:13:40.996Z</time></trkpt><trkpt lat="42.60145131730523" lon="12.724591060768471"><ele>293.0</ele><time>2026-04-11T16:13:41.996Z</time></trkpt><trkpt lat="42.6012918110436" lon="12.724647093294475"><ele>293.0</ele><time>2026-04-11T16:13:42.996Z</time></trkpt><trkpt lat="42.60113603167134" lon="12.724704814004022"><ele>293.0</ele><time>2026-04-11T16:13:43.996Z</time></trkpt><trkpt lat="42.60097279651875" lon="12.724780456917703"><ele>295.33333333333337</ele><time>2026-04-11T16:13:44.996Z</time></trkpt><trkpt lat="42.60081286906896" lon="12.72487558501354"><ele>297.6666666666667</ele><time>2026-04-11T16:13:45.996Z</time></trkpt><trkpt lat="42.60065125328339" lon="12.724999946238828"><ele>300.0</ele><time>2026-04-11T16:13:46.996Z</time></trkpt><trkpt lat="42.60049378871952" lon="12.725094666843066"><ele>300.0</ele><time>2026-04-11T16:13:47.996Z</time></trkpt><trkpt lat="42.600337479029385" lon="12.725188531607987"><ele>300.0</ele><time>2026-04-11T16:13:48.996Z</time></trkpt><trkpt lat="42.60017830747659" lon="12.72529088249689"><ele>300.0</ele><time>2026-04-11T16:13:49.996Z</time></trkpt><trkpt lat="42.600025772618736" lon="12.725382724703907"><ele>296.6666666666667</ele><time>2026-04-11T16:13:50.996Z</time></trkpt><trkpt lat="42.59986884884523" lon="12.725451885580886"><ele>293.33333333333337</ele><time>2026-04-11T16:13:51.996Z</time></trkpt><trkpt lat="42.59970134944937" lon="12.725494223830173"><ele>290.0</ele><time>2026-04-11T16:13:52.996Z</time></trkpt><trkpt lat="42.59953224491572" lon="12.725479998964147"><ele>290.6666666666667</ele><time>2026-04-11T16:13:53.996Z</time></trkpt><trkpt lat="42.59936816399503" lon="12.725455540677222"><ele>291.3333333333333</ele><time>2026-04-11T16:13:54.996Z</time></trkpt><trkpt lat="42.59920800474622" lon="12.725411194350928"><ele>292.0</ele><time>2026-04-11T16:13:55.996Z</time></trkpt><trkpt lat="42.59905148774832" lon="12.72533415648778"><ele>292.0</ele><time>2026-04-11T16:13:56.996Z</time></trkpt><trkpt lat="42.59890829934883" lon="12.725238230938645"><ele>292.0</ele><time>2026-04-11T16:13:57.996Z</time></trkpt><trkpt lat="42.59876475334463" lon="12.725125351411846"><ele>292.0</ele><time>2026-04-11T16:13:58.996Z</time></trkpt><trkpt lat="42.59863215212688" lon="12.725008578263402"><ele>290.3333333333333</ele><time>2026-04-11T16:13:59.996Z</time></trkpt><trkpt lat="42.59850629449612" lon="12.724858987704854"><ele>288.6666666666667</ele><time>2026-04-11T16:14:00.996Z</time></trkpt><trkpt lat="42.598397215953554" lon="12.724683139172498"><ele>287.0</ele><time>2026-04-11T16:14:01.996Z</time></trkpt><trkpt lat="42.59830078348364" lon="12.72450713611609"><ele>290.6666666666667</ele><time>2026-04-11T16:14:02.996Z</time></trkpt><trkpt lat="42.5982194910361" lon="12.724338843647717"><ele>294.3333333333333</ele><time>2026-04-11T16:14:03.996Z</time></trkpt><trkpt lat="42.598126980575" lon="12.72416459291019"><ele>298.0</ele><time>2026-04-11T16:14:04.996Z</time></trkpt><trkpt lat="42.59804237440867" lon="12.723996775335289"><ele>298.0</ele><time>2026-04-11T16:14:05.996Z</time></trkpt><trkpt lat="42.597950451230915" lon="12.723829491858625"><ele>298.0</ele><time>2026-04-11T16:14:06.996Z</time></trkpt><trkpt lat="42.59785714672213" lon="12.723660882776727"><ele>298.0</ele><time>2026-04-11T16:14:07.996Z</time></trkpt><trkpt lat="42.59776119432075" lon="12.72349918009527"><ele>293.66666666666663</ele><time>2026-04-11T16:14:08.996Z</time></trkpt><trkpt lat="42.59767043474013" lon="12.723338422096957"><ele>289.3333333333333</ele><time>2026-04-11T16:14:09.996Z</time></trkpt><trkpt lat="42.597576279906015" lon="12.723175401602346"><ele>285.0</ele><time>2026-04-11T16:14:10.996Z</time></trkpt><trkpt lat="42.59748789359113" lon="12.72300481918343"><ele>285.0</ele><time>2026-04-11T16:14:11.996Z</time></trkpt><trkpt lat="42.597423941983905" lon="12.722825969192613"><ele>285.0</ele><time>2026-04-11T16:14:12.996Z</time></trkpt><trkpt lat="42.597349936293796" lon="12.722639142730767"><ele>285.0</ele><time>2026-04-11T16:14:13.996Z</time></trkpt><trkpt lat="42.59729111348354" lon="12.722455196108248"><ele>286.75</ele><time>2026-04-11T16:14:14.996Z</time></trkpt><trkpt lat="42.59723852201867" lon="12.722268702041655"><ele>288.5</ele><time>2026-04-11T16:14:15.996Z</time></trkpt><trkpt lat="42.59719815410116" lon="12.722078335074402"><ele>290.25</ele><time>2026-04-11T16:14:16.996Z</time></trkpt><trkpt lat="42.59716915561279" lon="12.721881609359995"><ele>292.0</ele><time>2026-04-11T16:14:17.996Z</time></trkpt><trkpt lat="42.59714493713656" lon="12.721674433997432"><ele>293.25</ele><time>2026-04-11T16:14:18.996Z</time></trkpt><trkpt lat="42.59712868624771" lon="12.721480312959667"><ele>294.5</ele><time>2026-04-11T16:14:19.995Z</time></trkpt><trkpt lat="42.59710805908765" lon="12.72128530436832"><ele>295.75</ele><time>2026-04-11T16:14:20.995Z</time></trkpt><trkpt lat="42.597133527447205" lon="12.721092547305304"><ele>297.0</ele><time>2026-04-11T16:14:21.995Z</time></trkpt><trkpt lat="42.59715419023227" lon="12.720900544496827"><ele>294.25</ele><time>2026-04-11T16:14:22.995Z</time></trkpt><trkpt lat="42.59718766394547" lon="12.720705516167888"><ele>291.5</ele><time>2026-04-11T16:14:23.995Z</time></trkpt><trkpt lat="42.59723973825619" lon="12.720529071891374"><ele>288.75</ele><time>2026-04-11T16:14:24.995Z</time></trkpt><trkpt lat="42.59731014706917" lon="12.720354436397121"><ele>286.0</ele><time>2026-04-11T16:14:25.995Z</time></trkpt><trkpt lat="42.59740151867827" lon="12.720204876051495"><ele>282.5</ele><time>2026-04-11T16:14:26.995Z</time></trkpt><trkpt lat="42.59748970331949" lon="12.720076123746038"><ele>279.0</ele><time>2026-04-11T16:14:27.995Z</time></trkpt><trkpt lat="42.597582546599874" lon="12.719951463891539"><ele>275.5</ele><time>2026-04-11T16:14:28.995Z</time></trkpt><trkpt lat="42.597667206707484" lon="12.719816875334852"><ele>272.0</ele><time>2026-04-11T16:14:29.995Z</time></trkpt><trkpt lat="42.59775627772797" lon="12.719693096433259"><ele>276.75</ele><time>2026-04-11T16:14:30.995Z</time></trkpt><trkpt lat="42.597837112682804" lon="12.719559061567386"><ele>281.5</ele><time>2026-04-11T16:14:31.995Z</time></trkpt><trkpt lat="42.59789823249722" lon="12.71941121612225"><ele>286.25</ele><time>2026-04-11T16:14:32.995Z</time></trkpt><trkpt lat="42.59793799974699" lon="12.719249574020354"><ele>291.0</ele><time>2026-04-11T16:14:33.995Z</time></trkpt><trkpt lat="42.597970739010144" lon="12.719087737627909"><ele>291.0</ele><time>2026-04-11T16:14:34.995Z</time></trkpt><trkpt lat="42.59799095649323" lon="12.718923627217904"><ele>291.0</ele><time>2026-04-11T16:14:35.995Z</time></trkpt><trkpt lat="42.59803050271083" lon="12.718760292049575"><ele>291.0</ele><time>2026-04-11T16:14:36.995Z</time></trkpt><trkpt lat="42.598032916435876" lon="12.718600139225353"><ele>291.0</ele><time>2026-04-11T16:14:37.995Z</time></trkpt><trkpt lat="42.598041088351465" lon="12.718444205416471"><ele>289.0</ele><time>2026-04-11T16:14:38.995Z</time></trkpt><trkpt lat="42.59805133038888" lon="12.71828395109952"><ele>287.0</ele><time>2026-04-11T16:14:39.995Z</time></trkpt><trkpt lat="42.5980838949797" lon="12.718120881072704"><ele>285.0</ele><time>2026-04-11T16:14:40.995Z</time></trkpt><trkpt lat="42.598148873971454" lon="12.717968658045885"><ele>283.0</ele><time>2026-04-11T16:14:41.995Z</time></trkpt><trkpt lat="42.598240165310145" lon="12.717847469567065"><ele>280.5</ele><time>2026-04-11T16:14:42.995Z</time></trkpt><trkpt lat="42.59832438572235" lon="12.717720726695914"><ele>278.0</ele><time>2026-04-11T16:14:43.995Z</time></trkpt><trkpt lat="42.59841010718042" lon="12.71761834991077"><ele>275.5</ele><time>2026-04-11T16:14:44.995Z</time></trkpt><trkpt lat="42.598495792292866" lon="12.717505898962347"><ele>273.0</ele><time>2026-04-11T16:14:45.995Z</time></trkpt><trkpt lat="42.598596575224626" lon="12.71740601159835"><ele>274.5</ele><time>2026-04-11T16:14:46.995Z</time></trkpt><trkpt lat="42.5986726447906" lon="12.717268206995877"><ele>276.0</ele><time>2026-04-11T16:14:47.995Z</time></trkpt><trkpt lat="42.59875134333526" lon="12.71712367514602"><ele>277.5</ele><time>2026-04-11T16:14:48.995Z</time></trkpt><trkpt lat="42.598831664106456" lon="12.716980581483941"><ele>279.0</ele><time>2026-04-11T16:14:49.995Z</time></trkpt><trkpt lat="42.598922585917556" lon="12.716849759277425"><ele>279.0</ele><time>2026-04-11T16:14:50.995Z</time></trkpt><trkpt lat="42.59901021359317" lon="12.716712158432005"><ele>279.0</ele><time>2026-04-11T16:14:51.995Z</time></trkpt><trkpt lat="42.59909954238119" lon="12.716591264277108"><ele>279.0</ele><time>2026-04-11T16:14:52.995Z</time></trkpt><trkpt lat="42.59918337055355" lon="12.716474062874997"><ele>279.0</ele><time>2026-04-11T16:14:53.995Z</time></trkpt><trkpt lat="42.59923642871487" lon="12.71631871128311"><ele>279.0</ele><time>2026-04-11T16:14:54.995Z</time></trkpt><trkpt lat="42.59924785273214" lon="12.716145840581412"><ele>279.0</ele><time>2026-04-11T16:14:55.995Z</time></trkpt><trkpt lat="42.599228475132456" lon="12.715963854834607"><ele>279.0</ele><time>2026-04-11T16:14:56.995Z</time></trkpt><trkpt lat="42.5991629366" lon="12.715793513189276"><ele>279.0</ele><time>2026-04-11T16:14:57.995Z</time></trkpt><trkpt lat="42.5990922422121" lon="12.715639720716304"><ele>278.75</ele><time>2026-04-11T16:14:58.995Z</time></trkpt><trkpt lat="42.59901419328809" lon="12.715512172474703"><ele>278.5</ele><time>2026-04-11T16:14:59.995Z</time></trkpt><trkpt lat="42.59892544368608" lon="12.715382344291022"><ele>278.25</ele><time>2026-04-11T16:15:00.995Z</time></trkpt><trkpt lat="42.59883306278453" lon="12.715248833317029"><ele>278.0</ele><time>2026-04-11T16:15:01.995Z</time></trkpt><trkpt lat="42.598739759634405" lon="12.715113912637936"><ele>275.5</ele><time>2026-04-11T16:15:02.995Z</time></trkpt><trkpt lat="42.598651573372756" lon="12.714976148091813"><ele>273.0</ele><time>2026-04-11T16:15:03.995Z</time></trkpt><trkpt lat="42.5985670233327" lon="12.714842859616212"><ele>270.5</ele><time>2026-04-11T16:15:04.995Z</time></trkpt><trkpt lat="42.5984946288009" lon="12.71470875542154"><ele>268.0</ele><time>2026-04-11T16:15:05.995Z</time></trkpt><trkpt lat="42.59843727992167" lon="12.714551751498417"><ele>267.5</ele><time>2026-04-11T16:15:06.995Z</time></trkpt><trkpt lat="42.59842243610192" lon="12.714373041745018"><ele>267.0</ele><time>2026-04-11T16:15:07.995Z</time></trkpt><trkpt lat="42.598437133574606" lon="12.7142110914319"><ele>266.5</ele><time>2026-04-11T16:15:08.995Z</time></trkpt><trkpt lat="42.59847222091807" lon="12.714071210038263"><ele>266.0</ele><time>2026-04-11T16:15:09.995Z</time></trkpt><trkpt lat="42.598508499928315" lon="12.713911530115686"><ele>266.0</ele><time>2026-04-11T16:15:10.995Z</time></trkpt><trkpt lat="42.598541498920234" lon="12.713754410941224"><ele>266.0</ele><time>2026-04-11T16:15:11.995Z</time></trkpt><trkpt lat="42.59858398289665" lon="12.713606060435614"><ele>266.0</ele><time>2026-04-11T16:15:12.995Z</time></trkpt><trkpt lat="42.598610031811184" lon="12.713448029501334"><ele>266.0</ele><time>2026-04-11T16:15:13.995Z</time></trkpt><trkpt lat="42.59861678868205" lon="12.713290102002182"><ele>265.25</ele><time>2026-04-11T16:15:14.995Z</time></trkpt><trkpt lat="42.598593139015435" lon="12.713134536737561"><ele>264.5</ele><time>2026-04-11T16:15:15.995Z</time></trkpt><trkpt lat="42.59853862951832" lon="12.71297656345962"><ele>263.75</ele><time>2026-04-11T16:15:16.995Z</time></trkpt><trkpt lat="42.59845309389226" lon="12.712864491126382"><ele>263.0</ele><time>2026-04-11T16:15:17.995Z</time></trkpt><trkpt lat="42.59834906303583" lon="12.71276325640259"><ele>269.75</ele><time>2026-04-11T16:15:18.995Z</time></trkpt><trkpt lat="42.598237961832204" lon="12.712689166751812"><ele>276.5</ele><time>2026-04-11T16:15:19.995Z</time></trkpt><trkpt lat="42.59812232828877" lon="12.712646811949822"><ele>283.25</ele><time>2026-04-11T16:15:20.995Z</time></trkpt><trkpt lat="42.598005707789866" lon="12.712621441658657"><ele>290.0</ele><time>2026-04-11T16:15:21.995Z</time></trkpt><trkpt lat="42.59788083077742" lon="12.712601415669294"><ele>283.75</ele><time>2026-04-11T16:15:22.995Z</time></trkpt><trkpt lat="42.5977556069792" lon="12.712587407828742"><ele>277.5</ele><time>2026-04-11T16:15:23.995Z</time></trkpt><trkpt lat="42.59762961435748" lon="12.712574143943804"><ele>271.25</ele><time>2026-04-11T16:15:24.995Z</time></trkpt><trkpt lat="42.597491866056956" lon="12.712594043555848"><ele>265.0</ele><time>2026-04-11T16:15:25.995Z</time></trkpt><trkpt lat="42.59734559415854" lon="12.712592491835036"><ele>265.0</ele><time>2026-04-11T16:15:26.995Z</time></trkpt><trkpt lat="42.59718789116264" lon="12.712580743711827"><ele>265.0</ele><time>2026-04-11T16:15:27.995Z</time></trkpt><trkpt lat="42.59704087261975" lon="12.712511268045489"><ele>265.0</ele><time>2026-04-11T16:15:28.995Z</time></trkpt><trkpt lat="42.59690760226983" lon="12.712417934805885"><ele>261.0</ele><time>2026-04-11T16:15:29.995Z</time></trkpt><trkpt lat="42.59678358480709" lon="12.712319689047847"><ele>257.0</ele><time>2026-04-11T16:15:30.995Z</time></trkpt><trkpt lat="42.59667628813017" lon="12.712181428563426"><ele>253.0</ele><time>2026-04-11T16:15:31.995Z</time></trkpt><trkpt lat="42.59657247071363" lon="12.712048201186427"><ele>249.0</ele><time>2026-04-11T16:15:32.995Z</time></trkpt><trkpt lat="42.596475400668716" lon="12.71192129451505"><ele>250.5</ele><time>2026-04-11T16:15:33.995Z</time></trkpt><trkpt lat="42.59637459314117" lon="12.711787015261226"><ele>252.0</ele><time>2026-04-11T16:15:34.995Z</time></trkpt><trkpt lat="42.596278785940356" lon="12.711656638326819"><ele>253.5</ele><time>2026-04-11T16:15:35.995Z</time></trkpt><trkpt lat="42.59617287161686" lon="12.711554191100348"><ele>255.0</ele><time>2026-04-11T16:15:36.995Z</time></trkpt><trkpt lat="42.5960557708054" lon="12.71147307506159"><ele>255.0</ele><time>2026-04-11T16:15:37.995Z</time></trkpt><trkpt lat="42.59592732682856" lon="12.711429097011079"><ele>255.0</ele><time>2026-04-11T16:15:38.995Z</time></trkpt><trkpt lat="42.595799200872904" lon="12.711405280808009"><ele>255.0</ele><time>2026-04-11T16:15:39.995Z</time></trkpt><trkpt lat="42.59567200269513" lon="12.711404560635934"><ele>255.0</ele><time>2026-04-11T16:15:40.995Z</time></trkpt><trkpt lat="42.59554767854402" lon="12.711445418383756"><ele>255.0</ele><time>2026-04-11T16:15:41.995Z</time></trkpt><trkpt lat="42.59541579211873" lon="12.711493292128281"><ele>255.0</ele><time>2026-04-11T16:15:42.995Z</time></trkpt><trkpt lat="42.59527963374003" lon="12.711545905497486"><ele>255.0</ele><time>2026-04-11T16:15:43.995Z</time></trkpt><trkpt lat="42.59515612543079" lon="12.711595819958774"><ele>255.0</ele><time>2026-04-11T16:15:44.995Z</time></trkpt><trkpt lat="42.59501795745997" lon="12.71164165619203"><ele>254.5</ele><time>2026-04-11T16:15:45.995Z</time></trkpt><trkpt lat="42.59487617079785" lon="12.711699188331014"><ele>254.0</ele><time>2026-04-11T16:15:46.995Z</time></trkpt><trkpt lat="42.59473767398868" lon="12.711737328659286"><ele>253.5</ele><time>2026-04-11T16:15:47.995Z</time></trkpt><trkpt lat="42.59459252176205" lon="12.711768998760313"><ele>253.0</ele><time>2026-04-11T16:15:48.995Z</time></trkpt><trkpt lat="42.59443918961502" lon="12.711746650025791"><ele>251.66666666666666</ele><time>2026-04-11T16:15:49.995Z</time></trkpt><trkpt lat="42.59427563202432" lon="12.711727243586376"><ele>250.33333333333331</ele><time>2026-04-11T16:15:50.995Z</time></trkpt><trkpt lat="42.59412881635473" lon="12.711642245559577"><ele>249.0</ele><time>2026-04-11T16:15:51.995Z</time></trkpt><trkpt lat="42.5939874337769" lon="12.711542365706588"><ele>249.0</ele><time>2026-04-11T16:15:52.995Z</time></trkpt><trkpt lat="42.59385232929389" lon="12.711419082981026"><ele>249.0</ele><time>2026-04-11T16:15:53.995Z</time></trkpt><trkpt lat="42.593713608920076" lon="12.71128784882498"><ele>249.0</ele><time>2026-04-11T16:15:54.995Z</time></trkpt><trkpt lat="42.59358245672062" lon="12.711162979409227"><ele>250.33333333333331</ele><time>2026-04-11T16:15:55.995Z</time></trkpt><trkpt lat="42.59344844777217" lon="12.711039990348487"><ele>251.66666666666666</ele><time>2026-04-11T16:15:56.995Z</time></trkpt><trkpt lat="42.593314875776365" lon="12.710920200812424"><ele>253.0</ele><time>2026-04-11T16:15:57.995Z</time></trkpt><trkpt lat="42.59317737671783" lon="12.710821232579248"><ele>253.0</ele><time>2026-04-11T16:15:58.995Z</time></trkpt><trkpt lat="42.59305392092905" lon="12.710718884639194"><ele>253.0</ele><time>2026-04-11T16:15:59.995Z</time></trkpt><trkpt lat="42.5929237794954" lon="12.710644622736032"><ele>253.0</ele><time>2026-04-11T16:16:00.995Z</time></trkpt><trkpt lat="42.59279092392124" lon="12.71055744832291"><ele>253.0</ele><time>2026-04-11T16:16:01.995Z</time></trkpt><trkpt lat="42.59264708477517" lon="12.710486556743472"><ele>249.33333333333331</ele><time>2026-04-11T16:16:02.995Z</time></trkpt><trkpt lat="42.59250265003663" lon="12.710415371612411"><ele>245.66666666666669</ele><time>2026-04-11T16:16:03.995Z</time></trkpt><trkpt lat="42.59235836713846" lon="12.71033998926377"><ele>242.0</ele><time>2026-04-11T16:16:04.995Z</time></trkpt><trkpt lat="42.592208485843045" lon="12.710253212846403"><ele>239.0</ele><time>2026-04-11T16:16:05.995Z</time></trkpt><trkpt lat="42.59208476674047" lon="12.710097116767441"><ele>236.0</ele><time>2026-04-11T16:16:06.995Z</time></trkpt><trkpt lat="42.59196688948246" lon="12.709924340200981"><ele>233.0</ele><time>2026-04-11T16:16:07.995Z</time></trkpt><trkpt lat="42.59185217426777" lon="12.709746639341395"><ele>233.0</ele><time>2026-04-11T16:16:08.995Z</time></trkpt><trkpt lat="42.59173808282026" lon="12.70957404562395"><ele>233.0</ele><time>2026-04-11T16:16:09.995Z</time></trkpt><trkpt lat="42.591618093924694" lon="12.709412690483916"><ele>233.0</ele><time>2026-04-11T16:16:10.995Z</time></trkpt><trkpt lat="42.591486259219295" lon="12.709283180002878"><ele>233.66666666666669</ele><time>2026-04-11T16:16:11.995Z</time></trkpt><trkpt lat="42.591335924130014" lon="12.709176303966663"><ele>234.33333333333331</ele><time>2026-04-11T16:16:12.995Z</time></trkpt><trkpt lat="42.59116855217991" lon="12.709090275083966"><ele>235.0</ele><time>2026-04-11T16:16:13.995Z</time></trkpt><trkpt lat="42.59101122220972" lon="12.709026156352117"><ele>235.0</ele><time>2026-04-11T16:16:14.995Z</time></trkpt><trkpt lat="42.59085780707127" lon="12.708984126118239"><ele>235.0</ele><time>2026-04-11T16:16:15.995Z</time></trkpt><trkpt lat="42.59072569588035" lon="12.70889105110126"><ele>235.0</ele><time>2026-04-11T16:16:16.995Z</time></trkpt><trkpt lat="42.59059928638031" lon="12.708795405639405"><ele>235.0</ele><time>2026-04-11T16:16:17.995Z</time></trkpt><trkpt lat="42.59047234427678" lon="12.708682997978896"><ele>235.0</ele><time>2026-04-11T16:16:18.995Z</time></trkpt><trkpt lat="42.59034514727094" lon="12.70856703848358"><ele>235.0</ele><time>2026-04-11T16:16:19.995Z</time></trkpt><trkpt lat="42.59022194385728" lon="12.708451390744846"><ele>235.33333333333331</ele><time>2026-04-11T16:16:20.995Z</time></trkpt><trkpt lat="42.590099750071424" lon="12.708328961236681"><ele>235.66666666666669</ele><time>2026-04-11T16:16:21.995Z</time></trkpt><trkpt lat="42.589996903091915" lon="12.708171917971603"><ele>236.0</ele><time>2026-04-11T16:16:22.995Z</time></trkpt><trkpt lat="42.58990321012525" lon="12.708003490083245"><ele>236.0</ele><time>2026-04-11T16:16:23.995Z</time></trkpt><trkpt lat="42.589787031055614" lon="12.707851411547594"><ele>236.0</ele><time>2026-04-11T16:16:24.995Z</time></trkpt><trkpt lat="42.589650752392934" lon="12.707750272032428"><ele>236.0</ele><time>2026-04-11T16:16:25.995Z</time></trkpt><trkpt lat="42.58951182461601" lon="12.7076527824798"><ele>235.0</ele><time>2026-04-11T16:16:26.994Z</time></trkpt><trkpt lat="42.58937503509302" lon="12.707545765931751"><ele>234.0</ele><time>2026-04-11T16:16:27.994Z</time></trkpt><trkpt lat="42.589227426759294" lon="12.707452027622281"><ele>233.0</ele><time>2026-04-11T16:16:28.994Z</time></trkpt><trkpt lat="42.58908126109308" lon="12.707360348193399"><ele>233.0</ele><time>2026-04-11T16:16:29.994Z</time></trkpt><trkpt lat="42.58893153941871" lon="12.707266560997736"><ele>233.0</ele><time>2026-04-11T16:16:30.994Z</time></trkpt><trkpt lat="42.588773252225444" lon="12.70718947511729"><ele>233.0</ele><time>2026-04-11T16:16:31.994Z</time></trkpt><trkpt lat="42.58862997561732" lon="12.707080516875452"><ele>234.0</ele><time>2026-04-11T16:16:32.994Z</time></trkpt><trkpt lat="42.588477928614104" lon="12.70700169126933"><ele>235.0</ele><time>2026-04-11T16:16:33.994Z</time></trkpt><trkpt lat="42.58832583257343" lon="12.706950908888102"><ele>236.0</ele><time>2026-04-11T16:16:34.994Z</time></trkpt><trkpt lat="42.58818632850569" lon="12.706861015156456"><ele>236.0</ele><time>2026-04-11T16:16:35.994Z</time></trkpt><trkpt lat="42.58804736676763" lon="12.706779062757466"><ele>236.0</ele><time>2026-04-11T16:16:36.994Z</time></trkpt><trkpt lat="42.587917940191254" lon="12.706649987428591"><ele>236.0</ele><time>2026-04-11T16:16:37.994Z</time></trkpt><trkpt lat="42.5878134818169" lon="12.706497611424197"><ele>234.0</ele><time>2026-04-11T16:16:38.994Z</time></trkpt><trkpt lat="42.58771645875087" lon="12.706343828572887"><ele>232.0</ele><time>2026-04-11T16:16:39.994Z</time></trkpt><trkpt lat="42.58761305906788" lon="12.706198246160504"><ele>230.0</ele><time>2026-04-11T16:16:40.994Z</time></trkpt><trkpt lat="42.587518077876034" lon="12.706036401645058"><ele>230.0</ele><time>2026-04-11T16:16:41.994Z</time></trkpt><trkpt lat="42.58742327260401" lon="12.70586127956223"><ele>230.0</ele><time>2026-04-11T16:16:42.994Z</time></trkpt><trkpt lat="42.587324182744155" lon="12.705697320585772"><ele>230.0</ele><time>2026-04-11T16:16:43.994Z</time></trkpt><trkpt lat="42.587226608121725" lon="12.705529370934652"><ele>230.0</ele><time>2026-04-11T16:16:44.994Z</time></trkpt><trkpt lat="42.58711501640946" lon="12.705387508594528"><ele>230.0</ele><time>2026-04-11T16:16:45.994Z</time></trkpt><trkpt lat="42.58700128493584" lon="12.705233136799597"><ele>230.0</ele><time>2026-04-11T16:16:46.994Z</time></trkpt><trkpt lat="42.5868865654279" lon="12.705079624712592"><ele>229.66666666666669</ele><time>2026-04-11T16:16:47.994Z</time></trkpt><trkpt lat="42.58674523753839" lon="12.70495697849531"><ele>229.33333333333331</ele><time>2026-04-11T16:16:48.994Z</time></trkpt><trkpt lat="42.5866046817266" lon="12.704847018397452"><ele>229.0</ele><time>2026-04-11T16:16:49.994Z</time></trkpt><trkpt lat="42.586501575262915" lon="12.704668932131707"><ele>229.0</ele><time>2026-04-11T16:16:50.994Z</time></trkpt><trkpt lat="42.586411111094435" lon="12.704488017175915"><ele>229.0</ele><time>2026-04-11T16:16:51.994Z</time></trkpt><trkpt lat="42.58633333743592" lon="12.704313632915538"><ele>229.0</ele><time>2026-04-11T16:16:52.994Z</time></trkpt><trkpt lat="42.5862373220049" lon="12.704163134215731"><ele>226.33333333333331</ele><time>2026-04-11T16:16:53.994Z</time></trkpt><trkpt lat="42.586121969377935" lon="12.704039686011555"><ele>223.66666666666669</ele><time>2026-04-11T16:16:54.994Z</time></trkpt><trkpt lat="42.5859883276745" lon="12.703931588686123"><ele>221.0</ele><time>2026-04-11T16:16:55.994Z</time></trkpt><trkpt lat="42.58585337234992" lon="12.703822322781575"><ele>221.0</ele><time>2026-04-11T16:16:56.994Z</time></trkpt><trkpt lat="42.58574278928219" lon="12.703682895682862"><ele>221.0</ele><time>2026-04-11T16:16:57.994Z</time></trkpt><trkpt lat="42.585626124278086" lon="12.703547117860413"><ele>221.0</ele><time>2026-04-11T16:16:58.994Z</time></trkpt><trkpt lat="42.58550492056206" lon="12.703413765482164"><ele>218.33333333333334</ele><time>2026-04-11T16:16:59.994Z</time></trkpt><trkpt lat="42.58540008022161" lon="12.70322847004533"><ele>215.66666666666669</ele><time>2026-04-11T16:17:00.994Z</time></trkpt><trkpt lat="42.585316853914684" lon="12.703038277299687"><ele>213.0</ele><time>2026-04-11T16:17:01.994Z</time></trkpt><trkpt lat="42.585247503069446" lon="12.702824419434961"><ele>214.0</ele><time>2026-04-11T16:17:02.994Z</time></trkpt><trkpt lat="42.58519238951893" lon="12.702596363419032"><ele>215.0</ele><time>2026-04-11T16:17:03.994Z</time></trkpt><trkpt lat="42.5851228924291" lon="12.702383813548623"><ele>216.0</ele><time>2026-04-11T16:17:04.994Z</time></trkpt><trkpt lat="42.585056469927956" lon="12.70216218336547"><ele>216.0</ele><time>2026-04-11T16:17:05.994Z</time></trkpt><trkpt lat="42.584983274452156" lon="12.701944159495353"><ele>216.0</ele><time>2026-04-11T16:17:06.994Z</time></trkpt><trkpt lat="42.58490560639407" lon="12.701738937402999"><ele>216.0</ele><time>2026-04-11T16:17:07.994Z</time></trkpt><trkpt lat="42.584844047875414" lon="12.701528060040214"><ele>218.66666666666669</ele><time>2026-04-11T16:17:08.994Z</time></trkpt><trkpt lat="42.584769894895636" lon="12.701325281171496"><ele>221.33333333333334</ele><time>2026-04-11T16:17:09.994Z</time></trkpt><trkpt lat="42.58469622210977" lon="12.701124450925857"><ele>224.0</ele><time>2026-04-11T16:17:10.994Z</time></trkpt><trkpt lat="42.58462577951917" lon="12.700937123402754"><ele>226.25</ele><time>2026-04-11T16:17:11.994Z</time></trkpt><trkpt lat="42.58456061871964" lon="12.700763840482379"><ele>228.5</ele><time>2026-04-11T16:17:12.994Z</time></trkpt><trkpt lat="42.58449685788832" lon="12.70060185527792"><ele>230.75</ele><time>2026-04-11T16:17:13.994Z</time></trkpt><trkpt lat="42.5844187279645" lon="12.700461111001385"><ele>233.0</ele><time>2026-04-11T16:17:14.994Z</time></trkpt><trkpt lat="42.58433420595174" lon="12.700327681968416"><ele>226.25</ele><time>2026-04-11T16:17:15.994Z</time></trkpt><trkpt lat="42.584292882951075" lon="12.70017242803765"><ele>219.5</ele><time>2026-04-11T16:17:16.994Z</time></trkpt><trkpt lat="42.58425509609773" lon="12.70002490683209"><ele>212.75</ele><time>2026-04-11T16:17:17.994Z</time></trkpt><trkpt lat="42.5842001614813" lon="12.699897954953226"><ele>206.0</ele><time>2026-04-11T16:17:18.994Z</time></trkpt><trkpt lat="42.58412770762204" lon="12.69977090206623"><ele>206.0</ele><time>2026-04-11T16:17:19.994Z</time></trkpt><trkpt lat="42.584065071670125" lon="12.699632095779517"><ele>206.0</ele><time>2026-04-11T16:17:20.994Z</time></trkpt><trkpt lat="42.58402674380734" lon="12.699470890297519"><ele>206.0</ele><time>2026-04-11T16:17:21.994Z</time></trkpt><trkpt lat="42.584005313457325" lon="12.69930389969412"><ele>206.0</ele><time>2026-04-11T16:17:22.994Z</time></trkpt><trkpt lat="42.58397382435066" lon="12.699132751602924"><ele>207.5</ele><time>2026-04-11T16:17:23.994Z</time></trkpt><trkpt lat="42.58392538531818" lon="12.698956986357235"><ele>209.0</ele><time>2026-04-11T16:17:24.994Z</time></trkpt><trkpt lat="42.583862546839185" lon="12.698786708200887"><ele>210.5</ele><time>2026-04-11T16:17:25.994Z</time></trkpt><trkpt lat="42.58379243831898" lon="12.698626434882796"><ele>212.0</ele><time>2026-04-11T16:17:26.994Z</time></trkpt><trkpt lat="42.5837180390608" lon="12.698479412252954"><ele>209.25</ele><time>2026-04-11T16:17:27.994Z</time></trkpt><trkpt lat="42.58363908623667" lon="12.698333237857119"><ele>206.5</ele><time>2026-04-11T16:17:28.994Z</time></trkpt><trkpt lat="42.5835625834277" lon="12.69818284603249"><ele>203.75</ele><time>2026-04-11T16:17:29.994Z</time></trkpt><trkpt lat="42.58349119803203" lon="12.698029632871297"><ele>201.0</ele><time>2026-04-11T16:17:30.994Z</time></trkpt><trkpt lat="42.58342212393515" lon="12.697868752753312"><ele>202.5</ele><time>2026-04-11T16:17:31.994Z</time></trkpt><trkpt lat="42.58334634495556" lon="12.697702604147796"><ele>204.0</ele><time>2026-04-11T16:17:32.994Z</time></trkpt><trkpt lat="42.58327464673408" lon="12.697542450548568"><ele>205.5</ele><time>2026-04-11T16:17:33.994Z</time></trkpt><trkpt lat="42.583203248966534" lon="12.697386587772337"><ele>207.0</ele><time>2026-04-11T16:17:34.994Z</time></trkpt><trkpt lat="42.58312915699149" lon="12.697227712358089"><ele>207.0</ele><time>2026-04-11T16:17:35.994Z</time></trkpt><trkpt lat="42.583052865631984" lon="12.697061538630898"><ele>207.0</ele><time>2026-04-11T16:17:36.994Z</time></trkpt><trkpt lat="42.582969733348314" lon="12.696886729920223"><ele>207.0</ele><time>2026-04-11T16:17:37.994Z</time></trkpt><trkpt lat="42.58288707597137" lon="12.696706545797614"><ele>203.66666666666669</ele><time>2026-04-11T16:17:38.994Z</time></trkpt><trkpt lat="42.58281196293452" lon="12.696503984239799"><ele>200.33333333333334</ele><time>2026-04-11T16:17:39.994Z</time></trkpt><trkpt lat="42.58272687886875" lon="12.69631201257127"><ele>197.0</ele><time>2026-04-11T16:17:40.994Z</time></trkpt><trkpt lat="42.58264183602883" lon="12.69612013389248"><ele>199.0</ele><time>2026-04-11T16:17:41.994Z</time></trkpt><trkpt lat="42.58254985414203" lon="12.695912598846746"><ele>201.0</ele><time>2026-04-11T16:17:42.994Z</time></trkpt><trkpt lat="42.582457284051955" lon="12.69570373682207"><ele>203.0</ele><time>2026-04-11T16:17:43.994Z</time></trkpt><trkpt lat="42.58236544050926" lon="12.695496513987267"><ele>203.0</ele><time>2026-04-11T16:17:44.994Z</time></trkpt><trkpt lat="42.58227660665304" lon="12.695294947646694"><ele>203.0</ele><time>2026-04-11T16:17:45.994Z</time></trkpt><trkpt lat="42.58219174196155" lon="12.695101820026764"><ele>203.0</ele><time>2026-04-11T16:17:46.994Z</time></trkpt><trkpt lat="42.58209489743783" lon="12.69488142979722"><ele>201.33333333333334</ele><time>2026-04-11T16:17:47.994Z</time></trkpt><trkpt lat="42.58200152961938" lon="12.694668951577373"><ele>199.66666666666669</ele><time>2026-04-11T16:17:48.994Z</time></trkpt><trkpt lat="42.58191903720075" lon="12.694481222617615"><ele>198.0</ele><time>2026-04-11T16:17:49.994Z</time></trkpt><trkpt lat="42.58182218275416" lon="12.694260809612885"><ele>198.0</ele><time>2026-04-11T16:17:50.994Z</time></trkpt><trkpt lat="42.5817388989071" lon="12.694070413373284"><ele>198.0</ele><time>2026-04-11T16:17:51.994Z</time></trkpt><trkpt lat="42.58165242023437" lon="12.693871946705114"><ele>198.0</ele><time>2026-04-11T16:17:52.994Z</time></trkpt><trkpt lat="42.581565497687436" lon="12.693672461555241"><ele>199.33333333333331</ele><time>2026-04-11T16:17:53.994Z</time></trkpt><trkpt lat="42.58148833273541" lon="12.693495369749952"><ele>200.66666666666666</ele><time>2026-04-11T16:17:54.994Z</time></trkpt><trkpt lat="42.581412268147226" lon="12.69332080329735"><ele>202.0</ele><time>2026-04-11T16:17:55.994Z</time></trkpt><trkpt lat="42.58133333891966" lon="12.693141314787253"><ele>202.0</ele><time>2026-04-11T16:17:56.994Z</time></trkpt><trkpt lat="42.58126308183305" lon="12.692982286975077"><ele>202.0</ele><time>2026-04-11T16:17:57.994Z</time></trkpt><trkpt lat="42.58120695953075" lon="12.69278800748031"><ele>202.0</ele><time>2026-04-11T16:17:58.994Z</time></trkpt><trkpt lat="42.58116971931148" lon="12.692587086394777"><ele>202.0</ele><time>2026-04-11T16:17:59.994Z</time></trkpt><trkpt lat="42.58113080206093" lon="12.692399754538194"><ele>200.5</ele><time>2026-04-11T16:18:00.994Z</time></trkpt><trkpt lat="42.581088861611924" lon="12.692212536553356"><ele>199.0</ele><time>2026-04-11T16:18:01.994Z</time></trkpt><trkpt lat="42.58104975715039" lon="12.692020014226914"><ele>197.5</ele><time>2026-04-11T16:18:02.994Z</time></trkpt><trkpt lat="42.581007965593486" lon="12.691845815464683"><ele>196.0</ele><time>2026-04-11T16:18:03.994Z</time></trkpt><trkpt lat="42.58096876478302" lon="12.69167555675414"><ele>196.0</ele><time>2026-04-11T16:18:04.994Z</time></trkpt><trkpt lat="42.5809417952896" lon="12.691508152330897"><ele>196.0</ele><time>2026-04-11T16:18:05.994Z</time></trkpt><trkpt lat="42.58091336453888" lon="12.691343915466469"><ele>196.0</ele><time>2026-04-11T16:18:06.994Z</time></trkpt><trkpt lat="42.58086442337751" lon="12.691193768923709"><ele>196.0</ele><time>2026-04-11T16:18:07.994Z</time></trkpt><trkpt lat="42.58078155913343" lon="12.691064499529816"><ele>196.20000000000002</ele><time>2026-04-11T16:18:08.994Z</time></trkpt><trkpt lat="42.58068393898825" lon="12.690955405830218"><ele>196.4</ele><time>2026-04-11T16:18:09.994Z</time></trkpt><trkpt lat="42.58058877102362" lon="12.69088251866742"><ele>196.6</ele><time>2026-04-11T16:18:10.994Z</time></trkpt><trkpt lat="42.580476364998425" lon="12.69092417580356"><ele>196.8</ele><time>2026-04-11T16:18:11.994Z</time></trkpt><trkpt lat="42.58038409177165" lon="12.69094140949945"><ele>197.0</ele><time>2026-04-11T16:18:12.994Z</time></trkpt><trkpt lat="42.580296949943545" lon="12.690957050515616"><ele>195.2</ele><time>2026-04-11T16:18:13.994Z</time></trkpt><trkpt lat="42.5801616450029" lon="12.690978904290793"><ele>193.39999999999998</ele><time>2026-04-11T16:18:15.994Z</time></trkpt><trkpt lat="42.58009648399144" lon="12.690984363015081"><ele>191.60000000000002</ele><time>2026-04-11T16:18:16.994Z</time></trkpt><trkpt lat="42.58000311532757" lon="12.690888281979383"><ele>189.8</ele><time>2026-04-11T16:18:18.994Z</time></trkpt><trkpt lat="42.57990676732405" lon="12.690797389280837"><ele>188.0</ele><time>2026-04-11T16:18:20.994Z</time></trkpt><trkpt lat="42.57983726758642" lon="12.690722057822658"><ele>188.0</ele><time>2026-04-11T16:18:21.994Z</time></trkpt><trkpt lat="42.579767287729034" lon="12.690648047156204"><ele>188.0</ele><time>2026-04-11T16:18:22.994Z</time></trkpt><trkpt lat="42.57970683938068" lon="12.690538340284423"><ele>188.0</ele><time>2026-04-11T16:18:23.994Z</time></trkpt><trkpt lat="42.579668394465635" lon="12.690427708930226"><ele>188.0</ele><time>2026-04-11T16:18:24.994Z</time></trkpt><trkpt lat="42.5796323741529" lon="12.6903156129288"><ele>188.0</ele><time>2026-04-11T16:18:25.994Z</time></trkpt><trkpt lat="42.5796065447928" lon="12.69021004715752"><ele>188.66666666666666</ele><time>2026-04-11T16:18:26.994Z</time></trkpt><trkpt lat="42.57958513440307" lon="12.690109809171405"><ele>189.33333333333331</ele><time>2026-04-11T16:18:27.994Z</time></trkpt><trkpt lat="42.579554355622285" lon="12.69001472304759"><ele>190.0</ele><time>2026-04-11T16:18:28.994Z</time></trkpt><trkpt lat="42.5795319001297" lon="12.689905674450953"><ele>190.66666666666666</ele><time>2026-04-11T16:18:29.994Z</time></trkpt><trkpt lat="42.57950765344678" lon="12.68980307662563"><ele>191.33333333333334</ele><time>2026-04-11T16:18:30.994Z</time></trkpt><trkpt lat="42.57949695772946" lon="12.689711471160313"><ele>192.0</ele><time>2026-04-11T16:18:31.994Z</time></trkpt><trkpt lat="42.579486019207195" lon="12.689606960907124"><ele>190.33333333333334</ele><time>2026-04-11T16:18:32.994Z</time></trkpt><trkpt lat="42.579473037751775" lon="12.689499859579495"><ele>188.66666666666666</ele><time>2026-04-11T16:18:33.994Z</time></trkpt><trkpt lat="42.57945816345524" lon="12.689399485600479"><ele>187.0</ele><time>2026-04-11T16:18:34.994Z</time></trkpt><trkpt lat="42.57944875392604" lon="12.689288947913393"><ele>185.33333333333331</ele><time>2026-04-11T16:18:35.994Z</time></trkpt><trkpt lat="42.57943566548427" lon="12.689188696214863"><ele>183.66666666666666</ele><time>2026-04-11T16:18:36.994Z</time></trkpt><trkpt lat="42.579426053714556" lon="12.689067897856397"><ele>182.0</ele><time>2026-04-11T16:18:37.994Z</time></trkpt><trkpt lat="42.57940656096424" lon="12.688915071056796"><ele>182.0</ele><time>2026-04-11T16:18:38.994Z</time></trkpt><trkpt lat="42.57939177034866" lon="12.68875057018719"><ele>182.0</ele><time>2026-04-11T16:18:39.994Z</time></trkpt><trkpt lat="42.57936454051556" lon="12.688581526987871"><ele>182.0</ele><time>2026-04-11T16:18:40.994Z</time></trkpt><trkpt lat="42.579345073388836" lon="12.688415574256467"><ele>182.0</ele><time>2026-04-11T16:18:41.994Z</time></trkpt><trkpt lat="42.57932685093907" lon="12.688242809400766"><ele>182.5</ele><time>2026-04-11T16:18:42.994Z</time></trkpt><trkpt lat="42.57930940862158" lon="12.688061904601927"><ele>183.0</ele><time>2026-04-11T16:18:43.993Z</time></trkpt><trkpt lat="42.57929118194861" lon="12.68787054063467"><ele>183.5</ele><time>2026-04-11T16:18:44.993Z</time></trkpt><trkpt lat="42.579264068967305" lon="12.68767940020148"><ele>184.0</ele><time>2026-04-11T16:18:45.993Z</time></trkpt><trkpt lat="42.579237072543364" lon="12.687509541514208"><ele>184.39999999999998</ele><time>2026-04-11T16:18:46.993Z</time></trkpt><trkpt lat="42.57921771122428" lon="12.687353664649923"><ele>184.8</ele><time>2026-04-11T16:18:47.993Z</time></trkpt><trkpt lat="42.57919365252895" lon="12.687214513755073"><ele>185.2</ele><time>2026-04-11T16:18:48.993Z</time></trkpt><trkpt lat="42.57916906118199" lon="12.687081548077757"><ele>185.60000000000002</ele><time>2026-04-11T16:18:49.993Z</time></trkpt><trkpt lat="42.579147219591846" lon="12.686924873076636"><ele>186.0</ele><time>2026-04-11T16:18:50.993Z</time></trkpt><trkpt lat="42.5791236210256" lon="12.686757195008429"><ele>186.0</ele><time>2026-04-11T16:18:51.993Z</time></trkpt><trkpt lat="42.57909351558884" lon="12.68659140725672"><ele>186.0</ele><time>2026-04-11T16:18:52.993Z</time></trkpt><trkpt lat="42.57906483533769" lon="12.686422419799639"><ele>186.0</ele><time>2026-04-11T16:18:53.993Z</time></trkpt><trkpt lat="42.5790378075608" lon="12.686254280834804"><ele>186.0</ele><time>2026-04-11T16:18:54.993Z</time></trkpt><trkpt lat="42.57900479676201" lon="12.686083098856072"><ele>186.25</ele><time>2026-04-11T16:18:55.993Z</time></trkpt><trkpt lat="42.57898133543497" lon="12.685915127958939"><ele>186.5</ele><time>2026-04-11T16:18:56.993Z</time></trkpt><trkpt lat="42.57897303066582" lon="12.685748798842186"><ele>186.75</ele><time>2026-04-11T16:18:57.993Z</time></trkpt><trkpt lat="42.578966649930784" lon="12.685566973495831"><ele>187.0</ele><time>2026-04-11T16:18:58.993Z</time></trkpt><trkpt lat="42.57897848497701" lon="12.685399709112277"><ele>186.75</ele><time>2026-04-11T16:18:59.993Z</time></trkpt><trkpt lat="42.5789990449405" lon="12.685228391850906"><ele>186.5</ele><time>2026-04-11T16:19:00.993Z</time></trkpt><trkpt lat="42.579016476050874" lon="12.685071949753892"><ele>186.25</ele><time>2026-04-11T16:19:01.993Z</time></trkpt><trkpt lat="42.57903644485798" lon="12.684909422195721"><ele>186.0</ele><time>2026-04-11T16:19:02.993Z</time></trkpt><trkpt lat="42.5790503750623" lon="12.684746057983332"><ele>186.0</ele><time>2026-04-11T16:19:03.993Z</time></trkpt><trkpt lat="42.57906461510152" lon="12.684569915548332"><ele>186.0</ele><time>2026-04-11T16:19:04.993Z</time></trkpt><trkpt lat="42.57908717345367" lon="12.684405031539383"><ele>186.0</ele><time>2026-04-11T16:19:05.993Z</time></trkpt><trkpt lat="42.57911181993367" lon="12.684248605303965"><ele>186.0</ele><time>2026-04-11T16:19:06.993Z</time></trkpt><trkpt lat="42.57912314788341" lon="12.684080841257979"><ele>185.0</ele><time>2026-04-11T16:19:07.993Z</time></trkpt><trkpt lat="42.57913271553609" lon="12.683922466779853"><ele>184.0</ele><time>2026-04-11T16:19:08.993Z</time></trkpt><trkpt lat="42.57914052463027" lon="12.683773953113596"><ele>183.0</ele><time>2026-04-11T16:19:09.993Z</time></trkpt><trkpt lat="42.579177858020216" lon="12.683624146063732"><ele>182.0</ele><time>2026-04-11T16:19:10.993Z</time></trkpt><trkpt lat="42.579194551849035" lon="12.683507246264913"><ele>181.0</ele><time>2026-04-11T16:19:11.993Z</time></trkpt><trkpt lat="42.57920321073128" lon="12.683404726179734"><ele>180.33333333333334</ele><time>2026-04-11T16:19:12.993Z</time></trkpt><trkpt lat="42.57920921630724" lon="12.683312332448875"><ele>179.66666666666669</ele><time>2026-04-11T16:19:13.993Z</time></trkpt><trkpt lat="42.5792117841081" lon="12.68321777784018"><ele>179.0</ele><time>2026-04-11T16:19:14.993Z</time></trkpt><trkpt lat="42.57921411236694" lon="12.683113907100937"><ele>178.33333333333334</ele><time>2026-04-11T16:19:15.993Z</time></trkpt><trkpt lat="42.57920920368161" lon="12.683012790439554"><ele>177.66666666666666</ele><time>2026-04-11T16:19:16.993Z</time></trkpt><trkpt lat="42.579213018480296" lon="12.68289874798276"><ele>177.0</ele><time>2026-04-11T16:19:17.993Z</time></trkpt><trkpt lat="42.57921531692992" lon="12.682783463810834"><ele>176.0</ele><time>2026-04-11T16:19:18.993Z</time></trkpt><trkpt lat="42.57922129344617" lon="12.68266410343275"><ele>175.0</ele><time>2026-04-11T16:19:19.993Z</time></trkpt><trkpt lat="42.57922908861151" lon="12.682534076213068"><ele>174.0</ele><time>2026-04-11T16:19:20.993Z</time></trkpt><trkpt lat="42.579232623851034" lon="12.682398045888815"><ele>173.0</ele><time>2026-04-11T16:19:21.993Z</time></trkpt><trkpt lat="42.579236366748965" lon="12.682268847066776"><ele>172.0</ele><time>2026-04-11T16:19:22.993Z</time></trkpt><trkpt lat="42.57924361622153" lon="12.682160294657676"><ele>172.0</ele><time>2026-04-11T16:19:23.993Z</time></trkpt><trkpt lat="42.57925267982115" lon="12.682064438527219"><ele>172.0</ele><time>2026-04-11T16:19:24.993Z</time></trkpt><trkpt lat="42.57925831011972" lon="12.681964260692252"><ele>172.0</ele><time>2026-04-11T16:19:25.993Z</time></trkpt><trkpt lat="42.57926307593644" lon="12.681857134673375"><ele>172.0</ele><time>2026-04-11T16:19:26.993Z</time></trkpt><trkpt lat="42.57927384910204" lon="12.681751335418307"><ele>172.0</ele><time>2026-04-11T16:19:27.993Z</time></trkpt><trkpt lat="42.57928724941878" lon="12.681637223817303"><ele>172.0</ele><time>2026-04-11T16:19:28.993Z</time></trkpt><trkpt lat="42.579301059774345" lon="12.681515919724617"><ele>171.2</ele><time>2026-04-11T16:19:29.993Z</time></trkpt><trkpt lat="42.5793152688173" lon="12.681413122224473"><ele>170.39999999999998</ele><time>2026-04-11T16:19:30.993Z</time></trkpt><trkpt lat="42.57932864014663" lon="12.681251657130913"><ele>169.60000000000002</ele><time>2026-04-11T16:19:32.993Z</time></trkpt><trkpt lat="42.57933456716382" lon="12.681094080394566"><ele>168.8</ele><time>2026-04-11T16:19:34.993Z</time></trkpt><trkpt lat="42.57936153669298" lon="12.681010920412712"><ele>168.0</ele><time>2026-04-11T16:19:35.993Z</time></trkpt><trkpt lat="42.57940929701384" lon="12.680939321432733"><ele>167.66666666666666</ele><time>2026-04-11T16:19:36.993Z</time></trkpt><trkpt lat="42.57945593625672" lon="12.680858946202783"><ele>167.33333333333334</ele><time>2026-04-11T16:19:37.993Z</time></trkpt><trkpt lat="42.57947965897016" lon="12.680757088606665"><ele>167.0</ele><time>2026-04-11T16:19:38.993Z</time></trkpt><trkpt lat="42.57948784457471" lon="12.680662788302802"><ele>166.66666666666669</ele><time>2026-04-11T16:19:39.993Z</time></trkpt><trkpt lat="42.579484403195536" lon="12.68056780292904"><ele>166.33333333333334</ele><time>2026-04-11T16:19:40.993Z</time></trkpt><trkpt lat="42.579459346177416" lon="12.680467476627037"><ele>166.0</ele><time>2026-04-11T16:19:41.993Z</time></trkpt><trkpt lat="42.579460164655835" lon="12.680358227555882"><ele>166.0</ele><time>2026-04-11T16:19:42.993Z</time></trkpt><trkpt lat="42.57947365233904" lon="12.680230845392101"><ele>166.0</ele><time>2026-04-11T16:19:43.993Z</time></trkpt><trkpt lat="42.57947146591535" lon="12.680102673661036"><ele>166.0</ele><time>2026-04-11T16:19:44.993Z</time></trkpt><trkpt lat="42.579461367543594" lon="12.67996641426684"><ele>166.0</ele><time>2026-04-11T16:19:45.993Z</time></trkpt><trkpt lat="42.57943664450855" lon="12.679818403662473"><ele>166.0</ele><time>2026-04-11T16:19:46.993Z</time></trkpt><trkpt lat="42.57939015239727" lon="12.679693698155623"><ele>166.0</ele><time>2026-04-11T16:19:47.993Z</time></trkpt><trkpt lat="42.57932506889352" lon="12.679571572269117"><ele>166.0</ele><time>2026-04-11T16:19:48.993Z</time></trkpt><trkpt lat="42.57925959065117" lon="12.679448052430025"><ele>166.0</ele><time>2026-04-11T16:19:49.993Z</time></trkpt><trkpt lat="42.579192700659014" lon="12.679319709839644"><ele>166.0</ele><time>2026-04-11T16:19:50.993Z</time></trkpt><trkpt lat="42.57912368570744" lon="12.679183261033954"><ele>166.20000000000002</ele><time>2026-04-11T16:19:51.993Z</time></trkpt><trkpt lat="42.579061667240424" lon="12.679051358873206"><ele>166.4</ele><time>2026-04-11T16:19:52.993Z</time></trkpt><trkpt lat="42.579007585084206" lon="12.678920954373329"><ele>166.6</ele><time>2026-04-11T16:19:53.993Z</time></trkpt><trkpt lat="42.5789436557288" lon="12.678798829379149"><ele>166.8</ele><time>2026-04-11T16:19:54.993Z</time></trkpt><trkpt lat="42.57891034694427" lon="12.67871406682432"><ele>167.0</ele><time>2026-04-11T16:19:55.993Z</time></trkpt><trkpt lat="42.57886233931725" lon="12.678620104402915"><ele>167.0</ele><time>2026-04-11T16:19:56.993Z</time></trkpt><trkpt lat="42.57884190360792" lon="12.678524588009074"><ele>167.0</ele><time>2026-04-11T16:19:57.993Z</time></trkpt><trkpt lat="42.57879616136318" lon="12.678435811833086"><ele>167.0</ele><time>2026-04-11T16:19:58.993Z</time></trkpt><trkpt lat="42.57876105492704" lon="12.678356043795073"><ele>167.0</ele><time>2026-04-11T16:19:59.993Z</time></trkpt><trkpt lat="42.57872553047298" lon="12.678260181147232"><ele>167.0</ele><time>2026-04-11T16:20:00.993Z</time></trkpt><trkpt lat="42.57868537213651" lon="12.678152584115105"><ele>167.0</ele><time>2026-04-11T16:20:01.993Z</time></trkpt><trkpt lat="42.578630295437016" lon="12.678030303421641"><ele>166.0</ele><time>2026-04-11T16:20:02.993Z</time></trkpt><trkpt lat="42.578574270576304" lon="12.67788609858092"><ele>165.0</ele><time>2026-04-11T16:20:03.993Z</time></trkpt><trkpt lat="42.57851321903625" lon="12.677736508004575"><ele>164.0</ele><time>2026-04-11T16:20:04.993Z</time></trkpt><trkpt lat="42.578444089872704" lon="12.677594238530604"><ele>163.0</ele><time>2026-04-11T16:20:05.993Z</time></trkpt><trkpt lat="42.57837524124052" lon="12.677446240690884"><ele>161.0</ele><time>2026-04-11T16:20:06.993Z</time></trkpt><trkpt lat="42.57830353151237" lon="12.677287256021463"><ele>159.0</ele><time>2026-04-11T16:20:07.993Z</time></trkpt><trkpt lat="42.578229119370214" lon="12.67712548414434"><ele>157.0</ele><time>2026-04-11T16:20:08.993Z</time></trkpt><trkpt lat="42.5781578692949" lon="12.676956395030812"><ele>155.0</ele><time>2026-04-11T16:20:09.993Z</time></trkpt><trkpt lat="42.578085302862355" lon="12.676783979725487"><ele>154.33333333333331</ele><time>2026-04-11T16:20:10.993Z</time></trkpt><trkpt lat="42.57800481931372" lon="12.676600341641949"><ele>153.66666666666666</ele><time>2026-04-11T16:20:11.993Z</time></trkpt><trkpt lat="42.57792744601005" lon="12.676398963674378"><ele>153.0</ele><time>2026-04-11T16:20:12.993Z</time></trkpt><trkpt lat="42.577859579241654" lon="12.676218904966074"><ele>153.33333333333334</ele><time>2026-04-11T16:20:13.993Z</time></trkpt><trkpt lat="42.57780318242127" lon="12.676027655159047"><ele>153.66666666666669</ele><time>2026-04-11T16:20:14.993Z</time></trkpt><trkpt lat="42.57774002130282" lon="12.67583270596115"><ele>154.0</ele><time>2026-04-11T16:20:15.993Z</time></trkpt><trkpt lat="42.57765386853619" lon="12.675652452550764"><ele>154.0</ele><time>2026-04-11T16:20:16.993Z</time></trkpt><trkpt lat="42.57756287998853" lon="12.675472320231275"><ele>154.0</ele><time>2026-04-11T16:20:17.993Z</time></trkpt><trkpt lat="42.577469671792116" lon="12.675295809703924"><ele>154.0</ele><time>2026-04-11T16:20:18.993Z</time></trkpt><trkpt lat="42.577384901292945" lon="12.675122922326025"><ele>154.0</ele><time>2026-04-11T16:20:19.993Z</time></trkpt><trkpt lat="42.57730200226044" lon="12.674944642430619"><ele>154.0</ele><time>2026-04-11T16:20:20.993Z</time></trkpt><trkpt lat="42.57720639042759" lon="12.674775897564801"><ele>154.0</ele><time>2026-04-11T16:20:21.993Z</time></trkpt><trkpt lat="42.57711074669387" lon="12.67456689092495"><ele>153.66666666666669</ele><time>2026-04-11T16:20:22.993Z</time></trkpt><trkpt lat="42.577015167039086" lon="12.674366796596955"><ele>153.33333333333334</ele><time>2026-04-11T16:20:23.993Z</time></trkpt><trkpt lat="42.57692026602756" lon="12.674169605768176"><ele>153.0</ele><time>2026-04-11T16:20:24.993Z</time></trkpt><trkpt lat="42.57687110705935" lon="12.674018637609954"><ele>153.0</ele><time>2026-04-11T16:20:25.993Z</time></trkpt><trkpt lat="42.576799774539225" lon="12.673832524978515"><ele>153.0</ele><time>2026-04-11T16:20:26.993Z</time></trkpt><trkpt lat="42.57672635019803" lon="12.673656028921725"><ele>153.0</ele><time>2026-04-11T16:20:27.993Z</time></trkpt><trkpt lat="42.57664066321711" lon="12.673483152447831"><ele>152.66666666666666</ele><time>2026-04-11T16:20:28.993Z</time></trkpt><trkpt lat="42.57655316051903" lon="12.673316086403473"><ele>152.33333333333331</ele><time>2026-04-11T16:20:29.993Z</time></trkpt><trkpt lat="42.57645040183393" lon="12.673153313456238"><ele>152.0</ele><time>2026-04-11T16:20:30.993Z</time></trkpt><trkpt lat="42.57634168699022" lon="12.673003820861762"><ele>152.0</ele><time>2026-04-11T16:20:31.993Z</time></trkpt><trkpt lat="42.576218794355945" lon="12.672867679562726"><ele>152.0</ele><time>2026-04-11T16:20:32.993Z</time></trkpt><trkpt lat="42.57609667195205" lon="12.672747974113326"><ele>152.0</ele><time>2026-04-11T16:20:33.993Z</time></trkpt><trkpt lat="42.575973163435954" lon="12.672632257642034"><ele>151.75</ele><time>2026-04-11T16:20:34.993Z</time></trkpt><trkpt lat="42.57587186846398" lon="12.67251904335274"><ele>151.5</ele><time>2026-04-11T16:20:35.993Z</time></trkpt><trkpt lat="42.575774330490546" lon="12.672428203924667"><ele>151.25</ele><time>2026-04-11T16:20:36.993Z</time></trkpt><trkpt lat="42.57567772101986" lon="12.672334665433732"><ele>151.0</ele><time>2026-04-11T16:20:37.993Z</time></trkpt><trkpt lat="42.575578664359035" lon="12.672231974568314"><ele>151.0</ele><time>2026-04-11T16:20:38.993Z</time></trkpt><trkpt lat="42.57547445074868" lon="12.672122252126977"><ele>151.0</ele><time>2026-04-11T16:20:39.993Z</time></trkpt><trkpt lat="42.57537329386899" lon="12.672016138844441"><ele>151.0</ele><time>2026-04-11T16:20:40.993Z</time></trkpt><trkpt lat="42.57526203879129" lon="12.671895540256026"><ele>151.0</ele><time>2026-04-11T16:20:41.993Z</time></trkpt><trkpt lat="42.57513866780835" lon="12.671778932223887"><ele>150.66666666666669</ele><time>2026-04-11T16:20:42.993Z</time></trkpt><trkpt lat="42.57503078726923" lon="12.671640916182827"><ele>150.33333333333334</ele><time>2026-04-11T16:20:43.993Z</time></trkpt><trkpt lat="42.574909851505275" lon="12.671511847280348"><ele>150.0</ele><time>2026-04-11T16:20:44.993Z</time></trkpt><trkpt lat="42.574785410344816" lon="12.671380914176842"><ele>150.0</ele><time>2026-04-11T16:20:45.993Z</time></trkpt><trkpt lat="42.574659553730896" lon="12.671250957144176"><ele>150.0</ele><time>2026-04-11T16:20:46.993Z</time></trkpt><trkpt lat="42.57453828249365" lon="12.671125734937931"><ele>150.0</ele><time>2026-04-11T16:20:47.993Z</time></trkpt><trkpt lat="42.57442090491518" lon="12.671004534563718"><ele>150.0</ele><time>2026-04-11T16:20:48.993Z</time></trkpt><trkpt lat="42.57431359490795" lon="12.670862465981578"><ele>150.0</ele><time>2026-04-11T16:20:49.993Z</time></trkpt><trkpt lat="42.574193413792976" lon="12.67074419999116"><ele>150.0</ele><time>2026-04-11T16:20:50.993Z</time></trkpt><trkpt lat="42.57406920010043" lon="12.670628485254461"><ele>150.0</ele><time>2026-04-11T16:20:51.993Z</time></trkpt><trkpt lat="42.57394231406764" lon="12.670514724780253"><ele>150.0</ele><time>2026-04-11T16:20:52.993Z</time></trkpt><trkpt lat="42.57382093210824" lon="12.670395207916933"><ele>150.0</ele><time>2026-04-11T16:20:53.993Z</time></trkpt><trkpt lat="42.57370160892446" lon="12.670268889088176"><ele>150.0</ele><time>2026-04-11T16:20:54.993Z</time></trkpt><trkpt lat="42.57357496673418" lon="12.670143803742702"><ele>149.25</ele><time>2026-04-11T16:20:55.993Z</time></trkpt><trkpt lat="42.573453574995895" lon="12.67003330960682"><ele>148.5</ele><time>2026-04-11T16:20:56.993Z</time></trkpt><trkpt lat="42.57335415483014" lon="12.66990867865075"><ele>147.75</ele><time>2026-04-11T16:20:57.993Z</time></trkpt><trkpt lat="42.573249711265916" lon="12.669802200516907"><ele>147.0</ele><time>2026-04-11T16:20:58.993Z</time></trkpt><trkpt lat="42.573150905773694" lon="12.669691735505154"><ele>147.0</ele><time>2026-04-11T16:20:59.993Z</time></trkpt><trkpt lat="42.573040802843835" lon="12.669587144101554"><ele>147.0</ele><time>2026-04-11T16:21:00.992Z</time></trkpt><trkpt lat="42.57292546278847" lon="12.66946957060667"><ele>147.0</ele><time>2026-04-11T16:21:01.992Z</time></trkpt><trkpt lat="42.57280177910945" lon="12.669348867049266"><ele>147.0</ele><time>2026-04-11T16:21:02.992Z</time></trkpt><trkpt lat="42.572681096582805" lon="12.669222668925572"><ele>146.25</ele><time>2026-04-11T16:21:03.992Z</time></trkpt><trkpt lat="42.57257084942461" lon="12.669120783579173"><ele>145.5</ele><time>2026-04-11T16:21:04.992Z</time></trkpt><trkpt lat="42.57247492269119" lon="12.669033611856689"><ele>144.75</ele><time>2026-04-11T16:21:05.992Z</time></trkpt><trkpt lat="42.57237931921315" lon="12.668941612569794"><ele>144.0</ele><time>2026-04-11T16:21:06.992Z</time></trkpt><trkpt lat="42.572300096436656" lon="12.668838801387906"><ele>144.0</ele><time>2026-04-11T16:21:07.992Z</time></trkpt><trkpt lat="42.57220001803365" lon="12.66875377152942"><ele>144.0</ele><time>2026-04-11T16:21:08.992Z</time></trkpt><trkpt lat="42.5721039716854" lon="12.668645602500636"><ele>144.0</ele><time>2026-04-11T16:21:09.992Z</time></trkpt><trkpt lat="42.57200931605776" lon="12.668536673639279"><ele>144.0</ele><time>2026-04-11T16:21:10.992Z</time></trkpt><trkpt lat="42.57191463407417" lon="12.668435118031958"><ele>143.5</ele><time>2026-04-11T16:21:11.992Z</time></trkpt><trkpt lat="42.571813502857985" lon="12.668334592811611"><ele>143.0</ele><time>2026-04-11T16:21:12.992Z</time></trkpt><trkpt lat="42.57173168978004" lon="12.668192546225077"><ele>142.5</ele><time>2026-04-11T16:21:13.992Z</time></trkpt><trkpt lat="42.571619268419546" lon="12.668094715953425"><ele>142.0</ele><time>2026-04-11T16:21:14.992Z</time></trkpt><trkpt lat="42.57152774755125" lon="12.668011098079447"><ele>142.0</ele><time>2026-04-11T16:21:15.992Z</time></trkpt><trkpt lat="42.571447603928405" lon="12.6679367689624"><ele>142.0</ele><time>2026-04-11T16:21:16.992Z</time></trkpt><trkpt lat="42.57137261980533" lon="12.66784723142473"><ele>142.0</ele><time>2026-04-11T16:21:17.992Z</time></trkpt><trkpt lat="42.57129135810305" lon="12.66778502115059"><ele>142.0</ele><time>2026-04-11T16:21:18.992Z</time></trkpt><trkpt lat="42.57122377865435" lon="12.66770769401619"><ele>142.0</ele><time>2026-04-11T16:21:19.992Z</time></trkpt><trkpt lat="42.57115698139192" lon="12.667629260824633"><ele>142.0</ele><time>2026-04-11T16:21:20.992Z</time></trkpt><trkpt lat="42.571102055741264" lon="12.667521400351092"><ele>142.0</ele><time>2026-04-11T16:21:21.992Z</time></trkpt><trkpt lat="42.571044094774614" lon="12.66745240748162"><ele>142.0</ele><time>2026-04-11T16:21:22.992Z</time></trkpt><trkpt lat="42.57098673030348" lon="12.667404884738676"><ele>142.0</ele><time>2026-04-11T16:21:23.992Z</time></trkpt><trkpt lat="42.570887620953684" lon="12.667325566495325"><ele>142.0</ele><time>2026-04-11T16:21:25.992Z</time></trkpt><trkpt lat="42.5708064960653" lon="12.667262709201198"><ele>142.0</ele><time>2026-04-11T16:21:27.992Z</time></trkpt><trkpt lat="42.57073322324184" lon="12.667187524106478"><ele>142.0</ele><time>2026-04-11T16:21:29.992Z</time></trkpt><trkpt lat="42.57066493334033" lon="12.66711681504031"><ele>142.0</ele><time>2026-04-11T16:21:31.992Z</time></trkpt><trkpt lat="42.57056336067893" lon="12.667011644383114"><ele>142.0</ele><time>2026-04-11T16:21:33.992Z</time></trkpt><trkpt lat="42.5704541632219" lon="12.666898578687066"><ele>142.0</ele><time>2026-04-11T16:21:35.992Z</time></trkpt><trkpt lat="42.5704018665506" lon="12.66684442948206"><ele>142.0</ele><time>2026-04-11T16:21:36.992Z</time></trkpt><trkpt lat="42.57028967002359" lon="12.666718838403527"><ele>141.5</ele><time>2026-04-11T16:21:38.992Z</time></trkpt><trkpt lat="42.57023710518102" lon="12.666638705722278"><ele>141.0</ele><time>2026-04-11T16:21:39.992Z</time></trkpt><trkpt lat="42.570193860333426" lon="12.666535580786988"><ele>140.5</ele><time>2026-04-11T16:21:40.992Z</time></trkpt><trkpt lat="42.5701599490863" lon="12.666443327583636"><ele>140.0</ele><time>2026-04-11T16:21:41.992Z</time></trkpt><trkpt lat="42.570122862343496" lon="12.666333316700355"><ele>139.5</ele><time>2026-04-11T16:21:42.992Z</time></trkpt><trkpt lat="42.57008751494048" lon="12.666231655421022"><ele>139.0</ele><time>2026-04-11T16:21:43.992Z</time></trkpt><trkpt lat="42.57004642852278" lon="12.666113488265133"><ele>138.4</ele><time>2026-04-11T16:21:44.992Z</time></trkpt><trkpt lat="42.57000338396688" lon="12.665989689617271"><ele>137.8</ele><time>2026-04-11T16:21:45.992Z</time></trkpt><trkpt lat="42.56997868072698" lon="12.665847616058393"><ele>137.2</ele><time>2026-04-11T16:21:46.992Z</time></trkpt><trkpt lat="42.56993671720594" lon="12.665723086175309"><ele>136.6</ele><time>2026-04-11T16:21:47.992Z</time></trkpt><trkpt lat="42.569898410439784" lon="12.665608023541203"><ele>136.0</ele><time>2026-04-11T16:21:48.992Z</time></trkpt><trkpt lat="42.56985432317256" lon="12.665487536707486"><ele>136.0</ele><time>2026-04-11T16:21:49.992Z</time></trkpt><trkpt lat="42.569804681893466" lon="12.665360204953508"><ele>136.0</ele><time>2026-04-11T16:21:50.992Z</time></trkpt><trkpt lat="42.569770421190476" lon="12.66523922025144"><ele>136.0</ele><time>2026-04-11T16:21:51.992Z</time></trkpt><trkpt lat="42.5697316912773" lon="12.665128021545147"><ele>136.0</ele><time>2026-04-11T16:21:52.992Z</time></trkpt><trkpt lat="42.56967715003883" lon="12.665009187825929"><ele>136.0</ele><time>2026-04-11T16:21:53.992Z</time></trkpt><trkpt lat="42.5696258847901" lon="12.664885447247588"><ele>136.0</ele><time>2026-04-11T16:21:54.992Z</time></trkpt><trkpt lat="42.56957142597886" lon="12.664779421009408"><ele>136.0</ele><time>2026-04-11T16:21:55.992Z</time></trkpt><trkpt lat="42.5695250147546" lon="12.664675090923645"><ele>136.0</ele><time>2026-04-11T16:21:56.992Z</time></trkpt><trkpt lat="42.56950126398641" lon="12.664553136062343"><ele>136.0</ele><time>2026-04-11T16:21:57.992Z</time></trkpt><trkpt lat="42.56945600723406" lon="12.664449368898927"><ele>136.0</ele><time>2026-04-11T16:21:58.992Z</time></trkpt><trkpt lat="42.569410079468284" lon="12.664344176518822"><ele>135.85714285714283</ele><time>2026-04-11T16:21:59.992Z</time></trkpt><trkpt lat="42.56937119223744" lon="12.664250975881583"><ele>135.71428571428572</ele><time>2026-04-11T16:22:00.992Z</time></trkpt><trkpt lat="42.56935308324212" lon="12.664145557071818"><ele>135.57142857142856</ele><time>2026-04-11T16:22:01.992Z</time></trkpt><trkpt lat="42.56931740605976" lon="12.66404237716531"><ele>135.42857142857142</ele><time>2026-04-11T16:22:02.992Z</time></trkpt><trkpt lat="42.569288261234185" lon="12.663958088929364"><ele>135.28571428571428</ele><time>2026-04-11T16:22:03.992Z</time></trkpt><trkpt lat="42.569248196490506" lon="12.663881867972004"><ele>135.14285714285714</ele><time>2026-04-11T16:22:04.992Z</time></trkpt><trkpt lat="42.56922081864542" lon="12.663795618182542"><ele>135.0</ele><time>2026-04-11T16:22:05.992Z</time></trkpt><trkpt lat="42.56919355305362" lon="12.66370233097972"><ele>135.0</ele><time>2026-04-11T16:22:06.992Z</time></trkpt><trkpt lat="42.56916380505236" lon="12.663600241716686"><ele>135.0</ele><time>2026-04-11T16:22:07.992Z</time></trkpt><trkpt lat="42.56912909950926" lon="12.663498981262256"><ele>135.0</ele><time>2026-04-11T16:22:08.992Z</time></trkpt><trkpt lat="42.56909405821076" lon="12.663391343789515"><ele>135.0</ele><time>2026-04-11T16:22:09.992Z</time></trkpt><trkpt lat="42.5690600988348" lon="12.663284078254813"><ele>135.0</ele><time>2026-04-11T16:22:10.992Z</time></trkpt><trkpt lat="42.56902747405729" lon="12.663182641836736"><ele>135.0</ele><time>2026-04-11T16:22:11.992Z</time></trkpt><trkpt lat="42.56899127392769" lon="12.66309322500568"><ele>135.0</ele><time>2026-04-11T16:22:12.992Z</time></trkpt><trkpt lat="42.568966636645875" lon="12.663004810085583"><ele>135.0</ele><time>2026-04-11T16:22:13.992Z</time></trkpt><trkpt lat="42.56894725424214" lon="12.66292341725602"><ele>135.0</ele><time>2026-04-11T16:22:14.992Z</time></trkpt><trkpt lat="42.568959227060944" lon="12.662836566120177"><ele>135.0</ele><time>2026-04-11T16:22:15.992Z</time></trkpt><trkpt lat="42.56899060022682" lon="12.662748439767157"><ele>135.0</ele><time>2026-04-11T16:22:16.992Z</time></trkpt><trkpt lat="42.56901811243232" lon="12.662638817356674"><ele>135.0</ele><time>2026-04-11T16:22:17.992Z</time></trkpt><trkpt lat="42.56905935908653" lon="12.662526987192162"><ele>135.0</ele><time>2026-04-11T16:22:18.992Z</time></trkpt><trkpt lat="42.56911873428504" lon="12.66244618885251"><ele>134.75</ele><time>2026-04-11T16:22:19.992Z</time></trkpt><trkpt lat="42.569220682996246" lon="12.662401038189852"><ele>134.5</ele><time>2026-04-11T16:22:20.992Z</time></trkpt><trkpt lat="42.56932398061101" lon="12.662338608821955"><ele>134.25</ele><time>2026-04-11T16:22:21.992Z</time></trkpt><trkpt lat="42.5694282881825" lon="12.662258090604096"><ele>134.0</ele><time>2026-04-11T16:22:22.992Z</time></trkpt><trkpt lat="42.569546590399746" lon="12.662191730567436"><ele>134.0</ele><time>2026-04-11T16:22:23.992Z</time></trkpt><trkpt lat="42.569668965138064" lon="12.662120210682877"><ele>134.0</ele><time>2026-04-11T16:22:24.992Z</time></trkpt><trkpt lat="42.56979369906533" lon="12.662035065091343"><ele>134.0</ele><time>2026-04-11T16:22:25.992Z</time></trkpt><trkpt lat="42.56992956543959" lon="12.661957942980154"><ele>134.0</ele><time>2026-04-11T16:22:26.992Z</time></trkpt><trkpt lat="42.57006905028461" lon="12.661886620795974"><ele>133.33333333333331</ele><time>2026-04-11T16:22:27.992Z</time></trkpt><trkpt lat="42.57021827880929" lon="12.661838959543093"><ele>132.66666666666666</ele><time>2026-04-11T16:22:28.992Z</time></trkpt><trkpt lat="42.57038286350656" lon="12.661807597334821"><ele>132.0</ele><time>2026-04-11T16:22:29.992Z</time></trkpt><trkpt lat="42.57055139152118" lon="12.661779060892469"><ele>132.0</ele><time>2026-04-11T16:22:30.992Z</time></trkpt><trkpt lat="42.57071460042126" lon="12.6617767297732"><ele>132.0</ele><time>2026-04-11T16:22:31.992Z</time></trkpt><trkpt lat="42.570866071991674" lon="12.661737218647323"><ele>132.0</ele><time>2026-04-11T16:22:32.992Z</time></trkpt><trkpt lat="42.57101736821832" lon="12.661744019496838"><ele>132.0</ele><time>2026-04-11T16:22:33.992Z</time></trkpt><trkpt lat="42.571166273798816" lon="12.661721100404957"><ele>132.0</ele><time>2026-04-11T16:22:34.992Z</time></trkpt><trkpt lat="42.571308144300446" lon="12.661674346026007"><ele>132.0</ele><time>2026-04-11T16:22:35.992Z</time></trkpt><trkpt lat="42.57143660127847" lon="12.661605783561749"><ele>132.0</ele><time>2026-04-11T16:22:36.992Z</time></trkpt><trkpt lat="42.57153682954753" lon="12.66150089670936"><ele>132.33333333333334</ele><time>2026-04-11T16:22:37.992Z</time></trkpt><trkpt lat="42.571619857134785" lon="12.661376450678825"><ele>132.66666666666669</ele><time>2026-04-11T16:22:38.992Z</time></trkpt><trkpt lat="42.57167597228156" lon="12.661281150363546"><ele>133.0</ele><time>2026-04-11T16:22:39.992Z</time></trkpt><trkpt lat="42.57178113149233" lon="12.660952179525086"><ele>133.0</ele><time>2026-04-11T16:22:40.992Z</time></trkpt><trkpt lat="42.57186749081738" lon="12.660669377131498"><ele>133.0</ele><time>2026-04-11T16:22:41.992Z</time></trkpt><trkpt lat="42.571917940620665" lon="12.660460296604413"><ele>133.0</ele><time>2026-04-11T16:22:42.992Z</time></trkpt><trkpt lat="42.57198185973183" lon="12.660281988178257"><ele>134.0</ele><time>2026-04-11T16:22:43.992Z</time></trkpt><trkpt lat="42.572044806662205" lon="12.660141267455055"><ele>135.0</ele><time>2026-04-11T16:22:44.992Z</time></trkpt><trkpt lat="42.572091168809585" lon="12.659982477917797"><ele>136.0</ele><time>2026-04-11T16:22:45.992Z</time></trkpt><trkpt lat="42.57214033209433" lon="12.65982868023818"><ele>137.0</ele><time>2026-04-11T16:22:46.992Z</time></trkpt><trkpt lat="42.57219984168699" lon="12.659662766069316"><ele>137.0</ele><time>2026-04-11T16:22:47.992Z</time></trkpt><trkpt lat="42.57225311451943" lon="12.659486021674205"><ele>137.0</ele><time>2026-04-11T16:22:48.992Z</time></trkpt><trkpt lat="42.57229933722509" lon="12.659323210829063"><ele>137.0</ele><time>2026-04-11T16:22:49.992Z</time></trkpt><trkpt lat="42.572341769215726" lon="12.659169927650376"><ele>137.0</ele><time>2026-04-11T16:22:50.992Z</time></trkpt><trkpt lat="42.57237262638009" lon="12.659023411253454"><ele>136.79999999999998</ele><time>2026-04-11T16:22:51.992Z</time></trkpt><trkpt lat="42.57237284607281" lon="12.658874147310888"><ele>136.6</ele><time>2026-04-11T16:22:52.992Z</time></trkpt><trkpt lat="42.5723454061762" lon="12.658714141917505"><ele>136.39999999999998</ele><time>2026-04-11T16:22:53.992Z</time></trkpt><trkpt lat="42.57232168149289" lon="12.658576625768601"><ele>136.2</ele><time>2026-04-11T16:22:54.992Z</time></trkpt><trkpt lat="42.57229680580777" lon="12.658437134118225"><ele>136.0</ele><time>2026-04-11T16:22:55.992Z</time></trkpt><trkpt lat="42.5722875594258" lon="12.658302382536696"><ele>136.0</ele><time>2026-04-11T16:22:56.992Z</time></trkpt><trkpt lat="42.572284368373715" lon="12.658168742053837"><ele>136.0</ele><time>2026-04-11T16:22:57.992Z</time></trkpt><trkpt lat="42.57228664556074" lon="12.658034042887977"><ele>136.0</ele><time>2026-04-11T16:22:58.992Z</time></trkpt><trkpt lat="42.57228944753261" lon="12.657904322084503"><ele>136.0</ele><time>2026-04-11T16:22:59.992Z</time></trkpt><trkpt lat="42.5722943897884" lon="12.657784025393061"><ele>136.0</ele><time>2026-04-11T16:23:00.992Z</time></trkpt><trkpt lat="42.572294635418594" lon="12.65766345386569"><ele>135.5</ele><time>2026-04-11T16:23:01.992Z</time></trkpt><trkpt lat="42.57229208402389" lon="12.657540951761245"><ele>135.0</ele><time>2026-04-11T16:23:02.992Z</time></trkpt><trkpt lat="42.57228757135294" lon="12.657421458189772"><ele>134.5</ele><time>2026-04-11T16:23:03.992Z</time></trkpt><trkpt lat="42.5722814129437" lon="12.65731329251576"><ele>134.0</ele><time>2026-04-11T16:23:04.992Z</time></trkpt><trkpt lat="42.57227045423154" lon="12.65720685077571"><ele>133.5</ele><time>2026-04-11T16:23:05.992Z</time></trkpt><trkpt lat="42.57226896246794" lon="12.657107319037175"><ele>133.0</ele><time>2026-04-11T16:23:06.992Z</time></trkpt><trkpt lat="42.572263090340904" lon="12.657008581691066"><ele>133.16666666666669</ele><time>2026-04-11T16:23:07.992Z</time></trkpt><trkpt lat="42.57226397941586" lon="12.656897501297651"><ele>133.33333333333334</ele><time>2026-04-11T16:23:08.992Z</time></trkpt><trkpt lat="42.572268967085506" lon="12.6567749755104"><ele>133.5</ele><time>2026-04-11T16:23:09.992Z</time></trkpt><trkpt lat="42.57228005777498" lon="12.656657557305088"><ele>133.66666666666666</ele><time>2026-04-11T16:23:10.992Z</time></trkpt><trkpt lat="42.57229424757444" lon="12.656536201416328"><ele>133.83333333333331</ele><time>2026-04-11T16:23:11.992Z</time></trkpt><trkpt lat="42.57230406317639" lon="12.656407996816082"><ele>134.0</ele><time>2026-04-11T16:23:12.992Z</time></trkpt><trkpt lat="42.572313539599264" lon="12.65627435237635"><ele>134.0</ele><time>2026-04-11T16:23:13.992Z</time></trkpt><trkpt lat="42.572325236040975" lon="12.656134056559258"><ele>134.0</ele><time>2026-04-11T16:23:14.992Z</time></trkpt><trkpt lat="42.57233459585035" lon="12.655992528598611"><ele>134.0</ele><time>2026-04-11T16:23:15.992Z</time></trkpt><trkpt lat="42.5723473463019" lon="12.655850932572946"><ele>134.0</ele><time>2026-04-11T16:23:16.992Z</time></trkpt><trkpt lat="42.5723630739553" lon="12.655706348975176"><ele>134.0</ele><time>2026-04-11T16:23:17.992Z</time></trkpt><trkpt lat="42.572369231339266" lon="12.655555903271376"><ele>134.0</ele><time>2026-04-11T16:23:18.992Z</time></trkpt><trkpt lat="42.572369766853484" lon="12.655405251207439"><ele>134.0</ele><time>2026-04-11T16:23:19.992Z</time></trkpt><trkpt lat="42.57237513888478" lon="12.655257324430513"><ele>134.0</ele><time>2026-04-11T16:23:20.992Z</time></trkpt><trkpt lat="42.57238559470801" lon="12.65511910546224"><ele>134.0</ele><time>2026-04-11T16:23:21.992Z</time></trkpt><trkpt lat="42.57239578374544" lon="12.654975337384974"><ele>134.0</ele><time>2026-04-11T16:23:22.992Z</time></trkpt><trkpt lat="42.572415151890425" lon="12.654835505828135"><ele>134.0</ele><time>2026-04-11T16:23:23.992Z</time></trkpt><trkpt lat="42.57240513863927" lon="12.654717558272054"><ele>134.0</ele><time>2026-04-11T16:23:25.001Z</time></trkpt><trkpt lat="42.57241985645076" lon="12.654599760928443"><ele>134.0</ele><time>2026-04-11T16:23:26.001Z</time></trkpt><trkpt lat="42.57242684671335" lon="12.654487927516966"><ele>134.0</ele><time>2026-04-11T16:23:27.001Z</time></trkpt><trkpt lat="42.57244264701466" lon="12.654371521467645"><ele>134.0</ele><time>2026-04-11T16:23:28.001Z</time></trkpt><trkpt lat="42.57244861977831" lon="12.654250695284887"><ele>134.0</ele><time>2026-04-11T16:23:29.001Z</time></trkpt><trkpt lat="42.57244750990407" lon="12.654143114194783"><ele>134.0</ele><time>2026-04-11T16:23:30.001Z</time></trkpt><trkpt lat="42.57244220209302" lon="12.654032786608928"><ele>134.0</ele><time>2026-04-11T16:23:31.001Z</time></trkpt><trkpt lat="42.57244868262821" lon="12.653933768747738"><ele>134.0</ele><time>2026-04-11T16:23:32.001Z</time></trkpt><trkpt lat="42.5724544027771" lon="12.653842912106022"><ele>134.0</ele><time>2026-04-11T16:23:33.001Z</time></trkpt><trkpt lat="42.57246596516182" lon="12.65373991171973"><ele>134.0</ele><time>2026-04-11T16:23:34.001Z</time></trkpt><trkpt lat="42.57247243996414" lon="12.65362891457729"><ele>134.0</ele><time>2026-04-11T16:23:35.001Z</time></trkpt><trkpt lat="42.57248028119022" lon="12.653511776803906"><ele>133.83333333333331</ele><time>2026-04-11T16:23:36.001Z</time></trkpt><trkpt lat="42.57248747444077" lon="12.653394778620866"><ele>133.66666666666666</ele><time>2026-04-11T16:23:37.001Z</time></trkpt><trkpt lat="42.57249331675998" lon="12.653276399940253"><ele>133.5</ele><time>2026-04-11T16:23:38.001Z</time></trkpt><trkpt lat="42.572494444982645" lon="12.653153084585577"><ele>133.33333333333334</ele><time>2026-04-11T16:23:39.001Z</time></trkpt><trkpt lat="42.572499191780096" lon="12.65303183793098"><ele>133.16666666666669</ele><time>2026-04-11T16:23:40.001Z</time></trkpt><trkpt lat="42.57250134147373" lon="12.65291888880505"><ele>133.0</ele><time>2026-04-11T16:23:41.001Z</time></trkpt><trkpt lat="42.572504676791006" lon="12.652810764405936"><ele>132.0</ele><time>2026-04-11T16:23:42.001Z</time></trkpt><trkpt lat="42.57250328832869" lon="12.652696918656801"><ele>131.0</ele><time>2026-04-11T16:23:43.001Z</time></trkpt><trkpt lat="42.572505794613285" lon="12.652574732245984"><ele>130.0</ele><time>2026-04-11T16:23:44.001Z</time></trkpt><trkpt lat="42.5725073094806" lon="12.652445430238558"><ele>129.0</ele><time>2026-04-11T16:23:45.001Z</time></trkpt><trkpt lat="42.57251250457977" lon="12.65231124758087"><ele>128.0</ele><time>2026-04-11T16:23:46.001Z</time></trkpt><trkpt lat="42.57251503496176" lon="12.652180799857241"><ele>128.0</ele><time>2026-04-11T16:23:47.001Z</time></trkpt><trkpt lat="42.57252256576977" lon="12.652050890243478"><ele>128.0</ele><time>2026-04-11T16:23:48.001Z</time></trkpt><trkpt lat="42.57253450505413" lon="12.651920939513257"><ele>128.0</ele><time>2026-04-11T16:23:49.001Z</time></trkpt><trkpt lat="42.57254908918093" lon="12.651783797192518"><ele>128.0</ele><time>2026-04-11T16:23:50.001Z</time></trkpt><trkpt lat="42.5725669195686" lon="12.651648037757706"><ele>128.0</ele><time>2026-04-11T16:23:51.001Z</time></trkpt><trkpt lat="42.57259361299271" lon="12.651510943537994"><ele>128.0</ele><time>2026-04-11T16:23:52.001Z</time></trkpt><trkpt lat="42.572623948428166" lon="12.651369846379765"><ele>128.0</ele><time>2026-04-11T16:23:53.001Z</time></trkpt><trkpt lat="42.5726635469379" lon="12.6512273304369"><ele>128.0</ele><time>2026-04-11T16:23:54.001Z</time></trkpt><trkpt lat="42.57270445510356" lon="12.651080826869844"><ele>128.0</ele><time>2026-04-11T16:23:55.001Z</time></trkpt><trkpt lat="42.572750200953664" lon="12.650934654054902"><ele>127.75</ele><time>2026-04-11T16:23:56.001Z</time></trkpt><trkpt lat="42.57279287504463" lon="12.650788241885861"><ele>127.5</ele><time>2026-04-11T16:23:57.001Z</time></trkpt><trkpt lat="42.572834171094975" lon="12.650638564420408"><ele>127.25</ele><time>2026-04-11T16:23:58.001Z</time></trkpt><trkpt lat="42.5728731275303" lon="12.650485974656126"><ele>127.0</ele><time>2026-04-11T16:23:59.001Z</time></trkpt><trkpt lat="42.57291479058693" lon="12.6503351531487"><ele>128.0</ele><time>2026-04-11T16:24:00.001Z</time></trkpt><trkpt lat="42.57296131956949" lon="12.650186247607708"><ele>129.0</ele><time>2026-04-11T16:24:01.001Z</time></trkpt><trkpt lat="42.573004489961356" lon="12.650035244075744"><ele>130.0</ele><time>2026-04-11T16:24:02.001Z</time></trkpt><trkpt lat="42.57304529404915" lon="12.649884647388776"><ele>131.0</ele><time>2026-04-11T16:24:03.001Z</time></trkpt><trkpt lat="42.573087808511886" lon="12.649733797957436"><ele>131.0</ele><time>2026-04-11T16:24:04.001Z</time></trkpt><trkpt lat="42.57312929502632" lon="12.649576888758158"><ele>131.0</ele><time>2026-04-11T16:24:05.001Z</time></trkpt><trkpt lat="42.57317118991562" lon="12.649418218440026"><ele>131.0</ele><time>2026-04-11T16:24:06.001Z</time></trkpt><trkpt lat="42.573213281211906" lon="12.649252698489951"><ele>131.0</ele><time>2026-04-11T16:24:07.001Z</time></trkpt><trkpt lat="42.57326664255796" lon="12.649091076616473"><ele>130.5</ele><time>2026-04-11T16:24:08.001Z</time></trkpt><trkpt lat="42.57331774551013" lon="12.648922343669796"><ele>130.0</ele><time>2026-04-11T16:24:09.001Z</time></trkpt><trkpt lat="42.57336531452285" lon="12.64875280207802"><ele>129.5</ele><time>2026-04-11T16:24:10.001Z</time></trkpt><trkpt lat="42.57341365076497" lon="12.648582982723116"><ele>129.0</ele><time>2026-04-11T16:24:11.001Z</time></trkpt><trkpt lat="42.57346570060784" lon="12.648408351669206"><ele>129.0</ele><time>2026-04-11T16:24:12.001Z</time></trkpt><trkpt lat="42.57351518283607" lon="12.648232078121717"><ele>129.0</ele><time>2026-04-11T16:24:13.001Z</time></trkpt><trkpt lat="42.57357102120544" lon="12.648057329728314"><ele>129.0</ele><time>2026-04-11T16:24:14.001Z</time></trkpt><trkpt lat="42.573622926530575" lon="12.647878597983397"><ele>129.0</ele><time>2026-04-11T16:24:15.001Z</time></trkpt><trkpt lat="42.57367345343119" lon="12.647697713403181"><ele>129.75</ele><time>2026-04-11T16:24:16.001Z</time></trkpt><trkpt lat="42.57372782493585" lon="12.647517954473608"><ele>130.5</ele><time>2026-04-11T16:24:17.001Z</time></trkpt><trkpt lat="42.573781161150386" lon="12.647333934692698"><ele>131.25</ele><time>2026-04-11T16:24:18.001Z</time></trkpt><trkpt lat="42.57383400518199" lon="12.647158295416611"><ele>132.0</ele><time>2026-04-11T16:24:19.001Z</time></trkpt><trkpt lat="42.573882413213845" lon="12.646999154945425"><ele>132.0</ele><time>2026-04-11T16:24:20.001Z</time></trkpt><trkpt lat="42.573933751232566" lon="12.64684207843901"><ele>132.0</ele><time>2026-04-11T16:24:21.001Z</time></trkpt><trkpt lat="42.573990464902195" lon="12.646703376516237"><ele>132.0</ele><time>2026-04-11T16:24:22.001Z</time></trkpt><trkpt lat="42.57404324981204" lon="12.646578938105089"><ele>132.0</ele><time>2026-04-11T16:24:23.001Z</time></trkpt><trkpt lat="42.57409185974046" lon="12.646469514141916"><ele>132.0</ele><time>2026-04-11T16:24:24.001Z</time></trkpt><trkpt lat="42.57415332299463" lon="12.646379945599806"><ele>132.0</ele><time>2026-04-11T16:24:25.001Z</time></trkpt><trkpt lat="42.57421541644431" lon="12.646308593334556"><ele>132.0</ele><time>2026-04-11T16:24:26.002Z</time></trkpt><trkpt lat="42.574250214198564" lon="12.646222863222874"><ele>132.0</ele><time>2026-04-11T16:24:27.002Z</time></trkpt><trkpt lat="42.57424830402559" lon="12.646106039295336"><ele>132.0</ele><time>2026-04-11T16:24:28.002Z</time></trkpt><trkpt lat="42.574224330760536" lon="12.645966148643813"><ele>132.0</ele><time>2026-04-11T16:24:29.001Z</time></trkpt><trkpt lat="42.57421026140581" lon="12.645808524995081"><ele>131.75</ele><time>2026-04-11T16:24:30.001Z</time></trkpt><trkpt lat="42.57420757999542" lon="12.645650620983329"><ele>131.5</ele><time>2026-04-11T16:24:31.001Z</time></trkpt><trkpt lat="42.57420208652488" lon="12.645489463373567"><ele>131.25</ele><time>2026-04-11T16:24:32.002Z</time></trkpt><trkpt lat="42.57419979295594" lon="12.645335619083793"><ele>131.0</ele><time>2026-04-11T16:24:33.002Z</time></trkpt><trkpt lat="42.574196669390076" lon="12.645168697201415"><ele>131.0</ele><time>2026-04-11T16:24:34.001Z</time></trkpt><trkpt lat="42.574198161676655" lon="12.64499033947865"><ele>131.0</ele><time>2026-04-11T16:24:35.001Z</time></trkpt><trkpt lat="42.57420674720389" lon="12.64481329956717"><ele>131.0</ele><time>2026-04-11T16:24:36.001Z</time></trkpt><trkpt lat="42.57423255896911" lon="12.644637346068766"><ele>131.0</ele><time>2026-04-11T16:24:37.002Z</time></trkpt><trkpt lat="42.57422920701021" lon="12.644452486614071"><ele>130.25</ele><time>2026-04-11T16:24:38.001Z</time></trkpt><trkpt lat="42.57424251511657" lon="12.644268203999276"><ele>129.5</ele><time>2026-04-11T16:24:39.001Z</time></trkpt><trkpt lat="42.574251403990075" lon="12.644090785313539"><ele>128.75</ele><time>2026-04-11T16:24:40.001Z</time></trkpt><trkpt lat="42.57426902418219" lon="12.643913450085444"><ele>128.0</ele><time>2026-04-11T16:24:41.001Z</time></trkpt><trkpt lat="42.57429718834033" lon="12.643736241310737"><ele>127.75</ele><time>2026-04-11T16:24:42.001Z</time></trkpt><trkpt lat="42.57432181637548" lon="12.643553868592763"><ele>127.5</ele><time>2026-04-11T16:24:43.001Z</time></trkpt><trkpt lat="42.57433987092479" lon="12.643367136822611"><ele>127.25</ele><time>2026-04-11T16:24:44.001Z</time></trkpt><trkpt lat="42.57435562075813" lon="12.643174665309916"><ele>127.0</ele><time>2026-04-11T16:24:45.001Z</time></trkpt><trkpt lat="42.57436640169348" lon="12.642978913163192"><ele>127.0</ele><time>2026-04-11T16:24:46.001Z</time></trkpt><trkpt lat="42.57437195421065" lon="12.642783508608602"><ele>127.0</ele><time>2026-04-11T16:24:47.001Z</time></trkpt><trkpt lat="42.574377015798476" lon="12.642583843718851"><ele>127.0</ele><time>2026-04-11T16:24:48.001Z</time></trkpt><trkpt lat="42.57438154917825" lon="12.642380969224885"><ele>127.0</ele><time>2026-04-11T16:24:49.001Z</time></trkpt><trkpt lat="42.574378008085866" lon="12.642168746821152"><ele>127.0</ele><time>2026-04-11T16:24:50.001Z</time></trkpt><trkpt lat="42.57435591953626" lon="12.641959331883806"><ele>127.0</ele><time>2026-04-11T16:24:51.001Z</time></trkpt><trkpt lat="42.57431306885014" lon="12.641754202281913"><ele>127.0</ele><time>2026-04-11T16:24:52.001Z</time></trkpt><trkpt lat="42.57425791810998" lon="12.641552317910612"><ele>127.0</ele><time>2026-04-11T16:24:53.001Z</time></trkpt><trkpt lat="42.57418681977442" lon="12.641358139741211"><ele>127.0</ele><time>2026-04-11T16:24:54.001Z</time></trkpt><trkpt lat="42.57411757874949" lon="12.641162478183043"><ele>127.0</ele><time>2026-04-11T16:24:55.001Z</time></trkpt><trkpt lat="42.574055012943276" lon="12.64098063266784"><ele>127.75</ele><time>2026-04-11T16:24:56.001Z</time></trkpt><trkpt lat="42.57399308668725" lon="12.640813205291725"><ele>128.5</ele><time>2026-04-11T16:24:57.001Z</time></trkpt><trkpt lat="42.573936585459094" lon="12.640657109234997"><ele>129.25</ele><time>2026-04-11T16:24:58.001Z</time></trkpt><trkpt lat="42.57389273313678" lon="12.64051054209837"><ele>130.0</ele><time>2026-04-11T16:24:59.001Z</time></trkpt><trkpt lat="42.57387466758529" lon="12.640369101014686"><ele>130.2</ele><time>2026-04-11T16:25:00.001Z</time></trkpt><trkpt lat="42.573860158710964" lon="12.640226840202754"><ele>130.4</ele><time>2026-04-11T16:25:01.001Z</time></trkpt><trkpt lat="42.57384696551007" lon="12.64009349129983"><ele>130.6</ele><time>2026-04-11T16:25:02.001Z</time></trkpt><trkpt lat="42.57383526434606" lon="12.639953590957296"><ele>130.8</ele><time>2026-04-11T16:25:03.001Z</time></trkpt><trkpt lat="42.57382016584961" lon="12.63981014557038"><ele>131.0</ele><time>2026-04-11T16:25:04.001Z</time></trkpt><trkpt lat="42.57381321933712" lon="12.639664561617906"><ele>131.0</ele><time>2026-04-11T16:25:05.001Z</time></trkpt><trkpt lat="42.573824849231116" lon="12.639523746830903"><ele>131.0</ele><time>2026-04-11T16:25:06.001Z</time></trkpt><trkpt lat="42.57384532364879" lon="12.639371515532273"><ele>131.0</ele><time>2026-04-11T16:25:07.001Z</time></trkpt><trkpt lat="42.57384126249618" lon="12.639217065605461"><ele>131.0</ele><time>2026-04-11T16:25:08.001Z</time></trkpt><trkpt lat="42.57379840044698" lon="12.639068061755744"><ele>131.25</ele><time>2026-04-11T16:25:09.001Z</time></trkpt><trkpt lat="42.57371613115855" lon="12.638937975432729"><ele>131.5</ele><time>2026-04-11T16:25:10.001Z</time></trkpt><trkpt lat="42.5735971874699" lon="12.638847609245229"><ele>131.75</ele><time>2026-04-11T16:25:11.001Z</time></trkpt><trkpt lat="42.573459791843355" lon="12.638815009736447"><ele>132.0</ele><time>2026-04-11T16:25:12.001Z</time></trkpt><trkpt lat="42.573333562612135" lon="12.638733561742862"><ele>130.75</ele><time>2026-04-11T16:25:13.001Z</time></trkpt><trkpt lat="42.573221773994725" lon="12.638657086098616"><ele>129.5</ele><time>2026-04-11T16:25:14.001Z</time></trkpt><trkpt lat="42.57312238892384" lon="12.638552552235453"><ele>128.25</ele><time>2026-04-11T16:25:15.001Z</time></trkpt><trkpt lat="42.57304335475761" lon="12.638408968450758"><ele>127.0</ele><time>2026-04-11T16:25:16.001Z</time></trkpt><trkpt lat="42.57298856318036" lon="12.638228481089842"><ele>126.75</ele><time>2026-04-11T16:25:17.001Z</time></trkpt><trkpt lat="42.57295719298078" lon="12.638031050667045"><ele>126.5</ele><time>2026-04-11T16:25:18.001Z</time></trkpt><trkpt lat="42.572930042187366" lon="12.637850864035684"><ele>126.25</ele><time>2026-04-11T16:25:19.001Z</time></trkpt><trkpt lat="42.57289575691521" lon="12.637689000665489"><ele>126.0</ele><time>2026-04-11T16:25:20.001Z</time></trkpt><trkpt lat="42.57285969695038" lon="12.63753172234559"><ele>125.75</ele><time>2026-04-11T16:25:21.001Z</time></trkpt><trkpt lat="42.57282819759272" lon="12.637373119465318"><ele>125.5</ele><time>2026-04-11T16:25:22.001Z</time></trkpt><trkpt lat="42.572806925212504" lon="12.637210163167964"><ele>125.25</ele><time>2026-04-11T16:25:23.001Z</time></trkpt><trkpt lat="42.57279151077729" lon="12.637058672902434"><ele>125.0</ele><time>2026-04-11T16:25:24.001Z</time></trkpt><trkpt lat="42.57276997506512" lon="12.636896276797012"><ele>125.0</ele><time>2026-04-11T16:25:25.001Z</time></trkpt><trkpt lat="42.572750589298806" lon="12.636733169232297"><ele>125.0</ele><time>2026-04-11T16:25:26.001Z</time></trkpt><trkpt lat="42.57273217444491" lon="12.636583210565268"><ele>125.0</ele><time>2026-04-11T16:25:27.001Z</time></trkpt><trkpt lat="42.572716039252406" lon="12.636451488006925"><ele>125.0</ele><time>2026-04-11T16:25:28.001Z</time></trkpt><trkpt lat="42.57269915187591" lon="12.636327444171583"><ele>125.0</ele><time>2026-04-11T16:25:29.001Z</time></trkpt><trkpt lat="42.57268609689461" lon="12.636221069776184"><ele>125.16666666666666</ele><time>2026-04-11T16:25:30.001Z</time></trkpt><trkpt lat="42.57267432473672" lon="12.636082387491275"><ele>125.33333333333333</ele><time>2026-04-11T16:25:32.001Z</time></trkpt><trkpt lat="42.57268084579123" lon="12.635942753500009"><ele>125.5</ele><time>2026-04-11T16:25:34.001Z</time></trkpt><trkpt lat="42.57268618745574" lon="12.635857068050987"><ele>125.66666666666666</ele><time>2026-04-11T16:25:35.001Z</time></trkpt><trkpt lat="42.572671191418465" lon="12.635763188516297"><ele>125.83333333333333</ele><time>2026-04-11T16:25:36.001Z</time></trkpt><trkpt lat="42.5726431282497" lon="12.635670254535885"><ele>126.0</ele><time>2026-04-11T16:25:37.001Z</time></trkpt><trkpt lat="42.57260071930097" lon="12.635575588436783"><ele>126.0</ele><time>2026-04-11T16:25:38.001Z</time></trkpt><trkpt lat="42.57256645545416" lon="12.635472722079813"><ele>126.0</ele><time>2026-04-11T16:25:39.001Z</time></trkpt><trkpt lat="42.572553352314294" lon="12.635359695878318"><ele>126.0</ele><time>2026-04-11T16:25:40.001Z</time></trkpt><trkpt lat="42.572533137460034" lon="12.63524388390741"><ele>126.0</ele><time>2026-04-11T16:25:41.001Z</time></trkpt><trkpt lat="42.57251638013411" lon="12.635128919376257"><ele>126.0</ele><time>2026-04-11T16:25:42.001Z</time></trkpt><trkpt lat="42.57250372676465" lon="12.63501518370146"><ele>126.0</ele><time>2026-04-11T16:25:43.001Z</time></trkpt><trkpt lat="42.57248825006307" lon="12.634917118504497"><ele>126.19999999999999</ele><time>2026-04-11T16:25:44.001Z</time></trkpt><trkpt lat="42.57246892554493" lon="12.634810557645539"><ele>126.39999999999999</ele><time>2026-04-11T16:25:45.001Z</time></trkpt><trkpt lat="42.57245166440217" lon="12.634677885444525"><ele>126.6</ele><time>2026-04-11T16:25:46.001Z</time></trkpt><trkpt lat="42.57242947019904" lon="12.634540870669886"><ele>126.8</ele><time>2026-04-11T16:25:47.001Z</time></trkpt><trkpt lat="42.572399192748975" lon="12.634392274704785"><ele>127.0</ele><time>2026-04-11T16:25:48.001Z</time></trkpt><trkpt lat="42.5723589132432" lon="12.634216905805342"><ele>127.66666666666667</ele><time>2026-04-11T16:25:49.001Z</time></trkpt><trkpt lat="42.57232545342609" lon="12.634023877068977"><ele>128.33333333333334</ele><time>2026-04-11T16:25:50.001Z</time></trkpt><trkpt lat="42.57229765374001" lon="12.633815601284985"><ele>129.0</ele><time>2026-04-11T16:25:51.001Z</time></trkpt><trkpt lat="42.572265634668476" lon="12.63358559741765"><ele>130.0</ele><time>2026-04-11T16:25:52.001Z</time></trkpt><trkpt lat="42.57224104336067" lon="12.63335710662607"><ele>131.0</ele><time>2026-04-11T16:25:53.001Z</time></trkpt><trkpt lat="42.57221894853885" lon="12.633149598714555"><ele>132.0</ele><time>2026-04-11T16:25:54.001Z</time></trkpt><trkpt lat="42.57219002972426" lon="12.632955870499362"><ele>132.75</ele><time>2026-04-11T16:25:55.001Z</time></trkpt><trkpt lat="42.572164585496246" lon="12.63278802546501"><ele>133.5</ele><time>2026-04-11T16:25:56.001Z</time></trkpt><trkpt lat="42.572138501452216" lon="12.632617018143376"><ele>134.25</ele><time>2026-04-11T16:25:57.001Z</time></trkpt><trkpt lat="42.572115129295945" lon="12.632430193525336"><ele>135.0</ele><time>2026-04-11T16:25:58.001Z</time></trkpt><trkpt lat="42.57209498424663" lon="12.632269164589754"><ele>135.0</ele><time>2026-04-11T16:25:59.001Z</time></trkpt><trkpt lat="42.57206712008544" lon="12.632046433288517"><ele>135.0</ele><time>2026-04-11T16:26:00.001Z</time></trkpt><trkpt lat="42.57203471901674" lon="12.631790397471804"><ele>135.0</ele><time>2026-04-11T16:26:01.001Z</time></trkpt><trkpt lat="42.572006187301255" lon="12.631572212588933"><ele>135.33333333333334</ele><time>2026-04-11T16:26:02.001Z</time></trkpt><trkpt lat="42.571979514814416" lon="12.631369574439374"><ele>135.66666666666669</ele><time>2026-04-11T16:26:03.001Z</time></trkpt><trkpt lat="42.57205780374047" lon="12.631150780453572"><ele>136.0</ele><time>2026-04-11T16:26:04.001Z</time></trkpt><trkpt lat="42.57206737532375" lon="12.630954852646328"><ele>135.25</ele><time>2026-04-11T16:26:05.001Z</time></trkpt><trkpt lat="42.57204627387142" lon="12.630781119836355"><ele>134.5</ele><time>2026-04-11T16:26:06.001Z</time></trkpt><trkpt lat="42.57203976887119" lon="12.630608636831957"><ele>133.75</ele><time>2026-04-11T16:26:07.001Z</time></trkpt><trkpt lat="42.572033937354306" lon="12.630429517927862"><ele>133.0</ele><time>2026-04-11T16:26:08.001Z</time></trkpt><trkpt lat="42.57203478758696" lon="12.630259626050618"><ele>132.66666666666669</ele><time>2026-04-11T16:26:09.001Z</time></trkpt><trkpt lat="42.57203646022844" lon="12.630139253263575"><ele>132.33333333333334</ele><time>2026-04-11T16:26:10.001Z</time></trkpt><trkpt lat="42.57203814437954" lon="12.630018047350555"><ele>132.0</ele><time>2026-04-11T16:26:13.001Z</time></trkpt><trkpt lat="42.57175337626991" lon="12.629850355395064"><ele>130.79999999999998</ele><time>2026-04-11T16:26:15.001Z</time></trkpt><trkpt lat="42.57172059982291" lon="12.62975026100681"><ele>129.6</ele><time>2026-04-11T16:26:16.001Z</time></trkpt><trkpt lat="42.57167214635261" lon="12.62965024811908"><ele>128.39999999999998</ele><time>2026-04-11T16:26:17.001Z</time></trkpt><trkpt lat="42.571593866323234" lon="12.62957492735038"><ele>127.19999999999999</ele><time>2026-04-11T16:26:18.001Z</time></trkpt><trkpt lat="42.57149845647905" lon="12.629536529913292"><ele>126.0</ele><time>2026-04-11T16:26:19.001Z</time></trkpt><trkpt lat="42.571362334455486" lon="12.629546769036033"><ele>126.0</ele><time>2026-04-11T16:26:20.001Z</time></trkpt><trkpt lat="42.571206973300036" lon="12.629530015372556"><ele>126.0</ele><time>2026-04-11T16:26:21.001Z</time></trkpt><trkpt lat="42.57105596401132" lon="12.629555558384755"><ele>126.0</ele><time>2026-04-11T16:26:22.001Z</time></trkpt><trkpt lat="42.570943018540554" lon="12.62956301604129"><ele>126.0</ele><time>2026-04-11T16:26:24.001Z</time></trkpt><trkpt lat="42.57081862255417" lon="12.629585645003894"><ele>126.19999999999999</ele><time>2026-04-11T16:26:25.001Z</time></trkpt><trkpt lat="42.57070539727351" lon="12.629617210631066"><ele>126.39999999999999</ele><time>2026-04-11T16:26:26.001Z</time></trkpt><trkpt lat="42.57060159542705" lon="12.629664325897432"><ele>126.6</ele><time>2026-04-11T16:26:27.001Z</time></trkpt><trkpt lat="42.5705228746998" lon="12.629746272034867"><ele>126.8</ele><time>2026-04-11T16:26:28.001Z</time></trkpt><trkpt lat="42.57049583020288" lon="12.629901987121157"><ele>127.0</ele><time>2026-04-11T16:26:29.001Z</time></trkpt><trkpt lat="42.570461305172365" lon="12.630011208761877"><ele>127.0</ele><time>2026-04-11T16:26:30.001Z</time></trkpt><trkpt lat="42.570435397729106" lon="12.630145565630938"><ele>126.99999999999999</ele><time>2026-04-11T16:26:31.002Z</time></trkpt><trkpt lat="42.570401923337194" lon="12.630259654976483"><ele>126.99999999999999</ele><time>2026-04-11T16:26:32.001Z</time></trkpt><trkpt lat="42.57031913304286" lon="12.630338380145119"><ele>127.0</ele><time>2026-04-11T16:26:33.001Z</time></trkpt><trkpt lat="42.570229010671156" lon="12.63038803346025"><ele>127.0</ele><time>2026-04-11T16:26:34.001Z</time></trkpt><trkpt lat="42.57012380026223" lon="12.630407977310254"><ele>126.75</ele><time>2026-04-11T16:26:35.001Z</time></trkpt><trkpt lat="42.57000479783048" lon="12.630432109734322"><ele>126.5</ele><time>2026-04-11T16:26:36.001Z</time></trkpt><trkpt lat="42.56987908647717" lon="12.6304378045998"><ele>126.25</ele><time>2026-04-11T16:26:37.001Z</time></trkpt><trkpt lat="42.56976763038181" lon="12.630445523199178"><ele>126.0</ele><time>2026-04-11T16:26:38.001Z</time></trkpt><trkpt lat="42.569660181482234" lon="12.630453392204942"><ele>126.0</ele><time>2026-04-11T16:26:39.001Z</time></trkpt><trkpt lat="42.56955070980515" lon="12.630459479580209"><ele>126.0</ele><time>2026-04-11T16:26:40.002Z</time></trkpt><trkpt lat="42.5694463286845" lon="12.630463530807738"><ele>126.0</ele><time>2026-04-11T16:26:41.001Z</time></trkpt><trkpt lat="42.56934441534047" lon="12.630473682800305"><ele>126.0</ele><time>2026-04-11T16:26:42.001Z</time></trkpt><trkpt lat="42.56923948571334" lon="12.630468781467505"><ele>126.0</ele><time>2026-04-11T16:26:43.001Z</time></trkpt><trkpt lat="42.56913344596068" lon="12.630447283135364"><ele>125.75</ele><time>2026-04-11T16:26:44.002Z</time></trkpt><trkpt lat="42.569025110670744" lon="12.630397873513424"><ele>125.5</ele><time>2026-04-11T16:26:45.002Z</time></trkpt><trkpt lat="42.568915630416356" lon="12.630306955403396"><ele>125.25</ele><time>2026-04-11T16:26:46.002Z</time></trkpt><trkpt lat="42.56881219321636" lon="12.630192800601934"><ele>125.0</ele><time>2026-04-11T16:26:47.002Z</time></trkpt><trkpt lat="42.568739845539184" lon="12.630050396784387"><ele>123.75</ele><time>2026-04-11T16:26:48.002Z</time></trkpt><trkpt lat="42.568646110631896" lon="12.629937146113155"><ele>122.5</ele><time>2026-04-11T16:26:49.002Z</time></trkpt><trkpt lat="42.568547587383335" lon="12.629824745762548"><ele>121.25</ele><time>2026-04-11T16:26:50.002Z</time></trkpt><trkpt lat="42.56845515208582" lon="12.629719124166986"><ele>120.0</ele><time>2026-04-11T16:26:51.002Z</time></trkpt><trkpt lat="42.568358836646084" lon="12.629637127550145"><ele>120.0</ele><time>2026-04-11T16:26:52.002Z</time></trkpt><trkpt lat="42.56828392800078" lon="12.62953366173325"><ele>120.0</ele><time>2026-04-11T16:26:53.002Z</time></trkpt><trkpt lat="42.56821027042528" lon="12.629439646149995"><ele>120.0</ele><time>2026-04-11T16:26:54.001Z</time></trkpt><trkpt lat="42.56814061689644" lon="12.629357777011931"><ele>120.0</ele><time>2026-04-11T16:26:55.001Z</time></trkpt><trkpt lat="42.56807592780615" lon="12.629279448722983"><ele>120.0</ele><time>2026-04-11T16:26:56.001Z</time></trkpt><trkpt lat="42.56801447005748" lon="12.629204462400509"><ele>120.0</ele><time>2026-04-11T16:26:57.001Z</time></trkpt><trkpt lat="42.567953029660465" lon="12.629129434541644"><ele>120.0</ele><time>2026-04-11T16:26:58.001Z</time></trkpt><trkpt lat="42.567894673899495" lon="12.629041710894391"><ele>120.0</ele><time>2026-04-11T16:26:59.001Z</time></trkpt><trkpt lat="42.567823908243234" lon="12.62894782462572"><ele>120.0</ele><time>2026-04-11T16:27:00.001Z</time></trkpt><trkpt lat="42.567753567855625" lon="12.628859725659378"><ele>120.0</ele><time>2026-04-11T16:27:01.001Z</time></trkpt><trkpt lat="42.567688017944455" lon="12.628750199569515"><ele>119.75</ele><time>2026-04-11T16:27:02.001Z</time></trkpt><trkpt lat="42.56762506665466" lon="12.628625450956232"><ele>119.5</ele><time>2026-04-11T16:27:03.001Z</time></trkpt><trkpt lat="42.56756658849719" lon="12.628478714744535"><ele>119.25</ele><time>2026-04-11T16:27:04.001Z</time></trkpt><trkpt lat="42.56751707318293" lon="12.628327032785217"><ele>119.0</ele><time>2026-04-11T16:27:05.001Z</time></trkpt><trkpt lat="42.567471712754994" lon="12.62817062528773"><ele>119.0</ele><time>2026-04-11T16:27:06.001Z</time></trkpt><trkpt lat="42.56743089600135" lon="12.62802332552539"><ele>119.0</ele><time>2026-04-11T16:27:07.001Z</time></trkpt><trkpt lat="42.5673876457855" lon="12.627898172777734"><ele>119.0</ele><time>2026-04-11T16:27:08.001Z</time></trkpt><trkpt lat="42.56734801661118" lon="12.627778187288815"><ele>119.0</ele><time>2026-04-11T16:27:09.001Z</time></trkpt><trkpt lat="42.56731556551377" lon="12.62765901700029"><ele>119.0</ele><time>2026-04-11T16:27:10.001Z</time></trkpt><trkpt lat="42.56729394795723" lon="12.627534288668802"><ele>119.2</ele><time>2026-04-11T16:27:11.001Z</time></trkpt><trkpt lat="42.567270300236416" lon="12.62739922461938"><ele>119.4</ele><time>2026-04-11T16:27:12.001Z</time></trkpt><trkpt lat="42.56724136432818" lon="12.627251510363916"><ele>119.6</ele><time>2026-04-11T16:27:13.001Z</time></trkpt><trkpt lat="42.56721707943113" lon="12.6271097983636"><ele>119.8</ele><time>2026-04-11T16:27:14.001Z</time></trkpt><trkpt lat="42.567198825880446" lon="12.626977781138484"><ele>120.0</ele><time>2026-04-11T16:27:15.001Z</time></trkpt><trkpt lat="42.56718496025153" lon="12.626855083689186"><ele>120.2</ele><time>2026-04-11T16:27:16.001Z</time></trkpt><trkpt lat="42.56717776601636" lon="12.626734390906025"><ele>120.4</ele><time>2026-04-11T16:27:17.001Z</time></trkpt><trkpt lat="42.567171059570924" lon="12.626610551592783"><ele>120.6</ele><time>2026-04-11T16:27:18.001Z</time></trkpt><trkpt lat="42.56716284876065" lon="12.626481354476285"><ele>120.8</ele><time>2026-04-11T16:27:19.001Z</time></trkpt><trkpt lat="42.56715550772511" lon="12.626340283418429"><ele>121.0</ele><time>2026-04-11T16:27:20.001Z</time></trkpt><trkpt lat="42.56715098794099" lon="12.626193066910702"><ele>120.8</ele><time>2026-04-11T16:27:21.001Z</time></trkpt><trkpt lat="42.56714849783711" lon="12.626047314040047"><ele>120.6</ele><time>2026-04-11T16:27:22.001Z</time></trkpt><trkpt lat="42.56714720910624" lon="12.625911875174392"><ele>120.4</ele><time>2026-04-11T16:27:23.001Z</time></trkpt><trkpt lat="42.5671447528724" lon="12.625779947281028"><ele>120.2</ele><time>2026-04-11T16:27:24.001Z</time></trkpt><trkpt lat="42.56714154510286" lon="12.625649160110184"><ele>120.0</ele><time>2026-04-11T16:27:25.001Z</time></trkpt><trkpt lat="42.567138702965856" lon="12.625513210196875"><ele>120.0</ele><time>2026-04-11T16:27:26.001Z</time></trkpt><trkpt lat="42.56713439656042" lon="12.62537200688467"><ele>120.0</ele><time>2026-04-11T16:27:27.001Z</time></trkpt><trkpt lat="42.56713078103476" lon="12.625227587634875"><ele>120.0</ele><time>2026-04-11T16:27:28.001Z</time></trkpt><trkpt lat="42.5671302366925" lon="12.62508448185066"><ele>120.0</ele><time>2026-04-11T16:27:29.001Z</time></trkpt><trkpt lat="42.567133676097164" lon="12.624945173071787"><ele>120.0</ele><time>2026-04-11T16:27:30.001Z</time></trkpt><trkpt lat="42.56712006460652" lon="12.624812705346102"><ele>120.0</ele><time>2026-04-11T16:27:31.001Z</time></trkpt><trkpt lat="42.56711726134748" lon="12.624677487974033"><ele>120.0</ele><time>2026-04-11T16:27:32.001Z</time></trkpt><trkpt lat="42.567116268463174" lon="12.624540729698776"><ele>120.0</ele><time>2026-04-11T16:27:33.001Z</time></trkpt><trkpt lat="42.56711610199154" lon="12.624402695707602"><ele>120.0</ele><time>2026-04-11T16:27:34.001Z</time></trkpt><trkpt lat="42.56711925121248" lon="12.624269905586278"><ele>120.0</ele><time>2026-04-11T16:27:35.001Z</time></trkpt><trkpt lat="42.56712111688026" lon="12.624148552098077"><ele>119.66666666666667</ele><time>2026-04-11T16:27:36.001Z</time></trkpt><trkpt lat="42.56712310838193" lon="12.624026646545737"><ele>119.33333333333334</ele><time>2026-04-11T16:27:37.001Z</time></trkpt><trkpt lat="42.567125336258265" lon="12.623915800281855"><ele>119.0</ele><time>2026-04-11T16:27:38.001Z</time></trkpt><trkpt lat="42.56712236408794" lon="12.623804378361172"><ele>118.66666666666667</ele><time>2026-04-11T16:27:39.001Z</time></trkpt><trkpt lat="42.56712168244743" lon="12.623690309580502"><ele>118.33333333333334</ele><time>2026-04-11T16:27:40.001Z</time></trkpt><trkpt lat="42.56712080416954" lon="12.62357225921842"><ele>118.0</ele><time>2026-04-11T16:27:41.001Z</time></trkpt><trkpt lat="42.567122817804055" lon="12.623450242933469"><ele>117.83333333333334</ele><time>2026-04-11T16:27:42.001Z</time></trkpt><trkpt lat="42.56712610003075" lon="12.623336923969035"><ele>117.66666666666667</ele><time>2026-04-11T16:27:43.001Z</time></trkpt><trkpt lat="42.56713087643181" lon="12.623233291794985"><ele>117.5</ele><time>2026-04-11T16:27:44.001Z</time></trkpt><trkpt lat="42.567133110447706" lon="12.623132692854984"><ele>117.33333333333334</ele><time>2026-04-11T16:27:45.001Z</time></trkpt><trkpt lat="42.567135090288495" lon="12.623026390564506"><ele>117.16666666666667</ele><time>2026-04-11T16:27:46.001Z</time></trkpt><trkpt lat="42.567136303828434" lon="12.622918760341427"><ele>117.0</ele><time>2026-04-11T16:27:47.001Z</time></trkpt><trkpt lat="42.56713504703655" lon="12.62280947733747"><ele>117.0</ele><time>2026-04-11T16:27:48.001Z</time></trkpt><trkpt lat="42.56713962840592" lon="12.622707946251584"><ele>117.0</ele><time>2026-04-11T16:27:49.001Z</time></trkpt><trkpt lat="42.56714129043424" lon="12.622601618139122"><ele>117.0</ele><time>2026-04-11T16:27:50.001Z</time></trkpt><trkpt lat="42.567137986760535" lon="12.622487971707994"><ele>117.0</ele><time>2026-04-11T16:27:51.001Z</time></trkpt><trkpt lat="42.567132316996734" lon="12.622363153051516"><ele>117.0</ele><time>2026-04-11T16:27:52.001Z</time></trkpt><trkpt lat="42.56713628522734" lon="12.622237360446643"><ele>117.0</ele><time>2026-04-11T16:27:53.001Z</time></trkpt><trkpt lat="42.56713173265517" lon="12.62210209403089"><ele>117.19999999999999</ele><time>2026-04-11T16:27:54.001Z</time></trkpt><trkpt lat="42.56712804190196" lon="12.62195515244129"><ele>117.39999999999999</ele><time>2026-04-11T16:27:55.001Z</time></trkpt><trkpt lat="42.56712820283154" lon="12.621810040106759"><ele>117.60000000000001</ele><time>2026-04-11T16:27:56.001Z</time></trkpt><trkpt lat="42.567125347438235" lon="12.621660864007751"><ele>117.80000000000001</ele><time>2026-04-11T16:27:57.001Z</time></trkpt><trkpt lat="42.56712096743993" lon="12.621510617048834"><ele>118.0</ele><time>2026-04-11T16:27:58.001Z</time></trkpt><trkpt lat="42.56711682608002" lon="12.621354557042537"><ele>118.0</ele><time>2026-04-11T16:27:59.001Z</time></trkpt><trkpt lat="42.56711402030346" lon="12.62120141597059"><ele>118.0</ele><time>2026-04-11T16:28:00.001Z</time></trkpt><trkpt lat="42.56711053053027" lon="12.62104322409695"><ele>118.0</ele><time>2026-04-11T16:28:01.001Z</time></trkpt><trkpt lat="42.56706837320623" lon="12.620882894190988"><ele>118.0</ele><time>2026-04-11T16:28:02.001Z</time></trkpt><trkpt lat="42.56705976430463" lon="12.62073513801365"><ele>117.4</ele><time>2026-04-11T16:28:03.001Z</time></trkpt><trkpt lat="42.56709303557886" lon="12.62058655810038"><ele>116.80000000000001</ele><time>2026-04-11T16:28:04.001Z</time></trkpt><trkpt lat="42.56708364588171" lon="12.620452161268686"><ele>116.2</ele><time>2026-04-11T16:28:05.001Z</time></trkpt><trkpt lat="42.5670673816332" lon="12.620313385196786"><ele>115.6</ele><time>2026-04-11T16:28:06.001Z</time></trkpt><trkpt lat="42.56704969518114" lon="12.62016793720595"><ele>115.0</ele><time>2026-04-11T16:28:07.001Z</time></trkpt><trkpt lat="42.56703750043251" lon="12.620015071541918"><ele>114.75</ele><time>2026-04-11T16:28:08.001Z</time></trkpt><trkpt lat="42.56702926117366" lon="12.619859860396755"><ele>114.5</ele><time>2026-04-11T16:28:09.001Z</time></trkpt><trkpt lat="42.56702299693382" lon="12.619703155707347"><ele>114.25</ele><time>2026-04-11T16:28:10.001Z</time></trkpt><trkpt lat="42.567017671726326" lon="12.619541990631726"><ele>114.0</ele><time>2026-04-11T16:28:11.001Z</time></trkpt><trkpt lat="42.56701896098808" lon="12.61938005839015"><ele>114.0</ele><time>2026-04-11T16:28:12.001Z</time></trkpt><trkpt lat="42.56702200172719" lon="12.619211466252715"><ele>114.0</ele><time>2026-04-11T16:28:13.001Z</time></trkpt><trkpt lat="42.567027875808456" lon="12.61904763761848"><ele>114.0</ele><time>2026-04-11T16:28:14.001Z</time></trkpt><trkpt lat="42.56702596502233" lon="12.618883428067305"><ele>114.0</ele><time>2026-04-11T16:28:15.001Z</time></trkpt><trkpt lat="42.56701994083857" lon="12.618717550780582"><ele>114.0</ele><time>2026-04-11T16:28:16.001Z</time></trkpt><trkpt lat="42.56701471884962" lon="12.618551716175961"><ele>114.0</ele><time>2026-04-11T16:28:17.001Z</time></trkpt><trkpt lat="42.56700857493677" lon="12.618393952921794"><ele>114.0</ele><time>2026-04-11T16:28:18.001Z</time></trkpt><trkpt lat="42.567004675043464" lon="12.618233823550614"><ele>114.0</ele><time>2026-04-11T16:28:19.001Z</time></trkpt><trkpt lat="42.56699926362948" lon="12.618066245681687"><ele>114.0</ele><time>2026-04-11T16:28:20.001Z</time></trkpt><trkpt lat="42.56699662230106" lon="12.617896407813168"><ele>114.0</ele><time>2026-04-11T16:28:21.001Z</time></trkpt><trkpt lat="42.5669945193562" lon="12.617721885118835"><ele>114.0</ele><time>2026-04-11T16:28:22.001Z</time></trkpt><trkpt lat="42.56699002145266" lon="12.617544240352448"><ele>114.0</ele><time>2026-04-11T16:28:23.001Z</time></trkpt><trkpt lat="42.56699087267436" lon="12.617365088623197"><ele>113.5</ele><time>2026-04-11T16:28:24.001Z</time></trkpt><trkpt lat="42.566994575945834" lon="12.617183404718618"><ele>113.0</ele><time>2026-04-11T16:28:25.001Z</time></trkpt><trkpt lat="42.566995795115105" lon="12.617013619158941"><ele>112.5</ele><time>2026-04-11T16:28:26.001Z</time></trkpt><trkpt lat="42.567001020527094" lon="12.616852843126361"><ele>112.0</ele><time>2026-04-11T16:28:27.001Z</time></trkpt><trkpt lat="42.56700654880747" lon="12.616685945860796"><ele>111.75</ele><time>2026-04-11T16:28:28.001Z</time></trkpt><trkpt lat="42.56701286341238" lon="12.616517432307953"><ele>111.5</ele><time>2026-04-11T16:28:29.001Z</time></trkpt><trkpt lat="42.56702015183672" lon="12.616346943042853"><ele>111.25</ele><time>2026-04-11T16:28:30.001Z</time></trkpt><trkpt lat="42.56702675298482" lon="12.616185085647668"><ele>111.0</ele><time>2026-04-11T16:28:31.001Z</time></trkpt><trkpt lat="42.56703815114579" lon="12.616026225326195"><ele>111.5</ele><time>2026-04-11T16:28:32.001Z</time></trkpt><trkpt lat="42.56704951552316" lon="12.615864922013367"><ele>112.0</ele><time>2026-04-11T16:28:33.001Z</time></trkpt><trkpt lat="42.567069821733526" lon="12.615703745938376"><ele>112.5</ele><time>2026-04-11T16:28:34.001Z</time></trkpt><trkpt lat="42.56708489287622" lon="12.615535963598834"><ele>113.0</ele><time>2026-04-11T16:28:35.001Z</time></trkpt><trkpt lat="42.56710407054306" lon="12.615374557837328"><ele>113.2</ele><time>2026-04-11T16:28:36.001Z</time></trkpt><trkpt lat="42.56711495018037" lon="12.615224779435408"><ele>113.4</ele><time>2026-04-11T16:28:37.001Z</time></trkpt><trkpt lat="42.56713088854964" lon="12.615087453991126"><ele>113.60000000000001</ele><time>2026-04-11T16:28:38.001Z</time></trkpt><trkpt lat="42.567148167220516" lon="12.61494561554786"><ele>113.80000000000001</ele><time>2026-04-11T16:28:39.001Z</time></trkpt><trkpt lat="42.56715823302131" lon="12.614816062016839"><ele>114.0</ele><time>2026-04-11T16:28:40.001Z</time></trkpt><trkpt lat="42.567169768161286" lon="12.614704940786684"><ele>114.0</ele><time>2026-04-11T16:28:41.001Z</time></trkpt><trkpt lat="42.56718651962066" lon="12.61460614884999"><ele>113.99999999999999</ele><time>2026-04-11T16:28:42.001Z</time></trkpt><trkpt lat="42.56721469371643" lon="12.614520106620597"><ele>114.0</ele><time>2026-04-11T16:28:43.001Z</time></trkpt><trkpt lat="42.567224287248074" lon="12.614430800804465"><ele>114.0</ele><time>2026-04-11T16:28:44.001Z</time></trkpt><trkpt lat="42.56726978413693" lon="12.614353323053859"><ele>113.99999999999999</ele><time>2026-04-11T16:28:45.001Z</time></trkpt><trkpt lat="42.56727896066835" lon="12.614253029014376"><ele>114.0</ele><time>2026-04-11T16:28:46.001Z</time></trkpt><trkpt lat="42.56727272925946" lon="12.614145469275915"><ele>114.0</ele><time>2026-04-11T16:28:47.001Z</time></trkpt><trkpt lat="42.56726074925201" lon="12.614030098375528"><ele>114.0</ele><time>2026-04-11T16:28:48.001Z</time></trkpt><trkpt lat="42.56725081082689" lon="12.613907043740769"><ele>114.0</ele><time>2026-04-11T16:28:49.001Z</time></trkpt><trkpt lat="42.567258474803175" lon="12.613779238188798"><ele>114.0</ele><time>2026-04-11T16:28:50.001Z</time></trkpt><trkpt lat="42.5672635851314" lon="12.613647134980459"><ele>114.0</ele><time>2026-04-11T16:28:51.001Z</time></trkpt><trkpt lat="42.56727159444994" lon="12.61350641465191"><ele>114.0</ele><time>2026-04-11T16:28:52.001Z</time></trkpt><trkpt lat="42.56728078929809" lon="12.61336188047498"><ele>113.5</ele><time>2026-04-11T16:28:53.001Z</time></trkpt><trkpt lat="42.567290498236595" lon="12.613215541035382"><ele>113.0</ele><time>2026-04-11T16:28:54.001Z</time></trkpt><trkpt lat="42.56730416527975" lon="12.61305974509101"><ele>112.5</ele><time>2026-04-11T16:28:55.001Z</time></trkpt><trkpt lat="42.56731762083501" lon="12.612894348853104"><ele>112.0</ele><time>2026-04-11T16:28:56.001Z</time></trkpt><trkpt lat="42.567325605941754" lon="12.612724402883606"><ele>112.0</ele><time>2026-04-11T16:28:57.001Z</time></trkpt><trkpt lat="42.56733474022553" lon="12.612565575057404"><ele>112.0</ele><time>2026-04-11T16:28:58.001Z</time></trkpt><trkpt lat="42.567342616410805" lon="12.612397115905178"><ele>112.0</ele><time>2026-04-11T16:28:59.001Z</time></trkpt><trkpt lat="42.56734917609712" lon="12.612228347241873"><ele>112.0</ele><time>2026-04-11T16:29:00.001Z</time></trkpt><trkpt lat="42.567351961212815" lon="12.61205217685116"><ele>111.75</ele><time>2026-04-11T16:29:01.001Z</time></trkpt><trkpt lat="42.5673501705305" lon="12.611871725705027"><ele>111.5</ele><time>2026-04-11T16:29:02.001Z</time></trkpt><trkpt lat="42.56734643931597" lon="12.611678116825415"><ele>111.25</ele><time>2026-04-11T16:29:03.001Z</time></trkpt><trkpt lat="42.56733518887546" lon="12.611488893056713"><ele>111.0</ele><time>2026-04-11T16:29:04.001Z</time></trkpt><trkpt lat="42.567317490823946" lon="12.611301246044885"><ele>111.0</ele><time>2026-04-11T16:29:05.001Z</time></trkpt><trkpt lat="42.567297403724716" lon="12.611108658445936"><ele>111.0</ele><time>2026-04-11T16:29:06.001Z</time></trkpt><trkpt lat="42.567275338414895" lon="12.610915882486077"><ele>111.0</ele><time>2026-04-11T16:29:07.001Z</time></trkpt><trkpt lat="42.56724578330024" lon="12.610721874662316"><ele>111.0</ele><time>2026-04-11T16:29:08.001Z</time></trkpt><trkpt lat="42.5672097805846" lon="12.610529566275444"><ele>111.0</ele><time>2026-04-11T16:29:09.001Z</time></trkpt><trkpt lat="42.567171525456146" lon="12.610335219676413"><ele>111.0</ele><time>2026-04-11T16:29:10.001Z</time></trkpt><trkpt lat="42.5671373854355" lon="12.610139274211104"><ele>111.0</ele><time>2026-04-11T16:29:11.001Z</time></trkpt><trkpt lat="42.56710731414012" lon="12.609947533485396"><ele>111.0</ele><time>2026-04-11T16:29:12.001Z</time></trkpt><trkpt lat="42.567075944534025" lon="12.609757620362814"><ele>111.0</ele><time>2026-04-11T16:29:13.001Z</time></trkpt><trkpt lat="42.567043995810494" lon="12.609574236265939"><ele>111.0</ele><time>2026-04-11T16:29:14.001Z</time></trkpt><trkpt lat="42.567008929024" lon="12.609391582985138"><ele>111.0</ele><time>2026-04-11T16:29:15.001Z</time></trkpt><trkpt lat="42.56697216319739" lon="12.609207769383941"><ele>111.0</ele><time>2026-04-11T16:29:16.001Z</time></trkpt><trkpt lat="42.56693705082513" lon="12.609024668778632"><ele>110.75</ele><time>2026-04-11T16:29:17.001Z</time></trkpt><trkpt lat="42.56690504627819" lon="12.608839049248406"><ele>110.5</ele><time>2026-04-11T16:29:18.001Z</time></trkpt><trkpt lat="42.566880881157566" lon="12.60865345936731"><ele>110.25</ele><time>2026-04-11T16:29:19.001Z</time></trkpt><trkpt lat="42.56687945966725" lon="12.608463636255884"><ele>110.0</ele><time>2026-04-11T16:29:20.001Z</time></trkpt><trkpt lat="42.566846069475694" lon="12.608283069615045"><ele>110.0</ele><time>2026-04-11T16:29:21.001Z</time></trkpt><trkpt lat="42.56683408859711" lon="12.608098279868983"><ele>110.0</ele><time>2026-04-11T16:29:22.001Z</time></trkpt><trkpt lat="42.5668210980208" lon="12.607917615827917"><ele>110.0</ele><time>2026-04-11T16:29:23.001Z</time></trkpt><trkpt lat="42.56681010892617" lon="12.607735926534898"><ele>110.0</ele><time>2026-04-11T16:29:24.001Z</time></trkpt><trkpt lat="42.566799964240325" lon="12.607556864643943"><ele>110.0</ele><time>2026-04-11T16:29:25.001Z</time></trkpt><trkpt lat="42.56679616399492" lon="12.60739187031522"><ele>110.0</ele><time>2026-04-11T16:29:26.001Z</time></trkpt><trkpt lat="42.566794042884794" lon="12.607226900700697"><ele>110.0</ele><time>2026-04-11T16:29:27.001Z</time></trkpt><trkpt lat="42.56679048731199" lon="12.607059782808843"><ele>110.0</ele><time>2026-04-11T16:29:28.001Z</time></trkpt><trkpt lat="42.56678778339637" lon="12.606887026727154"><ele>110.0</ele><time>2026-04-11T16:29:29.001Z</time></trkpt><trkpt lat="42.56678938320788" lon="12.606706907098241"><ele>110.0</ele><time>2026-04-11T16:29:30.001Z</time></trkpt><trkpt lat="42.566795724830996" lon="12.606521471401312"><ele>110.0</ele><time>2026-04-11T16:29:31.001Z</time></trkpt><trkpt lat="42.5668071461498" lon="12.606349447145687"><ele>110.0</ele><time>2026-04-11T16:29:32.001Z</time></trkpt><trkpt lat="42.56681954308313" lon="12.60619424101896"><ele>109.66666666666666</ele><time>2026-04-11T16:29:33.001Z</time></trkpt><trkpt lat="42.56683405551279" lon="12.60604869271922"><ele>109.33333333333333</ele><time>2026-04-11T16:29:34.001Z</time></trkpt><trkpt lat="42.566846210675806" lon="12.605910468491784"><ele>109.0</ele><time>2026-04-11T16:29:35.001Z</time></trkpt><trkpt lat="42.566850998185885" lon="12.605792964647407"><ele>108.66666666666666</ele><time>2026-04-11T16:29:36.001Z</time></trkpt><trkpt lat="42.56686194329001" lon="12.605684864920775"><ele>108.33333333333333</ele><time>2026-04-11T16:29:37.001Z</time></trkpt><trkpt lat="42.56686450306864" lon="12.605595351426915"><ele>108.0</ele><time>2026-04-11T16:29:38.001Z</time></trkpt><trkpt lat="42.56685898348857" lon="12.605457155267358"><ele>108.0</ele><time>2026-04-11T16:29:40.001Z</time></trkpt><trkpt lat="42.56669822769304" lon="12.605438136622942"><ele>108.00000000000001</ele><time>2026-04-11T16:29:41.001Z</time></trkpt><trkpt lat="42.56662746659615" lon="12.60551188641915"><ele>108.00000000000001</ele><time>2026-04-11T16:29:42.001Z</time></trkpt><trkpt lat="42.56659067058361" lon="12.605605145809587"><ele>108.0</ele><time>2026-04-11T16:29:43.001Z</time></trkpt><trkpt lat="42.56658377507551" lon="12.605731308226666"><ele>108.0</ele><time>2026-04-11T16:29:44.001Z</time></trkpt><trkpt lat="42.56659255546125" lon="12.605866908707513"><ele>108.0</ele><time>2026-04-11T16:29:45.001Z</time></trkpt><trkpt lat="42.56660982703393" lon="12.606001954526151"><ele>108.0</ele><time>2026-04-11T16:29:46.001Z</time></trkpt><trkpt lat="42.56662982405564" lon="12.606146949583964"><ele>108.0</ele><time>2026-04-11T16:29:47.001Z</time></trkpt><trkpt lat="42.56663862924719" lon="12.606304277113912"><ele>108.0</ele><time>2026-04-11T16:29:48.001Z</time></trkpt><trkpt lat="42.566642511184625" lon="12.606476329929244"><ele>108.5</ele><time>2026-04-11T16:29:49.001Z</time></trkpt><trkpt lat="42.566647916645714" lon="12.60664715081259"><ele>109.0</ele><time>2026-04-11T16:29:50.001Z</time></trkpt><trkpt lat="42.56664866299607" lon="12.606821640969573"><ele>109.5</ele><time>2026-04-11T16:29:51.001Z</time></trkpt><trkpt lat="42.566646857058295" lon="12.607003534992174"><ele>110.0</ele><time>2026-04-11T16:29:52.001Z</time></trkpt><trkpt lat="42.56664545303988" lon="12.607183784320291"><ele>110.0</ele><time>2026-04-11T16:29:53.001Z</time></trkpt><trkpt lat="42.566646287322314" lon="12.607361904370297"><ele>110.0</ele><time>2026-04-11T16:29:54.001Z</time></trkpt><trkpt lat="42.56664794471421" lon="12.60752626624739"><ele>110.0</ele><time>2026-04-11T16:29:55.001Z</time></trkpt><trkpt lat="42.56665285623671" lon="12.607686577030398"><ele>110.0</ele><time>2026-04-11T16:29:56.001Z</time></trkpt><trkpt lat="42.566661974628744" lon="12.607844476292929"><ele>109.75</ele><time>2026-04-11T16:29:57.001Z</time></trkpt><trkpt lat="42.566676055141706" lon="12.608009589233404"><ele>109.5</ele><time>2026-04-11T16:29:58.001Z</time></trkpt><trkpt lat="42.5666931227218" lon="12.608185250505333"><ele>109.25</ele><time>2026-04-11T16:29:59.001Z</time></trkpt><trkpt lat="42.56671296595112" lon="12.608369254546595"><ele>109.0</ele><time>2026-04-11T16:30:00.001Z</time></trkpt><trkpt lat="42.566736306231405" lon="12.608550065400399"><ele>109.25</ele><time>2026-04-11T16:30:01.001Z</time></trkpt><trkpt lat="42.56676206890109" lon="12.608726615662453"><ele>109.5</ele><time>2026-04-11T16:30:02.001Z</time></trkpt><trkpt lat="42.5667977390422" lon="12.608906161188077"><ele>109.75</ele><time>2026-04-11T16:30:03.001Z</time></trkpt><trkpt lat="42.56683510121524" lon="12.609089184411255"><ele>110.0</ele><time>2026-04-11T16:30:04.001Z</time></trkpt><trkpt lat="42.56686854467503" lon="12.609274658462347"><ele>110.0</ele><time>2026-04-11T16:30:05.001Z</time></trkpt><trkpt lat="42.56689788789331" lon="12.609458997318207"><ele>110.0</ele><time>2026-04-11T16:30:06.001Z</time></trkpt><trkpt lat="42.56692719716267" lon="12.609645399688244"><ele>110.0</ele><time>2026-04-11T16:30:07.001Z</time></trkpt><trkpt lat="42.566959792919825" lon="12.60983137849326"><ele>110.0</ele><time>2026-04-11T16:30:08.001Z</time></trkpt><trkpt lat="42.56699305244965" lon="12.610018865233183"><ele>110.25</ele><time>2026-04-11T16:30:09Z</time></trkpt><trkpt lat="42.56704093745327" lon="12.610183592470111"><ele>110.5</ele><time>2026-04-11T16:30:10Z</time></trkpt><trkpt lat="42.56707133090199" lon="12.610343745985043"><ele>110.75</ele><time>2026-04-11T16:30:11Z</time></trkpt><trkpt lat="42.567096273012915" lon="12.610488105911674"><ele>111.0</ele><time>2026-04-11T16:30:12Z</time></trkpt><trkpt lat="42.56711919681579" lon="12.610624263467281"><ele>111.0</ele><time>2026-04-11T16:30:13Z</time></trkpt><trkpt lat="42.567142159395246" lon="12.610768001860373"><ele>111.0</ele><time>2026-04-11T16:30:14Z</time></trkpt><trkpt lat="42.567163751974306" lon="12.610903164438392"><ele>111.0</ele><time>2026-04-11T16:30:15Z</time></trkpt><trkpt lat="42.56718192784538" lon="12.611023226911446"><ele>111.0</ele><time>2026-04-11T16:30:16Z</time></trkpt><trkpt lat="42.56719908064515" lon="12.611133904369067"><ele>111.0</ele><time>2026-04-11T16:30:17Z</time></trkpt><trkpt lat="42.5672112740858" lon="12.611247443042252"><ele>111.0</ele><time>2026-04-11T16:30:18Z</time></trkpt><trkpt lat="42.56722198941218" lon="12.611379677404699"><ele>111.0</ele><time>2026-04-11T16:30:19Z</time></trkpt><trkpt lat="42.56723002035149" lon="12.611514443503983"><ele>111.0</ele><time>2026-04-11T16:30:20Z</time></trkpt><trkpt lat="42.56723643225451" lon="12.611652679205527"><ele>111.0</ele><time>2026-04-11T16:30:21Z</time></trkpt><trkpt lat="42.567241382452465" lon="12.611803531255127"><ele>111.0</ele><time>2026-04-11T16:30:22Z</time></trkpt><trkpt lat="42.56723134749876" lon="12.61197185909782"><ele>111.25</ele><time>2026-04-11T16:30:23Z</time></trkpt><trkpt lat="42.56723293486778" lon="12.612155017816674"><ele>111.5</ele><time>2026-04-11T16:30:24Z</time></trkpt><trkpt lat="42.567227189931856" lon="12.612351941095364"><ele>111.75</ele><time>2026-04-11T16:30:25Z</time></trkpt><trkpt lat="42.567219751399705" lon="12.612555007121298"><ele>112.0</ele><time>2026-04-11T16:30:26Z</time></trkpt><trkpt lat="42.567205455839364" lon="12.61274325623264"><ele>112.0</ele><time>2026-04-11T16:30:27Z</time></trkpt><trkpt lat="42.56719668399348" lon="12.612927107512693"><ele>112.0</ele><time>2026-04-11T16:30:28Z</time></trkpt><trkpt lat="42.56718721944641" lon="12.61312712008467"><ele>112.0</ele><time>2026-04-11T16:30:29Z</time></trkpt><trkpt lat="42.56717727089692" lon="12.613314758842668"><ele>112.0</ele><time>2026-04-11T16:30:30Z</time></trkpt><trkpt lat="42.56716519605458" lon="12.613481220853581"><ele>112.0</ele><time>2026-04-11T16:30:31Z</time></trkpt><trkpt lat="42.56715682809632" lon="12.613636461307149"><ele>111.99999999999999</ele><time>2026-04-11T16:30:32Z</time></trkpt><trkpt lat="42.56715492180379" lon="12.613781849324148"><ele>111.99999999999999</ele><time>2026-04-11T16:30:33Z</time></trkpt><trkpt lat="42.56713184251017" lon="12.613902544212175"><ele>112.0</ele><time>2026-04-11T16:30:34Z</time></trkpt><trkpt lat="42.5671151894095" lon="12.61399891557317"><ele>112.0</ele><time>2026-04-11T16:30:35Z</time></trkpt><trkpt lat="42.567111720053894" lon="12.614089693180489"><ele>112.39999999999999</ele><time>2026-04-11T16:30:36Z</time></trkpt><trkpt lat="42.5670530423375" lon="12.614225534686579"><ele>112.79999999999998</ele><time>2026-04-11T16:30:38Z</time></trkpt><trkpt lat="42.56706222608189" lon="12.614380313712513"><ele>113.2</ele><time>2026-04-11T16:30:40Z</time></trkpt><trkpt lat="42.567109661429186" lon="12.614438995942185"><ele>113.6</ele><time>2026-04-11T16:30:41Z</time></trkpt><trkpt lat="42.567175480711555" lon="12.614443729091795"><ele>114.0</ele><time>2026-04-11T16:30:42Z</time></trkpt><trkpt lat="42.5672606710574" lon="12.614311775147142"><ele>114.0</ele><time>2026-04-11T16:30:44.001Z</time></trkpt><trkpt lat="42.56727210834082" lon="12.614185569367425"><ele>114.0</ele><time>2026-04-11T16:30:45.001Z</time></trkpt><trkpt lat="42.56727510012013" lon="12.614036083259027"><ele>114.0</ele><time>2026-04-11T16:30:46Z</time></trkpt><trkpt lat="42.567251735263156" lon="12.613861606554511"><ele>114.0</ele><time>2026-04-11T16:30:47.001Z</time></trkpt><trkpt lat="42.5672617745633" lon="12.613665610341041"><ele>113.33333333333334</ele><time>2026-04-11T16:30:48.001Z</time></trkpt><trkpt lat="42.56729158304199" lon="12.613468568818204"><ele>112.66666666666667</ele><time>2026-04-11T16:30:49.001Z</time></trkpt><trkpt lat="42.56729911393555" lon="12.6132513371985"><ele>112.0</ele><time>2026-04-11T16:30:50.001Z</time></trkpt><trkpt lat="42.567300654906596" lon="12.613017834033029"><ele>112.0</ele><time>2026-04-11T16:30:51.001Z</time></trkpt><trkpt lat="42.567307595318184" lon="12.612783310300083"><ele>112.0</ele><time>2026-04-11T16:30:52.001Z</time></trkpt><trkpt lat="42.56731814806002" lon="12.612538811905555"><ele>112.0</ele><time>2026-04-11T16:30:53.001Z</time></trkpt><trkpt lat="42.56732304630803" lon="12.61229051975017"><ele>112.0</ele><time>2026-04-11T16:30:54.001Z</time></trkpt><trkpt lat="42.56732269827543" lon="12.612023837174549"><ele>112.0</ele><time>2026-04-11T16:30:55.001Z</time></trkpt><trkpt lat="42.56732595436399" lon="12.611757215387414"><ele>112.0</ele><time>2026-04-11T16:30:56.001Z</time></trkpt><trkpt lat="42.56731726915702" lon="12.61147974855945"><ele>111.66666666666667</ele><time>2026-04-11T16:30:57.001Z</time></trkpt><trkpt lat="42.567301943400544" lon="12.61120332394448"><ele>111.33333333333334</ele><time>2026-04-11T16:30:58.001Z</time></trkpt><trkpt lat="42.56727847980889" lon="12.610923970542828"><ele>111.0</ele><time>2026-04-11T16:30:59.001Z</time></trkpt><trkpt lat="42.567231892907266" lon="12.610661705393394"><ele>111.0</ele><time>2026-04-11T16:31:00.001Z</time></trkpt><trkpt lat="42.56725769715242" lon="12.61038311945135"><ele>111.0</ele><time>2026-04-11T16:31:01.001Z</time></trkpt><trkpt lat="42.567261832050605" lon="12.610113711135954"><ele>111.0</ele><time>2026-04-11T16:31:02.001Z</time></trkpt><trkpt lat="42.56727436350277" lon="12.609847317945066"><ele>111.0</ele><time>2026-04-11T16:31:03.001Z</time></trkpt><trkpt lat="42.56727028974377" lon="12.60957795822267"><ele>111.0</ele><time>2026-04-11T16:31:04.001Z</time></trkpt><trkpt lat="42.567226076906856" lon="12.609324790565584"><ele>111.0</ele><time>2026-04-11T16:31:05.001Z</time></trkpt><trkpt lat="42.56716322399135" lon="12.609090258983812"><ele>110.5</ele><time>2026-04-11T16:31:06.001Z</time></trkpt><trkpt lat="42.566917695249174" lon="12.608861568903178"><ele>110.0</ele><time>2026-04-11T16:31:07.001Z</time></trkpt><trkpt lat="42.56690802914958" lon="12.608602914283253"><ele>109.66666666666666</ele><time>2026-04-11T16:31:08.001Z</time></trkpt><trkpt lat="42.56688673419872" lon="12.608365849415573"><ele>109.33333333333334</ele><time>2026-04-11T16:31:09.001Z</time></trkpt><trkpt lat="42.56688298307558" lon="12.60811951863125"><ele>109.0</ele><time>2026-04-11T16:31:10.001Z</time></trkpt><trkpt lat="42.566841114001306" lon="12.60787847856239"><ele>109.33333333333334</ele><time>2026-04-11T16:31:11.001Z</time></trkpt><trkpt lat="42.56679780387478" lon="12.607630512017378"><ele>109.66666666666666</ele><time>2026-04-11T16:31:12.001Z</time></trkpt><trkpt lat="42.56675974538652" lon="12.607389458724631"><ele>110.0</ele><time>2026-04-11T16:31:13.001Z</time></trkpt><trkpt lat="42.56672889311122" lon="12.607168542684754"><ele>110.0</ele><time>2026-04-11T16:31:14.001Z</time></trkpt><trkpt lat="42.56671100140139" lon="12.606949785439898"><ele>110.0</ele><time>2026-04-11T16:31:15.001Z</time></trkpt><trkpt lat="42.56671370212761" lon="12.606746864891424"><ele>110.0</ele><time>2026-04-11T16:31:16.001Z</time></trkpt><trkpt lat="42.56675519553198" lon="12.606548911141154"><ele>110.0</ele><time>2026-04-11T16:31:17.001Z</time></trkpt><trkpt lat="42.566786947126765" lon="12.606367874451195"><ele>110.0</ele><time>2026-04-11T16:31:18.001Z</time></trkpt><trkpt lat="42.56680833890386" lon="12.606207183645218"><ele>110.0</ele><time>2026-04-11T16:31:19.001Z</time></trkpt><trkpt lat="42.566820056282246" lon="12.606062207286518"><ele>110.0</ele><time>2026-04-11T16:31:20.001Z</time></trkpt><trkpt lat="42.56683026407151" lon="12.605923669543346"><ele>109.6</ele><time>2026-04-11T16:31:21.001Z</time></trkpt><trkpt lat="42.566843727609104" lon="12.605791143253667"><ele>109.2</ele><time>2026-04-11T16:31:22.001Z</time></trkpt><trkpt lat="42.56685956279941" lon="12.605680532282936"><ele>108.80000000000001</ele><time>2026-04-11T16:31:23.001Z</time></trkpt><trkpt lat="42.56686241144378" lon="12.605592467956203"><ele>108.4</ele><time>2026-04-11T16:31:24.001Z</time></trkpt><trkpt lat="42.56685070731419" lon="12.60546389067837"><ele>108.0</ele><time>2026-04-11T16:31:26.001Z</time></trkpt><trkpt lat="42.56670358336956" lon="12.605438840400996"><ele>108.0</ele><time>2026-04-11T16:31:27.001Z</time></trkpt><trkpt lat="42.56662281651836" lon="12.605508635106782"><ele>108.00000000000001</ele><time>2026-04-11T16:31:28.001Z</time></trkpt><trkpt lat="42.56658335798419" lon="12.605609765403875"><ele>108.00000000000001</ele><time>2026-04-11T16:31:29.001Z</time></trkpt><trkpt lat="42.566611531052246" lon="12.605769365802997"><ele>108.0</ele><time>2026-04-11T16:31:30.001Z</time></trkpt><trkpt lat="42.56663663120509" lon="12.605910914595892"><ele>108.0</ele><time>2026-04-11T16:31:31.001Z</time></trkpt><trkpt lat="42.566614464002" lon="12.606082486701323"><ele>108.5</ele><time>2026-04-11T16:31:32.001Z</time></trkpt><trkpt lat="42.56660614712578" lon="12.606270044110556"><ele>109.0</ele><time>2026-04-11T16:31:33.001Z</time></trkpt><trkpt lat="42.56660238819221" lon="12.60643926961725"><ele>109.5</ele><time>2026-04-11T16:31:34.001Z</time></trkpt><trkpt lat="42.56660043397458" lon="12.606584828690604"><ele>110.0</ele><time>2026-04-11T16:31:35.001Z</time></trkpt><trkpt lat="42.566598950799836" lon="12.606715549770838"><ele>109.99999999999999</ele><time>2026-04-11T16:31:36.001Z</time></trkpt><trkpt lat="42.566592551036315" lon="12.606830867668751"><ele>110.0</ele><time>2026-04-11T16:31:37.001Z</time></trkpt><trkpt lat="42.56656334683995" lon="12.606911092948542"><ele>110.0</ele><time>2026-04-11T16:31:38.001Z</time></trkpt><trkpt lat="42.566442604388854" lon="12.606944341175028"><ele>110.0</ele><time>2026-04-11T16:31:40.001Z</time></trkpt><trkpt lat="42.56635489192339" lon="12.606924320483087"><ele>109.99999999999999</ele><time>2026-04-11T16:31:41.001Z</time></trkpt><trkpt lat="42.56629131396825" lon="12.606908408034995"><ele>110.0</ele><time>2026-04-11T16:31:42.001Z</time></trkpt><trkpt lat="42.56621326107461" lon="12.606863532221423"><ele>110.0</ele><time>2026-04-11T16:31:44.001Z</time></trkpt><trkpt lat="42.56620596746617" lon="12.606689654706571"><ele>110.0</ele><time>2026-04-11T16:31:46.001Z</time></trkpt><trkpt lat="42.56621146237616" lon="12.606558427624506"><ele>110.0</ele><time>2026-04-11T16:31:48.001Z</time></trkpt><trkpt lat="42.566229458049136" lon="12.606473901444733"><ele>110.0</ele><time>2026-04-11T16:31:51.001Z</time></trkpt></trkseg></trk></gpx>